<?xml version='1.0' encoding='UTF-8'?><gpx version="1.1" creator="JPX - https://github.com/jenetics/jpx" xmlns="http://www.topografix.com/GPX/1/1"><trk><trkseg><trkpt lat="43.28615331669313" lon="13.35072941472407"><ele>133.0</ele><time>2026-05-03T09:31:35Z</time></trkpt><trkpt lat="43.28608611300001" lon="13.350713196718601"><ele>133.0</ele><time>2026-05-03T09:31:37Z</time></trkpt><trkpt lat="43.28600536757684" lon="13.35070164024315"><ele>133.0</ele><time>2026-05-03T09:31:40Z</time></trkpt><trkpt lat="43.28592690416673" lon="13.350684519876404"><ele>133.0</ele><time>2026-05-03T09:31:43Z</time></trkpt><trkpt lat="43.285850793825944" lon="13.350699412726225"><ele>133.0</ele><time>2026-05-03T09:31:45Z</time></trkpt><trkpt lat="43.28578826587308" lon="13.350715935416298"><ele>133.0</ele><time>2026-05-03T09:31:47Z</time></trkpt><trkpt lat="43.28571546420394" lon="13.350749670201738"><ele>133.0</ele><time>2026-05-03T09:31:50Z</time></trkpt><trkpt lat="43.285663799001284" lon="13.350811667152465"><ele>133.0</ele><time>2026-05-03T09:32:13Z</time></trkpt><trkpt lat="43.285669368526484" lon="13.35091680845894"><ele>133.0</ele><time>2026-05-03T09:32:15Z</time></trkpt><trkpt lat="43.28572443220433" lon="13.351061433983695"><ele>133.0</ele><time>2026-05-03T09:32:17Z</time></trkpt><trkpt lat="43.285739275102614" lon="13.351145942327603"><ele>133.0</ele><time>2026-05-03T09:32:18Z</time></trkpt><trkpt lat="43.28575710088891" lon="13.351231746489912"><ele>133.0</ele><time>2026-05-03T09:32:19Z</time></trkpt><trkpt lat="43.285780469077544" lon="13.351324466307135"><ele>133.0</ele><time>2026-05-03T09:32:20Z</time></trkpt><trkpt lat="43.2858024054697" lon="13.351417198738636"><ele>132.83333333333334</ele><time>2026-05-03T09:32:20.999Z</time></trkpt><trkpt lat="43.28582771157423" lon="13.35151285271996"><ele>132.66666666666669</ele><time>2026-05-03T09:32:21.999Z</time></trkpt><trkpt lat="43.28586070970853" lon="13.351607714388892"><ele>132.5</ele><time>2026-05-03T09:32:22.999Z</time></trkpt><trkpt lat="43.28589061898773" lon="13.351707090065206"><ele>132.33333333333334</ele><time>2026-05-03T09:32:23.999Z</time></trkpt><trkpt lat="43.2859205825567" lon="13.351815913214828"><ele>132.16666666666666</ele><time>2026-05-03T09:32:24.999Z</time></trkpt><trkpt lat="43.285951709373315" lon="13.351930927888644"><ele>132.0</ele><time>2026-05-03T09:32:25.999Z</time></trkpt><trkpt lat="43.285982037351936" lon="13.3520443901772"><ele>132.0</ele><time>2026-05-03T09:32:26.999Z</time></trkpt><trkpt lat="43.28601870162903" lon="13.35216223179016"><ele>132.0</ele><time>2026-05-03T09:32:27.999Z</time></trkpt><trkpt lat="43.28606336365234" lon="13.352283055312338"><ele>132.0</ele><time>2026-05-03T09:32:28.999Z</time></trkpt><trkpt lat="43.28610493547579" lon="13.352413027871442"><ele>132.0</ele><time>2026-05-03T09:32:29.999Z</time></trkpt><trkpt lat="43.286144700563106" lon="13.35255139077718"><ele>132.0</ele><time>2026-05-03T09:32:30.999Z</time></trkpt><trkpt lat="43.28618362705004" lon="13.352691359301476"><ele>132.0</ele><time>2026-05-03T09:32:31.999Z</time></trkpt><trkpt lat="43.28622543887548" lon="13.352832532511197"><ele>132.0</ele><time>2026-05-03T09:32:32.999Z</time></trkpt><trkpt lat="43.286269636279535" lon="13.352970787440475"><ele>132.0</ele><time>2026-05-03T09:32:33.999Z</time></trkpt><trkpt lat="43.2863077258001" lon="13.35311104225122"><ele>132.0</ele><time>2026-05-03T09:32:34.999Z</time></trkpt><trkpt lat="43.28635046179556" lon="13.353250190739681"><ele>132.0</ele><time>2026-05-03T09:32:35.999Z</time></trkpt><trkpt lat="43.28638948868239" lon="13.353395226338515"><ele>131.25</ele><time>2026-05-03T09:32:36.999Z</time></trkpt><trkpt lat="43.286431096082204" lon="13.353535028488094"><ele>130.5</ele><time>2026-05-03T09:32:37.999Z</time></trkpt><trkpt lat="43.28647671537638" lon="13.353680729903651"><ele>129.75</ele><time>2026-05-03T09:32:38.999Z</time></trkpt><trkpt lat="43.28652111940309" lon="13.35382513451892"><ele>129.0</ele><time>2026-05-03T09:32:39.999Z</time></trkpt><trkpt lat="43.28656453502596" lon="13.353971530736208"><ele>128.75</ele><time>2026-05-03T09:32:40.999Z</time></trkpt><trkpt lat="43.28660671693336" lon="13.354122118940552"><ele>128.5</ele><time>2026-05-03T09:32:41.999Z</time></trkpt><trkpt lat="43.28665037708578" lon="13.354279207499003"><ele>128.25</ele><time>2026-05-03T09:32:42.999Z</time></trkpt><trkpt lat="43.28669339672735" lon="13.354435628282289"><ele>128.0</ele><time>2026-05-03T09:32:43.999Z</time></trkpt><trkpt lat="43.28674207325202" lon="13.354597279067873"><ele>128.25</ele><time>2026-05-03T09:32:44.999Z</time></trkpt><trkpt lat="43.28678767658666" lon="13.354755155725988"><ele>128.5</ele><time>2026-05-03T09:32:45.999Z</time></trkpt><trkpt lat="43.28683604917847" lon="13.354911177770566"><ele>128.75</ele><time>2026-05-03T09:32:46.999Z</time></trkpt><trkpt lat="43.28688443927347" lon="13.355062829636365"><ele>129.0</ele><time>2026-05-03T09:32:47.999Z</time></trkpt><trkpt lat="43.28694612540781" lon="13.355214451436632"><ele>129.0</ele><time>2026-05-03T09:32:48.999Z</time></trkpt><trkpt lat="43.28701366748302" lon="13.355360185133009"><ele>129.0</ele><time>2026-05-03T09:32:49.999Z</time></trkpt><trkpt lat="43.28708786654179" lon="13.355504760854876"><ele>129.0</ele><time>2026-05-03T09:32:50.999Z</time></trkpt><trkpt lat="43.28716878037146" lon="13.355641843733475"><ele>129.0</ele><time>2026-05-03T09:32:51.999Z</time></trkpt><trkpt lat="43.28725353860757" lon="13.355775842930534"><ele>128.75</ele><time>2026-05-03T09:32:52.999Z</time></trkpt><trkpt lat="43.2873426669588" lon="13.35591082420089"><ele>128.5</ele><time>2026-05-03T09:32:53.999Z</time></trkpt><trkpt lat="43.2874250066929" lon="13.356045379101962"><ele>128.25</ele><time>2026-05-03T09:32:54.999Z</time></trkpt><trkpt lat="43.28751570862478" lon="13.35618325223865"><ele>128.0</ele><time>2026-05-03T09:32:55.999Z</time></trkpt><trkpt lat="43.287603760581035" lon="13.356319668273969"><ele>128.0</ele><time>2026-05-03T09:32:56.999Z</time></trkpt><trkpt lat="43.28769165872169" lon="13.356455205306009"><ele>128.0</ele><time>2026-05-03T09:32:57.999Z</time></trkpt><trkpt lat="43.28777818034745" lon="13.356591273837363"><ele>128.0</ele><time>2026-05-03T09:32:58.999Z</time></trkpt><trkpt lat="43.287866538214224" lon="13.35673060347214"><ele>128.0</ele><time>2026-05-03T09:32:59.999Z</time></trkpt><trkpt lat="43.28795617175688" lon="13.35686730959416"><ele>128.0</ele><time>2026-05-03T09:33:00.999Z</time></trkpt><trkpt lat="43.28804108562486" lon="13.357002392591657"><ele>128.0</ele><time>2026-05-03T09:33:01.999Z</time></trkpt><trkpt lat="43.28813049012555" lon="13.35713778943129"><ele>128.0</ele><time>2026-05-03T09:33:02.999Z</time></trkpt><trkpt lat="43.288217953535536" lon="13.357277634373178"><ele>128.0</ele><time>2026-05-03T09:33:03.999Z</time></trkpt><trkpt lat="43.288302652151145" lon="13.357416293338131"><ele>128.0</ele><time>2026-05-03T09:33:04.999Z</time></trkpt><trkpt lat="43.28838800372394" lon="13.35755178324362"><ele>128.0</ele><time>2026-05-03T09:33:05.999Z</time></trkpt><trkpt lat="43.28847181191523" lon="13.35769170035616"><ele>128.0</ele><time>2026-05-03T09:33:06.999Z</time></trkpt><trkpt lat="43.28856131326601" lon="13.357831107244357"><ele>128.0</ele><time>2026-05-03T09:33:07.999Z</time></trkpt><trkpt lat="43.288649588615996" lon="13.357973505178826"><ele>128.0</ele><time>2026-05-03T09:33:08.999Z</time></trkpt><trkpt lat="43.2887323647266" lon="13.358122454068514"><ele>128.0</ele><time>2026-05-03T09:33:09.999Z</time></trkpt><trkpt lat="43.288818616089074" lon="13.358275929031315"><ele>128.0</ele><time>2026-05-03T09:33:10.999Z</time></trkpt><trkpt lat="43.28889884819023" lon="13.35842273469445"><ele>128.0</ele><time>2026-05-03T09:33:11.999Z</time></trkpt><trkpt lat="43.288980220100306" lon="13.358581033673456"><ele>127.75</ele><time>2026-05-03T09:33:12.999Z</time></trkpt><trkpt lat="43.28906219934369" lon="13.358731952316672"><ele>127.5</ele><time>2026-05-03T09:33:13.999Z</time></trkpt><trkpt lat="43.28913730979036" lon="13.358885078547528"><ele>127.25</ele><time>2026-05-03T09:33:14.999Z</time></trkpt><trkpt lat="43.2892223420746" lon="13.359040069355952"><ele>127.0</ele><time>2026-05-03T09:33:15.999Z</time></trkpt><trkpt lat="43.28931001165271" lon="13.359198551599688"><ele>127.0</ele><time>2026-05-03T09:33:16.999Z</time></trkpt><trkpt lat="43.28939479894278" lon="13.359353709928778"><ele>127.0</ele><time>2026-05-03T09:33:17.999Z</time></trkpt><trkpt lat="43.28947603433216" lon="13.359515152988406"><ele>127.0</ele><time>2026-05-03T09:33:18.999Z</time></trkpt><trkpt lat="43.289561956830035" lon="13.35967409071723"><ele>127.0</ele><time>2026-05-03T09:33:19.999Z</time></trkpt><trkpt lat="43.289641707020174" lon="13.359836852231096"><ele>127.0</ele><time>2026-05-03T09:33:20.999Z</time></trkpt><trkpt lat="43.289724966388185" lon="13.359993703427373"><ele>127.0</ele><time>2026-05-03T09:33:21.999Z</time></trkpt><trkpt lat="43.28980985440055" lon="13.360159271251739"><ele>127.0</ele><time>2026-05-03T09:33:22.999Z</time></trkpt><trkpt lat="43.28989530232009" lon="13.360319544046368"><ele>127.0</ele><time>2026-05-03T09:33:23.999Z</time></trkpt><trkpt lat="43.28998095925316" lon="13.360485751961688"><ele>126.5</ele><time>2026-05-03T09:33:24.999Z</time></trkpt><trkpt lat="43.29006302288425" lon="13.360643755461053"><ele>126.0</ele><time>2026-05-03T09:33:25.999Z</time></trkpt><trkpt lat="43.29014461714786" lon="13.360805016451732"><ele>125.5</ele><time>2026-05-03T09:33:26.999Z</time></trkpt><trkpt lat="43.290230007255886" lon="13.36097208205577"><ele>125.0</ele><time>2026-05-03T09:33:27.999Z</time></trkpt><trkpt lat="43.29031833968809" lon="13.361138512743997"><ele>125.0</ele><time>2026-05-03T09:33:28.999Z</time></trkpt><trkpt lat="43.290405257009624" lon="13.36130569196201"><ele>125.0</ele><time>2026-05-03T09:33:29.999Z</time></trkpt><trkpt lat="43.290490683147986" lon="13.361473408058727"><ele>125.0</ele><time>2026-05-03T09:33:30.999Z</time></trkpt><trkpt lat="43.290582567891775" lon="13.361649351708868"><ele>124.66666666666666</ele><time>2026-05-03T09:33:31.999Z</time></trkpt><trkpt lat="43.290674005238834" lon="13.36181406364226"><ele>124.33333333333334</ele><time>2026-05-03T09:33:32.999Z</time></trkpt><trkpt lat="43.29076623142241" lon="13.361984301007313"><ele>124.0</ele><time>2026-05-03T09:33:33.999Z</time></trkpt><trkpt lat="43.29086048529014" lon="13.36215246711617"><ele>124.33333333333334</ele><time>2026-05-03T09:33:34.999Z</time></trkpt><trkpt lat="43.29095726617111" lon="13.36232912523123"><ele>124.66666666666666</ele><time>2026-05-03T09:33:35.999Z</time></trkpt><trkpt lat="43.29104995491926" lon="13.362503405668877"><ele>125.0</ele><time>2026-05-03T09:33:36.999Z</time></trkpt><trkpt lat="43.29114477298314" lon="13.36268019232205"><ele>125.0</ele><time>2026-05-03T09:33:37.999Z</time></trkpt><trkpt lat="43.29123486680432" lon="13.362853427324906"><ele>125.0</ele><time>2026-05-03T09:33:38.999Z</time></trkpt><trkpt lat="43.29133282927719" lon="13.363033950737977"><ele>125.0</ele><time>2026-05-03T09:33:39.999Z</time></trkpt><trkpt lat="43.29143131457067" lon="13.363210432814135"><ele>124.33333333333333</ele><time>2026-05-03T09:33:40.999Z</time></trkpt><trkpt lat="43.29152513847772" lon="13.36338628054806"><ele>123.66666666666666</ele><time>2026-05-03T09:33:41.999Z</time></trkpt><trkpt lat="43.291619347828124" lon="13.363563564141941"><ele>123.0</ele><time>2026-05-03T09:33:42.999Z</time></trkpt><trkpt lat="43.29170904600232" lon="13.363738072874574"><ele>123.0</ele><time>2026-05-03T09:33:43.999Z</time></trkpt><trkpt lat="43.29178949177007" lon="13.363908528267942"><ele>123.0</ele><time>2026-05-03T09:33:44.999Z</time></trkpt><trkpt lat="43.29185162919595" lon="13.36408674420563"><ele>123.0</ele><time>2026-05-03T09:33:45.999Z</time></trkpt><trkpt lat="43.29190112318035" lon="13.364276649161976"><ele>123.0</ele><time>2026-05-03T09:33:46.999Z</time></trkpt><trkpt lat="43.29193855493874" lon="13.364476640631798"><ele>123.0</ele><time>2026-05-03T09:33:47.999Z</time></trkpt><trkpt lat="43.29196355047692" lon="13.36468364633734"><ele>123.0</ele><time>2026-05-03T09:33:48.999Z</time></trkpt><trkpt lat="43.29198474471451" lon="13.364903738900063"><ele>123.0</ele><time>2026-05-03T09:33:49.999Z</time></trkpt><trkpt lat="43.291999040679904" lon="13.365116243098239"><ele>123.0</ele><time>2026-05-03T09:33:50.999Z</time></trkpt><trkpt lat="43.292018383011154" lon="13.36533801461128"><ele>123.0</ele><time>2026-05-03T09:33:51.999Z</time></trkpt><trkpt lat="43.29203743084365" lon="13.365558243081924"><ele>123.0</ele><time>2026-05-03T09:33:52.999Z</time></trkpt><trkpt lat="43.29205925112078" lon="13.365791017050503"><ele>123.0</ele><time>2026-05-03T09:33:53.999Z</time></trkpt><trkpt lat="43.29207785605812" lon="13.36601887303779"><ele>123.0</ele><time>2026-05-03T09:33:54.999Z</time></trkpt><trkpt lat="43.29209868605865" lon="13.366255901222837"><ele>123.0</ele><time>2026-05-03T09:33:55.999Z</time></trkpt><trkpt lat="43.29211988486202" lon="13.366489583786691"><ele>122.66666666666666</ele><time>2026-05-03T09:33:56.999Z</time></trkpt><trkpt lat="43.29214525656342" lon="13.366727173802627"><ele>122.33333333333333</ele><time>2026-05-03T09:33:57.999Z</time></trkpt><trkpt lat="43.29216522603361" lon="13.366961366818375"><ele>122.0</ele><time>2026-05-03T09:33:58.999Z</time></trkpt><trkpt lat="43.2921883304334" lon="13.367197084911945"><ele>121.66666666666666</ele><time>2026-05-03T09:33:59.999Z</time></trkpt><trkpt lat="43.29221772721687" lon="13.36743959307971"><ele>121.33333333333334</ele><time>2026-05-03T09:34:00.999Z</time></trkpt><trkpt lat="43.29225105828287" lon="13.36767310388948"><ele>121.0</ele><time>2026-05-03T09:34:01.999Z</time></trkpt><trkpt lat="43.29230270879284" lon="13.367903348920143"><ele>121.0</ele><time>2026-05-03T09:34:02.999Z</time></trkpt><trkpt lat="43.292364616306244" lon="13.368129554431022"><ele>121.0</ele><time>2026-05-03T09:34:03.999Z</time></trkpt><trkpt lat="43.292435532300686" lon="13.368345191723781"><ele>121.0</ele><time>2026-05-03T09:34:04.999Z</time></trkpt><trkpt lat="43.29252082532691" lon="13.368553181013457"><ele>121.0</ele><time>2026-05-03T09:34:05.999Z</time></trkpt><trkpt lat="43.292617830490926" lon="13.368748863824795"><ele>121.0</ele><time>2026-05-03T09:34:06.999Z</time></trkpt><trkpt lat="43.29272274702056" lon="13.368942138150825"><ele>121.0</ele><time>2026-05-03T09:34:07.999Z</time></trkpt><trkpt lat="43.29282901976873" lon="13.369124366111409"><ele>121.0</ele><time>2026-05-03T09:34:08.999Z</time></trkpt><trkpt lat="43.292940503650556" lon="13.369313369533648"><ele>121.0</ele><time>2026-05-03T09:34:09.999Z</time></trkpt><trkpt lat="43.293054372009834" lon="13.369494959154059"><ele>121.0</ele><time>2026-05-03T09:34:10.999Z</time></trkpt><trkpt lat="43.29317010032814" lon="13.369677104988709"><ele>120.66666666666667</ele><time>2026-05-03T09:34:11.999Z</time></trkpt><trkpt lat="43.293284179058595" lon="13.36985913677039"><ele>120.33333333333334</ele><time>2026-05-03T09:34:12.999Z</time></trkpt><trkpt lat="43.29339375170581" lon="13.370041436119196"><ele>120.0</ele><time>2026-05-03T09:34:13.999Z</time></trkpt><trkpt lat="43.29349829522671" lon="13.37023497400851"><ele>120.0</ele><time>2026-05-03T09:34:14.999Z</time></trkpt><trkpt lat="43.293591412015985" lon="13.370441962489988"><ele>120.0</ele><time>2026-05-03T09:34:15.999Z</time></trkpt><trkpt lat="43.2936649290104" lon="13.370660664418232"><ele>120.0</ele><time>2026-05-03T09:34:16.999Z</time></trkpt><trkpt lat="43.293725689117174" lon="13.370894746137537"><ele>119.66666666666666</ele><time>2026-05-03T09:34:17.999Z</time></trkpt><trkpt lat="43.293784187067324" lon="13.371129241266194"><ele>119.33333333333333</ele><time>2026-05-03T09:34:18.999Z</time></trkpt><trkpt lat="43.29383968883003" lon="13.371365555911092"><ele>119.0</ele><time>2026-05-03T09:34:19.999Z</time></trkpt><trkpt lat="43.293897563591784" lon="13.371602695678282"><ele>119.0</ele><time>2026-05-03T09:34:20.999Z</time></trkpt><trkpt lat="43.293953255382256" lon="13.371835379941626"><ele>119.0</ele><time>2026-05-03T09:34:21.999Z</time></trkpt><trkpt lat="43.294008623768015" lon="13.372070787482164"><ele>119.0</ele><time>2026-05-03T09:34:22.999Z</time></trkpt><trkpt lat="43.2940629706771" lon="13.372308095643973"><ele>119.0</ele><time>2026-05-03T09:34:23.999Z</time></trkpt><trkpt lat="43.2941157482426" lon="13.372546025766805"><ele>119.0</ele><time>2026-05-03T09:34:24.999Z</time></trkpt><trkpt lat="43.294162727612104" lon="13.37279012179719"><ele>119.0</ele><time>2026-05-03T09:34:25.999Z</time></trkpt><trkpt lat="43.294199064357315" lon="13.37303589666582"><ele>118.66666666666666</ele><time>2026-05-03T09:34:26.998Z</time></trkpt><trkpt lat="43.294218744510886" lon="13.373286865708124"><ele>118.33333333333334</ele><time>2026-05-03T09:34:27.998Z</time></trkpt><trkpt lat="43.29422779365887" lon="13.373534832735738"><ele>118.0</ele><time>2026-05-03T09:34:28.998Z</time></trkpt><trkpt lat="43.294238779795336" lon="13.373784764545757"><ele>118.66666666666667</ele><time>2026-05-03T09:34:29.998Z</time></trkpt><trkpt lat="43.29425092536364" lon="13.374031833451795"><ele>119.33333333333334</ele><time>2026-05-03T09:34:30.998Z</time></trkpt><trkpt lat="43.2942667168826" lon="13.374285190017098"><ele>120.0</ele><time>2026-05-03T09:34:31.998Z</time></trkpt><trkpt lat="43.2942789959466" lon="13.374536549468173"><ele>120.0</ele><time>2026-05-03T09:34:32.998Z</time></trkpt><trkpt lat="43.29428540456148" lon="13.374790179935903"><ele>120.0</ele><time>2026-05-03T09:34:33.998Z</time></trkpt><trkpt lat="43.29427593784854" lon="13.375042710569762"><ele>120.0</ele><time>2026-05-03T09:34:34.998Z</time></trkpt><trkpt lat="43.29424749281657" lon="13.375293339210415"><ele>119.66666666666666</ele><time>2026-05-03T09:34:35.999Z</time></trkpt><trkpt lat="43.29420459816923" lon="13.375541438885591"><ele>119.33333333333333</ele><time>2026-05-03T09:34:36.999Z</time></trkpt><trkpt lat="43.294163132065" lon="13.37578754992844"><ele>119.0</ele><time>2026-05-03T09:34:37.999Z</time></trkpt><trkpt lat="43.294127536255345" lon="13.376038158799629"><ele>119.0</ele><time>2026-05-03T09:34:38.999Z</time></trkpt><trkpt lat="43.294091003688486" lon="13.376284281019668"><ele>119.0</ele><time>2026-05-03T09:34:39.999Z</time></trkpt><trkpt lat="43.294052606224106" lon="13.376537611104434"><ele>119.0</ele><time>2026-05-03T09:34:40.999Z</time></trkpt><trkpt lat="43.29401638113727" lon="13.376784135990174"><ele>119.0</ele><time>2026-05-03T09:34:41.999Z</time></trkpt><trkpt lat="43.293978245749344" lon="13.377029852170361"><ele>119.0</ele><time>2026-05-03T09:34:42.999Z</time></trkpt><trkpt lat="43.293942293740294" lon="13.377276646498888"><ele>119.0</ele><time>2026-05-03T09:34:43.999Z</time></trkpt><trkpt lat="43.29390528826548" lon="13.377512594548245"><ele>118.66666666666666</ele><time>2026-05-03T09:34:44.999Z</time></trkpt><trkpt lat="43.29385799768642" lon="13.377732519132143"><ele>118.33333333333334</ele><time>2026-05-03T09:34:45.999Z</time></trkpt><trkpt lat="43.293793550659885" lon="13.37794491315634"><ele>118.0</ele><time>2026-05-03T09:34:46.999Z</time></trkpt><trkpt lat="43.293710780857424" lon="13.378137730641793"><ele>118.0</ele><time>2026-05-03T09:34:47.999Z</time></trkpt><trkpt lat="43.29360892262366" lon="13.378309529209893"><ele>118.0</ele><time>2026-05-03T09:34:48.999Z</time></trkpt><trkpt lat="43.293492236011026" lon="13.378464140077833"><ele>118.0</ele><time>2026-05-03T09:34:49.999Z</time></trkpt><trkpt lat="43.29336375370624" lon="13.378601493220252"><ele>118.0</ele><time>2026-05-03T09:34:50.999Z</time></trkpt><trkpt lat="43.29322617826502" lon="13.378718282446677"><ele>118.0</ele><time>2026-05-03T09:34:51.999Z</time></trkpt><trkpt lat="43.29308059257447" lon="13.378809302656745"><ele>118.0</ele><time>2026-05-03T09:34:52.999Z</time></trkpt><trkpt lat="43.29292890886232" lon="13.37888162272456"><ele>118.66666666666667</ele><time>2026-05-03T09:34:53.999Z</time></trkpt><trkpt lat="43.29277507948685" lon="13.378949121536472"><ele>119.33333333333334</ele><time>2026-05-03T09:34:54.999Z</time></trkpt><trkpt lat="43.29262203922728" lon="13.379030384911314"><ele>120.0</ele><time>2026-05-03T09:34:55.999Z</time></trkpt><trkpt lat="43.292467988555366" lon="13.37911588415225"><ele>120.0</ele><time>2026-05-03T09:34:56.999Z</time></trkpt><trkpt lat="43.29231387698167" lon="13.379201446005926"><ele>120.0</ele><time>2026-05-03T09:34:57.999Z</time></trkpt><trkpt lat="43.29215634513534" lon="13.379285270578679"><ele>120.0</ele><time>2026-05-03T09:34:58.999Z</time></trkpt><trkpt lat="43.29199814496594" lon="13.379369298141805"><ele>121.0</ele><time>2026-05-03T09:34:59.999Z</time></trkpt><trkpt lat="43.2918421947793" lon="13.37945375676299"><ele>122.0</ele><time>2026-05-03T09:35:00.999Z</time></trkpt><trkpt lat="43.29168664214258" lon="13.37953568376189"><ele>123.0</ele><time>2026-05-03T09:35:01.999Z</time></trkpt><trkpt lat="43.29153032468915" lon="13.379617862142462"><ele>124.66666666666666</ele><time>2026-05-03T09:35:02.999Z</time></trkpt><trkpt lat="43.291377716031235" lon="13.37970501961425"><ele>126.33333333333333</ele><time>2026-05-03T09:35:03.999Z</time></trkpt><trkpt lat="43.291224994333845" lon="13.379791439356033"><ele>128.0</ele><time>2026-05-03T09:35:04.999Z</time></trkpt><trkpt lat="43.2910714316838" lon="13.379875691055473"><ele>128.0</ele><time>2026-05-03T09:35:05.999Z</time></trkpt><trkpt lat="43.29091709451904" lon="13.379956708734493"><ele>128.0</ele><time>2026-05-03T09:35:06.999Z</time></trkpt><trkpt lat="43.29076147591343" lon="13.38003823318875"><ele>128.0</ele><time>2026-05-03T09:35:07.999Z</time></trkpt><trkpt lat="43.29060474666115" lon="13.380120524342551"><ele>128.33333333333331</ele><time>2026-05-03T09:35:08.999Z</time></trkpt><trkpt lat="43.29044588840536" lon="13.38020436865989"><ele>128.66666666666666</ele><time>2026-05-03T09:35:09.999Z</time></trkpt><trkpt lat="43.29028903971548" lon="13.380287847430296"><ele>129.0</ele><time>2026-05-03T09:35:10.999Z</time></trkpt><trkpt lat="43.290130019664836" lon="13.380370966849766"><ele>129.0</ele><time>2026-05-03T09:35:11.999Z</time></trkpt><trkpt lat="43.28997337447332" lon="13.380455172441799"><ele>129.0</ele><time>2026-05-03T09:35:12.999Z</time></trkpt><trkpt lat="43.28981563403831" lon="13.380543023185082"><ele>129.0</ele><time>2026-05-03T09:35:13.999Z</time></trkpt><trkpt lat="43.289657304619055" lon="13.380631782686855"><ele>130.33333333333334</ele><time>2026-05-03T09:35:14.999Z</time></trkpt><trkpt lat="43.289500836081196" lon="13.380724139296202"><ele>131.66666666666669</ele><time>2026-05-03T09:35:15.999Z</time></trkpt><trkpt lat="43.2893460340858" lon="13.380821965910867"><ele>133.0</ele><time>2026-05-03T09:35:16.999Z</time></trkpt><trkpt lat="43.28917988900186" lon="13.380880471634093"><ele>133.0</ele><time>2026-05-03T09:35:17.999Z</time></trkpt><trkpt lat="43.28901928648296" lon="13.380964936751045"><ele>133.0</ele><time>2026-05-03T09:35:18.999Z</time></trkpt><trkpt lat="43.28886342811686" lon="13.381053730326364"><ele>133.0</ele><time>2026-05-03T09:35:19.999Z</time></trkpt><trkpt lat="43.288703820895016" lon="13.381137875442848"><ele>133.33333333333334</ele><time>2026-05-03T09:35:20.999Z</time></trkpt><trkpt lat="43.28854400081436" lon="13.381231245090085"><ele>133.66666666666666</ele><time>2026-05-03T09:35:21.999Z</time></trkpt><trkpt lat="43.288387291582424" lon="13.381314856405922"><ele>134.0</ele><time>2026-05-03T09:35:22.999Z</time></trkpt><trkpt lat="43.28822770172286" lon="13.381398040091398"><ele>134.66666666666666</ele><time>2026-05-03T09:35:23.999Z</time></trkpt><trkpt lat="43.28807209846247" lon="13.38147842826812"><ele>135.33333333333334</ele><time>2026-05-03T09:35:24.999Z</time></trkpt><trkpt lat="43.28791249343372" lon="13.38156184934691"><ele>136.0</ele><time>2026-05-03T09:35:25.999Z</time></trkpt><trkpt lat="43.28775546458276" lon="13.381646438049"><ele>136.0</ele><time>2026-05-03T09:35:26.999Z</time></trkpt><trkpt lat="43.28760182593909" lon="13.381735572307905"><ele>136.0</ele><time>2026-05-03T09:35:27.999Z</time></trkpt><trkpt lat="43.287452228742524" lon="13.38182844489505"><ele>136.0</ele><time>2026-05-03T09:35:28.999Z</time></trkpt><trkpt lat="43.28731563913143" lon="13.381946023079198"><ele>136.66666666666669</ele><time>2026-05-03T09:35:29.999Z</time></trkpt><trkpt lat="43.28720382846564" lon="13.382088741172845"><ele>137.33333333333334</ele><time>2026-05-03T09:35:30.999Z</time></trkpt><trkpt lat="43.287118898624676" lon="13.382258258917034"><ele>138.0</ele><time>2026-05-03T09:35:31.999Z</time></trkpt><trkpt lat="43.28705316649388" lon="13.382445782770976"><ele>138.33333333333334</ele><time>2026-05-03T09:35:32.999Z</time></trkpt><trkpt lat="43.28700533134157" lon="13.382644409655612"><ele>138.66666666666669</ele><time>2026-05-03T09:35:33.999Z</time></trkpt><trkpt lat="43.28697290972636" lon="13.382861729628823"><ele>139.0</ele><time>2026-05-03T09:35:34.999Z</time></trkpt><trkpt lat="43.286961272214235" lon="13.383076882241669"><ele>140.33333333333334</ele><time>2026-05-03T09:35:35.999Z</time></trkpt><trkpt lat="43.28696831142399" lon="13.383288970366026"><ele>141.66666666666666</ele><time>2026-05-03T09:35:36.999Z</time></trkpt><trkpt lat="43.286993393660325" lon="13.383505352373069"><ele>143.0</ele><time>2026-05-03T09:35:37.999Z</time></trkpt><trkpt lat="43.28702208651425" lon="13.383723487552455"><ele>145.0</ele><time>2026-05-03T09:35:38.999Z</time></trkpt><trkpt lat="43.28704308353181" lon="13.383943948095542"><ele>147.0</ele><time>2026-05-03T09:35:39.999Z</time></trkpt><trkpt lat="43.287056468129634" lon="13.384164777086891"><ele>149.0</ele><time>2026-05-03T09:35:40.999Z</time></trkpt><trkpt lat="43.2870690016511" lon="13.384384048241094"><ele>149.0</ele><time>2026-05-03T09:35:41.999Z</time></trkpt><trkpt lat="43.28708132008256" lon="13.384604763748039"><ele>149.0</ele><time>2026-05-03T09:35:42.999Z</time></trkpt><trkpt lat="43.28709236757179" lon="13.38482819356046"><ele>149.0</ele><time>2026-05-03T09:35:43.999Z</time></trkpt><trkpt lat="43.287107026889096" lon="13.385049327707549"><ele>150.33333333333331</ele><time>2026-05-03T09:35:44.999Z</time></trkpt><trkpt lat="43.28711659915134" lon="13.385269262012612"><ele>151.66666666666666</ele><time>2026-05-03T09:35:45.999Z</time></trkpt><trkpt lat="43.287098108807676" lon="13.38548092974699"><ele>153.0</ele><time>2026-05-03T09:35:46.999Z</time></trkpt><trkpt lat="43.28707861296586" lon="13.385693130374714"><ele>154.33333333333334</ele><time>2026-05-03T09:35:47.999Z</time></trkpt><trkpt lat="43.28700842299453" lon="13.385886353345557"><ele>155.66666666666669</ele><time>2026-05-03T09:35:48.999Z</time></trkpt><trkpt lat="43.28694798212273" lon="13.386080425640266"><ele>157.0</ele><time>2026-05-03T09:35:49.999Z</time></trkpt><trkpt lat="43.28688720091231" lon="13.386278996783997"><ele>158.0</ele><time>2026-05-03T09:35:50.999Z</time></trkpt><trkpt lat="43.28684247212272" lon="13.38648299606718"><ele>159.0</ele><time>2026-05-03T09:35:51.999Z</time></trkpt><trkpt lat="43.286786075752715" lon="13.386684645659866"><ele>160.0</ele><time>2026-05-03T09:35:52.999Z</time></trkpt><trkpt lat="43.286743045895605" lon="13.386891171564704"><ele>160.0</ele><time>2026-05-03T09:35:53.999Z</time></trkpt><trkpt lat="43.28671857940165" lon="13.387098823117014"><ele>160.0</ele><time>2026-05-03T09:35:54.999Z</time></trkpt><trkpt lat="43.28672124410692" lon="13.387308108426863"><ele>160.0</ele><time>2026-05-03T09:35:55.999Z</time></trkpt><trkpt lat="43.286755039451094" lon="13.387502916129588"><ele>161.0</ele><time>2026-05-03T09:35:56.999Z</time></trkpt><trkpt lat="43.28681229564978" lon="13.38768794671893"><ele>162.0</ele><time>2026-05-03T09:35:57.999Z</time></trkpt><trkpt lat="43.28687687893807" lon="13.387866468494336"><ele>163.0</ele><time>2026-05-03T09:35:58.999Z</time></trkpt><trkpt lat="43.28692936328303" lon="13.388048271613393"><ele>164.0</ele><time>2026-05-03T09:35:59.999Z</time></trkpt><trkpt lat="43.28698035383782" lon="13.388243313900215"><ele>166.66666666666666</ele><time>2026-05-03T09:36:00.999Z</time></trkpt><trkpt lat="43.28703551738079" lon="13.38844989808593"><ele>169.33333333333334</ele><time>2026-05-03T09:36:01.999Z</time></trkpt><trkpt lat="43.2870918862506" lon="13.388661295186866"><ele>172.0</ele><time>2026-05-03T09:36:02.999Z</time></trkpt><trkpt lat="43.287151578529304" lon="13.388865975491928"><ele>170.66666666666669</ele><time>2026-05-03T09:36:03.999Z</time></trkpt><trkpt lat="43.28721156517141" lon="13.389077621262134"><ele>169.33333333333334</ele><time>2026-05-03T09:36:04.999Z</time></trkpt><trkpt lat="43.28726917689225" lon="13.38929539577537"><ele>168.0</ele><time>2026-05-03T09:36:05.999Z</time></trkpt><trkpt lat="43.287322911227534" lon="13.389511649068988"><ele>169.5</ele><time>2026-05-03T09:36:06.999Z</time></trkpt><trkpt lat="43.28736841927859" lon="13.389715676341424"><ele>171.0</ele><time>2026-05-03T09:36:07.999Z</time></trkpt><trkpt lat="43.28738218453552" lon="13.38991314332362"><ele>172.5</ele><time>2026-05-03T09:36:08.999Z</time></trkpt><trkpt lat="43.28734580921771" lon="13.390107518332611"><ele>174.0</ele><time>2026-05-03T09:36:09.999Z</time></trkpt><trkpt lat="43.2873307581914" lon="13.390311965106722"><ele>175.0</ele><time>2026-05-03T09:36:10.999Z</time></trkpt><trkpt lat="43.28729445856665" lon="13.390508922854654"><ele>176.0</ele><time>2026-05-03T09:36:11.999Z</time></trkpt><trkpt lat="43.28726461982383" lon="13.390710560934798"><ele>177.0</ele><time>2026-05-03T09:36:12.999Z</time></trkpt><trkpt lat="43.28723610828387" lon="13.390915107460245"><ele>178.0</ele><time>2026-05-03T09:36:13.999Z</time></trkpt><trkpt lat="43.28720394143245" lon="13.391113910571596"><ele>181.0</ele><time>2026-05-03T09:36:14.999Z</time></trkpt><trkpt lat="43.287160171891244" lon="13.391302904741485"><ele>184.0</ele><time>2026-05-03T09:36:15.999Z</time></trkpt><trkpt lat="43.28709623928571" lon="13.391474224663153"><ele>187.0</ele><time>2026-05-03T09:36:16.999Z</time></trkpt><trkpt lat="43.28699186189885" lon="13.391604487810588"><ele>190.0</ele><time>2026-05-03T09:36:17.999Z</time></trkpt><trkpt lat="43.28689788026046" lon="13.39175099478374"><ele>190.0</ele><time>2026-05-03T09:36:18.999Z</time></trkpt><trkpt lat="43.286782555154176" lon="13.391870519949524"><ele>190.0</ele><time>2026-05-03T09:36:19.999Z</time></trkpt><trkpt lat="43.28666566066742" lon="13.392000992324013"><ele>190.0</ele><time>2026-05-03T09:36:20.999Z</time></trkpt><trkpt lat="43.286549662475345" lon="13.392134270169423"><ele>190.0</ele><time>2026-05-03T09:36:21.999Z</time></trkpt><trkpt lat="43.28643900304032" lon="13.39227542422338"><ele>190.0</ele><time>2026-05-03T09:36:22.999Z</time></trkpt><trkpt lat="43.28633448960519" lon="13.392427989108201"><ele>190.0</ele><time>2026-05-03T09:36:23.999Z</time></trkpt><trkpt lat="43.28624360893655" lon="13.392594166718144"><ele>190.0</ele><time>2026-05-03T09:36:24.999Z</time></trkpt><trkpt lat="43.2861701473477" lon="13.392772376685562"><ele>190.0</ele><time>2026-05-03T09:36:25.999Z</time></trkpt><trkpt lat="43.28611564499897" lon="13.392962352083083"><ele>190.0</ele><time>2026-05-03T09:36:26.999Z</time></trkpt><trkpt lat="43.28606926817233" lon="13.393158924235388"><ele>190.0</ele><time>2026-05-03T09:36:27.999Z</time></trkpt><trkpt lat="43.28601788635603" lon="13.393350982227584"><ele>190.0</ele><time>2026-05-03T09:36:28.999Z</time></trkpt><trkpt lat="43.28596309280809" lon="13.393545436699322"><ele>191.0</ele><time>2026-05-03T09:36:29.999Z</time></trkpt><trkpt lat="43.2859079439825" lon="13.393737456117796"><ele>192.0</ele><time>2026-05-03T09:36:30.999Z</time></trkpt><trkpt lat="43.28585284610963" lon="13.393923954214698"><ele>193.0</ele><time>2026-05-03T09:36:31.999Z</time></trkpt><trkpt lat="43.285798168803126" lon="13.394108513700576"><ele>194.0</ele><time>2026-05-03T09:36:33Z</time></trkpt><trkpt lat="43.28574526204717" lon="13.394283783065656"><ele>195.5</ele><time>2026-05-03T09:36:34Z</time></trkpt><trkpt lat="43.28569989891531" lon="13.39445008483741"><ele>197.0</ele><time>2026-05-03T09:36:35Z</time></trkpt><trkpt lat="43.28567599916255" lon="13.39460547206059"><ele>198.5</ele><time>2026-05-03T09:36:36Z</time></trkpt><trkpt lat="43.2856791141375" lon="13.394759634281241"><ele>200.0</ele><time>2026-05-03T09:36:37Z</time></trkpt><trkpt lat="43.285710927258144" lon="13.394909982386851"><ele>200.5</ele><time>2026-05-03T09:36:38Z</time></trkpt><trkpt lat="43.28576651563141" lon="13.395051080364684"><ele>201.0</ele><time>2026-05-03T09:36:39Z</time></trkpt><trkpt lat="43.285832760407736" lon="13.395191670657532"><ele>201.5</ele><time>2026-05-03T09:36:40Z</time></trkpt><trkpt lat="43.28590304160337" lon="13.395332988942586"><ele>202.0</ele><time>2026-05-03T09:36:41Z</time></trkpt><trkpt lat="43.28596854479269" lon="13.395483991381344"><ele>202.5</ele><time>2026-05-03T09:36:42Z</time></trkpt><trkpt lat="43.28603024429669" lon="13.39564588660407"><ele>203.0</ele><time>2026-05-03T09:36:43Z</time></trkpt><trkpt lat="43.28609937021541" lon="13.395810545850885"><ele>203.5</ele><time>2026-05-03T09:36:44Z</time></trkpt><trkpt lat="43.28616777777063" lon="13.395982217372792"><ele>204.0</ele><time>2026-05-03T09:36:45Z</time></trkpt><trkpt lat="43.2862372239955" lon="13.396155735912947"><ele>204.0</ele><time>2026-05-03T09:36:46Z</time></trkpt><trkpt lat="43.286313307293206" lon="13.396330089319626"><ele>204.0</ele><time>2026-05-03T09:36:47Z</time></trkpt><trkpt lat="43.286390355336216" lon="13.396505692307917"><ele>204.0</ele><time>2026-05-03T09:36:48Z</time></trkpt><trkpt lat="43.2864613829295" lon="13.39669296424579"><ele>204.66666666666669</ele><time>2026-05-03T09:36:49Z</time></trkpt><trkpt lat="43.28652276007348" lon="13.396888379802846"><ele>205.33333333333334</ele><time>2026-05-03T09:36:50Z</time></trkpt><trkpt lat="43.286577662153356" lon="13.397094097535861"><ele>206.0</ele><time>2026-05-03T09:36:51Z</time></trkpt><trkpt lat="43.28662260586951" lon="13.39730359137108"><ele>207.33333333333334</ele><time>2026-05-03T09:36:52Z</time></trkpt><trkpt lat="43.28666166502156" lon="13.397518703190148"><ele>208.66666666666669</ele><time>2026-05-03T09:36:53Z</time></trkpt><trkpt lat="43.28670219900822" lon="13.397741032700665"><ele>210.0</ele><time>2026-05-03T09:36:54Z</time></trkpt><trkpt lat="43.28674539977266" lon="13.397956397068134"><ele>212.0</ele><time>2026-05-03T09:36:55Z</time></trkpt><trkpt lat="43.286788001891125" lon="13.398166622458138"><ele>214.0</ele><time>2026-05-03T09:36:56Z</time></trkpt><trkpt lat="43.28683286437344" lon="13.398388357741847"><ele>216.0</ele><time>2026-05-03T09:36:57Z</time></trkpt><trkpt lat="43.286873751101425" lon="13.398622161564647"><ele>217.33333333333331</ele><time>2026-05-03T09:36:58Z</time></trkpt><trkpt lat="43.2869192167839" lon="13.39884623835748"><ele>218.66666666666666</ele><time>2026-05-03T09:36:59Z</time></trkpt><trkpt lat="43.28696558289131" lon="13.399068835705647"><ele>220.0</ele><time>2026-05-03T09:37:00Z</time></trkpt><trkpt lat="43.2870125574525" lon="13.39928724535411"><ele>220.0</ele><time>2026-05-03T09:37:01Z</time></trkpt><trkpt lat="43.28705859222957" lon="13.399506730157807"><ele>220.0</ele><time>2026-05-03T09:37:02Z</time></trkpt><trkpt lat="43.28709938181246" lon="13.399729805933383"><ele>220.0</ele><time>2026-05-03T09:37:03Z</time></trkpt><trkpt lat="43.28713604724453" lon="13.399945756624254"><ele>220.33333333333331</ele><time>2026-05-03T09:37:04Z</time></trkpt><trkpt lat="43.28716304196803" lon="13.40017082749254"><ele>220.66666666666669</ele><time>2026-05-03T09:37:05Z</time></trkpt><trkpt lat="43.28717666612243" lon="13.40039660371376"><ele>221.0</ele><time>2026-05-03T09:37:06Z</time></trkpt><trkpt lat="43.28718267443453" lon="13.400630229876437"><ele>222.0</ele><time>2026-05-03T09:37:07Z</time></trkpt><trkpt lat="43.28719193260302" lon="13.400868583587005"><ele>223.0</ele><time>2026-05-03T09:37:08Z</time></trkpt><trkpt lat="43.28720563954846" lon="13.40111050923086"><ele>224.0</ele><time>2026-05-03T09:37:09Z</time></trkpt><trkpt lat="43.28722077406278" lon="13.401353784909602"><ele>226.33333333333334</ele><time>2026-05-03T09:37:10Z</time></trkpt><trkpt lat="43.28723372728912" lon="13.401597456758301"><ele>228.66666666666669</ele><time>2026-05-03T09:37:11Z</time></trkpt><trkpt lat="43.2872474217437" lon="13.401840621044776"><ele>231.0</ele><time>2026-05-03T09:37:12Z</time></trkpt><trkpt lat="43.28725953135102" lon="13.4020877066509"><ele>229.33333333333331</ele><time>2026-05-03T09:37:13Z</time></trkpt><trkpt lat="43.287274607211785" lon="13.402341629500865"><ele>227.66666666666666</ele><time>2026-05-03T09:37:14Z</time></trkpt><trkpt lat="43.287292602333395" lon="13.402590177465726"><ele>226.0</ele><time>2026-05-03T09:37:15Z</time></trkpt><trkpt lat="43.28730959936752" lon="13.402841962150209"><ele>226.66666666666666</ele><time>2026-05-03T09:37:16Z</time></trkpt><trkpt lat="43.28732767656343" lon="13.403091934234142"><ele>227.33333333333331</ele><time>2026-05-03T09:37:17Z</time></trkpt><trkpt lat="43.287355694521544" lon="13.403342590231222"><ele>228.0</ele><time>2026-05-03T09:37:18Z</time></trkpt><trkpt lat="43.28739648516877" lon="13.403581842467378"><ele>228.0</ele><time>2026-05-03T09:37:19Z</time></trkpt><trkpt lat="43.28745189058403" lon="13.403821093428423"><ele>228.0</ele><time>2026-05-03T09:37:20Z</time></trkpt><trkpt lat="43.28750453370666" lon="13.404053736536351"><ele>228.0</ele><time>2026-05-03T09:37:21Z</time></trkpt><trkpt lat="43.287555787452696" lon="13.404292816438037"><ele>230.33333333333331</ele><time>2026-05-03T09:37:22Z</time></trkpt><trkpt lat="43.28760889742121" lon="13.404531588058042"><ele>232.66666666666666</ele><time>2026-05-03T09:37:23Z</time></trkpt><trkpt lat="43.28764974744376" lon="13.40476753197339"><ele>235.0</ele><time>2026-05-03T09:37:24Z</time></trkpt><trkpt lat="43.28768605406534" lon="13.40500959874193"><ele>237.0</ele><time>2026-05-03T09:37:25Z</time></trkpt><trkpt lat="43.287695218960955" lon="13.405257271564226"><ele>239.0</ele><time>2026-05-03T09:37:26Z</time></trkpt><trkpt lat="43.287729464172564" lon="13.405494984284815"><ele>241.0</ele><time>2026-05-03T09:37:27Z</time></trkpt><trkpt lat="43.287749326987964" lon="13.405728442480754"><ele>242.0</ele><time>2026-05-03T09:37:28Z</time></trkpt><trkpt lat="43.287771432706904" lon="13.405946599646803"><ele>243.0</ele><time>2026-05-03T09:37:29Z</time></trkpt><trkpt lat="43.287788710932965" lon="13.406170987583186"><ele>244.0</ele><time>2026-05-03T09:37:30Z</time></trkpt><trkpt lat="43.2878041457628" lon="13.406400924742139"><ele>244.66666666666666</ele><time>2026-05-03T09:37:31Z</time></trkpt><trkpt lat="43.287797780319124" lon="13.406643848687988"><ele>245.33333333333331</ele><time>2026-05-03T09:37:32Z</time></trkpt><trkpt lat="43.28780596295851" lon="13.406886199949087"><ele>246.0</ele><time>2026-05-03T09:37:33Z</time></trkpt><trkpt lat="43.28781425071367" lon="13.407131664498088"><ele>249.33333333333331</ele><time>2026-05-03T09:37:34Z</time></trkpt><trkpt lat="43.287823936165694" lon="13.407380892649869"><ele>252.66666666666666</ele><time>2026-05-03T09:37:35Z</time></trkpt><trkpt lat="43.28785710419975" lon="13.407618519469906"><ele>256.0</ele><time>2026-05-03T09:37:36Z</time></trkpt><trkpt lat="43.287876554448964" lon="13.407855015054187"><ele>259.0</ele><time>2026-05-03T09:37:37Z</time></trkpt><trkpt lat="43.28791216787816" lon="13.408080733760299"><ele>262.0</ele><time>2026-05-03T09:37:38Z</time></trkpt><trkpt lat="43.28795917457363" lon="13.408303028130947"><ele>265.0</ele><time>2026-05-03T09:37:39Z</time></trkpt><trkpt lat="43.28800451470975" lon="13.408522924338781"><ele>265.0</ele><time>2026-05-03T09:37:40Z</time></trkpt><trkpt lat="43.288048419716546" lon="13.408736245301641"><ele>265.0</ele><time>2026-05-03T09:37:41Z</time></trkpt><trkpt lat="43.2880995640861" lon="13.408947336329573"><ele>265.0</ele><time>2026-05-03T09:37:42Z</time></trkpt><trkpt lat="43.28816482949847" lon="13.409145647096949"><ele>262.66666666666663</ele><time>2026-05-03T09:37:43Z</time></trkpt><trkpt lat="43.288253028849596" lon="13.40933932451391"><ele>260.3333333333333</ele><time>2026-05-03T09:37:44Z</time></trkpt><trkpt lat="43.288361649230275" lon="13.409512956578558"><ele>258.0</ele><time>2026-05-03T09:37:45Z</time></trkpt><trkpt lat="43.288475333315304" lon="13.40968579361163"><ele>258.0</ele><time>2026-05-03T09:37:46Z</time></trkpt><trkpt lat="43.28858624578938" lon="13.409856182719247"><ele>258.0</ele><time>2026-05-03T09:37:47Z</time></trkpt><trkpt lat="43.2886844667475" lon="13.410047586052912"><ele>258.0</ele><time>2026-05-03T09:37:48Z</time></trkpt><trkpt lat="43.28876369502135" lon="13.410260349439504"><ele>258.0</ele><time>2026-05-03T09:37:49Z</time></trkpt><trkpt lat="43.28883301645844" lon="13.410484296540599"><ele>258.0</ele><time>2026-05-03T09:37:50Z</time></trkpt><trkpt lat="43.288902187202176" lon="13.41069148849064"><ele>258.0</ele><time>2026-05-03T09:37:51Z</time></trkpt><trkpt lat="43.288975869995966" lon="13.410906943284969"><ele>257.0</ele><time>2026-05-03T09:37:52Z</time></trkpt><trkpt lat="43.28904931856416" lon="13.411120982513438"><ele>256.0</ele><time>2026-05-03T09:37:53Z</time></trkpt><trkpt lat="43.28911776693918" lon="13.411337540054216"><ele>255.0</ele><time>2026-05-03T09:37:54Z</time></trkpt><trkpt lat="43.289179043674835" lon="13.411554686848438"><ele>257.3333333333333</ele><time>2026-05-03T09:37:55Z</time></trkpt><trkpt lat="43.289228493249404" lon="13.411774960996558"><ele>259.66666666666663</ele><time>2026-05-03T09:37:56Z</time></trkpt><trkpt lat="43.28926181686382" lon="13.41200002885657"><ele>262.0</ele><time>2026-05-03T09:37:57Z</time></trkpt><trkpt lat="43.28928706170602" lon="13.412230140111689"><ele>263.66666666666663</ele><time>2026-05-03T09:37:58Z</time></trkpt><trkpt lat="43.289314791162475" lon="13.412453416106139"><ele>265.3333333333333</ele><time>2026-05-03T09:37:59Z</time></trkpt><trkpt lat="43.28934544025332" lon="13.412667019414329"><ele>267.0</ele><time>2026-05-03T09:38:00Z</time></trkpt><trkpt lat="43.28938391266815" lon="13.412861678936022"><ele>267.3333333333333</ele><time>2026-05-03T09:38:01Z</time></trkpt><trkpt lat="43.28942681836927" lon="13.413059372281989"><ele>267.66666666666663</ele><time>2026-05-03T09:38:02Z</time></trkpt><trkpt lat="43.2895127290355" lon="13.413237120493273"><ele>268.0</ele><time>2026-05-03T09:38:03Z</time></trkpt><trkpt lat="43.28959359069352" lon="13.413419477649601"><ele>268.0</ele><time>2026-05-03T09:38:04Z</time></trkpt><trkpt lat="43.2896785041297" lon="13.413607077657149"><ele>268.0</ele><time>2026-05-03T09:38:05Z</time></trkpt><trkpt lat="43.28976357883766" lon="13.41379973990942"><ele>268.0</ele><time>2026-05-03T09:38:06Z</time></trkpt><trkpt lat="43.28984804018479" lon="13.41400540653725"><ele>269.0</ele><time>2026-05-03T09:38:07Z</time></trkpt><trkpt lat="43.28993034444574" lon="13.41420893378641"><ele>270.0</ele><time>2026-05-03T09:38:08Z</time></trkpt><trkpt lat="43.290006405453155" lon="13.414421627697825"><ele>271.0</ele><time>2026-05-03T09:38:09Z</time></trkpt><trkpt lat="43.29006741178809" lon="13.414648625323492"><ele>269.66666666666663</ele><time>2026-05-03T09:38:10Z</time></trkpt><trkpt lat="43.29011222969896" lon="13.414886257185946"><ele>268.3333333333333</ele><time>2026-05-03T09:38:11Z</time></trkpt><trkpt lat="43.290153685788866" lon="13.415130613732071"><ele>267.0</ele><time>2026-05-03T09:38:12Z</time></trkpt><trkpt lat="43.290197404231996" lon="13.415376703090706"><ele>266.3333333333333</ele><time>2026-05-03T09:38:13Z</time></trkpt><trkpt lat="43.29024315891235" lon="13.415620113554027"><ele>265.66666666666663</ele><time>2026-05-03T09:38:14Z</time></trkpt><trkpt lat="43.2902902475884" lon="13.41585772231079"><ele>265.0</ele><time>2026-05-03T09:38:15Z</time></trkpt><trkpt lat="43.29033362629949" lon="13.41607921511094"><ele>265.0</ele><time>2026-05-03T09:38:16Z</time></trkpt><trkpt lat="43.29036892100564" lon="13.416284620087355"><ele>265.0</ele><time>2026-05-03T09:38:17Z</time></trkpt><trkpt lat="43.29039057025426" lon="13.416483542270813"><ele>265.0</ele><time>2026-05-03T09:38:18Z</time></trkpt><trkpt lat="43.29037480370684" lon="13.41667717682273"><ele>265.0</ele><time>2026-05-03T09:38:19Z</time></trkpt><trkpt lat="43.290373666438235" lon="13.41687341543059"><ele>265.25</ele><time>2026-05-03T09:38:20Z</time></trkpt><trkpt lat="43.290384302223686" lon="13.417076333274865"><ele>265.5</ele><time>2026-05-03T09:38:21Z</time></trkpt><trkpt lat="43.29042255159908" lon="13.417259645693852"><ele>265.75</ele><time>2026-05-03T09:38:22Z</time></trkpt><trkpt lat="43.29046960789748" lon="13.417411132220282"><ele>266.0</ele><time>2026-05-03T09:38:23Z</time></trkpt><trkpt lat="43.290539051988326" lon="13.417574720699124"><ele>268.75</ele><time>2026-05-03T09:38:24Z</time></trkpt><trkpt lat="43.29062580525953" lon="13.41772969597783"><ele>271.5</ele><time>2026-05-03T09:38:25Z</time></trkpt><trkpt lat="43.29071941165784" lon="13.417892859868616"><ele>274.25</ele><time>2026-05-03T09:38:26Z</time></trkpt><trkpt lat="43.29081416060656" lon="13.418062801800387"><ele>277.0</ele><time>2026-05-03T09:38:27Z</time></trkpt><trkpt lat="43.29090292914632" lon="13.418237936566673"><ele>277.0</ele><time>2026-05-03T09:38:28Z</time></trkpt><trkpt lat="43.290981261559914" lon="13.418415936409998"><ele>277.0</ele><time>2026-05-03T09:38:29Z</time></trkpt><trkpt lat="43.29104867231087" lon="13.418603518405446"><ele>277.0</ele><time>2026-05-03T09:38:30Z</time></trkpt><trkpt lat="43.29111057546971" lon="13.418794360699998"><ele>276.0</ele><time>2026-05-03T09:38:31Z</time></trkpt><trkpt lat="43.29117297404718" lon="13.418986004135697"><ele>275.0</ele><time>2026-05-03T09:38:32Z</time></trkpt><trkpt lat="43.291231443176684" lon="13.419180346162191"><ele>274.0</ele><time>2026-05-03T09:38:33Z</time></trkpt><trkpt lat="43.29127886004232" lon="13.419378661801476"><ele>274.0</ele><time>2026-05-03T09:38:34Z</time></trkpt><trkpt lat="43.29132719510892" lon="13.419580313031897"><ele>274.0</ele><time>2026-05-03T09:38:35Z</time></trkpt><trkpt lat="43.29138006796751" lon="13.419779653373933"><ele>274.0</ele><time>2026-05-03T09:38:36Z</time></trkpt><trkpt lat="43.29144460223231" lon="13.419966191534597"><ele>276.25</ele><time>2026-05-03T09:38:37Z</time></trkpt><trkpt lat="43.29152860945863" lon="13.420131146456649"><ele>278.5</ele><time>2026-05-03T09:38:38Z</time></trkpt><trkpt lat="43.29163285321311" lon="13.420278963376445"><ele>280.75</ele><time>2026-05-03T09:38:39Z</time></trkpt><trkpt lat="43.291756339123616" lon="13.420385508058233"><ele>283.0</ele><time>2026-05-03T09:38:40Z</time></trkpt><trkpt lat="43.29189779250722" lon="13.420475538111488"><ele>284.0</ele><time>2026-05-03T09:38:41Z</time></trkpt><trkpt lat="43.292049343378196" lon="13.420562012099664"><ele>285.0</ele><time>2026-05-03T09:38:42Z</time></trkpt><trkpt lat="43.29220484101374" lon="13.42064227858147"><ele>286.0</ele><time>2026-05-03T09:38:43Z</time></trkpt><trkpt lat="43.29235202726808" lon="13.420728154565339"><ele>286.0</ele><time>2026-05-03T09:38:44Z</time></trkpt><trkpt lat="43.292504002481266" lon="13.420804306059672"><ele>286.0</ele><time>2026-05-03T09:38:45Z</time></trkpt><trkpt lat="43.29265496196048" lon="13.420878987880549"><ele>286.0</ele><time>2026-05-03T09:38:46Z</time></trkpt><trkpt lat="43.29280761115064" lon="13.420948829928092"><ele>286.0</ele><time>2026-05-03T09:38:47Z</time></trkpt><trkpt lat="43.29295722523332" lon="13.421018840785084"><ele>286.0</ele><time>2026-05-03T09:38:48Z</time></trkpt><trkpt lat="43.293112284671714" lon="13.42109001192772"><ele>286.0</ele><time>2026-05-03T09:38:49Z</time></trkpt><trkpt lat="43.29326180702147" lon="13.421165986332097"><ele>285.66666666666663</ele><time>2026-05-03T09:38:50Z</time></trkpt><trkpt lat="43.29340474821104" lon="13.421257238654656"><ele>285.3333333333333</ele><time>2026-05-03T09:38:51Z</time></trkpt><trkpt lat="43.293543369099204" lon="13.421367266455437"><ele>285.0</ele><time>2026-05-03T09:38:52Z</time></trkpt><trkpt lat="43.293677074372226" lon="13.421488593644067"><ele>285.0</ele><time>2026-05-03T09:38:53Z</time></trkpt><trkpt lat="43.293802428132196" lon="13.421621898444315"><ele>285.0</ele><time>2026-05-03T09:38:54Z</time></trkpt><trkpt lat="43.293933077402684" lon="13.42176127976001"><ele>285.0</ele><time>2026-05-03T09:38:55Z</time></trkpt><trkpt lat="43.29405079025719" lon="13.421886345629787"><ele>286.25</ele><time>2026-05-03T09:38:56Z</time></trkpt><trkpt lat="43.29417104381388" lon="13.42200865958141"><ele>287.5</ele><time>2026-05-03T09:38:57Z</time></trkpt><trkpt lat="43.2942845474464" lon="13.42213671099531"><ele>288.75</ele><time>2026-05-03T09:38:58Z</time></trkpt><trkpt lat="43.294385819788204" lon="13.422279018218381"><ele>290.0</ele><time>2026-05-03T09:38:59Z</time></trkpt><trkpt lat="43.294479261580136" lon="13.422436765315384"><ele>290.0</ele><time>2026-05-03T09:39:00Z</time></trkpt><trkpt lat="43.294567052972965" lon="13.422598399995696"><ele>290.0</ele><time>2026-05-03T09:39:01Z</time></trkpt><trkpt lat="43.294656409866626" lon="13.422758165273567"><ele>290.0</ele><time>2026-05-03T09:39:02Z</time></trkpt><trkpt lat="43.29474790538178" lon="13.422921304509495"><ele>290.0</ele><time>2026-05-03T09:39:03Z</time></trkpt><trkpt lat="43.294836032613865" lon="13.42308389573251"><ele>291.75</ele><time>2026-05-03T09:39:04Z</time></trkpt><trkpt lat="43.29492545155819" lon="13.423244549052903"><ele>293.5</ele><time>2026-05-03T09:39:05Z</time></trkpt><trkpt lat="43.29501498599093" lon="13.4234117354045"><ele>295.25</ele><time>2026-05-03T09:39:06Z</time></trkpt><trkpt lat="43.29510996854844" lon="13.423567276309303"><ele>297.0</ele><time>2026-05-03T09:39:07Z</time></trkpt><trkpt lat="43.29520004499238" lon="13.423727546103235"><ele>295.6666666666667</ele><time>2026-05-03T09:39:08Z</time></trkpt><trkpt lat="43.29529179795031" lon="13.423886391679739"><ele>294.33333333333337</ele><time>2026-05-03T09:39:09Z</time></trkpt><trkpt lat="43.29538193810901" lon="13.424043756461646"><ele>293.0</ele><time>2026-05-03T09:39:10Z</time></trkpt><trkpt lat="43.2954805240416" lon="13.424212992893493"><ele>293.0</ele><time>2026-05-03T09:39:11Z</time></trkpt><trkpt lat="43.295564442091674" lon="13.424368335331101"><ele>293.0</ele><time>2026-05-03T09:39:12Z</time></trkpt><trkpt lat="43.295653299543446" lon="13.424533269206675"><ele>293.0</ele><time>2026-05-03T09:39:13Z</time></trkpt><trkpt lat="43.2957406094038" lon="13.424694482700799"><ele>293.0</ele><time>2026-05-03T09:39:14Z</time></trkpt><trkpt lat="43.29581611535061" lon="13.424864527493478"><ele>294.25</ele><time>2026-05-03T09:39:15Z</time></trkpt><trkpt lat="43.295885117865744" lon="13.425039565135085"><ele>295.5</ele><time>2026-05-03T09:39:16Z</time></trkpt><trkpt lat="43.29594886200233" lon="13.425212794677057"><ele>296.75</ele><time>2026-05-03T09:39:17Z</time></trkpt><trkpt lat="43.29602151674252" lon="13.42538934072869"><ele>298.0</ele><time>2026-05-03T09:39:18Z</time></trkpt><trkpt lat="43.29609544721101" lon="13.425562490082948"><ele>298.0</ele><time>2026-05-03T09:39:19Z</time></trkpt><trkpt lat="43.29617023624139" lon="13.425736015149278"><ele>298.0</ele><time>2026-05-03T09:39:20Z</time></trkpt><trkpt lat="43.296246240205235" lon="13.42591324129166"><ele>298.0</ele><time>2026-05-03T09:39:21Z</time></trkpt><trkpt lat="43.29632767246635" lon="13.426081520300924"><ele>298.0</ele><time>2026-05-03T09:39:22Z</time></trkpt><trkpt lat="43.296415672258135" lon="13.426247278122682"><ele>300.25</ele><time>2026-05-03T09:39:23Z</time></trkpt><trkpt lat="43.296512093834" lon="13.426401155556862"><ele>302.5</ele><time>2026-05-03T09:39:24Z</time></trkpt><trkpt lat="43.29659713026113" lon="13.426561814376978"><ele>304.75</ele><time>2026-05-03T09:39:25Z</time></trkpt><trkpt lat="43.29670351753535" lon="13.426708484648529"><ele>307.0</ele><time>2026-05-03T09:39:26Z</time></trkpt><trkpt lat="43.29679601226086" lon="13.426868558714522"><ele>307.0</ele><time>2026-05-03T09:39:27Z</time></trkpt><trkpt lat="43.29689558896649" lon="13.427021994500446"><ele>307.0</ele><time>2026-05-03T09:39:28Z</time></trkpt><trkpt lat="43.29699359351467" lon="13.427175263068243"><ele>307.0</ele><time>2026-05-03T09:39:29Z</time></trkpt><trkpt lat="43.29708739934245" lon="13.427326031478337"><ele>307.0</ele><time>2026-05-03T09:39:30Z</time></trkpt><trkpt lat="43.29717901335432" lon="13.427464628525849"><ele>308.25</ele><time>2026-05-03T09:39:31Z</time></trkpt><trkpt lat="43.29726275819889" lon="13.42760823423075"><ele>309.5</ele><time>2026-05-03T09:39:32Z</time></trkpt><trkpt lat="43.29733225892614" lon="13.427746027376031"><ele>310.75</ele><time>2026-05-03T09:39:33Z</time></trkpt><trkpt lat="43.297401774619544" lon="13.427896192854258"><ele>312.0</ele><time>2026-05-03T09:39:34Z</time></trkpt><trkpt lat="43.29746641529363" lon="13.428046880773202"><ele>312.0</ele><time>2026-05-03T09:39:35Z</time></trkpt><trkpt lat="43.297512693754776" lon="13.428199458916351"><ele>312.0</ele><time>2026-05-03T09:39:36Z</time></trkpt><trkpt lat="43.2975615439392" lon="13.428349712074015"><ele>312.0</ele><time>2026-05-03T09:39:37Z</time></trkpt><trkpt lat="43.29760929758185" lon="13.428495807545703"><ele>312.0</ele><time>2026-05-03T09:39:38Z</time></trkpt><trkpt lat="43.29764326952867" lon="13.428647594858518"><ele>312.0</ele><time>2026-05-03T09:39:39Z</time></trkpt><trkpt lat="43.297673649498606" lon="13.428797319024396"><ele>312.0</ele><time>2026-05-03T09:39:40Z</time></trkpt><trkpt lat="43.29770729002567" lon="13.428947966070877"><ele>312.0</ele><time>2026-05-03T09:39:41Z</time></trkpt><trkpt lat="43.297745285694916" lon="13.429096836293303"><ele>312.0</ele><time>2026-05-03T09:39:42Z</time></trkpt><trkpt lat="43.29775612030644" lon="13.429243709010262"><ele>311.8</ele><time>2026-05-03T09:39:43Z</time></trkpt><trkpt lat="43.29779663995382" lon="13.429392730986685"><ele>311.6</ele><time>2026-05-03T09:39:44Z</time></trkpt><trkpt lat="43.29781975652355" lon="13.429543129444522"><ele>311.40000000000003</ele><time>2026-05-03T09:39:45Z</time></trkpt><trkpt lat="43.297845456058376" lon="13.429687512234347"><ele>311.2</ele><time>2026-05-03T09:39:46Z</time></trkpt><trkpt lat="43.297853370690795" lon="13.42984326983402"><ele>311.0</ele><time>2026-05-03T09:39:47Z</time></trkpt><trkpt lat="43.29787644128794" lon="13.429989653078612"><ele>310.5</ele><time>2026-05-03T09:39:48Z</time></trkpt><trkpt lat="43.29790141622684" lon="13.43014811934507"><ele>310.0</ele><time>2026-05-03T09:39:49Z</time></trkpt><trkpt lat="43.29792621098716" lon="13.430305441135497"><ele>309.5</ele><time>2026-05-03T09:39:50Z</time></trkpt><trkpt lat="43.29795094877184" lon="13.430460759463537"><ele>309.0</ele><time>2026-05-03T09:39:51Z</time></trkpt><trkpt lat="43.29799491626262" lon="13.430608212900971"><ele>308.5</ele><time>2026-05-03T09:39:52Z</time></trkpt><trkpt lat="43.29802409828427" lon="13.43075974427704"><ele>308.0</ele><time>2026-05-03T09:39:53Z</time></trkpt><trkpt lat="43.29805077385867" lon="13.43091234394276"><ele>307.5</ele><time>2026-05-03T09:39:54Z</time></trkpt><trkpt lat="43.298073105976954" lon="13.431066680432643"><ele>307.0</ele><time>2026-05-03T09:39:55Z</time></trkpt><trkpt lat="43.29807845273817" lon="13.431233557944166"><ele>305.75</ele><time>2026-05-03T09:39:56Z</time></trkpt><trkpt lat="43.29810510689303" lon="13.431386575040067"><ele>304.5</ele><time>2026-05-03T09:39:57Z</time></trkpt><trkpt lat="43.29813446210891" lon="13.4315451142322"><ele>303.25</ele><time>2026-05-03T09:39:58Z</time></trkpt><trkpt lat="43.29817169183713" lon="13.431685047096183"><ele>302.0</ele><time>2026-05-03T09:39:59Z</time></trkpt><trkpt lat="43.2982041405391" lon="13.431839019270507"><ele>302.0</ele><time>2026-05-03T09:40:00Z</time></trkpt><trkpt lat="43.29822547399366" lon="13.43199618554545"><ele>302.0</ele><time>2026-05-03T09:40:01Z</time></trkpt><trkpt lat="43.298255519707205" lon="13.43214263764809"><ele>302.0</ele><time>2026-05-03T09:40:02Z</time></trkpt><trkpt lat="43.29829089106911" lon="13.432285364522068"><ele>302.0</ele><time>2026-05-03T09:40:03Z</time></trkpt><trkpt lat="43.298311642740735" lon="13.432436232824823"><ele>302.0</ele><time>2026-05-03T09:40:04Z</time></trkpt><trkpt lat="43.29834257430148" lon="13.432581191809138"><ele>302.6</ele><time>2026-05-03T09:40:05Z</time></trkpt><trkpt lat="43.29837447060113" lon="13.4327276829104"><ele>303.2</ele><time>2026-05-03T09:40:06Z</time></trkpt><trkpt lat="43.298402179724015" lon="13.432875530225111"><ele>303.8</ele><time>2026-05-03T09:40:07Z</time></trkpt><trkpt lat="43.29843841506891" lon="13.433019527107373"><ele>304.4</ele><time>2026-05-03T09:40:08Z</time></trkpt><trkpt lat="43.298466973288754" lon="13.433158646177864"><ele>305.0</ele><time>2026-05-03T09:40:09Z</time></trkpt><trkpt lat="43.29849528904634" lon="13.43330222869581"><ele>306.4</ele><time>2026-05-03T09:40:10Z</time></trkpt><trkpt lat="43.298531004466525" lon="13.433441852392713"><ele>307.8</ele><time>2026-05-03T09:40:11Z</time></trkpt><trkpt lat="43.29856819786653" lon="13.433579871975976"><ele>309.2</ele><time>2026-05-03T09:40:12Z</time></trkpt><trkpt lat="43.29860242035209" lon="13.43371634222283"><ele>310.6</ele><time>2026-05-03T09:40:13Z</time></trkpt><trkpt lat="43.298640281474434" lon="13.433839545754836"><ele>312.0</ele><time>2026-05-03T09:40:14Z</time></trkpt><trkpt lat="43.298679891049865" lon="13.433962702570874"><ele>313.0</ele><time>2026-05-03T09:40:15Z</time></trkpt><trkpt lat="43.29870476607708" lon="13.434098372498175"><ele>314.0</ele><time>2026-05-03T09:40:16Z</time></trkpt><trkpt lat="43.298741839199394" lon="13.434219545024016"><ele>315.0</ele><time>2026-05-03T09:40:17Z</time></trkpt><trkpt lat="43.298784119711236" lon="13.43436402098923"><ele>316.0</ele><time>2026-05-03T09:40:18Z</time></trkpt><trkpt lat="43.29882346545136" lon="13.434499613537119"><ele>317.0</ele><time>2026-05-03T09:40:19Z</time></trkpt><trkpt lat="43.298862732580616" lon="13.434634935147283"><ele>317.4</ele><time>2026-05-03T09:40:20Z</time></trkpt><trkpt lat="43.29890180650015" lon="13.434769590931523"><ele>317.79999999999995</ele><time>2026-05-03T09:40:21Z</time></trkpt><trkpt lat="43.298939912368915" lon="13.434900909948924"><ele>318.2</ele><time>2026-05-03T09:40:22Z</time></trkpt><trkpt lat="43.298977598045546" lon="13.435030568131769"><ele>318.59999999999997</ele><time>2026-05-03T09:40:23Z</time></trkpt><trkpt lat="43.29901739007597" lon="13.435167539874422"><ele>319.0</ele><time>2026-05-03T09:40:24Z</time></trkpt><trkpt lat="43.29905276323594" lon="13.435295488914788"><ele>319.0</ele><time>2026-05-03T09:40:25Z</time></trkpt><trkpt lat="43.299086433783465" lon="13.435420467435812"><ele>319.0</ele><time>2026-05-03T09:40:26Z</time></trkpt><trkpt lat="43.29911633540725" lon="13.435533549772389"><ele>319.0</ele><time>2026-05-03T09:40:27Z</time></trkpt><trkpt lat="43.29914379596748" lon="13.435649939342683"><ele>319.0</ele><time>2026-05-03T09:40:28Z</time></trkpt><trkpt lat="43.29917086617906" lon="13.435763724908785"><ele>319.0</ele><time>2026-05-03T09:40:29Z</time></trkpt><trkpt lat="43.29919701290547" lon="13.43588089062024"><ele>319.14285714285717</ele><time>2026-05-03T09:40:30Z</time></trkpt><trkpt lat="43.29922158791776" lon="13.435990239918196"><ele>319.2857142857143</ele><time>2026-05-03T09:40:31Z</time></trkpt><trkpt lat="43.29924334883087" lon="13.436094692714226"><ele>319.42857142857144</ele><time>2026-05-03T09:40:32Z</time></trkpt><trkpt lat="43.29926167362684" lon="13.436193281336157"><ele>319.57142857142856</ele><time>2026-05-03T09:40:33Z</time></trkpt><trkpt lat="43.299288994096834" lon="13.436276276115507"><ele>319.7142857142857</ele><time>2026-05-03T09:40:34Z</time></trkpt><trkpt lat="43.29927994978431" lon="13.43636676897375"><ele>319.85714285714283</ele><time>2026-05-03T09:40:35Z</time></trkpt><trkpt lat="43.299256972324" lon="13.436448230928939"><ele>320.0</ele><time>2026-05-03T09:40:36Z</time></trkpt><trkpt lat="43.29921761868777" lon="13.436526168601057"><ele>319.6666666666667</ele><time>2026-05-03T09:40:37Z</time></trkpt><trkpt lat="43.2991643917885" lon="13.436586734876448"><ele>319.33333333333337</ele><time>2026-05-03T09:40:38Z</time></trkpt><trkpt lat="43.29909432781405" lon="13.43662612165741"><ele>319.0</ele><time>2026-05-03T09:40:39Z</time></trkpt><trkpt lat="43.299021086662066" lon="13.436657474339004"><ele>318.6666666666667</ele><time>2026-05-03T09:40:40Z</time></trkpt><trkpt lat="43.29894145815722" lon="13.436687769461487"><ele>318.3333333333333</ele><time>2026-05-03T09:40:41Z</time></trkpt><trkpt lat="43.2988512903324" lon="13.436713873446852"><ele>318.0</ele><time>2026-05-03T09:40:42Z</time></trkpt><trkpt lat="43.298764820417944" lon="13.43674846024477"><ele>317.6666666666667</ele><time>2026-05-03T09:40:43Z</time></trkpt><trkpt lat="43.29867474913151" lon="13.43678569041666"><ele>317.3333333333333</ele><time>2026-05-03T09:40:44Z</time></trkpt><trkpt lat="43.29858985411939" lon="13.436822634816522"><ele>317.0</ele><time>2026-05-03T09:40:45Z</time></trkpt><trkpt lat="43.29850207017514" lon="13.436839974027958"><ele>316.66666666666663</ele><time>2026-05-03T09:40:46Z</time></trkpt><trkpt lat="43.298406912985776" lon="13.436839051431823"><ele>316.3333333333333</ele><time>2026-05-03T09:40:47Z</time></trkpt><trkpt lat="43.29833802637694" lon="13.436781438512268"><ele>316.0</ele><time>2026-05-03T09:40:48Z</time></trkpt><trkpt lat="43.298264478843684" lon="13.43671294555664"><ele>316.0</ele><time>2026-05-03T09:40:49Z</time></trkpt><trkpt lat="43.29819699866346" lon="13.436666161117278"><ele>316.0</ele><time>2026-05-03T09:40:50Z</time></trkpt><trkpt lat="43.29811777028689" lon="13.436628146344326"><ele>316.0</ele><time>2026-05-03T09:40:51Z</time></trkpt><trkpt lat="43.29802878111275" lon="13.436623726437896"><ele>316.0</ele><time>2026-05-03T09:40:52Z</time></trkpt><trkpt lat="43.297931277398455" lon="13.43664051963004"><ele>316.0</ele><time>2026-05-03T09:40:53Z</time></trkpt><trkpt lat="43.29784071054117" lon="13.436670235138864"><ele>316.0</ele><time>2026-05-03T09:40:54Z</time></trkpt><trkpt lat="43.297743271371175" lon="13.436690467340966"><ele>314.2</ele><time>2026-05-03T09:40:55Z</time></trkpt><trkpt lat="43.29764164987504" lon="13.436697112006298"><ele>312.40000000000003</ele><time>2026-05-03T09:40:56Z</time></trkpt><trkpt lat="43.297535789101055" lon="13.436681245461637"><ele>310.6</ele><time>2026-05-03T09:40:57Z</time></trkpt><trkpt lat="43.29743847279511" lon="13.436634627180617"><ele>308.8</ele><time>2026-05-03T09:40:58Z</time></trkpt><trkpt lat="43.29733969668814" lon="13.436570939817567"><ele>307.0</ele><time>2026-05-03T09:40:59Z</time></trkpt><trkpt lat="43.29723598717184" lon="13.436533564043154"><ele>305.6</ele><time>2026-05-03T09:41:00Z</time></trkpt><trkpt lat="43.29712691300005" lon="13.436515384705023"><ele>304.2</ele><time>2026-05-03T09:41:01Z</time></trkpt><trkpt lat="43.297013594813414" lon="13.436499438817519"><ele>302.8</ele><time>2026-05-03T09:41:02Z</time></trkpt><trkpt lat="43.296902565964864" lon="13.436481127067982"><ele>301.4</ele><time>2026-05-03T09:41:03Z</time></trkpt><trkpt lat="43.296798049675466" lon="13.43646007250913"><ele>300.0</ele><time>2026-05-03T09:41:04Z</time></trkpt><trkpt lat="43.296692177392785" lon="13.43643575514814"><ele>300.0</ele><time>2026-05-03T09:41:05Z</time></trkpt><trkpt lat="43.29658346203666" lon="13.436413235242874"><ele>300.0</ele><time>2026-05-03T09:41:06Z</time></trkpt><trkpt lat="43.29647683551185" lon="13.436386512266642"><ele>300.0</ele><time>2026-05-03T09:41:07Z</time></trkpt><trkpt lat="43.29637136488359" lon="13.436371161293469"><ele>300.0</ele><time>2026-05-03T09:41:08Z</time></trkpt><trkpt lat="43.2962644495874" lon="13.436344871405934"><ele>300.0</ele><time>2026-05-03T09:41:09Z</time></trkpt><trkpt lat="43.29615927344658" lon="13.4363203879828"><ele>299.8</ele><time>2026-05-03T09:41:10Z</time></trkpt><trkpt lat="43.296054814140135" lon="13.436301394336711"><ele>299.6</ele><time>2026-05-03T09:41:11Z</time></trkpt><trkpt lat="43.295948097921055" lon="13.436275082377012"><ele>299.4</ele><time>2026-05-03T09:41:12Z</time></trkpt><trkpt lat="43.29583958667374" lon="13.436247731412392"><ele>299.2</ele><time>2026-05-03T09:41:13Z</time></trkpt><trkpt lat="43.29573350388028" lon="13.436222379975687"><ele>299.0</ele><time>2026-05-03T09:41:14Z</time></trkpt><trkpt lat="43.29562852245296" lon="13.436201383290365"><ele>298.2</ele><time>2026-05-03T09:41:15Z</time></trkpt><trkpt lat="43.295525080259566" lon="13.436179770472084"><ele>297.4</ele><time>2026-05-03T09:41:16Z</time></trkpt><trkpt lat="43.29542099602507" lon="13.436167197723067"><ele>296.6</ele><time>2026-05-03T09:41:17Z</time></trkpt><trkpt lat="43.29531459518723" lon="13.43614251151737"><ele>295.8</ele><time>2026-05-03T09:41:18Z</time></trkpt><trkpt lat="43.29521681186787" lon="13.436127802053917"><ele>295.0</ele><time>2026-05-03T09:41:19Z</time></trkpt><trkpt lat="43.29512050456295" lon="13.436111661218968"><ele>295.0</ele><time>2026-05-03T09:41:20Z</time></trkpt><trkpt lat="43.295026814849074" lon="13.436095081127341"><ele>295.0</ele><time>2026-05-03T09:41:21Z</time></trkpt><trkpt lat="43.29493126843259" lon="13.43608211951329"><ele>295.0</ele><time>2026-05-03T09:41:22Z</time></trkpt><trkpt lat="43.294838893591574" lon="13.436070196666419"><ele>295.0</ele><time>2026-05-03T09:41:23Z</time></trkpt><trkpt lat="43.29474933885609" lon="13.436038113646351"><ele>295.0</ele><time>2026-05-03T09:41:24Z</time></trkpt><trkpt lat="43.29465131516101" lon="13.436024932825138"><ele>294.5</ele><time>2026-05-03T09:41:25Z</time></trkpt><trkpt lat="43.29455126255517" lon="13.436014088829737"><ele>294.0</ele><time>2026-05-03T09:41:26Z</time></trkpt><trkpt lat="43.29445878419385" lon="13.43600668779384"><ele>293.5</ele><time>2026-05-03T09:41:27Z</time></trkpt><trkpt lat="43.29437733600382" lon="13.436001767392211"><ele>293.0</ele><time>2026-05-03T09:41:28Z</time></trkpt><trkpt lat="43.29430333274067" lon="13.435997546430968"><ele>292.5</ele><time>2026-05-03T09:41:29Z</time></trkpt><trkpt lat="43.294221099980504" lon="13.43601181938021"><ele>292.0</ele><time>2026-05-03T09:41:30Z</time></trkpt><trkpt lat="43.29415260206633" lon="13.435988949134089"><ele>292.0</ele><time>2026-05-03T09:41:31Z</time></trkpt><trkpt lat="43.2940813459212" lon="13.435984758057671"><ele>292.0</ele><time>2026-05-03T09:41:32Z</time></trkpt><trkpt lat="43.29400819613678" lon="13.435979872603614"><ele>292.0</ele><time>2026-05-03T09:41:33Z</time></trkpt><trkpt lat="43.293926455116576" lon="13.435974413365518"><ele>292.0</ele><time>2026-05-03T09:41:34Z</time></trkpt><trkpt lat="43.29383548611643" lon="13.435968337851003"><ele>292.0</ele><time>2026-05-03T09:41:35Z</time></trkpt><trkpt lat="43.293751804709466" lon="13.435965102758184"><ele>292.0</ele><time>2026-05-03T09:41:36Z</time></trkpt><trkpt lat="43.2936663709688" lon="13.435962706509741"><ele>291.3333333333333</ele><time>2026-05-03T09:41:37Z</time></trkpt><trkpt lat="43.29358095521302" lon="13.435961225818861"><ele>290.66666666666663</ele><time>2026-05-03T09:41:38Z</time></trkpt><trkpt lat="43.29349718553946" lon="13.435960641584996"><ele>290.0</ele><time>2026-05-03T09:41:39Z</time></trkpt><trkpt lat="43.29341066328988" lon="13.435960043824968"><ele>289.3333333333333</ele><time>2026-05-03T09:41:40Z</time></trkpt><trkpt lat="43.29333300061332" lon="13.435959548930976"><ele>288.6666666666667</ele><time>2026-05-03T09:41:41Z</time></trkpt><trkpt lat="43.293251750671764" lon="13.435959031177646"><ele>288.0</ele><time>2026-05-03T09:41:42Z</time></trkpt><trkpt lat="43.293167949322374" lon="13.43595870356267"><ele>286.5</ele><time>2026-05-03T09:41:43Z</time></trkpt><trkpt lat="43.2930856115162" lon="13.435958703558944"><ele>285.0</ele><time>2026-05-03T09:41:44Z</time></trkpt><trkpt lat="43.29301016824022" lon="13.435958246139444"><ele>283.5</ele><time>2026-05-03T09:41:45Z</time></trkpt><trkpt lat="43.2929353820813" lon="13.43595684104271"><ele>282.0</ele><time>2026-05-03T09:41:46Z</time></trkpt><trkpt lat="43.29286192983158" lon="13.435955461006685"><ele>280.5</ele><time>2026-05-03T09:41:47Z</time></trkpt><trkpt lat="43.29278321635444" lon="13.435954703547791"><ele>279.0</ele><time>2026-05-03T09:41:48Z</time></trkpt><trkpt lat="43.2927049316031" lon="13.435954703545136"><ele>279.0</ele><time>2026-05-03T09:41:49Z</time></trkpt><trkpt lat="43.292622936033766" lon="13.435954703541794"><ele>279.0</ele><time>2026-05-03T09:41:50Z</time></trkpt><trkpt lat="43.292540966905825" lon="13.435973835907909"><ele>279.0</ele><time>2026-05-03T09:41:51Z</time></trkpt><trkpt lat="43.2924560307136" lon="13.435977648743382"><ele>279.0</ele><time>2026-05-03T09:41:52Z</time></trkpt><trkpt lat="43.292365685074955" lon="13.435990094785137"><ele>279.0</ele><time>2026-05-03T09:41:53Z</time></trkpt><trkpt lat="43.292268426307395" lon="13.436012152110388"><ele>279.0</ele><time>2026-05-03T09:41:54Z</time></trkpt><trkpt lat="43.29217542219092" lon="13.436026177786534"><ele>277.0</ele><time>2026-05-03T09:41:55Z</time></trkpt><trkpt lat="43.29208425393634" lon="13.436041011035107"><ele>275.0</ele><time>2026-05-03T09:41:56Z</time></trkpt><trkpt lat="43.29199693208987" lon="13.436064681057577"><ele>273.0</ele><time>2026-05-03T09:41:57Z</time></trkpt><trkpt lat="43.29190065961241" lon="13.436066954929842"><ele>271.0</ele><time>2026-05-03T09:41:58Z</time></trkpt><trkpt lat="43.29180289439135" lon="13.436087341609603"><ele>269.0</ele><time>2026-05-03T09:41:59Z</time></trkpt><trkpt lat="43.29170809160808" lon="13.436127811548504"><ele>269.0</ele><time>2026-05-03T09:42:00Z</time></trkpt><trkpt lat="43.29161058367597" lon="13.436148010805644"><ele>269.0</ele><time>2026-05-03T09:42:01Z</time></trkpt><trkpt lat="43.291515811482846" lon="13.436164265643507"><ele>269.0</ele><time>2026-05-03T09:42:02Z</time></trkpt><trkpt lat="43.291420061279716" lon="13.436181675088381"><ele>269.0</ele><time>2026-05-03T09:42:03Z</time></trkpt><trkpt lat="43.29132958288264" lon="13.436198985070117"><ele>269.0</ele><time>2026-05-03T09:42:04Z</time></trkpt><trkpt lat="43.29124335456177" lon="13.436218164947801"><ele>268.0</ele><time>2026-05-03T09:42:05Z</time></trkpt><trkpt lat="43.291159039290605" lon="13.43623808927086"><ele>267.0</ele><time>2026-05-03T09:42:06Z</time></trkpt><trkpt lat="43.291077473932745" lon="13.436232947986287"><ele>266.0</ele><time>2026-05-03T09:42:07Z</time></trkpt><trkpt lat="43.291006471157424" lon="13.436270240209296"><ele>265.0</ele><time>2026-05-03T09:42:08Z</time></trkpt><trkpt lat="43.290901360093" lon="13.43629336929683"><ele>264.0</ele><time>2026-05-03T09:42:10Z</time></trkpt><trkpt lat="43.290835832293496" lon="13.436311840722887"><ele>263.0</ele><time>2026-05-03T09:42:12Z</time></trkpt><trkpt lat="43.290755838533535" lon="13.436325234070996"><ele>263.0</ele><time>2026-05-03T09:42:14Z</time></trkpt><trkpt lat="43.29066595722035" lon="13.436267452498678"><ele>263.0</ele><time>2026-05-03T09:42:16Z</time></trkpt><trkpt lat="43.290592489989564" lon="13.436231846000355"><ele>263.0</ele><time>2026-05-03T09:42:18Z</time></trkpt><trkpt lat="43.29048087180592" lon="13.436179695653372"><ele>263.0</ele><time>2026-05-03T09:42:20Z</time></trkpt><trkpt lat="43.29041251823043" lon="13.436154643052461"><ele>263.0</ele><time>2026-05-03T09:42:21Z</time></trkpt><trkpt lat="43.290345141983856" lon="13.43611063042547"><ele>263.0</ele><time>2026-05-03T09:42:22Z</time></trkpt><trkpt lat="43.290273533796004" lon="13.436065954311262"><ele>262.2</ele><time>2026-05-03T09:42:23Z</time></trkpt><trkpt lat="43.29020896009578" lon="13.43604360539834"><ele>261.4</ele><time>2026-05-03T09:42:24Z</time></trkpt><trkpt lat="43.29009127535972" lon="13.435981164670102"><ele>260.59999999999997</ele><time>2026-05-03T09:42:26Z</time></trkpt><trkpt lat="43.289978367954305" lon="13.435929773029729"><ele>259.8</ele><time>2026-05-03T09:42:28Z</time></trkpt><trkpt lat="43.28989711885896" lon="13.43586642248464"><ele>259.0</ele><time>2026-05-03T09:42:30Z</time></trkpt><trkpt lat="43.28983444945642" lon="13.435832107546783"><ele>256.75</ele><time>2026-05-03T09:43:21.001Z</time></trkpt><trkpt lat="43.28969294028203" lon="13.435758361299087"><ele>254.5</ele><time>2026-05-03T09:43:33.001Z</time></trkpt><trkpt lat="43.289679070041046" lon="13.43589910095489"><ele>252.25</ele><time>2026-05-03T09:43:38Z</time></trkpt><trkpt lat="43.28968368725402" lon="13.4357976929224"><ele>250.0</ele><time>2026-05-03T09:46:25.021Z</time></trkpt><trkpt lat="43.28968667730614" lon="13.435504722266929"><ele>250.0</ele><time>2026-05-03T09:49:12.729Z</time></trkpt><trkpt lat="43.2897116099204" lon="13.43575816289183"><ele>250.0</ele><time>2026-05-03T09:49:18.727Z</time></trkpt><trkpt lat="43.28975471406038" lon="13.435832936046811"><ele>250.0</ele><time>2026-05-03T09:50:02.906Z</time></trkpt><trkpt lat="43.289881656802095" lon="13.435924815038751"><ele>250.0</ele><time>2026-05-03T09:50:06Z</time></trkpt><trkpt lat="43.28980487494431" lon="13.435811369627823"><ele>249.99999999999997</ele><time>2026-05-03T09:52:12Z</time></trkpt><trkpt lat="43.28969786952989" lon="13.435764201507695"><ele>250.0</ele><time>2026-05-03T09:52:14Z</time></trkpt><trkpt lat="43.28963672897611" lon="13.43573518629405"><ele>250.0</ele><time>2026-05-03T09:52:15Z</time></trkpt><trkpt lat="43.28957245796704" lon="13.435698401083206"><ele>250.0</ele><time>2026-05-03T09:52:16Z</time></trkpt><trkpt lat="43.28950067754547" lon="13.435663159710083"><ele>249.99999999999997</ele><time>2026-05-03T09:52:17Z</time></trkpt><trkpt lat="43.2894253496073" lon="13.435633581035427"><ele>250.0</ele><time>2026-05-03T09:52:18Z</time></trkpt><trkpt lat="43.28934730708664" lon="13.435600448726884"><ele>249.99999999999997</ele><time>2026-05-03T09:52:19Z</time></trkpt><trkpt lat="43.28927130934018" lon="13.435559413987173"><ele>250.0</ele><time>2026-05-03T09:52:20Z</time></trkpt><trkpt lat="43.28919655020231" lon="13.435513837480714"><ele>250.0</ele><time>2026-05-03T09:52:21Z</time></trkpt><trkpt lat="43.28912002838558" lon="13.435474039715816"><ele>250.0</ele><time>2026-05-03T09:52:22Z</time></trkpt><trkpt lat="43.289041262925615" lon="13.435437855493849"><ele>249.99999999999997</ele><time>2026-05-03T09:52:23Z</time></trkpt><trkpt lat="43.288959617270926" lon="13.43540769670679"><ele>250.0</ele><time>2026-05-03T09:52:24Z</time></trkpt><trkpt lat="43.28887678772782" lon="13.435370236474277"><ele>249.83333333333331</ele><time>2026-05-03T09:52:25Z</time></trkpt><trkpt lat="43.28879826887782" lon="13.435323759415141"><ele>249.66666666666666</ele><time>2026-05-03T09:52:26Z</time></trkpt><trkpt lat="43.288722762540715" lon="13.435272705000854"><ele>249.5</ele><time>2026-05-03T09:52:27Z</time></trkpt><trkpt lat="43.288652969786774" lon="13.435213471079846"><ele>249.33333333333331</ele><time>2026-05-03T09:52:28Z</time></trkpt><trkpt lat="43.28858869105386" lon="13.435141403964689"><ele>249.16666666666666</ele><time>2026-05-03T09:52:29Z</time></trkpt><trkpt lat="43.288536142277934" lon="13.435077769261643"><ele>249.0</ele><time>2026-05-03T09:52:30Z</time></trkpt><trkpt lat="43.28845139606957" lon="13.43501712350626"><ele>249.0</ele><time>2026-05-03T09:52:32Z</time></trkpt><trkpt lat="43.288441505141236" lon="13.434896326773766"><ele>249.0</ele><time>2026-05-03T09:52:33Z</time></trkpt><trkpt lat="43.28835085207026" lon="13.434776600902795"><ele>249.0</ele><time>2026-05-03T09:52:35Z</time></trkpt><trkpt lat="43.28828615521418" lon="13.43475068214735"><ele>249.0</ele><time>2026-05-03T09:52:36Z</time></trkpt><trkpt lat="43.28821681634961" lon="13.434751325991458"><ele>249.0</ele><time>2026-05-03T09:52:37Z</time></trkpt><trkpt lat="43.28814464539657" lon="13.434774494480493"><ele>249.0</ele><time>2026-05-03T09:52:38Z</time></trkpt><trkpt lat="43.2880931398748" lon="13.434840066265629"><ele>247.39999999999998</ele><time>2026-05-03T09:52:39Z</time></trkpt><trkpt lat="43.287991404848256" lon="13.434812195124776"><ele>245.79999999999998</ele><time>2026-05-03T09:52:40Z</time></trkpt><trkpt lat="43.28790270094811" lon="13.434796225537802"><ele>244.20000000000002</ele><time>2026-05-03T09:52:41Z</time></trkpt><trkpt lat="43.28781698601432" lon="13.434753552314803"><ele>242.60000000000002</ele><time>2026-05-03T09:52:42Z</time></trkpt><trkpt lat="43.28771689496688" lon="13.4347126553441"><ele>241.0</ele><time>2026-05-03T09:52:43Z</time></trkpt><trkpt lat="43.28762294174129" lon="13.434661353239328"><ele>240.60000000000002</ele><time>2026-05-03T09:52:44Z</time></trkpt><trkpt lat="43.28753551924573" lon="13.434613091654914"><ele>240.20000000000002</ele><time>2026-05-03T09:52:45Z</time></trkpt><trkpt lat="43.28744836756711" lon="13.434569445450007"><ele>239.79999999999998</ele><time>2026-05-03T09:52:46Z</time></trkpt><trkpt lat="43.287362449711765" lon="13.434513072847462"><ele>239.39999999999998</ele><time>2026-05-03T09:52:47Z</time></trkpt><trkpt lat="43.2872793087321" lon="13.434454230468388"><ele>239.0</ele><time>2026-05-03T09:52:48Z</time></trkpt><trkpt lat="43.28719379381177" lon="13.434392945447586"><ele>239.0</ele><time>2026-05-03T09:52:49Z</time></trkpt><trkpt lat="43.287108266746976" lon="13.43432336961368"><ele>238.99999999999997</ele><time>2026-05-03T09:52:50Z</time></trkpt><trkpt lat="43.28702354826368" lon="13.4342534551041"><ele>238.99999999999997</ele><time>2026-05-03T09:52:51Z</time></trkpt><trkpt lat="43.286945550312915" lon="13.434171278469732"><ele>239.0</ele><time>2026-05-03T09:52:52Z</time></trkpt><trkpt lat="43.286871736966575" lon="13.434074455089156"><ele>239.0</ele><time>2026-05-03T09:52:53Z</time></trkpt><trkpt lat="43.28679325887311" lon="13.433966903787649"><ele>239.0</ele><time>2026-05-03T09:52:54Z</time></trkpt><trkpt lat="43.286709542101335" lon="13.433847285033428"><ele>239.0</ele><time>2026-05-03T09:52:55Z</time></trkpt><trkpt lat="43.28663837128499" lon="13.433722471613322"><ele>239.0</ele><time>2026-05-03T09:52:56Z</time></trkpt><trkpt lat="43.28658137866865" lon="13.433593675318559"><ele>239.0</ele><time>2026-05-03T09:52:57Z</time></trkpt><trkpt lat="43.28652830754054" lon="13.433453869282571"><ele>238.0</ele><time>2026-05-03T09:52:58Z</time></trkpt><trkpt lat="43.28647157414189" lon="13.433311909235979"><ele>237.0</ele><time>2026-05-03T09:52:59Z</time></trkpt><trkpt lat="43.286409121802215" lon="13.43317921291127"><ele>236.0</ele><time>2026-05-03T09:53:00Z</time></trkpt><trkpt lat="43.28634137692466" lon="13.433051725415753"><ele>235.0</ele><time>2026-05-03T09:53:01Z</time></trkpt><trkpt lat="43.28627371671173" lon="13.432929494541261"><ele>234.5</ele><time>2026-05-03T09:53:02Z</time></trkpt><trkpt lat="43.286186618754726" lon="13.432827966908349"><ele>234.0</ele><time>2026-05-03T09:53:03Z</time></trkpt><trkpt lat="43.28608892658702" lon="13.432724603908728"><ele>233.5</ele><time>2026-05-03T09:53:04Z</time></trkpt><trkpt lat="43.28599598729326" lon="13.43265452488259"><ele>233.0</ele><time>2026-05-03T09:53:05Z</time></trkpt><trkpt lat="43.285898737460464" lon="13.43258261296016"><ele>233.0</ele><time>2026-05-03T09:53:06Z</time></trkpt><trkpt lat="43.285792726806704" lon="13.432517319396199"><ele>233.0</ele><time>2026-05-03T09:53:07Z</time></trkpt><trkpt lat="43.28568522511219" lon="13.432463415386433"><ele>233.0</ele><time>2026-05-03T09:53:08Z</time></trkpt><trkpt lat="43.285570901523606" lon="13.432420862255679"><ele>233.0</ele><time>2026-05-03T09:53:09Z</time></trkpt><trkpt lat="43.28546121609911" lon="13.432392096731792"><ele>232.0</ele><time>2026-05-03T09:53:10Z</time></trkpt><trkpt lat="43.28534721230857" lon="13.432380900947914"><ele>231.0</ele><time>2026-05-03T09:53:11Z</time></trkpt><trkpt lat="43.28522625791486" lon="13.432379373934813"><ele>230.0</ele><time>2026-05-03T09:53:12Z</time></trkpt><trkpt lat="43.28511181563707" lon="13.432390435462484"><ele>229.0</ele><time>2026-05-03T09:53:13Z</time></trkpt><trkpt lat="43.28499567919524" lon="13.432406489695863"><ele>229.0</ele><time>2026-05-03T09:53:14Z</time></trkpt><trkpt lat="43.28488126537729" lon="13.432436113287842"><ele>229.0</ele><time>2026-05-03T09:53:15Z</time></trkpt><trkpt lat="43.28476935237173" lon="13.432469817471834"><ele>229.0</ele><time>2026-05-03T09:53:16Z</time></trkpt><trkpt lat="43.284657771539784" lon="13.432511181627921"><ele>229.0</ele><time>2026-05-03T09:53:17Z</time></trkpt><trkpt lat="43.284548038810364" lon="13.43254849754224"><ele>228.6</ele><time>2026-05-03T09:53:18Z</time></trkpt><trkpt lat="43.284439791936585" lon="13.432572571729173"><ele>228.2</ele><time>2026-05-03T09:53:19Z</time></trkpt><trkpt lat="43.28433856108079" lon="13.432583826530912"><ele>227.79999999999998</ele><time>2026-05-03T09:53:20Z</time></trkpt><trkpt lat="43.28423929243269" lon="13.43257307096144"><ele>227.39999999999998</ele><time>2026-05-03T09:53:21Z</time></trkpt><trkpt lat="43.28414582713111" lon="13.432553104030182"><ele>227.0</ele><time>2026-05-03T09:53:22Z</time></trkpt><trkpt lat="43.28405617367101" lon="13.432525750994216"><ele>227.00000000000003</ele><time>2026-05-03T09:53:23Z</time></trkpt><trkpt lat="43.28397151958869" lon="13.432500756682625"><ele>227.0</ele><time>2026-05-03T09:53:24Z</time></trkpt><trkpt lat="43.28390093225654" lon="13.432465796196688"><ele>227.0</ele><time>2026-05-03T09:53:25Z</time></trkpt><trkpt lat="43.28381655342866" lon="13.432489903188937"><ele>227.0</ele><time>2026-05-03T09:53:26Z</time></trkpt><trkpt lat="43.28375410649532" lon="13.432569910853577"><ele>227.00000000000003</ele><time>2026-05-03T09:53:27Z</time></trkpt><trkpt lat="43.28368694418629" lon="13.432634207845785"><ele>227.0</ele><time>2026-05-03T09:53:28Z</time></trkpt><trkpt lat="43.28361404414265" lon="13.432708391188223"><ele>227.0</ele><time>2026-05-03T09:53:29Z</time></trkpt><trkpt lat="43.28352272286937" lon="13.43275244387736"><ele>227.0</ele><time>2026-05-03T09:53:30Z</time></trkpt><trkpt lat="43.28342201562159" lon="13.432818557552068"><ele>227.0</ele><time>2026-05-03T09:53:31Z</time></trkpt><trkpt lat="43.28330947061419" lon="13.432853588607044"><ele>227.0</ele><time>2026-05-03T09:53:32Z</time></trkpt><trkpt lat="43.28318653403242" lon="13.43289235071275"><ele>227.25</ele><time>2026-05-03T09:53:33Z</time></trkpt><trkpt lat="43.28305740385479" lon="13.432933371563466"><ele>227.5</ele><time>2026-05-03T09:53:34Z</time></trkpt><trkpt lat="43.28291695107343" lon="13.432977835003072"><ele>227.75</ele><time>2026-05-03T09:53:35Z</time></trkpt><trkpt lat="43.28277043920386" lon="13.433025155770524"><ele>228.0</ele><time>2026-05-03T09:53:36Z</time></trkpt><trkpt lat="43.28261783022573" lon="13.433073758900866"><ele>224.33333333333331</ele><time>2026-05-03T09:53:37Z</time></trkpt><trkpt lat="43.282409903783844" lon="13.433093282481265"><ele>220.66666666666666</ele><time>2026-05-03T09:53:38Z</time></trkpt><trkpt lat="43.28221617039052" lon="13.432989107600486"><ele>217.0</ele><time>2026-05-03T09:53:39Z</time></trkpt><trkpt lat="43.282090026425664" lon="13.432839450502422"><ele>217.0</ele><time>2026-05-03T09:53:40Z</time></trkpt><trkpt lat="43.28197232682997" lon="13.432718636348083"><ele>217.0</ele><time>2026-05-03T09:53:41Z</time></trkpt><trkpt lat="43.2818875731393" lon="13.432687949411187"><ele>217.0</ele><time>2026-05-03T09:53:42Z</time></trkpt><trkpt lat="43.28179297649544" lon="13.43261766655282"><ele>217.0</ele><time>2026-05-03T09:53:43Z</time></trkpt><trkpt lat="43.281687487273445" lon="13.432527681725968"><ele>217.0</ele><time>2026-05-03T09:53:44Z</time></trkpt><trkpt lat="43.2815984526204" lon="13.432416392045859"><ele>217.0</ele><time>2026-05-03T09:53:45Z</time></trkpt><trkpt lat="43.28149287700772" lon="13.43231249748287"><ele>217.0</ele><time>2026-05-03T09:53:46Z</time></trkpt><trkpt lat="43.28138361877061" lon="13.432217085372896"><ele>217.0</ele><time>2026-05-03T09:53:47Z</time></trkpt><trkpt lat="43.28126377720481" lon="13.432157516546546"><ele>217.25</ele><time>2026-05-03T09:53:48Z</time></trkpt><trkpt lat="43.28115557075908" lon="13.432087909764368"><ele>217.5</ele><time>2026-05-03T09:53:49Z</time></trkpt><trkpt lat="43.281047824082115" lon="13.432038090828781"><ele>217.75</ele><time>2026-05-03T09:53:50Z</time></trkpt><trkpt lat="43.28093927764305" lon="13.432007528515213"><ele>218.0</ele><time>2026-05-03T09:53:51Z</time></trkpt><trkpt lat="43.28080196897122" lon="13.432087632397613"><ele>218.0</ele><time>2026-05-03T09:53:52Z</time></trkpt><trkpt lat="43.280668957702865" lon="13.432126316684656"><ele>218.0</ele><time>2026-05-03T09:53:53Z</time></trkpt><trkpt lat="43.28053356435444" lon="13.432166392912903"><ele>218.0</ele><time>2026-05-03T09:53:54Z</time></trkpt><trkpt lat="43.28039539859236" lon="13.432208282365096"><ele>218.0</ele><time>2026-05-03T09:53:55Z</time></trkpt><trkpt lat="43.28025615737376" lon="13.43224567587259"><ele>213.75</ele><time>2026-05-03T09:53:56Z</time></trkpt><trkpt lat="43.280113214844825" lon="13.432281339143971"><ele>209.5</ele><time>2026-05-03T09:53:57Z</time></trkpt><trkpt lat="43.27997778239319" lon="13.432309868375635"><ele>205.25</ele><time>2026-05-03T09:53:58Z</time></trkpt><trkpt lat="43.27984103925728" lon="13.432323211683412"><ele>201.0</ele><time>2026-05-03T09:53:59Z</time></trkpt><trkpt lat="43.279704976826565" lon="13.432332589190038"><ele>200.25</ele><time>2026-05-03T09:54:00Z</time></trkpt><trkpt lat="43.27956598857171" lon="13.432338599268066"><ele>199.5</ele><time>2026-05-03T09:54:01Z</time></trkpt><trkpt lat="43.27942681979679" lon="13.432330186636944"><ele>198.75</ele><time>2026-05-03T09:54:02Z</time></trkpt><trkpt lat="43.279293154688375" lon="13.432299816423237"><ele>198.0</ele><time>2026-05-03T09:54:03Z</time></trkpt><trkpt lat="43.27916339550252" lon="13.432244220072267"><ele>198.0</ele><time>2026-05-03T09:54:04Z</time></trkpt><trkpt lat="43.279045855305625" lon="13.432162970485024"><ele>198.0</ele><time>2026-05-03T09:54:05Z</time></trkpt><trkpt lat="43.27894079052732" lon="13.432059030594099"><ele>198.0</ele><time>2026-05-03T09:54:06Z</time></trkpt><trkpt lat="43.27884886962358" lon="13.431933324118358"><ele>198.0</ele><time>2026-05-03T09:54:07Z</time></trkpt><trkpt lat="43.27877064264896" lon="13.431794799756462"><ele>197.25</ele><time>2026-05-03T09:54:08Z</time></trkpt><trkpt lat="43.27869290637409" lon="13.431648227688678"><ele>196.5</ele><time>2026-05-03T09:54:09Z</time></trkpt><trkpt lat="43.27861146808553" lon="13.431505404454596"><ele>195.75</ele><time>2026-05-03T09:54:10Z</time></trkpt><trkpt lat="43.27852468965677" lon="13.43136877266152"><ele>195.0</ele><time>2026-05-03T09:54:11Z</time></trkpt><trkpt lat="43.27842498566647" lon="13.431247379833575"><ele>196.25</ele><time>2026-05-03T09:54:12Z</time></trkpt><trkpt lat="43.27833035514147" lon="13.43112184072861"><ele>197.5</ele><time>2026-05-03T09:54:13Z</time></trkpt><trkpt lat="43.278222857634006" lon="13.43102086250586"><ele>198.75</ele><time>2026-05-03T09:54:14Z</time></trkpt><trkpt lat="43.27810269506544" lon="13.430960403776366"><ele>200.0</ele><time>2026-05-03T09:54:15Z</time></trkpt><trkpt lat="43.27798147138682" lon="13.430904844525463"><ele>200.0</ele><time>2026-05-03T09:54:16Z</time></trkpt><trkpt lat="43.277857822952754" lon="13.430881989191805"><ele>200.0</ele><time>2026-05-03T09:54:16.999Z</time></trkpt><trkpt lat="43.27773588566635" lon="13.430887682395536"><ele>200.0</ele><time>2026-05-03T09:54:17.999Z</time></trkpt><trkpt lat="43.27761238068966" lon="13.430902138859066"><ele>200.0</ele><time>2026-05-03T09:54:18.999Z</time></trkpt><trkpt lat="43.27748641158787" lon="13.43094618088853"><ele>200.0</ele><time>2026-05-03T09:54:19.999Z</time></trkpt><trkpt lat="43.27735913075304" lon="13.430995708329325"><ele>200.0</ele><time>2026-05-03T09:54:20.999Z</time></trkpt><trkpt lat="43.2772260137927" lon="13.431049723214388"><ele>200.0</ele><time>2026-05-03T09:54:21.999Z</time></trkpt><trkpt lat="43.27709117197132" lon="13.431104545244658"><ele>200.0</ele><time>2026-05-03T09:54:23Z</time></trkpt><trkpt lat="43.27695429146512" lon="13.431159063159493"><ele>200.0</ele><time>2026-05-03T09:54:24Z</time></trkpt><trkpt lat="43.2768631255489" lon="13.431189766430434"><ele>200.0</ele><time>2026-05-03T09:54:25Z</time></trkpt><trkpt lat="43.276741293689206" lon="13.431241224663909"><ele>200.0</ele><time>2026-05-03T09:54:26Z</time></trkpt><trkpt lat="43.27661349718302" lon="13.431293864975931"><ele>200.0</ele><time>2026-05-03T09:54:27Z</time></trkpt><trkpt lat="43.27648880069033" lon="13.431343174135485"><ele>197.5</ele><time>2026-05-03T09:54:28Z</time></trkpt><trkpt lat="43.27636260812117" lon="13.431382648792015"><ele>195.0</ele><time>2026-05-03T09:54:29Z</time></trkpt><trkpt lat="43.276234982207896" lon="13.431422989710827"><ele>192.5</ele><time>2026-05-03T09:54:30Z</time></trkpt><trkpt lat="43.27610455510753" lon="13.431460264227"><ele>190.0</ele><time>2026-05-03T09:54:31Z</time></trkpt><trkpt lat="43.27597294355323" lon="13.431485378947716"><ele>190.0</ele><time>2026-05-03T09:54:32Z</time></trkpt><trkpt lat="43.2758426123534" lon="13.431503496197113"><ele>190.0</ele><time>2026-05-03T09:54:33Z</time></trkpt><trkpt lat="43.27570937916793" lon="13.431514112184392"><ele>190.0</ele><time>2026-05-03T09:54:33.999Z</time></trkpt><trkpt lat="43.275579990993066" lon="13.431512333689259"><ele>190.0</ele><time>2026-05-03T09:54:34.999Z</time></trkpt><trkpt lat="43.275447518816456" lon="13.431486908235716"><ele>190.0</ele><time>2026-05-03T09:54:35.999Z</time></trkpt><trkpt lat="43.275321531143234" lon="13.43143170266139"><ele>190.0</ele><time>2026-05-03T09:54:36.999Z</time></trkpt><trkpt lat="43.275207502577814" lon="13.431339155943629"><ele>190.0</ele><time>2026-05-03T09:54:38Z</time></trkpt><trkpt lat="43.2751057024413" lon="13.431217146793351"><ele>190.0</ele><time>2026-05-03T09:54:39Z</time></trkpt><trkpt lat="43.275031792858904" lon="13.43105435180269"><ele>190.0</ele><time>2026-05-03T09:54:40Z</time></trkpt><trkpt lat="43.274945894185755" lon="13.430898559567877"><ele>190.0</ele><time>2026-05-03T09:54:41Z</time></trkpt><trkpt lat="43.27485866295217" lon="13.430740003265296"><ele>190.0</ele><time>2026-05-03T09:54:42Z</time></trkpt><trkpt lat="43.27477144150113" lon="13.430580156812702"><ele>190.0</ele><time>2026-05-03T09:54:43Z</time></trkpt><trkpt lat="43.27467112603102" lon="13.430433875403939"><ele>187.0</ele><time>2026-05-03T09:54:44Z</time></trkpt><trkpt lat="43.27458778360022" lon="13.43026614360008"><ele>184.0</ele><time>2026-05-03T09:54:45Z</time></trkpt><trkpt lat="43.27450095789207" lon="13.430106294205745"><ele>181.0</ele><time>2026-05-03T09:54:46Z</time></trkpt><trkpt lat="43.27440261421623" lon="13.429934605200849"><ele>181.0</ele><time>2026-05-03T09:54:47Z</time></trkpt><trkpt lat="43.27430884805691" lon="13.429772158283617"><ele>181.0</ele><time>2026-05-03T09:54:48Z</time></trkpt><trkpt lat="43.27421279094571" lon="13.429610255832552"><ele>181.0</ele><time>2026-05-03T09:54:49Z</time></trkpt><trkpt lat="43.27411340567871" lon="13.42944561193113"><ele>182.0</ele><time>2026-05-03T09:54:50Z</time></trkpt><trkpt lat="43.274021246549815" lon="13.429281300666407"><ele>183.0</ele><time>2026-05-03T09:54:51Z</time></trkpt><trkpt lat="43.27392509243055" lon="13.429120767429723"><ele>184.0</ele><time>2026-05-03T09:54:52Z</time></trkpt><trkpt lat="43.27383056476337" lon="13.42896717898639"><ele>185.0</ele><time>2026-05-03T09:54:53Z</time></trkpt><trkpt lat="43.273738457794735" lon="13.42881120032343"><ele>183.0</ele><time>2026-05-03T09:54:54Z</time></trkpt><trkpt lat="43.27363852694232" lon="13.428649183990634"><ele>181.0</ele><time>2026-05-03T09:54:55Z</time></trkpt><trkpt lat="43.27354418060687" lon="13.42848964895599"><ele>179.0</ele><time>2026-05-03T09:54:56Z</time></trkpt><trkpt lat="43.27344735456221" lon="13.42833279075675"><ele>179.0</ele><time>2026-05-03T09:54:57Z</time></trkpt><trkpt lat="43.273349287521754" lon="13.428176274111374"><ele>179.0</ele><time>2026-05-03T09:54:58Z</time></trkpt><trkpt lat="43.273252172060026" lon="13.42802271205011"><ele>179.0</ele><time>2026-05-03T09:54:59Z</time></trkpt><trkpt lat="43.2731544324836" lon="13.427866358329176"><ele>179.0</ele><time>2026-05-03T09:55:00Z</time></trkpt><trkpt lat="43.27305479360455" lon="13.427713219507169"><ele>177.5</ele><time>2026-05-03T09:55:01Z</time></trkpt><trkpt lat="43.27295409125478" lon="13.427555850840932"><ele>176.0</ele><time>2026-05-03T09:55:02Z</time></trkpt><trkpt lat="43.27285262055064" lon="13.427414125506523"><ele>174.5</ele><time>2026-05-03T09:55:03Z</time></trkpt><trkpt lat="43.27274480009985" lon="13.427275495455731"><ele>173.0</ele><time>2026-05-03T09:55:04Z</time></trkpt><trkpt lat="43.272630314035254" lon="13.427144415447811"><ele>173.0</ele><time>2026-05-03T09:55:05Z</time></trkpt><trkpt lat="43.272512702755904" lon="13.427026252136214"><ele>173.0</ele><time>2026-05-03T09:55:06Z</time></trkpt><trkpt lat="43.27238128208701" lon="13.426922771013349"><ele>173.0</ele><time>2026-05-03T09:55:07Z</time></trkpt><trkpt lat="43.27225100487387" lon="13.426832427001882"><ele>173.0</ele><time>2026-05-03T09:55:08Z</time></trkpt><trkpt lat="43.27211930927408" lon="13.42673321795725"><ele>173.0</ele><time>2026-05-03T09:55:09Z</time></trkpt><trkpt lat="43.271994950842846" lon="13.426644610620553"><ele>173.0</ele><time>2026-05-03T09:55:10Z</time></trkpt><trkpt lat="43.27186758634919" lon="13.426548096293814"><ele>173.0</ele><time>2026-05-03T09:55:11Z</time></trkpt><trkpt lat="43.271746817742056" lon="13.426464007499964"><ele>173.0</ele><time>2026-05-03T09:55:12Z</time></trkpt><trkpt lat="43.271623582092076" lon="13.426379184709456"><ele>173.25</ele><time>2026-05-03T09:55:13Z</time></trkpt><trkpt lat="43.27150831983622" lon="13.42630114387333"><ele>173.5</ele><time>2026-05-03T09:55:14Z</time></trkpt><trkpt lat="43.27139710035891" lon="13.426215398627242"><ele>173.75</ele><time>2026-05-03T09:55:15Z</time></trkpt><trkpt lat="43.27129059987303" lon="13.426131329929687"><ele>174.0</ele><time>2026-05-03T09:55:16Z</time></trkpt><trkpt lat="43.2711861710176" lon="13.426048980061084"><ele>173.2</ele><time>2026-05-03T09:55:17Z</time></trkpt><trkpt lat="43.271095468395764" lon="13.42598283146594"><ele>172.39999999999998</ele><time>2026-05-03T09:55:18Z</time></trkpt><trkpt lat="43.27103284658139" lon="13.425917544065559"><ele>171.6</ele><time>2026-05-03T09:55:19Z</time></trkpt><trkpt lat="43.270973102970146" lon="13.425787627427143"><ele>170.8</ele><time>2026-05-03T09:55:21Z</time></trkpt><trkpt lat="43.270932075641625" lon="13.425670570214415"><ele>170.0</ele><time>2026-05-03T09:55:23Z</time></trkpt><trkpt lat="43.27087825291942" lon="13.425623587775904"><ele>170.0</ele><time>2026-05-03T09:55:25Z</time></trkpt><trkpt lat="43.27078804086008" lon="13.425564386665974"><ele>170.0</ele><time>2026-05-03T09:56:25.999Z</time></trkpt><trkpt lat="43.270718199242864" lon="13.425512084418507"><ele>170.0</ele><time>2026-05-03T09:58:30.999Z</time></trkpt><trkpt lat="43.2706522342321" lon="13.425513051109645"><ele>170.0</ele><time>2026-05-03T09:58:32.999Z</time></trkpt><trkpt lat="43.27058081845027" lon="13.425561807013645"><ele>170.0</ele><time>2026-05-03T09:58:36Z</time></trkpt><trkpt lat="43.27050884505948" lon="13.42556847112589"><ele>170.0</ele><time>2026-05-03T09:58:44Z</time></trkpt><trkpt lat="43.27043859834899" lon="13.425522662831936"><ele>169.5</ele><time>2026-05-03T09:58:45Z</time></trkpt><trkpt lat="43.2703561768878" lon="13.425454180973924"><ele>169.0</ele><time>2026-05-03T09:58:46Z</time></trkpt><trkpt lat="43.27026240211739" lon="13.425378090908417"><ele>168.5</ele><time>2026-05-03T09:58:47Z</time></trkpt><trkpt lat="43.27015440551124" lon="13.425302442143439"><ele>168.0</ele><time>2026-05-03T09:58:48Z</time></trkpt><trkpt lat="43.27002667874923" lon="13.425213002041119"><ele>168.0</ele><time>2026-05-03T09:58:49Z</time></trkpt><trkpt lat="43.269904385520185" lon="13.425117153708516"><ele>168.0</ele><time>2026-05-03T09:58:50Z</time></trkpt><trkpt lat="43.26976750682563" lon="13.425014173854805"><ele>168.0</ele><time>2026-05-03T09:58:51Z</time></trkpt><trkpt lat="43.26961127360517" lon="13.424902349506342"><ele>168.0</ele><time>2026-05-03T09:58:52Z</time></trkpt><trkpt lat="43.26946087690205" lon="13.424789861515242"><ele>168.0</ele><time>2026-05-03T09:58:53Z</time></trkpt><trkpt lat="43.269307411477776" lon="13.424679236474264"><ele>168.0</ele><time>2026-05-03T09:58:54Z</time></trkpt><trkpt lat="43.269150326256764" lon="13.424564660054473"><ele>168.0</ele><time>2026-05-03T09:58:55Z</time></trkpt><trkpt lat="43.26899311494068" lon="13.424448138806431"><ele>168.0</ele><time>2026-05-03T09:58:56Z</time></trkpt><trkpt lat="43.26884373265742" lon="13.424337819673012"><ele>168.0</ele><time>2026-05-03T09:58:57Z</time></trkpt><trkpt lat="43.26869928198515" lon="13.424233534701813"><ele>168.0</ele><time>2026-05-03T09:58:58Z</time></trkpt><trkpt lat="43.26855722659362" lon="13.42413322782214"><ele>168.0</ele><time>2026-05-03T09:58:59Z</time></trkpt><trkpt lat="43.26841613553744" lon="13.42403520279137"><ele>168.0</ele><time>2026-05-03T09:59:00Z</time></trkpt><trkpt lat="43.26828180926474" lon="13.423940967696652"><ele>168.0</ele><time>2026-05-03T09:59:01Z</time></trkpt><trkpt lat="43.26814407560492" lon="13.42384306003639"><ele>168.0</ele><time>2026-05-03T09:59:02Z</time></trkpt><trkpt lat="43.26800630319669" lon="13.423745249011173"><ele>168.0</ele><time>2026-05-03T09:59:03Z</time></trkpt><trkpt lat="43.267863209963224" lon="13.423646165495283"><ele>168.66666666666666</ele><time>2026-05-03T09:59:04Z</time></trkpt><trkpt lat="43.2677176752586" lon="13.423540344873066"><ele>169.33333333333331</ele><time>2026-05-03T09:59:05Z</time></trkpt><trkpt lat="43.26757533565985" lon="13.423435634018974"><ele>170.0</ele><time>2026-05-03T09:59:06Z</time></trkpt><trkpt lat="43.26743904699348" lon="13.423326371714268"><ele>170.0</ele><time>2026-05-03T09:59:07Z</time></trkpt><trkpt lat="43.26730547821969" lon="13.423223827454981"><ele>170.0</ele><time>2026-05-03T09:59:08Z</time></trkpt><trkpt lat="43.26716349449192" lon="13.423111617350198"><ele>170.0</ele><time>2026-05-03T09:59:09Z</time></trkpt><trkpt lat="43.26701652057806" lon="13.423006059695052"><ele>169.33333333333331</ele><time>2026-05-03T09:59:10Z</time></trkpt><trkpt lat="43.26686686054257" lon="13.422901854532487"><ele>168.66666666666666</ele><time>2026-05-03T09:59:11Z</time></trkpt><trkpt lat="43.26671746214527" lon="13.422796781900912"><ele>168.0</ele><time>2026-05-03T09:59:12Z</time></trkpt><trkpt lat="43.266566594840086" lon="13.422685414498535"><ele>168.0</ele><time>2026-05-03T09:59:13Z</time></trkpt><trkpt lat="43.26641832164803" lon="13.42257067800242"><ele>168.0</ele><time>2026-05-03T09:59:14Z</time></trkpt><trkpt lat="43.26626493877273" lon="13.422454775682484"><ele>168.0</ele><time>2026-05-03T09:59:15Z</time></trkpt><trkpt lat="43.26611629887522" lon="13.422333337460863"><ele>168.0</ele><time>2026-05-03T09:59:16Z</time></trkpt><trkpt lat="43.26596645300643" lon="13.422223942230595"><ele>168.0</ele><time>2026-05-03T09:59:17Z</time></trkpt><trkpt lat="43.265822114298075" lon="13.422104889966572"><ele>168.0</ele><time>2026-05-03T09:59:18Z</time></trkpt><trkpt lat="43.265677655862056" lon="13.421986071882984"><ele>168.33333333333334</ele><time>2026-05-03T09:59:19Z</time></trkpt><trkpt lat="43.265475860580096" lon="13.421888358254675"><ele>168.66666666666669</ele><time>2026-05-03T09:59:20Z</time></trkpt><trkpt lat="43.26531351946888" lon="13.421778258237108"><ele>169.0</ele><time>2026-05-03T09:59:21Z</time></trkpt><trkpt lat="43.26515597716488" lon="13.421668868700422"><ele>169.0</ele><time>2026-05-03T09:59:22Z</time></trkpt><trkpt lat="43.26499812772669" lon="13.42155520292885"><ele>169.0</ele><time>2026-05-03T09:59:23Z</time></trkpt><trkpt lat="43.26484737476376" lon="13.421443778212604"><ele>169.0</ele><time>2026-05-03T09:59:24Z</time></trkpt><trkpt lat="43.26470192406678" lon="13.421336948043018"><ele>168.0</ele><time>2026-05-03T09:59:25Z</time></trkpt><trkpt lat="43.264566536496964" lon="13.4212287148034"><ele>167.0</ele><time>2026-05-03T09:59:26Z</time></trkpt><trkpt lat="43.2644320626999" lon="13.421123077190426"><ele>166.0</ele><time>2026-05-03T09:59:27Z</time></trkpt><trkpt lat="43.26429560077871" lon="13.421022723802356"><ele>166.0</ele><time>2026-05-03T09:59:28Z</time></trkpt><trkpt lat="43.26415465652597" lon="13.420931281699872"><ele>166.0</ele><time>2026-05-03T09:59:29Z</time></trkpt><trkpt lat="43.26401513573037" lon="13.420849441782508"><ele>166.0</ele><time>2026-05-03T09:59:30Z</time></trkpt><trkpt lat="43.263876923560986" lon="13.420777691043124"><ele>165.5</ele><time>2026-05-03T09:59:31Z</time></trkpt><trkpt lat="43.26374891091216" lon="13.42072356503655"><ele>165.0</ele><time>2026-05-03T09:59:32Z</time></trkpt><trkpt lat="43.2636110506293" lon="13.420733413548898"><ele>164.5</ele><time>2026-05-03T09:59:33Z</time></trkpt><trkpt lat="43.26347336107564" lon="13.420770648226712"><ele>164.0</ele><time>2026-05-03T09:59:34Z</time></trkpt><trkpt lat="43.263338928641154" lon="13.420832527197497"><ele>164.0</ele><time>2026-05-03T09:59:35Z</time></trkpt><trkpt lat="43.26321044530703" lon="13.420913497669448"><ele>164.0</ele><time>2026-05-03T09:59:36Z</time></trkpt><trkpt lat="43.26308237580812" lon="13.42099534945718"><ele>164.0</ele><time>2026-05-03T09:59:37Z</time></trkpt><trkpt lat="43.26294726046523" lon="13.421071443601885"><ele>164.0</ele><time>2026-05-03T09:59:38Z</time></trkpt><trkpt lat="43.26281826020431" lon="13.421148309701277"><ele>162.25</ele><time>2026-05-03T09:59:39Z</time></trkpt><trkpt lat="43.26268421104157" lon="13.421218478310063"><ele>160.5</ele><time>2026-05-03T09:59:40Z</time></trkpt><trkpt lat="43.26254880258691" lon="13.421291149820055"><ele>158.75</ele><time>2026-05-03T09:59:41Z</time></trkpt><trkpt lat="43.26242148739626" lon="13.42135735438446"><ele>157.0</ele><time>2026-05-03T09:59:42Z</time></trkpt><trkpt lat="43.262288815504185" lon="13.421421464890196"><ele>156.0</ele><time>2026-05-03T09:59:43Z</time></trkpt><trkpt lat="43.262149934585544" lon="13.421476234589282"><ele>155.0</ele><time>2026-05-03T09:59:44Z</time></trkpt><trkpt lat="43.26201486305063" lon="13.421526488064229"><ele>154.0</ele><time>2026-05-03T09:59:45Z</time></trkpt><trkpt lat="43.26187012946399" lon="13.421576452046851"><ele>153.0</ele><time>2026-05-03T09:59:46Z</time></trkpt><trkpt lat="43.26172858767867" lon="13.421613572610623"><ele>153.0</ele><time>2026-05-03T09:59:47Z</time></trkpt><trkpt lat="43.26158839007269" lon="13.421654232985697"><ele>153.0</ele><time>2026-05-03T09:59:48Z</time></trkpt><trkpt lat="43.26145426254533" lon="13.421705989403138"><ele>153.0</ele><time>2026-05-03T09:59:49Z</time></trkpt><trkpt lat="43.26132712328384" lon="13.421765323169678"><ele>153.0</ele><time>2026-05-03T09:59:50Z</time></trkpt><trkpt lat="43.26120738052341" lon="13.421853386771442"><ele>152.0</ele><time>2026-05-03T09:59:51Z</time></trkpt><trkpt lat="43.26109693777174" lon="13.421962778382587"><ele>151.0</ele><time>2026-05-03T09:59:52Z</time></trkpt><trkpt lat="43.260997065942064" lon="13.422090269710308"><ele>150.0</ele><time>2026-05-03T09:59:53Z</time></trkpt><trkpt lat="43.2609003216156" lon="13.422243055787666"><ele>149.0</ele><time>2026-05-03T09:59:54Z</time></trkpt><trkpt lat="43.26079927165168" lon="13.422375111014262"><ele>149.0</ele><time>2026-05-03T09:59:55Z</time></trkpt><trkpt lat="43.26069756173555" lon="13.422503903144293"><ele>149.0</ele><time>2026-05-03T09:59:56Z</time></trkpt><trkpt lat="43.26059652489692" lon="13.422619770737148"><ele>149.0</ele><time>2026-05-03T09:59:57Z</time></trkpt><trkpt lat="43.26049183762323" lon="13.422713422090181"><ele>149.0</ele><time>2026-05-03T09:59:58Z</time></trkpt><trkpt lat="43.260390537869775" lon="13.422784054330938"><ele>147.5</ele><time>2026-05-03T09:59:59Z</time></trkpt><trkpt lat="43.260294938325856" lon="13.422833888360746"><ele>146.0</ele><time>2026-05-03T10:00:00Z</time></trkpt><trkpt lat="43.26021254766177" lon="13.422859364997144"><ele>144.5</ele><time>2026-05-03T10:00:01Z</time></trkpt><trkpt lat="43.26014128337235" lon="13.422852669507018"><ele>143.0</ele><time>2026-05-03T10:00:02Z</time></trkpt><trkpt lat="43.260065724448125" lon="13.42281801779014"><ele>141.5</ele><time>2026-05-03T10:00:03Z</time></trkpt><trkpt lat="43.25999201721301" lon="13.422767497630947"><ele>140.0</ele><time>2026-05-03T10:00:04Z</time></trkpt><trkpt lat="43.259917452052974" lon="13.422721937969786"><ele>140.0</ele><time>2026-05-03T10:00:05Z</time></trkpt><trkpt lat="43.25984026602081" lon="13.422677795904045"><ele>140.0</ele><time>2026-05-03T10:00:06Z</time></trkpt><trkpt lat="43.259750392672764" lon="13.422635159232296"><ele>140.0</ele><time>2026-05-03T10:00:07Z</time></trkpt><trkpt lat="43.25965963510005" lon="13.42258998464699"><ele>140.0</ele><time>2026-05-03T10:00:08Z</time></trkpt><trkpt lat="43.25956250566186" lon="13.422536321226827"><ele>140.0</ele><time>2026-05-03T10:00:09Z</time></trkpt><trkpt lat="43.25946414615686" lon="13.422473095917896"><ele>139.0</ele><time>2026-05-03T10:00:10Z</time></trkpt><trkpt lat="43.25936531367068" lon="13.422397994387508"><ele>138.0</ele><time>2026-05-03T10:00:11Z</time></trkpt><trkpt lat="43.25927183844264" lon="13.42230094354096"><ele>137.0</ele><time>2026-05-03T10:00:12Z</time></trkpt><trkpt lat="43.25918535059041" lon="13.422183303471657"><ele>136.0</ele><time>2026-05-03T10:00:13Z</time></trkpt><trkpt lat="43.25909333188889" lon="13.422060048048284"><ele>135.75</ele><time>2026-05-03T10:00:14Z</time></trkpt><trkpt lat="43.259000130322285" lon="13.421936318665297"><ele>135.5</ele><time>2026-05-03T10:00:15Z</time></trkpt><trkpt lat="43.25890554309274" lon="13.421815705501178"><ele>135.25</ele><time>2026-05-03T10:00:16Z</time></trkpt><trkpt lat="43.258808852162694" lon="13.421693345812988"><ele>135.0</ele><time>2026-05-03T10:00:17Z</time></trkpt><trkpt lat="43.25871377463702" lon="13.42156586586021"><ele>135.5</ele><time>2026-05-03T10:00:18Z</time></trkpt><trkpt lat="43.25862123584219" lon="13.421436313794121"><ele>136.0</ele><time>2026-05-03T10:00:19Z</time></trkpt><trkpt lat="43.258536976345376" lon="13.421300434122106"><ele>136.5</ele><time>2026-05-03T10:00:20Z</time></trkpt><trkpt lat="43.25846018686511" lon="13.42115822309791"><ele>137.0</ele><time>2026-05-03T10:00:21Z</time></trkpt><trkpt lat="43.25839288148856" lon="13.421007194808357"><ele>137.0</ele><time>2026-05-03T10:00:22Z</time></trkpt><trkpt lat="43.25833053146518" lon="13.420853153239245"><ele>137.0</ele><time>2026-05-03T10:00:23Z</time></trkpt><trkpt lat="43.258270353572115" lon="13.420702857263318"><ele>137.0</ele><time>2026-05-03T10:00:24Z</time></trkpt><trkpt lat="43.25820711893149" lon="13.420550163496893"><ele>137.0</ele><time>2026-05-03T10:00:25Z</time></trkpt><trkpt lat="43.258144722325085" lon="13.420413504582058"><ele>137.75</ele><time>2026-05-03T10:00:26Z</time></trkpt><trkpt lat="43.25808747926908" lon="13.420265402432383"><ele>138.5</ele><time>2026-05-03T10:00:27Z</time></trkpt><trkpt lat="43.258028863559" lon="13.42012118126831"><ele>139.25</ele><time>2026-05-03T10:00:28Z</time></trkpt><trkpt lat="43.25797037110042" lon="13.419980970784886"><ele>140.0</ele><time>2026-05-03T10:00:29Z</time></trkpt><trkpt lat="43.25791088341209" lon="13.419843701330265"><ele>140.0</ele><time>2026-05-03T10:00:30Z</time></trkpt><trkpt lat="43.257847680876615" lon="13.419701110156165"><ele>140.0</ele><time>2026-05-03T10:00:31Z</time></trkpt><trkpt lat="43.25779027194238" lon="13.419560592422712"><ele>140.0</ele><time>2026-05-03T10:00:32Z</time></trkpt><trkpt lat="43.257733439735695" lon="13.41942075273586"><ele>140.0</ele><time>2026-05-03T10:00:33Z</time></trkpt><trkpt lat="43.25767600315132" lon="13.419281926497353"><ele>140.0</ele><time>2026-05-03T10:00:34Z</time></trkpt><trkpt lat="43.25761984689156" lon="13.419149688573215"><ele>140.0</ele><time>2026-05-03T10:00:35Z</time></trkpt><trkpt lat="43.257562575602265" lon="13.41901351647671"><ele>140.0</ele><time>2026-05-03T10:00:36Z</time></trkpt><trkpt lat="43.257507237353636" lon="13.418881202446114"><ele>140.0</ele><time>2026-05-03T10:00:37Z</time></trkpt><trkpt lat="43.25745118437439" lon="13.418747524079851"><ele>140.0</ele><time>2026-05-03T10:00:38Z</time></trkpt><trkpt lat="43.25739562803839" lon="13.418618716011434"><ele>140.0</ele><time>2026-05-03T10:00:38.999Z</time></trkpt><trkpt lat="43.25734031865109" lon="13.418488346970182"><ele>140.0</ele><time>2026-05-03T10:00:39.999Z</time></trkpt><trkpt lat="43.257286371173684" lon="13.418357918255454"><ele>140.0</ele><time>2026-05-03T10:00:40.999Z</time></trkpt><trkpt lat="43.25723524831092" lon="13.41822696530701"><ele>140.0</ele><time>2026-05-03T10:00:41.999Z</time></trkpt><trkpt lat="43.25718191471384" lon="13.418095690666986"><ele>140.0</ele><time>2026-05-03T10:00:42.999Z</time></trkpt><trkpt lat="43.257127590768555" lon="13.417966691579485"><ele>140.0</ele><time>2026-05-03T10:00:43.999Z</time></trkpt><trkpt lat="43.2570729182163" lon="13.41783812980026"><ele>140.0</ele><time>2026-05-03T10:00:44.999Z</time></trkpt><trkpt lat="43.25701804809322" lon="13.41771027351007"><ele>140.0</ele><time>2026-05-03T10:00:45.999Z</time></trkpt><trkpt lat="43.256964007242715" lon="13.417578846323464"><ele>140.0</ele><time>2026-05-03T10:00:46.999Z</time></trkpt><trkpt lat="43.25690898240213" lon="13.417450490108275"><ele>140.0</ele><time>2026-05-03T10:00:47.999Z</time></trkpt><trkpt lat="43.25685482848363" lon="13.417327954659372"><ele>140.0</ele><time>2026-05-03T10:00:48.999Z</time></trkpt><trkpt lat="43.25679782032213" lon="13.417196315606967"><ele>140.0</ele><time>2026-05-03T10:00:49.999Z</time></trkpt><trkpt lat="43.256750062416344" lon="13.417071871762623"><ele>140.0</ele><time>2026-05-03T10:00:50.999Z</time></trkpt><trkpt lat="43.25669677760035" lon="13.416944857679422"><ele>140.0</ele><time>2026-05-03T10:00:51.999Z</time></trkpt><trkpt lat="43.25663935058162" lon="13.416820808424648"><ele>140.0</ele><time>2026-05-03T10:00:53Z</time></trkpt><trkpt lat="43.25658884387427" lon="13.416700697600561"><ele>140.0</ele><time>2026-05-03T10:00:54Z</time></trkpt><trkpt lat="43.25653762350605" lon="13.416577407142913"><ele>140.0</ele><time>2026-05-03T10:00:55Z</time></trkpt><trkpt lat="43.256486710047085" lon="13.416451738409132"><ele>140.0</ele><time>2026-05-03T10:00:56Z</time></trkpt><trkpt lat="43.25643522126103" lon="13.416331757718929"><ele>140.0</ele><time>2026-05-03T10:00:57Z</time></trkpt><trkpt lat="43.25638556340542" lon="13.416213112766826"><ele>140.0</ele><time>2026-05-03T10:00:58Z</time></trkpt><trkpt lat="43.25633445678819" lon="13.416091588347157"><ele>139.4</ele><time>2026-05-03T10:00:59Z</time></trkpt><trkpt lat="43.25628319276234" lon="13.41596733155401"><ele>138.8</ele><time>2026-05-03T10:01:00Z</time></trkpt><trkpt lat="43.256234367548835" lon="13.41585005101927"><ele>138.2</ele><time>2026-05-03T10:01:01Z</time></trkpt><trkpt lat="43.25618289943862" lon="13.415733362576374"><ele>137.6</ele><time>2026-05-03T10:01:02Z</time></trkpt><trkpt lat="43.25613567555657" lon="13.415618059614975"><ele>137.0</ele><time>2026-05-03T10:01:03Z</time></trkpt><trkpt lat="43.25608741311129" lon="13.415506838631376"><ele>137.2</ele><time>2026-05-03T10:01:04Z</time></trkpt><trkpt lat="43.25603936848243" lon="13.415389943325815"><ele>137.39999999999998</ele><time>2026-05-03T10:01:05Z</time></trkpt><trkpt lat="43.25599024790132" lon="13.415276102359924"><ele>137.60000000000002</ele><time>2026-05-03T10:01:06Z</time></trkpt><trkpt lat="43.25594276056399" lon="13.415161230918141"><ele>137.8</ele><time>2026-05-03T10:01:07Z</time></trkpt><trkpt lat="43.25589627715739" lon="13.4150488786922"><ele>138.0</ele><time>2026-05-03T10:01:08Z</time></trkpt><trkpt lat="43.25585222462132" lon="13.414934819828742"><ele>138.0</ele><time>2026-05-03T10:01:09Z</time></trkpt><trkpt lat="43.25580542562229" lon="13.414826802439478"><ele>138.0</ele><time>2026-05-03T10:01:10Z</time></trkpt><trkpt lat="43.25575969289981" lon="13.41472217348915"><ele>138.0</ele><time>2026-05-03T10:01:11Z</time></trkpt><trkpt lat="43.25571124206864" lon="13.414625456549887"><ele>138.0</ele><time>2026-05-03T10:01:12Z</time></trkpt><trkpt lat="43.25566046246463" lon="13.414531249666325"><ele>138.0</ele><time>2026-05-03T10:01:13Z</time></trkpt><trkpt lat="43.255602682352084" lon="13.41445061263071"><ele>138.0</ele><time>2026-05-03T10:01:14Z</time></trkpt><trkpt lat="43.25556308749471" lon="13.41432436603924"><ele>138.6</ele><time>2026-05-03T10:01:16Z</time></trkpt><trkpt lat="43.25541991367295" lon="13.41440627719807"><ele>139.20000000000002</ele><time>2026-05-03T10:01:17Z</time></trkpt><trkpt lat="43.255317744526444" lon="13.414495890531683"><ele>139.8</ele><time>2026-05-03T10:01:19Z</time></trkpt><trkpt lat="43.25525716682652" lon="13.414540477481333"><ele>140.4</ele><time>2026-05-03T10:01:20Z</time></trkpt><trkpt lat="43.255194062250645" lon="13.414583839331563"><ele>141.0</ele><time>2026-05-03T10:01:21Z</time></trkpt><trkpt lat="43.255131150222496" lon="13.41463539217989"><ele>141.0</ele><time>2026-05-03T10:01:22Z</time></trkpt><trkpt lat="43.255063810180935" lon="13.414700880113633"><ele>141.0</ele><time>2026-05-03T10:01:23Z</time></trkpt><trkpt lat="43.25499529339158" lon="13.414767773604492"><ele>141.0</ele><time>2026-05-03T10:01:24Z</time></trkpt><trkpt lat="43.254924866899444" lon="13.414834845693694"><ele>141.0</ele><time>2026-05-03T10:01:25Z</time></trkpt><trkpt lat="43.25484877956129" lon="13.414898704394723"><ele>141.0</ele><time>2026-05-03T10:01:26Z</time></trkpt><trkpt lat="43.254769286758396" lon="13.414965670445811"><ele>141.0</ele><time>2026-05-03T10:01:27Z</time></trkpt><trkpt lat="43.254688205000896" lon="13.415033538665226"><ele>141.0</ele><time>2026-05-03T10:01:28Z</time></trkpt><trkpt lat="43.25460586994381" lon="13.41510173351062"><ele>141.0</ele><time>2026-05-03T10:01:29Z</time></trkpt><trkpt lat="43.25452626779642" lon="13.415168148777825"><ele>141.0</ele><time>2026-05-03T10:01:30Z</time></trkpt><trkpt lat="43.254442043325625" lon="13.41523698208404"><ele>141.0</ele><time>2026-05-03T10:01:31Z</time></trkpt><trkpt lat="43.25435299550133" lon="13.415316995654628"><ele>141.0</ele><time>2026-05-03T10:01:32Z</time></trkpt><trkpt lat="43.25426998526207" lon="13.415390469972563"><ele>141.0</ele><time>2026-05-03T10:01:33Z</time></trkpt><trkpt lat="43.254183865841334" lon="13.415461917078481"><ele>141.0</ele><time>2026-05-03T10:01:34Z</time></trkpt><trkpt lat="43.25409521429709" lon="13.415537986258828"><ele>141.0</ele><time>2026-05-03T10:01:35Z</time></trkpt><trkpt lat="43.25400529600521" lon="13.415612694608832"><ele>141.0</ele><time>2026-05-03T10:01:36Z</time></trkpt><trkpt lat="43.253915421640365" lon="13.415686724096803"><ele>141.0</ele><time>2026-05-03T10:01:37Z</time></trkpt><trkpt lat="43.25382855516979" lon="13.415758627715288"><ele>140.6</ele><time>2026-05-03T10:01:38Z</time></trkpt><trkpt lat="43.25373904683386" lon="13.415841956515436"><ele>140.2</ele><time>2026-05-03T10:01:39Z</time></trkpt><trkpt lat="43.25364958467605" lon="13.415915757555902"><ele>139.8</ele><time>2026-05-03T10:01:40Z</time></trkpt><trkpt lat="43.25355704727568" lon="13.415991017456193"><ele>139.4</ele><time>2026-05-03T10:01:41Z</time></trkpt><trkpt lat="43.25346130269316" lon="13.416067572177438"><ele>139.0</ele><time>2026-05-03T10:01:42Z</time></trkpt><trkpt lat="43.253358609302204" lon="13.41613509238663"><ele>139.0</ele><time>2026-05-03T10:01:43Z</time></trkpt><trkpt lat="43.25325401088331" lon="13.416201524295863"><ele>139.0</ele><time>2026-05-03T10:01:44Z</time></trkpt><trkpt lat="43.253140692359516" lon="13.416256301275078"><ele>139.0</ele><time>2026-05-03T10:01:45Z</time></trkpt><trkpt lat="43.2530196788033" lon="13.416302343693715"><ele>139.0</ele><time>2026-05-03T10:01:46Z</time></trkpt><trkpt lat="43.25289623668052" lon="13.416334118102833"><ele>138.25</ele><time>2026-05-03T10:01:47Z</time></trkpt><trkpt lat="43.252767832124455" lon="13.416349146972648"><ele>137.5</ele><time>2026-05-03T10:01:48Z</time></trkpt><trkpt lat="43.252638542516976" lon="13.416359163794391"><ele>136.75</ele><time>2026-05-03T10:01:49Z</time></trkpt><trkpt lat="43.252500839881996" lon="13.416342934053612"><ele>136.0</ele><time>2026-05-03T10:01:50Z</time></trkpt><trkpt lat="43.25236726570115" lon="13.416317732657662"><ele>134.5</ele><time>2026-05-03T10:01:51Z</time></trkpt><trkpt lat="43.252233479264824" lon="13.416289496689394"><ele>133.0</ele><time>2026-05-03T10:01:52Z</time></trkpt><trkpt lat="43.25209351743417" lon="13.416261037471632"><ele>131.5</ele><time>2026-05-03T10:01:53Z</time></trkpt><trkpt lat="43.251957959000706" lon="13.416223281579494"><ele>130.0</ele><time>2026-05-03T10:01:54Z</time></trkpt><trkpt lat="43.25181594206076" lon="13.416184756548866"><ele>130.0</ele><time>2026-05-03T10:01:55Z</time></trkpt><trkpt lat="43.25168098150732" lon="13.41615097658094"><ele>130.0</ele><time>2026-05-03T10:01:56Z</time></trkpt><trkpt lat="43.251538456030865" lon="13.416110154504683"><ele>130.0</ele><time>2026-05-03T10:01:57Z</time></trkpt><trkpt lat="43.25140573090965" lon="13.416078593540105"><ele>130.0</ele><time>2026-05-03T10:01:57.999Z</time></trkpt><trkpt lat="43.2512710490404" lon="13.416044648433298"><ele>129.25</ele><time>2026-05-03T10:01:58.999Z</time></trkpt><trkpt lat="43.25114790387366" lon="13.416011641380729"><ele>128.5</ele><time>2026-05-03T10:01:59.999Z</time></trkpt><trkpt lat="43.251028763891654" lon="13.415984195623368"><ele>127.75</ele><time>2026-05-03T10:02:00.999Z</time></trkpt><trkpt lat="43.250921838333554" lon="13.415953748652543"><ele>127.0</ele><time>2026-05-03T10:02:01.999Z</time></trkpt><trkpt lat="43.25081495247535" lon="13.415924658114443"><ele>127.0</ele><time>2026-05-03T10:02:02.999Z</time></trkpt><trkpt lat="43.25071153679598" lon="13.41590037823669"><ele>126.99999999999999</ele><time>2026-05-03T10:02:03.999Z</time></trkpt><trkpt lat="43.25062043906357" lon="13.415871959049838"><ele>126.99999999999999</ele><time>2026-05-03T10:02:04.999Z</time></trkpt><trkpt lat="43.250534404144915" lon="13.415832770592727"><ele>127.0</ele><time>2026-05-03T10:02:05.999Z</time></trkpt><trkpt lat="43.25044436582392" lon="13.41577679839544"><ele>127.0</ele><time>2026-05-03T10:02:06.999Z</time></trkpt><trkpt lat="43.25035898677766" lon="13.415723962753438"><ele>127.8</ele><time>2026-05-03T10:02:07.999Z</time></trkpt><trkpt lat="43.25026714300622" lon="13.41569068194063"><ele>128.6</ele><time>2026-05-03T10:02:08.999Z</time></trkpt><trkpt lat="43.25016488080708" lon="13.415678000879455"><ele>129.39999999999998</ele><time>2026-05-03T10:02:09.999Z</time></trkpt><trkpt lat="43.25006279881094" lon="13.415681920315663"><ele>130.2</ele><time>2026-05-03T10:02:10.999Z</time></trkpt><trkpt lat="43.24995237209754" lon="13.415682606964344"><ele>131.0</ele><time>2026-05-03T10:02:11.999Z</time></trkpt><trkpt lat="43.249844896245044" lon="13.415672500880964"><ele>131.0</ele><time>2026-05-03T10:02:12.999Z</time></trkpt><trkpt lat="43.24974087485983" lon="13.415653530533275"><ele>131.0</ele><time>2026-05-03T10:02:13.999Z</time></trkpt><trkpt lat="43.24963277599101" lon="13.415630079994"><ele>131.0</ele><time>2026-05-03T10:02:14.999Z</time></trkpt><trkpt lat="43.24952447999308" lon="13.415603346369853"><ele>131.0</ele><time>2026-05-03T10:02:15.999Z</time></trkpt><trkpt lat="43.24941275385818" lon="13.415571483622802"><ele>131.0</ele><time>2026-05-03T10:02:16.999Z</time></trkpt><trkpt lat="43.249299961222086" lon="13.415540877855465"><ele>131.0</ele><time>2026-05-03T10:02:17.999Z</time></trkpt><trkpt lat="43.24918366078897" lon="13.415511376624078"><ele>131.0</ele><time>2026-05-03T10:02:18.999Z</time></trkpt><trkpt lat="43.24906398502442" lon="13.415478656248515"><ele>131.0</ele><time>2026-05-03T10:02:19.999Z</time></trkpt><trkpt lat="43.24893939752815" lon="13.415443652079507"><ele>131.0</ele><time>2026-05-03T10:02:20.999Z</time></trkpt><trkpt lat="43.24881647128559" lon="13.415409151325912"><ele>131.0</ele><time>2026-05-03T10:02:21.999Z</time></trkpt><trkpt lat="43.24868915477682" lon="13.415375070714562"><ele>131.0</ele><time>2026-05-03T10:02:22.999Z</time></trkpt><trkpt lat="43.24855999479302" lon="13.415344717814204"><ele>131.0</ele><time>2026-05-03T10:02:23.999Z</time></trkpt><trkpt lat="43.248428069639054" lon="13.415312649735037"><ele>131.0</ele><time>2026-05-03T10:02:24.999Z</time></trkpt><trkpt lat="43.24829672603318" lon="13.415279823605777"><ele>131.0</ele><time>2026-05-03T10:02:25.999Z</time></trkpt><trkpt lat="43.248164185422496" lon="13.415243571803174"><ele>131.0</ele><time>2026-05-03T10:02:26.999Z</time></trkpt><trkpt lat="43.24803041085352" lon="13.415207002716107"><ele>131.0</ele><time>2026-05-03T10:02:27.999Z</time></trkpt><trkpt lat="43.24789452876218" lon="13.415172554380762"><ele>131.0</ele><time>2026-05-03T10:02:28.999Z</time></trkpt><trkpt lat="43.24775976556553" lon="13.41513676070761"><ele>131.0</ele><time>2026-05-03T10:02:29.999Z</time></trkpt><trkpt lat="43.24762313556164" lon="13.415100746790994"><ele>131.0</ele><time>2026-05-03T10:02:30.999Z</time></trkpt><trkpt lat="43.24748779828856" lon="13.41506408785839"><ele>131.0</ele><time>2026-05-03T10:02:31.999Z</time></trkpt><trkpt lat="43.24735162347349" lon="13.415027255186025"><ele>131.0</ele><time>2026-05-03T10:02:32.999Z</time></trkpt><trkpt lat="43.24721812248403" lon="13.414991581810327"><ele>131.0</ele><time>2026-05-03T10:02:33.999Z</time></trkpt><trkpt lat="43.247080704306875" lon="13.414963459900607"><ele>131.0</ele><time>2026-05-03T10:02:34.999Z</time></trkpt><trkpt lat="43.24694429797896" lon="13.41493358325634"><ele>131.0</ele><time>2026-05-03T10:02:35.999Z</time></trkpt><trkpt lat="43.24680670720344" lon="13.41490752467414"><ele>131.0</ele><time>2026-05-03T10:02:36.999Z</time></trkpt><trkpt lat="43.24666950588072" lon="13.414882482521339"><ele>131.0</ele><time>2026-05-03T10:02:37.999Z</time></trkpt><trkpt lat="43.24652913527963" lon="13.414862404237974"><ele>131.0</ele><time>2026-05-03T10:02:38.999Z</time></trkpt><trkpt lat="43.246391895301294" lon="13.414840444383458"><ele>131.0</ele><time>2026-05-03T10:02:39.999Z</time></trkpt><trkpt lat="43.24626148599886" lon="13.414811093557887"><ele>131.0</ele><time>2026-05-03T10:02:40.999Z</time></trkpt><trkpt lat="43.24612473085719" lon="13.414785172060332"><ele>131.25</ele><time>2026-05-03T10:02:41.999Z</time></trkpt><trkpt lat="43.24598641129717" lon="13.414759178311357"><ele>131.5</ele><time>2026-05-03T10:02:42.999Z</time></trkpt><trkpt lat="43.245848592368496" lon="13.414731030063551"><ele>131.75</ele><time>2026-05-03T10:02:43.999Z</time></trkpt><trkpt lat="43.245711355447604" lon="13.414705554749508"><ele>132.0</ele><time>2026-05-03T10:02:44.999Z</time></trkpt><trkpt lat="43.24557590315851" lon="13.414684816738763"><ele>132.5</ele><time>2026-05-03T10:02:45.999Z</time></trkpt><trkpt lat="43.24543965326932" lon="13.414663075493543"><ele>133.0</ele><time>2026-05-03T10:02:46.999Z</time></trkpt><trkpt lat="43.2453045597442" lon="13.414636340013068"><ele>133.5</ele><time>2026-05-03T10:02:47.999Z</time></trkpt><trkpt lat="43.245169768887536" lon="13.414610135465454"><ele>134.0</ele><time>2026-05-03T10:02:49Z</time></trkpt><trkpt lat="43.24503560695907" lon="13.414581320868704"><ele>134.0</ele><time>2026-05-03T10:02:50Z</time></trkpt><trkpt lat="43.24490414837136" lon="13.414560766766177"><ele>134.0</ele><time>2026-05-03T10:02:51Z</time></trkpt><trkpt lat="43.244781623760076" lon="13.414536832517486"><ele>134.0</ele><time>2026-05-03T10:02:52Z</time></trkpt><trkpt lat="43.244676822599644" lon="13.414504094170926"><ele>134.0</ele><time>2026-05-03T10:02:53Z</time></trkpt><trkpt lat="43.244591421925044" lon="13.41445702822723"><ele>134.0</ele><time>2026-05-03T10:02:54Z</time></trkpt><trkpt lat="43.244522903484196" lon="13.414387288355963"><ele>134.0</ele><time>2026-05-03T10:02:55Z</time></trkpt><trkpt lat="43.244472136775364" lon="13.414294302381503"><ele>134.0</ele><time>2026-05-03T10:02:56Z</time></trkpt><trkpt lat="43.24443927109971" lon="13.414188632186702"><ele>134.0</ele><time>2026-05-03T10:02:57Z</time></trkpt><trkpt lat="43.24441615688728" lon="13.41406667829358"><ele>134.0</ele><time>2026-05-03T10:02:58Z</time></trkpt><trkpt lat="43.244374044389" lon="13.413936527512972"><ele>134.0</ele><time>2026-05-03T10:02:59Z</time></trkpt><trkpt lat="43.24432799801789" lon="13.413814275392443"><ele>133.8</ele><time>2026-05-03T10:03:00Z</time></trkpt><trkpt lat="43.24426529309443" lon="13.413717086900537"><ele>133.60000000000002</ele><time>2026-05-03T10:03:01Z</time></trkpt><trkpt lat="43.24418732000532" lon="13.413646748919136"><ele>133.4</ele><time>2026-05-03T10:03:02Z</time></trkpt><trkpt lat="43.24409712792079" lon="13.413598754209575"><ele>133.20000000000002</ele><time>2026-05-03T10:03:03Z</time></trkpt><trkpt lat="43.24400253198305" lon="13.413558396684174"><ele>133.0</ele><time>2026-05-03T10:03:04Z</time></trkpt><trkpt lat="43.2439086788819" lon="13.413525086145798"><ele>133.4</ele><time>2026-05-03T10:03:05Z</time></trkpt><trkpt lat="43.24381414953365" lon="13.413486366838246"><ele>133.8</ele><time>2026-05-03T10:03:06Z</time></trkpt><trkpt lat="43.24371932937549" lon="13.413445826149514"><ele>134.2</ele><time>2026-05-03T10:03:07Z</time></trkpt><trkpt lat="43.243622592691274" lon="13.413404812093473"><ele>134.6</ele><time>2026-05-03T10:03:08Z</time></trkpt><trkpt lat="43.24352285387854" lon="13.413367965446634"><ele>135.0</ele><time>2026-05-03T10:03:09Z</time></trkpt><trkpt lat="43.24341751157611" lon="13.413322062755878"><ele>135.0</ele><time>2026-05-03T10:03:10Z</time></trkpt><trkpt lat="43.243318518087804" lon="13.413268258757421"><ele>135.0</ele><time>2026-05-03T10:03:11Z</time></trkpt><trkpt lat="43.24322048505286" lon="13.413205547045687"><ele>135.0</ele><time>2026-05-03T10:03:12Z</time></trkpt><trkpt lat="43.24312244615611" lon="13.413136489477443"><ele>135.0</ele><time>2026-05-03T10:03:13Z</time></trkpt><trkpt lat="43.24302549311691" lon="13.413065099642065"><ele>135.0</ele><time>2026-05-03T10:03:14Z</time></trkpt><trkpt lat="43.24292768350778" lon="13.412981626856839"><ele>135.0</ele><time>2026-05-03T10:03:15Z</time></trkpt><trkpt lat="43.2428378919487" lon="13.412888755685719"><ele>135.0</ele><time>2026-05-03T10:03:16Z</time></trkpt><trkpt lat="43.24274876964708" lon="13.412785481064812"><ele>135.0</ele><time>2026-05-03T10:03:17Z</time></trkpt><trkpt lat="43.24266267460045" lon="13.412682227815523"><ele>135.0</ele><time>2026-05-03T10:03:18Z</time></trkpt><trkpt lat="43.242577353185155" lon="13.412566059216719"><ele>135.0</ele><time>2026-05-03T10:03:19Z</time></trkpt><trkpt lat="43.24250822933978" lon="13.412507160105273"><ele>135.0</ele><time>2026-05-03T10:03:20Z</time></trkpt><trkpt lat="43.24243080360689" lon="13.412402553863824"><ele>135.0</ele><time>2026-05-03T10:03:21Z</time></trkpt><trkpt lat="43.24235268913043" lon="13.412303346597211"><ele>135.0</ele><time>2026-05-03T10:03:22Z</time></trkpt><trkpt lat="43.24227197739257" lon="13.412208092140865"><ele>135.0</ele><time>2026-05-03T10:03:23Z</time></trkpt><trkpt lat="43.24218571560591" lon="13.412129994576539"><ele>135.4</ele><time>2026-05-03T10:03:24Z</time></trkpt><trkpt lat="43.24208880100162" lon="13.412085279042415"><ele>135.8</ele><time>2026-05-03T10:03:25Z</time></trkpt><trkpt lat="43.24198529500359" lon="13.41206687805435"><ele>136.2</ele><time>2026-05-03T10:03:26Z</time></trkpt><trkpt lat="43.241887457821846" lon="13.412061231093894"><ele>136.6</ele><time>2026-05-03T10:03:27Z</time></trkpt><trkpt lat="43.24179220789272" lon="13.412071276789423"><ele>137.0</ele><time>2026-05-03T10:03:28Z</time></trkpt><trkpt lat="43.241700447952205" lon="13.41211048862332"><ele>137.16666666666666</ele><time>2026-05-03T10:03:29Z</time></trkpt><trkpt lat="43.2416093874906" lon="13.41216360765237"><ele>137.33333333333331</ele><time>2026-05-03T10:03:30Z</time></trkpt><trkpt lat="43.24153483628146" lon="13.412222323944487"><ele>137.5</ele><time>2026-05-03T10:03:31Z</time></trkpt><trkpt lat="43.24145910895817" lon="13.412287224671406"><ele>137.66666666666666</ele><time>2026-05-03T10:03:32Z</time></trkpt><trkpt lat="43.241377611345804" lon="13.412323455198953"><ele>137.83333333333334</ele><time>2026-05-03T10:03:33Z</time></trkpt><trkpt lat="43.24129861857542" lon="13.412321727487416"><ele>138.0</ele><time>2026-05-03T10:03:34Z</time></trkpt><trkpt lat="43.24121411530637" lon="13.41229927285731"><ele>138.0</ele><time>2026-05-03T10:03:35Z</time></trkpt><trkpt lat="43.241128577282325" lon="13.412254224795952"><ele>138.0</ele><time>2026-05-03T10:03:36Z</time></trkpt><trkpt lat="43.241053032908134" lon="13.412186416293428"><ele>138.0</ele><time>2026-05-03T10:03:37Z</time></trkpt><trkpt lat="43.241003936815" lon="13.412074573979224"><ele>138.0</ele><time>2026-05-03T10:03:38Z</time></trkpt><trkpt lat="43.240946207699444" lon="13.411980279453905"><ele>138.0</ele><time>2026-05-03T10:03:39Z</time></trkpt><trkpt lat="43.240912741570334" lon="13.411864187853185"><ele>138.4</ele><time>2026-05-03T10:03:40Z</time></trkpt><trkpt lat="43.24087133723157" lon="13.41175069248412"><ele>138.8</ele><time>2026-05-03T10:03:41Z</time></trkpt><trkpt lat="43.24081926025563" lon="13.411637083871744"><ele>139.2</ele><time>2026-05-03T10:03:42Z</time></trkpt><trkpt lat="43.24075577424727" lon="13.411519514205676"><ele>139.6</ele><time>2026-05-03T10:03:43Z</time></trkpt><trkpt lat="43.240692253723445" lon="13.411397126953894"><ele>140.0</ele><time>2026-05-03T10:03:44Z</time></trkpt><trkpt lat="43.24062994557858" lon="13.41126365712645"><ele>140.0</ele><time>2026-05-03T10:03:45Z</time></trkpt><trkpt lat="43.240562302221434" lon="13.411121302895605"><ele>140.0</ele><time>2026-05-03T10:03:46Z</time></trkpt><trkpt lat="43.24049808421186" lon="13.410975909352373"><ele>140.0</ele><time>2026-05-03T10:03:47Z</time></trkpt><trkpt lat="43.24042727480868" lon="13.41083501792504"><ele>140.0</ele><time>2026-05-03T10:03:48Z</time></trkpt><trkpt lat="43.240355836235466" lon="13.410687490654945"><ele>140.0</ele><time>2026-05-03T10:03:49Z</time></trkpt><trkpt lat="43.24028351486717" lon="13.410529730216203"><ele>140.0</ele><time>2026-05-03T10:03:50Z</time></trkpt><trkpt lat="43.24021320896367" lon="13.410364460353946"><ele>140.0</ele><time>2026-05-03T10:03:51Z</time></trkpt><trkpt lat="43.24014255723205" lon="13.410195475302034"><ele>140.0</ele><time>2026-05-03T10:03:52Z</time></trkpt><trkpt lat="43.24006677439012" lon="13.410021207006919"><ele>140.25</ele><time>2026-05-03T10:03:53Z</time></trkpt><trkpt lat="43.23999281230966" lon="13.409858601190091"><ele>140.5</ele><time>2026-05-03T10:03:54Z</time></trkpt><trkpt lat="43.23992582269667" lon="13.409669025337434"><ele>140.75</ele><time>2026-05-03T10:03:55Z</time></trkpt><trkpt lat="43.23983687663253" lon="13.409508641044512"><ele>141.0</ele><time>2026-05-03T10:03:56Z</time></trkpt><trkpt lat="43.239757910266064" lon="13.409325487156519"><ele>141.0</ele><time>2026-05-03T10:03:57Z</time></trkpt><trkpt lat="43.239681564153315" lon="13.40913825405679"><ele>141.0</ele><time>2026-05-03T10:03:58Z</time></trkpt><trkpt lat="43.23959835194071" lon="13.408961376200118"><ele>141.0</ele><time>2026-05-03T10:03:59Z</time></trkpt><trkpt lat="43.23950840195878" lon="13.408772009198774"><ele>141.33333333333334</ele><time>2026-05-03T10:04:00Z</time></trkpt><trkpt lat="43.23942318340991" lon="13.408585798837777"><ele>141.66666666666669</ele><time>2026-05-03T10:04:01Z</time></trkpt><trkpt lat="43.239347005910474" lon="13.408387682495398"><ele>142.0</ele><time>2026-05-03T10:04:02Z</time></trkpt><trkpt lat="43.239248970124656" lon="13.408196630020797"><ele>141.33333333333334</ele><time>2026-05-03T10:04:03Z</time></trkpt><trkpt lat="43.23916715155745" lon="13.40798445500671"><ele>140.66666666666666</ele><time>2026-05-03T10:04:04Z</time></trkpt><trkpt lat="43.23908436980803" lon="13.407781287508712"><ele>140.0</ele><time>2026-05-03T10:04:05Z</time></trkpt><trkpt lat="43.23900437736867" lon="13.407573730879529"><ele>140.66666666666666</ele><time>2026-05-03T10:04:06Z</time></trkpt><trkpt lat="43.23892604937359" lon="13.407361153189191"><ele>141.33333333333334</ele><time>2026-05-03T10:04:07Z</time></trkpt><trkpt lat="43.23884691580091" lon="13.407137889761408"><ele>142.0</ele><time>2026-05-03T10:04:08Z</time></trkpt><trkpt lat="43.238766250741904" lon="13.406907438002108"><ele>142.33333333333334</ele><time>2026-05-03T10:04:09Z</time></trkpt><trkpt lat="43.23868647414219" lon="13.40667301463669"><ele>142.66666666666666</ele><time>2026-05-03T10:04:10Z</time></trkpt><trkpt lat="43.23860640482169" lon="13.406422777492345"><ele>143.0</ele><time>2026-05-03T10:04:11Z</time></trkpt><trkpt lat="43.238531028832" lon="13.406166925122161"><ele>143.0</ele><time>2026-05-03T10:04:12Z</time></trkpt><trkpt lat="43.23845796730526" lon="13.405921076887623"><ele>143.0</ele><time>2026-05-03T10:04:13Z</time></trkpt><trkpt lat="43.238386074441124" lon="13.405673845841672"><ele>143.0</ele><time>2026-05-03T10:04:14Z</time></trkpt><trkpt lat="43.23831536754588" lon="13.40541357178091"><ele>143.0</ele><time>2026-05-03T10:04:15Z</time></trkpt><trkpt lat="43.2382452876107" lon="13.405146712838242"><ele>143.0</ele><time>2026-05-03T10:04:16Z</time></trkpt><trkpt lat="43.23817763740049" lon="13.40486985677672"><ele>143.0</ele><time>2026-05-03T10:04:17Z</time></trkpt><trkpt lat="43.23810733678701" lon="13.404587726563062"><ele>143.0</ele><time>2026-05-03T10:04:18Z</time></trkpt><trkpt lat="43.238037067776226" lon="13.40430651091897"><ele>143.0</ele><time>2026-05-03T10:04:19Z</time></trkpt><trkpt lat="43.23797356075593" lon="13.40400651322345"><ele>143.0</ele><time>2026-05-03T10:04:20Z</time></trkpt><trkpt lat="43.23791756490632" lon="13.403707103408694"><ele>143.0</ele><time>2026-05-03T10:04:21Z</time></trkpt><trkpt lat="43.2378590326645" lon="13.403404094841193"><ele>143.0</ele><time>2026-05-03T10:04:22Z</time></trkpt><trkpt lat="43.23780591855909" lon="13.403101498350194"><ele>144.0</ele><time>2026-05-03T10:04:23Z</time></trkpt><trkpt lat="43.237760892157674" lon="13.402793224773662"><ele>145.0</ele><time>2026-05-03T10:04:24Z</time></trkpt><trkpt lat="43.2377219693047" lon="13.402480415229572"><ele>145.0</ele><time>2026-05-03T10:04:25Z</time></trkpt><trkpt lat="43.23768171283688" lon="13.402166390329642"><ele>145.0</ele><time>2026-05-03T10:04:26Z</time></trkpt><trkpt lat="43.237641883122514" lon="13.401844855091714"><ele>145.0</ele><time>2026-05-03T10:04:27Z</time></trkpt><trkpt lat="43.23760468391659" lon="13.401525914774977"><ele>145.0</ele><time>2026-05-03T10:04:28Z</time></trkpt><trkpt lat="43.237568665126794" lon="13.401207736158746"><ele>145.0</ele><time>2026-05-03T10:04:29Z</time></trkpt><trkpt lat="43.23753599936344" lon="13.400897611569066"><ele>145.0</ele><time>2026-05-03T10:04:30Z</time></trkpt><trkpt lat="43.23750685243027" lon="13.400578389193052"><ele>144.5</ele><time>2026-05-03T10:04:31Z</time></trkpt><trkpt lat="43.237468057463424" lon="13.400270897107523"><ele>144.0</ele><time>2026-05-03T10:04:32Z</time></trkpt><trkpt lat="43.237430355573885" lon="13.399961235612453"><ele>143.5</ele><time>2026-05-03T10:04:33Z</time></trkpt><trkpt lat="43.23739464630822" lon="13.399646741997135"><ele>143.0</ele><time>2026-05-03T10:04:34Z</time></trkpt><trkpt lat="43.23736130527822" lon="13.399331755992062"><ele>143.0</ele><time>2026-05-03T10:04:35Z</time></trkpt><trkpt lat="43.23732692374578" lon="13.399013513036676"><ele>143.0</ele><time>2026-05-03T10:04:36Z</time></trkpt><trkpt lat="43.23729188312254" lon="13.398695865864276"><ele>145.0</ele><time>2026-05-03T10:04:37Z</time></trkpt><trkpt lat="43.237253150341374" lon="13.398376484018911"><ele>147.0</ele><time>2026-05-03T10:04:38Z</time></trkpt><trkpt lat="43.237217658074236" lon="13.398064238766608"><ele>147.0</ele><time>2026-05-03T10:04:39Z</time></trkpt><trkpt lat="43.237183456835076" lon="13.397752791732241"><ele>147.0</ele><time>2026-05-03T10:04:40Z</time></trkpt><trkpt lat="43.23715198557292" lon="13.397439640561895"><ele>147.5</ele><time>2026-05-03T10:04:41Z</time></trkpt><trkpt lat="43.2371146497834" lon="13.397122869304999"><ele>148.0</ele><time>2026-05-03T10:04:42Z</time></trkpt><trkpt lat="43.23707727576684" lon="13.396809482955094"><ele>148.0</ele><time>2026-05-03T10:04:43Z</time></trkpt><trkpt lat="43.23703860524067" lon="13.396495764151709"><ele>148.0</ele><time>2026-05-03T10:04:44Z</time></trkpt><trkpt lat="43.23700423922864" lon="13.396182401865454"><ele>147.0</ele><time>2026-05-03T10:04:45Z</time></trkpt><trkpt lat="43.23697160180105" lon="13.395861152036817"><ele>146.0</ele><time>2026-05-03T10:04:46Z</time></trkpt><trkpt lat="43.23693881156769" lon="13.395548640395821"><ele>145.0</ele><time>2026-05-03T10:04:47Z</time></trkpt><trkpt lat="43.236903463759404" lon="13.395232405022094"><ele>144.0</ele><time>2026-05-03T10:04:48Z</time></trkpt><trkpt lat="43.23686447084606" lon="13.394914594906508"><ele>144.0</ele><time>2026-05-03T10:04:49Z</time></trkpt><trkpt lat="43.236827211816085" lon="13.394601904494555"><ele>144.0</ele><time>2026-05-03T10:04:50Z</time></trkpt><trkpt lat="43.23679336833768" lon="13.394281196260792"><ele>144.0</ele><time>2026-05-03T10:04:51Z</time></trkpt><trkpt lat="43.23676201483443" lon="13.393965057854182"><ele>144.0</ele><time>2026-05-03T10:04:52Z</time></trkpt><trkpt lat="43.23673124541271" lon="13.393652510615452"><ele>143.5</ele><time>2026-05-03T10:04:53Z</time></trkpt><trkpt lat="43.236695328817554" lon="13.393338549371038"><ele>143.0</ele><time>2026-05-03T10:04:54Z</time></trkpt><trkpt lat="43.23665707761088" lon="13.393019715683346"><ele>145.0</ele><time>2026-05-03T10:04:55Z</time></trkpt><trkpt lat="43.23661764326707" lon="13.39271027187503"><ele>147.0</ele><time>2026-05-03T10:04:56Z</time></trkpt><trkpt lat="43.236584786000606" lon="13.39240149391585"><ele>147.0</ele><time>2026-05-03T10:04:57Z</time></trkpt><trkpt lat="43.23655281883084" lon="13.39208124727323"><ele>147.0</ele><time>2026-05-03T10:04:58Z</time></trkpt><trkpt lat="43.236516776555156" lon="13.391765663311288"><ele>147.0</ele><time>2026-05-03T10:04:59Z</time></trkpt><trkpt lat="43.236480396661065" lon="13.391454941871894"><ele>147.0</ele><time>2026-05-03T10:05:00Z</time></trkpt><trkpt lat="43.23644452376271" lon="13.391136613773496"><ele>148.0</ele><time>2026-05-03T10:05:01Z</time></trkpt><trkpt lat="43.236408909534084" lon="13.39082172117048"><ele>149.0</ele><time>2026-05-03T10:05:02Z</time></trkpt><trkpt lat="43.236371405168605" lon="13.390509877249976"><ele>148.5</ele><time>2026-05-03T10:05:03Z</time></trkpt><trkpt lat="43.236340022546806" lon="13.390196747325383"><ele>148.0</ele><time>2026-05-03T10:05:04Z</time></trkpt><trkpt lat="43.23630342604281" lon="13.38988116545897"><ele>147.5</ele><time>2026-05-03T10:05:05Z</time></trkpt><trkpt lat="43.2362671829075" lon="13.389563492444406"><ele>147.0</ele><time>2026-05-03T10:05:06Z</time></trkpt><trkpt lat="43.23623011982269" lon="13.389247032632767"><ele>147.0</ele><time>2026-05-03T10:05:07Z</time></trkpt><trkpt lat="43.23619593015771" lon="13.388931826258915"><ele>147.0</ele><time>2026-05-03T10:05:08Z</time></trkpt><trkpt lat="43.236160363326796" lon="13.388622302916561"><ele>147.0</ele><time>2026-05-03T10:05:09Z</time></trkpt><trkpt lat="43.23611600266407" lon="13.388305641839024"><ele>147.0</ele><time>2026-05-03T10:05:10Z</time></trkpt><trkpt lat="43.23608256819582" lon="13.387993355969309"><ele>146.5</ele><time>2026-05-03T10:05:11Z</time></trkpt><trkpt lat="43.23605567317041" lon="13.387678654562453"><ele>146.0</ele><time>2026-05-03T10:05:12Z</time></trkpt><trkpt lat="43.23601653442262" lon="13.387363565195102"><ele>145.5</ele><time>2026-05-03T10:05:13Z</time></trkpt><trkpt lat="43.23598137069961" lon="13.387046688916248"><ele>145.0</ele><time>2026-05-03T10:05:14Z</time></trkpt><trkpt lat="43.23594896467693" lon="13.38672667388891"><ele>145.0</ele><time>2026-05-03T10:05:15Z</time></trkpt><trkpt lat="43.235912359488246" lon="13.386418890268377"><ele>145.0</ele><time>2026-05-03T10:05:16Z</time></trkpt><trkpt lat="43.235876411431825" lon="13.386095440074302"><ele>144.5</ele><time>2026-05-03T10:05:17Z</time></trkpt><trkpt lat="43.23584234080134" lon="13.38579092268183"><ele>144.0</ele><time>2026-05-03T10:05:18Z</time></trkpt><trkpt lat="43.23580783341481" lon="13.385475211543236"><ele>143.5</ele><time>2026-05-03T10:05:19Z</time></trkpt><trkpt lat="43.23577311336495" lon="13.38515998803538"><ele>143.0</ele><time>2026-05-03T10:05:20Z</time></trkpt><trkpt lat="43.23573828943677" lon="13.384841147953551"><ele>142.0</ele><time>2026-05-03T10:05:21Z</time></trkpt><trkpt lat="43.23570377921122" lon="13.384529318769616"><ele>141.0</ele><time>2026-05-03T10:05:22Z</time></trkpt><trkpt lat="43.23566782634697" lon="13.384211134905119"><ele>143.0</ele><time>2026-05-03T10:05:23Z</time></trkpt><trkpt lat="43.23562758026866" lon="13.383893372060319"><ele>145.0</ele><time>2026-05-03T10:05:24Z</time></trkpt><trkpt lat="43.23559209949951" lon="13.383585286003116"><ele>145.5</ele><time>2026-05-03T10:05:25Z</time></trkpt><trkpt lat="43.2355649202659" lon="13.383261949234965"><ele>146.0</ele><time>2026-05-03T10:05:26Z</time></trkpt><trkpt lat="43.23552241488607" lon="13.382954701900832"><ele>147.0</ele><time>2026-05-03T10:05:27Z</time></trkpt><trkpt lat="43.23548786900004" lon="13.382639358951202"><ele>148.0</ele><time>2026-05-03T10:05:28Z</time></trkpt><trkpt lat="43.235455045450344" lon="13.382319265958564"><ele>148.5</ele><time>2026-05-03T10:05:29Z</time></trkpt><trkpt lat="43.23541748750425" lon="13.382010382503665"><ele>149.0</ele><time>2026-05-03T10:05:30Z</time></trkpt><trkpt lat="43.235381298823796" lon="13.381697332094099"><ele>149.0</ele><time>2026-05-03T10:05:31Z</time></trkpt><trkpt lat="43.23534485898051" lon="13.381380508727208"><ele>149.0</ele><time>2026-05-03T10:05:32Z</time></trkpt><trkpt lat="43.23531052978292" lon="13.38106329346905"><ele>149.0</ele><time>2026-05-03T10:05:33Z</time></trkpt><trkpt lat="43.23527373045458" lon="13.380749527637334"><ele>149.0</ele><time>2026-05-03T10:05:34Z</time></trkpt><trkpt lat="43.23523752730975" lon="13.38043674292033"><ele>149.0</ele><time>2026-05-03T10:05:35Z</time></trkpt><trkpt lat="43.235202384692684" lon="13.380121856381303"><ele>149.0</ele><time>2026-05-03T10:05:36Z</time></trkpt><trkpt lat="43.23517052360228" lon="13.379802468606467"><ele>149.0</ele><time>2026-05-03T10:05:37Z</time></trkpt><trkpt lat="43.235132199208316" lon="13.379491111899949"><ele>149.0</ele><time>2026-05-03T10:05:38Z</time></trkpt><trkpt lat="43.23509903730727" lon="13.379182083575438"><ele>149.0</ele><time>2026-05-03T10:05:39Z</time></trkpt><trkpt lat="43.235054532813926" lon="13.378868563778289"><ele>149.0</ele><time>2026-05-03T10:05:40Z</time></trkpt><trkpt lat="43.23502472724971" lon="13.378548499490169"><ele>148.5</ele><time>2026-05-03T10:05:41Z</time></trkpt><trkpt lat="43.23499347216941" lon="13.378234798740001"><ele>148.0</ele><time>2026-05-03T10:05:42Z</time></trkpt><trkpt lat="43.234953410628016" lon="13.377919163013868"><ele>147.5</ele><time>2026-05-03T10:05:43Z</time></trkpt><trkpt lat="43.23492090864339" lon="13.377604648585608"><ele>147.0</ele><time>2026-05-03T10:05:44Z</time></trkpt><trkpt lat="43.234886901269405" lon="13.37728820842297"><ele>147.5</ele><time>2026-05-03T10:05:45Z</time></trkpt><trkpt lat="43.23484844403554" lon="13.376976799978488"><ele>148.0</ele><time>2026-05-03T10:05:46Z</time></trkpt><trkpt lat="43.23481288212718" lon="13.376660119686873"><ele>148.5</ele><time>2026-05-03T10:05:47Z</time></trkpt><trkpt lat="43.23478066104119" lon="13.376343974932984"><ele>149.0</ele><time>2026-05-03T10:05:48Z</time></trkpt><trkpt lat="43.23474499352119" lon="13.376030770668807"><ele>149.0</ele><time>2026-05-03T10:05:49Z</time></trkpt><trkpt lat="43.2347056486271" lon="13.375717236096976"><ele>149.0</ele><time>2026-05-03T10:05:50Z</time></trkpt><trkpt lat="43.234673611800446" lon="13.37540639597993"><ele>149.5</ele><time>2026-05-03T10:05:51Z</time></trkpt><trkpt lat="43.23463614002901" lon="13.375091356386829"><ele>150.0</ele><time>2026-05-03T10:05:52Z</time></trkpt><trkpt lat="43.23460051818107" lon="13.37477446794884"><ele>149.5</ele><time>2026-05-03T10:05:53Z</time></trkpt><trkpt lat="43.23456648926467" lon="13.37445985685225"><ele>149.0</ele><time>2026-05-03T10:05:54Z</time></trkpt><trkpt lat="43.23453266514013" lon="13.374144237156933"><ele>150.0</ele><time>2026-05-03T10:05:55Z</time></trkpt><trkpt lat="43.23450023516946" lon="13.373835405316166"><ele>151.0</ele><time>2026-05-03T10:05:56Z</time></trkpt><trkpt lat="43.234463028744436" lon="13.373519109107162"><ele>151.0</ele><time>2026-05-03T10:05:57Z</time></trkpt><trkpt lat="43.234427858517336" lon="13.37320696144515"><ele>151.0</ele><time>2026-05-03T10:05:58Z</time></trkpt><trkpt lat="43.23438723421848" lon="13.3728855703605"><ele>151.5</ele><time>2026-05-03T10:05:59Z</time></trkpt><trkpt lat="43.23435516102012" lon="13.37256957338176"><ele>152.0</ele><time>2026-05-03T10:06:00Z</time></trkpt><trkpt lat="43.23432047957099" lon="13.3722569113667"><ele>152.5</ele><time>2026-05-03T10:06:01Z</time></trkpt><trkpt lat="43.23428300224897" lon="13.371942202159842"><ele>153.0</ele><time>2026-05-03T10:06:02Z</time></trkpt><trkpt lat="43.234253054032976" lon="13.371629866095756"><ele>154.0</ele><time>2026-05-03T10:06:03Z</time></trkpt><trkpt lat="43.234216466348094" lon="13.371311518800772"><ele>155.0</ele><time>2026-05-03T10:06:04Z</time></trkpt><trkpt lat="43.23418590259712" lon="13.370997832197217"><ele>155.0</ele><time>2026-05-03T10:06:05Z</time></trkpt><trkpt lat="43.23415449853195" lon="13.370686042964971"><ele>155.0</ele><time>2026-05-03T10:06:06Z</time></trkpt><trkpt lat="43.23412261832012" lon="13.370365006686121"><ele>156.0</ele><time>2026-05-03T10:06:07Z</time></trkpt><trkpt lat="43.23409538194328" lon="13.37005103497777"><ele>157.0</ele><time>2026-05-03T10:06:08Z</time></trkpt><trkpt lat="43.234060322883536" lon="13.36973039928786"><ele>157.0</ele><time>2026-05-03T10:06:09Z</time></trkpt><trkpt lat="43.234028643618274" lon="13.369415671225099"><ele>157.0</ele><time>2026-05-03T10:06:10Z</time></trkpt><trkpt lat="43.23399780342741" lon="13.36910339467817"><ele>156.0</ele><time>2026-05-03T10:06:11Z</time></trkpt><trkpt lat="43.23397087266165" lon="13.368787899515134"><ele>155.0</ele><time>2026-05-03T10:06:12Z</time></trkpt><trkpt lat="43.233940661519206" lon="13.368468690852687"><ele>155.0</ele><time>2026-05-03T10:06:13Z</time></trkpt><trkpt lat="43.233914969442" lon="13.368158656515597"><ele>155.0</ele><time>2026-05-03T10:06:14Z</time></trkpt><trkpt lat="43.23388400187435" lon="13.367845445098471"><ele>155.0</ele><time>2026-05-03T10:06:15Z</time></trkpt><trkpt lat="43.23385308148179" lon="13.367527937427166"><ele>155.0</ele><time>2026-05-03T10:06:16Z</time></trkpt><trkpt lat="43.23382248189007" lon="13.367207219016914"><ele>155.0</ele><time>2026-05-03T10:06:17Z</time></trkpt><trkpt lat="43.233793450604985" lon="13.366892429150422"><ele>155.0</ele><time>2026-05-03T10:06:18Z</time></trkpt><trkpt lat="43.23376356066692" lon="13.366575033655822"><ele>155.5</ele><time>2026-05-03T10:06:19Z</time></trkpt><trkpt lat="43.233733685341214" lon="13.3662557842716"><ele>156.0</ele><time>2026-05-03T10:06:20Z</time></trkpt><trkpt lat="43.233703346829174" lon="13.365944326361001"><ele>156.0</ele><time>2026-05-03T10:06:21Z</time></trkpt><trkpt lat="43.233669726392286" lon="13.365627462833517"><ele>156.0</ele><time>2026-05-03T10:06:22Z</time></trkpt><trkpt lat="43.233636996390885" lon="13.365314779255709"><ele>156.5</ele><time>2026-05-03T10:06:23Z</time></trkpt><trkpt lat="43.233608113623525" lon="13.365000117607869"><ele>157.0</ele><time>2026-05-03T10:06:24Z</time></trkpt><trkpt lat="43.23357901052427" lon="13.364681486083358"><ele>157.5</ele><time>2026-05-03T10:06:25Z</time></trkpt><trkpt lat="43.23354983783857" lon="13.3643678292672"><ele>158.0</ele><time>2026-05-03T10:06:26Z</time></trkpt><trkpt lat="43.233519676819775" lon="13.364053067634604"><ele>159.0</ele><time>2026-05-03T10:06:27Z</time></trkpt><trkpt lat="43.2334897018315" lon="13.363735155489897"><ele>160.0</ele><time>2026-05-03T10:06:28Z</time></trkpt><trkpt lat="43.2334594969767" lon="13.363422605894236"><ele>160.0</ele><time>2026-05-03T10:06:29Z</time></trkpt><trkpt lat="43.233427203442886" lon="13.363108544422497"><ele>160.0</ele><time>2026-05-03T10:06:30Z</time></trkpt><trkpt lat="43.233397125225075" lon="13.362791178172333"><ele>161.5</ele><time>2026-05-03T10:06:31Z</time></trkpt><trkpt lat="43.233364665689585" lon="13.362474314835849"><ele>163.0</ele><time>2026-05-03T10:06:32Z</time></trkpt><trkpt lat="43.23333371694925" lon="13.362158838748647"><ele>164.0</ele><time>2026-05-03T10:06:33Z</time></trkpt><trkpt lat="43.23330407861544" lon="13.361848890381388"><ele>165.0</ele><time>2026-05-03T10:06:34Z</time></trkpt><trkpt lat="43.23327279197197" lon="13.361523033166325"><ele>164.0</ele><time>2026-05-03T10:06:35Z</time></trkpt><trkpt lat="43.23324544918021" lon="13.361214066249172"><ele>163.0</ele><time>2026-05-03T10:06:36Z</time></trkpt><trkpt lat="43.23321514744234" lon="13.360897615074949"><ele>163.0</ele><time>2026-05-03T10:06:37Z</time></trkpt><trkpt lat="43.23318711955284" lon="13.360592381815426"><ele>163.0</ele><time>2026-05-03T10:06:38Z</time></trkpt><trkpt lat="43.23315699865558" lon="13.36027137334756"><ele>160.5</ele><time>2026-05-03T10:06:39Z</time></trkpt><trkpt lat="43.233124801487335" lon="13.3599589537078"><ele>158.0</ele><time>2026-05-03T10:06:40Z</time></trkpt><trkpt lat="43.23309364704004" lon="13.359644201737742"><ele>158.0</ele><time>2026-05-03T10:06:41Z</time></trkpt><trkpt lat="43.2330662522373" lon="13.359327606147069"><ele>158.0</ele><time>2026-05-03T10:06:42Z</time></trkpt><trkpt lat="43.23303454179677" lon="13.359011496575029"><ele>159.0</ele><time>2026-05-03T10:06:43Z</time></trkpt><trkpt lat="43.23300456494236" lon="13.358693183970066"><ele>160.0</ele><time>2026-05-03T10:06:44Z</time></trkpt><trkpt lat="43.232975880538014" lon="13.358375997707851"><ele>160.0</ele><time>2026-05-03T10:06:45Z</time></trkpt><trkpt lat="43.232943113457104" lon="13.358056421776512"><ele>160.0</ele><time>2026-05-03T10:06:46Z</time></trkpt><trkpt lat="43.23291173933652" lon="13.35774567541019"><ele>162.0</ele><time>2026-05-03T10:06:47Z</time></trkpt><trkpt lat="43.23288193023107" lon="13.35743144630218"><ele>164.0</ele><time>2026-05-03T10:06:48Z</time></trkpt><trkpt lat="43.23285321773169" lon="13.357115621067232"><ele>166.5</ele><time>2026-05-03T10:06:49Z</time></trkpt><trkpt lat="43.232820179553755" lon="13.356803415273795"><ele>169.0</ele><time>2026-05-03T10:06:50Z</time></trkpt><trkpt lat="43.232786801231896" lon="13.35648748996447"><ele>171.0</ele><time>2026-05-03T10:06:51Z</time></trkpt><trkpt lat="43.23275235609648" lon="13.356168495525965"><ele>173.0</ele><time>2026-05-03T10:06:52Z</time></trkpt><trkpt lat="43.23271939560283" lon="13.355859594096843"><ele>173.0</ele><time>2026-05-03T10:06:53Z</time></trkpt><trkpt lat="43.23267284068048" lon="13.35554976210859"><ele>173.0</ele><time>2026-05-03T10:06:54Z</time></trkpt><trkpt lat="43.232624645139055" lon="13.355232805067901"><ele>173.5</ele><time>2026-05-03T10:06:55Z</time></trkpt><trkpt lat="43.232568587088544" lon="13.354922397733926"><ele>174.0</ele><time>2026-05-03T10:06:56Z</time></trkpt><trkpt lat="43.23250597744915" lon="13.354620097795227"><ele>175.5</ele><time>2026-05-03T10:06:57Z</time></trkpt><trkpt lat="43.23243828829166" lon="13.35431504116974"><ele>177.0</ele><time>2026-05-03T10:06:58Z</time></trkpt><trkpt lat="43.23235528083981" lon="13.35401376343698"><ele>177.5</ele><time>2026-05-03T10:06:59Z</time></trkpt><trkpt lat="43.232268282868866" lon="13.353718027384042"><ele>178.0</ele><time>2026-05-03T10:07:00Z</time></trkpt><trkpt lat="43.232178044233756" lon="13.353424872628224"><ele>178.0</ele><time>2026-05-03T10:07:01Z</time></trkpt><trkpt lat="43.23208430616644" lon="13.353141389072142"><ele>178.0</ele><time>2026-05-03T10:07:02Z</time></trkpt><trkpt lat="43.23198773622806" lon="13.352848477473277"><ele>177.0</ele><time>2026-05-03T10:07:03Z</time></trkpt><trkpt lat="43.2318822705594" lon="13.352566517089153"><ele>176.0</ele><time>2026-05-03T10:07:04Z</time></trkpt><trkpt lat="43.23177208759429" lon="13.352284768632588"><ele>176.5</ele><time>2026-05-03T10:07:05Z</time></trkpt><trkpt lat="43.231660175253694" lon="13.352003699863765"><ele>177.0</ele><time>2026-05-03T10:07:06Z</time></trkpt><trkpt lat="43.23154804178071" lon="13.3517192668284"><ele>177.5</ele><time>2026-05-03T10:07:07Z</time></trkpt><trkpt lat="43.231442348648436" lon="13.351434695310406"><ele>178.0</ele><time>2026-05-03T10:07:08Z</time></trkpt><trkpt lat="43.23133618223333" lon="13.351150970702484"><ele>179.5</ele><time>2026-05-03T10:07:09Z</time></trkpt><trkpt lat="43.23122871805636" lon="13.350870757547513"><ele>181.0</ele><time>2026-05-03T10:07:10Z</time></trkpt><trkpt lat="43.23112211879135" lon="13.350590009504476"><ele>181.0</ele><time>2026-05-03T10:07:11Z</time></trkpt><trkpt lat="43.23101698031072" lon="13.350307931693601"><ele>181.0</ele><time>2026-05-03T10:07:12Z</time></trkpt><trkpt lat="43.230906780604776" lon="13.350025720357332"><ele>181.0</ele><time>2026-05-03T10:07:13Z</time></trkpt><trkpt lat="43.23079951756639" lon="13.349745840143925"><ele>181.0</ele><time>2026-05-03T10:07:14Z</time></trkpt><trkpt lat="43.23069005107225" lon="13.349464493383945"><ele>180.0</ele><time>2026-05-03T10:07:15Z</time></trkpt><trkpt lat="43.230581550296584" lon="13.349185836879231"><ele>179.0</ele><time>2026-05-03T10:07:16Z</time></trkpt><trkpt lat="43.2304748751595" lon="13.348899278492457"><ele>179.0</ele><time>2026-05-03T10:07:17Z</time></trkpt><trkpt lat="43.230365726759864" lon="13.348614526637604"><ele>179.0</ele><time>2026-05-03T10:07:18Z</time></trkpt><trkpt lat="43.23025532999148" lon="13.34833073138879"><ele>179.0</ele><time>2026-05-03T10:07:19Z</time></trkpt><trkpt lat="43.230145157134544" lon="13.348047625582353"><ele>179.0</ele><time>2026-05-03T10:07:20Z</time></trkpt><trkpt lat="43.230035138465574" lon="13.347772222238635"><ele>180.0</ele><time>2026-05-03T10:07:21Z</time></trkpt><trkpt lat="43.229918433309514" lon="13.347501226799794"><ele>181.0</ele><time>2026-05-03T10:07:22Z</time></trkpt><trkpt lat="43.229794256432136" lon="13.347227516128305"><ele>179.0</ele><time>2026-05-03T10:07:23Z</time></trkpt><trkpt lat="43.22966894564651" lon="13.346952877279573"><ele>177.0</ele><time>2026-05-03T10:07:24Z</time></trkpt><trkpt lat="43.22955017647069" lon="13.34668735119752"><ele>177.0</ele><time>2026-05-03T10:07:25Z</time></trkpt><trkpt lat="43.22942017891038" lon="13.346417897728644"><ele>177.0</ele><time>2026-05-03T10:07:26Z</time></trkpt><trkpt lat="43.22929617348818" lon="13.346151566080342"><ele>176.0</ele><time>2026-05-03T10:07:27Z</time></trkpt><trkpt lat="43.22916421369085" lon="13.345883832697947"><ele>175.0</ele><time>2026-05-03T10:07:28Z</time></trkpt><trkpt lat="43.229028538802616" lon="13.345620350164923"><ele>175.0</ele><time>2026-05-03T10:07:29Z</time></trkpt><trkpt lat="43.22888887093884" lon="13.345370472283452"><ele>175.0</ele><time>2026-05-03T10:07:30Z</time></trkpt><trkpt lat="43.22873881607529" lon="13.34512869052309"><ele>175.0</ele><time>2026-05-03T10:07:31Z</time></trkpt><trkpt lat="43.22858694271673" lon="13.344883735990276"><ele>175.0</ele><time>2026-05-03T10:07:32Z</time></trkpt><trkpt lat="43.22843621413575" lon="13.344647722181897"><ele>174.5</ele><time>2026-05-03T10:07:33Z</time></trkpt><trkpt lat="43.22827533823554" lon="13.344415931448303"><ele>174.0</ele><time>2026-05-03T10:07:34Z</time></trkpt><trkpt lat="43.228103090682815" lon="13.344198224488483"><ele>174.0</ele><time>2026-05-03T10:07:35Z</time></trkpt><trkpt lat="43.22793018590087" lon="13.34398722526921"><ele>174.0</ele><time>2026-05-03T10:07:36Z</time></trkpt><trkpt lat="43.22775095326594" lon="13.343779651494977"><ele>174.0</ele><time>2026-05-03T10:07:37Z</time></trkpt><trkpt lat="43.22757640366362" lon="13.343583383351223"><ele>174.0</ele><time>2026-05-03T10:07:38Z</time></trkpt><trkpt lat="43.22738149180041" lon="13.343392716109514"><ele>172.5</ele><time>2026-05-03T10:07:39Z</time></trkpt><trkpt lat="43.227187891819725" lon="13.343215515904639"><ele>171.0</ele><time>2026-05-03T10:07:40Z</time></trkpt><trkpt lat="43.22699330293248" lon="13.343047675921802"><ele>171.5</ele><time>2026-05-03T10:07:41Z</time></trkpt><trkpt lat="43.22679799390216" lon="13.342878413420255"><ele>172.0</ele><time>2026-05-03T10:07:42Z</time></trkpt><trkpt lat="43.226596895481684" lon="13.342713484462498"><ele>171.5</ele><time>2026-05-03T10:07:43Z</time></trkpt><trkpt lat="43.2263952342759" lon="13.34254976610349"><ele>171.0</ele><time>2026-05-03T10:07:44Z</time></trkpt><trkpt lat="43.22619834333274" lon="13.342380066995647"><ele>171.0</ele><time>2026-05-03T10:07:45Z</time></trkpt><trkpt lat="43.22599903710811" lon="13.342217082577669"><ele>171.0</ele><time>2026-05-03T10:07:46Z</time></trkpt><trkpt lat="43.22580257581577" lon="13.342047946825407"><ele>170.0</ele><time>2026-05-03T10:07:47Z</time></trkpt><trkpt lat="43.225601566022924" lon="13.341882438057125"><ele>169.0</ele><time>2026-05-03T10:07:48Z</time></trkpt><trkpt lat="43.225404094546974" lon="13.341716578456332"><ele>169.0</ele><time>2026-05-03T10:07:49Z</time></trkpt><trkpt lat="43.225204960649975" lon="13.341549495027595"><ele>169.0</ele><time>2026-05-03T10:07:50Z</time></trkpt><trkpt lat="43.22500700864144" lon="13.341381093215903"><ele>169.5</ele><time>2026-05-03T10:07:51Z</time></trkpt><trkpt lat="43.22480657163892" lon="13.341216621609163"><ele>170.0</ele><time>2026-05-03T10:07:52Z</time></trkpt><trkpt lat="43.22460513744471" lon="13.341057025014806"><ele>170.0</ele><time>2026-05-03T10:07:53Z</time></trkpt><trkpt lat="43.224402600985144" lon="13.340898514108735"><ele>170.0</ele><time>2026-05-03T10:07:54Z</time></trkpt><trkpt lat="43.22420370538348" lon="13.340740168685326"><ele>170.0</ele><time>2026-05-03T10:07:55Z</time></trkpt><trkpt lat="43.22400723884912" lon="13.34057789824302"><ele>170.0</ele><time>2026-05-03T10:07:56Z</time></trkpt><trkpt lat="43.22380670853895" lon="13.340413077009408"><ele>170.0</ele><time>2026-05-03T10:07:57Z</time></trkpt><trkpt lat="43.223606855983" lon="13.340246352035837"><ele>170.0</ele><time>2026-05-03T10:07:58Z</time></trkpt><trkpt lat="43.22340667463594" lon="13.34008016395632"><ele>170.0</ele><time>2026-05-03T10:07:59Z</time></trkpt><trkpt lat="43.22320845859286" lon="13.339911456087009"><ele>170.0</ele><time>2026-05-03T10:08:00Z</time></trkpt><trkpt lat="43.22301068373207" lon="13.339741716155341"><ele>171.0</ele><time>2026-05-03T10:08:01Z</time></trkpt><trkpt lat="43.22281447230179" lon="13.339574365410375"><ele>172.0</ele><time>2026-05-03T10:08:02Z</time></trkpt><trkpt lat="43.22261474425214" lon="13.33940938729807"><ele>172.0</ele><time>2026-05-03T10:08:03Z</time></trkpt><trkpt lat="43.22241630469778" lon="13.339244629432526"><ele>172.0</ele><time>2026-05-03T10:08:04Z</time></trkpt><trkpt lat="43.22221684136649" lon="13.339076519913132"><ele>172.0</ele><time>2026-05-03T10:08:05Z</time></trkpt><trkpt lat="43.22202023070875" lon="13.338909082020791"><ele>172.0</ele><time>2026-05-03T10:08:06Z</time></trkpt><trkpt lat="43.2218226104119" lon="13.338741653189835"><ele>173.0</ele><time>2026-05-03T10:08:07Z</time></trkpt><trkpt lat="43.221622180795116" lon="13.338575578988273"><ele>174.0</ele><time>2026-05-03T10:08:08Z</time></trkpt><trkpt lat="43.22142260638435" lon="13.338415763928456"><ele>174.0</ele><time>2026-05-03T10:08:09Z</time></trkpt><trkpt lat="43.221222994891946" lon="13.338254686046552"><ele>174.0</ele><time>2026-05-03T10:08:10Z</time></trkpt><trkpt lat="43.22102580965301" lon="13.338084038847002"><ele>173.5</ele><time>2026-05-03T10:08:11Z</time></trkpt><trkpt lat="43.22082970797267" lon="13.337916237753742"><ele>173.0</ele><time>2026-05-03T10:08:12Z</time></trkpt><trkpt lat="43.220627006989545" lon="13.3377487968837"><ele>173.0</ele><time>2026-05-03T10:08:13Z</time></trkpt><trkpt lat="43.22042863017048" lon="13.33758489530963"><ele>173.0</ele><time>2026-05-03T10:08:14Z</time></trkpt><trkpt lat="43.22023274743341" lon="13.337421156296625"><ele>173.0</ele><time>2026-05-03T10:08:15Z</time></trkpt><trkpt lat="43.22003294656859" lon="13.337255618617753"><ele>173.0</ele><time>2026-05-03T10:08:16Z</time></trkpt><trkpt lat="43.21983299363634" lon="13.337090410426836"><ele>172.5</ele><time>2026-05-03T10:08:17Z</time></trkpt><trkpt lat="43.21963523441883" lon="13.336926342780252"><ele>172.0</ele><time>2026-05-03T10:08:18Z</time></trkpt><trkpt lat="43.21943551719728" lon="13.336760174057668"><ele>172.0</ele><time>2026-05-03T10:08:19Z</time></trkpt><trkpt lat="43.21923772446806" lon="13.33659392929272"><ele>172.0</ele><time>2026-05-03T10:08:20Z</time></trkpt><trkpt lat="43.21903714696942" lon="13.336429342901184"><ele>172.5</ele><time>2026-05-03T10:08:21Z</time></trkpt><trkpt lat="43.218835425446386" lon="13.336264174695847"><ele>173.0</ele><time>2026-05-03T10:08:22Z</time></trkpt><trkpt lat="43.21863803154252" lon="13.336100247348144"><ele>173.0</ele><time>2026-05-03T10:08:23Z</time></trkpt><trkpt lat="43.21844009270939" lon="13.33593500156475"><ele>173.0</ele><time>2026-05-03T10:08:24Z</time></trkpt><trkpt lat="43.21824019019718" lon="13.335768022184114"><ele>172.5</ele><time>2026-05-03T10:08:25Z</time></trkpt><trkpt lat="43.21804250009953" lon="13.335601675581888"><ele>172.0</ele><time>2026-05-03T10:08:26Z</time></trkpt><trkpt lat="43.21784548849141" lon="13.335436936660013"><ele>172.0</ele><time>2026-05-03T10:08:27Z</time></trkpt><trkpt lat="43.21765294550959" lon="13.335263374206924"><ele>172.0</ele><time>2026-05-03T10:08:28Z</time></trkpt><trkpt lat="43.217461455985855" lon="13.335082087079288"><ele>172.0</ele><time>2026-05-03T10:08:29Z</time></trkpt><trkpt lat="43.21727712276895" lon="13.334890569055307"><ele>172.0</ele><time>2026-05-03T10:08:30Z</time></trkpt><trkpt lat="43.21709833315779" lon="13.33468460649249"><ele>173.5</ele><time>2026-05-03T10:08:31Z</time></trkpt><trkpt lat="43.21692855779989" lon="13.334463710035521"><ele>175.0</ele><time>2026-05-03T10:08:32Z</time></trkpt><trkpt lat="43.21676996434086" lon="13.33423145366105"><ele>175.0</ele><time>2026-05-03T10:08:33Z</time></trkpt><trkpt lat="43.21661642822812" lon="13.333985361097467"><ele>175.0</ele><time>2026-05-03T10:08:34Z</time></trkpt><trkpt lat="43.216474250685486" lon="13.333734120327238"><ele>176.5</ele><time>2026-05-03T10:08:35Z</time></trkpt><trkpt lat="43.21634213598751" lon="13.333477969497109"><ele>178.0</ele><time>2026-05-03T10:08:36Z</time></trkpt><trkpt lat="43.21622067336923" lon="13.333207366537696"><ele>178.0</ele><time>2026-05-03T10:08:37Z</time></trkpt><trkpt lat="43.216109407642605" lon="13.332924621702418"><ele>178.0</ele><time>2026-05-03T10:08:38Z</time></trkpt><trkpt lat="43.21600877125501" lon="13.332635440427497"><ele>178.0</ele><time>2026-05-03T10:08:39Z</time></trkpt><trkpt lat="43.21591332607841" lon="13.332347105706628"><ele>178.0</ele><time>2026-05-03T10:08:40Z</time></trkpt><trkpt lat="43.2158324749525" lon="13.332048383442453"><ele>177.0</ele><time>2026-05-03T10:08:41Z</time></trkpt><trkpt lat="43.21576442163238" lon="13.331742704688105"><ele>176.0</ele><time>2026-05-03T10:08:42Z</time></trkpt><trkpt lat="43.21570872877959" lon="13.331434653102164"><ele>176.0</ele><time>2026-05-03T10:08:43Z</time></trkpt><trkpt lat="43.21566471914841" lon="13.331121135662736"><ele>176.0</ele><time>2026-05-03T10:08:44Z</time></trkpt><trkpt lat="43.21563259757347" lon="13.330806285163959"><ele>180.5</ele><time>2026-05-03T10:08:45Z</time></trkpt><trkpt lat="43.21561283724248" lon="13.330485378294345"><ele>185.0</ele><time>2026-05-03T10:08:46Z</time></trkpt><trkpt lat="43.21560320375984" lon="13.330166195141503"><ele>185.0</ele><time>2026-05-03T10:08:47Z</time></trkpt><trkpt lat="43.215602164591225" lon="13.329846585151937"><ele>185.0</ele><time>2026-05-03T10:08:48Z</time></trkpt><trkpt lat="43.215601450250176" lon="13.329528939704273"><ele>187.0</ele><time>2026-05-03T10:08:49Z</time></trkpt><trkpt lat="43.21560244204419" lon="13.32920809636966"><ele>189.0</ele><time>2026-05-03T10:08:50Z</time></trkpt><trkpt lat="43.21560358324727" lon="13.328888715454044"><ele>189.5</ele><time>2026-05-03T10:08:51Z</time></trkpt><trkpt lat="43.215602082016034" lon="13.328571197817045"><ele>190.0</ele><time>2026-05-03T10:08:52Z</time></trkpt><trkpt lat="43.21560013324779" lon="13.328252111361598"><ele>189.5</ele><time>2026-05-03T10:08:53Z</time></trkpt><trkpt lat="43.21559836833569" lon="13.327930965865482"><ele>189.0</ele><time>2026-05-03T10:08:54Z</time></trkpt><trkpt lat="43.215600398064325" lon="13.327615052564267"><ele>189.0</ele><time>2026-05-03T10:08:55Z</time></trkpt><trkpt lat="43.215601167289414" lon="13.32729811472116"><ele>189.0</ele><time>2026-05-03T10:08:56Z</time></trkpt><trkpt lat="43.21560102289185" lon="13.326979978072545"><ele>190.5</ele><time>2026-05-03T10:08:57Z</time></trkpt><trkpt lat="43.2155962960417" lon="13.326661351543164"><ele>192.0</ele><time>2026-05-03T10:08:58Z</time></trkpt><trkpt lat="43.215590132011734" lon="13.326344915382304"><ele>193.0</ele><time>2026-05-03T10:08:59Z</time></trkpt><trkpt lat="43.21558367966493" lon="13.326025274508835"><ele>194.0</ele><time>2026-05-03T10:09:00Z</time></trkpt><trkpt lat="43.21557286103919" lon="13.32570502791121"><ele>193.0</ele><time>2026-05-03T10:09:01Z</time></trkpt><trkpt lat="43.215551525740054" lon="13.325387275788467"><ele>192.0</ele><time>2026-05-03T10:09:02.001Z</time></trkpt><trkpt lat="43.21551536108802" lon="13.325070024580834"><ele>192.0</ele><time>2026-05-03T10:09:03.001Z</time></trkpt><trkpt lat="43.21546788493031" lon="13.324762192553901"><ele>192.0</ele><time>2026-05-03T10:09:04.001Z</time></trkpt><trkpt lat="43.21541081724787" lon="13.324453065544423"><ele>189.5</ele><time>2026-05-03T10:09:05.001Z</time></trkpt><trkpt lat="43.21535044193175" lon="13.324144486605881"><ele>187.0</ele><time>2026-05-03T10:09:06.001Z</time></trkpt><trkpt lat="43.21528929118376" lon="13.323839243148006"><ele>185.0</ele><time>2026-05-03T10:09:07.001Z</time></trkpt><trkpt lat="43.21522984938499" lon="13.323532820501315"><ele>183.0</ele><time>2026-05-03T10:09:08.001Z</time></trkpt><trkpt lat="43.21517096781554" lon="13.323223284676493"><ele>182.5</ele><time>2026-05-03T10:09:09.001Z</time></trkpt><trkpt lat="43.215113357953044" lon="13.322914682374003"><ele>182.0</ele><time>2026-05-03T10:09:10.001Z</time></trkpt><trkpt lat="43.21505258130759" lon="13.322602071862873"><ele>182.0</ele><time>2026-05-03T10:09:11.001Z</time></trkpt><trkpt lat="43.214991534862975" lon="13.322297267533212"><ele>182.0</ele><time>2026-05-03T10:09:12.001Z</time></trkpt><trkpt lat="43.21493216601968" lon="13.321992112838503"><ele>181.5</ele><time>2026-05-03T10:09:13.001Z</time></trkpt><trkpt lat="43.21487247837522" lon="13.321688092959402"><ele>181.0</ele><time>2026-05-03T10:09:14Z</time></trkpt><trkpt lat="43.21481267198675" lon="13.321378994970939"><ele>183.5</ele><time>2026-05-03T10:09:15Z</time></trkpt><trkpt lat="43.21475095180557" lon="13.321071422378768"><ele>186.0</ele><time>2026-05-03T10:09:16Z</time></trkpt><trkpt lat="43.214690461080124" lon="13.320763173445568"><ele>186.5</ele><time>2026-05-03T10:09:17Z</time></trkpt><trkpt lat="43.214628733962606" lon="13.320452466349053"><ele>187.0</ele><time>2026-05-03T10:09:18Z</time></trkpt><trkpt lat="43.21456608319684" lon="13.320147921150989"><ele>187.0</ele><time>2026-05-03T10:09:19Z</time></trkpt><trkpt lat="43.21450541164266" lon="13.319840682163704"><ele>187.0</ele><time>2026-05-03T10:09:20Z</time></trkpt><trkpt lat="43.214445782584065" lon="13.319532152234098"><ele>186.0</ele><time>2026-05-03T10:09:21Z</time></trkpt><trkpt lat="43.21438722687917" lon="13.319224832144329"><ele>185.0</ele><time>2026-05-03T10:09:22Z</time></trkpt><trkpt lat="43.21432891702137" lon="13.318916480254712"><ele>185.0</ele><time>2026-05-03T10:09:23Z</time></trkpt><trkpt lat="43.21426908604129" lon="13.31860990551725"><ele>185.0</ele><time>2026-05-03T10:09:24Z</time></trkpt><trkpt lat="43.21421020179972" lon="13.318298013225382"><ele>184.0</ele><time>2026-05-03T10:09:25Z</time></trkpt><trkpt lat="43.21414969875273" lon="13.317995590689106"><ele>183.0</ele><time>2026-05-03T10:09:26Z</time></trkpt><trkpt lat="43.2140919214085" lon="13.317687558124748"><ele>183.0</ele><time>2026-05-03T10:09:27Z</time></trkpt><trkpt lat="43.214036093992895" lon="13.317378030532655"><ele>183.0</ele><time>2026-05-03T10:09:28Z</time></trkpt><trkpt lat="43.21397288527253" lon="13.317073094216402"><ele>184.0</ele><time>2026-05-03T10:09:29Z</time></trkpt><trkpt lat="43.213908746823066" lon="13.31676828649366"><ele>185.0</ele><time>2026-05-03T10:09:30Z</time></trkpt><trkpt lat="43.213849863707374" lon="13.316455761858178"><ele>184.5</ele><time>2026-05-03T10:09:31Z</time></trkpt><trkpt lat="43.21378972976967" lon="13.316149131394573"><ele>184.0</ele><time>2026-05-03T10:09:32Z</time></trkpt><trkpt lat="43.21372880985635" lon="13.315840939548316"><ele>183.5</ele><time>2026-05-03T10:09:33Z</time></trkpt><trkpt lat="43.213668392099805" lon="13.315534323020483"><ele>183.0</ele><time>2026-05-03T10:09:34Z</time></trkpt><trkpt lat="43.213607261734275" lon="13.3152288537508"><ele>183.0</ele><time>2026-05-03T10:09:35Z</time></trkpt><trkpt lat="43.21354448976164" lon="13.314922438040387"><ele>183.0</ele><time>2026-05-03T10:09:36Z</time></trkpt><trkpt lat="43.21348207048787" lon="13.314612382066041"><ele>184.0</ele><time>2026-05-03T10:09:37Z</time></trkpt><trkpt lat="43.21341255528313" lon="13.314311309662871"><ele>185.0</ele><time>2026-05-03T10:09:38Z</time></trkpt><trkpt lat="43.21333822086207" lon="13.31401414346797"><ele>186.0</ele><time>2026-05-03T10:09:39Z</time></trkpt><trkpt lat="43.21325564486026" lon="13.313718682971682"><ele>187.0</ele><time>2026-05-03T10:09:40Z</time></trkpt><trkpt lat="43.2131679850022" lon="13.313422815466968"><ele>186.0</ele><time>2026-05-03T10:09:41Z</time></trkpt><trkpt lat="43.21307814266229" lon="13.313123908244677"><ele>185.0</ele><time>2026-05-03T10:09:42Z</time></trkpt><trkpt lat="43.212983605995866" lon="13.312832179975665"><ele>185.0</ele><time>2026-05-03T10:09:43Z</time></trkpt><trkpt lat="43.21288479164054" lon="13.312547495689103"><ele>185.0</ele><time>2026-05-03T10:09:44Z</time></trkpt><trkpt lat="43.21277806375106" lon="13.312265527592333"><ele>185.5</ele><time>2026-05-03T10:09:45Z</time></trkpt><trkpt lat="43.21266684461666" lon="13.311990205359885"><ele>186.0</ele><time>2026-05-03T10:09:46Z</time></trkpt><trkpt lat="43.21254801630383" lon="13.311717351594766"><ele>186.0</ele><time>2026-05-03T10:09:47Z</time></trkpt><trkpt lat="43.21242528873299" lon="13.311445710218166"><ele>186.0</ele><time>2026-05-03T10:09:48Z</time></trkpt><trkpt lat="43.212295901239884" lon="13.311180784994374"><ele>186.5</ele><time>2026-05-03T10:09:49Z</time></trkpt><trkpt lat="43.21216415431563" lon="13.31091871440033"><ele>187.0</ele><time>2026-05-03T10:09:50Z</time></trkpt><trkpt lat="43.21203333180986" lon="13.310657876183482"><ele>188.0</ele><time>2026-05-03T10:09:51Z</time></trkpt><trkpt lat="43.2119038772262" lon="13.310401854611706"><ele>189.0</ele><time>2026-05-03T10:09:52Z</time></trkpt><trkpt lat="43.21176831734725" lon="13.310135025218997"><ele>189.0</ele><time>2026-05-03T10:09:53Z</time></trkpt><trkpt lat="43.211636624119855" lon="13.309874849293202"><ele>189.0</ele><time>2026-05-03T10:09:54Z</time></trkpt><trkpt lat="43.211501935906966" lon="13.309616776924901"><ele>189.0</ele><time>2026-05-03T10:09:55Z</time></trkpt><trkpt lat="43.21136598292274" lon="13.309353855047421"><ele>189.0</ele><time>2026-05-03T10:09:56Z</time></trkpt><trkpt lat="43.21122761672803" lon="13.309094156238954"><ele>188.5</ele><time>2026-05-03T10:09:57Z</time></trkpt><trkpt lat="43.21108973342246" lon="13.308834934123247"><ele>188.0</ele><time>2026-05-03T10:09:58Z</time></trkpt><trkpt lat="43.210948955231935" lon="13.308576801980418"><ele>188.0</ele><time>2026-05-03T10:09:59Z</time></trkpt><trkpt lat="43.21081061435641" lon="13.308317645075688"><ele>188.0</ele><time>2026-05-03T10:10:00Z</time></trkpt><trkpt lat="43.21067229002209" lon="13.308060703652949"><ele>189.0</ele><time>2026-05-03T10:10:01Z</time></trkpt><trkpt lat="43.210538071460505" lon="13.307802466258137"><ele>190.0</ele><time>2026-05-03T10:10:02Z</time></trkpt><trkpt lat="43.21040096643913" lon="13.30754276560055"><ele>190.0</ele><time>2026-05-03T10:10:03Z</time></trkpt><trkpt lat="43.21026436078111" lon="13.307285306022434"><ele>190.0</ele><time>2026-05-03T10:10:04Z</time></trkpt><trkpt lat="43.21012919217675" lon="13.307026801604366"><ele>190.5</ele><time>2026-05-03T10:10:05Z</time></trkpt><trkpt lat="43.209991361773625" lon="13.30677246938596"><ele>191.0</ele><time>2026-05-03T10:10:06Z</time></trkpt><trkpt lat="43.20985342429908" lon="13.306514865013508"><ele>190.0</ele><time>2026-05-03T10:10:07Z</time></trkpt><trkpt lat="43.20971517984815" lon="13.306258129141415"><ele>189.0</ele><time>2026-05-03T10:10:08Z</time></trkpt><trkpt lat="43.20957950879544" lon="13.306000554279525"><ele>189.0</ele><time>2026-05-03T10:10:09Z</time></trkpt><trkpt lat="43.20944597564485" lon="13.305740095792364"><ele>189.0</ele><time>2026-05-03T10:10:10Z</time></trkpt><trkpt lat="43.20931384959988" lon="13.305477406531788"><ele>189.5</ele><time>2026-05-03T10:10:11Z</time></trkpt><trkpt lat="43.20917696204823" lon="13.305218434878165"><ele>190.0</ele><time>2026-05-03T10:10:12Z</time></trkpt><trkpt lat="43.20903909965677" lon="13.304961477229407"><ele>190.0</ele><time>2026-05-03T10:10:13Z</time></trkpt><trkpt lat="43.20889609763644" lon="13.304705609804799"><ele>190.0</ele><time>2026-05-03T10:10:14Z</time></trkpt><trkpt lat="43.20875742130938" lon="13.304452153126984"><ele>190.0</ele><time>2026-05-03T10:10:15Z</time></trkpt><trkpt lat="43.20861916207942" lon="13.304198167884277"><ele>190.0</ele><time>2026-05-03T10:10:16Z</time></trkpt><trkpt lat="43.20848102624151" lon="13.303939727828821"><ele>189.5</ele><time>2026-05-03T10:10:17Z</time></trkpt><trkpt lat="43.20833158242015" lon="13.303666864451813"><ele>189.0</ele><time>2026-05-03T10:10:18Z</time></trkpt><trkpt lat="43.20818592770159" lon="13.303388978682774"><ele>189.5</ele><time>2026-05-03T10:10:19Z</time></trkpt><trkpt lat="43.20804593749076" lon="13.303100609995548"><ele>190.0</ele><time>2026-05-03T10:10:20Z</time></trkpt><trkpt lat="43.2079093710572" lon="13.302808555091213"><ele>190.0</ele><time>2026-05-03T10:10:21Z</time></trkpt><trkpt lat="43.20776813578544" lon="13.302520493923563"><ele>190.0</ele><time>2026-05-03T10:10:22Z</time></trkpt><trkpt lat="43.20761861521626" lon="13.30224350529166"><ele>190.5</ele><time>2026-05-03T10:10:23Z</time></trkpt><trkpt lat="43.207470871391905" lon="13.301970459325668"><ele>191.0</ele><time>2026-05-03T10:10:24Z</time></trkpt><trkpt lat="43.20732535338158" lon="13.301697081231007"><ele>195.5</ele><time>2026-05-03T10:10:25Z</time></trkpt><trkpt lat="43.20718319281903" lon="13.30142624265094"><ele>200.0</ele><time>2026-05-03T10:10:26Z</time></trkpt><trkpt lat="43.20703929255511" lon="13.30115725754782"><ele>201.0</ele><time>2026-05-03T10:10:27Z</time></trkpt><trkpt lat="43.20689748052562" lon="13.300890367883508"><ele>202.0</ele><time>2026-05-03T10:10:28Z</time></trkpt><trkpt lat="43.206757800999156" lon="13.300626062290318"><ele>201.0</ele><time>2026-05-03T10:10:29Z</time></trkpt><trkpt lat="43.20662361721067" lon="13.300363417008798"><ele>200.0</ele><time>2026-05-03T10:10:30Z</time></trkpt><trkpt lat="43.20648632443149" lon="13.30009668536778"><ele>206.0</ele><time>2026-05-03T10:10:31Z</time></trkpt><trkpt lat="43.20634560861887" lon="13.299826008007454"><ele>212.0</ele><time>2026-05-03T10:10:32Z</time></trkpt><trkpt lat="43.20620386483148" lon="13.299554729780658"><ele>212.0</ele><time>2026-05-03T10:10:33Z</time></trkpt><trkpt lat="43.20605837580149" lon="13.299284947395684"><ele>212.0</ele><time>2026-05-03T10:10:34Z</time></trkpt><trkpt lat="43.205916135762564" lon="13.299016349859677"><ele>214.0</ele><time>2026-05-03T10:10:35Z</time></trkpt><trkpt lat="43.20577558168658" lon="13.298748648648866"><ele>216.0</ele><time>2026-05-03T10:10:36Z</time></trkpt><trkpt lat="43.205631695741474" lon="13.298480140292359"><ele>216.0</ele><time>2026-05-03T10:10:37Z</time></trkpt><trkpt lat="43.20548923783316" lon="13.298219988005728"><ele>216.0</ele><time>2026-05-03T10:10:38Z</time></trkpt><trkpt lat="43.20534976098526" lon="13.297952682675215"><ele>213.0</ele><time>2026-05-03T10:10:39Z</time></trkpt><trkpt lat="43.205206521642396" lon="13.297685326920694"><ele>210.0</ele><time>2026-05-03T10:10:40Z</time></trkpt><trkpt lat="43.205068738355656" lon="13.297415716677833"><ele>209.5</ele><time>2026-05-03T10:10:41Z</time></trkpt><trkpt lat="43.20493691065142" lon="13.297142363969792"><ele>209.0</ele><time>2026-05-03T10:10:42Z</time></trkpt><trkpt lat="43.20480936401731" lon="13.296859621152986"><ele>209.0</ele><time>2026-05-03T10:10:43Z</time></trkpt><trkpt lat="43.20469212601545" lon="13.296570438593255"><ele>209.0</ele><time>2026-05-03T10:10:44Z</time></trkpt><trkpt lat="43.20458728570506" lon="13.296273849266578"><ele>210.0</ele><time>2026-05-03T10:10:45Z</time></trkpt><trkpt lat="43.20449087253764" lon="13.295972391369864"><ele>211.0</ele><time>2026-05-03T10:10:46Z</time></trkpt><trkpt lat="43.20440750576578" lon="13.295659776128062"><ele>213.5</ele><time>2026-05-03T10:10:47Z</time></trkpt><trkpt lat="43.204336164842545" lon="13.295342722518344"><ele>216.0</ele><time>2026-05-03T10:10:48Z</time></trkpt><trkpt lat="43.20427943392856" lon="13.295017335526643"><ele>216.0</ele><time>2026-05-03T10:10:49Z</time></trkpt><trkpt lat="43.20423599834747" lon="13.294688380368681"><ele>216.0</ele><time>2026-05-03T10:10:50Z</time></trkpt><trkpt lat="43.20420574827779" lon="13.29435993438625"><ele>216.0</ele><time>2026-05-03T10:10:51Z</time></trkpt><trkpt lat="43.20419204648344" lon="13.294033076322032"><ele>216.0</ele><time>2026-05-03T10:10:52Z</time></trkpt><trkpt lat="43.20418694762658" lon="13.293700873185538"><ele>217.0</ele><time>2026-05-03T10:10:53Z</time></trkpt><trkpt lat="43.20418927955674" lon="13.293373638280016"><ele>218.0</ele><time>2026-05-03T10:10:54Z</time></trkpt><trkpt lat="43.204198047648504" lon="13.293038193303822"><ele>218.5</ele><time>2026-05-03T10:10:55Z</time></trkpt><trkpt lat="43.204206542014944" lon="13.292702974235544"><ele>219.0</ele><time>2026-05-03T10:10:56Z</time></trkpt><trkpt lat="43.20422100725833" lon="13.292372935401593"><ele>219.0</ele><time>2026-05-03T10:10:57Z</time></trkpt><trkpt lat="43.20422901562924" lon="13.292043447580618"><ele>219.0</ele><time>2026-05-03T10:10:58Z</time></trkpt><trkpt lat="43.20424247046349" lon="13.29170583587265"><ele>218.0</ele><time>2026-05-03T10:10:59Z</time></trkpt><trkpt lat="43.20424886890975" lon="13.291378771934115"><ele>217.0</ele><time>2026-05-03T10:11:00Z</time></trkpt><trkpt lat="43.20425818772984" lon="13.291048163673143"><ele>217.0</ele><time>2026-05-03T10:11:01Z</time></trkpt><trkpt lat="43.204270997590875" lon="13.290714787251414"><ele>217.0</ele><time>2026-05-03T10:11:02Z</time></trkpt><trkpt lat="43.204277602564545" lon="13.290385515414894"><ele>217.0</ele><time>2026-05-03T10:11:03Z</time></trkpt><trkpt lat="43.20429213976328" lon="13.29005679409097"><ele>217.0</ele><time>2026-05-03T10:11:04Z</time></trkpt><trkpt lat="43.204304329402134" lon="13.289726750316714"><ele>219.0</ele><time>2026-05-03T10:11:05Z</time></trkpt><trkpt lat="43.20431569987804" lon="13.289393547860298"><ele>221.0</ele><time>2026-05-03T10:11:06Z</time></trkpt><trkpt lat="43.20432669241008" lon="13.289059762087884"><ele>224.0</ele><time>2026-05-03T10:11:07Z</time></trkpt><trkpt lat="43.20433700968383" lon="13.288733263786765"><ele>227.0</ele><time>2026-05-03T10:11:08.001Z</time></trkpt><trkpt lat="43.204341920766375" lon="13.288399587479569"><ele>226.5</ele><time>2026-05-03T10:11:09.001Z</time></trkpt><trkpt lat="43.20434248117812" lon="13.288075124836025"><ele>226.0</ele><time>2026-05-03T10:11:10.001Z</time></trkpt><trkpt lat="43.20433612405473" lon="13.28774075178694"><ele>226.0</ele><time>2026-05-03T10:11:11.001Z</time></trkpt><trkpt lat="43.20432770232286" lon="13.287406806361767"><ele>226.0</ele><time>2026-05-03T10:11:12.001Z</time></trkpt><trkpt lat="43.20431617678383" lon="13.287077716242452"><ele>221.5</ele><time>2026-05-03T10:11:13.001Z</time></trkpt><trkpt lat="43.20430226612008" lon="13.286745903229631"><ele>217.0</ele><time>2026-05-03T10:11:14.001Z</time></trkpt><trkpt lat="43.204273550969326" lon="13.28641663654451"><ele>214.5</ele><time>2026-05-03T10:11:15.001Z</time></trkpt><trkpt lat="43.20423373147202" lon="13.286085855713928"><ele>212.0</ele><time>2026-05-03T10:11:16.001Z</time></trkpt><trkpt lat="43.204194431484254" lon="13.285760435918995"><ele>210.5</ele><time>2026-05-03T10:11:17.001Z</time></trkpt><trkpt lat="43.20415733441491" lon="13.285434966495961"><ele>209.0</ele><time>2026-05-03T10:11:18.001Z</time></trkpt><trkpt lat="43.204107365159444" lon="13.285111570504233"><ele>209.0</ele><time>2026-05-03T10:11:19.001Z</time></trkpt><trkpt lat="43.204061659097285" lon="13.284786516182924"><ele>209.0</ele><time>2026-05-03T10:11:20.001Z</time></trkpt><trkpt lat="43.20401581401508" lon="13.284461701476486"><ele>214.0</ele><time>2026-05-03T10:11:21.001Z</time></trkpt><trkpt lat="43.20396909749571" lon="13.284137490048431"><ele>219.0</ele><time>2026-05-03T10:11:22.001Z</time></trkpt><trkpt lat="43.20391319155559" lon="13.28380919967808"><ele>220.5</ele><time>2026-05-03T10:11:23.001Z</time></trkpt><trkpt lat="43.203865391585566" lon="13.283490586370304"><ele>222.0</ele><time>2026-05-03T10:11:24.001Z</time></trkpt><trkpt lat="43.20381294691482" lon="13.283171930613948"><ele>221.0</ele><time>2026-05-03T10:11:25Z</time></trkpt><trkpt lat="43.20376521124753" lon="13.282845034655661"><ele>220.0</ele><time>2026-05-03T10:11:26Z</time></trkpt><trkpt lat="43.20371777183517" lon="13.28251826372882"><ele>218.5</ele><time>2026-05-03T10:11:27Z</time></trkpt><trkpt lat="43.20366887439005" lon="13.28219181942181"><ele>217.0</ele><time>2026-05-03T10:11:28Z</time></trkpt><trkpt lat="43.20361966698438" lon="13.28186786487838"><ele>217.0</ele><time>2026-05-03T10:11:29Z</time></trkpt><trkpt lat="43.20356583644399" lon="13.281541102923757"><ele>217.0</ele><time>2026-05-03T10:11:30Z</time></trkpt><trkpt lat="43.20351552285411" lon="13.281221330282222"><ele>217.5</ele><time>2026-05-03T10:11:31Z</time></trkpt><trkpt lat="43.20346850401925" lon="13.280897892143514"><ele>218.0</ele><time>2026-05-03T10:11:32Z</time></trkpt><trkpt lat="43.20342289532641" lon="13.280578693123138"><ele>218.0</ele><time>2026-05-03T10:11:33Z</time></trkpt><trkpt lat="43.20337247576545" lon="13.280252609703204"><ele>218.0</ele><time>2026-05-03T10:11:34Z</time></trkpt><trkpt lat="43.203323039183324" lon="13.27992864080122"><ele>219.5</ele><time>2026-05-03T10:11:35Z</time></trkpt><trkpt lat="43.203269136306496" lon="13.27960307789894"><ele>221.0</ele><time>2026-05-03T10:11:36Z</time></trkpt><trkpt lat="43.20321016805377" lon="13.279279411719301"><ele>225.0</ele><time>2026-05-03T10:11:37Z</time></trkpt><trkpt lat="43.2031479511787" lon="13.278952218180665"><ele>229.0</ele><time>2026-05-03T10:11:38Z</time></trkpt><trkpt lat="43.20308441626616" lon="13.278633922773144"><ele>229.0</ele><time>2026-05-03T10:11:39Z</time></trkpt><trkpt lat="43.203012743767175" lon="13.278316422400907"><ele>229.0</ele><time>2026-05-03T10:11:40Z</time></trkpt><trkpt lat="43.20293482045976" lon="13.278007495925703"><ele>221.0</ele><time>2026-05-03T10:11:41Z</time></trkpt><trkpt lat="43.2028488794276" lon="13.277693530575501"><ele>213.0</ele><time>2026-05-03T10:11:42Z</time></trkpt><trkpt lat="43.20275845454339" lon="13.277385135867295"><ele>210.5</ele><time>2026-05-03T10:11:43Z</time></trkpt><trkpt lat="43.20266378078191" lon="13.277081858806735"><ele>208.0</ele><time>2026-05-03T10:11:44Z</time></trkpt><trkpt lat="43.20256836624627" lon="13.276783676718015"><ele>208.0</ele><time>2026-05-03T10:11:45Z</time></trkpt><trkpt lat="43.20246019109103" lon="13.27647749552398"><ele>208.0</ele><time>2026-05-03T10:11:46Z</time></trkpt><trkpt lat="43.20235204903974" lon="13.276186086889606"><ele>207.5</ele><time>2026-05-03T10:11:47Z</time></trkpt><trkpt lat="43.202237355925455" lon="13.275886951866514"><ele>207.0</ele><time>2026-05-03T10:11:48Z</time></trkpt><trkpt lat="43.20211900981561" lon="13.275600937622162"><ele>208.0</ele><time>2026-05-03T10:11:49Z</time></trkpt><trkpt lat="43.20199481581471" lon="13.27531633142614"><ele>209.0</ele><time>2026-05-03T10:11:50Z</time></trkpt><trkpt lat="43.201867887246735" lon="13.275034097285896"><ele>209.0</ele><time>2026-05-03T10:11:51Z</time></trkpt><trkpt lat="43.20173327729709" lon="13.274754038168236"><ele>209.0</ele><time>2026-05-03T10:11:52Z</time></trkpt><trkpt lat="43.201598056604304" lon="13.274485537093371"><ele>211.5</ele><time>2026-05-03T10:11:53Z</time></trkpt><trkpt lat="43.201457522117636" lon="13.274219391235668"><ele>214.0</ele><time>2026-05-03T10:11:54Z</time></trkpt><trkpt lat="43.20130872087607" lon="13.273948953883696"><ele>212.0</ele><time>2026-05-03T10:11:55Z</time></trkpt><trkpt lat="43.20116013956246" lon="13.27370268910207"><ele>210.0</ele><time>2026-05-03T10:11:56Z</time></trkpt><trkpt lat="43.2010118381489" lon="13.273437687693136"><ele>210.0</ele><time>2026-05-03T10:11:57Z</time></trkpt><trkpt lat="43.20084194189049" lon="13.273202646797406"><ele>210.0</ele><time>2026-05-03T10:11:58Z</time></trkpt><trkpt lat="43.20068004360249" lon="13.272961042029172"><ele>209.5</ele><time>2026-05-03T10:11:59Z</time></trkpt><trkpt lat="43.20051402455373" lon="13.27272500815645"><ele>209.0</ele><time>2026-05-03T10:12:00Z</time></trkpt><trkpt lat="43.200338852166055" lon="13.272491034145105"><ele>207.5</ele><time>2026-05-03T10:12:01Z</time></trkpt><trkpt lat="43.2001648452327" lon="13.27226619936842"><ele>206.0</ele><time>2026-05-03T10:12:02Z</time></trkpt><trkpt lat="43.199987262478174" lon="13.272043970725596"><ele>207.0</ele><time>2026-05-03T10:12:03Z</time></trkpt><trkpt lat="43.1998064814857" lon="13.271828229032272"><ele>208.0</ele><time>2026-05-03T10:12:04Z</time></trkpt><trkpt lat="43.19962152693694" lon="13.27161636205781"><ele>208.5</ele><time>2026-05-03T10:12:05Z</time></trkpt><trkpt lat="43.19943101003555" lon="13.27140564180098"><ele>209.0</ele><time>2026-05-03T10:12:06Z</time></trkpt><trkpt lat="43.199242848596924" lon="13.271199124026179"><ele>209.0</ele><time>2026-05-03T10:12:07Z</time></trkpt><trkpt lat="43.19905478882977" lon="13.270988160633715"><ele>209.0</ele><time>2026-05-03T10:12:08Z</time></trkpt><trkpt lat="43.19886847642085" lon="13.270778414252183"><ele>208.0</ele><time>2026-05-03T10:12:09Z</time></trkpt><trkpt lat="43.19868066397232" lon="13.270565063927938"><ele>207.0</ele><time>2026-05-03T10:12:10Z</time></trkpt><trkpt lat="43.198494708212074" lon="13.270360337618113"><ele>207.0</ele><time>2026-05-03T10:12:11Z</time></trkpt><trkpt lat="43.19830903896238" lon="13.270152762518952"><ele>207.0</ele><time>2026-05-03T10:12:12Z</time></trkpt><trkpt lat="43.19812072725786" lon="13.269944993618072"><ele>208.5</ele><time>2026-05-03T10:12:13Z</time></trkpt><trkpt lat="43.19793594336371" lon="13.26973418787168"><ele>210.0</ele><time>2026-05-03T10:12:14Z</time></trkpt><trkpt lat="43.19773941807189" lon="13.269526693824385"><ele>210.0</ele><time>2026-05-03T10:12:15Z</time></trkpt><trkpt lat="43.1975514599125" lon="13.269322317557092"><ele>210.0</ele><time>2026-05-03T10:12:16Z</time></trkpt><trkpt lat="43.19736557440596" lon="13.269117881436438"><ele>211.5</ele><time>2026-05-03T10:12:17Z</time></trkpt><trkpt lat="43.197178956240265" lon="13.268907817226298"><ele>213.0</ele><time>2026-05-03T10:12:18Z</time></trkpt><trkpt lat="43.196990807135066" lon="13.268695875626651"><ele>213.0</ele><time>2026-05-03T10:12:19Z</time></trkpt><trkpt lat="43.19680238423467" lon="13.268482916295396"><ele>213.0</ele><time>2026-05-03T10:12:20Z</time></trkpt><trkpt lat="43.19661145350189" lon="13.268277233275825"><ele>216.0</ele><time>2026-05-03T10:12:21Z</time></trkpt><trkpt lat="43.1964259512293" lon="13.26806285394082"><ele>219.0</ele><time>2026-05-03T10:12:22Z</time></trkpt><trkpt lat="43.19623991406949" lon="13.267861657246579"><ele>219.0</ele><time>2026-05-03T10:12:23Z</time></trkpt><trkpt lat="43.19604893732355" lon="13.267652886131684"><ele>219.0</ele><time>2026-05-03T10:12:24Z</time></trkpt><trkpt lat="43.195859636438314" lon="13.267440550370901"><ele>220.5</ele><time>2026-05-03T10:12:25Z</time></trkpt><trkpt lat="43.19567271613471" lon="13.26723989974082"><ele>222.0</ele><time>2026-05-03T10:12:26Z</time></trkpt><trkpt lat="43.19548535128072" lon="13.267028876916653"><ele>222.0</ele><time>2026-05-03T10:12:27Z</time></trkpt><trkpt lat="43.19529602550376" lon="13.266814070971025"><ele>222.0</ele><time>2026-05-03T10:12:28Z</time></trkpt><trkpt lat="43.195109778816146" lon="13.266604769222281"><ele>223.0</ele><time>2026-05-03T10:12:29Z</time></trkpt><trkpt lat="43.19492220024333" lon="13.266396182130107"><ele>224.0</ele><time>2026-05-03T10:12:30Z</time></trkpt><trkpt lat="43.19473318139346" lon="13.266196463776604"><ele>224.0</ele><time>2026-05-03T10:12:31Z</time></trkpt><trkpt lat="43.19454084481817" lon="13.265998283497057"><ele>224.0</ele><time>2026-05-03T10:12:32Z</time></trkpt><trkpt lat="43.1943502081262" lon="13.26579355851295"><ele>223.5</ele><time>2026-05-03T10:12:33Z</time></trkpt><trkpt lat="43.194161383926655" lon="13.265586022036892"><ele>223.0</ele><time>2026-05-03T10:12:34Z</time></trkpt><trkpt lat="43.19397369911481" lon="13.265377215667844"><ele>223.0</ele><time>2026-05-03T10:12:35Z</time></trkpt><trkpt lat="43.19378651187744" lon="13.265165555669775"><ele>223.0</ele><time>2026-05-03T10:12:36Z</time></trkpt><trkpt lat="43.19359986702819" lon="13.264950397082721"><ele>225.0</ele><time>2026-05-03T10:12:37Z</time></trkpt><trkpt lat="43.19341188033528" lon="13.264750812409893"><ele>227.0</ele><time>2026-05-03T10:12:38Z</time></trkpt><trkpt lat="43.193226274874796" lon="13.264543837979625"><ele>225.5</ele><time>2026-05-03T10:12:39Z</time></trkpt><trkpt lat="43.19303742269093" lon="13.264335748568897"><ele>224.0</ele><time>2026-05-03T10:12:40Z</time></trkpt><trkpt lat="43.19284966348617" lon="13.264129700433061"><ele>225.0</ele><time>2026-05-03T10:12:41Z</time></trkpt><trkpt lat="43.192660584962184" lon="13.26391772488673"><ele>226.0</ele><time>2026-05-03T10:12:42Z</time></trkpt><trkpt lat="43.19247538533013" lon="13.263707260298972"><ele>224.0</ele><time>2026-05-03T10:12:43Z</time></trkpt><trkpt lat="43.192290138918274" lon="13.263494046661204"><ele>222.0</ele><time>2026-05-03T10:12:44Z</time></trkpt><trkpt lat="43.192105261274556" lon="13.263294586374245"><ele>222.0</ele><time>2026-05-03T10:12:45Z</time></trkpt><trkpt lat="43.19193510072024" lon="13.263115167487532"><ele>222.0</ele><time>2026-05-03T10:12:46Z</time></trkpt><trkpt lat="43.19178030194397" lon="13.26294458501476"><ele>222.0</ele><time>2026-05-03T10:12:47Z</time></trkpt><trkpt lat="43.19163330441093" lon="13.262779287796079"><ele>227.0</ele><time>2026-05-03T10:12:48Z</time></trkpt><trkpt lat="43.191489536959224" lon="13.262629201026845"><ele>232.0</ele><time>2026-05-03T10:12:49Z</time></trkpt><trkpt lat="43.191355482180256" lon="13.262478280221792"><ele>237.0</ele><time>2026-05-03T10:12:50Z</time></trkpt><trkpt lat="43.191230128933" lon="13.262336498880543"><ele>237.66666666666669</ele><time>2026-05-03T10:12:51Z</time></trkpt><trkpt lat="43.191109213754494" lon="13.262198050075238"><ele>238.33333333333334</ele><time>2026-05-03T10:12:52Z</time></trkpt><trkpt lat="43.19099237778047" lon="13.262062993511872"><ele>239.0</ele><time>2026-05-03T10:12:53Z</time></trkpt><trkpt lat="43.190875282757" lon="13.26193605396662"><ele>239.0</ele><time>2026-05-03T10:12:54Z</time></trkpt><trkpt lat="43.19076676664422" lon="13.261814520069436"><ele>239.0</ele><time>2026-05-03T10:12:55Z</time></trkpt><trkpt lat="43.190660186728834" lon="13.261697798546807"><ele>239.0</ele><time>2026-05-03T10:12:56Z</time></trkpt><trkpt lat="43.19055474202986" lon="13.261584583001518"><ele>239.0</ele><time>2026-05-03T10:12:57Z</time></trkpt><trkpt lat="43.19045115097164" lon="13.261486117615165"><ele>239.5</ele><time>2026-05-03T10:12:58Z</time></trkpt><trkpt lat="43.190346585096705" lon="13.261399276745518"><ele>240.0</ele><time>2026-05-03T10:12:59Z</time></trkpt><trkpt lat="43.19023951609014" lon="13.261313505692632"><ele>240.5</ele><time>2026-05-03T10:13:00Z</time></trkpt><trkpt lat="43.19013825199522" lon="13.261202905817107"><ele>241.0</ele><time>2026-05-03T10:13:01Z</time></trkpt><trkpt lat="43.1900448773478" lon="13.261088923711268"><ele>241.0</ele><time>2026-05-03T10:13:02Z</time></trkpt><trkpt lat="43.189945235278415" lon="13.260972192307822"><ele>241.0</ele><time>2026-05-03T10:13:03Z</time></trkpt><trkpt lat="43.18984220269606" lon="13.260859767269293"><ele>241.0</ele><time>2026-05-03T10:13:04Z</time></trkpt><trkpt lat="43.189736904904386" lon="13.260743243309062"><ele>241.0</ele><time>2026-05-03T10:13:05Z</time></trkpt><trkpt lat="43.18963005586702" lon="13.260624613978393"><ele>240.5</ele><time>2026-05-03T10:13:06Z</time></trkpt><trkpt lat="43.18952486496148" lon="13.260505150311817"><ele>240.0</ele><time>2026-05-03T10:13:07Z</time></trkpt><trkpt lat="43.18941680723853" lon="13.26038122075393"><ele>239.5</ele><time>2026-05-03T10:13:08Z</time></trkpt><trkpt lat="43.189304282296064" lon="13.26025584967288"><ele>239.0</ele><time>2026-05-03T10:13:09Z</time></trkpt><trkpt lat="43.18919136925222" lon="13.260132914007293"><ele>239.0</ele><time>2026-05-03T10:13:10Z</time></trkpt><trkpt lat="43.18907596987999" lon="13.2600073905193"><ele>239.0</ele><time>2026-05-03T10:13:11Z</time></trkpt><trkpt lat="43.18896538033306" lon="13.259880522797864"><ele>239.0</ele><time>2026-05-03T10:13:12Z</time></trkpt><trkpt lat="43.18884728910511" lon="13.259746389763723"><ele>239.0</ele><time>2026-05-03T10:13:13Z</time></trkpt><trkpt lat="43.18872798407268" lon="13.259614411523215"><ele>239.66666666666669</ele><time>2026-05-03T10:13:14.001Z</time></trkpt><trkpt lat="43.18861111622737" lon="13.25948222450906"><ele>240.33333333333331</ele><time>2026-05-03T10:13:15.001Z</time></trkpt><trkpt lat="43.188489331346844" lon="13.259355587843237"><ele>241.0</ele><time>2026-05-03T10:13:16.001Z</time></trkpt><trkpt lat="43.188367844720695" lon="13.259220854201928"><ele>241.0</ele><time>2026-05-03T10:13:17.001Z</time></trkpt><trkpt lat="43.188246207464445" lon="13.259084506278594"><ele>241.0</ele><time>2026-05-03T10:13:18.001Z</time></trkpt><trkpt lat="43.18812502437418" lon="13.258945777385975"><ele>241.0</ele><time>2026-05-03T10:13:19.001Z</time></trkpt><trkpt lat="43.18800063073905" lon="13.258805489262834"><ele>241.33333333333331</ele><time>2026-05-03T10:13:20.001Z</time></trkpt><trkpt lat="43.18787379971213" lon="13.258668410512334"><ele>241.66666666666669</ele><time>2026-05-03T10:13:21.001Z</time></trkpt><trkpt lat="43.18774967414818" lon="13.25853259509167"><ele>242.0</ele><time>2026-05-03T10:13:22.001Z</time></trkpt><trkpt lat="43.18762349608985" lon="13.25839318679145"><ele>242.0</ele><time>2026-05-03T10:13:23.001Z</time></trkpt><trkpt lat="43.187493640963716" lon="13.258251997266509"><ele>242.0</ele><time>2026-05-03T10:13:24.001Z</time></trkpt><trkpt lat="43.18736772775931" lon="13.258113514761332"><ele>242.0</ele><time>2026-05-03T10:13:25.001Z</time></trkpt><trkpt lat="43.18724239582582" lon="13.25796886315618"><ele>242.33333333333334</ele><time>2026-05-03T10:13:26.001Z</time></trkpt><trkpt lat="43.18712023953626" lon="13.257833392145212"><ele>242.66666666666669</ele><time>2026-05-03T10:13:27.001Z</time></trkpt><trkpt lat="43.18699932686549" lon="13.257696607975724"><ele>243.0</ele><time>2026-05-03T10:13:28.001Z</time></trkpt><trkpt lat="43.18687726411403" lon="13.25756152493565"><ele>243.0</ele><time>2026-05-03T10:13:29.001Z</time></trkpt><trkpt lat="43.18675480296909" lon="13.257419916497971"><ele>243.0</ele><time>2026-05-03T10:13:30.001Z</time></trkpt><trkpt lat="43.18663186118823" lon="13.257289454477931"><ele>243.0</ele><time>2026-05-03T10:13:31.001Z</time></trkpt><trkpt lat="43.18650951090137" lon="13.257160525896643"><ele>243.0</ele><time>2026-05-03T10:13:32Z</time></trkpt><trkpt lat="43.18638896893069" lon="13.257028711214769"><ele>243.0</ele><time>2026-05-03T10:13:33Z</time></trkpt><trkpt lat="43.186267284234056" lon="13.256886164840417"><ele>243.0</ele><time>2026-05-03T10:13:34Z</time></trkpt><trkpt lat="43.18614559133272" lon="13.256749873131547"><ele>243.0</ele><time>2026-05-03T10:13:35Z</time></trkpt><trkpt lat="43.18602163755772" lon="13.256607269917206"><ele>243.0</ele><time>2026-05-03T10:13:36Z</time></trkpt><trkpt lat="43.18589751319666" lon="13.256467868255909"><ele>243.0</ele><time>2026-05-03T10:13:37Z</time></trkpt><trkpt lat="43.18577347405824" lon="13.256335468605712"><ele>241.66666666666669</ele><time>2026-05-03T10:13:38Z</time></trkpt><trkpt lat="43.18564725789493" lon="13.25619859196451"><ele>240.33333333333334</ele><time>2026-05-03T10:13:39Z</time></trkpt><trkpt lat="43.185520343540794" lon="13.256057459141651"><ele>239.0</ele><time>2026-05-03T10:13:40Z</time></trkpt><trkpt lat="43.18539508783836" lon="13.255914320196595"><ele>239.0</ele><time>2026-05-03T10:13:41Z</time></trkpt><trkpt lat="43.1852633552732" lon="13.255770770217756"><ele>239.0</ele><time>2026-05-03T10:13:42Z</time></trkpt><trkpt lat="43.185137745911554" lon="13.255624562021547"><ele>239.0</ele><time>2026-05-03T10:13:43Z</time></trkpt><trkpt lat="43.18500765451334" lon="13.255477924837429"><ele>239.33333333333334</ele><time>2026-05-03T10:13:44Z</time></trkpt><trkpt lat="43.18487391396096" lon="13.255332279601507"><ele>239.66666666666669</ele><time>2026-05-03T10:13:45Z</time></trkpt><trkpt lat="43.18474452748611" lon="13.255193682660106"><ele>240.0</ele><time>2026-05-03T10:13:46Z</time></trkpt><trkpt lat="43.18461257456405" lon="13.255047420461668"><ele>240.33333333333331</ele><time>2026-05-03T10:13:47Z</time></trkpt><trkpt lat="43.18448163460138" lon="13.254899868367579"><ele>240.66666666666666</ele><time>2026-05-03T10:13:48Z</time></trkpt><trkpt lat="43.18434791406327" lon="13.254753952867462"><ele>241.0</ele><time>2026-05-03T10:13:49Z</time></trkpt><trkpt lat="43.18421795710737" lon="13.254608416283618"><ele>241.0</ele><time>2026-05-03T10:13:50Z</time></trkpt><trkpt lat="43.18408891031159" lon="13.254466732316658"><ele>241.0</ele><time>2026-05-03T10:13:51Z</time></trkpt><trkpt lat="43.18396325637791" lon="13.254327425285716"><ele>241.0</ele><time>2026-05-03T10:13:52Z</time></trkpt><trkpt lat="43.18383645674399" lon="13.25418086599826"><ele>239.0</ele><time>2026-05-03T10:13:53Z</time></trkpt><trkpt lat="43.1837087616125" lon="13.254035905973492"><ele>237.0</ele><time>2026-05-03T10:13:54Z</time></trkpt><trkpt lat="43.18357748035907" lon="13.253903114182215"><ele>235.0</ele><time>2026-05-03T10:13:55Z</time></trkpt><trkpt lat="43.18343165438082" lon="13.253746189302968"><ele>235.0</ele><time>2026-05-03T10:13:56Z</time></trkpt><trkpt lat="43.18327740582906" lon="13.2535744462511"><ele>235.0</ele><time>2026-05-03T10:13:57Z</time></trkpt><trkpt lat="43.183117145788344" lon="13.253396532280387"><ele>235.0</ele><time>2026-05-03T10:13:58Z</time></trkpt><trkpt lat="43.182949220359916" lon="13.253199650562243"><ele>235.66666666666666</ele><time>2026-05-03T10:14:00Z</time></trkpt><trkpt lat="43.18282013854938" lon="13.253054014630104"><ele>236.33333333333331</ele><time>2026-05-03T10:14:01Z</time></trkpt><trkpt lat="43.18269201273617" lon="13.252912719996235"><ele>237.0</ele><time>2026-05-03T10:14:02Z</time></trkpt><trkpt lat="43.18255973791796" lon="13.25276790804912"><ele>237.0</ele><time>2026-05-03T10:14:03Z</time></trkpt><trkpt lat="43.182425395721914" lon="13.252621586375678"><ele>237.0</ele><time>2026-05-03T10:14:04Z</time></trkpt><trkpt lat="43.18229432584584" lon="13.25247498540072"><ele>237.0</ele><time>2026-05-03T10:14:05Z</time></trkpt><trkpt lat="43.18216191552762" lon="13.25233027603437"><ele>240.0</ele><time>2026-05-03T10:14:06Z</time></trkpt><trkpt lat="43.18202890235493" lon="13.25218241343532"><ele>243.0</ele><time>2026-05-03T10:14:07Z</time></trkpt><trkpt lat="43.18189307251351" lon="13.252046514935554"><ele>246.0</ele><time>2026-05-03T10:14:08Z</time></trkpt><trkpt lat="43.181751399009634" lon="13.251911873793839"><ele>246.0</ele><time>2026-05-03T10:14:09Z</time></trkpt><trkpt lat="43.18160855200061" lon="13.251779664671801"><ele>246.0</ele><time>2026-05-03T10:14:10Z</time></trkpt><trkpt lat="43.18146464468621" lon="13.251647327707593"><ele>246.0</ele><time>2026-05-03T10:14:11Z</time></trkpt><trkpt lat="43.181318595975284" lon="13.251517281439913"><ele>246.66666666666669</ele><time>2026-05-03T10:14:12Z</time></trkpt><trkpt lat="43.18117294611617" lon="13.251393307931494"><ele>247.33333333333334</ele><time>2026-05-03T10:14:13Z</time></trkpt><trkpt lat="43.18102794254527" lon="13.251279814889758"><ele>248.0</ele><time>2026-05-03T10:14:14Z</time></trkpt><trkpt lat="43.180876978624546" lon="13.251162807892616"><ele>248.0</ele><time>2026-05-03T10:14:15Z</time></trkpt><trkpt lat="43.18072481917453" lon="13.251046662568381"><ele>248.0</ele><time>2026-05-03T10:14:16Z</time></trkpt><trkpt lat="43.18056782923295" lon="13.250940449028871"><ele>248.0</ele><time>2026-05-03T10:14:17Z</time></trkpt><trkpt lat="43.180410724609594" lon="13.250839569439426"><ele>248.66666666666669</ele><time>2026-05-03T10:14:18Z</time></trkpt><trkpt lat="43.180254596904426" lon="13.25074152209892"><ele>249.33333333333331</ele><time>2026-05-03T10:14:19Z</time></trkpt><trkpt lat="43.180094684659814" lon="13.250645145913383"><ele>250.0</ele><time>2026-05-03T10:14:20Z</time></trkpt><trkpt lat="43.17993704004786" lon="13.250559104151856"><ele>251.66666666666666</ele><time>2026-05-03T10:14:21Z</time></trkpt><trkpt lat="43.17977576540378" lon="13.250468897878891"><ele>253.33333333333331</ele><time>2026-05-03T10:14:22Z</time></trkpt><trkpt lat="43.17961328092789" lon="13.250395194123854"><ele>255.0</ele><time>2026-05-03T10:14:23Z</time></trkpt><trkpt lat="43.179450889908566" lon="13.250315754767257"><ele>255.0</ele><time>2026-05-03T10:14:24Z</time></trkpt><trkpt lat="43.17928770635741" lon="13.250242995927143"><ele>255.0</ele><time>2026-05-03T10:14:25Z</time></trkpt><trkpt lat="43.17912270354618" lon="13.250170873638398"><ele>255.0</ele><time>2026-05-03T10:14:26Z</time></trkpt><trkpt lat="43.17895285744458" lon="13.25010285515973"><ele>254.66666666666669</ele><time>2026-05-03T10:14:27Z</time></trkpt><trkpt lat="43.17878073580512" lon="13.250039139991998"><ele>254.33333333333334</ele><time>2026-05-03T10:14:28Z</time></trkpt><trkpt lat="43.1786084991196" lon="13.249982570608266"><ele>254.0</ele><time>2026-05-03T10:14:29Z</time></trkpt><trkpt lat="43.1784365720257" lon="13.249922473689917"><ele>254.0</ele><time>2026-05-03T10:14:30Z</time></trkpt><trkpt lat="43.17826349578098" lon="13.249869065492884"><ele>254.0</ele><time>2026-05-03T10:14:31Z</time></trkpt><trkpt lat="43.178094899917745" lon="13.249824618616946"><ele>254.0</ele><time>2026-05-03T10:14:32Z</time></trkpt><trkpt lat="43.17791941795658" lon="13.24976913044835"><ele>254.66666666666669</ele><time>2026-05-03T10:14:33Z</time></trkpt><trkpt lat="43.177751442961586" lon="13.249723920157162"><ele>255.33333333333331</ele><time>2026-05-03T10:14:34Z</time></trkpt><trkpt lat="43.1775912641887" lon="13.249678783925711"><ele>256.0</ele><time>2026-05-03T10:14:35Z</time></trkpt><trkpt lat="43.177440511392085" lon="13.249633722860974"><ele>255.75</ele><time>2026-05-03T10:14:36Z</time></trkpt><trkpt lat="43.177292451270844" lon="13.249597539801186"><ele>255.5</ele><time>2026-05-03T10:14:37Z</time></trkpt><trkpt lat="43.17715783119039" lon="13.249549472161775"><ele>255.25</ele><time>2026-05-03T10:14:38Z</time></trkpt><trkpt lat="43.17701797743475" lon="13.249513879999805"><ele>255.0</ele><time>2026-05-03T10:14:39Z</time></trkpt><trkpt lat="43.176889171941255" lon="13.249478754767674"><ele>255.0</ele><time>2026-05-03T10:14:40Z</time></trkpt><trkpt lat="43.176763270972316" lon="13.249444268322913"><ele>255.0</ele><time>2026-05-03T10:14:41Z</time></trkpt><trkpt lat="43.17664087184954" lon="13.249391149748371"><ele>255.0</ele><time>2026-05-03T10:14:42Z</time></trkpt><trkpt lat="43.17651702329495" lon="13.249318579413602"><ele>255.0</ele><time>2026-05-03T10:14:43Z</time></trkpt><trkpt lat="43.176386826396275" lon="13.249245736570135"><ele>254.66666666666669</ele><time>2026-05-03T10:14:44Z</time></trkpt><trkpt lat="43.1762395246657" lon="13.24918727031867"><ele>254.33333333333334</ele><time>2026-05-03T10:14:45Z</time></trkpt><trkpt lat="43.176074409197604" lon="13.249135020084825"><ele>254.0</ele><time>2026-05-03T10:14:46Z</time></trkpt><trkpt lat="43.175896079312025" lon="13.249087645316033"><ele>254.0</ele><time>2026-05-03T10:14:47Z</time></trkpt><trkpt lat="43.17569868771291" lon="13.249034312315063"><ele>254.0</ele><time>2026-05-03T10:14:48Z</time></trkpt><trkpt lat="43.17549097500962" lon="13.24897014094085"><ele>254.0</ele><time>2026-05-03T10:14:49Z</time></trkpt><trkpt lat="43.175283410525466" lon="13.248908076462302"><ele>256.5</ele><time>2026-05-03T10:14:50Z</time></trkpt><trkpt lat="43.17506878878356" lon="13.248845094550019"><ele>259.0</ele><time>2026-05-03T10:14:51Z</time></trkpt><trkpt lat="43.17484285864736" lon="13.248779886773095"><ele>259.0</ele><time>2026-05-03T10:14:52Z</time></trkpt><trkpt lat="43.174610268706694" lon="13.248710526262823"><ele>259.0</ele><time>2026-05-03T10:14:53Z</time></trkpt><trkpt lat="43.174375140926415" lon="13.24864026777623"><ele>259.0</ele><time>2026-05-03T10:14:54Z</time></trkpt><trkpt lat="43.17413330159103" lon="13.248570204658874"><ele>259.0</ele><time>2026-05-03T10:14:55Z</time></trkpt><trkpt lat="43.17388643801627" lon="13.248500689478446"><ele>256.5</ele><time>2026-05-03T10:14:56Z</time></trkpt><trkpt lat="43.17364273058593" lon="13.248431987726894"><ele>254.0</ele><time>2026-05-03T10:14:57Z</time></trkpt><trkpt lat="43.173394732169875" lon="13.248362253971097"><ele>253.5</ele><time>2026-05-03T10:14:58Z</time></trkpt><trkpt lat="43.17314832682937" lon="13.248292685635176"><ele>253.0</ele><time>2026-05-03T10:14:59Z</time></trkpt><trkpt lat="43.17290334875193" lon="13.248223412205583"><ele>253.0</ele><time>2026-05-03T10:15:00Z</time></trkpt><trkpt lat="43.1726552650474" lon="13.248150304514352"><ele>253.0</ele><time>2026-05-03T10:15:01Z</time></trkpt><trkpt lat="43.17240977178286" lon="13.24807456342439"><ele>260.5</ele><time>2026-05-03T10:15:02Z</time></trkpt><trkpt lat="43.17216279924287" lon="13.247998518576782"><ele>268.0</ele><time>2026-05-03T10:15:03Z</time></trkpt><trkpt lat="43.1719156105444" lon="13.24792550658141"><ele>268.0</ele><time>2026-05-03T10:15:04Z</time></trkpt><trkpt lat="43.17166910685718" lon="13.247858893397218"><ele>268.0</ele><time>2026-05-03T10:15:05Z</time></trkpt><trkpt lat="43.17142096985948" lon="13.247791479092864"><ele>264.5</ele><time>2026-05-03T10:15:06Z</time></trkpt><trkpt lat="43.171172287923504" lon="13.247718212510556"><ele>261.0</ele><time>2026-05-03T10:15:07Z</time></trkpt><trkpt lat="43.17092953920621" lon="13.247643825487328"><ele>255.5</ele><time>2026-05-03T10:15:08Z</time></trkpt><trkpt lat="43.1706832633986" lon="13.247569780489297"><ele>250.0</ele><time>2026-05-03T10:15:09Z</time></trkpt><trkpt lat="43.1704378659619" lon="13.247498417604714"><ele>250.0</ele><time>2026-05-03T10:15:10Z</time></trkpt><trkpt lat="43.17018963295692" lon="13.247425750178397"><ele>250.0</ele><time>2026-05-03T10:15:11Z</time></trkpt><trkpt lat="43.16993414036159" lon="13.247347226487586"><ele>248.5</ele><time>2026-05-03T10:15:12Z</time></trkpt><trkpt lat="43.169668411911395" lon="13.247253560951371"><ele>247.0</ele><time>2026-05-03T10:15:13Z</time></trkpt><trkpt lat="43.16943993922119" lon="13.247200855403733"><ele>247.0</ele><time>2026-05-03T10:15:14Z</time></trkpt><trkpt lat="43.169191527169815" lon="13.247133857616717"><ele>247.0</ele><time>2026-05-03T10:15:15Z</time></trkpt><trkpt lat="43.16894117155655" lon="13.247071891485604"><ele>246.0</ele><time>2026-05-03T10:15:16Z</time></trkpt><trkpt lat="43.168699362307365" lon="13.247010092822308"><ele>245.0</ele><time>2026-05-03T10:15:17Z</time></trkpt><trkpt lat="43.16845000706782" lon="13.246964357376408"><ele>245.0</ele><time>2026-05-03T10:15:18Z</time></trkpt><trkpt lat="43.1682032120114" lon="13.246921584332796"><ele>245.0</ele><time>2026-05-03T10:15:19Z</time></trkpt><trkpt lat="43.16795549315451" lon="13.246887416418973"><ele>245.0</ele><time>2026-05-03T10:15:20.001Z</time></trkpt><trkpt lat="43.16770770618085" lon="13.246855375588012"><ele>245.0</ele><time>2026-05-03T10:15:21.001Z</time></trkpt><trkpt lat="43.16745587370032" lon="13.246830071220707"><ele>245.5</ele><time>2026-05-03T10:15:22.001Z</time></trkpt><trkpt lat="43.167204295708466" lon="13.246804425307703"><ele>246.0</ele><time>2026-05-03T10:15:23.001Z</time></trkpt><trkpt lat="43.16695430049312" lon="13.24677344802232"><ele>246.0</ele><time>2026-05-03T10:15:24.001Z</time></trkpt><trkpt lat="43.16670118976767" lon="13.246745059129669"><ele>246.0</ele><time>2026-05-03T10:15:25.001Z</time></trkpt><trkpt lat="43.166452902545146" lon="13.246712625014156"><ele>245.5</ele><time>2026-05-03T10:15:26.001Z</time></trkpt><trkpt lat="43.16620405197039" lon="13.246680277871427"><ele>245.0</ele><time>2026-05-03T10:15:27.001Z</time></trkpt><trkpt lat="43.16595301459112" lon="13.246648890352517"><ele>245.0</ele><time>2026-05-03T10:15:28.001Z</time></trkpt><trkpt lat="43.16570589523995" lon="13.246616138208529"><ele>245.0</ele><time>2026-05-03T10:15:29.001Z</time></trkpt><trkpt lat="43.16545913077796" lon="13.246582604389681"><ele>244.5</ele><time>2026-05-03T10:15:30.001Z</time></trkpt><trkpt lat="43.16520275900173" lon="13.246548966598906"><ele>244.0</ele><time>2026-05-03T10:15:31.001Z</time></trkpt><trkpt lat="43.1649556959341" lon="13.246518598198737"><ele>248.5</ele><time>2026-05-03T10:15:32.001Z</time></trkpt><trkpt lat="43.164703428781586" lon="13.246487397232395"><ele>253.0</ele><time>2026-05-03T10:15:33.001Z</time></trkpt><trkpt lat="43.16445356058254" lon="13.246462216520706"><ele>254.0</ele><time>2026-05-03T10:15:34.001Z</time></trkpt><trkpt lat="43.164201866067856" lon="13.246440289800088"><ele>255.0</ele><time>2026-05-03T10:15:35.001Z</time></trkpt><trkpt lat="43.16395224573119" lon="13.246414637653977"><ele>261.5</ele><time>2026-05-03T10:15:36.001Z</time></trkpt><trkpt lat="43.16371027690639" lon="13.246385702062744"><ele>268.0</ele><time>2026-05-03T10:15:37.001Z</time></trkpt><trkpt lat="43.16346463074059" lon="13.246349419295331"><ele>268.0</ele><time>2026-05-03T10:15:38Z</time></trkpt><trkpt lat="43.16322356231921" lon="13.246311208474806"><ele>268.0</ele><time>2026-05-03T10:15:39Z</time></trkpt><trkpt lat="43.16298337466614" lon="13.246272703151918"><ele>264.0</ele><time>2026-05-03T10:15:40Z</time></trkpt><trkpt lat="43.1627449000034" lon="13.24623697485294"><ele>260.0</ele><time>2026-05-03T10:15:41Z</time></trkpt><trkpt lat="43.16250371152426" lon="13.24620732746784"><ele>257.0</ele><time>2026-05-03T10:15:42Z</time></trkpt><trkpt lat="43.16224443678781" lon="13.246175869486272"><ele>254.0</ele><time>2026-05-03T10:15:43.074Z</time></trkpt><trkpt lat="43.16199438644782" lon="13.24614916750127"><ele>254.0</ele><time>2026-05-03T10:15:44Z</time></trkpt><trkpt lat="43.161746566925544" lon="13.24576467160048"><ele>254.0</ele><time>2026-05-03T10:15:45Z</time></trkpt><trkpt lat="43.1615076562293" lon="13.245654221889534"><ele>252.5</ele><time>2026-05-03T10:15:46Z</time></trkpt><trkpt lat="43.16133735406809" lon="13.245365827196432"><ele>251.0</ele><time>2026-05-03T10:15:47Z</time></trkpt><trkpt lat="43.161130666687605" lon="13.245149623680986"><ele>251.0</ele><time>2026-05-03T10:15:48Z</time></trkpt><trkpt lat="43.16093758218765" lon="13.244924581155589"><ele>251.0</ele><time>2026-05-03T10:15:49Z</time></trkpt><trkpt lat="43.1607519307241" lon="13.24469040627091"><ele>249.5</ele><time>2026-05-03T10:15:50Z</time></trkpt><trkpt lat="43.16057424748945" lon="13.244445566534017"><ele>248.0</ele><time>2026-05-03T10:15:51Z</time></trkpt><trkpt lat="43.160399678665456" lon="13.244189260700367"><ele>246.5</ele><time>2026-05-03T10:15:52Z</time></trkpt><trkpt lat="43.16023552441766" lon="13.243930497293704"><ele>245.0</ele><time>2026-05-03T10:15:53Z</time></trkpt><trkpt lat="43.16006792410886" lon="13.24366682899638"><ele>245.0</ele><time>2026-05-03T10:15:54Z</time></trkpt><trkpt lat="43.159895193194565" lon="13.243396793427836"><ele>245.0</ele><time>2026-05-03T10:15:55Z</time></trkpt><trkpt lat="43.15972864321927" lon="13.243122885688166"><ele>245.5</ele><time>2026-05-03T10:15:56Z</time></trkpt><trkpt lat="43.15956360054725" lon="13.24284268181345"><ele>246.0</ele><time>2026-05-03T10:15:57Z</time></trkpt><trkpt lat="43.15939081561663" lon="13.242566556367747"><ele>246.5</ele><time>2026-05-03T10:15:58Z</time></trkpt><trkpt lat="43.15921146470857" lon="13.242292684461994"><ele>247.0</ele><time>2026-05-03T10:15:59Z</time></trkpt><trkpt lat="43.1590366788265" lon="13.242018483231881"><ele>249.5</ele><time>2026-05-03T10:16:00Z</time></trkpt><trkpt lat="43.15886712797051" lon="13.2417459792372"><ele>252.0</ele><time>2026-05-03T10:16:01Z</time></trkpt><trkpt lat="43.15869259694923" lon="13.241468696999943"><ele>253.5</ele><time>2026-05-03T10:16:02Z</time></trkpt><trkpt lat="43.15851759734427" lon="13.241190906905784"><ele>255.0</ele><time>2026-05-03T10:16:03Z</time></trkpt><trkpt lat="43.1583435831733" lon="13.240909447703002"><ele>261.0</ele><time>2026-05-03T10:16:04Z</time></trkpt><trkpt lat="43.15816909839845" lon="13.240628197190293"><ele>267.0</ele><time>2026-05-03T10:16:05Z</time></trkpt><trkpt lat="43.15799036019837" lon="13.240348258548018"><ele>267.0</ele><time>2026-05-03T10:16:06Z</time></trkpt><trkpt lat="43.15781502290228" lon="13.24007051260953"><ele>267.0</ele><time>2026-05-03T10:16:07Z</time></trkpt><trkpt lat="43.157645181203186" lon="13.239788665422248"><ele>268.0</ele><time>2026-05-03T10:16:08Z</time></trkpt><trkpt lat="43.15747826707071" lon="13.23950424865087"><ele>269.0</ele><time>2026-05-03T10:16:09Z</time></trkpt><trkpt lat="43.15729785327321" lon="13.239210044558522"><ele>267.5</ele><time>2026-05-03T10:16:10Z</time></trkpt><trkpt lat="43.15710696000497" lon="13.238910350659738"><ele>266.0</ele><time>2026-05-03T10:16:11Z</time></trkpt><trkpt lat="43.156910756238396" lon="13.238600805017494"><ele>266.0</ele><time>2026-05-03T10:16:12Z</time></trkpt><trkpt lat="43.15671130108631" lon="13.238280192297145"><ele>266.0</ele><time>2026-05-03T10:16:13Z</time></trkpt><trkpt lat="43.156506869084716" lon="13.237958091377738"><ele>264.0</ele><time>2026-05-03T10:16:14Z</time></trkpt><trkpt lat="43.156302730133014" lon="13.237637317691101"><ele>262.0</ele><time>2026-05-03T10:16:15Z</time></trkpt><trkpt lat="43.15609712103722" lon="13.237313452909698"><ele>259.5</ele><time>2026-05-03T10:16:16Z</time></trkpt><trkpt lat="43.15589381766192" lon="13.236994345556083"><ele>257.0</ele><time>2026-05-03T10:16:17Z</time></trkpt><trkpt lat="43.15569608112506" lon="13.236683723370243"><ele>255.0</ele><time>2026-05-03T10:16:18Z</time></trkpt><trkpt lat="43.155503259973244" lon="13.2363811881351"><ele>253.0</ele><time>2026-05-03T10:16:19Z</time></trkpt><trkpt lat="43.155315654091964" lon="13.23608511875128"><ele>253.0</ele><time>2026-05-03T10:16:20Z</time></trkpt><trkpt lat="43.155125742899955" lon="13.235789135672544"><ele>253.0</ele><time>2026-05-03T10:16:21Z</time></trkpt><trkpt lat="43.15494372112625" lon="13.235497065246518"><ele>253.0</ele><time>2026-05-03T10:16:22Z</time></trkpt><trkpt lat="43.15476121293059" lon="13.235204705369199"><ele>253.0</ele><time>2026-05-03T10:16:23Z</time></trkpt><trkpt lat="43.15458273623845" lon="13.23491861480671"><ele>252.5</ele><time>2026-05-03T10:16:24Z</time></trkpt><trkpt lat="43.15440642812913" lon="13.23464085372552"><ele>252.0</ele><time>2026-05-03T10:16:25Z</time></trkpt><trkpt lat="43.15423838163293" lon="13.234374731114151"><ele>252.0</ele><time>2026-05-03T10:16:26Z</time></trkpt><trkpt lat="43.154070557481226" lon="13.234111651233901"><ele>252.0</ele><time>2026-05-03T10:16:27Z</time></trkpt><trkpt lat="43.153910768884444" lon="13.23385690077064"><ele>257.0</ele><time>2026-05-03T10:16:28Z</time></trkpt><trkpt lat="43.15374809019557" lon="13.233601811104027"><ele>262.0</ele><time>2026-05-03T10:16:29Z</time></trkpt><trkpt lat="43.15358751594914" lon="13.233349064603754"><ele>265.5</ele><time>2026-05-03T10:16:30Z</time></trkpt><trkpt lat="43.15342379184447" lon="13.23309454339335"><ele>269.0</ele><time>2026-05-03T10:16:31Z</time></trkpt><trkpt lat="43.15325818757508" lon="13.23283868402127"><ele>269.5</ele><time>2026-05-03T10:16:32Z</time></trkpt><trkpt lat="43.15309085266148" lon="13.232578262872877"><ele>270.0</ele><time>2026-05-03T10:16:33Z</time></trkpt><trkpt lat="43.152924135490714" lon="13.232316221775466"><ele>272.5</ele><time>2026-05-03T10:16:34Z</time></trkpt><trkpt lat="43.15275872581365" lon="13.232052872977258"><ele>275.0</ele><time>2026-05-03T10:16:35Z</time></trkpt><trkpt lat="43.15259430677632" lon="13.231793027917146"><ele>275.0</ele><time>2026-05-03T10:16:36Z</time></trkpt><trkpt lat="43.15243111955685" lon="13.231534373346268"><ele>275.0</ele><time>2026-05-03T10:16:37Z</time></trkpt><trkpt lat="43.152269982979526" lon="13.231272193979889"><ele>272.5</ele><time>2026-05-03T10:16:38Z</time></trkpt><trkpt lat="43.152112218248284" lon="13.231011069959138"><ele>270.0</ele><time>2026-05-03T10:16:39Z</time></trkpt><trkpt lat="43.151947906692484" lon="13.230749798763233"><ele>267.5</ele><time>2026-05-03T10:16:40Z</time></trkpt><trkpt lat="43.151782665383976" lon="13.230485015775278"><ele>265.0</ele><time>2026-05-03T10:16:41Z</time></trkpt><trkpt lat="43.151620555005756" lon="13.230223663179196"><ele>269.5</ele><time>2026-05-03T10:16:42Z</time></trkpt><trkpt lat="43.151462438883655" lon="13.229954366109968"><ele>274.0</ele><time>2026-05-03T10:16:43Z</time></trkpt><trkpt lat="43.15131513425473" lon="13.229675038998547"><ele>276.5</ele><time>2026-05-03T10:16:44Z</time></trkpt><trkpt lat="43.151173873429116" lon="13.229389841076308"><ele>279.0</ele><time>2026-05-03T10:16:45Z</time></trkpt><trkpt lat="43.15104307976731" lon="13.229091105905653"><ele>280.0</ele><time>2026-05-03T10:16:46Z</time></trkpt><trkpt lat="43.15093342330852" lon="13.228791621976749"><ele>281.0</ele><time>2026-05-03T10:16:47Z</time></trkpt><trkpt lat="43.15082924419693" lon="13.228476438049588"><ele>281.0</ele><time>2026-05-03T10:16:48Z</time></trkpt><trkpt lat="43.15074235960057" lon="13.228153001344428"><ele>281.0</ele><time>2026-05-03T10:16:49Z</time></trkpt><trkpt lat="43.15066904938285" lon="13.227831854559646"><ele>281.5</ele><time>2026-05-03T10:16:50Z</time></trkpt><trkpt lat="43.15060519812693" lon="13.227494595283654"><ele>282.0</ele><time>2026-05-03T10:16:51Z</time></trkpt><trkpt lat="43.15055359055571" lon="13.227154773822903"><ele>282.0</ele><time>2026-05-03T10:16:52Z</time></trkpt><trkpt lat="43.15051712724862" lon="13.226816134521165"><ele>282.0</ele><time>2026-05-03T10:16:53Z</time></trkpt><trkpt lat="43.150497024281" lon="13.22646921693293"><ele>284.0</ele><time>2026-05-03T10:16:54Z</time></trkpt><trkpt lat="43.150490441219986" lon="13.226131852573808"><ele>286.0</ele><time>2026-05-03T10:16:55Z</time></trkpt><trkpt lat="43.15049638993914" lon="13.225787208868779"><ele>285.5</ele><time>2026-05-03T10:16:56Z</time></trkpt><trkpt lat="43.1505178071198" lon="13.225440728548792"><ele>285.0</ele><time>2026-05-03T10:16:57Z</time></trkpt><trkpt lat="43.150550848993284" lon="13.225099015175427"><ele>282.5</ele><time>2026-05-03T10:16:58Z</time></trkpt><trkpt lat="43.150594979682154" lon="13.224761233670767"><ele>280.0</ele><time>2026-05-03T10:16:59Z</time></trkpt><trkpt lat="43.15065151936486" lon="13.22442849763353"><ele>276.0</ele><time>2026-05-03T10:17:00Z</time></trkpt><trkpt lat="43.15072399579372" lon="13.224102460634018"><ele>272.0</ele><time>2026-05-03T10:17:01Z</time></trkpt><trkpt lat="43.15080141761328" lon="13.223766971569676"><ele>268.0</ele><time>2026-05-03T10:17:02Z</time></trkpt><trkpt lat="43.15087417209235" lon="13.223441166369868"><ele>264.0</ele><time>2026-05-03T10:17:03Z</time></trkpt><trkpt lat="43.15094501819345" lon="13.223111959427557"><ele>263.0</ele><time>2026-05-03T10:17:04Z</time></trkpt><trkpt lat="43.151019263361626" lon="13.22278537625436"><ele>262.0</ele><time>2026-05-03T10:17:05Z</time></trkpt><trkpt lat="43.15109371031178" lon="13.222455617938882"><ele>262.5</ele><time>2026-05-03T10:17:06Z</time></trkpt><trkpt lat="43.15115769295636" lon="13.22212549958081"><ele>263.0</ele><time>2026-05-03T10:17:07Z</time></trkpt><trkpt lat="43.15121884808088" lon="13.221788530612848"><ele>265.0</ele><time>2026-05-03T10:17:08Z</time></trkpt><trkpt lat="43.15127169674784" lon="13.22145108730704"><ele>267.0</ele><time>2026-05-03T10:17:09Z</time></trkpt><trkpt lat="43.15131197157359" lon="13.221110516067432"><ele>267.0</ele><time>2026-05-03T10:17:10Z</time></trkpt><trkpt lat="43.15134176236719" lon="13.220769723613808"><ele>267.0</ele><time>2026-05-03T10:17:11Z</time></trkpt><trkpt lat="43.15135833865297" lon="13.220429354608234"><ele>269.5</ele><time>2026-05-03T10:17:12Z</time></trkpt><trkpt lat="43.151372461261275" lon="13.220085492503777"><ele>272.0</ele><time>2026-05-03T10:17:13Z</time></trkpt><trkpt lat="43.15137987353399" lon="13.219741094596252"><ele>272.5</ele><time>2026-05-03T10:17:14Z</time></trkpt><trkpt lat="43.151378083554484" lon="13.219396406001012"><ele>273.0</ele><time>2026-05-03T10:17:15Z</time></trkpt><trkpt lat="43.15136745212074" lon="13.21905106616412"><ele>273.5</ele><time>2026-05-03T10:17:16Z</time></trkpt><trkpt lat="43.15134417432181" lon="13.218708486840386"><ele>274.0</ele><time>2026-05-03T10:17:17Z</time></trkpt><trkpt lat="43.15131218663949" lon="13.218368710357208"><ele>275.5</ele><time>2026-05-03T10:17:18Z</time></trkpt><trkpt lat="43.15126958710328" lon="13.21803256597105"><ele>277.0</ele><time>2026-05-03T10:17:19Z</time></trkpt><trkpt lat="43.151219480744636" lon="13.217697042771414"><ele>277.0</ele><time>2026-05-03T10:17:20Z</time></trkpt><trkpt lat="43.15116297898985" lon="13.217358942929641"><ele>277.0</ele><time>2026-05-03T10:17:21Z</time></trkpt><trkpt lat="43.15110906588843" lon="13.21701774614832"><ele>278.5</ele><time>2026-05-03T10:17:22Z</time></trkpt><trkpt lat="43.15104802014632" lon="13.216676141105683"><ele>280.0</ele><time>2026-05-03T10:17:23Z</time></trkpt><trkpt lat="43.150984091375136" lon="13.216345649128002"><ele>281.5</ele><time>2026-05-03T10:17:24Z</time></trkpt><trkpt lat="43.150923152880935" lon="13.21601462004081"><ele>283.0</ele><time>2026-05-03T10:17:25.001Z</time></trkpt><trkpt lat="43.150865916961536" lon="13.215681648174687"><ele>285.0</ele><time>2026-05-03T10:17:26.001Z</time></trkpt><trkpt lat="43.15080851027971" lon="13.215350949169355"><ele>287.0</ele><time>2026-05-03T10:17:27.001Z</time></trkpt><trkpt lat="43.1507461966982" lon="13.21501436758439"><ele>283.5</ele><time>2026-05-03T10:17:28.001Z</time></trkpt><trkpt lat="43.15068008639519" lon="13.214678949310068"><ele>280.0</ele><time>2026-05-03T10:17:29.001Z</time></trkpt><trkpt lat="43.15060920033021" lon="13.21434672626081"><ele>280.0</ele><time>2026-05-03T10:17:30.001Z</time></trkpt><trkpt lat="43.1505309589996" lon="13.21402045995311"><ele>280.0</ele><time>2026-05-03T10:17:31.001Z</time></trkpt><trkpt lat="43.150432786131745" lon="13.213707824044432"><ele>282.0</ele><time>2026-05-03T10:17:32.001Z</time></trkpt><trkpt lat="43.150317529612835" lon="13.213407110849685"><ele>284.0</ele><time>2026-05-03T10:17:33.001Z</time></trkpt><trkpt lat="43.150180786897835" lon="13.213111835834335"><ele>283.0</ele><time>2026-05-03T10:17:34.001Z</time></trkpt><trkpt lat="43.15003433979418" lon="13.212834160563215"><ele>282.0</ele><time>2026-05-03T10:17:35.001Z</time></trkpt><trkpt lat="43.14987128632429" lon="13.212568520358552"><ele>286.0</ele><time>2026-05-03T10:17:36.001Z</time></trkpt><trkpt lat="43.14970120524085" lon="13.212315559124775"><ele>290.0</ele><time>2026-05-03T10:17:37.001Z</time></trkpt><trkpt lat="43.14952931779021" lon="13.212066100390839"><ele>290.0</ele><time>2026-05-03T10:17:38.001Z</time></trkpt><trkpt lat="43.1493570897091" lon="13.211814817624651"><ele>290.0</ele><time>2026-05-03T10:17:39.001Z</time></trkpt><trkpt lat="43.149191209009" lon="13.211558921795575"><ele>289.5</ele><time>2026-05-03T10:17:40.001Z</time></trkpt><trkpt lat="43.14903333772249" lon="13.211293507859072"><ele>289.0</ele><time>2026-05-03T10:17:41Z</time></trkpt><trkpt lat="43.14888797448799" lon="13.211016654890336"><ele>289.0</ele><time>2026-05-03T10:17:42Z</time></trkpt><trkpt lat="43.14876036135125" lon="13.210724601278072"><ele>289.0</ele><time>2026-05-03T10:17:43Z</time></trkpt><trkpt lat="43.14864823535453" lon="13.210412563437519"><ele>296.0</ele><time>2026-05-03T10:17:44Z</time></trkpt><trkpt lat="43.1485565349261" lon="13.210097266876376"><ele>303.0</ele><time>2026-05-03T10:17:45Z</time></trkpt><trkpt lat="43.14847871357769" lon="13.209789389777699"><ele>305.0</ele><time>2026-05-03T10:17:46Z</time></trkpt><trkpt lat="43.148400875130974" lon="13.209492869131765"><ele>307.0</ele><time>2026-05-03T10:17:47Z</time></trkpt><trkpt lat="43.14831975462358" lon="13.209193111016098"><ele>308.5</ele><time>2026-05-03T10:17:48Z</time></trkpt><trkpt lat="43.14823704308896" lon="13.208890821841837"><ele>310.0</ele><time>2026-05-03T10:17:49Z</time></trkpt><trkpt lat="43.1480683682398" lon="13.208539289102633"><ele>308.5</ele><time>2026-05-03T10:17:50Z</time></trkpt><trkpt lat="43.147944407966214" lon="13.208157586339732"><ele>307.0</ele><time>2026-05-03T10:17:51Z</time></trkpt><trkpt lat="43.14781253824758" lon="13.20781733469794"><ele>314.5</ele><time>2026-05-03T10:17:52Z</time></trkpt><trkpt lat="43.14793238093862" lon="13.207323515639077"><ele>322.0</ele><time>2026-05-03T10:17:53Z</time></trkpt><trkpt lat="43.14787399249521" lon="13.206952692226611"><ele>300.0</ele><time>2026-05-03T10:17:54Z</time></trkpt><trkpt lat="43.14706123281574" lon="13.203205029689604"><ele>300.6666666666667</ele><time>2026-05-03T10:18:05Z</time></trkpt><trkpt lat="43.14700532080606" lon="13.202911947991668"><ele>301.33333333333337</ele><time>2026-05-03T10:18:06Z</time></trkpt><trkpt lat="43.1469878023614" lon="13.202609658440872"><ele>302.0</ele><time>2026-05-03T10:18:07Z</time></trkpt><trkpt lat="43.1469747741844" lon="13.20232973785091"><ele>303.0</ele><time>2026-05-03T10:18:08Z</time></trkpt><trkpt lat="43.14698193324345" lon="13.202049276583061"><ele>304.0</ele><time>2026-05-03T10:18:09Z</time></trkpt><trkpt lat="43.14698195465974" lon="13.201769001042964"><ele>305.0</ele><time>2026-05-03T10:18:10Z</time></trkpt><trkpt lat="43.146975893653824" lon="13.201487759725278"><ele>306.6666666666667</ele><time>2026-05-03T10:18:11Z</time></trkpt><trkpt lat="43.14695418132136" lon="13.201208782773564"><ele>308.3333333333333</ele><time>2026-05-03T10:18:12Z</time></trkpt><trkpt lat="43.14691275415374" lon="13.200938548706581"><ele>310.0</ele><time>2026-05-03T10:18:13Z</time></trkpt><trkpt lat="43.146856834753585" lon="13.200666784960722"><ele>313.0</ele><time>2026-05-03T10:18:14Z</time></trkpt><trkpt lat="43.14683359202189" lon="13.200466503873317"><ele>316.0</ele><time>2026-05-03T10:18:15Z</time></trkpt><trkpt lat="43.14682469370786" lon="13.200275640508966"><ele>319.0</ele><time>2026-05-03T10:18:16Z</time></trkpt><trkpt lat="43.14660317634666" lon="13.199892491313014"><ele>314.0</ele><time>2026-05-03T10:18:17Z</time></trkpt><trkpt lat="43.14649067363951" lon="13.199650912345184"><ele>309.0</ele><time>2026-05-03T10:18:18Z</time></trkpt><trkpt lat="43.14637431001218" lon="13.199418390383471"><ele>304.0</ele><time>2026-05-03T10:18:19Z</time></trkpt><trkpt lat="43.14625531721455" lon="13.199189910592287"><ele>305.3333333333333</ele><time>2026-05-03T10:18:20Z</time></trkpt><trkpt lat="43.14613494793389" lon="13.19895786354359"><ele>306.6666666666667</ele><time>2026-05-03T10:18:21Z</time></trkpt><trkpt lat="43.146014242313" lon="13.198722132908898"><ele>308.0</ele><time>2026-05-03T10:18:22Z</time></trkpt><trkpt lat="43.145895679194794" lon="13.19848693460692"><ele>308.0</ele><time>2026-05-03T10:18:23Z</time></trkpt><trkpt lat="43.14578124759614" lon="13.198244033975971"><ele>308.0</ele><time>2026-05-03T10:18:24Z</time></trkpt><trkpt lat="43.14566600724294" lon="13.198000315714136"><ele>308.0</ele><time>2026-05-03T10:18:25Z</time></trkpt><trkpt lat="43.14555191316924" lon="13.197752888609724"><ele>305.33333333333337</ele><time>2026-05-03T10:18:26Z</time></trkpt><trkpt lat="43.145443293173216" lon="13.197497038138449"><ele>302.6666666666667</ele><time>2026-05-03T10:18:27Z</time></trkpt><trkpt lat="43.1453398187972" lon="13.197227134803839"><ele>300.0</ele><time>2026-05-03T10:18:28Z</time></trkpt><trkpt lat="43.14524760830049" lon="13.196954575170615"><ele>300.0</ele><time>2026-05-03T10:18:29Z</time></trkpt><trkpt lat="43.14517599486735" lon="13.196671876344556"><ele>300.0</ele><time>2026-05-03T10:18:30Z</time></trkpt><trkpt lat="43.145127192728715" lon="13.19639210565018"><ele>300.0</ele><time>2026-05-03T10:18:31Z</time></trkpt><trkpt lat="43.14508573589861" lon="13.196101671459653"><ele>302.0</ele><time>2026-05-03T10:18:32Z</time></trkpt><trkpt lat="43.14505052359411" lon="13.195798295799657"><ele>304.0</ele><time>2026-05-03T10:18:33Z</time></trkpt><trkpt lat="43.14501638639145" lon="13.195487583790623"><ele>308.0</ele><time>2026-05-03T10:18:34Z</time></trkpt><trkpt lat="43.144975065133174" lon="13.195172608784198"><ele>312.0</ele><time>2026-05-03T10:18:35Z</time></trkpt><trkpt lat="43.14493463008582" lon="13.19485847650695"><ele>317.5</ele><time>2026-05-03T10:18:36Z</time></trkpt><trkpt lat="43.14488696001797" lon="13.194543210791116"><ele>323.0</ele><time>2026-05-03T10:18:37Z</time></trkpt><trkpt lat="43.14483723450488" lon="13.194237341935503"><ele>313.5</ele><time>2026-05-03T10:18:38Z</time></trkpt><trkpt lat="43.14479890097282" lon="13.193929836164685"><ele>304.0</ele><time>2026-05-03T10:18:39Z</time></trkpt><trkpt lat="43.14475334538381" lon="13.193615312501855"><ele>304.0</ele><time>2026-05-03T10:18:40Z</time></trkpt><trkpt lat="43.14471330267683" lon="13.193310403846425"><ele>304.0</ele><time>2026-05-03T10:18:41Z</time></trkpt><trkpt lat="43.14467280401515" lon="13.193002920704643"><ele>304.66666666666663</ele><time>2026-05-03T10:18:42Z</time></trkpt><trkpt lat="43.144631517343974" lon="13.192706857908192"><ele>305.3333333333333</ele><time>2026-05-03T10:18:43Z</time></trkpt><trkpt lat="43.14458830256369" lon="13.192399722076631"><ele>306.0</ele><time>2026-05-03T10:18:44Z</time></trkpt><trkpt lat="43.14454778738924" lon="13.192101287968784"><ele>306.0</ele><time>2026-05-03T10:18:45Z</time></trkpt><trkpt lat="43.14450769155285" lon="13.191802582739607"><ele>306.0</ele><time>2026-05-03T10:18:46Z</time></trkpt><trkpt lat="43.14446684320467" lon="13.19150463215752"><ele>306.0</ele><time>2026-05-03T10:18:47Z</time></trkpt><trkpt lat="43.1444230167634" lon="13.19121178094228"><ele>306.6666666666667</ele><time>2026-05-03T10:18:48Z</time></trkpt><trkpt lat="43.14437978496232" lon="13.19091371686897"><ele>307.33333333333337</ele><time>2026-05-03T10:18:49Z</time></trkpt><trkpt lat="43.14433795747992" lon="13.190609867779077"><ele>308.0</ele><time>2026-05-03T10:18:50Z</time></trkpt><trkpt lat="43.14428845055665" lon="13.190305781489663"><ele>308.6666666666667</ele><time>2026-05-03T10:18:51Z</time></trkpt><trkpt lat="43.144231729385595" lon="13.190004712956503"><ele>309.3333333333333</ele><time>2026-05-03T10:18:52Z</time></trkpt><trkpt lat="43.14416475297274" lon="13.189715510440443"><ele>310.0</ele><time>2026-05-03T10:18:53Z</time></trkpt><trkpt lat="43.14408348149855" lon="13.189427745344393"><ele>309.5</ele><time>2026-05-03T10:18:54Z</time></trkpt><trkpt lat="43.14398909924514" lon="13.189144024902204"><ele>309.0</ele><time>2026-05-03T10:18:55Z</time></trkpt><trkpt lat="43.143880851894984" lon="13.188865523623369"><ele>310.5</ele><time>2026-05-03T10:18:56Z</time></trkpt><trkpt lat="43.14376126183929" lon="13.188599197606317"><ele>312.0</ele><time>2026-05-03T10:18:57Z</time></trkpt><trkpt lat="43.143628172693276" lon="13.188334768619308"><ele>313.0</ele><time>2026-05-03T10:18:58Z</time></trkpt><trkpt lat="43.143486187988174" lon="13.188075786218848"><ele>314.0</ele><time>2026-05-03T10:18:59Z</time></trkpt><trkpt lat="43.14333651752582" lon="13.187821238744018"><ele>309.5</ele><time>2026-05-03T10:19:00Z</time></trkpt><trkpt lat="43.14318269448665" lon="13.187571031504856"><ele>305.0</ele><time>2026-05-03T10:19:01Z</time></trkpt><trkpt lat="43.14303190449393" lon="13.187314967853313"><ele>305.0</ele><time>2026-05-03T10:19:02Z</time></trkpt><trkpt lat="43.14287857041314" lon="13.18705760223858"><ele>305.0</ele><time>2026-05-03T10:19:03Z</time></trkpt><trkpt lat="43.142723832228256" lon="13.186802000739826"><ele>305.0</ele><time>2026-05-03T10:19:04Z</time></trkpt><trkpt lat="43.14257042394445" lon="13.186537579766489"><ele>305.0</ele><time>2026-05-03T10:19:05Z</time></trkpt><trkpt lat="43.14242191928878" lon="13.186268717642156"><ele>302.5</ele><time>2026-05-03T10:19:06Z</time></trkpt><trkpt lat="43.14227821129489" lon="13.18598996098964"><ele>300.0</ele><time>2026-05-03T10:19:07Z</time></trkpt><trkpt lat="43.14213688503577" lon="13.185706010853897"><ele>303.5</ele><time>2026-05-03T10:19:08Z</time></trkpt><trkpt lat="43.14200311750967" lon="13.18541608011845"><ele>307.0</ele><time>2026-05-03T10:19:09Z</time></trkpt><trkpt lat="43.14187463648489" lon="13.185121001884893"><ele>313.5</ele><time>2026-05-03T10:19:10Z</time></trkpt><trkpt lat="43.141754283626625" lon="13.1848229409609"><ele>320.0</ele><time>2026-05-03T10:19:11Z</time></trkpt><trkpt lat="43.14163661378974" lon="13.184516578108985"><ele>310.5</ele><time>2026-05-03T10:19:12Z</time></trkpt><trkpt lat="43.141526747764985" lon="13.1842093401166"><ele>301.0</ele><time>2026-05-03T10:19:13Z</time></trkpt><trkpt lat="43.141423424864364" lon="13.18389830381034"><ele>301.0</ele><time>2026-05-03T10:19:14Z</time></trkpt><trkpt lat="43.14132616694874" lon="13.183585547141954"><ele>301.0</ele><time>2026-05-03T10:19:15Z</time></trkpt><trkpt lat="43.14123664718794" lon="13.183267366018166"><ele>304.5</ele><time>2026-05-03T10:19:16Z</time></trkpt><trkpt lat="43.141155629291106" lon="13.182948685342426"><ele>308.0</ele><time>2026-05-03T10:19:17Z</time></trkpt><trkpt lat="43.14107813689385" lon="13.182627499967781"><ele>313.0</ele><time>2026-05-03T10:19:18Z</time></trkpt><trkpt lat="43.141000198909715" lon="13.182310150173961"><ele>318.0</ele><time>2026-05-03T10:19:19Z</time></trkpt><trkpt lat="43.14092322473892" lon="13.181996665197357"><ele>318.0</ele><time>2026-05-03T10:19:20Z</time></trkpt><trkpt lat="43.14084505296775" lon="13.18168503822463"><ele>318.0</ele><time>2026-05-03T10:19:21Z</time></trkpt><trkpt lat="43.14076750777611" lon="13.18137685195209"><ele>308.5</ele><time>2026-05-03T10:19:22Z</time></trkpt><trkpt lat="43.14068831394758" lon="13.181071432335099"><ele>299.0</ele><time>2026-05-03T10:19:23Z</time></trkpt><trkpt lat="43.14060899530007" lon="13.180761697159172"><ele>301.0</ele><time>2026-05-03T10:19:24Z</time></trkpt><trkpt lat="43.14052212907603" lon="13.180458884176575"><ele>303.0</ele><time>2026-05-03T10:19:25Z</time></trkpt><trkpt lat="43.14042564108528" lon="13.180162745086927"><ele>303.0</ele><time>2026-05-03T10:19:26Z</time></trkpt><trkpt lat="43.14031725836509" lon="13.179873780158069"><ele>303.0</ele><time>2026-05-03T10:19:27Z</time></trkpt><trkpt lat="43.140200340059245" lon="13.179589518406827"><ele>306.0</ele><time>2026-05-03T10:19:28Z</time></trkpt><trkpt lat="43.14006975352174" lon="13.179314310022447"><ele>309.0</ele><time>2026-05-03T10:19:29Z</time></trkpt><trkpt lat="43.13993459024743" lon="13.17904518157857"><ele>304.5</ele><time>2026-05-03T10:19:30Z</time></trkpt><trkpt lat="43.13979338752374" lon="13.178779667302736"><ele>300.0</ele><time>2026-05-03T10:19:31.001Z</time></trkpt><trkpt lat="43.139645981724584" lon="13.178513197240909"><ele>300.0</ele><time>2026-05-03T10:19:32.001Z</time></trkpt><trkpt lat="43.13949640152861" lon="13.17824516408557"><ele>300.0</ele><time>2026-05-03T10:19:33.001Z</time></trkpt><trkpt lat="43.13935046949087" lon="13.177971872626628"><ele>301.0</ele><time>2026-05-03T10:19:34.001Z</time></trkpt><trkpt lat="43.13920643769828" lon="13.177689308838643"><ele>302.0</ele><time>2026-05-03T10:19:35.001Z</time></trkpt><trkpt lat="43.13906671303416" lon="13.17740041152839"><ele>300.5</ele><time>2026-05-03T10:19:36.001Z</time></trkpt><trkpt lat="43.138930293854635" lon="13.177112914961649"><ele>299.0</ele><time>2026-05-03T10:19:37.001Z</time></trkpt><trkpt lat="43.138805582722206" lon="13.176806824470956"><ele>300.0</ele><time>2026-05-03T10:19:38.001Z</time></trkpt><trkpt lat="43.13868425417675" lon="13.17650818293072"><ele>301.0</ele><time>2026-05-03T10:19:39.001Z</time></trkpt><trkpt lat="43.13857357671047" lon="13.176197018670809"><ele>301.0</ele><time>2026-05-03T10:19:40.001Z</time></trkpt><trkpt lat="43.138474884427914" lon="13.175881049720715"><ele>301.0</ele><time>2026-05-03T10:19:41.001Z</time></trkpt><trkpt lat="43.13839127580235" lon="13.17555389617922"><ele>302.5</ele><time>2026-05-03T10:19:42.001Z</time></trkpt><trkpt lat="43.1383197713927" lon="13.175224152498709"><ele>304.0</ele><time>2026-05-03T10:19:43.001Z</time></trkpt><trkpt lat="43.138256730647534" lon="13.17489818417606"><ele>303.5</ele><time>2026-05-03T10:19:44.001Z</time></trkpt><trkpt lat="43.13820148513771" lon="13.17457444355639"><ele>303.0</ele><time>2026-05-03T10:19:45.001Z</time></trkpt><trkpt lat="43.138151048724936" lon="13.174250987889932"><ele>306.0</ele><time>2026-05-03T10:19:46Z</time></trkpt><trkpt lat="43.13810442573354" lon="13.173924384661674"><ele>309.0</ele><time>2026-05-03T10:19:47Z</time></trkpt><trkpt lat="43.138051748075675" lon="13.173604693935292"><ele>309.0</ele><time>2026-05-03T10:19:48Z</time></trkpt><trkpt lat="43.137999749007605" lon="13.17328635889488"><ele>309.0</ele><time>2026-05-03T10:19:49Z</time></trkpt><trkpt lat="43.137952774546335" lon="13.172975871647774"><ele>310.5</ele><time>2026-05-03T10:19:50Z</time></trkpt><trkpt lat="43.13791241480238" lon="13.17266350445892"><ele>312.0</ele><time>2026-05-03T10:19:51Z</time></trkpt><trkpt lat="43.13787400994053" lon="13.172353366356402"><ele>314.0</ele><time>2026-05-03T10:19:52Z</time></trkpt><trkpt lat="43.13783574053183" lon="13.172043732373854"><ele>316.0</ele><time>2026-05-03T10:19:53Z</time></trkpt><trkpt lat="43.137799931843176" lon="13.171729925644184"><ele>315.0</ele><time>2026-05-03T10:19:54Z</time></trkpt><trkpt lat="43.13776395060638" lon="13.171411305647087"><ele>314.0</ele><time>2026-05-03T10:19:55Z</time></trkpt><trkpt lat="43.13773103279482" lon="13.171083964171483"><ele>314.0</ele><time>2026-05-03T10:19:56Z</time></trkpt><trkpt lat="43.137698141834264" lon="13.170753478447548"><ele>314.0</ele><time>2026-05-03T10:19:57Z</time></trkpt><trkpt lat="43.137670839429646" lon="13.170420009195277"><ele>312.5</ele><time>2026-05-03T10:19:58Z</time></trkpt><trkpt lat="43.13765599410562" lon="13.170086408223277"><ele>311.0</ele><time>2026-05-03T10:19:59Z</time></trkpt><trkpt lat="43.13765390158528" lon="13.169751308150582"><ele>310.5</ele><time>2026-05-03T10:20:00Z</time></trkpt><trkpt lat="43.13766211430818" lon="13.169415439030779"><ele>310.0</ele><time>2026-05-03T10:20:01Z</time></trkpt><trkpt lat="43.13768217372808" lon="13.16907552814596"><ele>309.5</ele><time>2026-05-03T10:20:02Z</time></trkpt><trkpt lat="43.1377146382642" lon="13.168734792190214"><ele>309.0</ele><time>2026-05-03T10:20:03Z</time></trkpt><trkpt lat="43.13775675171708" lon="13.168398044563707"><ele>308.5</ele><time>2026-05-03T10:20:04Z</time></trkpt><trkpt lat="43.1378144045878" lon="13.16806133389774"><ele>308.0</ele><time>2026-05-03T10:20:05Z</time></trkpt><trkpt lat="43.137876966686264" lon="13.167730268194775"><ele>308.0</ele><time>2026-05-03T10:20:06Z</time></trkpt><trkpt lat="43.137950787458486" lon="13.1674121841154"><ele>308.0</ele><time>2026-05-03T10:20:07Z</time></trkpt><trkpt lat="43.1380278931026" lon="13.167095004030415"><ele>307.5</ele><time>2026-05-03T10:20:08Z</time></trkpt><trkpt lat="43.13810738527104" lon="13.166779124230775"><ele>307.0</ele><time>2026-05-03T10:20:09Z</time></trkpt><trkpt lat="43.13818315385037" lon="13.166464050269509"><ele>324.0</ele><time>2026-05-03T10:20:10Z</time></trkpt><trkpt lat="43.13826097640912" lon="13.166145362563896"><ele>341.0</ele><time>2026-05-03T10:20:11Z</time></trkpt><trkpt lat="43.13834430874414" lon="13.165798290283142"><ele>345.0</ele><time>2026-05-03T10:20:12.076Z</time></trkpt><trkpt lat="43.13842642261153" lon="13.165482998821096"><ele>349.0</ele><time>2026-05-03T10:20:13.069Z</time></trkpt><trkpt lat="43.13850645869399" lon="13.16517105203929"><ele>308.0</ele><time>2026-05-03T10:20:14.064Z</time></trkpt><trkpt lat="43.137609017201086" lon="13.159854909187212"><ele>308.0</ele><time>2026-05-03T10:20:32Z</time></trkpt><trkpt lat="43.13754572711356" lon="13.159564198997318"><ele>308.0</ele><time>2026-05-03T10:20:33Z</time></trkpt><trkpt lat="43.13742362996656" lon="13.159317532889519"><ele>308.0</ele><time>2026-05-03T10:20:34Z</time></trkpt><trkpt lat="43.13732234217921" lon="13.159084940544783"><ele>314.33333333333337</ele><time>2026-05-03T10:20:35Z</time></trkpt><trkpt lat="43.13724156762419" lon="13.158854103700467"><ele>320.6666666666667</ele><time>2026-05-03T10:20:36Z</time></trkpt><trkpt lat="43.13715861480235" lon="13.158620756919552"><ele>327.0</ele><time>2026-05-03T10:20:37Z</time></trkpt><trkpt lat="43.13707306621144" lon="13.158394821831521"><ele>325.0</ele><time>2026-05-03T10:20:38Z</time></trkpt><trkpt lat="43.136992916521876" lon="13.158167140204164"><ele>323.0</ele><time>2026-05-03T10:20:39Z</time></trkpt><trkpt lat="43.136919409248414" lon="13.157940739353617"><ele>321.0</ele><time>2026-05-03T10:20:40Z</time></trkpt><trkpt lat="43.136844563381345" lon="13.15768617121713"><ele>321.0</ele><time>2026-05-03T10:20:41Z</time></trkpt><trkpt lat="43.13674008445034" lon="13.157452424926687"><ele>321.0</ele><time>2026-05-03T10:20:42Z</time></trkpt><trkpt lat="43.13665536635987" lon="13.157213841321619"><ele>321.0</ele><time>2026-05-03T10:20:43Z</time></trkpt><trkpt lat="43.13657295956267" lon="13.156976126413815"><ele>320.6666666666667</ele><time>2026-05-03T10:20:44Z</time></trkpt><trkpt lat="43.13648227133893" lon="13.15673982089353"><ele>320.33333333333337</ele><time>2026-05-03T10:20:45Z</time></trkpt><trkpt lat="43.13639492420462" lon="13.15650270750809"><ele>320.0</ele><time>2026-05-03T10:20:46Z</time></trkpt><trkpt lat="43.13630046868004" lon="13.156269887089195"><ele>318.0</ele><time>2026-05-03T10:20:47Z</time></trkpt><trkpt lat="43.136205202592855" lon="13.156037730614049"><ele>316.0</ele><time>2026-05-03T10:20:48Z</time></trkpt><trkpt lat="43.13611084469362" lon="13.155805021929446"><ele>314.0</ele><time>2026-05-03T10:20:49Z</time></trkpt><trkpt lat="43.13602299499494" lon="13.155564469200163"><ele>314.0</ele><time>2026-05-03T10:20:50Z</time></trkpt><trkpt lat="43.13593403796913" lon="13.155322465844531"><ele>314.0</ele><time>2026-05-03T10:20:51Z</time></trkpt><trkpt lat="43.13584405748689" lon="13.1550889367407"><ele>314.0</ele><time>2026-05-03T10:20:52Z</time></trkpt><trkpt lat="43.13575033675545" lon="13.154857877693809"><ele>314.0</ele><time>2026-05-03T10:20:53Z</time></trkpt><trkpt lat="43.13565980284281" lon="13.154621854563684"><ele>314.0</ele><time>2026-05-03T10:20:54Z</time></trkpt><trkpt lat="43.135574517583045" lon="13.154379960655687"><ele>314.0</ele><time>2026-05-03T10:20:55Z</time></trkpt><trkpt lat="43.13549411517547" lon="13.154130848342852"><ele>314.33333333333337</ele><time>2026-05-03T10:20:56Z</time></trkpt><trkpt lat="43.13541675207965" lon="13.153886816620943"><ele>314.6666666666667</ele><time>2026-05-03T10:20:57Z</time></trkpt><trkpt lat="43.13535042561653" lon="13.153620473794092"><ele>315.0</ele><time>2026-05-03T10:20:58Z</time></trkpt><trkpt lat="43.13529178296402" lon="13.153359160393137"><ele>315.6666666666667</ele><time>2026-05-03T10:20:59Z</time></trkpt><trkpt lat="43.13523706650452" lon="13.15309968296623"><ele>316.33333333333337</ele><time>2026-05-03T10:21:00Z</time></trkpt><trkpt lat="43.1351883583927" lon="13.152826613357753"><ele>317.0</ele><time>2026-05-03T10:21:01Z</time></trkpt><trkpt lat="43.13514773526629" lon="13.152542046870542"><ele>317.33333333333337</ele><time>2026-05-03T10:21:02Z</time></trkpt><trkpt lat="43.13511562252656" lon="13.152250101859018"><ele>317.6666666666667</ele><time>2026-05-03T10:21:03Z</time></trkpt><trkpt lat="43.135087271653255" lon="13.151959520277252"><ele>318.0</ele><time>2026-05-03T10:21:04Z</time></trkpt><trkpt lat="43.135067164026246" lon="13.151667606475574"><ele>317.6666666666667</ele><time>2026-05-03T10:21:05Z</time></trkpt><trkpt lat="43.13505296293748" lon="13.15137640088015"><ele>317.33333333333337</ele><time>2026-05-03T10:21:06Z</time></trkpt><trkpt lat="43.135037002929714" lon="13.151081689681146"><ele>317.0</ele><time>2026-05-03T10:21:07Z</time></trkpt><trkpt lat="43.13502241022597" lon="13.15078720519678"><ele>317.6666666666667</ele><time>2026-05-03T10:21:08Z</time></trkpt><trkpt lat="43.13500653300832" lon="13.150492239253582"><ele>318.3333333333333</ele><time>2026-05-03T10:21:09Z</time></trkpt><trkpt lat="43.13498744298822" lon="13.150194310192367"><ele>319.0</ele><time>2026-05-03T10:21:10Z</time></trkpt><trkpt lat="43.134968537307536" lon="13.149895068066845"><ele>320.0</ele><time>2026-05-03T10:21:11Z</time></trkpt><trkpt lat="43.13495165921902" lon="13.14959624078952"><ele>321.0</ele><time>2026-05-03T10:21:12Z</time></trkpt><trkpt lat="43.134931134521715" lon="13.149295231074397"><ele>322.0</ele><time>2026-05-03T10:21:13Z</time></trkpt><trkpt lat="43.134908458450454" lon="13.148997326398367"><ele>321.3333333333333</ele><time>2026-05-03T10:21:14Z</time></trkpt><trkpt lat="43.13488717537182" lon="13.148698658397949"><ele>320.6666666666667</ele><time>2026-05-03T10:21:15Z</time></trkpt><trkpt lat="43.13485529028333" lon="13.148403251971489"><ele>320.0</ele><time>2026-05-03T10:21:16Z</time></trkpt><trkpt lat="43.13481895855859" lon="13.148110549163754"><ele>319.33333333333337</ele><time>2026-05-03T10:21:17Z</time></trkpt><trkpt lat="43.13477720158166" lon="13.14781342851778"><ele>318.6666666666667</ele><time>2026-05-03T10:21:18Z</time></trkpt><trkpt lat="43.13472519571685" lon="13.147524343722084"><ele>318.0</ele><time>2026-05-03T10:21:19Z</time></trkpt><trkpt lat="43.13465198962527" lon="13.147250121974114"><ele>318.0</ele><time>2026-05-03T10:21:20Z</time></trkpt><trkpt lat="43.134573561427835" lon="13.146965967744887"><ele>318.0</ele><time>2026-05-03T10:21:21Z</time></trkpt><trkpt lat="43.13448680128261" lon="13.14668977253733"><ele>318.0</ele><time>2026-05-03T10:21:22Z</time></trkpt><trkpt lat="43.134390118043356" lon="13.146412848368827"><ele>318.0</ele><time>2026-05-03T10:21:23Z</time></trkpt><trkpt lat="43.134285949790424" lon="13.14614405759256"><ele>318.0</ele><time>2026-05-03T10:21:24Z</time></trkpt><trkpt lat="43.134163661598286" lon="13.145881967522946"><ele>318.0</ele><time>2026-05-03T10:21:25Z</time></trkpt><trkpt lat="43.13404214425678" lon="13.145627313079563"><ele>319.0</ele><time>2026-05-03T10:21:26Z</time></trkpt><trkpt lat="43.13391261678258" lon="13.145364327650832"><ele>320.0</ele><time>2026-05-03T10:21:27Z</time></trkpt><trkpt lat="43.13378383350798" lon="13.145099138531206"><ele>323.0</ele><time>2026-05-03T10:21:28Z</time></trkpt><trkpt lat="43.133652106292914" lon="13.144837423937261"><ele>326.0</ele><time>2026-05-03T10:21:29Z</time></trkpt><trkpt lat="43.133521276031914" lon="13.144579958318449"><ele>326.0</ele><time>2026-05-03T10:21:30Z</time></trkpt><trkpt lat="43.13338607952651" lon="13.144325101184371"><ele>326.0</ele><time>2026-05-03T10:21:31Z</time></trkpt><trkpt lat="43.133248965071914" lon="13.144068606792384"><ele>324.5</ele><time>2026-05-03T10:21:32Z</time></trkpt><trkpt lat="43.13310993907039" lon="13.143818887693817"><ele>323.0</ele><time>2026-05-03T10:21:33Z</time></trkpt><trkpt lat="43.13296419062323" lon="13.143577817030724"><ele>323.0</ele><time>2026-05-03T10:21:34Z</time></trkpt><trkpt lat="43.132813716298294" lon="13.14335126451464"><ele>323.0</ele><time>2026-05-03T10:21:35Z</time></trkpt><trkpt lat="43.13265373681967" lon="13.143129742336455"><ele>323.0</ele><time>2026-05-03T10:21:36Z</time></trkpt><trkpt lat="43.13248703764589" lon="13.142917351102113"><ele>323.0</ele><time>2026-05-03T10:21:37Z</time></trkpt><trkpt lat="43.13231425314361" lon="13.142710595749671"><ele>323.0</ele><time>2026-05-03T10:21:38Z</time></trkpt><trkpt lat="43.13213633835458" lon="13.142510407041312"><ele>323.0</ele><time>2026-05-03T10:21:39Z</time></trkpt><trkpt lat="43.1319547348059" lon="13.142316842509937"><ele>327.5</ele><time>2026-05-03T10:21:40Z</time></trkpt><trkpt lat="43.131772486896" lon="13.142127944342302"><ele>332.0</ele><time>2026-05-03T10:21:41Z</time></trkpt><trkpt lat="43.131588997005046" lon="13.141936954506832"><ele>330.5</ele><time>2026-05-03T10:21:42Z</time></trkpt><trkpt lat="43.13140507187162" lon="13.141751012431977"><ele>329.0</ele><time>2026-05-03T10:21:43Z</time></trkpt><trkpt lat="43.13122151197234" lon="13.141564550211942"><ele>328.5</ele><time>2026-05-03T10:21:44Z</time></trkpt><trkpt lat="43.13103531507503" lon="13.141374278305708"><ele>328.0</ele><time>2026-05-03T10:21:45Z</time></trkpt><trkpt lat="43.130849160017256" lon="13.141187262501093"><ele>326.5</ele><time>2026-05-03T10:21:46Z</time></trkpt><trkpt lat="43.1306631294177" lon="13.141000552895447"><ele>325.0</ele><time>2026-05-03T10:21:47Z</time></trkpt><trkpt lat="43.13047616649727" lon="13.140814812390829"><ele>331.5</ele><time>2026-05-03T10:21:48Z</time></trkpt><trkpt lat="43.130289116710436" lon="13.140626889556778"><ele>338.0</ele><time>2026-05-03T10:21:49Z</time></trkpt><trkpt lat="43.13010365491221" lon="13.140437891296692"><ele>338.0</ele><time>2026-05-03T10:21:50Z</time></trkpt><trkpt lat="43.12991755233366" lon="13.14025406407261"><ele>338.0</ele><time>2026-05-03T10:21:51Z</time></trkpt><trkpt lat="43.1297287694184" lon="13.140074571291603"><ele>337.5</ele><time>2026-05-03T10:21:52Z</time></trkpt><trkpt lat="43.12964858699739" lon="13.13967176333307"><ele>337.0</ele><time>2026-05-03T10:21:53Z</time></trkpt><trkpt lat="43.12945585358206" lon="13.139495572157537"><ele>337.0</ele><time>2026-05-03T10:21:54Z</time></trkpt><trkpt lat="43.12926265980889" lon="13.139318960049215"><ele>337.0</ele><time>2026-05-03T10:21:55Z</time></trkpt><trkpt lat="43.129062879241445" lon="13.139151620635602"><ele>331.5</ele><time>2026-05-03T10:21:56Z</time></trkpt><trkpt lat="43.1288679738916" lon="13.138989364031469"><ele>326.0</ele><time>2026-05-03T10:21:57Z</time></trkpt><trkpt lat="43.12858171725204" lon="13.138995126814336"><ele>326.0</ele><time>2026-05-03T10:21:58Z</time></trkpt><trkpt lat="43.12838776254692" lon="13.138815510251979"><ele>326.0</ele><time>2026-05-03T10:21:59Z</time></trkpt><trkpt lat="43.128193927296" lon="13.138640772968655"><ele>332.0</ele><time>2026-05-03T10:22:00Z</time></trkpt><trkpt lat="43.128001627730335" lon="13.138461906204418"><ele>338.0</ele><time>2026-05-03T10:22:01Z</time></trkpt><trkpt lat="43.12780667098241" lon="13.138284625515887"><ele>332.5</ele><time>2026-05-03T10:22:02Z</time></trkpt><trkpt lat="43.12761178661446" lon="13.138104545335137"><ele>327.0</ele><time>2026-05-03T10:22:03Z</time></trkpt><trkpt lat="43.12741487359804" lon="13.137934783483818"><ele>342.5</ele><time>2026-05-03T10:22:04Z</time></trkpt><trkpt lat="43.12722595584701" lon="13.137752078206445"><ele>358.0</ele><time>2026-05-03T10:22:05Z</time></trkpt><trkpt lat="43.12703242882759" lon="13.137576927968937"><ele>358.0</ele><time>2026-05-03T10:22:06Z</time></trkpt><trkpt lat="43.12684065934027" lon="13.13739638315379"><ele>358.0</ele><time>2026-05-03T10:22:07Z</time></trkpt><trkpt lat="43.126647162725206" lon="13.137216626322838"><ele>360.0</ele><time>2026-05-03T10:22:08Z</time></trkpt><trkpt lat="43.12645563602352" lon="13.137033767489122"><ele>362.0</ele><time>2026-05-03T10:22:09Z</time></trkpt><trkpt lat="43.126264434135045" lon="13.13685985201656"><ele>362.0</ele><time>2026-05-03T10:22:10Z</time></trkpt><trkpt lat="43.12607189007066" lon="13.13667585110158"><ele>362.0</ele><time>2026-05-03T10:22:11Z</time></trkpt><trkpt lat="43.12587880634966" lon="13.13649269459738"><ele>347.5</ele><time>2026-05-03T10:22:12Z</time></trkpt><trkpt lat="43.125684750315216" lon="13.136305855738504"><ele>333.0</ele><time>2026-05-03T10:22:13Z</time></trkpt><trkpt lat="43.12547437075813" lon="13.136107453443586"><ele>333.0</ele><time>2026-05-03T10:22:14.068Z</time></trkpt><trkpt lat="43.12511296014258" lon="13.13580860067113"><ele>333.0</ele><time>2026-05-03T10:22:16Z</time></trkpt><trkpt lat="43.12492755626158" lon="13.13564137211045"><ele>336.0</ele><time>2026-05-03T10:22:17Z</time></trkpt><trkpt lat="43.12474001029472" lon="13.13546906058213"><ele>339.0</ele><time>2026-05-03T10:22:18Z</time></trkpt><trkpt lat="43.12455715210503" lon="13.135300138774218"><ele>342.0</ele><time>2026-05-03T10:22:19Z</time></trkpt><trkpt lat="43.12438708738036" lon="13.135129164113568"><ele>342.0</ele><time>2026-05-03T10:22:20Z</time></trkpt><trkpt lat="43.12422110926579" lon="13.134959477153279"><ele>342.0</ele><time>2026-05-03T10:22:21Z</time></trkpt><trkpt lat="43.12400697964263" lon="13.134845128187456"><ele>342.0</ele><time>2026-05-03T10:22:22Z</time></trkpt><trkpt lat="43.12380409233516" lon="13.134632730716515"><ele>347.5</ele><time>2026-05-03T10:22:23Z</time></trkpt><trkpt lat="43.12362116024521" lon="13.134460548808176"><ele>353.0</ele><time>2026-05-03T10:22:24Z</time></trkpt><trkpt lat="43.123427492580994" lon="13.134294546368574"><ele>358.0</ele><time>2026-05-03T10:22:25Z</time></trkpt><trkpt lat="43.12322972879725" lon="13.134150494099154"><ele>363.0</ele><time>2026-05-03T10:22:26Z</time></trkpt><trkpt lat="43.12302319706933" lon="13.13400042603002"><ele>385.0</ele><time>2026-05-03T10:22:27Z</time></trkpt><trkpt lat="43.12281541823526" lon="13.133861225076489"><ele>407.0</ele><time>2026-05-03T10:22:28Z</time></trkpt><trkpt lat="43.12260803105591" lon="13.133723929316565"><ele>407.0</ele><time>2026-05-03T10:22:29Z</time></trkpt><trkpt lat="43.122403154868344" lon="13.133582689381171"><ele>407.0</ele><time>2026-05-03T10:22:30Z</time></trkpt><trkpt lat="43.122198361876535" lon="13.133441897933738"><ele>403.0</ele><time>2026-05-03T10:22:31Z</time></trkpt><trkpt lat="43.1219841755721" lon="13.13329598592402"><ele>399.0</ele><time>2026-05-03T10:22:32.057Z</time></trkpt><trkpt lat="43.12178048537518" lon="13.133162951746726"><ele>399.0</ele><time>2026-05-03T10:22:33.051Z</time></trkpt><trkpt lat="43.12157157461094" lon="13.13303334004843"><ele>399.0</ele><time>2026-05-03T10:22:34.049Z</time></trkpt><trkpt lat="43.12136135924386" lon="13.132914643790379"><ele>377.0</ele><time>2026-05-03T10:22:35.045Z</time></trkpt><trkpt lat="43.121151008227" lon="13.132780384067654"><ele>355.0</ele><time>2026-05-03T10:22:36.047Z</time></trkpt><trkpt lat="43.12094551429693" lon="13.132653347591912"><ele>339.0</ele><time>2026-05-03T10:22:37.03Z</time></trkpt><trkpt lat="43.11985949021961" lon="13.132242728643279"><ele>339.0</ele><time>2026-05-03T10:22:41Z</time></trkpt><trkpt lat="43.11967432699717" lon="13.132058001989096"><ele>339.0</ele><time>2026-05-03T10:22:42Z</time></trkpt><trkpt lat="43.11944431942789" lon="13.13191955679251"><ele>339.0</ele><time>2026-05-03T10:22:43Z</time></trkpt><trkpt lat="43.11921838495249" lon="13.13178813894256"><ele>339.0</ele><time>2026-05-03T10:22:44Z</time></trkpt><trkpt lat="43.118996241606176" lon="13.131654532938873"><ele>339.0</ele><time>2026-05-03T10:22:45Z</time></trkpt><trkpt lat="43.118767594496134" lon="13.131522770755765"><ele>339.0</ele><time>2026-05-03T10:22:46Z</time></trkpt><trkpt lat="43.118540374660434" lon="13.131395853699624"><ele>339.0</ele><time>2026-05-03T10:22:47Z</time></trkpt><trkpt lat="43.118313504171404" lon="13.13126381190229"><ele>339.0</ele><time>2026-05-03T10:22:48Z</time></trkpt><trkpt lat="43.118086610860296" lon="13.131134231220448"><ele>339.0</ele><time>2026-05-03T10:22:49Z</time></trkpt><trkpt lat="43.11785687510152" lon="13.131008301870391"><ele>339.0</ele><time>2026-05-03T10:22:50Z</time></trkpt><trkpt lat="43.11762758514451" lon="13.130884501946479"><ele>339.0</ele><time>2026-05-03T10:22:51Z</time></trkpt><trkpt lat="43.11739952442323" lon="13.13075534831"><ele>339.0</ele><time>2026-05-03T10:22:52Z</time></trkpt><trkpt lat="43.11716655509439" lon="13.130630116142468"><ele>339.0</ele><time>2026-05-03T10:22:53Z</time></trkpt><trkpt lat="43.11693389835625" lon="13.130510192230187"><ele>339.0</ele><time>2026-05-03T10:22:54Z</time></trkpt><trkpt lat="43.11670308548114" lon="13.130401483939368"><ele>339.0</ele><time>2026-05-03T10:22:55Z</time></trkpt><trkpt lat="43.1164686515678" lon="13.130288286732815"><ele>339.0</ele><time>2026-05-03T10:22:56Z</time></trkpt><trkpt lat="43.116230373002544" lon="13.130195749516366"><ele>339.0</ele><time>2026-05-03T10:22:57Z</time></trkpt><trkpt lat="43.1159933462112" lon="13.13011814513612"><ele>339.0</ele><time>2026-05-03T10:22:58Z</time></trkpt><trkpt lat="43.11575180334166" lon="13.130047372045288"><ele>339.5</ele><time>2026-05-03T10:22:59Z</time></trkpt><trkpt lat="43.11550658384851" lon="13.129989803843687"><ele>340.0</ele><time>2026-05-03T10:23:00Z</time></trkpt><trkpt lat="43.115265813840836" lon="13.129951269707412"><ele>340.0</ele><time>2026-05-03T10:23:01Z</time></trkpt><trkpt lat="43.11501843727432" lon="13.129913382491162"><ele>340.0</ele><time>2026-05-03T10:23:02Z</time></trkpt><trkpt lat="43.114771586646306" lon="13.129887018091006"><ele>341.0</ele><time>2026-05-03T10:23:03Z</time></trkpt><trkpt lat="43.11452415892998" lon="13.129871926964453"><ele>342.0</ele><time>2026-05-03T10:23:04Z</time></trkpt><trkpt lat="43.114277614772085" lon="13.12987367108376"><ele>342.0</ele><time>2026-05-03T10:23:05Z</time></trkpt><trkpt lat="43.11402929002116" lon="13.129883517713909"><ele>342.0</ele><time>2026-05-03T10:23:06Z</time></trkpt><trkpt lat="43.11378301163346" lon="13.129900546346136"><ele>342.5</ele><time>2026-05-03T10:23:07Z</time></trkpt><trkpt lat="43.11353598502536" lon="13.129918111753616"><ele>343.0</ele><time>2026-05-03T10:23:08Z</time></trkpt><trkpt lat="43.113290527589754" lon="13.129932141982652"><ele>344.0</ele><time>2026-05-03T10:23:09Z</time></trkpt><trkpt lat="43.11304274119191" lon="13.129945194322348"><ele>345.0</ele><time>2026-05-03T10:23:10Z</time></trkpt><trkpt lat="43.112795450664585" lon="13.129954549838768"><ele>345.0</ele><time>2026-05-03T10:23:11Z</time></trkpt><trkpt lat="43.11254953452467" lon="13.129963469976142"><ele>345.0</ele><time>2026-05-03T10:23:12Z</time></trkpt><trkpt lat="43.11230139482624" lon="13.12996359462744"><ele>346.0</ele><time>2026-05-03T10:23:13Z</time></trkpt><trkpt lat="43.11205456128275" lon="13.129968348017679"><ele>347.0</ele><time>2026-05-03T10:23:14Z</time></trkpt><trkpt lat="43.111808685584364" lon="13.129963361926443"><ele>349.0</ele><time>2026-05-03T10:23:15Z</time></trkpt><trkpt lat="43.111560360654266" lon="13.129943530056677"><ele>351.0</ele><time>2026-05-03T10:23:16Z</time></trkpt><trkpt lat="43.111314977574324" lon="13.129928096566095"><ele>351.0</ele><time>2026-05-03T10:23:17Z</time></trkpt><trkpt lat="43.11106969749929" lon="13.129913946730625"><ele>351.0</ele><time>2026-05-03T10:23:18Z</time></trkpt><trkpt lat="43.11082313270922" lon="13.129894851412523"><ele>347.5</ele><time>2026-05-03T10:23:19Z</time></trkpt><trkpt lat="43.11057814975278" lon="13.129881581606657"><ele>344.0</ele><time>2026-05-03T10:23:20Z</time></trkpt><trkpt lat="43.110331962370815" lon="13.129867741659574"><ele>344.0</ele><time>2026-05-03T10:23:21Z</time></trkpt><trkpt lat="43.11008497116029" lon="13.12984811459256"><ele>344.0</ele><time>2026-05-03T10:23:22Z</time></trkpt><trkpt lat="43.109836200914785" lon="13.12983647039566"><ele>346.0</ele><time>2026-05-03T10:23:23Z</time></trkpt><trkpt lat="43.10958626781863" lon="13.129820919838995"><ele>348.0</ele><time>2026-05-03T10:23:24Z</time></trkpt><trkpt lat="43.10933997636394" lon="13.129811857393742"><ele>348.0</ele><time>2026-05-03T10:23:25Z</time></trkpt><trkpt lat="43.10909330747417" lon="13.129794322783663"><ele>348.0</ele><time>2026-05-03T10:23:26Z</time></trkpt><trkpt lat="43.10884674418287" lon="13.129780411136407"><ele>351.0</ele><time>2026-05-03T10:23:27Z</time></trkpt><trkpt lat="43.108601057251434" lon="13.129765560890833"><ele>354.0</ele><time>2026-05-03T10:23:28Z</time></trkpt><trkpt lat="43.10835473975195" lon="13.12974848773612"><ele>355.0</ele><time>2026-05-03T10:23:29Z</time></trkpt><trkpt lat="43.10810792556926" lon="13.129729521450844"><ele>356.0</ele><time>2026-05-03T10:23:30Z</time></trkpt><trkpt lat="43.10786255069842" lon="13.12971262016211"><ele>356.0</ele><time>2026-05-03T10:23:31Z</time></trkpt><trkpt lat="43.10761832143242" lon="13.129696432109284"><ele>356.0</ele><time>2026-05-03T10:23:32Z</time></trkpt><trkpt lat="43.107370923541595" lon="13.12968170180836"><ele>355.5</ele><time>2026-05-03T10:23:33Z</time></trkpt><trkpt lat="43.10712225304712" lon="13.129668389195865"><ele>355.0</ele><time>2026-05-03T10:23:34Z</time></trkpt><trkpt lat="43.106874426460244" lon="13.129649259944912"><ele>355.0</ele><time>2026-05-03T10:23:35Z</time></trkpt><trkpt lat="43.106628848157335" lon="13.129640377332088"><ele>355.0</ele><time>2026-05-03T10:23:36Z</time></trkpt><trkpt lat="43.10638360777691" lon="13.129622241483105"><ele>356.0</ele><time>2026-05-03T10:23:37Z</time></trkpt><trkpt lat="43.10614111692823" lon="13.129607974825921"><ele>357.0</ele><time>2026-05-03T10:23:38Z</time></trkpt><trkpt lat="43.105894945819756" lon="13.12958760234623"><ele>358.5</ele><time>2026-05-03T10:23:39Z</time></trkpt><trkpt lat="43.105648298083885" lon="13.129572347182123"><ele>360.0</ele><time>2026-05-03T10:23:40Z</time></trkpt><trkpt lat="43.10540085443773" lon="13.129549400567628"><ele>360.0</ele><time>2026-05-03T10:23:41Z</time></trkpt><trkpt lat="43.10515172780582" lon="13.1295315285337"><ele>360.0</ele><time>2026-05-03T10:23:42Z</time></trkpt><trkpt lat="43.10490493900594" lon="13.129510905212651"><ele>358.5</ele><time>2026-05-03T10:23:43Z</time></trkpt><trkpt lat="43.10465839218876" lon="13.129494414230768"><ele>357.0</ele><time>2026-05-03T10:23:44Z</time></trkpt><trkpt lat="43.1044122939369" lon="13.129466318702018"><ele>357.0</ele><time>2026-05-03T10:23:45Z</time></trkpt><trkpt lat="43.104166422539045" lon="13.12942908101568"><ele>357.0</ele><time>2026-05-03T10:23:46Z</time></trkpt><trkpt lat="43.10392199082915" lon="13.129382390539938"><ele>358.0</ele><time>2026-05-03T10:23:47Z</time></trkpt><trkpt lat="43.1036809759616" lon="13.12932141032687"><ele>359.0</ele><time>2026-05-03T10:23:48Z</time></trkpt><trkpt lat="43.10344009785315" lon="13.129242931154652"><ele>359.5</ele><time>2026-05-03T10:23:49Z</time></trkpt><trkpt lat="43.10320331182717" lon="13.129156830767032"><ele>360.0</ele><time>2026-05-03T10:23:50Z</time></trkpt><trkpt lat="43.1029670865247" lon="13.129055891886887"><ele>360.0</ele><time>2026-05-03T10:23:51Z</time></trkpt><trkpt lat="43.10273572428116" lon="13.128936655257089"><ele>360.0</ele><time>2026-05-03T10:23:52Z</time></trkpt><trkpt lat="43.10250764618337" lon="13.12880481230993"><ele>361.5</ele><time>2026-05-03T10:23:53Z</time></trkpt><trkpt lat="43.102285262369186" lon="13.12866063414962"><ele>363.0</ele><time>2026-05-03T10:23:54Z</time></trkpt><trkpt lat="43.10207129329169" lon="13.128498480683648"><ele>363.0</ele><time>2026-05-03T10:23:55Z</time></trkpt><trkpt lat="43.10185807141638" lon="13.128326356410836"><ele>363.0</ele><time>2026-05-03T10:23:56Z</time></trkpt><trkpt lat="43.10165230793936" lon="13.128144722659524"><ele>365.0</ele><time>2026-05-03T10:23:57Z</time></trkpt><trkpt lat="43.10144795057805" lon="13.12795325572544"><ele>367.0</ele><time>2026-05-03T10:23:58Z</time></trkpt><trkpt lat="43.10125573985857" lon="13.12774720566558"><ele>367.0</ele><time>2026-05-03T10:23:59Z</time></trkpt><trkpt lat="43.10107006011844" lon="13.127522371857703"><ele>367.0</ele><time>2026-05-03T10:24:00Z</time></trkpt><trkpt lat="43.100890504325434" lon="13.127289166382207"><ele>367.0</ele><time>2026-05-03T10:24:01Z</time></trkpt><trkpt lat="43.100714609306856" lon="13.127052437388025"><ele>367.0</ele><time>2026-05-03T10:24:02Z</time></trkpt><trkpt lat="43.100543795336066" lon="13.126812241060358"><ele>367.0</ele><time>2026-05-03T10:24:03Z</time></trkpt><trkpt lat="43.10037803299327" lon="13.126563166200526"><ele>367.0</ele><time>2026-05-03T10:24:04Z</time></trkpt><trkpt lat="43.10021490282905" lon="13.12630817269858"><ele>368.0</ele><time>2026-05-03T10:24:05Z</time></trkpt><trkpt lat="43.100058211585726" lon="13.126050335653625"><ele>369.0</ele><time>2026-05-03T10:24:06Z</time></trkpt><trkpt lat="43.09990070495772" lon="13.125791164580333"><ele>372.5</ele><time>2026-05-03T10:24:07Z</time></trkpt><trkpt lat="43.0997365160019" lon="13.125537017233995"><ele>376.0</ele><time>2026-05-03T10:24:08Z</time></trkpt><trkpt lat="43.099575235655735" lon="13.125274277496331"><ele>376.0</ele><time>2026-05-03T10:24:09Z</time></trkpt><trkpt lat="43.099400709672146" lon="13.125040376159465"><ele>376.0</ele><time>2026-05-03T10:24:10Z</time></trkpt><trkpt lat="43.099221902978314" lon="13.12480880152876"><ele>376.5</ele><time>2026-05-03T10:24:11Z</time></trkpt><trkpt lat="43.099036691226424" lon="13.124592074974782"><ele>377.0</ele><time>2026-05-03T10:24:12Z</time></trkpt><trkpt lat="43.09883666657631" lon="13.124390855918188"><ele>377.0</ele><time>2026-05-03T10:24:13Z</time></trkpt><trkpt lat="43.098631718014154" lon="13.124201561690828"><ele>377.0</ele><time>2026-05-03T10:24:14Z</time></trkpt><trkpt lat="43.09842190854678" lon="13.124019852560695"><ele>377.5</ele><time>2026-05-03T10:24:15Z</time></trkpt><trkpt lat="43.09820867265764" lon="13.123851735814691"><ele>378.0</ele><time>2026-05-03T10:24:16Z</time></trkpt><trkpt lat="43.09799162417486" lon="13.12369078731129"><ele>378.0</ele><time>2026-05-03T10:24:17Z</time></trkpt><trkpt lat="43.09777413514605" lon="13.123527316603157"><ele>378.0</ele><time>2026-05-03T10:24:18Z</time></trkpt><trkpt lat="43.097557057298516" lon="13.123370800625441"><ele>383.0</ele><time>2026-05-03T10:24:19Z</time></trkpt><trkpt lat="43.0973378312695" lon="13.123211210007275"><ele>388.0</ele><time>2026-05-03T10:24:20Z</time></trkpt><trkpt lat="43.09712306364943" lon="13.123045460745725"><ele>388.0</ele><time>2026-05-03T10:24:21Z</time></trkpt><trkpt lat="43.09690453003322" lon="13.122869653523473"><ele>388.0</ele><time>2026-05-03T10:24:22Z</time></trkpt><trkpt lat="43.09668090787657" lon="13.12268455742653"><ele>384.0</ele><time>2026-05-03T10:24:23Z</time></trkpt><trkpt lat="43.096461819097684" lon="13.122483266067704"><ele>380.0</ele><time>2026-05-03T10:24:24Z</time></trkpt><trkpt lat="43.09624318678468" lon="13.122270099433429"><ele>390.0</ele><time>2026-05-03T10:24:25Z</time></trkpt><trkpt lat="43.09602082633945" lon="13.122040754364937"><ele>400.0</ele><time>2026-05-03T10:24:26Z</time></trkpt><trkpt lat="43.09580845392204" lon="13.121797790155904"><ele>416.5</ele><time>2026-05-03T10:24:27Z</time></trkpt><trkpt lat="43.0956070027512" lon="13.121545649419033"><ele>433.0</ele><time>2026-05-03T10:24:28Z</time></trkpt><trkpt lat="43.095412840012315" lon="13.121290648147726"><ele>433.0</ele><time>2026-05-03T10:24:29Z</time></trkpt><trkpt lat="43.09520054173664" lon="13.121051639129657"><ele>433.0</ele><time>2026-05-03T10:24:30Z</time></trkpt><trkpt lat="43.094991418805364" lon="13.12080895257542"><ele>438.0</ele><time>2026-05-03T10:24:31Z</time></trkpt><trkpt lat="43.09480626858" lon="13.120537066049692"><ele>443.0</ele><time>2026-05-03T10:24:32Z</time></trkpt><trkpt lat="43.0945989009215" lon="13.120287741833481"><ele>443.0</ele><time>2026-05-03T10:24:33Z</time></trkpt><trkpt lat="43.094394758860645" lon="13.1200391004822"><ele>443.0</ele><time>2026-05-03T10:24:34Z</time></trkpt><trkpt lat="43.094178459249854" lon="13.119773420289063"><ele>433.0</ele><time>2026-05-03T10:24:35.072Z</time></trkpt><trkpt lat="43.09398044796536" lon="13.119528956020929"><ele>423.0</ele><time>2026-05-03T10:24:36.063Z</time></trkpt><trkpt lat="43.09378620041296" lon="13.119277591307332"><ele>429.0</ele><time>2026-05-03T10:24:37.062Z</time></trkpt><trkpt lat="43.093586051967215" lon="13.119028030112036"><ele>435.0</ele><time>2026-05-03T10:24:38.053Z</time></trkpt><trkpt lat="43.09337876870975" lon="13.118780813260106"><ele>420.0</ele><time>2026-05-03T10:24:39.047Z</time></trkpt><trkpt lat="43.09317612012379" lon="13.118536192223145"><ele>405.0</ele><time>2026-05-03T10:24:40.03Z</time></trkpt><trkpt lat="43.0916612945888" lon="13.113659062033067"><ele>395.5</ele><time>2026-05-03T10:24:52Z</time></trkpt><trkpt lat="43.091512500677794" lon="13.113262249026922"><ele>386.0</ele><time>2026-05-03T10:24:53Z</time></trkpt><trkpt lat="43.091380053663485" lon="13.112956694178493"><ele>386.0</ele><time>2026-05-03T10:24:54Z</time></trkpt><trkpt lat="43.091238365361875" lon="13.112651949730338"><ele>386.0</ele><time>2026-05-03T10:24:55Z</time></trkpt><trkpt lat="43.091101063959265" lon="13.112339396474166"><ele>391.5</ele><time>2026-05-03T10:24:56Z</time></trkpt><trkpt lat="43.09096695247493" lon="13.112022284293317"><ele>397.0</ele><time>2026-05-03T10:24:57Z</time></trkpt><trkpt lat="43.09084045142692" lon="13.111712327748583"><ele>396.0</ele><time>2026-05-03T10:24:58Z</time></trkpt><trkpt lat="43.0907201534428" lon="13.111410048385755"><ele>395.0</ele><time>2026-05-03T10:24:59Z</time></trkpt><trkpt lat="43.09059957276208" lon="13.111103061748512"><ele>395.0</ele><time>2026-05-03T10:25:00Z</time></trkpt><trkpt lat="43.09048710253482" lon="13.110798547972745"><ele>395.0</ele><time>2026-05-03T10:25:01Z</time></trkpt><trkpt lat="43.090375563824345" lon="13.110486271357287"><ele>404.0</ele><time>2026-05-03T10:25:02Z</time></trkpt><trkpt lat="43.09025303917675" lon="13.110158080833308"><ele>413.0</ele><time>2026-05-03T10:25:03Z</time></trkpt><trkpt lat="43.09014030040091" lon="13.10983682803472"><ele>410.0</ele><time>2026-05-03T10:25:04Z</time></trkpt><trkpt lat="43.090025878638855" lon="13.109539161611648"><ele>407.0</ele><time>2026-05-03T10:25:05Z</time></trkpt><trkpt lat="43.08990829244568" lon="13.109287454616037"><ele>405.5</ele><time>2026-05-03T10:25:06Z</time></trkpt><trkpt lat="43.08979946551783" lon="13.108993257375273"><ele>404.0</ele><time>2026-05-03T10:25:07Z</time></trkpt><trkpt lat="43.08968328400663" lon="13.108696813012399"><ele>404.0</ele><time>2026-05-03T10:25:08Z</time></trkpt><trkpt lat="43.08956654345385" lon="13.108400481953353"><ele>404.0</ele><time>2026-05-03T10:25:09Z</time></trkpt><trkpt lat="43.08950013638584" lon="13.108113719465381"><ele>404.5</ele><time>2026-05-03T10:25:10Z</time></trkpt><trkpt lat="43.08938267303945" lon="13.107787776664651"><ele>405.0</ele><time>2026-05-03T10:25:11Z</time></trkpt><trkpt lat="43.089270783089084" lon="13.10748416660336"><ele>404.5</ele><time>2026-05-03T10:25:12Z</time></trkpt><trkpt lat="43.08915865676802" lon="13.107185619814647"><ele>404.0</ele><time>2026-05-03T10:25:13Z</time></trkpt><trkpt lat="43.089055177149326" lon="13.106893671206313"><ele>404.0</ele><time>2026-05-03T10:25:14Z</time></trkpt><trkpt lat="43.08894667511719" lon="13.106593655321701"><ele>404.0</ele><time>2026-05-03T10:25:15Z</time></trkpt><trkpt lat="43.088837086964254" lon="13.106294006284845"><ele>404.5</ele><time>2026-05-03T10:25:16Z</time></trkpt><trkpt lat="43.0887279184408" lon="13.105992415964018"><ele>405.0</ele><time>2026-05-03T10:25:17Z</time></trkpt><trkpt lat="43.088621575915816" lon="13.10568581402229"><ele>405.0</ele><time>2026-05-03T10:25:18Z</time></trkpt><trkpt lat="43.08851143596941" lon="13.105384505571694"><ele>405.0</ele><time>2026-05-03T10:25:19Z</time></trkpt><trkpt lat="43.08841517251896" lon="13.105115106879586"><ele>407.0</ele><time>2026-05-03T10:25:20Z</time></trkpt><trkpt lat="43.08828644810196" lon="13.104797091843709"><ele>409.0</ele><time>2026-05-03T10:25:21Z</time></trkpt><trkpt lat="43.08817402532698" lon="13.104501782934031"><ele>407.0</ele><time>2026-05-03T10:25:22Z</time></trkpt><trkpt lat="43.088058207603076" lon="13.104198533871664"><ele>405.0</ele><time>2026-05-03T10:25:23Z</time></trkpt><trkpt lat="43.08794054830316" lon="13.103898172422468"><ele>405.0</ele><time>2026-05-03T10:25:24Z</time></trkpt><trkpt lat="43.08781592644113" lon="13.103585466509887"><ele>405.0</ele><time>2026-05-03T10:25:25Z</time></trkpt><trkpt lat="43.087689038007305" lon="13.103282717355341"><ele>402.0</ele><time>2026-05-03T10:25:26Z</time></trkpt><trkpt lat="43.08755747012287" lon="13.102985892235706"><ele>399.0</ele><time>2026-05-03T10:25:27Z</time></trkpt><trkpt lat="43.08741614033318" lon="13.102692369728194"><ele>402.0</ele><time>2026-05-03T10:25:28Z</time></trkpt><trkpt lat="43.08726491533113" lon="13.102394030614112"><ele>405.0</ele><time>2026-05-03T10:25:28.999Z</time></trkpt><trkpt lat="43.087097433798775" lon="13.102090649797661"><ele>405.0</ele><time>2026-05-03T10:25:29.999Z</time></trkpt><trkpt lat="43.08692489631921" lon="13.101782663896865"><ele>405.0</ele><time>2026-05-03T10:25:30.999Z</time></trkpt><trkpt lat="43.086738588629906" lon="13.101463103852264"><ele>404.0</ele><time>2026-05-03T10:25:31.999Z</time></trkpt><trkpt lat="43.08655226764793" lon="13.101140162818991"><ele>403.0</ele><time>2026-05-03T10:25:32.999Z</time></trkpt><trkpt lat="43.086364335659816" lon="13.100811477903164"><ele>408.5</ele><time>2026-05-03T10:25:33.999Z</time></trkpt><trkpt lat="43.08617765177236" lon="13.100482001683595"><ele>414.0</ele><time>2026-05-03T10:25:34.999Z</time></trkpt><trkpt lat="43.08600231617182" lon="13.100160387901473"><ele>410.5</ele><time>2026-05-03T10:25:35.999Z</time></trkpt><trkpt lat="43.08581721938137" lon="13.099842403288088"><ele>407.0</ele><time>2026-05-03T10:25:36.999Z</time></trkpt><trkpt lat="43.08564586513152" lon="13.099506425330725"><ele>407.0</ele><time>2026-05-03T10:25:37.999Z</time></trkpt><trkpt lat="43.08548237254957" lon="13.099195895034004"><ele>407.0</ele><time>2026-05-03T10:25:38.999Z</time></trkpt><trkpt lat="43.08532632075858" lon="13.098901128729903"><ele>410.0</ele><time>2026-05-03T10:25:39.999Z</time></trkpt><trkpt lat="43.08516705774675" lon="13.098617463373634"><ele>413.0</ele><time>2026-05-03T10:25:40.999Z</time></trkpt><trkpt lat="43.085015141079985" lon="13.09834235137101"><ele>409.0</ele><time>2026-05-03T10:25:41.999Z</time></trkpt><trkpt lat="43.08486282668009" lon="13.098072193026074"><ele>405.0</ele><time>2026-05-03T10:25:42.999Z</time></trkpt><trkpt lat="43.08471378567558" lon="13.097804498846568"><ele>405.0</ele><time>2026-05-03T10:25:43.999Z</time></trkpt><trkpt lat="43.08456676296338" lon="13.097542877015254"><ele>405.0</ele><time>2026-05-03T10:25:44.999Z</time></trkpt><trkpt lat="43.084422923688756" lon="13.097282648850632"><ele>414.5</ele><time>2026-05-03T10:25:45.999Z</time></trkpt><trkpt lat="43.084278310293335" lon="13.097020882812034"><ele>424.0</ele><time>2026-05-03T10:25:46.999Z</time></trkpt><trkpt lat="43.08413468758785" lon="13.096759240640404"><ele>421.5</ele><time>2026-05-03T10:25:47.999Z</time></trkpt><trkpt lat="43.08399430631296" lon="13.09650398377103"><ele>419.0</ele><time>2026-05-03T10:25:49Z</time></trkpt><trkpt lat="43.083850926781054" lon="13.096248287643503"><ele>419.0</ele><time>2026-05-03T10:25:50Z</time></trkpt><trkpt lat="43.083710032547835" lon="13.095995888470332"><ele>419.0</ele><time>2026-05-03T10:25:51Z</time></trkpt><trkpt lat="43.08356960052685" lon="13.095736552632694"><ele>425.0</ele><time>2026-05-03T10:25:52Z</time></trkpt><trkpt lat="43.08343232607295" lon="13.09547508401652"><ele>431.0</ele><time>2026-05-03T10:25:53Z</time></trkpt><trkpt lat="43.083284359352255" lon="13.095202923024713"><ele>418.5</ele><time>2026-05-03T10:25:54Z</time></trkpt><trkpt lat="43.08314495342563" lon="13.09494077578563"><ele>406.0</ele><time>2026-05-03T10:25:55Z</time></trkpt><trkpt lat="43.08300530960283" lon="13.09468305258606"><ele>406.0</ele><time>2026-05-03T10:25:56Z</time></trkpt><trkpt lat="43.08286940778274" lon="13.094401053589257"><ele>406.0</ele><time>2026-05-03T10:25:57Z</time></trkpt><trkpt lat="43.08275649477164" lon="13.094123436478993"><ele>410.0</ele><time>2026-05-03T10:25:58Z</time></trkpt><trkpt lat="43.08264502097117" lon="13.093829869471994"><ele>414.0</ele><time>2026-05-03T10:25:59Z</time></trkpt><trkpt lat="43.08253264580784" lon="13.09353648940723"><ele>409.0</ele><time>2026-05-03T10:26:00Z</time></trkpt><trkpt lat="43.082424177165485" lon="13.09324467737125"><ele>404.0</ele><time>2026-05-03T10:26:01Z</time></trkpt><trkpt lat="43.08231891753759" lon="13.092949735377019"><ele>404.0</ele><time>2026-05-03T10:26:02Z</time></trkpt><trkpt lat="43.082212184681154" lon="13.092649769646108"><ele>404.0</ele><time>2026-05-03T10:26:03Z</time></trkpt><trkpt lat="43.08211273142049" lon="13.092353693055841"><ele>407.5</ele><time>2026-05-03T10:26:04Z</time></trkpt><trkpt lat="43.08201819969323" lon="13.092049538498003"><ele>411.0</ele><time>2026-05-03T10:26:05Z</time></trkpt><trkpt lat="43.08192561184377" lon="13.091749874752836"><ele>414.5</ele><time>2026-05-03T10:26:06Z</time></trkpt><trkpt lat="43.08183418263044" lon="13.091439930016264"><ele>418.0</ele><time>2026-05-03T10:26:07Z</time></trkpt><trkpt lat="43.08174733153627" lon="13.09113194439766"><ele>418.0</ele><time>2026-05-03T10:26:08Z</time></trkpt><trkpt lat="43.08166522866999" lon="13.090815999552275"><ele>418.0</ele><time>2026-05-03T10:26:09Z</time></trkpt><trkpt lat="43.0815866822231" lon="13.090496831496752"><ele>414.5</ele><time>2026-05-03T10:26:10Z</time></trkpt><trkpt lat="43.0815140929241" lon="13.09017574969813"><ele>411.0</ele><time>2026-05-03T10:26:11Z</time></trkpt><trkpt lat="43.08144316924288" lon="13.089853797692411"><ele>411.0</ele><time>2026-05-03T10:26:12Z</time></trkpt><trkpt lat="43.08137880317582" lon="13.089526199575598"><ele>411.0</ele><time>2026-05-03T10:26:13Z</time></trkpt><trkpt lat="43.08131803704712" lon="13.08919193582271"><ele>412.0</ele><time>2026-05-03T10:26:14Z</time></trkpt><trkpt lat="43.08125781951137" lon="13.088869628061616"><ele>413.0</ele><time>2026-05-03T10:26:15Z</time></trkpt><trkpt lat="43.08120701716396" lon="13.08852875456049"><ele>414.0</ele><time>2026-05-03T10:26:16Z</time></trkpt><trkpt lat="43.081160898112024" lon="13.088190648056754"><ele>415.0</ele><time>2026-05-03T10:26:17Z</time></trkpt><trkpt lat="43.08112074102495" lon="13.087854735652767"><ele>415.0</ele><time>2026-05-03T10:26:18Z</time></trkpt><trkpt lat="43.081089077516225" lon="13.08750935677096"><ele>415.0</ele><time>2026-05-03T10:26:19Z</time></trkpt><trkpt lat="43.081063551325904" lon="13.087168644066148"><ele>414.0</ele><time>2026-05-03T10:26:20Z</time></trkpt><trkpt lat="43.08104642897994" lon="13.086823787473618"><ele>413.0</ele><time>2026-05-03T10:26:21Z</time></trkpt><trkpt lat="43.08103670605202" lon="13.086481697030862"><ele>413.0</ele><time>2026-05-03T10:26:22Z</time></trkpt><trkpt lat="43.081027595802425" lon="13.08614460526351"><ele>413.0</ele><time>2026-05-03T10:26:23Z</time></trkpt><trkpt lat="43.081029178804215" lon="13.085800161513447"><ele>417.0</ele><time>2026-05-03T10:26:24Z</time></trkpt><trkpt lat="43.08102944319952" lon="13.085458854663704"><ele>421.0</ele><time>2026-05-03T10:26:25Z</time></trkpt><trkpt lat="43.08102531231836" lon="13.085129880054126"><ele>425.0</ele><time>2026-05-03T10:26:26Z</time></trkpt><trkpt lat="43.0810228057093" lon="13.084796961086482"><ele>429.0</ele><time>2026-05-03T10:26:27Z</time></trkpt><trkpt lat="43.081016003402155" lon="13.084467584104992"><ele>429.0</ele><time>2026-05-03T10:26:28Z</time></trkpt><trkpt lat="43.08101831232299" lon="13.084134795154382"><ele>429.0</ele><time>2026-05-03T10:26:29Z</time></trkpt><trkpt lat="43.08102870450438" lon="13.083825660745728"><ele>432.0</ele><time>2026-05-03T10:26:30Z</time></trkpt><trkpt lat="43.081035408022956" lon="13.083503552056136"><ele>435.0</ele><time>2026-05-03T10:26:31Z</time></trkpt><trkpt lat="43.081043222540316" lon="13.083185100573035"><ele>436.5</ele><time>2026-05-03T10:26:32Z</time></trkpt><trkpt lat="43.081052113161256" lon="13.082870121182825"><ele>438.0</ele><time>2026-05-03T10:26:33Z</time></trkpt><trkpt lat="43.081066119299514" lon="13.082524772004236"><ele>444.0</ele><time>2026-05-03T10:26:34.071Z</time></trkpt><trkpt lat="43.08107457523125" lon="13.082202445075987"><ele>450.0</ele><time>2026-05-03T10:26:35.065Z</time></trkpt><trkpt lat="43.08108148830243" lon="13.081880042370042"><ele>453.5</ele><time>2026-05-03T10:26:36.064Z</time></trkpt><trkpt lat="43.081088374637936" lon="13.081562343897916"><ele>457.0</ele><time>2026-05-03T10:26:37.063Z</time></trkpt><trkpt lat="43.08109704011661" lon="13.08125016741694"><ele>457.0</ele><time>2026-05-03T10:26:38.06Z</time></trkpt><trkpt lat="43.081105713359655" lon="13.08093800655701"><ele>457.0</ele><time>2026-05-03T10:26:39.053Z</time></trkpt><trkpt lat="43.081116508398374" lon="13.080628125757938"><ele>457.0</ele><time>2026-05-03T10:26:40.035Z</time></trkpt><trkpt lat="43.08112593235709" lon="13.080315426897814"><ele>457.0</ele><time>2026-05-03T10:26:41.03Z</time></trkpt><trkpt lat="43.080419577248506" lon="13.078021192925519"><ele>438.5</ele><time>2026-05-03T10:26:47Z</time></trkpt><trkpt lat="43.080381180041755" lon="13.077654390829249"><ele>420.0</ele><time>2026-05-03T10:26:48Z</time></trkpt><trkpt lat="43.08031394289388" lon="13.077330002834032"><ele>420.0</ele><time>2026-05-03T10:26:49Z</time></trkpt><trkpt lat="43.08027084954604" lon="13.076997709344775"><ele>420.0</ele><time>2026-05-03T10:26:50Z</time></trkpt><trkpt lat="43.08022762699513" lon="13.076661930393028"><ele>422.5</ele><time>2026-05-03T10:26:51Z</time></trkpt><trkpt lat="43.08018803362906" lon="13.07632213064753"><ele>425.0</ele><time>2026-05-03T10:26:52Z</time></trkpt><trkpt lat="43.08015251001169" lon="13.075979950027808"><ele>427.0</ele><time>2026-05-03T10:26:53Z</time></trkpt><trkpt lat="43.08011951772553" lon="13.0756289182314"><ele>429.0</ele><time>2026-05-03T10:26:54Z</time></trkpt><trkpt lat="43.08009250143126" lon="13.075277519031248"><ele>431.5</ele><time>2026-05-03T10:26:55Z</time></trkpt><trkpt lat="43.08006662946357" lon="13.074923406513532"><ele>434.0</ele><time>2026-05-03T10:26:56Z</time></trkpt><trkpt lat="43.08004558842492" lon="13.074568898938843"><ele>434.0</ele><time>2026-05-03T10:26:57Z</time></trkpt><trkpt lat="43.08002591636357" lon="13.074213110089772"><ele>434.0</ele><time>2026-05-03T10:26:58Z</time></trkpt><trkpt lat="43.08000753205416" lon="13.07385937935504"><ele>435.5</ele><time>2026-05-03T10:26:59Z</time></trkpt><trkpt lat="43.07999136821139" lon="13.07350769284151"><ele>437.0</ele><time>2026-05-03T10:27:00Z</time></trkpt><trkpt lat="43.07997515707523" lon="13.073160232603401"><ele>440.0</ele><time>2026-05-03T10:27:01Z</time></trkpt><trkpt lat="43.079958708001286" lon="13.072814405285335"><ele>443.0</ele><time>2026-05-03T10:27:02Z</time></trkpt><trkpt lat="43.079942656237485" lon="13.072474549751242"><ele>436.0</ele><time>2026-05-03T10:27:03Z</time></trkpt><trkpt lat="43.079924598710086" lon="13.07212951405855"><ele>429.0</ele><time>2026-05-03T10:27:04Z</time></trkpt><trkpt lat="43.07990553509211" lon="13.071780567911318"><ele>431.0</ele><time>2026-05-03T10:27:05Z</time></trkpt><trkpt lat="43.07988475246021" lon="13.071424953740902"><ele>433.0</ele><time>2026-05-03T10:27:06Z</time></trkpt><trkpt lat="43.07985939175012" lon="13.07105840564454"><ele>437.5</ele><time>2026-05-03T10:27:07Z</time></trkpt><trkpt lat="43.079827608117796" lon="13.070681084245786"><ele>442.0</ele><time>2026-05-03T10:27:08Z</time></trkpt><trkpt lat="43.07978812076718" lon="13.070292000850245"><ele>446.0</ele><time>2026-05-03T10:27:09Z</time></trkpt><trkpt lat="43.079740184929086" lon="13.069887489836647"><ele>450.0</ele><time>2026-05-03T10:27:10Z</time></trkpt><trkpt lat="43.07968391795337" lon="13.069441361796699"><ele>452.0</ele><time>2026-05-03T10:27:11.068Z</time></trkpt><trkpt lat="43.07773504427717" lon="13.060081833696739"><ele>453.5</ele><time>2026-05-03T10:27:37.999Z</time></trkpt><trkpt lat="43.07768421425789" lon="13.05974975972283"><ele>455.0</ele><time>2026-05-03T10:27:38.999Z</time></trkpt><trkpt lat="43.077580828707816" lon="13.059415395318004"><ele>461.0</ele><time>2026-05-03T10:27:39.999Z</time></trkpt><trkpt lat="43.07746984073536" lon="13.05909689778019"><ele>467.0</ele><time>2026-05-03T10:27:40.999Z</time></trkpt><trkpt lat="43.077383869969985" lon="13.058800635397677"><ele>455.0</ele><time>2026-05-03T10:27:41.999Z</time></trkpt><trkpt lat="43.07730103299417" lon="13.058489221065463"><ele>443.0</ele><time>2026-05-03T10:27:42.999Z</time></trkpt><trkpt lat="43.07722047221434" lon="13.05817745071319"><ele>442.0</ele><time>2026-05-03T10:27:43.999Z</time></trkpt><trkpt lat="43.077138069780574" lon="13.0578593727743"><ele>441.0</ele><time>2026-05-03T10:27:44.999Z</time></trkpt><trkpt lat="43.07705626805601" lon="13.057522885829602"><ele>439.0</ele><time>2026-05-03T10:27:45.999Z</time></trkpt><trkpt lat="43.0769571699501" lon="13.057236407308627"><ele>437.0</ele><time>2026-05-03T10:27:46.999Z</time></trkpt><trkpt lat="43.07688083131198" lon="13.056917079882094"><ele>437.0</ele><time>2026-05-03T10:27:47.999Z</time></trkpt><trkpt lat="43.076797933057456" lon="13.056602147541689"><ele>437.0</ele><time>2026-05-03T10:27:48.999Z</time></trkpt><trkpt lat="43.076718864085166" lon="13.056276447878226"><ele>437.0</ele><time>2026-05-03T10:27:49.999Z</time></trkpt><trkpt lat="43.076641228546016" lon="13.055943301569496"><ele>437.0</ele><time>2026-05-03T10:27:50.999Z</time></trkpt><trkpt lat="43.07655633912757" lon="13.05556082361651"><ele>437.5</ele><time>2026-05-03T10:27:51.999Z</time></trkpt><trkpt lat="43.07648981249224" lon="13.055253132821953"><ele>438.0</ele><time>2026-05-03T10:27:52.999Z</time></trkpt><trkpt lat="43.07642856002373" lon="13.05491963223601"><ele>440.0</ele><time>2026-05-03T10:27:53.999Z</time></trkpt><trkpt lat="43.076374830884646" lon="13.05457653211269"><ele>442.0</ele><time>2026-05-03T10:27:55Z</time></trkpt><trkpt lat="43.07631765572323" lon="13.05423130526435"><ele>443.5</ele><time>2026-05-03T10:27:56Z</time></trkpt><trkpt lat="43.07626308182753" lon="13.05388310379231"><ele>445.0</ele><time>2026-05-03T10:27:57Z</time></trkpt><trkpt lat="43.076214122590365" lon="13.05353605734756"><ele>448.5</ele><time>2026-05-03T10:27:58Z</time></trkpt><trkpt lat="43.076163328156255" lon="13.053195845847444"><ele>452.0</ele><time>2026-05-03T10:27:59Z</time></trkpt><trkpt lat="43.076120139748596" lon="13.052860384751414"><ele>452.0</ele><time>2026-05-03T10:28:00Z</time></trkpt><trkpt lat="43.07607581772308" lon="13.052524204759738"><ele>452.0</ele><time>2026-05-03T10:28:01Z</time></trkpt><trkpt lat="43.07603693773363" lon="13.052184274514397"><ele>454.0</ele><time>2026-05-03T10:28:02Z</time></trkpt><trkpt lat="43.07599854614111" lon="13.051844265290539"><ele>456.0</ele><time>2026-05-03T10:28:03Z</time></trkpt><trkpt lat="43.07595802928437" lon="13.051499525873059"><ele>457.0</ele><time>2026-05-03T10:28:04Z</time></trkpt><trkpt lat="43.075916376836496" lon="13.051151527018748"><ele>458.0</ele><time>2026-05-03T10:28:05Z</time></trkpt><trkpt lat="43.07588000904153" lon="13.050798530312626"><ele>463.0</ele><time>2026-05-03T10:28:06Z</time></trkpt><trkpt lat="43.07584912245238" lon="13.05044772426394"><ele>468.0</ele><time>2026-05-03T10:28:07Z</time></trkpt><trkpt lat="43.075828650810976" lon="13.050092231812277"><ele>475.5</ele><time>2026-05-03T10:28:08Z</time></trkpt><trkpt lat="43.075815662660176" lon="13.049737753633305"><ele>483.0</ele><time>2026-05-03T10:28:09Z</time></trkpt><trkpt lat="43.075809502655964" lon="13.049380803798858"><ele>496.5</ele><time>2026-05-03T10:28:10Z</time></trkpt><trkpt lat="43.07581334006742" lon="13.049004445700374"><ele>510.0</ele><time>2026-05-03T10:28:11Z</time></trkpt><trkpt lat="43.0758185068181" lon="13.048619246897376"><ele>516.0</ele><time>2026-05-03T10:28:12Z</time></trkpt><trkpt lat="43.0758243271095" lon="13.04823221236123"><ele>522.0</ele><time>2026-05-03T10:28:13Z</time></trkpt><trkpt lat="43.07583202694897" lon="13.04784673641607"><ele>522.0</ele><time>2026-05-03T10:28:14Z</time></trkpt><trkpt lat="43.0758409194064" lon="13.047460661883097"><ele>522.0</ele><time>2026-05-03T10:28:15Z</time></trkpt><trkpt lat="43.075830460934654" lon="13.047040184352499"><ele>517.5</ele><time>2026-05-03T10:28:16.071Z</time></trkpt><trkpt lat="43.075834387353595" lon="13.046637910016909"><ele>513.0</ele><time>2026-05-03T10:28:17.074Z</time></trkpt><trkpt lat="43.07584359150656" lon="13.046242438048925"><ele>512.5</ele><time>2026-05-03T10:28:18.072Z</time></trkpt><trkpt lat="43.07587011350364" lon="13.045838877506034"><ele>512.0</ele><time>2026-05-03T10:28:19.066Z</time></trkpt><trkpt lat="43.07587943504487" lon="13.045453565040878"><ele>496.0</ele><time>2026-05-03T10:28:20.066Z</time></trkpt><trkpt lat="43.07617304516504" lon="13.041758191537888"><ele>504.5</ele><time>2026-05-03T10:28:30Z</time></trkpt><trkpt lat="43.07622590830879" lon="13.041383630321455"><ele>513.0</ele><time>2026-05-03T10:28:31Z</time></trkpt><trkpt lat="43.07628908930392" lon="13.041011243078332"><ele>546.0</ele><time>2026-05-03T10:28:32Z</time></trkpt><trkpt lat="43.07659829406783" lon="13.039198025283344"><ele>548.5</ele><time>2026-05-03T10:28:37Z</time></trkpt><trkpt lat="43.07666750639375" lon="13.038814113449526"><ele>551.0</ele><time>2026-05-03T10:28:38.061Z</time></trkpt><trkpt lat="43.077287084994396" lon="13.036179658720613"><ele>476.0</ele><time>2026-05-03T10:28:41.561Z</time></trkpt><trkpt lat="43.07773379248553" lon="13.034375816131092"><ele>476.5</ele><time>2026-05-03T10:28:50Z</time></trkpt><trkpt lat="43.07782361260003" lon="13.03406305164244"><ele>477.0</ele><time>2026-05-03T10:28:51Z</time></trkpt><trkpt lat="43.07792757672316" lon="13.033711002337522"><ele>477.0</ele><time>2026-05-03T10:28:52Z</time></trkpt><trkpt lat="43.07802269386225" lon="13.033360586460093"><ele>477.0</ele><time>2026-05-03T10:28:53Z</time></trkpt><trkpt lat="43.078106078748824" lon="13.03301106284873"><ele>479.0</ele><time>2026-05-03T10:28:54Z</time></trkpt><trkpt lat="43.07819193175068" lon="13.03266705771408"><ele>481.0</ele><time>2026-05-03T10:28:55Z</time></trkpt><trkpt lat="43.0782763200106" lon="13.032317275280253"><ele>491.0</ele><time>2026-05-03T10:28:56Z</time></trkpt><trkpt lat="43.078360363052035" lon="13.031968842437134"><ele>501.0</ele><time>2026-05-03T10:28:57Z</time></trkpt><trkpt lat="43.078441119740326" lon="13.031627754292066"><ele>501.0</ele><time>2026-05-03T10:28:58Z</time></trkpt><trkpt lat="43.07852686607478" lon="13.031284452354823"><ele>501.0</ele><time>2026-05-03T10:28:59Z</time></trkpt><trkpt lat="43.07861376021916" lon="13.030941641843356"><ele>499.5</ele><time>2026-05-03T10:29:00Z</time></trkpt><trkpt lat="43.07870510966902" lon="13.03059629248769"><ele>498.0</ele><time>2026-05-03T10:29:01Z</time></trkpt><trkpt lat="43.07879095515261" lon="13.030251599114788"><ele>499.0</ele><time>2026-05-03T10:29:02Z</time></trkpt><trkpt lat="43.0788744414037" lon="13.029901874673495"><ele>500.0</ele><time>2026-05-03T10:29:03Z</time></trkpt><trkpt lat="43.07896116809063" lon="13.029548920109393"><ele>500.0</ele><time>2026-05-03T10:29:04Z</time></trkpt><trkpt lat="43.079050974940536" lon="13.029197834935784"><ele>500.0</ele><time>2026-05-03T10:29:05Z</time></trkpt><trkpt lat="43.07913702864717" lon="13.028840447184658"><ele>527.0</ele><time>2026-05-03T10:29:06Z</time></trkpt><trkpt lat="43.079224155420185" lon="13.02848353937246"><ele>554.0</ele><time>2026-05-03T10:29:07Z</time></trkpt><trkpt lat="43.07931581335779" lon="13.028100867766014"><ele>568.5</ele><time>2026-05-03T10:29:08.059Z</time></trkpt><trkpt lat="43.079402096766565" lon="13.027750013548399"><ele>583.0</ele><time>2026-05-03T10:29:09.048Z</time></trkpt><trkpt lat="43.079452476571056" lon="13.027382033577112"><ele>593.0</ele><time>2026-05-03T10:29:10.046Z</time></trkpt><trkpt lat="43.07951405919829" lon="13.027020050262891"><ele>603.0</ele><time>2026-05-03T10:29:11.045Z</time></trkpt><trkpt lat="43.07981632177014" lon="13.024287980503976"><ele>551.0</ele><time>2026-05-03T10:29:14.559Z</time></trkpt><trkpt lat="43.07733328987342" lon="13.003276038043614"><ele>551.0</ele><time>2026-05-03T10:30:16.999Z</time></trkpt><trkpt lat="43.077269966603616" lon="13.002956652503721"><ele>551.0</ele><time>2026-05-03T10:30:17.999Z</time></trkpt><trkpt lat="43.07719283224715" lon="13.002637101262158"><ele>549.5</ele><time>2026-05-03T10:30:18.999Z</time></trkpt><trkpt lat="43.07711669584324" lon="13.002324611198784"><ele>548.0</ele><time>2026-05-03T10:30:19.999Z</time></trkpt><trkpt lat="43.07703707757336" lon="13.001999498379"><ele>548.0</ele><time>2026-05-03T10:30:20.999Z</time></trkpt><trkpt lat="43.07695999344453" lon="13.00166444397333"><ele>548.0</ele><time>2026-05-03T10:30:21.999Z</time></trkpt><trkpt lat="43.0768880092503" lon="13.00133949548757"><ele>548.0</ele><time>2026-05-03T10:30:23Z</time></trkpt><trkpt lat="43.076812743297445" lon="13.001004982592102"><ele>548.0</ele><time>2026-05-03T10:30:24Z</time></trkpt><trkpt lat="43.07674199474054" lon="13.00067317650356"><ele>548.0</ele><time>2026-05-03T10:30:25Z</time></trkpt><trkpt lat="43.0766707271125" lon="13.00034423019021"><ele>548.0</ele><time>2026-05-03T10:30:26Z</time></trkpt><trkpt lat="43.076596615396106" lon="13.000015449748663"><ele>553.5</ele><time>2026-05-03T10:30:27Z</time></trkpt><trkpt lat="43.076524473457894" lon="12.999684411227792"><ele>559.0</ele><time>2026-05-03T10:30:28Z</time></trkpt><trkpt lat="43.07644940765557" lon="12.999361075816248"><ele>561.5</ele><time>2026-05-03T10:30:29Z</time></trkpt><trkpt lat="43.07637667462883" lon="12.999039491823225"><ele>564.0</ele><time>2026-05-03T10:30:30Z</time></trkpt><trkpt lat="43.07630606089265" lon="12.998714541120725"><ele>564.0</ele><time>2026-05-03T10:30:31Z</time></trkpt><trkpt lat="43.07623369484614" lon="12.998393313509586"><ele>564.0</ele><time>2026-05-03T10:30:32Z</time></trkpt><trkpt lat="43.07616217920866" lon="12.998072952649556"><ele>566.0</ele><time>2026-05-03T10:30:33Z</time></trkpt><trkpt lat="43.07610060676342" lon="12.997751112535232"><ele>568.0</ele><time>2026-05-03T10:30:34Z</time></trkpt><trkpt lat="43.0760416630957" lon="12.997428420953698"><ele>570.0</ele><time>2026-05-03T10:30:35Z</time></trkpt><trkpt lat="43.07592809787399" lon="12.997110111700849"><ele>572.0</ele><time>2026-05-03T10:30:36Z</time></trkpt><trkpt lat="43.07585673241775" lon="12.99679335580108"><ele>573.0</ele><time>2026-05-03T10:30:37Z</time></trkpt><trkpt lat="43.0757839289239" lon="12.996491812384471"><ele>574.0</ele><time>2026-05-03T10:30:38Z</time></trkpt><trkpt lat="43.075704439025905" lon="12.996177207811993"><ele>589.5</ele><time>2026-05-03T10:30:39Z</time></trkpt><trkpt lat="43.0756244224765" lon="12.995862927243547"><ele>605.0</ele><time>2026-05-03T10:30:40Z</time></trkpt><trkpt lat="43.075544328939706" lon="12.995548198537566"><ele>607.5</ele><time>2026-05-03T10:30:41Z</time></trkpt><trkpt lat="43.0754639929583" lon="12.995232218732788"><ele>610.0</ele><time>2026-05-03T10:30:42Z</time></trkpt><trkpt lat="43.075379011698686" lon="12.994898189173817"><ele>615.0</ele><time>2026-05-03T10:30:43.061Z</time></trkpt><trkpt lat="43.07529943380539" lon="12.994585659363548"><ele>620.0</ele><time>2026-05-03T10:30:44.058Z</time></trkpt><trkpt lat="43.07521970417256" lon="12.99427240790243"><ele>624.5</ele><time>2026-05-03T10:30:45.056Z</time></trkpt><trkpt lat="43.07513946841433" lon="12.99395685119278"><ele>629.0</ele><time>2026-05-03T10:30:46.054Z</time></trkpt><trkpt lat="43.074696412293505" lon="12.991269620821479"><ele>702.0</ele><time>2026-05-03T10:30:49.558Z</time></trkpt><trkpt lat="43.074497788247186" lon="12.989946145779268"><ele>717.0</ele><time>2026-05-03T10:30:50.558Z</time></trkpt><trkpt lat="43.074326409910164" lon="12.988613330649164"><ele>764.0</ele><time>2026-05-03T10:30:51.56Z</time></trkpt><trkpt lat="43.074190027408655" lon="12.98728035526128"><ele>834.0</ele><time>2026-05-03T10:30:52.557Z</time></trkpt><trkpt lat="43.074096270925715" lon="12.985933052765098"><ele>815.5</ele><time>2026-05-03T10:30:53.559Z</time></trkpt><trkpt lat="43.0740915" lon="12.9858398"><ele>797.0</ele><time>2026-05-03T10:30:54.559Z</time></trkpt><trkpt lat="43.07393350024985" lon="12.976127076099896"><ele>703.5</ele><time>2026-05-03T10:31:31Z</time></trkpt><trkpt lat="43.07394618032485" lon="12.975751416468558"><ele>610.0</ele><time>2026-05-03T10:31:32Z</time></trkpt><trkpt lat="43.07393465737396" lon="12.975385217361312"><ele>610.0</ele><time>2026-05-03T10:31:33Z</time></trkpt><trkpt lat="43.0739253717421" lon="12.975037390269302"><ele>610.0</ele><time>2026-05-03T10:31:34Z</time></trkpt><trkpt lat="43.073909641442896" lon="12.974673082001694"><ele>609.0</ele><time>2026-05-03T10:31:35Z</time></trkpt><trkpt lat="43.07389677642727" lon="12.974307290586513"><ele>608.0</ele><time>2026-05-03T10:31:36Z</time></trkpt><trkpt lat="43.073874859431484" lon="12.973941578415575"><ele>614.0</ele><time>2026-05-03T10:31:37Z</time></trkpt><trkpt lat="43.07385219751559" lon="12.973585653169806"><ele>620.0</ele><time>2026-05-03T10:31:38Z</time></trkpt><trkpt lat="43.07382778508259" lon="12.973219009594562"><ele>626.0</ele><time>2026-05-03T10:31:39Z</time></trkpt><trkpt lat="43.07380257392984" lon="12.972844300964095"><ele>632.0</ele><time>2026-05-03T10:31:40Z</time></trkpt><trkpt lat="43.073772628900365" lon="12.972464753426557"><ele>637.5</ele><time>2026-05-03T10:31:41Z</time></trkpt><trkpt lat="43.073738458481806" lon="12.972079043352588"><ele>643.0</ele><time>2026-05-03T10:31:42Z</time></trkpt><trkpt lat="43.07372144119501" lon="12.971672756365088"><ele>656.0</ele><time>2026-05-03T10:31:43Z</time></trkpt><trkpt lat="43.07372007635679" lon="12.97125628814369"><ele>669.0</ele><time>2026-05-03T10:31:44Z</time></trkpt><trkpt lat="43.07372126439713" lon="12.970842117062865"><ele>685.5</ele><time>2026-05-03T10:31:45Z</time></trkpt><trkpt lat="43.07371905632949" lon="12.970435483929913"><ele>702.0</ele><time>2026-05-03T10:31:46Z</time></trkpt><trkpt lat="43.07371643958727" lon="12.97002734164622"><ele>711.5</ele><time>2026-05-03T10:31:47Z</time></trkpt><trkpt lat="43.07371034060981" lon="12.969623238796837"><ele>721.0</ele><time>2026-05-03T10:31:48Z</time></trkpt><trkpt lat="43.0737063916136" lon="12.969188355361384"><ele>729.0</ele><time>2026-05-03T10:31:49.065Z</time></trkpt><trkpt lat="43.07369519964232" lon="12.968789274331902"><ele>737.0</ele><time>2026-05-03T10:31:50.061Z</time></trkpt><trkpt lat="43.07368781638613" lon="12.968380026702487"><ele>683.0</ele><time>2026-05-03T10:31:51.061Z</time></trkpt><trkpt lat="43.06886132710544" lon="12.956065782316854"><ele>677.0</ele><time>2026-05-03T10:32:20.999Z</time></trkpt><trkpt lat="43.069311290786" lon="12.955838437509966"><ele>677.0</ele><time>2026-05-03T10:32:21.999Z</time></trkpt><trkpt lat="43.06915615736465" lon="12.955522878519306"><ele>677.0</ele><time>2026-05-03T10:32:22.999Z</time></trkpt><trkpt lat="43.06899175563361" lon="12.955188310390628"><ele>706.5</ele><time>2026-05-03T10:32:23.999Z</time></trkpt><trkpt lat="43.06882532094658" lon="12.954849057762388"><ele>736.0</ele><time>2026-05-03T10:32:24.999Z</time></trkpt><trkpt lat="43.06865904662587" lon="12.954511330998015"><ele>754.5</ele><time>2026-05-03T10:32:25.999Z</time></trkpt><trkpt lat="43.06849315768271" lon="12.954174023581038"><ele>773.0</ele><time>2026-05-03T10:32:26.999Z</time></trkpt><trkpt lat="43.06832468038828" lon="12.953836963421614"><ele>792.0</ele><time>2026-05-03T10:32:27.999Z</time></trkpt><trkpt lat="43.068152780448976" lon="12.953501109405268"><ele>811.0</ele><time>2026-05-03T10:32:29.001Z</time></trkpt><trkpt lat="43.0679796482348" lon="12.953168610892957"><ele>847.0</ele><time>2026-05-03T10:32:30.001Z</time></trkpt><trkpt lat="43.06746928952075" lon="12.952573963083001"><ele>785.0</ele><time>2026-05-03T10:32:31.063Z</time></trkpt><trkpt lat="43.04431365841747" lon="12.93142641072052"><ele>780.5</ele><time>2026-05-03T10:33:57Z</time></trkpt><trkpt lat="43.04406452530044" lon="12.93136070948419"><ele>776.0</ele><time>2026-05-03T10:33:58Z</time></trkpt><trkpt lat="43.043824973943885" lon="12.931312990949664"><ele>776.0</ele><time>2026-05-03T10:33:59Z</time></trkpt><trkpt lat="43.04359506696301" lon="12.931255397940634"><ele>776.0</ele><time>2026-05-03T10:34:00Z</time></trkpt><trkpt lat="43.043363673625066" lon="12.931199730299118"><ele>773.5</ele><time>2026-05-03T10:34:01Z</time></trkpt><trkpt lat="43.04312773883597" lon="12.931143623063955"><ele>771.0</ele><time>2026-05-03T10:34:02Z</time></trkpt><trkpt lat="43.04289450237406" lon="12.931095959205441"><ele>771.0</ele><time>2026-05-03T10:34:03Z</time></trkpt><trkpt lat="43.042661198007664" lon="12.931046220731742"><ele>771.0</ele><time>2026-05-03T10:34:04Z</time></trkpt><trkpt lat="43.04242908254576" lon="12.931002916130488"><ele>770.5</ele><time>2026-05-03T10:34:05Z</time></trkpt><trkpt lat="43.04218960653534" lon="12.93096196825373"><ele>770.0</ele><time>2026-05-03T10:34:06Z</time></trkpt><trkpt lat="43.04194991753278" lon="12.9309229599518"><ele>769.0</ele><time>2026-05-03T10:34:07Z</time></trkpt><trkpt lat="43.04176140049471" lon="12.930843071917202"><ele>768.0</ele><time>2026-05-03T10:34:08Z</time></trkpt><trkpt lat="43.04153667329999" lon="12.930790815176499"><ele>767.0</ele><time>2026-05-03T10:34:09Z</time></trkpt><trkpt lat="43.041309265704804" lon="12.93073674488863"><ele>767.0</ele><time>2026-05-03T10:34:10Z</time></trkpt><trkpt lat="43.04108257904983" lon="12.930686081452127"><ele>767.0</ele><time>2026-05-03T10:34:11Z</time></trkpt><trkpt lat="43.04085796389448" lon="12.930637892767324"><ele>768.0</ele><time>2026-05-03T10:34:12Z</time></trkpt><trkpt lat="43.04062832300325" lon="12.930593408761165"><ele>769.0</ele><time>2026-05-03T10:34:13Z</time></trkpt><trkpt lat="43.0404003847022" lon="12.930546797866999"><ele>769.0</ele><time>2026-05-03T10:34:14Z</time></trkpt><trkpt lat="43.04017313938986" lon="12.930492058430763"><ele>769.0</ele><time>2026-05-03T10:34:15Z</time></trkpt><trkpt lat="43.03993934208487" lon="12.930434870082657"><ele>774.0</ele><time>2026-05-03T10:34:16Z</time></trkpt><trkpt lat="43.039706603985636" lon="12.930378454320032"><ele>779.0</ele><time>2026-05-03T10:34:17Z</time></trkpt><trkpt lat="43.03947686525242" lon="12.930329861238427"><ele>779.0</ele><time>2026-05-03T10:34:17.999Z</time></trkpt><trkpt lat="43.039239660502574" lon="12.930266611256394"><ele>779.0</ele><time>2026-05-03T10:34:18.999Z</time></trkpt><trkpt lat="43.03899291192804" lon="12.93020538849408"><ele>780.5</ele><time>2026-05-03T10:34:19.999Z</time></trkpt><trkpt lat="43.0387446079792" lon="12.930141175923364"><ele>782.0</ele><time>2026-05-03T10:34:20.999Z</time></trkpt><trkpt lat="43.038497991878565" lon="12.930071502430813"><ele>774.0</ele><time>2026-05-03T10:34:21.999Z</time></trkpt><trkpt lat="43.03825324158448" lon="12.929998989425114"><ele>766.0</ele><time>2026-05-03T10:34:22.999Z</time></trkpt><trkpt lat="43.038010494301716" lon="12.929912851737358"><ele>766.0</ele><time>2026-05-03T10:34:23.999Z</time></trkpt><trkpt lat="43.037769695986846" lon="12.929820691169574"><ele>766.0</ele><time>2026-05-03T10:34:24.999Z</time></trkpt><trkpt lat="43.037527218779914" lon="12.929718336299054"><ele>767.5</ele><time>2026-05-03T10:34:25.999Z</time></trkpt><trkpt lat="43.03728613868448" lon="12.929609806946027"><ele>769.0</ele><time>2026-05-03T10:34:26.999Z</time></trkpt><trkpt lat="43.03704451217136" lon="12.929499964476456"><ele>769.0</ele><time>2026-05-03T10:34:27.999Z</time></trkpt><trkpt lat="43.036799345449545" lon="12.929393271430925"><ele>769.0</ele><time>2026-05-03T10:34:28.999Z</time></trkpt><trkpt lat="43.03655260577691" lon="12.929279515290208"><ele>766.5</ele><time>2026-05-03T10:34:29.999Z</time></trkpt><trkpt lat="43.036310804625025" lon="12.929161510619554"><ele>764.0</ele><time>2026-05-03T10:34:30.999Z</time></trkpt><trkpt lat="43.036069706441545" lon="12.929033528992555"><ele>764.0</ele><time>2026-05-03T10:34:31.999Z</time></trkpt><trkpt lat="43.03582398655589" lon="12.928895472223768"><ele>764.0</ele><time>2026-05-03T10:34:32.999Z</time></trkpt><trkpt lat="43.035578464177156" lon="12.928757787942873"><ele>765.0</ele><time>2026-05-03T10:34:33.999Z</time></trkpt><trkpt lat="43.035336273060835" lon="12.928615824817426"><ele>766.0</ele><time>2026-05-03T10:34:35.001Z</time></trkpt><trkpt lat="43.03509453612757" lon="12.92846630624351"><ele>768.5</ele><time>2026-05-03T10:34:36.001Z</time></trkpt><trkpt lat="43.034851831163195" lon="12.928308478743823"><ele>771.0</ele><time>2026-05-03T10:34:37.001Z</time></trkpt><trkpt lat="43.03461368912101" lon="12.928148621514277"><ele>771.0</ele><time>2026-05-03T10:34:38.001Z</time></trkpt><trkpt lat="43.03437801224319" lon="12.92798760413953"><ele>771.0</ele><time>2026-05-03T10:34:39.001Z</time></trkpt><trkpt lat="43.034149364547936" lon="12.927825261004802"><ele>772.0</ele><time>2026-05-03T10:34:40.001Z</time></trkpt><trkpt lat="43.03391642770595" lon="12.92765487150055"><ele>773.0</ele><time>2026-05-03T10:34:41.001Z</time></trkpt><trkpt lat="43.03369763602699" lon="12.927481163301849"><ele>773.0</ele><time>2026-05-03T10:34:42.001Z</time></trkpt><trkpt lat="43.03348029537774" lon="12.927308753532882"><ele>773.0</ele><time>2026-05-03T10:34:43.001Z</time></trkpt><trkpt lat="43.03326582704629" lon="12.927135916865945"><ele>773.5</ele><time>2026-05-03T10:34:44.001Z</time></trkpt><trkpt lat="43.033049593270455" lon="12.92696130228975"><ele>774.0</ele><time>2026-05-03T10:34:45.001Z</time></trkpt><trkpt lat="43.032838528560795" lon="12.926784902348556"><ele>773.0</ele><time>2026-05-03T10:34:46.001Z</time></trkpt><trkpt lat="43.0326280967702" lon="12.926605056856728"><ele>772.0</ele><time>2026-05-03T10:34:47.001Z</time></trkpt><trkpt lat="43.03241721254634" lon="12.926426125802694"><ele>772.0</ele><time>2026-05-03T10:34:48.001Z</time></trkpt><trkpt lat="43.03220249405785" lon="12.926239591270583"><ele>772.0</ele><time>2026-05-03T10:34:49.001Z</time></trkpt><trkpt lat="43.03199498051223" lon="12.926056396637346"><ele>771.5</ele><time>2026-05-03T10:34:50.001Z</time></trkpt><trkpt lat="43.03177915694191" lon="12.925872569457253"><ele>771.0</ele><time>2026-05-03T10:34:51.001Z</time></trkpt><trkpt lat="43.03156876337821" lon="12.925690148500026"><ele>777.0</ele><time>2026-05-03T10:34:52.001Z</time></trkpt><trkpt lat="43.03135118021955" lon="12.92550627329548"><ele>783.0</ele><time>2026-05-03T10:34:53.001Z</time></trkpt><trkpt lat="43.031131920835875" lon="12.925321205012164"><ele>783.0</ele><time>2026-05-03T10:34:54.001Z</time></trkpt><trkpt lat="43.03091639151574" lon="12.925129806807004"><ele>783.0</ele><time>2026-05-03T10:34:55Z</time></trkpt><trkpt lat="43.03069508189135" lon="12.924939062017218"><ele>790.0</ele><time>2026-05-03T10:34:56Z</time></trkpt><trkpt lat="43.030465685977084" lon="12.924735654914365"><ele>797.0</ele><time>2026-05-03T10:34:57Z</time></trkpt><trkpt lat="43.03023981462352" lon="12.924538881808195"><ele>797.0</ele><time>2026-05-03T10:34:58Z</time></trkpt><trkpt lat="43.03001318275302" lon="12.924341041882524"><ele>797.0</ele><time>2026-05-03T10:34:59Z</time></trkpt><trkpt lat="43.0297841318631" lon="12.924141686323935"><ele>792.5</ele><time>2026-05-03T10:35:00Z</time></trkpt><trkpt lat="43.02955377727652" lon="12.923941560559326"><ele>788.0</ele><time>2026-05-03T10:35:01Z</time></trkpt><trkpt lat="43.029349514164394" lon="12.923747079969447"><ele>790.0</ele><time>2026-05-03T10:35:02Z</time></trkpt><trkpt lat="43.02911437963128" lon="12.923523284213582"><ele>792.0</ele><time>2026-05-03T10:35:03Z</time></trkpt><trkpt lat="43.028902164100685" lon="12.923274498006302"><ele>784.0</ele><time>2026-05-03T10:35:04Z</time></trkpt><trkpt lat="43.02868769964562" lon="12.923033961948805"><ele>776.0</ele><time>2026-05-03T10:35:05Z</time></trkpt><trkpt lat="43.02848780207529" lon="12.922800014523757"><ele>774.0</ele><time>2026-05-03T10:35:06Z</time></trkpt><trkpt lat="43.028287354551544" lon="12.922559743094409"><ele>772.0</ele><time>2026-05-03T10:35:07Z</time></trkpt><trkpt lat="43.028097663337505" lon="12.922318551367525"><ele>772.0</ele><time>2026-05-03T10:35:08Z</time></trkpt><trkpt lat="43.02791645008241" lon="12.922058082971132"><ele>772.0</ele><time>2026-05-03T10:35:09Z</time></trkpt><trkpt lat="43.027738121571225" lon="12.921797044028088"><ele>772.5</ele><time>2026-05-03T10:35:10Z</time></trkpt><trkpt lat="43.027568204268846" lon="12.921530489957636"><ele>773.0</ele><time>2026-05-03T10:35:11Z</time></trkpt><trkpt lat="43.027401875763424" lon="12.921262398152503"><ele>773.0</ele><time>2026-05-03T10:35:12Z</time></trkpt><trkpt lat="43.027239649246624" lon="12.920986954693987"><ele>773.0</ele><time>2026-05-03T10:35:13Z</time></trkpt><trkpt lat="43.02708896737786" lon="12.920713340889675"><ele>770.5</ele><time>2026-05-03T10:35:14Z</time></trkpt><trkpt lat="43.02693705821278" lon="12.920438225980169"><ele>768.0</ele><time>2026-05-03T10:35:15Z</time></trkpt><trkpt lat="43.02679250158509" lon="12.920157892323218"><ele>768.0</ele><time>2026-05-03T10:35:16Z</time></trkpt><trkpt lat="43.02666539407107" lon="12.919873337243013"><ele>768.0</ele><time>2026-05-03T10:35:17Z</time></trkpt><trkpt lat="43.0265416885531" lon="12.919588396532363"><ele>769.5</ele><time>2026-05-03T10:35:18Z</time></trkpt><trkpt lat="43.02642101686549" lon="12.919294169850708"><ele>771.0</ele><time>2026-05-03T10:35:19Z</time></trkpt><trkpt lat="43.02630079372736" lon="12.919007087807367"><ele>771.0</ele><time>2026-05-03T10:35:20Z</time></trkpt><trkpt lat="43.02619421432027" lon="12.918718698907542"><ele>771.0</ele><time>2026-05-03T10:35:21Z</time></trkpt><trkpt lat="43.026089422252504" lon="12.918422102657962"><ele>770.0</ele><time>2026-05-03T10:35:22Z</time></trkpt><trkpt lat="43.02598773029578" lon="12.918139253151177"><ele>769.0</ele><time>2026-05-03T10:35:23Z</time></trkpt><trkpt lat="43.02590183859692" lon="12.917847674821427"><ele>769.0</ele><time>2026-05-03T10:35:24Z</time></trkpt><trkpt lat="43.02582207006095" lon="12.917553639199205"><ele>769.0</ele><time>2026-05-03T10:35:25Z</time></trkpt><trkpt lat="43.02574676323379" lon="12.917263426537597"><ele>769.5</ele><time>2026-05-03T10:35:26Z</time></trkpt><trkpt lat="43.025678206905866" lon="12.916954029547405"><ele>770.0</ele><time>2026-05-03T10:35:27Z</time></trkpt><trkpt lat="43.025605415191244" lon="12.916662755485909"><ele>770.5</ele><time>2026-05-03T10:35:28Z</time></trkpt><trkpt lat="43.02553078708722" lon="12.916367011449504"><ele>771.0</ele><time>2026-05-03T10:35:29Z</time></trkpt><trkpt lat="43.02547416706608" lon="12.916069393044445"><ele>773.0</ele><time>2026-05-03T10:35:30Z</time></trkpt><trkpt lat="43.025425103032035" lon="12.915764651197362"><ele>775.0</ele><time>2026-05-03T10:35:31Z</time></trkpt><trkpt lat="43.025377085643385" lon="12.915467362735681"><ele>775.0</ele><time>2026-05-03T10:35:32Z</time></trkpt><trkpt lat="43.025335726690486" lon="12.91516199209492"><ele>775.0</ele><time>2026-05-03T10:35:33Z</time></trkpt><trkpt lat="43.0252990371504" lon="12.914846777424392"><ele>779.5</ele><time>2026-05-03T10:35:34Z</time></trkpt><trkpt lat="43.025267294188254" lon="12.914532505484509"><ele>784.0</ele><time>2026-05-03T10:35:35Z</time></trkpt><trkpt lat="43.02523408273489" lon="12.914225729161345"><ele>788.0</ele><time>2026-05-03T10:35:36Z</time></trkpt><trkpt lat="43.02520798875847" lon="12.913919339669452"><ele>792.0</ele><time>2026-05-03T10:35:37Z</time></trkpt><trkpt lat="43.02517458389334" lon="12.913598291786233"><ele>789.0</ele><time>2026-05-03T10:35:38Z</time></trkpt><trkpt lat="43.02514449896377" lon="12.913291805060839"><ele>786.0</ele><time>2026-05-03T10:35:39Z</time></trkpt><trkpt lat="43.02515032943908" lon="12.912965014745314"><ele>786.0</ele><time>2026-05-03T10:35:40Z</time></trkpt><trkpt lat="43.02514318862058" lon="12.912649391739865"><ele>786.0</ele><time>2026-05-03T10:35:41Z</time></trkpt><trkpt lat="43.025141456839094" lon="12.912338308640136"><ele>784.0</ele><time>2026-05-03T10:35:42Z</time></trkpt><trkpt lat="43.02514062715271" lon="12.912023366602734"><ele>782.0</ele><time>2026-05-03T10:35:43Z</time></trkpt><trkpt lat="43.02513615665691" lon="12.91170697309033"><ele>786.5</ele><time>2026-05-03T10:35:44Z</time></trkpt><trkpt lat="43.0251322313178" lon="12.91138426200541"><ele>791.0</ele><time>2026-05-03T10:35:45Z</time></trkpt><trkpt lat="43.02512749170681" lon="12.911046403277764"><ele>792.0</ele><time>2026-05-03T10:35:46Z</time></trkpt><trkpt lat="43.02512520374585" lon="12.910692483185448"><ele>793.0</ele><time>2026-05-03T10:35:47Z</time></trkpt><trkpt lat="43.025125050341586" lon="12.91032397280379"><ele>796.0</ele><time>2026-05-03T10:35:48Z</time></trkpt><trkpt lat="43.02512752327658" lon="12.909952573863011"><ele>799.0</ele><time>2026-05-03T10:35:49Z</time></trkpt><trkpt lat="43.0251312161281" lon="12.909586353578211"><ele>800.0</ele><time>2026-05-03T10:35:50Z</time></trkpt><trkpt lat="43.02513369637085" lon="12.909204900652526"><ele>801.0</ele><time>2026-05-03T10:35:51.069Z</time></trkpt><trkpt lat="43.02513763914609" lon="12.908839884797056"><ele>801.0</ele><time>2026-05-03T10:35:52.071Z</time></trkpt><trkpt lat="43.025137239621" lon="12.908473325380989"><ele>801.0</ele><time>2026-05-03T10:35:53.066Z</time></trkpt><trkpt lat="43.02504735324946" lon="12.908086677937135"><ele>790.5</ele><time>2026-05-03T10:35:54.063Z</time></trkpt><trkpt lat="43.0250517938874" lon="12.90755071766513"><ele>780.0</ele><time>2026-05-03T10:35:55.999Z</time></trkpt><trkpt lat="43.02504378174639" lon="12.907205362648387"><ele>780.0</ele><time>2026-05-03T10:35:56.999Z</time></trkpt><trkpt lat="43.0250369149743" lon="12.906859975585196"><ele>780.0</ele><time>2026-05-03T10:35:57.999Z</time></trkpt><trkpt lat="43.02503563168971" lon="12.906536797084437"><ele>777.5</ele><time>2026-05-03T10:35:58.999Z</time></trkpt><trkpt lat="43.02503003281772" lon="12.906209404579485"><ele>775.0</ele><time>2026-05-03T10:35:59.999Z</time></trkpt><trkpt lat="43.02502227053348" lon="12.905880290287316"><ele>773.0</ele><time>2026-05-03T10:36:00.999Z</time></trkpt><trkpt lat="43.02501042647138" lon="12.905548919947968"><ele>771.0</ele><time>2026-05-03T10:36:01.999Z</time></trkpt><trkpt lat="43.02499496722302" lon="12.905219263548057"><ele>771.0</ele><time>2026-05-03T10:36:02.999Z</time></trkpt><trkpt lat="43.0249803356307" lon="12.90489130768401"><ele>771.0</ele><time>2026-05-03T10:36:03.999Z</time></trkpt><trkpt lat="43.02496391084738" lon="12.9045614443469"><ele>769.0</ele><time>2026-05-03T10:36:04.999Z</time></trkpt><trkpt lat="43.0249419586777" lon="12.90423130232173"><ele>767.0</ele><time>2026-05-03T10:36:05.999Z</time></trkpt><trkpt lat="43.02492400849899" lon="12.903906316840274"><ele>767.0</ele><time>2026-05-03T10:36:06.999Z</time></trkpt><trkpt lat="43.024894991641176" lon="12.903577684281245"><ele>767.0</ele><time>2026-05-03T10:36:07.999Z</time></trkpt><trkpt lat="43.02486108987488" lon="12.903252897799968"><ele>766.5</ele><time>2026-05-03T10:36:08.999Z</time></trkpt><trkpt lat="43.02482155906631" lon="12.902929608048789"><ele>766.0</ele><time>2026-05-03T10:36:09.999Z</time></trkpt><trkpt lat="43.02477489958382" lon="12.902603434186497"><ele>765.5</ele><time>2026-05-03T10:36:10.999Z</time></trkpt><trkpt lat="43.02471868683806" lon="12.902280993693626"><ele>765.0</ele><time>2026-05-03T10:36:11.999Z</time></trkpt><trkpt lat="43.02465586881892" lon="12.901961599696431"><ele>764.5</ele><time>2026-05-03T10:36:12.999Z</time></trkpt><trkpt lat="43.02458803603766" lon="12.901646189183078"><ele>764.0</ele><time>2026-05-03T10:36:13.999Z</time></trkpt><trkpt lat="43.02451421095964" lon="12.901335966689318"><ele>764.0</ele><time>2026-05-03T10:36:14.999Z</time></trkpt><trkpt lat="43.02444675822539" lon="12.901033801242143"><ele>764.0</ele><time>2026-05-03T10:36:15.999Z</time></trkpt><trkpt lat="43.02437246022753" lon="12.900724016617584"><ele>764.0</ele><time>2026-05-03T10:36:16.999Z</time></trkpt><trkpt lat="43.0242964639247" lon="12.900422732193574"><ele>764.0</ele><time>2026-05-03T10:36:17.999Z</time></trkpt><trkpt lat="43.024208160971384" lon="12.900122362232883"><ele>766.0</ele><time>2026-05-03T10:36:18.999Z</time></trkpt><trkpt lat="43.02411565019138" lon="12.89982361183932"><ele>768.0</ele><time>2026-05-03T10:36:19.999Z</time></trkpt><trkpt lat="43.02401902401835" lon="12.89952384277289"><ele>767.5</ele><time>2026-05-03T10:36:20.999Z</time></trkpt><trkpt lat="43.023919512469355" lon="12.899232179537128"><ele>767.0</ele><time>2026-05-03T10:36:21.999Z</time></trkpt><trkpt lat="43.02381442963126" lon="12.898943028038097"><ele>767.0</ele><time>2026-05-03T10:36:22.999Z</time></trkpt><trkpt lat="43.02370444003952" lon="12.89866934904411"><ele>767.0</ele><time>2026-05-03T10:36:23.999Z</time></trkpt><trkpt lat="43.02358074250759" lon="12.89837992006576"><ele>765.5</ele><time>2026-05-03T10:36:24.999Z</time></trkpt><trkpt lat="43.0234659308043" lon="12.898107570280892"><ele>764.0</ele><time>2026-05-03T10:36:25.999Z</time></trkpt><trkpt lat="43.02333994610185" lon="12.897833630183785"><ele>764.5</ele><time>2026-05-03T10:36:26.999Z</time></trkpt><trkpt lat="43.023216037232245" lon="12.897560958562813"><ele>765.0</ele><time>2026-05-03T10:36:27.999Z</time></trkpt><trkpt lat="43.02308067365253" lon="12.89729283358008"><ele>765.0</ele><time>2026-05-03T10:36:28.999Z</time></trkpt><trkpt lat="43.022945087503096" lon="12.897027430140376"><ele>765.0</ele><time>2026-05-03T10:36:29.999Z</time></trkpt><trkpt lat="43.022801877720966" lon="12.896765142412015"><ele>764.0</ele><time>2026-05-03T10:36:30.999Z</time></trkpt><trkpt lat="43.022656426047014" lon="12.896501499025504"><ele>763.0</ele><time>2026-05-03T10:36:31.999Z</time></trkpt><trkpt lat="43.02250770312359" lon="12.89625086712099"><ele>763.5</ele><time>2026-05-03T10:36:32.999Z</time></trkpt><trkpt lat="43.022347760466054" lon="12.895998012615927"><ele>764.0</ele><time>2026-05-03T10:36:33.999Z</time></trkpt><trkpt lat="43.022180281379974" lon="12.89575275721434"><ele>764.0</ele><time>2026-05-03T10:36:34.999Z</time></trkpt><trkpt lat="43.02201387251813" lon="12.89550926817378"><ele>764.0</ele><time>2026-05-03T10:36:35.999Z</time></trkpt><trkpt lat="43.02183995819769" lon="12.895273551610197"><ele>764.5</ele><time>2026-05-03T10:36:36.999Z</time></trkpt><trkpt lat="43.021660157727126" lon="12.895040640868011"><ele>765.0</ele><time>2026-05-03T10:36:37.999Z</time></trkpt><trkpt lat="43.021483369320066" lon="12.894811481958717"><ele>765.0</ele><time>2026-05-03T10:36:38.999Z</time></trkpt><trkpt lat="43.02129991194489" lon="12.894583906527592"><ele>765.0</ele><time>2026-05-03T10:36:39.999Z</time></trkpt><trkpt lat="43.02111770220455" lon="12.894370649104014"><ele>766.5</ele><time>2026-05-03T10:36:41Z</time></trkpt><trkpt lat="43.02093849467345" lon="12.894155948494813"><ele>768.0</ele><time>2026-05-03T10:36:42Z</time></trkpt><trkpt lat="43.02074393372807" lon="12.893951524791115"><ele>768.0</ele><time>2026-05-03T10:36:43Z</time></trkpt><trkpt lat="43.02054286893628" lon="12.893750784609715"><ele>768.0</ele><time>2026-05-03T10:36:44Z</time></trkpt><trkpt lat="43.02034036289132" lon="12.89355464258333"><ele>767.5</ele><time>2026-05-03T10:36:45Z</time></trkpt><trkpt lat="43.02013236808448" lon="12.893361707816915"><ele>767.0</ele><time>2026-05-03T10:36:46Z</time></trkpt><trkpt lat="43.01992680568486" lon="12.893179107424011"><ele>767.0</ele><time>2026-05-03T10:36:47Z</time></trkpt><trkpt lat="43.019715530285744" lon="12.892997654475524"><ele>767.0</ele><time>2026-05-03T10:36:48Z</time></trkpt><trkpt lat="43.019506985319715" lon="12.892822331970098"><ele>767.0</ele><time>2026-05-03T10:36:49Z</time></trkpt><trkpt lat="43.01928613275603" lon="12.892657903367336"><ele>767.0</ele><time>2026-05-03T10:36:50Z</time></trkpt><trkpt lat="43.019062155575156" lon="12.892502276965342"><ele>768.0</ele><time>2026-05-03T10:36:51Z</time></trkpt><trkpt lat="43.01883510882586" lon="12.892350358610265"><ele>769.0</ele><time>2026-05-03T10:36:52Z</time></trkpt><trkpt lat="43.01860722904988" lon="12.892201794581478"><ele>769.0</ele><time>2026-05-03T10:36:53Z</time></trkpt><trkpt lat="43.018374554175296" lon="12.892061422796544"><ele>769.0</ele><time>2026-05-03T10:36:54Z</time></trkpt><trkpt lat="43.01814173012485" lon="12.891925381744882"><ele>769.0</ele><time>2026-05-03T10:36:55Z</time></trkpt><trkpt lat="43.01790553008021" lon="12.89179180843017"><ele>769.0</ele><time>2026-05-03T10:36:56Z</time></trkpt><trkpt lat="43.01766613170065" lon="12.89165474460932"><ele>770.0</ele><time>2026-05-03T10:36:57Z</time></trkpt><trkpt lat="43.017429775015714" lon="12.891519856247092"><ele>771.0</ele><time>2026-05-03T10:36:58Z</time></trkpt><trkpt lat="43.01719261600808" lon="12.891388877543678"><ele>771.0</ele><time>2026-05-03T10:36:59Z</time></trkpt><trkpt lat="43.01695629248431" lon="12.891255373912589"><ele>771.0</ele><time>2026-05-03T10:37:00Z</time></trkpt><trkpt lat="43.01672662349179" lon="12.891127318257915"><ele>769.5</ele><time>2026-05-03T10:37:01Z</time></trkpt><trkpt lat="43.016496326149536" lon="12.890994915750618"><ele>768.0</ele><time>2026-05-03T10:37:02Z</time></trkpt><trkpt lat="43.01626589787173" lon="12.89085905670991"><ele>770.5</ele><time>2026-05-03T10:37:03Z</time></trkpt><trkpt lat="43.01604240828688" lon="12.890717273688198"><ele>773.0</ele><time>2026-05-03T10:37:04Z</time></trkpt><trkpt lat="43.01581816823484" lon="12.89056658041987"><ele>773.0</ele><time>2026-05-03T10:37:05Z</time></trkpt><trkpt lat="43.01559957289068" lon="12.890404998557223"><ele>773.0</ele><time>2026-05-03T10:37:06Z</time></trkpt><trkpt lat="43.01537903359423" lon="12.890240977530688"><ele>775.5</ele><time>2026-05-03T10:37:07Z</time></trkpt><trkpt lat="43.01516160389478" lon="12.89007523320382"><ele>778.0</ele><time>2026-05-03T10:37:08Z</time></trkpt><trkpt lat="43.014952631215365" lon="12.889902214178727"><ele>778.0</ele><time>2026-05-03T10:37:09Z</time></trkpt><trkpt lat="43.014744774431165" lon="12.889723385421012"><ele>778.0</ele><time>2026-05-03T10:37:10Z</time></trkpt><trkpt lat="43.01453581590601" lon="12.889536992961137"><ele>778.0</ele><time>2026-05-03T10:37:11Z</time></trkpt><trkpt lat="43.01432983617148" lon="12.889351985018425"><ele>778.0</ele><time>2026-05-03T10:37:12Z</time></trkpt><trkpt lat="43.014124512143596" lon="12.8891610706931"><ele>775.0</ele><time>2026-05-03T10:37:13Z</time></trkpt><trkpt lat="43.01392224762378" lon="12.888958869079625"><ele>772.0</ele><time>2026-05-03T10:37:14Z</time></trkpt><trkpt lat="43.013722647501844" lon="12.888753789690202"><ele>772.0</ele><time>2026-05-03T10:37:15Z</time></trkpt><trkpt lat="43.01352472300567" lon="12.888545697251006"><ele>772.0</ele><time>2026-05-03T10:37:16Z</time></trkpt><trkpt lat="43.013331879209794" lon="12.88832977248499"><ele>772.5</ele><time>2026-05-03T10:37:17Z</time></trkpt><trkpt lat="43.01314122492189" lon="12.8881118143372"><ele>773.0</ele><time>2026-05-03T10:37:18Z</time></trkpt><trkpt lat="43.01295288362849" lon="12.887888139615656"><ele>773.0</ele><time>2026-05-03T10:37:19Z</time></trkpt><trkpt lat="43.012767216251994" lon="12.887661729021238"><ele>773.0</ele><time>2026-05-03T10:37:20Z</time></trkpt><trkpt lat="43.012587814438035" lon="12.887424574618661"><ele>782.5</ele><time>2026-05-03T10:37:21Z</time></trkpt><trkpt lat="43.012406856945695" lon="12.88718777398061"><ele>792.0</ele><time>2026-05-03T10:37:22Z</time></trkpt><trkpt lat="43.01222919409627" lon="12.886948598480652"><ele>806.0</ele><time>2026-05-03T10:37:23Z</time></trkpt><trkpt lat="43.0120492917564" lon="12.886710645047422"><ele>820.0</ele><time>2026-05-03T10:37:24Z</time></trkpt><trkpt lat="43.01187128595934" lon="12.886474092540768"><ele>820.0</ele><time>2026-05-03T10:37:25Z</time></trkpt><trkpt lat="43.011693199282384" lon="12.886232759504049"><ele>820.0</ele><time>2026-05-03T10:37:26Z</time></trkpt><trkpt lat="43.0115145538611" lon="12.885995353819602"><ele>825.0</ele><time>2026-05-03T10:37:27Z</time></trkpt><trkpt lat="43.01133637141802" lon="12.885723974075225"><ele>830.0</ele><time>2026-05-03T10:37:28.073Z</time></trkpt><trkpt lat="43.011184494624366" lon="12.885461486938825"><ele>830.0</ele><time>2026-05-03T10:37:29.07Z</time></trkpt><trkpt lat="43.01103737033369" lon="12.88519554775956"><ele>830.0</ele><time>2026-05-03T10:37:30.062Z</time></trkpt><trkpt lat="43.010892391594325" lon="12.884926196817798"><ele>833.5</ele><time>2026-05-03T10:37:31.061Z</time></trkpt><trkpt lat="43.0107529802698" lon="12.8846571904838"><ele>837.0</ele><time>2026-05-03T10:37:32.059Z</time></trkpt><trkpt lat="43.010620023903904" lon="12.884390087763773"><ele>835.0</ele><time>2026-05-03T10:37:33.041Z</time></trkpt><trkpt lat="43.01049164614515" lon="12.884120939394622"><ele>833.0</ele><time>2026-05-03T10:37:34.034Z</time></trkpt><trkpt lat="43.010366111201634" lon="12.883847278972691"><ele>833.0</ele><time>2026-05-03T10:37:35.033Z</time></trkpt><trkpt lat="43.01024261226344" lon="12.883570498543364"><ele>833.0</ele><time>2026-05-03T10:37:36.03Z</time></trkpt><trkpt lat="43.009397424323325" lon="12.881078165213252"><ele>845.0</ele><time>2026-05-03T10:37:39.554Z</time></trkpt><trkpt lat="43.00898326860726" lon="12.879851738607433"><ele>847.0</ele><time>2026-05-03T10:37:40.555Z</time></trkpt><trkpt lat="43.00857066751323" lon="12.878625518856252"><ele>834.0</ele><time>2026-05-03T10:37:41.555Z</time></trkpt><trkpt lat="43.008158793469164" lon="12.877398294473696"><ele>827.0</ele><time>2026-05-03T10:37:42.555Z</time></trkpt><trkpt lat="43.00774111610156" lon="12.87617860930087"><ele>827.0</ele><time>2026-05-03T10:37:43.553Z</time></trkpt><trkpt lat="43.0076701" lon="12.8759766"><ele>827.0</ele><time>2026-05-03T10:37:44.552Z</time></trkpt><trkpt lat="43.00687830739458" lon="12.873948253674028"><ele>811.0</ele><time>2026-05-03T10:38:02Z</time></trkpt><trkpt lat="43.00679146744319" lon="12.873627993071555"><ele>795.0</ele><time>2026-05-03T10:38:03Z</time></trkpt><trkpt lat="43.006659046537926" lon="12.873335912617108"><ele>794.5</ele><time>2026-05-03T10:38:04Z</time></trkpt><trkpt lat="43.00653188011371" lon="12.873033516777005"><ele>794.0</ele><time>2026-05-03T10:38:04.999Z</time></trkpt><trkpt lat="43.00640150277973" lon="12.872748700385852"><ele>794.5</ele><time>2026-05-03T10:38:05.999Z</time></trkpt><trkpt lat="43.00627390755338" lon="12.872461019881644"><ele>795.0</ele><time>2026-05-03T10:38:06.999Z</time></trkpt><trkpt lat="43.006141752183076" lon="12.872168156178963"><ele>795.0</ele><time>2026-05-03T10:38:07.999Z</time></trkpt><trkpt lat="43.00600850632164" lon="12.871879827911286"><ele>795.0</ele><time>2026-05-03T10:38:08.999Z</time></trkpt><trkpt lat="43.00587077952018" lon="12.87159194127299"><ele>804.5</ele><time>2026-05-03T10:38:09.999Z</time></trkpt><trkpt lat="43.00572809439454" lon="12.871301261790185"><ele>814.0</ele><time>2026-05-03T10:38:10.999Z</time></trkpt><trkpt lat="43.00558244609953" lon="12.87100320288472"><ele>808.5</ele><time>2026-05-03T10:38:11.999Z</time></trkpt><trkpt lat="43.005437046815196" lon="12.870709203850312"><ele>803.0</ele><time>2026-05-03T10:38:12.999Z</time></trkpt><trkpt lat="43.00529041764103" lon="12.870419784581058"><ele>803.0</ele><time>2026-05-03T10:38:13.999Z</time></trkpt><trkpt lat="43.005140278336064" lon="12.870134288690663"><ele>803.0</ele><time>2026-05-03T10:38:14.999Z</time></trkpt><trkpt lat="43.00498774903605" lon="12.869851191546216"><ele>810.0</ele><time>2026-05-03T10:38:15.999Z</time></trkpt><trkpt lat="43.004836242136506" lon="12.869568898414096"><ele>817.0</ele><time>2026-05-03T10:38:16.999Z</time></trkpt><trkpt lat="43.00468422225095" lon="12.869284616248164"><ele>811.5</ele><time>2026-05-03T10:38:17.999Z</time></trkpt><trkpt lat="43.004533301613634" lon="12.868996191674512"><ele>806.0</ele><time>2026-05-03T10:38:18.999Z</time></trkpt><trkpt lat="43.004385445508966" lon="12.868706311956746"><ele>802.0</ele><time>2026-05-03T10:38:19.999Z</time></trkpt><trkpt lat="43.00423610434213" lon="12.868418509947968"><ele>798.0</ele><time>2026-05-03T10:38:20.999Z</time></trkpt><trkpt lat="43.004082359162176" lon="12.868127497139929"><ele>803.5</ele><time>2026-05-03T10:38:21.999Z</time></trkpt><trkpt lat="43.00392786199983" lon="12.867826035797343"><ele>809.0</ele><time>2026-05-03T10:38:22.999Z</time></trkpt><trkpt lat="43.00377860251242" lon="12.867522862015674"><ele>809.0</ele><time>2026-05-03T10:38:23.999Z</time></trkpt><trkpt lat="43.003628871252154" lon="12.867220563185606"><ele>809.0</ele><time>2026-05-03T10:38:24.999Z</time></trkpt><trkpt lat="43.003478002235596" lon="12.866917239319761"><ele>816.0</ele><time>2026-05-03T10:38:25.999Z</time></trkpt><trkpt lat="43.00331651755675" lon="12.866620360125488"><ele>823.0</ele><time>2026-05-03T10:38:26.999Z</time></trkpt><trkpt lat="43.00316738607048" lon="12.866321822995651"><ele>823.0</ele><time>2026-05-03T10:38:27.999Z</time></trkpt><trkpt lat="43.00301387586706" lon="12.866015347420403"><ele>823.0</ele><time>2026-05-03T10:38:28.999Z</time></trkpt><trkpt lat="43.002863201886825" lon="12.865713253010046"><ele>816.0</ele><time>2026-05-03T10:38:29.999Z</time></trkpt><trkpt lat="43.002711025344155" lon="12.865402185388083"><ele>809.0</ele><time>2026-05-03T10:38:30.999Z</time></trkpt><trkpt lat="43.00255967647503" lon="12.865099144572156"><ele>810.5</ele><time>2026-05-03T10:38:31.999Z</time></trkpt><trkpt lat="43.00239499852267" lon="12.864778158633092"><ele>812.0</ele><time>2026-05-03T10:38:33.063Z</time></trkpt><trkpt lat="42.993703265475794" lon="12.846410727578952"><ele>764.5</ele><time>2026-05-03T10:39:21.999Z</time></trkpt><trkpt lat="42.99359471438902" lon="12.846088846828646"><ele>717.0</ele><time>2026-05-03T10:39:22.999Z</time></trkpt><trkpt lat="42.99349538367244" lon="12.845713498244793"><ele>717.0</ele><time>2026-05-03T10:39:23.999Z</time></trkpt><trkpt lat="42.993410135405746" lon="12.845360275343136"><ele>717.0</ele><time>2026-05-03T10:39:24.999Z</time></trkpt><trkpt lat="42.99333296636784" lon="12.845016525613515"><ele>712.5</ele><time>2026-05-03T10:39:25.999Z</time></trkpt><trkpt lat="42.99327423067701" lon="12.844664511445457"><ele>708.0</ele><time>2026-05-03T10:39:26.999Z</time></trkpt><trkpt lat="42.99322583153202" lon="12.844307301023733"><ele>713.5</ele><time>2026-05-03T10:39:28Z</time></trkpt><trkpt lat="42.993179101173794" lon="12.843961178566099"><ele>719.0</ele><time>2026-05-03T10:39:29Z</time></trkpt><trkpt lat="42.99310225321612" lon="12.843620240359366"><ele>730.0</ele><time>2026-05-03T10:39:30Z</time></trkpt><trkpt lat="42.99305193549506" lon="12.84325683624727"><ele>741.0</ele><time>2026-05-03T10:39:31Z</time></trkpt><trkpt lat="42.99302966835207" lon="12.842879369657894"><ele>756.0</ele><time>2026-05-03T10:39:32Z</time></trkpt><trkpt lat="42.99301753078487" lon="12.84250275996169"><ele>771.0</ele><time>2026-05-03T10:39:33Z</time></trkpt><trkpt lat="42.99301547206424" lon="12.842124851962511"><ele>785.5</ele><time>2026-05-03T10:39:34Z</time></trkpt><trkpt lat="42.99302302488908" lon="12.841747682343508"><ele>800.0</ele><time>2026-05-03T10:39:35Z</time></trkpt><trkpt lat="42.99305048949835" lon="12.841340191079908"><ele>800.0</ele><time>2026-05-03T10:39:36.069Z</time></trkpt><trkpt lat="42.993069444558174" lon="12.840982932996198"><ele>800.0</ele><time>2026-05-03T10:39:37.057Z</time></trkpt><trkpt lat="42.99149237018336" lon="12.830167072081707"><ele>728.0</ele><time>2026-05-03T10:40:02Z</time></trkpt><trkpt lat="42.99144054786901" lon="12.82981157961426"><ele>656.0</ele><time>2026-05-03T10:40:03Z</time></trkpt><trkpt lat="42.9913915271637" lon="12.829434686301306"><ele>673.5</ele><time>2026-05-03T10:40:04Z</time></trkpt><trkpt lat="42.99134652639442" lon="12.829077644522176"><ele>691.0</ele><time>2026-05-03T10:40:05Z</time></trkpt><trkpt lat="42.99130055705344" lon="12.828719719165464"><ele>711.5</ele><time>2026-05-03T10:40:06Z</time></trkpt><trkpt lat="42.99125485449814" lon="12.828362277926981"><ele>732.0</ele><time>2026-05-03T10:40:07Z</time></trkpt><trkpt lat="42.991228879342266" lon="12.827996394430025"><ele>746.0</ele><time>2026-05-03T10:40:08Z</time></trkpt><trkpt lat="42.99118537069507" lon="12.827614895652012"><ele>760.0</ele><time>2026-05-03T10:40:09.059Z</time></trkpt><trkpt lat="42.99114452808452" lon="12.827254961601609"><ele>811.0</ele><time>2026-05-03T10:40:10.059Z</time></trkpt><trkpt lat="42.99071496071641" lon="12.823474304732192"><ele>545.0</ele><time>2026-05-03T10:40:21.8Z</time></trkpt><trkpt lat="42.978746592425935" lon="12.799406441311504"><ele>533.5</ele><time>2026-05-03T10:41:24.999Z</time></trkpt><trkpt lat="42.978622711678966" lon="12.799072822251356"><ele>522.0</ele><time>2026-05-03T10:41:25.999Z</time></trkpt><trkpt lat="42.978511204127265" lon="12.79871986416154"><ele>521.5</ele><time>2026-05-03T10:41:26.999Z</time></trkpt><trkpt lat="42.97839900173594" lon="12.798364457543926"><ele>521.0</ele><time>2026-05-03T10:41:27.999Z</time></trkpt><trkpt lat="42.97828675978593" lon="12.798021128366038"><ele>513.0</ele><time>2026-05-03T10:41:28.999Z</time></trkpt><trkpt lat="42.978184941552556" lon="12.797686337232786"><ele>505.0</ele><time>2026-05-03T10:41:29.999Z</time></trkpt><trkpt lat="42.97807061091073" lon="12.79734527657557"><ele>504.5</ele><time>2026-05-03T10:41:30.999Z</time></trkpt><trkpt lat="42.9779579128358" lon="12.797014895050825"><ele>504.0</ele><time>2026-05-03T10:41:31.999Z</time></trkpt><trkpt lat="42.97784887658854" lon="12.796686410265082"><ele>506.5</ele><time>2026-05-03T10:41:33Z</time></trkpt><trkpt lat="42.9777438662475" lon="12.796359516712513"><ele>509.0</ele><time>2026-05-03T10:41:34Z</time></trkpt><trkpt lat="42.97763672535355" lon="12.796031854629183"><ele>508.0</ele><time>2026-05-03T10:41:35Z</time></trkpt><trkpt lat="42.97752844760969" lon="12.79570885323153"><ele>507.0</ele><time>2026-05-03T10:41:36Z</time></trkpt><trkpt lat="42.977418490061005" lon="12.795380203544555"><ele>521.0</ele><time>2026-05-03T10:41:37Z</time></trkpt><trkpt lat="42.97730962380252" lon="12.795052674326529"><ele>535.0</ele><time>2026-05-03T10:41:38Z</time></trkpt><trkpt lat="42.97719394708518" lon="12.794733887829302"><ele>535.0</ele><time>2026-05-03T10:41:39Z</time></trkpt><trkpt lat="42.97707767153975" lon="12.794417623747654"><ele>535.0</ele><time>2026-05-03T10:41:40Z</time></trkpt><trkpt lat="42.97696105588403" lon="12.794100330436269"><ele>530.0</ele><time>2026-05-03T10:41:41Z</time></trkpt><trkpt lat="42.97684030444255" lon="12.79378191634957"><ele>525.0</ele><time>2026-05-03T10:41:42Z</time></trkpt><trkpt lat="42.97672389173181" lon="12.793472630628873"><ele>550.0</ele><time>2026-05-03T10:41:43Z</time></trkpt><trkpt lat="42.97663303090056" lon="12.793125142413851"><ele>575.0</ele><time>2026-05-03T10:41:44.061Z</time></trkpt><trkpt lat="42.97655351687957" lon="12.792799384253602"><ele>576.0</ele><time>2026-05-03T10:41:45.057Z</time></trkpt><trkpt lat="42.976473227644995" lon="12.792466715261439"><ele>577.0</ele><time>2026-05-03T10:41:46.052Z</time></trkpt><trkpt lat="42.97639691799266" lon="12.792142104227569"><ele>658.0</ele><time>2026-05-03T10:41:47.054Z</time></trkpt><trkpt lat="42.97605630281581" lon="12.789420659369906"><ele>645.0</ele><time>2026-05-03T10:41:50.549Z</time></trkpt><trkpt lat="42.97597728756144" lon="12.788076694329128"><ele>649.0</ele><time>2026-05-03T10:41:51.549Z</time></trkpt><trkpt lat="42.9759744999766" lon="12.78672983413846"><ele>643.0</ele><time>2026-05-03T10:41:52.548Z</time></trkpt><trkpt lat="42.97604593764998" lon="12.785380395119866"><ele>635.0</ele><time>2026-05-03T10:41:53.552Z</time></trkpt><trkpt lat="42.97620316384004" lon="12.784053068851538"><ele>647.0</ele><time>2026-05-03T10:41:54.549Z</time></trkpt><trkpt lat="42.976436291791906" lon="12.782739134521687"><ele>614.0</ele><time>2026-05-03T10:41:55.551Z</time></trkpt><trkpt lat="42.97671797632319" lon="12.78145163481229"><ele>633.0</ele><time>2026-05-03T10:41:56.548Z</time></trkpt><trkpt lat="42.97701205647728" lon="12.78016312852276"><ele>641.0</ele><time>2026-05-03T10:41:57.548Z</time></trkpt><trkpt lat="42.977291489219716" lon="12.778865141648348"><ele>620.0</ele><time>2026-05-03T10:41:58.551Z</time></trkpt><trkpt lat="42.97754870159506" lon="12.777563800426666"><ele>620.0</ele><time>2026-05-03T10:41:59.551Z</time></trkpt><trkpt lat="42.9776232" lon="12.7770996"><ele>620.0</ele><time>2026-05-03T10:42:00.547Z</time></trkpt><trkpt lat="42.97797158391106" lon="12.766764931700903"><ele>518.5</ele><time>2026-05-03T10:42:44Z</time></trkpt><trkpt lat="42.97795144822725" lon="12.766444644571541"><ele>417.0</ele><time>2026-05-03T10:42:45Z</time></trkpt><trkpt lat="42.97791845671001" lon="12.766078150533076"><ele>431.5</ele><time>2026-05-03T10:42:46Z</time></trkpt><trkpt lat="42.977882915361384" lon="12.765729054482827"><ele>446.0</ele><time>2026-05-03T10:42:47Z</time></trkpt><trkpt lat="42.97784446437023" lon="12.765390007145566"><ele>467.5</ele><time>2026-05-03T10:42:48Z</time></trkpt><trkpt lat="42.97780285181994" lon="12.765056650759597"><ele>489.0</ele><time>2026-05-03T10:42:49Z</time></trkpt><trkpt lat="42.977758715530975" lon="12.76472989969718"><ele>489.0</ele><time>2026-05-03T10:42:49.999Z</time></trkpt><trkpt lat="42.97771169749106" lon="12.764416746674915"><ele>489.0</ele><time>2026-05-03T10:42:50.999Z</time></trkpt><trkpt lat="42.977669659163794" lon="12.764115333896585"><ele>499.0</ele><time>2026-05-03T10:42:51.999Z</time></trkpt><trkpt lat="42.97762336190749" lon="12.763822161784809"><ele>509.0</ele><time>2026-05-03T10:42:53.059Z</time></trkpt><trkpt lat="42.97758861964575" lon="12.763551127368066"><ele>519.0</ele><time>2026-05-03T10:42:54.047Z</time></trkpt><trkpt lat="42.97756802181452" lon="12.763268007462946"><ele>520.5</ele><time>2026-05-03T10:42:55.044Z</time></trkpt><trkpt lat="42.97754726614463" lon="12.763005409990207"><ele>522.0</ele><time>2026-05-03T10:42:56.042Z</time></trkpt><trkpt lat="42.9741749260791" lon="12.752965533760003"><ele>450.5</ele><time>2026-05-03T10:43:19.999Z</time></trkpt><trkpt lat="42.97401401648122" lon="12.752651724168793"><ele>379.0</ele><time>2026-05-03T10:43:20.999Z</time></trkpt><trkpt lat="42.97385044745802" lon="12.752331145491208"><ele>379.0</ele><time>2026-05-03T10:43:21.999Z</time></trkpt><trkpt lat="42.973724234224406" lon="12.75208834759972"><ele>379.0</ele><time>2026-05-03T10:43:22.999Z</time></trkpt><trkpt lat="42.97357124755155" lon="12.751813185168329"><ele>374.5</ele><time>2026-05-03T10:43:23.999Z</time></trkpt><trkpt lat="42.97340620135595" lon="12.751526384084848"><ele>370.0</ele><time>2026-05-03T10:43:24.999Z</time></trkpt><trkpt lat="42.97324260372849" lon="12.751244223711858"><ele>376.5</ele><time>2026-05-03T10:43:25.999Z</time></trkpt><trkpt lat="42.97307719494229" lon="12.750957287886909"><ele>383.0</ele><time>2026-05-03T10:43:26.999Z</time></trkpt><trkpt lat="42.97291948835619" lon="12.75067954328646"><ele>383.0</ele><time>2026-05-03T10:43:27.999Z</time></trkpt><trkpt lat="42.97275189816822" lon="12.750403333694836"><ele>383.0</ele><time>2026-05-03T10:43:28.999Z</time></trkpt><trkpt lat="42.97257444163418" lon="12.750127887188672"><ele>384.0</ele><time>2026-05-03T10:43:29.999Z</time></trkpt><trkpt lat="42.97239303116169" lon="12.749855213325922"><ele>385.0</ele><time>2026-05-03T10:43:30.999Z</time></trkpt><trkpt lat="42.97221353207994" lon="12.749589195884546"><ele>380.0</ele><time>2026-05-03T10:43:31.999Z</time></trkpt><trkpt lat="42.97202809679805" lon="12.749323762685753"><ele>375.0</ele><time>2026-05-03T10:43:32.999Z</time></trkpt><trkpt lat="42.97184255962556" lon="12.749059203383274"><ele>384.0</ele><time>2026-05-03T10:43:33.999Z</time></trkpt><trkpt lat="42.9716584016064" lon="12.748803210739254"><ele>393.0</ele><time>2026-05-03T10:43:34.999Z</time></trkpt><trkpt lat="42.97147161619016" lon="12.748553827049356"><ele>387.5</ele><time>2026-05-03T10:43:35.999Z</time></trkpt><trkpt lat="42.97127965376306" lon="12.748300675048995"><ele>382.0</ele><time>2026-05-03T10:43:36.999Z</time></trkpt><trkpt lat="42.97108656005949" lon="12.748052714280139"><ele>382.0</ele><time>2026-05-03T10:43:37.999Z</time></trkpt><trkpt lat="42.97089455551391" lon="12.747813419585148"><ele>382.0</ele><time>2026-05-03T10:43:39Z</time></trkpt><trkpt lat="42.970710910440125" lon="12.747563714052799"><ele>392.0</ele><time>2026-05-03T10:43:40Z</time></trkpt><trkpt lat="42.97035157292152" lon="12.747050018662605"><ele>389.5</ele><time>2026-05-03T10:43:42Z</time></trkpt><trkpt lat="42.97012187802132" lon="12.746875898119642"><ele>387.0</ele><time>2026-05-03T10:43:43Z</time></trkpt><trkpt lat="42.96992608038378" lon="12.74665418501633"><ele>387.0</ele><time>2026-05-03T10:43:44Z</time></trkpt><trkpt lat="42.96973238521208" lon="12.746438858409483"><ele>387.0</ele><time>2026-05-03T10:43:45Z</time></trkpt><trkpt lat="42.96954321847232" lon="12.74623679282154"><ele>383.0</ele><time>2026-05-03T10:43:46Z</time></trkpt><trkpt lat="42.96935348814541" lon="12.746036345065555"><ele>379.0</ele><time>2026-05-03T10:43:47Z</time></trkpt><trkpt lat="42.96916346728911" lon="12.745846586957652"><ele>379.0</ele><time>2026-05-03T10:43:48Z</time></trkpt><trkpt lat="42.968968467267736" lon="12.745660553325731"><ele>379.0</ele><time>2026-05-03T10:43:49Z</time></trkpt><trkpt lat="42.968768299498855" lon="12.745480267427713"><ele>379.0</ele><time>2026-05-03T10:43:50Z</time></trkpt><trkpt lat="42.96856401266285" lon="12.745299278289021"><ele>379.0</ele><time>2026-05-03T10:43:51Z</time></trkpt><trkpt lat="42.96835694944634" lon="12.745114699493188"><ele>382.5</ele><time>2026-05-03T10:43:52Z</time></trkpt><trkpt lat="42.968136711898126" lon="12.744923823266234"><ele>386.0</ele><time>2026-05-03T10:43:53Z</time></trkpt><trkpt lat="42.96790827931456" lon="12.744723724588532"><ele>386.0</ele><time>2026-05-03T10:43:54Z</time></trkpt><trkpt lat="42.96767616101539" lon="12.744514912526597"><ele>386.0</ele><time>2026-05-03T10:43:55Z</time></trkpt><trkpt lat="42.96744469363471" lon="12.744304777422055"><ele>386.0</ele><time>2026-05-03T10:43:56Z</time></trkpt><trkpt lat="42.967238831712464" lon="12.744092722314477"><ele>386.0</ele><time>2026-05-03T10:43:57Z</time></trkpt><trkpt lat="42.96701535618608" lon="12.743878912330324"><ele>386.0</ele><time>2026-05-03T10:43:58Z</time></trkpt><trkpt lat="42.96679301120199" lon="12.743657976338744"><ele>386.0</ele><time>2026-05-03T10:43:59Z</time></trkpt><trkpt lat="42.96661581926501" lon="12.743566365661593"><ele>379.5</ele><time>2026-05-03T10:44:00Z</time></trkpt><trkpt lat="42.96639125422382" lon="12.743349476687449"><ele>373.0</ele><time>2026-05-03T10:44:01Z</time></trkpt><trkpt lat="42.96617520486691" lon="12.743142666135112"><ele>373.0</ele><time>2026-05-03T10:44:02Z</time></trkpt><trkpt lat="42.96596265305714" lon="12.742951628660489"><ele>373.0</ele><time>2026-05-03T10:44:03Z</time></trkpt><trkpt lat="42.96574907463355" lon="12.742746211518327"><ele>367.0</ele><time>2026-05-03T10:44:04Z</time></trkpt><trkpt lat="42.96553248838242" lon="12.742542705775007"><ele>361.0</ele><time>2026-05-03T10:44:05Z</time></trkpt><trkpt lat="42.965317030793194" lon="12.742332843133422"><ele>361.0</ele><time>2026-05-03T10:44:06Z</time></trkpt><trkpt lat="42.96510751325827" lon="12.742115878482608"><ele>361.0</ele><time>2026-05-03T10:44:07Z</time></trkpt><trkpt lat="42.964897929738555" lon="12.741899095195736"><ele>351.5</ele><time>2026-05-03T10:44:08Z</time></trkpt><trkpt lat="42.964694052463706" lon="12.741672903356811"><ele>342.0</ele><time>2026-05-03T10:44:09Z</time></trkpt><trkpt lat="42.96448882580332" lon="12.741447294231977"><ele>342.0</ele><time>2026-05-03T10:44:10Z</time></trkpt><trkpt lat="42.96428663363792" lon="12.741218761022589"><ele>342.0</ele><time>2026-05-03T10:44:11Z</time></trkpt><trkpt lat="42.96409695981421" lon="12.740981287584463"><ele>337.5</ele><time>2026-05-03T10:44:12Z</time></trkpt><trkpt lat="42.96390605549236" lon="12.74074462751351"><ele>333.0</ele><time>2026-05-03T10:44:13Z</time></trkpt><trkpt lat="42.96371924046348" lon="12.740502324296505"><ele>333.0</ele><time>2026-05-03T10:44:14Z</time></trkpt><trkpt lat="42.96353919998175" lon="12.74025624888879"><ele>333.0</ele><time>2026-05-03T10:44:15Z</time></trkpt><trkpt lat="42.96335635343871" lon="12.740008048144643"><ele>338.5</ele><time>2026-05-03T10:44:16Z</time></trkpt><trkpt lat="42.96318746302958" lon="12.739762093528736"><ele>344.0</ele><time>2026-05-03T10:44:17Z</time></trkpt><trkpt lat="42.963009174484625" lon="12.73951377172932"><ele>341.0</ele><time>2026-05-03T10:44:18Z</time></trkpt><trkpt lat="42.9628404864668" lon="12.73926691956776"><ele>338.0</ele><time>2026-05-03T10:44:19Z</time></trkpt><trkpt lat="42.962672538751065" lon="12.739018451008867"><ele>342.0</ele><time>2026-05-03T10:44:20Z</time></trkpt><trkpt lat="42.962503374513055" lon="12.738773904585743"><ele>346.0</ele><time>2026-05-03T10:44:21Z</time></trkpt><trkpt lat="42.962336525815225" lon="12.73853154753734"><ele>346.0</ele><time>2026-05-03T10:44:22Z</time></trkpt><trkpt lat="42.96216545117678" lon="12.738296492826478"><ele>346.0</ele><time>2026-05-03T10:44:23Z</time></trkpt><trkpt lat="42.96198370941518" lon="12.738066663671054"><ele>346.0</ele><time>2026-05-03T10:44:24Z</time></trkpt><trkpt lat="42.96179246506923" lon="12.73783529092821"><ele>346.0</ele><time>2026-05-03T10:44:25Z</time></trkpt><trkpt lat="42.961596218880636" lon="12.737619251525144"><ele>353.0</ele><time>2026-05-03T10:44:26Z</time></trkpt><trkpt lat="42.96138705253538" lon="12.737419488307122"><ele>360.0</ele><time>2026-05-03T10:44:27Z</time></trkpt><trkpt lat="42.96117347373186" lon="12.737224131974735"><ele>360.0</ele><time>2026-05-03T10:44:28Z</time></trkpt><trkpt lat="42.960955899385034" lon="12.73703709647553"><ele>360.0</ele><time>2026-05-03T10:44:29Z</time></trkpt><trkpt lat="42.96073383893453" lon="12.736850858873328"><ele>365.0</ele><time>2026-05-03T10:44:30Z</time></trkpt><trkpt lat="42.960498242210356" lon="12.736640415444368"><ele>370.0</ele><time>2026-05-03T10:44:31Z</time></trkpt><trkpt lat="42.960269917421215" lon="12.736441557259154"><ele>366.0</ele><time>2026-05-03T10:44:32Z</time></trkpt><trkpt lat="42.96002065127254" lon="12.736325998871143"><ele>362.0</ele><time>2026-05-03T10:44:33Z</time></trkpt><trkpt lat="42.9597803114979" lon="12.736206224904178"><ele>362.0</ele><time>2026-05-03T10:44:34Z</time></trkpt><trkpt lat="42.95954451278166" lon="12.736103206415121"><ele>362.0</ele><time>2026-05-03T10:44:35Z</time></trkpt><trkpt lat="42.959283222641616" lon="12.736002143078995"><ele>358.5</ele><time>2026-05-03T10:44:36Z</time></trkpt><trkpt lat="42.95902720717493" lon="12.73590781591901"><ele>355.0</ele><time>2026-05-03T10:44:37Z</time></trkpt><trkpt lat="42.958792673012155" lon="12.73582358308328"><ele>355.0</ele><time>2026-05-03T10:44:38Z</time></trkpt><trkpt lat="42.9585578383524" lon="12.735737399464167"><ele>355.0</ele><time>2026-05-03T10:44:39Z</time></trkpt><trkpt lat="42.958374889076914" lon="12.735744816307026"><ele>355.0</ele><time>2026-05-03T10:44:40Z</time></trkpt><trkpt lat="42.9581744827525" lon="12.735662003560439"><ele>351.0</ele><time>2026-05-03T10:44:41Z</time></trkpt><trkpt lat="42.9579891057323" lon="12.735577306226402"><ele>347.0</ele><time>2026-05-03T10:44:42Z</time></trkpt><trkpt lat="42.95780506415207" lon="12.73549118129346"><ele>343.0</ele><time>2026-05-03T10:44:43Z</time></trkpt><trkpt lat="42.95762752194993" lon="12.735400075733105"><ele>341.66666666666663</ele><time>2026-05-03T10:44:44Z</time></trkpt><trkpt lat="42.95746156673897" lon="12.73530270129861"><ele>340.3333333333333</ele><time>2026-05-03T10:44:45Z</time></trkpt><trkpt lat="42.95730267256404" lon="12.735188716846123"><ele>339.0</ele><time>2026-05-03T10:44:46Z</time></trkpt><trkpt lat="42.9571507544743" lon="12.735063379300282"><ele>336.3333333333333</ele><time>2026-05-03T10:44:47Z</time></trkpt><trkpt lat="42.95700247477527" lon="12.73493900178775"><ele>333.66666666666663</ele><time>2026-05-03T10:44:47.999Z</time></trkpt><trkpt lat="42.95686188208045" lon="12.734811298405889"><ele>331.0</ele><time>2026-05-03T10:44:48.999Z</time></trkpt><trkpt lat="42.9567217650563" lon="12.734681074624667"><ele>331.3333333333333</ele><time>2026-05-03T10:44:49.999Z</time></trkpt><trkpt lat="42.95658862419419" lon="12.73454650553308"><ele>331.6666666666667</ele><time>2026-05-03T10:44:50.999Z</time></trkpt><trkpt lat="42.95646236995983" lon="12.734402620950558"><ele>332.0</ele><time>2026-05-03T10:44:51.999Z</time></trkpt><trkpt lat="42.9563478871493" lon="12.734261043002007"><ele>330.25</ele><time>2026-05-03T10:44:52.999Z</time></trkpt><trkpt lat="42.95624453993342" lon="12.73413352029605"><ele>328.5</ele><time>2026-05-03T10:44:53.999Z</time></trkpt><trkpt lat="42.95614547323672" lon="12.734017015558107"><ele>326.75</ele><time>2026-05-03T10:44:54.999Z</time></trkpt><trkpt lat="42.956046829668146" lon="12.733899103869012"><ele>325.0</ele><time>2026-05-03T10:44:55.999Z</time></trkpt><trkpt lat="42.955955047320884" lon="12.733785239233946"><ele>325.0</ele><time>2026-05-03T10:44:56.999Z</time></trkpt><trkpt lat="42.95587826315131" lon="12.733681753642738"><ele>325.0</ele><time>2026-05-03T10:44:57.999Z</time></trkpt><trkpt lat="42.95581475734203" lon="12.733592843836108"><ele>325.0</ele><time>2026-05-03T10:44:58.999Z</time></trkpt><trkpt lat="42.95576133352722" lon="12.733515675577914"><ele>325.0</ele><time>2026-05-03T10:44:59.999Z</time></trkpt><trkpt lat="42.95571046587291" lon="12.733421346930166"><ele>325.0</ele><time>2026-05-03T10:45:01.999Z</time></trkpt><trkpt lat="42.955653327373845" lon="12.733372590242496"><ele>325.0</ele><time>2026-05-03T10:50:30Z</time></trkpt><trkpt lat="42.95557016600897" lon="12.733298791434787"><ele>323.5</ele><time>2026-05-03T10:50:32.999Z</time></trkpt><trkpt lat="42.95549896395173" lon="12.733224901476445"><ele>322.0</ele><time>2026-05-03T10:50:34.999Z</time></trkpt><trkpt lat="42.95544467047773" lon="12.733172041607107"><ele>320.5</ele><time>2026-05-03T10:50:35.999Z</time></trkpt><trkpt lat="42.955377857336735" lon="12.733109312942934"><ele>319.0</ele><time>2026-05-03T10:50:36.999Z</time></trkpt><trkpt lat="42.955302304490345" lon="12.733041971171094"><ele>317.5</ele><time>2026-05-03T10:50:37.999Z</time></trkpt><trkpt lat="42.95521584464418" lon="12.732961387474553"><ele>316.0</ele><time>2026-05-03T10:50:38.999Z</time></trkpt><trkpt lat="42.955122954252275" lon="12.73287383034035"><ele>315.5</ele><time>2026-05-03T10:50:39.999Z</time></trkpt><trkpt lat="42.95500819182537" lon="12.732781639434517"><ele>315.0</ele><time>2026-05-03T10:50:40.999Z</time></trkpt><trkpt lat="42.95488817354954" lon="12.732689748664642"><ele>314.5</ele><time>2026-05-03T10:50:41.999Z</time></trkpt><trkpt lat="42.95476086853242" lon="12.732599996829924"><ele>314.0</ele><time>2026-05-03T10:50:42.999Z</time></trkpt><trkpt lat="42.95462220427981" lon="12.732502503217283"><ele>314.0</ele><time>2026-05-03T10:50:43.999Z</time></trkpt><trkpt lat="42.954477984780645" lon="12.73241215575575"><ele>314.0</ele><time>2026-05-03T10:50:44.999Z</time></trkpt><trkpt lat="42.9543268912134" lon="12.732285873115888"><ele>314.0</ele><time>2026-05-03T10:50:45.999Z</time></trkpt><trkpt lat="42.95416896812333" lon="12.73218876564284"><ele>313.0</ele><time>2026-05-03T10:50:46.999Z</time></trkpt><trkpt lat="42.954006570356036" lon="12.732082853144039"><ele>312.0</ele><time>2026-05-03T10:50:47.999Z</time></trkpt><trkpt lat="42.953842708129365" lon="12.731972510420501"><ele>311.0</ele><time>2026-05-03T10:50:48.999Z</time></trkpt><trkpt lat="42.95368767034296" lon="12.731861359772406"><ele>311.0</ele><time>2026-05-03T10:50:49.999Z</time></trkpt><trkpt lat="42.95353748411889" lon="12.731750149928073"><ele>311.0</ele><time>2026-05-03T10:50:50.999Z</time></trkpt><trkpt lat="42.953385285834884" lon="12.731616734149304"><ele>311.0</ele><time>2026-05-03T10:50:51.999Z</time></trkpt><trkpt lat="42.95324197228329" lon="12.731462947690982"><ele>311.6666666666667</ele><time>2026-05-03T10:50:52.999Z</time></trkpt><trkpt lat="42.953112755661444" lon="12.731293882087261"><ele>312.3333333333333</ele><time>2026-05-03T10:50:53.999Z</time></trkpt><trkpt lat="42.95299299374735" lon="12.731100569384155"><ele>313.0</ele><time>2026-05-03T10:50:54.999Z</time></trkpt><trkpt lat="42.95288566943651" lon="12.73089409915233"><ele>311.3333333333333</ele><time>2026-05-03T10:50:55.999Z</time></trkpt><trkpt lat="42.95279829617819" lon="12.730672029098466"><ele>309.6666666666667</ele><time>2026-05-03T10:50:56.999Z</time></trkpt><trkpt lat="42.952730466606255" lon="12.730433546973538"><ele>308.0</ele><time>2026-05-03T10:50:57.999Z</time></trkpt><trkpt lat="42.95268237631621" lon="12.73018948073602"><ele>307.33333333333337</ele><time>2026-05-03T10:50:58.999Z</time></trkpt><trkpt lat="42.95264560142364" lon="12.729930545730879"><ele>306.6666666666667</ele><time>2026-05-03T10:50:59.999Z</time></trkpt><trkpt lat="42.952632207019406" lon="12.729666202660523"><ele>306.0</ele><time>2026-05-03T10:51:00.999Z</time></trkpt><trkpt lat="42.95265458707954" lon="12.729386363036074"><ele>305.3333333333333</ele><time>2026-05-03T10:51:01.999Z</time></trkpt><trkpt lat="42.95267031347466" lon="12.729094943083377"><ele>304.66666666666663</ele><time>2026-05-03T10:51:02.999Z</time></trkpt><trkpt lat="42.95267725117582" lon="12.728792730797448"><ele>304.0</ele><time>2026-05-03T10:51:03.999Z</time></trkpt><trkpt lat="42.95268449994117" lon="12.728476968561022"><ele>303.66666666666663</ele><time>2026-05-03T10:51:04.999Z</time></trkpt><trkpt lat="42.95264514284377" lon="12.72835422496929"><ele>303.3333333333333</ele><time>2026-05-03T10:51:05.999Z</time></trkpt><trkpt lat="42.95264548232082" lon="12.728084758282481"><ele>303.0</ele><time>2026-05-03T10:51:06.999Z</time></trkpt><trkpt lat="42.95264608000431" lon="12.727823138662448"><ele>301.3333333333333</ele><time>2026-05-03T10:51:07.999Z</time></trkpt><trkpt lat="42.95264695802721" lon="12.727560810105762"><ele>299.66666666666663</ele><time>2026-05-03T10:51:08.999Z</time></trkpt><trkpt lat="42.95263266629505" lon="12.72730615875495"><ele>298.0</ele><time>2026-05-03T10:51:09.999Z</time></trkpt><trkpt lat="42.95260105644907" lon="12.727051273133753"><ele>296.66666666666663</ele><time>2026-05-03T10:51:10.999Z</time></trkpt><trkpt lat="42.95255951980876" lon="12.726800836715679"><ele>295.3333333333333</ele><time>2026-05-03T10:51:11.999Z</time></trkpt><trkpt lat="42.95250460877155" lon="12.726547429212816"><ele>294.0</ele><time>2026-05-03T10:51:12.999Z</time></trkpt><trkpt lat="42.9524449393886" lon="12.726284932121015"><ele>293.0</ele><time>2026-05-03T10:51:13.999Z</time></trkpt><trkpt lat="42.9523886769971" lon="12.726022933247087"><ele>292.0</ele><time>2026-05-03T10:51:14.999Z</time></trkpt><trkpt lat="42.95233855517571" lon="12.725769034015087"><ele>291.0</ele><time>2026-05-03T10:51:15.999Z</time></trkpt><trkpt lat="42.95229375976273" lon="12.725523991210252"><ele>291.0</ele><time>2026-05-03T10:51:16.999Z</time></trkpt><trkpt lat="42.95224458642345" lon="12.725284955682021"><ele>291.0</ele><time>2026-05-03T10:51:17.999Z</time></trkpt><trkpt lat="42.95220200246106" lon="12.72505455448339"><ele>291.0</ele><time>2026-05-03T10:51:18.999Z</time></trkpt><trkpt lat="42.952158373908944" lon="12.72482738910529"><ele>289.0</ele><time>2026-05-03T10:51:19.999Z</time></trkpt><trkpt lat="42.95211354690619" lon="12.724610169018778"><ele>287.0</ele><time>2026-05-03T10:51:20.999Z</time></trkpt><trkpt lat="42.95206692432861" lon="12.724397210531185"><ele>285.0</ele><time>2026-05-03T10:51:21.999Z</time></trkpt><trkpt lat="42.95202325607887" lon="12.724194606079848"><ele>284.5</ele><time>2026-05-03T10:51:22.999Z</time></trkpt><trkpt lat="42.9519790527071" lon="12.72399310506878"><ele>284.0</ele><time>2026-05-03T10:51:23.999Z</time></trkpt><trkpt lat="42.95193854013816" lon="12.723797248391364"><ele>283.5</ele><time>2026-05-03T10:51:24.999Z</time></trkpt><trkpt lat="42.95190384239018" lon="12.723607847215687"><ele>283.0</ele><time>2026-05-03T10:51:25.999Z</time></trkpt><trkpt lat="42.951885577401754" lon="12.723433406427327"><ele>282.4</ele><time>2026-05-03T10:51:26.999Z</time></trkpt><trkpt lat="42.95189868062806" lon="12.723276656691912"><ele>281.8</ele><time>2026-05-03T10:51:27.999Z</time></trkpt><trkpt lat="42.951927764311485" lon="12.723133163850996"><ele>281.2</ele><time>2026-05-03T10:51:28.999Z</time></trkpt><trkpt lat="42.95198755002301" lon="12.723014764143699"><ele>280.6</ele><time>2026-05-03T10:51:29.999Z</time></trkpt><trkpt lat="42.952080164478694" lon="12.722916999584045"><ele>280.0</ele><time>2026-05-03T10:51:30.999Z</time></trkpt><trkpt lat="42.95218479631004" lon="12.722836795004252"><ele>280.0</ele><time>2026-05-03T10:51:31.999Z</time></trkpt><trkpt lat="42.95229721548358" lon="12.722798317135291"><ele>280.0</ele><time>2026-05-03T10:51:32.999Z</time></trkpt><trkpt lat="42.952375775012406" lon="12.722781283136678"><ele>280.0</ele><time>2026-05-03T10:51:33.999Z</time></trkpt><trkpt lat="42.95247322235728" lon="12.722793965158733"><ele>280.0</ele><time>2026-05-03T10:51:34.999Z</time></trkpt><trkpt lat="42.952575165145376" lon="12.72280135185619"><ele>280.0</ele><time>2026-05-03T10:51:35.999Z</time></trkpt><trkpt lat="42.952684079486005" lon="12.722803752937844"><ele>279.0</ele><time>2026-05-03T10:51:36.999Z</time></trkpt><trkpt lat="42.95279535752762" lon="12.722804340841986"><ele>278.0</ele><time>2026-05-03T10:51:37.999Z</time></trkpt><trkpt lat="42.952910410738575" lon="12.722804319599458"><ele>277.0</ele><time>2026-05-03T10:51:38.999Z</time></trkpt><trkpt lat="42.95302718984565" lon="12.722804564728522"><ele>276.0</ele><time>2026-05-03T10:51:39.999Z</time></trkpt><trkpt lat="42.95313792450939" lon="12.722809287962722"><ele>276.0</ele><time>2026-05-03T10:51:40.999Z</time></trkpt><trkpt lat="42.95324206514597" lon="12.722813035777998"><ele>276.0</ele><time>2026-05-03T10:51:41.999Z</time></trkpt><trkpt lat="42.953333287303465" lon="12.72280594275449"><ele>276.0</ele><time>2026-05-03T10:51:42.999Z</time></trkpt><trkpt lat="42.953408502116424" lon="12.722815516503449"><ele>276.0</ele><time>2026-05-03T10:51:43.999Z</time></trkpt><trkpt lat="42.953475903783" lon="12.722706488719433"><ele>276.0</ele><time>2026-05-03T10:51:44.999Z</time></trkpt><trkpt lat="42.9535267829739" lon="12.722613459941707"><ele>275.8333333333333</ele><time>2026-05-03T10:51:45.999Z</time></trkpt><trkpt lat="42.953554153374775" lon="12.72249736987086"><ele>275.6666666666667</ele><time>2026-05-03T10:51:46.999Z</time></trkpt><trkpt lat="42.95356060878472" lon="12.722372149660968"><ele>275.5</ele><time>2026-05-03T10:51:47.999Z</time></trkpt><trkpt lat="42.95353890850359" lon="12.72225063359024"><ele>275.33333333333337</ele><time>2026-05-03T10:51:48.999Z</time></trkpt><trkpt lat="42.953499128847774" lon="12.72214256686663"><ele>275.1666666666667</ele><time>2026-05-03T10:51:49.999Z</time></trkpt><trkpt lat="42.95344106776751" lon="12.7220580245072"><ele>275.0</ele><time>2026-05-03T10:51:50.999Z</time></trkpt><trkpt lat="42.95336293435519" lon="12.722002181011712"><ele>274.8</ele><time>2026-05-03T10:51:51.998Z</time></trkpt><trkpt lat="42.95327174925449" lon="12.72197332397895"><ele>274.6</ele><time>2026-05-03T10:51:52.998Z</time></trkpt><trkpt lat="42.95317095151545" lon="12.721968351500335"><ele>274.4</ele><time>2026-05-03T10:51:53.998Z</time></trkpt><trkpt lat="42.95305663035984" lon="12.721971716950028"><ele>274.2</ele><time>2026-05-03T10:51:54.998Z</time></trkpt><trkpt lat="42.95293149988107" lon="12.721976255032706"><ele>274.0</ele><time>2026-05-03T10:51:55.998Z</time></trkpt><trkpt lat="42.95279765367484" lon="12.721983211967714"><ele>274.0</ele><time>2026-05-03T10:51:56.998Z</time></trkpt><trkpt lat="42.95266130969846" lon="12.721996967968344"><ele>274.0</ele><time>2026-05-03T10:51:57.998Z</time></trkpt><trkpt lat="42.9525194728244" lon="12.722014571637835"><ele>274.0</ele><time>2026-05-03T10:51:58.998Z</time></trkpt><trkpt lat="42.952370511284315" lon="12.722033385412578"><ele>274.0</ele><time>2026-05-03T10:51:59.998Z</time></trkpt><trkpt lat="42.9522183046941" lon="12.722056038391612"><ele>274.3333333333333</ele><time>2026-05-03T10:52:00.999Z</time></trkpt><trkpt lat="42.95205530173078" lon="12.722069677907651"><ele>274.6666666666667</ele><time>2026-05-03T10:52:01.999Z</time></trkpt><trkpt lat="42.95189154317827" lon="12.722071842055072"><ele>275.0</ele><time>2026-05-03T10:52:02.999Z</time></trkpt><trkpt lat="42.95172202769708" lon="12.722066418938606"><ele>276.0</ele><time>2026-05-03T10:52:03.999Z</time></trkpt><trkpt lat="42.95155995357381" lon="12.722054154601091"><ele>277.0</ele><time>2026-05-03T10:52:04.999Z</time></trkpt><trkpt lat="42.951385748561385" lon="12.722035660494742"><ele>278.0</ele><time>2026-05-03T10:52:05.999Z</time></trkpt><trkpt lat="42.9512100255653" lon="12.722014025292053"><ele>278.0</ele><time>2026-05-03T10:52:06.999Z</time></trkpt><trkpt lat="42.95103460287987" lon="12.72198979494057"><ele>278.0</ele><time>2026-05-03T10:52:07.999Z</time></trkpt><trkpt lat="42.95085641992775" lon="12.721954366124212"><ele>278.0</ele><time>2026-05-03T10:52:08.999Z</time></trkpt><trkpt lat="42.95068162139594" lon="12.721916090214451"><ele>275.33333333333337</ele><time>2026-05-03T10:52:09.999Z</time></trkpt><trkpt lat="42.9505020416707" lon="12.721876075356299"><ele>272.6666666666667</ele><time>2026-05-03T10:52:10.999Z</time></trkpt><trkpt lat="42.95033066925528" lon="12.721838146424252"><ele>270.0</ele><time>2026-05-03T10:52:11.999Z</time></trkpt><trkpt lat="42.95015165017281" lon="12.721810967485588"><ele>269.6666666666667</ele><time>2026-05-03T10:52:12.999Z</time></trkpt><trkpt lat="42.9499774889401" lon="12.721793568093807"><ele>269.33333333333337</ele><time>2026-05-03T10:52:13.999Z</time></trkpt><trkpt lat="42.94980569035952" lon="12.721781178487104"><ele>269.0</ele><time>2026-05-03T10:52:14.999Z</time></trkpt><trkpt lat="42.9496326586543" lon="12.721780928072116"><ele>269.0</ele><time>2026-05-03T10:52:15.999Z</time></trkpt><trkpt lat="42.949467106978716" lon="12.721793473049116"><ele>269.0</ele><time>2026-05-03T10:52:16.999Z</time></trkpt><trkpt lat="42.94930167604055" lon="12.721816318103551"><ele>269.0</ele><time>2026-05-03T10:52:17.999Z</time></trkpt><trkpt lat="42.94913252729236" lon="12.721840007235945"><ele>268.6666666666667</ele><time>2026-05-03T10:52:18.999Z</time></trkpt><trkpt lat="42.94895871758538" lon="12.72186086475645"><ele>268.3333333333333</ele><time>2026-05-03T10:52:19.999Z</time></trkpt><trkpt lat="42.94879126698783" lon="12.721881304929786"><ele>268.0</ele><time>2026-05-03T10:52:20.999Z</time></trkpt><trkpt lat="42.948630349929275" lon="12.721904388273568"><ele>268.0</ele><time>2026-05-03T10:52:21.999Z</time></trkpt><trkpt lat="42.94846582843026" lon="12.721933401287894"><ele>268.0</ele><time>2026-05-03T10:52:22.999Z</time></trkpt><trkpt lat="42.948296580514224" lon="12.721951243353786"><ele>268.0</ele><time>2026-05-03T10:52:23.999Z</time></trkpt><trkpt lat="42.948125252987964" lon="12.721981761131376"><ele>267.66666666666663</ele><time>2026-05-03T10:52:24.999Z</time></trkpt><trkpt lat="42.94794583633933" lon="12.722007682084858"><ele>267.3333333333333</ele><time>2026-05-03T10:52:25.999Z</time></trkpt><trkpt lat="42.94777006830293" lon="12.722024180781807"><ele>267.0</ele><time>2026-05-03T10:52:26.999Z</time></trkpt><trkpt lat="42.94758873415338" lon="12.72203939922092"><ele>266.6666666666667</ele><time>2026-05-03T10:52:27.999Z</time></trkpt><trkpt lat="42.94740922498131" lon="12.722047408738822"><ele>266.33333333333337</ele><time>2026-05-03T10:52:28.999Z</time></trkpt><trkpt lat="42.94722254774552" lon="12.722049632916976"><ele>266.0</ele><time>2026-05-03T10:52:29.999Z</time></trkpt><trkpt lat="42.94703314907311" lon="12.722039040745983"><ele>266.0</ele><time>2026-05-03T10:52:30.999Z</time></trkpt><trkpt lat="42.94684185923817" lon="12.722032899303079"><ele>266.0</ele><time>2026-05-03T10:52:31.999Z</time></trkpt><trkpt lat="42.94665458498624" lon="12.722030339091935"><ele>266.0</ele><time>2026-05-03T10:52:32.999Z</time></trkpt><trkpt lat="42.9464654951833" lon="12.722031527649134"><ele>265.33333333333337</ele><time>2026-05-03T10:52:33.999Z</time></trkpt><trkpt lat="42.946271745515354" lon="12.722032815254531"><ele>264.6666666666667</ele><time>2026-05-03T10:52:34.999Z</time></trkpt><trkpt lat="42.94608495972172" lon="12.722030284824388"><ele>264.0</ele><time>2026-05-03T10:52:35.999Z</time></trkpt><trkpt lat="42.94590810979883" lon="12.722026577713518"><ele>262.3333333333333</ele><time>2026-05-03T10:52:36.999Z</time></trkpt><trkpt lat="42.945739029535865" lon="12.722028207447964"><ele>260.66666666666663</ele><time>2026-05-03T10:52:37.999Z</time></trkpt><trkpt lat="42.94557717494896" lon="12.722047671570586"><ele>259.0</ele><time>2026-05-03T10:52:38.999Z</time></trkpt><trkpt lat="42.94542162545917" lon="12.722083496325189"><ele>259.0</ele><time>2026-05-03T10:52:39.999Z</time></trkpt><trkpt lat="42.94526630688203" lon="12.722120394250307"><ele>259.0</ele><time>2026-05-03T10:52:40.999Z</time></trkpt><trkpt lat="42.94510644417586" lon="12.722166771465933"><ele>259.0</ele><time>2026-05-03T10:52:41.999Z</time></trkpt><trkpt lat="42.944950920825306" lon="12.722215244884872"><ele>259.3333333333333</ele><time>2026-05-03T10:52:42.999Z</time></trkpt><trkpt lat="42.94478615123127" lon="12.722258265495169"><ele>259.6666666666667</ele><time>2026-05-03T10:52:43.999Z</time></trkpt><trkpt lat="42.944630811947036" lon="12.722299018331364"><ele>260.0</ele><time>2026-05-03T10:52:44.999Z</time></trkpt><trkpt lat="42.944475561995624" lon="12.722337463037185"><ele>260.0</ele><time>2026-05-03T10:52:45.999Z</time></trkpt><trkpt lat="42.94432178476665" lon="12.722371300366149"><ele>260.0</ele><time>2026-05-03T10:52:46.999Z</time></trkpt><trkpt lat="42.94416589460615" lon="12.722396717192161"><ele>260.0</ele><time>2026-05-03T10:52:47.999Z</time></trkpt><trkpt lat="42.94399835156857" lon="12.722417050817699"><ele>259.6666666666667</ele><time>2026-05-03T10:52:48.999Z</time></trkpt><trkpt lat="42.94382279306012" lon="12.72242835099847"><ele>259.3333333333333</ele><time>2026-05-03T10:52:49.999Z</time></trkpt><trkpt lat="42.9436431960382" lon="12.722434971580876"><ele>259.0</ele><time>2026-05-03T10:52:50.999Z</time></trkpt><trkpt lat="42.94345994406807" lon="12.722445530833328"><ele>258.3333333333333</ele><time>2026-05-03T10:52:51.999Z</time></trkpt><trkpt lat="42.94326423030939" lon="12.722457375878582"><ele>257.6666666666667</ele><time>2026-05-03T10:52:52.999Z</time></trkpt><trkpt lat="42.943050864172925" lon="12.722469554797831"><ele>257.0</ele><time>2026-05-03T10:52:53.999Z</time></trkpt><trkpt lat="42.94283159939125" lon="12.722476202992706"><ele>257.0</ele><time>2026-05-03T10:52:54.999Z</time></trkpt><trkpt lat="42.94260737616189" lon="12.722486239922361"><ele>257.0</ele><time>2026-05-03T10:52:55.999Z</time></trkpt><trkpt lat="42.94238623906028" lon="12.722492208239775"><ele>257.0</ele><time>2026-05-03T10:52:56.999Z</time></trkpt><trkpt lat="42.94215368724817" lon="12.722492454475864"><ele>256.5</ele><time>2026-05-03T10:52:57.999Z</time></trkpt><trkpt lat="42.94192102591072" lon="12.722488317168937"><ele>256.0</ele><time>2026-05-03T10:52:58.999Z</time></trkpt><trkpt lat="42.94169079749978" lon="12.722480485036181"><ele>256.0</ele><time>2026-05-03T10:52:59.999Z</time></trkpt><trkpt lat="42.94145217796558" lon="12.722473319701457"><ele>256.0</ele><time>2026-05-03T10:53:00.999Z</time></trkpt><trkpt lat="42.94121342649795" lon="12.722471198940237"><ele>256.0</ele><time>2026-05-03T10:53:01.999Z</time></trkpt><trkpt lat="42.94097401369455" lon="12.722470343483675"><ele>256.0</ele><time>2026-05-03T10:53:02.999Z</time></trkpt><trkpt lat="42.9407339164551" lon="12.722466305294029"><ele>254.0</ele><time>2026-05-03T10:53:03.999Z</time></trkpt><trkpt lat="42.94048976463039" lon="12.72246164615812"><ele>252.0</ele><time>2026-05-03T10:53:04.999Z</time></trkpt><trkpt lat="42.94025312289048" lon="12.722457693263214"><ele>251.0</ele><time>2026-05-03T10:53:05.999Z</time></trkpt><trkpt lat="42.940013814489376" lon="12.722454582806046"><ele>250.0</ele><time>2026-05-03T10:53:06.999Z</time></trkpt><trkpt lat="42.939775895371355" lon="12.722452714595148"><ele>250.0</ele><time>2026-05-03T10:53:07.999Z</time></trkpt><trkpt lat="42.93953987072472" lon="12.722462873813642"><ele>250.0</ele><time>2026-05-03T10:53:08.999Z</time></trkpt><trkpt lat="42.93930705737793" lon="12.722490843574423"><ele>249.0</ele><time>2026-05-03T10:53:09.999Z</time></trkpt><trkpt lat="42.93908156437923" lon="12.722537331540284"><ele>248.0</ele><time>2026-05-03T10:53:10.999Z</time></trkpt><trkpt lat="42.93885433738355" lon="12.722586106363147"><ele>248.0</ele><time>2026-05-03T10:53:11.999Z</time></trkpt><trkpt lat="42.938637472987125" lon="12.72264432700388"><ele>248.0</ele><time>2026-05-03T10:53:12.999Z</time></trkpt><trkpt lat="42.938432798500685" lon="12.722707095993394"><ele>248.0</ele><time>2026-05-03T10:53:13.999Z</time></trkpt><trkpt lat="42.93824112051934" lon="12.722770701099362"><ele>248.0</ele><time>2026-05-03T10:53:14.999Z</time></trkpt><trkpt lat="42.938064057484354" lon="12.722836219224373"><ele>248.0</ele><time>2026-05-03T10:53:15.999Z</time></trkpt><trkpt lat="42.937899457011966" lon="12.722905163364235"><ele>248.0</ele><time>2026-05-03T10:53:16.999Z</time></trkpt><trkpt lat="42.937743892724534" lon="12.72297332626924"><ele>248.0</ele><time>2026-05-03T10:53:17.999Z</time></trkpt><trkpt lat="42.93759528162379" lon="12.72303655750185"><ele>248.0</ele><time>2026-05-03T10:53:18.999Z</time></trkpt><trkpt lat="42.93744977316156" lon="12.723115261615186"><ele>248.0</ele><time>2026-05-03T10:53:19.999Z</time></trkpt><trkpt lat="42.937306000062435" lon="12.723197307606984"><ele>249.0</ele><time>2026-05-03T10:53:20.999Z</time></trkpt><trkpt lat="42.93716091871995" lon="12.723286556812452"><ele>250.0</ele><time>2026-05-03T10:53:21.999Z</time></trkpt><trkpt lat="42.937011939384156" lon="12.723384858346938"><ele>251.0</ele><time>2026-05-03T10:53:22.999Z</time></trkpt><trkpt lat="42.93685910040527" lon="12.723489543773116"><ele>251.66666666666669</ele><time>2026-05-03T10:53:23.999Z</time></trkpt><trkpt lat="42.93670564064318" lon="12.723594643439096"><ele>252.33333333333331</ele><time>2026-05-03T10:53:24.999Z</time></trkpt><trkpt lat="42.936545585780735" lon="12.723711748154164"><ele>253.0</ele><time>2026-05-03T10:53:25.999Z</time></trkpt><trkpt lat="42.93638798740985" lon="12.72383504294865"><ele>253.0</ele><time>2026-05-03T10:53:26.999Z</time></trkpt><trkpt lat="42.93623289363604" lon="12.723957042042533"><ele>253.0</ele><time>2026-05-03T10:53:27.999Z</time></trkpt><trkpt lat="42.93607154905013" lon="12.724088956074748"><ele>253.0</ele><time>2026-05-03T10:53:28.999Z</time></trkpt><trkpt lat="42.935913095754536" lon="12.7242240481441"><ele>251.33333333333331</ele><time>2026-05-03T10:53:29.999Z</time></trkpt><trkpt lat="42.93574249729959" lon="12.72436374530904"><ele>249.66666666666669</ele><time>2026-05-03T10:53:30.999Z</time></trkpt><trkpt lat="42.935575994835865" lon="12.724500022486309"><ele>248.0</ele><time>2026-05-03T10:53:31.999Z</time></trkpt><trkpt lat="42.935410969697784" lon="12.724633119345258"><ele>248.33333333333334</ele><time>2026-05-03T10:53:32.999Z</time></trkpt><trkpt lat="42.93524549163684" lon="12.724773822384758"><ele>248.66666666666669</ele><time>2026-05-03T10:53:33.999Z</time></trkpt><trkpt lat="42.935074806777955" lon="12.724922992184396"><ele>249.0</ele><time>2026-05-03T10:53:34.999Z</time></trkpt><trkpt lat="42.934901612004204" lon="12.72506519924484"><ele>249.0</ele><time>2026-05-03T10:53:35.999Z</time></trkpt><trkpt lat="42.93471881460267" lon="12.725216145044753"><ele>249.0</ele><time>2026-05-03T10:53:36.999Z</time></trkpt><trkpt lat="42.934528410153405" lon="12.725370628888783"><ele>249.0</ele><time>2026-05-03T10:53:37.999Z</time></trkpt><trkpt lat="42.93433273465992" lon="12.725524959393645"><ele>247.5</ele><time>2026-05-03T10:53:38.999Z</time></trkpt><trkpt lat="42.934136386373545" lon="12.725683387997032"><ele>246.0</ele><time>2026-05-03T10:53:39.999Z</time></trkpt><trkpt lat="42.93393404255772" lon="12.725846794184895"><ele>246.0</ele><time>2026-05-03T10:53:40.999Z</time></trkpt><trkpt lat="42.933729870171256" lon="12.726015896187635"><ele>246.0</ele><time>2026-05-03T10:53:41.999Z</time></trkpt><trkpt lat="42.93352344504988" lon="12.726185201636207"><ele>243.0</ele><time>2026-05-03T10:53:42.999Z</time></trkpt><trkpt lat="42.933312719586525" lon="12.726357193343706"><ele>240.0</ele><time>2026-05-03T10:53:43.999Z</time></trkpt><trkpt lat="42.933100855265394" lon="12.726530731824116"><ele>240.0</ele><time>2026-05-03T10:53:44.999Z</time></trkpt><trkpt lat="42.93288974104768" lon="12.726705896702008"><ele>240.0</ele><time>2026-05-03T10:53:45.999Z</time></trkpt><trkpt lat="42.93267848247858" lon="12.726881671536946"><ele>240.5</ele><time>2026-05-03T10:53:46.999Z</time></trkpt><trkpt lat="42.93246607423713" lon="12.727058084280936"><ele>241.0</ele><time>2026-05-03T10:53:47.999Z</time></trkpt><trkpt lat="42.93225254488279" lon="12.727232432879891"><ele>241.0</ele><time>2026-05-03T10:53:48.999Z</time></trkpt><trkpt lat="42.932041516003125" lon="12.727395582843778"><ele>241.0</ele><time>2026-05-03T10:53:49.999Z</time></trkpt><trkpt lat="42.93182652457124" lon="12.72754614579335"><ele>240.5</ele><time>2026-05-03T10:53:50.999Z</time></trkpt><trkpt lat="42.93160447336956" lon="12.72768981345697"><ele>240.0</ele><time>2026-05-03T10:53:51.999Z</time></trkpt><trkpt lat="42.931384354225116" lon="12.727821182729134"><ele>241.0</ele><time>2026-05-03T10:53:52.999Z</time></trkpt><trkpt lat="42.93116212244162" lon="12.727931553875711"><ele>242.0</ele><time>2026-05-03T10:53:53.999Z</time></trkpt><trkpt lat="42.9309341466712" lon="12.728038407092559"><ele>241.0</ele><time>2026-05-03T10:53:54.999Z</time></trkpt><trkpt lat="42.93070441999649" lon="12.728131534364664"><ele>240.0</ele><time>2026-05-03T10:53:55.998Z</time></trkpt><trkpt lat="42.93047666336495" lon="12.728216403348323"><ele>240.0</ele><time>2026-05-03T10:53:56.998Z</time></trkpt><trkpt lat="42.930248984101766" lon="12.728289934546346"><ele>240.0</ele><time>2026-05-03T10:53:57.998Z</time></trkpt><trkpt lat="42.930026057081555" lon="12.728349381311387"><ele>238.5</ele><time>2026-05-03T10:53:58.998Z</time></trkpt><trkpt lat="42.92980103351246" lon="12.728395692566687"><ele>237.0</ele><time>2026-05-03T10:53:59.998Z</time></trkpt><trkpt lat="42.92957924924694" lon="12.72842998119502"><ele>237.0</ele><time>2026-05-03T10:54:00.998Z</time></trkpt><trkpt lat="42.92935651672301" lon="12.728458257917705"><ele>237.0</ele><time>2026-05-03T10:54:01.998Z</time></trkpt><trkpt lat="42.929129339147764" lon="12.728481165337888"><ele>236.0</ele><time>2026-05-03T10:54:02.998Z</time></trkpt><trkpt lat="42.92890788145428" lon="12.728496443216226"><ele>235.0</ele><time>2026-05-03T10:54:03.998Z</time></trkpt><trkpt lat="42.92869685321962" lon="12.728495388973453"><ele>234.0</ele><time>2026-05-03T10:54:04.998Z</time></trkpt><trkpt lat="42.928486537932564" lon="12.728481933168997"><ele>233.66666666666669</ele><time>2026-05-03T10:54:05.999Z</time></trkpt><trkpt lat="42.928280903495036" lon="12.728458312823317"><ele>233.33333333333334</ele><time>2026-05-03T10:54:06.999Z</time></trkpt><trkpt lat="42.928084841390394" lon="12.728430564426144"><ele>233.0</ele><time>2026-05-03T10:54:07.999Z</time></trkpt><trkpt lat="42.92789984290008" lon="12.728393962394318"><ele>233.0</ele><time>2026-05-03T10:54:08.999Z</time></trkpt><trkpt lat="42.92773706644018" lon="12.728325619235395"><ele>233.0</ele><time>2026-05-03T10:54:09.999Z</time></trkpt><trkpt lat="42.927591354145605" lon="12.728231315029415"><ele>233.0</ele><time>2026-05-03T10:54:10.999Z</time></trkpt><trkpt lat="42.92741623033472" lon="12.728296959841835"><ele>232.8</ele><time>2026-05-03T10:54:11.999Z</time></trkpt><trkpt lat="42.927295805597424" lon="12.72827581939307"><ele>232.60000000000002</ele><time>2026-05-03T10:54:12.999Z</time></trkpt><trkpt lat="42.927190315356434" lon="12.728260049765113"><ele>232.39999999999998</ele><time>2026-05-03T10:54:13.999Z</time></trkpt><trkpt lat="42.92709825077723" lon="12.728242515519643"><ele>232.2</ele><time>2026-05-03T10:54:14.999Z</time></trkpt><trkpt lat="42.92702506804088" lon="12.728224461541501"><ele>232.0</ele><time>2026-05-03T10:54:15.999Z</time></trkpt><trkpt lat="42.92695943358297" lon="12.728205479888404"><ele>232.0</ele><time>2026-05-03T10:54:16.999Z</time></trkpt><trkpt lat="42.926865687070666" lon="12.728149290632249"><ele>232.0</ele><time>2026-05-03T10:54:18.999Z</time></trkpt><trkpt lat="42.9267560619467" lon="12.728078495805033"><ele>232.0</ele><time>2026-05-03T10:54:20.999Z</time></trkpt><trkpt lat="42.92669138183086" lon="12.728058774347641"><ele>232.0</ele><time>2026-05-03T10:54:21.999Z</time></trkpt><trkpt lat="42.92657367622478" lon="12.728033201947548"><ele>232.0</ele><time>2026-05-03T10:54:23.999Z</time></trkpt><trkpt lat="42.92645338379237" lon="12.728024780779972"><ele>231.99999999999997</ele><time>2026-05-03T10:54:25.999Z</time></trkpt><trkpt lat="42.9263897199163" lon="12.72801070574678"><ele>232.0</ele><time>2026-05-03T10:54:26.999Z</time></trkpt><trkpt lat="42.926267994714344" lon="12.728042687267791"><ele>232.0</ele><time>2026-05-03T10:54:28.999Z</time></trkpt><trkpt lat="42.926202219695654" lon="12.728067937226983"><ele>232.0</ele><time>2026-05-03T10:54:29.999Z</time></trkpt><trkpt lat="42.92612752699629" lon="12.728071516263446"><ele>231.99999999999997</ele><time>2026-05-03T10:54:30.999Z</time></trkpt><trkpt lat="42.926043035909544" lon="12.72806806949506"><ele>232.0</ele><time>2026-05-03T10:54:31.999Z</time></trkpt><trkpt lat="42.92594861586112" lon="12.728048038954894"><ele>231.5</ele><time>2026-05-03T10:54:32.999Z</time></trkpt><trkpt lat="42.925851846339405" lon="12.72802508523922"><ele>231.0</ele><time>2026-05-03T10:54:33.999Z</time></trkpt><trkpt lat="42.92573881650494" lon="12.728010355242734"><ele>230.5</ele><time>2026-05-03T10:54:34.999Z</time></trkpt><trkpt lat="42.9256159709915" lon="12.728002570428105"><ele>230.0</ele><time>2026-05-03T10:54:35.999Z</time></trkpt><trkpt lat="42.925475524877726" lon="12.72799359932763"><ele>230.0</ele><time>2026-05-03T10:54:36.999Z</time></trkpt><trkpt lat="42.925329695165324" lon="12.727977971502211"><ele>230.0</ele><time>2026-05-03T10:54:37.999Z</time></trkpt><trkpt lat="42.92518205064339" lon="12.727948676756371"><ele>230.0</ele><time>2026-05-03T10:54:38.999Z</time></trkpt><trkpt lat="42.92502364017737" lon="12.727917139137046"><ele>230.0</ele><time>2026-05-03T10:54:39.999Z</time></trkpt><trkpt lat="42.92485268884618" lon="12.727881853216273"><ele>230.0</ele><time>2026-05-03T10:54:40.999Z</time></trkpt><trkpt lat="42.92466562761616" lon="12.727848476378652"><ele>230.0</ele><time>2026-05-03T10:54:41.999Z</time></trkpt><trkpt lat="42.924476684399046" lon="12.727810144521232"><ele>230.0</ele><time>2026-05-03T10:54:42.999Z</time></trkpt><trkpt lat="42.924282199458" lon="12.72778298130272"><ele>230.0</ele><time>2026-05-03T10:54:43.999Z</time></trkpt><trkpt lat="42.92408395197154" lon="12.727754376184295"><ele>230.0</ele><time>2026-05-03T10:54:44.999Z</time></trkpt><trkpt lat="42.92387319383906" lon="12.727722889613013"><ele>229.33333333333334</ele><time>2026-05-03T10:54:45.999Z</time></trkpt><trkpt lat="42.923652619770266" lon="12.727680943002"><ele>228.66666666666669</ele><time>2026-05-03T10:54:46.999Z</time></trkpt><trkpt lat="42.92343513012626" lon="12.727649295347238"><ele>228.0</ele><time>2026-05-03T10:54:47.999Z</time></trkpt><trkpt lat="42.92321156751748" lon="12.727612073501806"><ele>227.5</ele><time>2026-05-03T10:54:48.999Z</time></trkpt><trkpt lat="42.92298225994996" lon="12.727569189294186"><ele>227.0</ele><time>2026-05-03T10:54:49.999Z</time></trkpt><trkpt lat="42.92276065595839" lon="12.727533490433734"><ele>226.66666666666669</ele><time>2026-05-03T10:54:50.999Z</time></trkpt><trkpt lat="42.92254427685476" lon="12.727504258288123"><ele>226.33333333333331</ele><time>2026-05-03T10:54:51.999Z</time></trkpt><trkpt lat="42.92232445095367" lon="12.72747591890414"><ele>226.0</ele><time>2026-05-03T10:54:52.999Z</time></trkpt><trkpt lat="42.9221082259026" lon="12.727447094363244"><ele>226.0</ele><time>2026-05-03T10:54:53.999Z</time></trkpt><trkpt lat="42.92188587789471" lon="12.727425581219522"><ele>226.0</ele><time>2026-05-03T10:54:54.999Z</time></trkpt><trkpt lat="42.92165984634818" lon="12.727416175907107"><ele>226.0</ele><time>2026-05-03T10:54:55.999Z</time></trkpt><trkpt lat="42.92143429661035" lon="12.7274117156763"><ele>225.0</ele><time>2026-05-03T10:54:56.999Z</time></trkpt><trkpt lat="42.92120638244071" lon="12.727420308357939"><ele>224.0</ele><time>2026-05-03T10:54:57.999Z</time></trkpt><trkpt lat="42.920980601605244" lon="12.727430901751104"><ele>224.0</ele><time>2026-05-03T10:54:58.999Z</time></trkpt><trkpt lat="42.92075081211934" lon="12.72744771254909"><ele>224.0</ele><time>2026-05-03T10:54:59.999Z</time></trkpt><trkpt lat="42.920521666424996" lon="12.727474348583591"><ele>224.0</ele><time>2026-05-03T10:55:00.999Z</time></trkpt><trkpt lat="42.92029375654675" lon="12.727506642109939"><ele>224.0</ele><time>2026-05-03T10:55:01.999Z</time></trkpt><trkpt lat="42.92006612981051" lon="12.727545928974331"><ele>223.5</ele><time>2026-05-03T10:55:02.999Z</time></trkpt><trkpt lat="42.91983698510361" lon="12.727589384712495"><ele>223.0</ele><time>2026-05-03T10:55:03.999Z</time></trkpt><trkpt lat="42.91960889004689" lon="12.72763605986213"><ele>223.0</ele><time>2026-05-03T10:55:04.999Z</time></trkpt><trkpt lat="42.919377131411515" lon="12.727683970738026"><ele>223.0</ele><time>2026-05-03T10:55:05.999Z</time></trkpt><trkpt lat="42.91914632853249" lon="12.727730320461157"><ele>222.5</ele><time>2026-05-03T10:55:06.999Z</time></trkpt><trkpt lat="42.91891287108328" lon="12.727770733509365"><ele>222.0</ele><time>2026-05-03T10:55:07.999Z</time></trkpt><trkpt lat="42.91868246622309" lon="12.727814576768038"><ele>222.0</ele><time>2026-05-03T10:55:08.999Z</time></trkpt><trkpt lat="42.91845001780766" lon="12.72785996552501"><ele>222.0</ele><time>2026-05-03T10:55:09.999Z</time></trkpt><trkpt lat="42.91821786565252" lon="12.727908161057302"><ele>223.0</ele><time>2026-05-03T10:55:10.999Z</time></trkpt><trkpt lat="42.91798627070335" lon="12.72795698032056"><ele>224.0</ele><time>2026-05-03T10:55:11.999Z</time></trkpt><trkpt lat="42.91775621830891" lon="12.728008462115096"><ele>223.0</ele><time>2026-05-03T10:55:12.999Z</time></trkpt><trkpt lat="42.91752129352289" lon="12.728058218016413"><ele>222.0</ele><time>2026-05-03T10:55:13.999Z</time></trkpt><trkpt lat="42.91728910489381" lon="12.728106347849225"><ele>222.0</ele><time>2026-05-03T10:55:14.999Z</time></trkpt><trkpt lat="42.917056318288786" lon="12.72815414553717"><ele>222.0</ele><time>2026-05-03T10:55:15.999Z</time></trkpt><trkpt lat="42.91681791337846" lon="12.728195606643492"><ele>222.5</ele><time>2026-05-03T10:55:16.999Z</time></trkpt><trkpt lat="42.91657787123088" lon="12.728241997404725"><ele>223.0</ele><time>2026-05-03T10:55:17.999Z</time></trkpt><trkpt lat="42.91634411323131" lon="12.728294448300483"><ele>223.0</ele><time>2026-05-03T10:55:18.999Z</time></trkpt><trkpt lat="42.91610007341091" lon="12.728339794598863"><ele>223.0</ele><time>2026-05-03T10:55:19.999Z</time></trkpt><trkpt lat="42.915855874728294" lon="12.728386036989624"><ele>223.0</ele><time>2026-05-03T10:55:20.999Z</time></trkpt><trkpt lat="42.91561018088681" lon="12.728429158960916"><ele>223.0</ele><time>2026-05-03T10:55:21.999Z</time></trkpt><trkpt lat="42.9153655324888" lon="12.728467656958891"><ele>223.0</ele><time>2026-05-03T10:55:22.999Z</time></trkpt><trkpt lat="42.91512017429567" lon="12.72850216891546"><ele>223.0</ele><time>2026-05-03T10:55:23.999Z</time></trkpt><trkpt lat="42.91486498251804" lon="12.728504741510013"><ele>222.5</ele><time>2026-05-03T10:55:24.999Z</time></trkpt><trkpt lat="42.91460923490955" lon="12.728483698635074"><ele>222.0</ele><time>2026-05-03T10:55:25.999Z</time></trkpt><trkpt lat="42.91435891757299" lon="12.728458549994338"><ele>221.5</ele><time>2026-05-03T10:55:26.999Z</time></trkpt><trkpt lat="42.91410999362103" lon="12.72841916304071"><ele>221.0</ele><time>2026-05-03T10:55:27.999Z</time></trkpt><trkpt lat="42.91386331140313" lon="12.728367606269398"><ele>221.0</ele><time>2026-05-03T10:55:28.999Z</time></trkpt><trkpt lat="42.91362216454229" lon="12.72829884625474"><ele>221.0</ele><time>2026-05-03T10:55:29.999Z</time></trkpt><trkpt lat="42.91338486360861" lon="12.728219000363143"><ele>222.0</ele><time>2026-05-03T10:55:30.999Z</time></trkpt><trkpt lat="42.91314963667751" lon="12.728128909297368"><ele>223.0</ele><time>2026-05-03T10:55:31.999Z</time></trkpt><trkpt lat="42.91291533592251" lon="12.72801687456603"><ele>223.0</ele><time>2026-05-03T10:55:32.999Z</time></trkpt><trkpt lat="42.91269198441529" lon="12.727889221786576"><ele>223.0</ele><time>2026-05-03T10:55:33.999Z</time></trkpt><trkpt lat="42.91246948245262" lon="12.72775488709279"><ele>220.0</ele><time>2026-05-03T10:55:34.999Z</time></trkpt><trkpt lat="42.912248918955484" lon="12.727609140535536"><ele>217.0</ele><time>2026-05-03T10:55:35.999Z</time></trkpt><trkpt lat="42.91203173261536" lon="12.72745411912929"><ele>217.0</ele><time>2026-05-03T10:55:36.999Z</time></trkpt><trkpt lat="42.91181813922893" lon="12.72728197534922"><ele>217.0</ele><time>2026-05-03T10:55:37.999Z</time></trkpt><trkpt lat="42.91161107144106" lon="12.727097294495033"><ele>216.5</ele><time>2026-05-03T10:55:38.999Z</time></trkpt><trkpt lat="42.91140655420123" lon="12.72689805187471"><ele>216.0</ele><time>2026-05-03T10:55:39.999Z</time></trkpt><trkpt lat="42.91120374117752" lon="12.726687184520998"><ele>215.5</ele><time>2026-05-03T10:55:40.999Z</time></trkpt><trkpt lat="42.9109994465386" lon="12.726479145339576"><ele>215.0</ele><time>2026-05-03T10:55:41.999Z</time></trkpt><trkpt lat="42.91079269545428" lon="12.72627777599928"><ele>215.0</ele><time>2026-05-03T10:55:42.999Z</time></trkpt><trkpt lat="42.91058482110136" lon="12.726079890482898"><ele>215.0</ele><time>2026-05-03T10:55:43.999Z</time></trkpt><trkpt lat="42.910376370020074" lon="12.725880364436923"><ele>214.0</ele><time>2026-05-03T10:55:44.999Z</time></trkpt><trkpt lat="42.910167962523914" lon="12.725682260176978"><ele>213.0</ele><time>2026-05-03T10:55:45.999Z</time></trkpt><trkpt lat="42.90996144006835" lon="12.725481440743728"><ele>213.0</ele><time>2026-05-03T10:55:46.999Z</time></trkpt><trkpt lat="42.90975356289783" lon="12.725276916721613"><ele>213.0</ele><time>2026-05-03T10:55:47.999Z</time></trkpt><trkpt lat="42.909546927925355" lon="12.725070623287566"><ele>213.0</ele><time>2026-05-03T10:55:48.999Z</time></trkpt><trkpt lat="42.90933776946523" lon="12.72486842742305"><ele>213.0</ele><time>2026-05-03T10:55:49.999Z</time></trkpt><trkpt lat="42.90913143200271" lon="12.724669336584608"><ele>213.0</ele><time>2026-05-03T10:55:50.999Z</time></trkpt><trkpt lat="42.90892508835285" lon="12.724469696994715"><ele>213.0</ele><time>2026-05-03T10:55:51.999Z</time></trkpt><trkpt lat="42.908720778455276" lon="12.724272092526009"><ele>212.5</ele><time>2026-05-03T10:55:52.999Z</time></trkpt><trkpt lat="42.90851751540596" lon="12.724074435211833"><ele>212.0</ele><time>2026-05-03T10:55:53.999Z</time></trkpt><trkpt lat="42.90831551578698" lon="12.723880155802021"><ele>211.0</ele><time>2026-05-03T10:55:54.999Z</time></trkpt><trkpt lat="42.90811358325245" lon="12.723687690794325"><ele>210.0</ele><time>2026-05-03T10:55:55.999Z</time></trkpt><trkpt lat="42.907914812123984" lon="12.723494723103801"><ele>208.5</ele><time>2026-05-03T10:55:56.999Z</time></trkpt><trkpt lat="42.90771377224785" lon="12.723301514532526"><ele>207.0</ele><time>2026-05-03T10:55:57.999Z</time></trkpt><trkpt lat="42.9075147518501" lon="12.723109807766187"><ele>207.0</ele><time>2026-05-03T10:55:58.999Z</time></trkpt><trkpt lat="42.90731413718457" lon="12.722921149142255"><ele>207.0</ele><time>2026-05-03T10:55:59.999Z</time></trkpt><trkpt lat="42.9071142694099" lon="12.722734668824696"><ele>207.0</ele><time>2026-05-03T10:56:00.999Z</time></trkpt><trkpt lat="42.906913069679554" lon="12.722551230643193"><ele>207.0</ele><time>2026-05-03T10:56:01.999Z</time></trkpt><trkpt lat="42.90670512330013" lon="12.722371841916717"><ele>207.0</ele><time>2026-05-03T10:56:02.999Z</time></trkpt><trkpt lat="42.906491261336974" lon="12.722199556265483"><ele>207.0</ele><time>2026-05-03T10:56:03.999Z</time></trkpt><trkpt lat="42.906271402591216" lon="12.722034302204968"><ele>207.0</ele><time>2026-05-03T10:56:04.999Z</time></trkpt><trkpt lat="42.90604407263149" lon="12.721876310904458"><ele>207.0</ele><time>2026-05-03T10:56:05.999Z</time></trkpt><trkpt lat="42.905814121679136" lon="12.721729639450798"><ele>207.5</ele><time>2026-05-03T10:56:06.999Z</time></trkpt><trkpt lat="42.9055835595015" lon="12.721591094041303"><ele>208.0</ele><time>2026-05-03T10:56:07.999Z</time></trkpt><trkpt lat="42.905349894369145" lon="12.721464507440585"><ele>208.0</ele><time>2026-05-03T10:56:08.999Z</time></trkpt><trkpt lat="42.90510787182779" lon="12.721343706151107"><ele>208.0</ele><time>2026-05-03T10:56:09.999Z</time></trkpt><trkpt lat="42.90486957101037" lon="12.721236379449062"><ele>208.0</ele><time>2026-05-03T10:56:10.999Z</time></trkpt><trkpt lat="42.904624734314496" lon="12.72114090584278"><ele>208.0</ele><time>2026-05-03T10:56:12Z</time></trkpt><trkpt lat="42.9043803600158" lon="12.721049779266004"><ele>207.5</ele><time>2026-05-03T10:56:13Z</time></trkpt><trkpt lat="42.904135934748886" lon="12.72097243052579"><ele>207.0</ele><time>2026-05-03T10:56:14Z</time></trkpt><trkpt lat="42.903886131555026" lon="12.720900035519454"><ele>207.0</ele><time>2026-05-03T10:56:15Z</time></trkpt><trkpt lat="42.90363791234597" lon="12.720839733367965"><ele>207.0</ele><time>2026-05-03T10:56:16Z</time></trkpt><trkpt lat="42.903384310444565" lon="12.720786304130229"><ele>206.5</ele><time>2026-05-03T10:56:17Z</time></trkpt><trkpt lat="42.90313440222299" lon="12.720741958495477"><ele>206.0</ele><time>2026-05-03T10:56:18Z</time></trkpt><trkpt lat="42.90287963738658" lon="12.720708438592945"><ele>206.0</ele><time>2026-05-03T10:56:19Z</time></trkpt><trkpt lat="42.902621560734765" lon="12.720679354550079"><ele>206.0</ele><time>2026-05-03T10:56:20Z</time></trkpt><trkpt lat="42.90236047593304" lon="12.720658574086524"><ele>206.5</ele><time>2026-05-03T10:56:21Z</time></trkpt><trkpt lat="42.90210198983636" lon="12.720642503861928"><ele>207.0</ele><time>2026-05-03T10:56:22Z</time></trkpt><trkpt lat="42.901840715903646" lon="12.720630316249965"><ele>207.5</ele><time>2026-05-03T10:56:23Z</time></trkpt><trkpt lat="42.90158030096086" lon="12.720622320863628"><ele>208.0</ele><time>2026-05-03T10:56:24Z</time></trkpt><trkpt lat="42.90131975481745" lon="12.720611559010758"><ele>208.0</ele><time>2026-05-03T10:56:25Z</time></trkpt><trkpt lat="42.9010578316632" lon="12.720605234624555"><ele>208.0</ele><time>2026-05-03T10:56:26Z</time></trkpt><trkpt lat="42.90079928330589" lon="12.720602943459808"><ele>207.5</ele><time>2026-05-03T10:56:27Z</time></trkpt><trkpt lat="42.90054502018389" lon="12.72060288597438"><ele>207.0</ele><time>2026-05-03T10:56:28Z</time></trkpt><trkpt lat="42.90028899907603" lon="12.720612513274476"><ele>207.0</ele><time>2026-05-03T10:56:29Z</time></trkpt><trkpt lat="42.90003610908239" lon="12.720623978897803"><ele>207.0</ele><time>2026-05-03T10:56:30Z</time></trkpt><trkpt lat="42.899780762560184" lon="12.72064033423849"><ele>207.0</ele><time>2026-05-03T10:56:31Z</time></trkpt><trkpt lat="42.89952061251848" lon="12.720656594785707"><ele>207.0</ele><time>2026-05-03T10:56:32Z</time></trkpt><trkpt lat="42.89926631435472" lon="12.720675014955727"><ele>206.5</ele><time>2026-05-03T10:56:33Z</time></trkpt><trkpt lat="42.89900596490721" lon="12.7206958956817"><ele>206.0</ele><time>2026-05-03T10:56:34Z</time></trkpt><trkpt lat="42.89875338404198" lon="12.720717451144836"><ele>206.0</ele><time>2026-05-03T10:56:35Z</time></trkpt><trkpt lat="42.89849545727014" lon="12.720743272920659"><ele>206.0</ele><time>2026-05-03T10:56:36Z</time></trkpt><trkpt lat="42.89823944018309" lon="12.720772200347994"><ele>204.5</ele><time>2026-05-03T10:56:37Z</time></trkpt><trkpt lat="42.89798310912392" lon="12.720807975480925"><ele>203.0</ele><time>2026-05-03T10:56:38Z</time></trkpt><trkpt lat="42.897721400201014" lon="12.7208440380182"><ele>205.0</ele><time>2026-05-03T10:56:39Z</time></trkpt><trkpt lat="42.89746725020494" lon="12.720885098105843"><ele>207.0</ele><time>2026-05-03T10:56:40Z</time></trkpt><trkpt lat="42.89721069708563" lon="12.720929231569901"><ele>207.0</ele><time>2026-05-03T10:56:41Z</time></trkpt><trkpt lat="42.89694955148078" lon="12.720979326895007"><ele>207.0</ele><time>2026-05-03T10:56:42Z</time></trkpt><trkpt lat="42.8966906009276" lon="12.721029956875814"><ele>206.5</ele><time>2026-05-03T10:56:43Z</time></trkpt><trkpt lat="42.89643248747858" lon="12.72108540158337"><ele>206.0</ele><time>2026-05-03T10:56:44Z</time></trkpt><trkpt lat="42.89616938070292" lon="12.721148621373288"><ele>206.5</ele><time>2026-05-03T10:56:45Z</time></trkpt><trkpt lat="42.89591343182921" lon="12.721209064509184"><ele>207.0</ele><time>2026-05-03T10:56:46Z</time></trkpt><trkpt lat="42.89564886135367" lon="12.721273866828147"><ele>207.0</ele><time>2026-05-03T10:56:47Z</time></trkpt><trkpt lat="42.895383745271566" lon="12.721339862598988"><ele>207.0</ele><time>2026-05-03T10:56:48Z</time></trkpt><trkpt lat="42.89512850178564" lon="12.721409549957993"><ele>207.0</ele><time>2026-05-03T10:56:49Z</time></trkpt><trkpt lat="42.894871313194635" lon="12.721477580281181"><ele>207.0</ele><time>2026-05-03T10:56:50Z</time></trkpt><trkpt lat="42.89461198285736" lon="12.721562435724818"><ele>207.0</ele><time>2026-05-03T10:56:51Z</time></trkpt><trkpt lat="42.89435717380449" lon="12.72164421506291"><ele>207.0</ele><time>2026-05-03T10:56:52Z</time></trkpt><trkpt lat="42.89409914659712" lon="12.721732106786888"><ele>207.0</ele><time>2026-05-03T10:56:53Z</time></trkpt><trkpt lat="42.893842775474326" lon="12.721819268853356"><ele>207.0</ele><time>2026-05-03T10:56:54Z</time></trkpt><trkpt lat="42.893584040637364" lon="12.721910288837421"><ele>208.0</ele><time>2026-05-03T10:56:55Z</time></trkpt><trkpt lat="42.89332536677925" lon="12.722001761685684"><ele>209.0</ele><time>2026-05-03T10:56:56Z</time></trkpt><trkpt lat="42.893067640480744" lon="12.722096917453545"><ele>209.0</ele><time>2026-05-03T10:56:57Z</time></trkpt><trkpt lat="42.89280649915406" lon="12.72220092321843"><ele>209.0</ele><time>2026-05-03T10:56:58Z</time></trkpt><trkpt lat="42.89254795770865" lon="12.722305053673516"><ele>207.0</ele><time>2026-05-03T10:56:59Z</time></trkpt><trkpt lat="42.89228898476483" lon="12.722417247863067"><ele>205.0</ele><time>2026-05-03T10:57:00Z</time></trkpt><trkpt lat="42.89203103185032" lon="12.722535070927716"><ele>205.0</ele><time>2026-05-03T10:57:01Z</time></trkpt><trkpt lat="42.89177800420191" lon="12.722651719320373"><ele>205.0</ele><time>2026-05-03T10:57:02Z</time></trkpt><trkpt lat="42.89153163705921" lon="12.722767491856251"><ele>205.5</ele><time>2026-05-03T10:57:03Z</time></trkpt><trkpt lat="42.89128587423041" lon="12.72288644857041"><ele>206.0</ele><time>2026-05-03T10:57:03.999Z</time></trkpt><trkpt lat="42.8910439846422" lon="12.723006325175337"><ele>205.0</ele><time>2026-05-03T10:57:04.999Z</time></trkpt><trkpt lat="42.890799722283845" lon="12.723129880978657"><ele>204.0</ele><time>2026-05-03T10:57:05.999Z</time></trkpt><trkpt lat="42.89054987516766" lon="12.723259086345314"><ele>204.0</ele><time>2026-05-03T10:57:06.999Z</time></trkpt><trkpt lat="42.890298689664164" lon="12.72339461225194"><ele>204.0</ele><time>2026-05-03T10:57:07.999Z</time></trkpt><trkpt lat="42.89004412814303" lon="12.723536714179733"><ele>205.5</ele><time>2026-05-03T10:57:08.999Z</time></trkpt><trkpt lat="42.88979037580399" lon="12.723680433882748"><ele>207.0</ele><time>2026-05-03T10:57:09.999Z</time></trkpt><trkpt lat="42.88954154586982" lon="12.723823832960491"><ele>207.0</ele><time>2026-05-03T10:57:10.999Z</time></trkpt><trkpt lat="42.889296030182706" lon="12.723964880139972"><ele>207.0</ele><time>2026-05-03T10:57:11.999Z</time></trkpt><trkpt lat="42.88904927392248" lon="12.724108731473866"><ele>206.5</ele><time>2026-05-03T10:57:12.999Z</time></trkpt><trkpt lat="42.88879857794767" lon="12.72424929154438"><ele>206.0</ele><time>2026-05-03T10:57:13.999Z</time></trkpt><trkpt lat="42.88854764242317" lon="12.724393313086981"><ele>206.5</ele><time>2026-05-03T10:57:14.999Z</time></trkpt><trkpt lat="42.888298966459686" lon="12.724540248539839"><ele>207.0</ele><time>2026-05-03T10:57:15.999Z</time></trkpt><trkpt lat="42.88805029346878" lon="12.724689792178289"><ele>207.0</ele><time>2026-05-03T10:57:16.999Z</time></trkpt><trkpt lat="42.887805305631794" lon="12.724839265118925"><ele>207.0</ele><time>2026-05-03T10:57:17.999Z</time></trkpt><trkpt lat="42.88755829963867" lon="12.724991998605274"><ele>208.0</ele><time>2026-05-03T10:57:18.999Z</time></trkpt><trkpt lat="42.88731070693899" lon="12.725144259231028"><ele>209.0</ele><time>2026-05-03T10:57:19.999Z</time></trkpt><trkpt lat="42.88706381788246" lon="12.72529374475238"><ele>209.0</ele><time>2026-05-03T10:57:20.999Z</time></trkpt><trkpt lat="42.886817930726444" lon="12.725438286025504"><ele>209.0</ele><time>2026-05-03T10:57:21.999Z</time></trkpt><trkpt lat="42.88657031803206" lon="12.725582811177254"><ele>208.0</ele><time>2026-05-03T10:57:22.999Z</time></trkpt><trkpt lat="42.88631991433309" lon="12.725729306861579"><ele>207.0</ele><time>2026-05-03T10:57:23.999Z</time></trkpt><trkpt lat="42.886074948952825" lon="12.725877269583313"><ele>207.0</ele><time>2026-05-03T10:57:24.999Z</time></trkpt><trkpt lat="42.88583070435676" lon="12.726024010340593"><ele>207.0</ele><time>2026-05-03T10:57:25.999Z</time></trkpt><trkpt lat="42.885585904046124" lon="12.726173756841142"><ele>207.0</ele><time>2026-05-03T10:57:26.999Z</time></trkpt><trkpt lat="42.88533911504031" lon="12.726327119278919"><ele>207.0</ele><time>2026-05-03T10:57:27.999Z</time></trkpt><trkpt lat="42.885090166531555" lon="12.726481945476756"><ele>207.0</ele><time>2026-05-03T10:57:28.999Z</time></trkpt><trkpt lat="42.88484378032591" lon="12.726630664130754"><ele>207.0</ele><time>2026-05-03T10:57:29.999Z</time></trkpt><trkpt lat="42.88459517096853" lon="12.726776713372658"><ele>208.0</ele><time>2026-05-03T10:57:30.999Z</time></trkpt><trkpt lat="42.88434538912051" lon="12.726923982387031"><ele>209.0</ele><time>2026-05-03T10:57:31.999Z</time></trkpt><trkpt lat="42.88409672301056" lon="12.727072583637362"><ele>209.0</ele><time>2026-05-03T10:57:32.999Z</time></trkpt><trkpt lat="42.88385140002955" lon="12.727222461831987"><ele>209.0</ele><time>2026-05-03T10:57:33.999Z</time></trkpt><trkpt lat="42.88360543043073" lon="12.727369669737161"><ele>209.0</ele><time>2026-05-03T10:57:34.999Z</time></trkpt><trkpt lat="42.88335900847473" lon="12.727514474799483"><ele>209.0</ele><time>2026-05-03T10:57:35.999Z</time></trkpt><trkpt lat="42.88311019116496" lon="12.727661168155729"><ele>208.5</ele><time>2026-05-03T10:57:36.999Z</time></trkpt><trkpt lat="42.88286244766354" lon="12.72780925796489"><ele>208.0</ele><time>2026-05-03T10:57:37.999Z</time></trkpt><trkpt lat="42.88261495283558" lon="12.727955256305977"><ele>209.0</ele><time>2026-05-03T10:57:38.999Z</time></trkpt><trkpt lat="42.882367106646655" lon="12.728101197303847"><ele>210.0</ele><time>2026-05-03T10:57:39.999Z</time></trkpt><trkpt lat="42.88211892891073" lon="12.728249793144968"><ele>210.0</ele><time>2026-05-03T10:57:40.999Z</time></trkpt><trkpt lat="42.88187394983179" lon="12.7283981912546"><ele>210.0</ele><time>2026-05-03T10:57:41.999Z</time></trkpt><trkpt lat="42.88162511119381" lon="12.72854686652438"><ele>209.5</ele><time>2026-05-03T10:57:42.999Z</time></trkpt><trkpt lat="42.88137626442919" lon="12.728695872664728"><ele>209.0</ele><time>2026-05-03T10:57:43.999Z</time></trkpt><trkpt lat="42.88112788602106" lon="12.728841760826988"><ele>208.0</ele><time>2026-05-03T10:57:44.999Z</time></trkpt><trkpt lat="42.880879698872704" lon="12.728988457045512"><ele>207.0</ele><time>2026-05-03T10:57:45.999Z</time></trkpt><trkpt lat="42.8806311049867" lon="12.729138779402172"><ele>207.0</ele><time>2026-05-03T10:57:46.999Z</time></trkpt><trkpt lat="42.880385096071144" lon="12.729286561244567"><ele>207.0</ele><time>2026-05-03T10:57:47.999Z</time></trkpt><trkpt lat="42.88013797627057" lon="12.729424829529666"><ele>207.5</ele><time>2026-05-03T10:57:48.999Z</time></trkpt><trkpt lat="42.87988800820653" lon="12.729564156805418"><ele>208.0</ele><time>2026-05-03T10:57:49.999Z</time></trkpt><trkpt lat="42.879637725708896" lon="12.729707035031932"><ele>208.0</ele><time>2026-05-03T10:57:50.999Z</time></trkpt><trkpt lat="42.87938506871606" lon="12.72984901575617"><ele>208.0</ele><time>2026-05-03T10:57:51.999Z</time></trkpt><trkpt lat="42.87913431349998" lon="12.729980133189313"><ele>208.0</ele><time>2026-05-03T10:57:52.999Z</time></trkpt><trkpt lat="42.87887854909025" lon="12.730093252153264"><ele>208.0</ele><time>2026-05-03T10:57:53.999Z</time></trkpt><trkpt lat="42.87861860836624" lon="12.73019371529369"><ele>208.0</ele><time>2026-05-03T10:57:54.999Z</time></trkpt><trkpt lat="42.878354344390644" lon="12.730280873458074"><ele>208.0</ele><time>2026-05-03T10:57:55.999Z</time></trkpt><trkpt lat="42.87809141069104" lon="12.73035134239502"><ele>208.0</ele><time>2026-05-03T10:57:56.999Z</time></trkpt><trkpt lat="42.87782427259375" lon="12.730408306635784"><ele>208.0</ele><time>2026-05-03T10:57:57.999Z</time></trkpt><trkpt lat="42.87755884578015" lon="12.730446547147887"><ele>208.0</ele><time>2026-05-03T10:57:58.999Z</time></trkpt><trkpt lat="42.877289581162685" lon="12.730468577515252"><ele>208.0</ele><time>2026-05-03T10:57:59.999Z</time></trkpt><trkpt lat="42.877018880734305" lon="12.730473219712177"><ele>208.0</ele><time>2026-05-03T10:58:00.999Z</time></trkpt><trkpt lat="42.87674850934517" lon="12.730465234408667"><ele>208.0</ele><time>2026-05-03T10:58:01.999Z</time></trkpt><trkpt lat="42.876478381502906" lon="12.730439118604327"><ele>208.0</ele><time>2026-05-03T10:58:02.999Z</time></trkpt><trkpt lat="42.87621220194606" lon="12.73039929232514"><ele>208.0</ele><time>2026-05-03T10:58:03.999Z</time></trkpt><trkpt lat="42.875945315046806" lon="12.730341472912627"><ele>208.5</ele><time>2026-05-03T10:58:04.999Z</time></trkpt><trkpt lat="42.87568640264884" lon="12.730262974004559"><ele>209.0</ele><time>2026-05-03T10:58:05.999Z</time></trkpt><trkpt lat="42.87542241329839" lon="12.730173128787243"><ele>209.5</ele><time>2026-05-03T10:58:06.999Z</time></trkpt><trkpt lat="42.87516246695774" lon="12.730069654485968"><ele>210.0</ele><time>2026-05-03T10:58:07.999Z</time></trkpt><trkpt lat="42.87490075880779" lon="12.729955237783107"><ele>210.0</ele><time>2026-05-03T10:58:08.999Z</time></trkpt><trkpt lat="42.87463852095119" lon="12.729837442245124"><ele>210.0</ele><time>2026-05-03T10:58:09.999Z</time></trkpt><trkpt lat="42.87439698879643" lon="12.72973594975849"><ele>211.0</ele><time>2026-05-03T10:58:10.999Z</time></trkpt><trkpt lat="42.87415680235896" lon="12.729626968513674"><ele>212.0</ele><time>2026-05-03T10:58:11.999Z</time></trkpt><trkpt lat="42.87393549923488" lon="12.729520627389691"><ele>212.0</ele><time>2026-05-03T10:58:12.999Z</time></trkpt><trkpt lat="42.8737087082202" lon="12.729430981513156"><ele>212.0</ele><time>2026-05-03T10:58:13.999Z</time></trkpt><trkpt lat="42.87348054119293" lon="12.729354015201723"><ele>212.0</ele><time>2026-05-03T10:58:14.999Z</time></trkpt><trkpt lat="42.87325614860034" lon="12.729268813359239"><ele>212.0</ele><time>2026-05-03T10:58:15.999Z</time></trkpt><trkpt lat="42.87301973352721" lon="12.729191408746564"><ele>212.0</ele><time>2026-05-03T10:58:16.999Z</time></trkpt><trkpt lat="42.87277864082455" lon="12.729134710511328"><ele>212.0</ele><time>2026-05-03T10:58:18Z</time></trkpt><trkpt lat="42.87253739234351" lon="12.729093300704784"><ele>212.0</ele><time>2026-05-03T10:58:19Z</time></trkpt><trkpt lat="42.872295486288955" lon="12.729065331288865"><ele>212.0</ele><time>2026-05-03T10:58:20Z</time></trkpt><trkpt lat="42.87205550770254" lon="12.72904152781439"><ele>212.0</ele><time>2026-05-03T10:58:21Z</time></trkpt><trkpt lat="42.87181700325838" lon="12.729030897743593"><ele>212.0</ele><time>2026-05-03T10:58:22Z</time></trkpt><trkpt lat="42.87157933785848" lon="12.729030768895631"><ele>211.5</ele><time>2026-05-03T10:58:23Z</time></trkpt><trkpt lat="42.87134020315873" lon="12.729046708318954"><ele>211.0</ele><time>2026-05-03T10:58:24Z</time></trkpt><trkpt lat="42.87110474342163" lon="12.729080904124565"><ele>212.0</ele><time>2026-05-03T10:58:25Z</time></trkpt><trkpt lat="42.87087258578735" lon="12.729114668120822"><ele>213.0</ele><time>2026-05-03T10:58:26Z</time></trkpt><trkpt lat="42.870648538811544" lon="12.729167392815041"><ele>213.0</ele><time>2026-05-03T10:58:27Z</time></trkpt><trkpt lat="42.87041511123343" lon="12.729229473858771"><ele>213.0</ele><time>2026-05-03T10:58:28Z</time></trkpt><trkpt lat="42.870189552496825" lon="12.72930426065976"><ele>211.5</ele><time>2026-05-03T10:58:29Z</time></trkpt><trkpt lat="42.86996591809981" lon="12.729394375920268"><ele>210.0</ele><time>2026-05-03T10:58:30Z</time></trkpt><trkpt lat="42.869739126689026" lon="12.729492275063503"><ele>210.0</ele><time>2026-05-03T10:58:31Z</time></trkpt><trkpt lat="42.869520614795896" lon="12.72959973028061"><ele>210.0</ele><time>2026-05-03T10:58:32Z</time></trkpt><trkpt lat="42.869302768713794" lon="12.729736866639486"><ele>211.0</ele><time>2026-05-03T10:58:33Z</time></trkpt><trkpt lat="42.86908649580589" lon="12.729868620710704"><ele>212.0</ele><time>2026-05-03T10:58:34Z</time></trkpt><trkpt lat="42.86887293371513" lon="12.730006092982375"><ele>212.0</ele><time>2026-05-03T10:58:35Z</time></trkpt><trkpt lat="42.868664637907024" lon="12.730153354138292"><ele>212.0</ele><time>2026-05-03T10:58:36Z</time></trkpt><trkpt lat="42.86845645314331" lon="12.730309162606732"><ele>212.5</ele><time>2026-05-03T10:58:37Z</time></trkpt><trkpt lat="42.868252152404445" lon="12.730471640935082"><ele>213.0</ele><time>2026-05-03T10:58:38Z</time></trkpt><trkpt lat="42.868052396911644" lon="12.730639336142756"><ele>213.0</ele><time>2026-05-03T10:58:39Z</time></trkpt><trkpt lat="42.86785242718444" lon="12.730805877197158"><ele>213.0</ele><time>2026-05-03T10:58:40Z</time></trkpt><trkpt lat="42.867649585359" lon="12.730969752774428"><ele>212.5</ele><time>2026-05-03T10:58:41Z</time></trkpt><trkpt lat="42.867446147104985" lon="12.731130918555127"><ele>212.0</ele><time>2026-05-03T10:58:42Z</time></trkpt><trkpt lat="42.86724265334638" lon="12.731289979992406"><ele>212.0</ele><time>2026-05-03T10:58:43Z</time></trkpt><trkpt lat="42.86703871069671" lon="12.731450029683899"><ele>212.0</ele><time>2026-05-03T10:58:44Z</time></trkpt><trkpt lat="42.8668390893609" lon="12.731611692079797"><ele>212.0</ele><time>2026-05-03T10:58:45Z</time></trkpt><trkpt lat="42.86663894581207" lon="12.73177662001014"><ele>212.0</ele><time>2026-05-03T10:58:46Z</time></trkpt><trkpt lat="42.866436601547484" lon="12.731943950466546"><ele>212.0</ele><time>2026-05-03T10:58:47Z</time></trkpt><trkpt lat="42.86623710454987" lon="12.732113380445048"><ele>212.0</ele><time>2026-05-03T10:58:48Z</time></trkpt><trkpt lat="42.86603600380903" lon="12.732288818688106"><ele>214.0</ele><time>2026-05-03T10:58:49Z</time></trkpt><trkpt lat="42.86584790761295" lon="12.732470492930076"><ele>216.0</ele><time>2026-05-03T10:58:50Z</time></trkpt><trkpt lat="42.865658874754274" lon="12.73266556807004"><ele>215.0</ele><time>2026-05-03T10:58:51Z</time></trkpt><trkpt lat="42.86547883429828" lon="12.732869607084844"><ele>214.0</ele><time>2026-05-03T10:58:52Z</time></trkpt><trkpt lat="42.86530525487898" lon="12.733079392117626"><ele>214.0</ele><time>2026-05-03T10:58:53Z</time></trkpt><trkpt lat="42.865130449226506" lon="12.733297902243349"><ele>214.0</ele><time>2026-05-03T10:58:54Z</time></trkpt><trkpt lat="42.864960604062645" lon="12.733516260432667"><ele>213.5</ele><time>2026-05-03T10:58:55Z</time></trkpt><trkpt lat="42.86478807593469" lon="12.73373880174802"><ele>213.0</ele><time>2026-05-03T10:58:56Z</time></trkpt><trkpt lat="42.86461256248881" lon="12.733956949415502"><ele>213.0</ele><time>2026-05-03T10:58:57Z</time></trkpt><trkpt lat="42.86443541096309" lon="12.734169965804934"><ele>213.0</ele><time>2026-05-03T10:58:58Z</time></trkpt><trkpt lat="42.86426109274973" lon="12.734378814830826"><ele>213.0</ele><time>2026-05-03T10:58:59Z</time></trkpt><trkpt lat="42.86408108698962" lon="12.734585403019583"><ele>213.0</ele><time>2026-05-03T10:59:00Z</time></trkpt><trkpt lat="42.86389835747787" lon="12.734789334202699"><ele>213.0</ele><time>2026-05-03T10:59:01Z</time></trkpt><trkpt lat="42.863716988591044" lon="12.734991127347438"><ele>213.0</ele><time>2026-05-03T10:59:02Z</time></trkpt><trkpt lat="42.863536530046694" lon="12.735195398640569"><ele>212.5</ele><time>2026-05-03T10:59:03Z</time></trkpt><trkpt lat="42.86335489441184" lon="12.735392751443827"><ele>212.0</ele><time>2026-05-03T10:59:04Z</time></trkpt><trkpt lat="42.863163541235586" lon="12.735584112482002"><ele>212.0</ele><time>2026-05-03T10:59:05Z</time></trkpt><trkpt lat="42.86296827089315" lon="12.73576877125388"><ele>212.0</ele><time>2026-05-03T10:59:06Z</time></trkpt><trkpt lat="42.86277093899157" lon="12.73594457627294"><ele>214.0</ele><time>2026-05-03T10:59:07Z</time></trkpt><trkpt lat="42.8625722781398" lon="12.736114228910418"><ele>216.0</ele><time>2026-05-03T10:59:08Z</time></trkpt><trkpt lat="42.86237042148195" lon="12.736279049667043"><ele>216.0</ele><time>2026-05-03T10:59:09Z</time></trkpt><trkpt lat="42.862166202530545" lon="12.736441628940298"><ele>216.0</ele><time>2026-05-03T10:59:10Z</time></trkpt><trkpt lat="42.8619618935166" lon="12.736601961313735"><ele>215.5</ele><time>2026-05-03T10:59:11Z</time></trkpt><trkpt lat="42.8617577975792" lon="12.736754214408124"><ele>215.0</ele><time>2026-05-03T10:59:12Z</time></trkpt><trkpt lat="42.86154672592112" lon="12.736899824580506"><ele>215.0</ele><time>2026-05-03T10:59:13Z</time></trkpt><trkpt lat="42.86133660313251" lon="12.737045350932403"><ele>215.0</ele><time>2026-05-03T10:59:14Z</time></trkpt><trkpt lat="42.86112454233265" lon="12.737192037377458"><ele>215.0</ele><time>2026-05-03T10:59:15Z</time></trkpt><trkpt lat="42.860919108745684" lon="12.737333586343475"><ele>215.0</ele><time>2026-05-03T10:59:16Z</time></trkpt><trkpt lat="42.86070364991892" lon="12.7374675945315"><ele>215.0</ele><time>2026-05-03T10:59:17Z</time></trkpt><trkpt lat="42.86048940305141" lon="12.73760256853643"><ele>215.0</ele><time>2026-05-03T10:59:18Z</time></trkpt><trkpt lat="42.860281150815084" lon="12.737743057464481"><ele>215.0</ele><time>2026-05-03T10:59:19Z</time></trkpt><trkpt lat="42.860068325547296" lon="12.737880398551564"><ele>215.0</ele><time>2026-05-03T10:59:20Z</time></trkpt><trkpt lat="42.859854422447555" lon="12.738014937615828"><ele>215.0</ele><time>2026-05-03T10:59:21Z</time></trkpt><trkpt lat="42.85964395247484" lon="12.73816036326516"><ele>215.0</ele><time>2026-05-03T10:59:22Z</time></trkpt><trkpt lat="42.85942951651459" lon="12.738298043811579"><ele>215.0</ele><time>2026-05-03T10:59:23Z</time></trkpt><trkpt lat="42.85921611364159" lon="12.738436713439533"><ele>215.0</ele><time>2026-05-03T10:59:24Z</time></trkpt><trkpt lat="42.85900782919276" lon="12.738576572514583"><ele>215.5</ele><time>2026-05-03T10:59:25Z</time></trkpt><trkpt lat="42.85879241976424" lon="12.7387143980485"><ele>216.0</ele><time>2026-05-03T10:59:26Z</time></trkpt><trkpt lat="42.85858251923519" lon="12.738853421546253"><ele>216.0</ele><time>2026-05-03T10:59:27Z</time></trkpt><trkpt lat="42.85836857045558" lon="12.738990992974811"><ele>216.0</ele><time>2026-05-03T10:59:28Z</time></trkpt><trkpt lat="42.858158388142165" lon="12.739124097736484"><ele>216.0</ele><time>2026-05-03T10:59:29Z</time></trkpt><trkpt lat="42.85793890607282" lon="12.739266662895268"><ele>216.0</ele><time>2026-05-03T10:59:30Z</time></trkpt><trkpt lat="42.85773167643055" lon="12.739411829977795"><ele>216.0</ele><time>2026-05-03T10:59:31Z</time></trkpt><trkpt lat="42.857522500530216" lon="12.739562222645782"><ele>216.0</ele><time>2026-05-03T10:59:32Z</time></trkpt><trkpt lat="42.85732006026143" lon="12.73971474414594"><ele>216.0</ele><time>2026-05-03T10:59:33Z</time></trkpt><trkpt lat="42.85711390951086" lon="12.739871574195972"><ele>216.0</ele><time>2026-05-03T10:59:34Z</time></trkpt><trkpt lat="42.85690859434183" lon="12.740031637314752"><ele>216.0</ele><time>2026-05-03T10:59:35Z</time></trkpt><trkpt lat="42.856701804499934" lon="12.740188503263463"><ele>216.0</ele><time>2026-05-03T10:59:36Z</time></trkpt><trkpt lat="42.85650105702414" lon="12.740350295422834"><ele>215.5</ele><time>2026-05-03T10:59:37Z</time></trkpt><trkpt lat="42.85629664675723" lon="12.740515719025183"><ele>215.0</ele><time>2026-05-03T10:59:38Z</time></trkpt><trkpt lat="42.85609662146812" lon="12.740679859949326"><ele>216.0</ele><time>2026-05-03T10:59:39Z</time></trkpt><trkpt lat="42.855893525825905" lon="12.740846830064937"><ele>217.0</ele><time>2026-05-03T10:59:40Z</time></trkpt><trkpt lat="42.85569492739314" lon="12.74101755459563"><ele>217.5</ele><time>2026-05-03T10:59:40.999Z</time></trkpt><trkpt lat="42.855504352804424" lon="12.741188121949941"><ele>218.0</ele><time>2026-05-03T10:59:41.999Z</time></trkpt><trkpt lat="42.85530821361475" lon="12.741362218451705"><ele>218.0</ele><time>2026-05-03T10:59:42.999Z</time></trkpt><trkpt lat="42.85510522624327" lon="12.74154081693754"><ele>218.0</ele><time>2026-05-03T10:59:43.999Z</time></trkpt><trkpt lat="42.85491296380494" lon="12.74172209055023"><ele>217.5</ele><time>2026-05-03T10:59:44.999Z</time></trkpt><trkpt lat="42.85471661934954" lon="12.741899397654706"><ele>217.0</ele><time>2026-05-03T10:59:45.999Z</time></trkpt><trkpt lat="42.85452518703428" lon="12.74208603978546"><ele>217.0</ele><time>2026-05-03T10:59:46.999Z</time></trkpt><trkpt lat="42.854333433045575" lon="12.742269694483456"><ele>217.0</ele><time>2026-05-03T10:59:47.999Z</time></trkpt><trkpt lat="42.85414249288873" lon="12.742458650343211"><ele>217.0</ele><time>2026-05-03T10:59:48.999Z</time></trkpt><trkpt lat="42.8539535285711" lon="12.742649727135825"><ele>217.0</ele><time>2026-05-03T10:59:49.999Z</time></trkpt><trkpt lat="42.85376844682913" lon="12.74284783088586"><ele>217.0</ele><time>2026-05-03T10:59:50.999Z</time></trkpt><trkpt lat="42.85358231022107" lon="12.743039544784978"><ele>217.0</ele><time>2026-05-03T10:59:51.999Z</time></trkpt><trkpt lat="42.85340242058386" lon="12.743240124440092"><ele>216.5</ele><time>2026-05-03T10:59:52.999Z</time></trkpt><trkpt lat="42.85321279906962" lon="12.743440089973967"><ele>216.0</ele><time>2026-05-03T10:59:53.999Z</time></trkpt><trkpt lat="42.85302748242193" lon="12.743640393852269"><ele>217.0</ele><time>2026-05-03T10:59:54.999Z</time></trkpt><trkpt lat="42.85284650932589" lon="12.743841703457996"><ele>218.0</ele><time>2026-05-03T10:59:55.999Z</time></trkpt><trkpt lat="42.8526660053806" lon="12.744044477310581"><ele>217.0</ele><time>2026-05-03T10:59:56.999Z</time></trkpt><trkpt lat="42.85247835947995" lon="12.744245853313256"><ele>216.0</ele><time>2026-05-03T10:59:57.999Z</time></trkpt><trkpt lat="42.85229810926431" lon="12.744449042878127"><ele>216.0</ele><time>2026-05-03T10:59:58.999Z</time></trkpt><trkpt lat="42.85211714683524" lon="12.744649912915477"><ele>216.0</ele><time>2026-05-03T10:59:59.999Z</time></trkpt><trkpt lat="42.85193116656574" lon="12.744851196742646"><ele>216.0</ele><time>2026-05-03T11:00:00.999Z</time></trkpt><trkpt lat="42.85174846904843" lon="12.745052474378422"><ele>216.0</ele><time>2026-05-03T11:00:01.999Z</time></trkpt><trkpt lat="42.851563355280184" lon="12.745252165694955"><ele>216.0</ele><time>2026-05-03T11:00:02.999Z</time></trkpt><trkpt lat="42.851378955962915" lon="12.745451316147982"><ele>216.0</ele><time>2026-05-03T11:00:03.999Z</time></trkpt><trkpt lat="42.851188215412314" lon="12.745646619046232"><ele>216.0</ele><time>2026-05-03T11:00:04.999Z</time></trkpt><trkpt lat="42.85100466894225" lon="12.74583524021086"><ele>216.0</ele><time>2026-05-03T11:00:05.999Z</time></trkpt><trkpt lat="42.85081464266488" lon="12.746027940101017"><ele>216.5</ele><time>2026-05-03T11:00:06.999Z</time></trkpt><trkpt lat="42.850612309490934" lon="12.74619826323669"><ele>217.0</ele><time>2026-05-03T11:00:07.999Z</time></trkpt><trkpt lat="42.85041272764973" lon="12.746366422204837"><ele>217.0</ele><time>2026-05-03T11:00:08.999Z</time></trkpt><trkpt lat="42.85021204687485" lon="12.746526453598209"><ele>217.0</ele><time>2026-05-03T11:00:09.999Z</time></trkpt><trkpt lat="42.850002814282504" lon="12.746680125501234"><ele>217.0</ele><time>2026-05-03T11:00:10.999Z</time></trkpt><trkpt lat="42.84979477536971" lon="12.746837029878039"><ele>217.0</ele><time>2026-05-03T11:00:11.999Z</time></trkpt><trkpt lat="42.84958066177328" lon="12.746992687990891"><ele>216.5</ele><time>2026-05-03T11:00:12.999Z</time></trkpt><trkpt lat="42.849364074309605" lon="12.747134240032347"><ele>216.0</ele><time>2026-05-03T11:00:13.999Z</time></trkpt><trkpt lat="42.849150048741336" lon="12.747279592794664"><ele>215.5</ele><time>2026-05-03T11:00:14.999Z</time></trkpt><trkpt lat="42.848928966526366" lon="12.747424195131249"><ele>215.0</ele><time>2026-05-03T11:00:15.999Z</time></trkpt><trkpt lat="42.84870931284123" lon="12.747572966798698"><ele>215.5</ele><time>2026-05-03T11:00:16.999Z</time></trkpt><trkpt lat="42.84849072165397" lon="12.747743660248208"><ele>216.0</ele><time>2026-05-03T11:00:17.999Z</time></trkpt><trkpt lat="42.84825776772608" lon="12.747904765642126"><ele>216.0</ele><time>2026-05-03T11:00:18.999Z</time></trkpt><trkpt lat="42.84805044220122" lon="12.748084085128903"><ele>216.0</ele><time>2026-05-03T11:00:19.999Z</time></trkpt><trkpt lat="42.84783803763351" lon="12.748270807994448"><ele>216.0</ele><time>2026-05-03T11:00:20.999Z</time></trkpt><trkpt lat="42.84762828091062" lon="12.748467569605346"><ele>216.0</ele><time>2026-05-03T11:00:21.999Z</time></trkpt><trkpt lat="42.84741583475362" lon="12.74866822739765"><ele>216.0</ele><time>2026-05-03T11:00:22.999Z</time></trkpt><trkpt lat="42.847201779364546" lon="12.748874356931358"><ele>216.0</ele><time>2026-05-03T11:00:24Z</time></trkpt><trkpt lat="42.846988170426314" lon="12.7490712218066"><ele>215.5</ele><time>2026-05-03T11:00:25Z</time></trkpt><trkpt lat="42.846775009512676" lon="12.749266337448182"><ele>215.0</ele><time>2026-05-03T11:00:26Z</time></trkpt><trkpt lat="42.846565830185924" lon="12.749465899651652"><ele>215.0</ele><time>2026-05-03T11:00:27Z</time></trkpt><trkpt lat="42.84635364961491" lon="12.749667869800078"><ele>215.0</ele><time>2026-05-03T11:00:28Z</time></trkpt><trkpt lat="42.84614603561284" lon="12.749873111012477"><ele>215.0</ele><time>2026-05-03T11:00:29Z</time></trkpt><trkpt lat="42.84592965068747" lon="12.75008314368226"><ele>215.0</ele><time>2026-05-03T11:00:30Z</time></trkpt><trkpt lat="42.84571306225808" lon="12.750293010869932"><ele>215.5</ele><time>2026-05-03T11:00:31Z</time></trkpt><trkpt lat="42.84549773189063" lon="12.750501764762204"><ele>216.0</ele><time>2026-05-03T11:00:32Z</time></trkpt><trkpt lat="42.845274249961506" lon="12.750713145051186"><ele>216.5</ele><time>2026-05-03T11:00:33Z</time></trkpt><trkpt lat="42.84504678905454" lon="12.750923487727906"><ele>217.0</ele><time>2026-05-03T11:00:34Z</time></trkpt><trkpt lat="42.84481952393501" lon="12.751140442087506"><ele>217.0</ele><time>2026-05-03T11:00:35Z</time></trkpt><trkpt lat="42.84458282931415" lon="12.751353743880127"><ele>217.0</ele><time>2026-05-03T11:00:36Z</time></trkpt><trkpt lat="42.84434917515474" lon="12.751567341849638"><ele>217.0</ele><time>2026-05-03T11:00:37Z</time></trkpt><trkpt lat="42.84410583317366" lon="12.751774992216449"><ele>217.0</ele><time>2026-05-03T11:00:38Z</time></trkpt><trkpt lat="42.84386345323027" lon="12.751974722632658"><ele>217.0</ele><time>2026-05-03T11:00:39Z</time></trkpt><trkpt lat="42.84361602442678" lon="12.752164620512303"><ele>217.0</ele><time>2026-05-03T11:00:40Z</time></trkpt><trkpt lat="42.84336696263491" lon="12.752338226392533"><ele>216.5</ele><time>2026-05-03T11:00:41Z</time></trkpt><trkpt lat="42.84312202857211" lon="12.752497442103598"><ele>216.0</ele><time>2026-05-03T11:00:42Z</time></trkpt><trkpt lat="42.84286568638216" lon="12.752658932944719"><ele>216.5</ele><time>2026-05-03T11:00:43Z</time></trkpt><trkpt lat="42.84262646940299" lon="12.752816011384306"><ele>217.0</ele><time>2026-05-03T11:00:44Z</time></trkpt><trkpt lat="42.842375129505164" lon="12.752964391114515"><ele>217.0</ele><time>2026-05-03T11:00:45Z</time></trkpt><trkpt lat="42.84212151434624" lon="12.7531067984585"><ele>217.0</ele><time>2026-05-03T11:00:46Z</time></trkpt><trkpt lat="42.84187378577571" lon="12.753246337528394"><ele>217.0</ele><time>2026-05-03T11:00:47Z</time></trkpt><trkpt lat="42.84162030035381" lon="12.753377345018786"><ele>217.0</ele><time>2026-05-03T11:00:48Z</time></trkpt><trkpt lat="42.84136446870256" lon="12.753497753671057"><ele>217.0</ele><time>2026-05-03T11:00:49Z</time></trkpt><trkpt lat="42.841110479407874" lon="12.753609591476359"><ele>217.0</ele><time>2026-05-03T11:00:50Z</time></trkpt><trkpt lat="42.84085923993625" lon="12.753716569704585"><ele>217.5</ele><time>2026-05-03T11:00:51Z</time></trkpt><trkpt lat="42.840604339947184" lon="12.753827804947099"><ele>218.0</ele><time>2026-05-03T11:00:52Z</time></trkpt><trkpt lat="42.840350833603225" lon="12.75393673626688"><ele>218.5</ele><time>2026-05-03T11:00:53Z</time></trkpt><trkpt lat="42.840098926687055" lon="12.754042908618318"><ele>219.0</ele><time>2026-05-03T11:00:54Z</time></trkpt><trkpt lat="42.839844781422855" lon="12.754150201685928"><ele>219.0</ele><time>2026-05-03T11:00:55Z</time></trkpt><trkpt lat="42.83958980180632" lon="12.754257932238353"><ele>219.0</ele><time>2026-05-03T11:00:56Z</time></trkpt><trkpt lat="42.839338961281406" lon="12.754365186626533"><ele>219.0</ele><time>2026-05-03T11:00:57Z</time></trkpt><trkpt lat="42.83908662217766" lon="12.754477207992759"><ele>219.0</ele><time>2026-05-03T11:00:58Z</time></trkpt><trkpt lat="42.83883463288354" lon="12.754596875036333"><ele>219.0</ele><time>2026-05-03T11:00:59Z</time></trkpt><trkpt lat="42.83858510514152" lon="12.75472013998048"><ele>219.0</ele><time>2026-05-03T11:01:00Z</time></trkpt><trkpt lat="42.83833817873312" lon="12.75484765091022"><ele>218.0</ele><time>2026-05-03T11:01:01Z</time></trkpt><trkpt lat="42.83808895207366" lon="12.754983591271744"><ele>217.0</ele><time>2026-05-03T11:01:02Z</time></trkpt><trkpt lat="42.83783976660822" lon="12.755126210926498"><ele>218.0</ele><time>2026-05-03T11:01:03Z</time></trkpt><trkpt lat="42.83759301995418" lon="12.755275082927874"><ele>219.0</ele><time>2026-05-03T11:01:04Z</time></trkpt><trkpt lat="42.83734459950385" lon="12.755431395236124"><ele>219.0</ele><time>2026-05-03T11:01:05Z</time></trkpt><trkpt lat="42.83709711565038" lon="12.7555952466223"><ele>219.0</ele><time>2026-05-03T11:01:06Z</time></trkpt><trkpt lat="42.83684919165444" lon="12.75575975285325"><ele>219.0</ele><time>2026-05-03T11:01:07Z</time></trkpt><trkpt lat="42.836601205982525" lon="12.75592795465724"><ele>219.0</ele><time>2026-05-03T11:01:08Z</time></trkpt><trkpt lat="42.83635518345249" lon="12.75609711236625"><ele>219.0</ele><time>2026-05-03T11:01:09Z</time></trkpt><trkpt lat="42.836103728159685" lon="12.756275778288016"><ele>219.0</ele><time>2026-05-03T11:01:10Z</time></trkpt><trkpt lat="42.835850643599464" lon="12.756455638863637"><ele>219.0</ele><time>2026-05-03T11:01:11Z</time></trkpt><trkpt lat="42.83560813377796" lon="12.756626530207628"><ele>219.0</ele><time>2026-05-03T11:01:12Z</time></trkpt><trkpt lat="42.83535974656582" lon="12.756796827453169"><ele>219.5</ele><time>2026-05-03T11:01:13Z</time></trkpt><trkpt lat="42.83511095652286" lon="12.756971165619525"><ele>220.0</ele><time>2026-05-03T11:01:14Z</time></trkpt><trkpt lat="42.8348660161779" lon="12.757141794571114"><ele>220.0</ele><time>2026-05-03T11:01:15Z</time></trkpt><trkpt lat="42.83461889308125" lon="12.75731629538701"><ele>220.0</ele><time>2026-05-03T11:01:16Z</time></trkpt><trkpt lat="42.834371249754405" lon="12.757493535053968"><ele>220.0</ele><time>2026-05-03T11:01:17Z</time></trkpt><trkpt lat="42.83411691032217" lon="12.757680281855658"><ele>220.0</ele><time>2026-05-03T11:01:18Z</time></trkpt><trkpt lat="42.83384706169284" lon="12.7578618983386"><ele>220.0</ele><time>2026-05-03T11:01:19Z</time></trkpt><trkpt lat="42.83356318106767" lon="12.75805337777369"><ele>220.0</ele><time>2026-05-03T11:01:20Z</time></trkpt><trkpt lat="42.83327626005345" lon="12.758250348796457"><ele>220.0</ele><time>2026-05-03T11:01:21Z</time></trkpt><trkpt lat="42.832988308719116" lon="12.758448040176521"><ele>220.0</ele><time>2026-05-03T11:01:22Z</time></trkpt><trkpt lat="42.83268835356598" lon="12.758654803206694"><ele>219.5</ele><time>2026-05-03T11:01:23Z</time></trkpt><trkpt lat="42.83240825660737" lon="12.758865467872036"><ele>219.0</ele><time>2026-05-03T11:01:25Z</time></trkpt><trkpt lat="42.83216209752052" lon="12.759035729462338"><ele>219.0</ele><time>2026-05-03T11:01:26Z</time></trkpt><trkpt lat="42.83191522285748" lon="12.759198848688781"><ele>219.0</ele><time>2026-05-03T11:01:27Z</time></trkpt><trkpt lat="42.83166547770969" lon="12.759353715062424"><ele>220.0</ele><time>2026-05-03T11:01:28Z</time></trkpt><trkpt lat="42.831418027768535" lon="12.759498914049631"><ele>221.0</ele><time>2026-05-03T11:01:29Z</time></trkpt><trkpt lat="42.83116763157432" lon="12.759637546297014"><ele>221.0</ele><time>2026-05-03T11:01:30Z</time></trkpt><trkpt lat="42.83090850074781" lon="12.759764294066741"><ele>221.0</ele><time>2026-05-03T11:01:31Z</time></trkpt><trkpt lat="42.830651800570884" lon="12.759879872081223"><ele>221.0</ele><time>2026-05-03T11:01:32Z</time></trkpt><trkpt lat="42.83039394967352" lon="12.759980727334836"><ele>221.0</ele><time>2026-05-03T11:01:33Z</time></trkpt><trkpt lat="42.83013613774122" lon="12.760073901558693"><ele>221.0</ele><time>2026-05-03T11:01:34Z</time></trkpt><trkpt lat="42.829873869167486" lon="12.760156715380482"><ele>221.0</ele><time>2026-05-03T11:01:35Z</time></trkpt><trkpt lat="42.829609479594986" lon="12.760234534154684"><ele>221.0</ele><time>2026-05-03T11:01:36Z</time></trkpt><trkpt lat="42.8293437339081" lon="12.760302345741474"><ele>221.0</ele><time>2026-05-03T11:01:37Z</time></trkpt><trkpt lat="42.829077222909376" lon="12.760354595946096"><ele>221.5</ele><time>2026-05-03T11:01:38Z</time></trkpt><trkpt lat="42.82881178889228" lon="12.760393824584991"><ele>222.0</ele><time>2026-05-03T11:01:39Z</time></trkpt><trkpt lat="42.828546177763606" lon="12.76041832217209"><ele>222.0</ele><time>2026-05-03T11:01:40Z</time></trkpt><trkpt lat="42.82828103214412" lon="12.760434207219493"><ele>222.0</ele><time>2026-05-03T11:01:41Z</time></trkpt><trkpt lat="42.82801623566432" lon="12.760442300639749"><ele>222.0</ele><time>2026-05-03T11:01:42Z</time></trkpt><trkpt lat="42.827752392232135" lon="12.760433110576894"><ele>222.0</ele><time>2026-05-03T11:01:43Z</time></trkpt><trkpt lat="42.827489874941186" lon="12.76042043860466"><ele>223.0</ele><time>2026-05-03T11:01:44Z</time></trkpt><trkpt lat="42.82722722264569" lon="12.760403624054955"><ele>224.0</ele><time>2026-05-03T11:01:45Z</time></trkpt><trkpt lat="42.82695883686125" lon="12.760375968286592"><ele>224.5</ele><time>2026-05-03T11:01:46Z</time></trkpt><trkpt lat="42.826691213954916" lon="12.760345944735112"><ele>225.0</ele><time>2026-05-03T11:01:47Z</time></trkpt><trkpt lat="42.826487527604094" lon="12.760381428376412"><ele>225.0</ele><time>2026-05-03T11:01:48Z</time></trkpt><trkpt lat="42.82620486453761" lon="12.760318626449564"><ele>225.0</ele><time>2026-05-03T11:01:49Z</time></trkpt><trkpt lat="42.825936119700344" lon="12.760283799267592"><ele>224.5</ele><time>2026-05-03T11:01:50Z</time></trkpt><trkpt lat="42.825669031026415" lon="12.76024131697879"><ele>224.0</ele><time>2026-05-03T11:01:51Z</time></trkpt><trkpt lat="42.82540518137989" lon="12.760157271750678"><ele>224.0</ele><time>2026-05-03T11:01:52Z</time></trkpt><trkpt lat="42.825172829788414" lon="12.760094088887824"><ele>224.0</ele><time>2026-05-03T11:01:53Z</time></trkpt><trkpt lat="42.8249165418315" lon="12.760019121808853"><ele>223.5</ele><time>2026-05-03T11:01:54Z</time></trkpt><trkpt lat="42.82466172298539" lon="12.759934590688758"><ele>223.0</ele><time>2026-05-03T11:01:55Z</time></trkpt><trkpt lat="42.824407480896696" lon="12.75984266845578"><ele>222.0</ele><time>2026-05-03T11:01:56Z</time></trkpt><trkpt lat="42.82415449412617" lon="12.759751907691061"><ele>221.0</ele><time>2026-05-03T11:01:56.999Z</time></trkpt><trkpt lat="42.82390732598647" lon="12.759658904643032"><ele>221.0</ele><time>2026-05-03T11:01:57.999Z</time></trkpt><trkpt lat="42.82366582065002" lon="12.75955941013329"><ele>221.0</ele><time>2026-05-03T11:01:58.999Z</time></trkpt><trkpt lat="42.82344135468488" lon="12.759455443112003"><ele>222.5</ele><time>2026-05-03T11:01:59.999Z</time></trkpt><trkpt lat="42.8232306220405" lon="12.759348489346586"><ele>224.0</ele><time>2026-05-03T11:02:00.999Z</time></trkpt><trkpt lat="42.823009903073974" lon="12.759244960185358"><ele>224.0</ele><time>2026-05-03T11:02:01.999Z</time></trkpt><trkpt lat="42.82277951180009" lon="12.759144446601026"><ele>224.0</ele><time>2026-05-03T11:02:02.999Z</time></trkpt><trkpt lat="42.82254426451044" lon="12.759033879752321"><ele>224.0</ele><time>2026-05-03T11:02:03.999Z</time></trkpt><trkpt lat="42.82230907885767" lon="12.758907761348357"><ele>224.0</ele><time>2026-05-03T11:02:04.999Z</time></trkpt><trkpt lat="42.82207154911283" lon="12.758774367247058"><ele>224.0</ele><time>2026-05-03T11:02:05.999Z</time></trkpt><trkpt lat="42.82183392646568" lon="12.758639917138623"><ele>224.0</ele><time>2026-05-03T11:02:06.999Z</time></trkpt><trkpt lat="42.82158724082199" lon="12.758510327798923"><ele>224.5</ele><time>2026-05-03T11:02:07.999Z</time></trkpt><trkpt lat="42.82134326540799" lon="12.758389487037952"><ele>225.0</ele><time>2026-05-03T11:02:08.999Z</time></trkpt><trkpt lat="42.821098250939784" lon="12.758271644436403"><ele>225.5</ele><time>2026-05-03T11:02:09.999Z</time></trkpt><trkpt lat="42.820853548009346" lon="12.758160997886304"><ele>226.0</ele><time>2026-05-03T11:02:10.999Z</time></trkpt><trkpt lat="42.82061295525753" lon="12.758062137709397"><ele>226.0</ele><time>2026-05-03T11:02:11.999Z</time></trkpt><trkpt lat="42.82037109401219" lon="12.757975513056634"><ele>226.0</ele><time>2026-05-03T11:02:12.999Z</time></trkpt><trkpt lat="42.820132115598774" lon="12.757904759570298"><ele>226.0</ele><time>2026-05-03T11:02:13.999Z</time></trkpt><trkpt lat="42.81989158871093" lon="12.75784302566889"><ele>226.0</ele><time>2026-05-03T11:02:14.999Z</time></trkpt><trkpt lat="42.81964878440935" lon="12.757789161394136"><ele>226.0</ele><time>2026-05-03T11:02:15.999Z</time></trkpt><trkpt lat="42.81940466409551" lon="12.757740511809876"><ele>226.0</ele><time>2026-05-03T11:02:16.999Z</time></trkpt><trkpt lat="42.819160764523645" lon="12.757696640954984"><ele>227.0</ele><time>2026-05-03T11:02:17.999Z</time></trkpt><trkpt lat="42.81891710405468" lon="12.757659076052697"><ele>228.0</ele><time>2026-05-03T11:02:18.999Z</time></trkpt><trkpt lat="42.818667533025454" lon="12.757619504837487"><ele>228.0</ele><time>2026-05-03T11:02:19.999Z</time></trkpt><trkpt lat="42.81842332892234" lon="12.757590639880794"><ele>228.0</ele><time>2026-05-03T11:02:20.999Z</time></trkpt><trkpt lat="42.81817851351649" lon="12.7575704932765"><ele>228.0</ele><time>2026-05-03T11:02:21.999Z</time></trkpt><trkpt lat="42.817932010484434" lon="12.757556302914587"><ele>228.0</ele><time>2026-05-03T11:02:22.999Z</time></trkpt><trkpt lat="42.817686859611776" lon="12.757536609972904"><ele>228.0</ele><time>2026-05-03T11:02:23.999Z</time></trkpt><trkpt lat="42.817435236322545" lon="12.757515879046116"><ele>228.0</ele><time>2026-05-03T11:02:24.999Z</time></trkpt><trkpt lat="42.81717687064272" lon="12.75750182556453"><ele>228.0</ele><time>2026-05-03T11:02:25.999Z</time></trkpt><trkpt lat="42.81691448446512" lon="12.757498057424266"><ele>228.0</ele><time>2026-05-03T11:02:26.999Z</time></trkpt><trkpt lat="42.81664669923285" lon="12.757494901797005"><ele>228.5</ele><time>2026-05-03T11:02:27.999Z</time></trkpt><trkpt lat="42.816375111128856" lon="12.757490870712417"><ele>229.0</ele><time>2026-05-03T11:02:28.999Z</time></trkpt><trkpt lat="42.8160950289493" lon="12.757483368829629"><ele>230.0</ele><time>2026-05-03T11:02:30.001Z</time></trkpt><trkpt lat="42.81581080131028" lon="12.757474549317996"><ele>231.0</ele><time>2026-05-03T11:02:31.001Z</time></trkpt><trkpt lat="42.81552541147421" lon="12.757469147853012"><ele>231.0</ele><time>2026-05-03T11:02:32.001Z</time></trkpt><trkpt lat="42.815233746429804" lon="12.757468902956418"><ele>231.0</ele><time>2026-05-03T11:02:33.001Z</time></trkpt><trkpt lat="42.81494330087766" lon="12.757476102177986"><ele>231.0</ele><time>2026-05-03T11:02:34.001Z</time></trkpt><trkpt lat="42.81465157795394" lon="12.757485657056124"><ele>231.0</ele><time>2026-05-03T11:02:35Z</time></trkpt><trkpt lat="42.81435454226283" lon="12.757497860796763"><ele>231.0</ele><time>2026-05-03T11:02:36Z</time></trkpt><trkpt lat="42.81406139695707" lon="12.757510774734715"><ele>231.0</ele><time>2026-05-03T11:02:37Z</time></trkpt><trkpt lat="42.81376809801962" lon="12.757528763707082"><ele>231.0</ele><time>2026-05-03T11:02:38Z</time></trkpt><trkpt lat="42.81347484505936" lon="12.757548423242605"><ele>231.0</ele><time>2026-05-03T11:02:39Z</time></trkpt><trkpt lat="42.81318646679745" lon="12.757575860555786"><ele>231.0</ele><time>2026-05-03T11:02:40Z</time></trkpt><trkpt lat="42.81290262379181" lon="12.757602392361107"><ele>231.0</ele><time>2026-05-03T11:02:41Z</time></trkpt><trkpt lat="42.81262959810397" lon="12.757629660507792"><ele>232.5</ele><time>2026-05-03T11:02:42Z</time></trkpt><trkpt lat="42.81235886886129" lon="12.757660960453858"><ele>234.0</ele><time>2026-05-03T11:02:43Z</time></trkpt><trkpt lat="42.8120972716399" lon="12.75770145889896"><ele>234.5</ele><time>2026-05-03T11:02:44Z</time></trkpt><trkpt lat="42.8118366818978" lon="12.757747143300808"><ele>235.0</ele><time>2026-05-03T11:02:45Z</time></trkpt><trkpt lat="42.81157692154663" lon="12.757797739266872"><ele>236.0</ele><time>2026-05-03T11:02:46Z</time></trkpt><trkpt lat="42.811311848866865" lon="12.757856233976609"><ele>237.0</ele><time>2026-05-03T11:02:47Z</time></trkpt><trkpt lat="42.81104706980925" lon="12.757919915174824"><ele>238.5</ele><time>2026-05-03T11:02:48Z</time></trkpt><trkpt lat="42.8107900745424" lon="12.757989752274243"><ele>240.0</ele><time>2026-05-03T11:02:49Z</time></trkpt><trkpt lat="42.81053578426601" lon="12.758062558202905"><ele>240.0</ele><time>2026-05-03T11:02:50Z</time></trkpt><trkpt lat="42.81027831867013" lon="12.758145660264486"><ele>240.0</ele><time>2026-05-03T11:02:51Z</time></trkpt><trkpt lat="42.810027623276866" lon="12.75823148912483"><ele>241.5</ele><time>2026-05-03T11:02:52Z</time></trkpt><trkpt lat="42.809771727875294" lon="12.758326097262934"><ele>243.0</ele><time>2026-05-03T11:02:53Z</time></trkpt><trkpt lat="42.809512128656685" lon="12.758425736651729"><ele>243.5</ele><time>2026-05-03T11:02:54Z</time></trkpt><trkpt lat="42.809252544558035" lon="12.758527587873887"><ele>244.0</ele><time>2026-05-03T11:02:55Z</time></trkpt><trkpt lat="42.80899284145016" lon="12.75863688605594"><ele>245.5</ele><time>2026-05-03T11:02:56Z</time></trkpt><trkpt lat="42.808737952766556" lon="12.758746810997271"><ele>247.0</ele><time>2026-05-03T11:02:57Z</time></trkpt><trkpt lat="42.80848781902115" lon="12.758857021646984"><ele>247.5</ele><time>2026-05-03T11:02:58Z</time></trkpt><trkpt lat="42.80824162041776" lon="12.758967986221984"><ele>248.0</ele><time>2026-05-03T11:02:59Z</time></trkpt><trkpt lat="42.80799599466974" lon="12.759082263979108"><ele>248.0</ele><time>2026-05-03T11:03:00Z</time></trkpt><trkpt lat="42.8077496615417" lon="12.759195552063812"><ele>248.0</ele><time>2026-05-03T11:03:01Z</time></trkpt><trkpt lat="42.80750169789568" lon="12.759309044060394"><ele>250.0</ele><time>2026-05-03T11:03:02Z</time></trkpt><trkpt lat="42.80725269618624" lon="12.759419126843605"><ele>252.0</ele><time>2026-05-03T11:03:03Z</time></trkpt><trkpt lat="42.80700230501014" lon="12.759527085334124"><ele>253.5</ele><time>2026-05-03T11:03:04Z</time></trkpt><trkpt lat="42.806739570219484" lon="12.759637840157684"><ele>255.0</ele><time>2026-05-03T11:03:05Z</time></trkpt><trkpt lat="42.80649211273361" lon="12.75973817046933"><ele>255.0</ele><time>2026-05-03T11:03:06Z</time></trkpt><trkpt lat="42.80623018883502" lon="12.75983405725945"><ele>255.0</ele><time>2026-05-03T11:03:07Z</time></trkpt><trkpt lat="42.805967068452034" lon="12.759927787767523"><ele>256.0</ele><time>2026-05-03T11:03:08Z</time></trkpt><trkpt lat="42.80570424622231" lon="12.760011762991299"><ele>257.0</ele><time>2026-05-03T11:03:09Z</time></trkpt><trkpt lat="42.80543482208583" lon="12.760086245552822"><ele>257.0</ele><time>2026-05-03T11:03:10Z</time></trkpt><trkpt lat="42.80516825337306" lon="12.760147907220004"><ele>257.0</ele><time>2026-05-03T11:03:11Z</time></trkpt><trkpt lat="42.804898045247555" lon="12.760204504785822"><ele>259.0</ele><time>2026-05-03T11:03:12Z</time></trkpt><trkpt lat="42.80462460342841" lon="12.760255249591605"><ele>261.0</ele><time>2026-05-03T11:03:13Z</time></trkpt><trkpt lat="42.80435488048341" lon="12.760301931536528"><ele>262.5</ele><time>2026-05-03T11:03:14Z</time></trkpt><trkpt lat="42.80408307552396" lon="12.760345652989203"><ele>264.0</ele><time>2026-05-03T11:03:15Z</time></trkpt><trkpt lat="42.80381177230473" lon="12.760387427497394"><ele>264.0</ele><time>2026-05-03T11:03:16Z</time></trkpt><trkpt lat="42.80354086240845" lon="12.760433277528927"><ele>264.0</ele><time>2026-05-03T11:03:17Z</time></trkpt><trkpt lat="42.80326805189248" lon="12.760480299313361"><ele>265.0</ele><time>2026-05-03T11:03:18Z</time></trkpt><trkpt lat="42.8029927132273" lon="12.760535666690917"><ele>266.0</ele><time>2026-05-03T11:03:19Z</time></trkpt><trkpt lat="42.802708448148344" lon="12.76059799668314"><ele>267.0</ele><time>2026-05-03T11:03:20Z</time></trkpt><trkpt lat="42.802417487346034" lon="12.760667412999682"><ele>268.0</ele><time>2026-05-03T11:03:21Z</time></trkpt><trkpt lat="42.80213445396389" lon="12.760739728839742"><ele>268.0</ele><time>2026-05-03T11:03:22Z</time></trkpt><trkpt lat="42.80185261476891" lon="12.760819823615401"><ele>268.0</ele><time>2026-05-03T11:03:23Z</time></trkpt><trkpt lat="42.8015798277012" lon="12.760907701733299"><ele>269.0</ele><time>2026-05-03T11:03:24Z</time></trkpt><trkpt lat="42.80130520198249" lon="12.76100385982686"><ele>270.0</ele><time>2026-05-03T11:03:25Z</time></trkpt><trkpt lat="42.8010397235609" lon="12.761100700749356"><ele>271.0</ele><time>2026-05-03T11:03:26Z</time></trkpt><trkpt lat="42.80077654893642" lon="12.761192790162562"><ele>272.0</ele><time>2026-05-03T11:03:27Z</time></trkpt><trkpt lat="42.80052007632462" lon="12.761279792658176"><ele>272.0</ele><time>2026-05-03T11:03:28Z</time></trkpt><trkpt lat="42.80026492206389" lon="12.76136602976473"><ele>272.0</ele><time>2026-05-03T11:03:29Z</time></trkpt><trkpt lat="42.80001070076952" lon="12.76145287256261"><ele>271.0</ele><time>2026-05-03T11:03:30Z</time></trkpt><trkpt lat="42.79975244293302" lon="12.761536666258634"><ele>270.0</ele><time>2026-05-03T11:03:31Z</time></trkpt><trkpt lat="42.79949772941374" lon="12.761617043435617"><ele>270.0</ele><time>2026-05-03T11:03:32Z</time></trkpt><trkpt lat="42.79923766110152" lon="12.76170360146227"><ele>270.0</ele><time>2026-05-03T11:03:33Z</time></trkpt><trkpt lat="42.798984580279665" lon="12.76179201698732"><ele>271.5</ele><time>2026-05-03T11:03:34Z</time></trkpt><trkpt lat="42.798732780988395" lon="12.761888506476103"><ele>273.0</ele><time>2026-05-03T11:03:35Z</time></trkpt><trkpt lat="42.79848109492345" lon="12.76198578726225"><ele>275.0</ele><time>2026-05-03T11:03:36Z</time></trkpt><trkpt lat="42.798225409424276" lon="12.762089967895154"><ele>277.0</ele><time>2026-05-03T11:03:37Z</time></trkpt><trkpt lat="42.797968887255976" lon="12.762194613344413"><ele>277.0</ele><time>2026-05-03T11:03:38Z</time></trkpt><trkpt lat="42.79771717932721" lon="12.762297277352609"><ele>277.0</ele><time>2026-05-03T11:03:39Z</time></trkpt><trkpt lat="42.7974699359084" lon="12.762400273273926"><ele>279.0</ele><time>2026-05-03T11:03:40Z</time></trkpt><trkpt lat="42.7972268676279" lon="12.762501819652533"><ele>281.0</ele><time>2026-05-03T11:03:41Z</time></trkpt><trkpt lat="42.79698329920393" lon="12.762605962898919"><ele>282.0</ele><time>2026-05-03T11:03:42Z</time></trkpt><trkpt lat="42.796746619951136" lon="12.762699742435831"><ele>283.0</ele><time>2026-05-03T11:03:43Z</time></trkpt><trkpt lat="42.79649902371602" lon="12.762807609644677"><ele>283.0</ele><time>2026-05-03T11:03:44Z</time></trkpt><trkpt lat="42.79625790182567" lon="12.762908232077656"><ele>283.0</ele><time>2026-05-03T11:03:45Z</time></trkpt><trkpt lat="42.796018501843406" lon="12.763008929611528"><ele>281.5</ele><time>2026-05-03T11:03:46Z</time></trkpt><trkpt lat="42.79577860583906" lon="12.763107765982818"><ele>280.0</ele><time>2026-05-03T11:03:47Z</time></trkpt><trkpt lat="42.79554377167874" lon="12.7632074986338"><ele>280.0</ele><time>2026-05-03T11:03:48Z</time></trkpt><trkpt lat="42.79530543763599" lon="12.763307904650222"><ele>280.0</ele><time>2026-05-03T11:03:49Z</time></trkpt><trkpt lat="42.7950746953507" lon="12.763404789029702"><ele>280.5</ele><time>2026-05-03T11:03:50Z</time></trkpt><trkpt lat="42.794840827533285" lon="12.763501787300319"><ele>281.0</ele><time>2026-05-03T11:03:51Z</time></trkpt><trkpt lat="42.79461257900845" lon="12.763594756307873"><ele>282.0</ele><time>2026-05-03T11:03:52Z</time></trkpt><trkpt lat="42.79438580743738" lon="12.763687728072298"><ele>283.0</ele><time>2026-05-03T11:03:53Z</time></trkpt><trkpt lat="42.794158723142864" lon="12.763778399293908"><ele>283.5</ele><time>2026-05-03T11:03:54Z</time></trkpt><trkpt lat="42.793935392629876" lon="12.76387223880243"><ele>284.0</ele><time>2026-05-03T11:03:55Z</time></trkpt><trkpt lat="42.79371099138858" lon="12.76396532892396"><ele>284.0</ele><time>2026-05-03T11:03:56Z</time></trkpt><trkpt lat="42.793482516771526" lon="12.764061874088112"><ele>284.0</ele><time>2026-05-03T11:03:57Z</time></trkpt><trkpt lat="42.793245492821676" lon="12.764150843693367"><ele>284.0</ele><time>2026-05-03T11:03:58Z</time></trkpt><trkpt lat="42.793020968819896" lon="12.764247838524923"><ele>284.0</ele><time>2026-05-03T11:03:59Z</time></trkpt><trkpt lat="42.792784010669116" lon="12.764340444233516"><ele>286.5</ele><time>2026-05-03T11:04:00Z</time></trkpt><trkpt lat="42.79255435587323" lon="12.764426099408494"><ele>289.0</ele><time>2026-05-03T11:04:01Z</time></trkpt><trkpt lat="42.79232073030463" lon="12.76451671997883"><ele>289.0</ele><time>2026-05-03T11:04:02Z</time></trkpt><trkpt lat="42.79209100735883" lon="12.76460507580015"><ele>289.0</ele><time>2026-05-03T11:04:03Z</time></trkpt><trkpt lat="42.7918617904854" lon="12.764689406012607"><ele>289.5</ele><time>2026-05-03T11:04:04Z</time></trkpt><trkpt lat="42.79162964288205" lon="12.764777760144675"><ele>290.0</ele><time>2026-05-03T11:04:05Z</time></trkpt><trkpt lat="42.79139642714055" lon="12.76486898733286"><ele>290.0</ele><time>2026-05-03T11:04:05.999Z</time></trkpt><trkpt lat="42.791168985180605" lon="12.764958314870027"><ele>290.0</ele><time>2026-05-03T11:04:06.999Z</time></trkpt><trkpt lat="42.79094054388762" lon="12.765050591332875"><ele>289.5</ele><time>2026-05-03T11:04:07.999Z</time></trkpt><trkpt lat="42.79071209085526" lon="12.765141894679541"><ele>289.0</ele><time>2026-05-03T11:04:08.999Z</time></trkpt><trkpt lat="42.79048604761244" lon="12.765232087293448"><ele>289.0</ele><time>2026-05-03T11:04:09.999Z</time></trkpt><trkpt lat="42.79025947485618" lon="12.765322245223182"><ele>289.0</ele><time>2026-05-03T11:04:10.999Z</time></trkpt><trkpt lat="42.79002912999594" lon="12.765411091843138"><ele>288.5</ele><time>2026-05-03T11:04:11.999Z</time></trkpt><trkpt lat="42.789791903764176" lon="12.76549897038645"><ele>288.0</ele><time>2026-05-03T11:04:12.999Z</time></trkpt><trkpt lat="42.789556771593716" lon="12.765581951733578"><ele>286.5</ele><time>2026-05-03T11:04:13.999Z</time></trkpt><trkpt lat="42.78932650082148" lon="12.765668531326735"><ele>285.0</ele><time>2026-05-03T11:04:14.999Z</time></trkpt><trkpt lat="42.789092009538834" lon="12.765754355156133"><ele>285.0</ele><time>2026-05-03T11:04:15.999Z</time></trkpt><trkpt lat="42.788854276790616" lon="12.76583397378869"><ele>285.0</ele><time>2026-05-03T11:04:16.999Z</time></trkpt><trkpt lat="42.78861603146943" lon="12.765909125677764"><ele>285.0</ele><time>2026-05-03T11:04:17.999Z</time></trkpt><trkpt lat="42.78838314442911" lon="12.76599031923618"><ele>285.0</ele><time>2026-05-03T11:04:18.999Z</time></trkpt><trkpt lat="42.78816058032355" lon="12.766065265986645"><ele>285.0</ele><time>2026-05-03T11:04:19.999Z</time></trkpt><trkpt lat="42.78793315609461" lon="12.766123926056457"><ele>285.0</ele><time>2026-05-03T11:04:20.999Z</time></trkpt><trkpt lat="42.787710144343855" lon="12.766174552991897"><ele>284.6666666666667</ele><time>2026-05-03T11:04:21.999Z</time></trkpt><trkpt lat="42.78748890237278" lon="12.766226418753165"><ele>284.33333333333337</ele><time>2026-05-03T11:04:22.999Z</time></trkpt><trkpt lat="42.78727522999986" lon="12.766278841817407"><ele>284.0</ele><time>2026-05-03T11:04:23.999Z</time></trkpt><trkpt lat="42.78705650354269" lon="12.766329319893257"><ele>282.6666666666667</ele><time>2026-05-03T11:04:24.999Z</time></trkpt><trkpt lat="42.786839618641906" lon="12.766378713288931"><ele>281.3333333333333</ele><time>2026-05-03T11:04:25.999Z</time></trkpt><trkpt lat="42.78662415646547" lon="12.766423679582623"><ele>280.0</ele><time>2026-05-03T11:04:26.999Z</time></trkpt><trkpt lat="42.786407188223045" lon="12.76646089281269"><ele>280.0</ele><time>2026-05-03T11:04:27.999Z</time></trkpt><trkpt lat="42.78618727283797" lon="12.766495162100455"><ele>280.0</ele><time>2026-05-03T11:04:28.999Z</time></trkpt><trkpt lat="42.78597055032267" lon="12.766530785387875"><ele>280.0</ele><time>2026-05-03T11:04:29.999Z</time></trkpt><trkpt lat="42.785752500315056" lon="12.766564202036658"><ele>280.0</ele><time>2026-05-03T11:04:30.999Z</time></trkpt><trkpt lat="42.785531497649544" lon="12.766593803225756"><ele>280.0</ele><time>2026-05-03T11:04:31.999Z</time></trkpt><trkpt lat="42.785309895059626" lon="12.766621634994094"><ele>280.0</ele><time>2026-05-03T11:04:32.999Z</time></trkpt><trkpt lat="42.78508874013749" lon="12.766646071965749"><ele>278.3333333333333</ele><time>2026-05-03T11:04:33.999Z</time></trkpt><trkpt lat="42.78486708965175" lon="12.766662682316506"><ele>276.6666666666667</ele><time>2026-05-03T11:04:34.999Z</time></trkpt><trkpt lat="42.784644468150866" lon="12.766678712914596"><ele>275.0</ele><time>2026-05-03T11:04:36.001Z</time></trkpt><trkpt lat="42.78442131140526" lon="12.76668951848516"><ele>275.33333333333337</ele><time>2026-05-03T11:04:37.001Z</time></trkpt><trkpt lat="42.78420022391785" lon="12.76670761564917"><ele>275.6666666666667</ele><time>2026-05-03T11:04:38.001Z</time></trkpt><trkpt lat="42.783979152836714" lon="12.766732824152195"><ele>276.0</ele><time>2026-05-03T11:04:39.001Z</time></trkpt><trkpt lat="42.783758971720324" lon="12.766755204942035"><ele>276.0</ele><time>2026-05-03T11:04:40.001Z</time></trkpt><trkpt lat="42.78354122537086" lon="12.766775836976068"><ele>276.0</ele><time>2026-05-03T11:04:41.001Z</time></trkpt><trkpt lat="42.783323459538416" lon="12.766795251446979"><ele>276.0</ele><time>2026-05-03T11:04:42.001Z</time></trkpt><trkpt lat="42.78310809779443" lon="12.766810403035304"><ele>276.3333333333333</ele><time>2026-05-03T11:04:43.001Z</time></trkpt><trkpt lat="42.78289286800645" lon="12.76681885357785"><ele>276.66666666666663</ele><time>2026-05-03T11:04:44.001Z</time></trkpt><trkpt lat="42.78267765346694" lon="12.76682891088565"><ele>277.0</ele><time>2026-05-03T11:04:45.001Z</time></trkpt><trkpt lat="42.7824656617846" lon="12.766843360347298"><ele>276.66666666666663</ele><time>2026-05-03T11:04:46.001Z</time></trkpt><trkpt lat="42.782253535991416" lon="12.766864340003837"><ele>276.3333333333333</ele><time>2026-05-03T11:04:47Z</time></trkpt><trkpt lat="42.78204141007128" lon="12.766889512622761"><ele>276.0</ele><time>2026-05-03T11:04:48Z</time></trkpt><trkpt lat="42.78183330743944" lon="12.766918583681203"><ele>275.3333333333333</ele><time>2026-05-03T11:04:49Z</time></trkpt><trkpt lat="42.78162765244544" lon="12.766961502976065"><ele>274.66666666666663</ele><time>2026-05-03T11:04:50Z</time></trkpt><trkpt lat="42.78141947503445" lon="12.766994856460236"><ele>274.0</ele><time>2026-05-03T11:04:51Z</time></trkpt><trkpt lat="42.78120711873452" lon="12.767011384817046"><ele>273.66666666666663</ele><time>2026-05-03T11:04:52Z</time></trkpt><trkpt lat="42.78100230229472" lon="12.76710455390534"><ele>273.3333333333333</ele><time>2026-05-03T11:04:53Z</time></trkpt><trkpt lat="42.7808030870232" lon="12.76717311607296"><ele>273.0</ele><time>2026-05-03T11:04:54Z</time></trkpt><trkpt lat="42.780601327778285" lon="12.767254939047056"><ele>273.0</ele><time>2026-05-03T11:04:55Z</time></trkpt><trkpt lat="42.78039889168698" lon="12.767348702358468"><ele>273.0</ele><time>2026-05-03T11:04:56Z</time></trkpt><trkpt lat="42.78019315601634" lon="12.767446722049673"><ele>273.0</ele><time>2026-05-03T11:04:57Z</time></trkpt><trkpt lat="42.779990336577136" lon="12.767554674662364"><ele>273.0</ele><time>2026-05-03T11:04:58Z</time></trkpt><trkpt lat="42.77979480407981" lon="12.767677804507569"><ele>273.0</ele><time>2026-05-03T11:04:59Z</time></trkpt><trkpt lat="42.77959702126938" lon="12.767798583355525"><ele>273.0</ele><time>2026-05-03T11:05:00Z</time></trkpt><trkpt lat="42.779403232804256" lon="12.767933583666776"><ele>274.0</ele><time>2026-05-03T11:05:01Z</time></trkpt><trkpt lat="42.77921152995337" lon="12.768073028563098"><ele>275.0</ele><time>2026-05-03T11:05:02Z</time></trkpt><trkpt lat="42.77902837726974" lon="12.768235067920118"><ele>276.0</ele><time>2026-05-03T11:05:03Z</time></trkpt><trkpt lat="42.77884137588654" lon="12.768395265140528"><ele>276.3333333333333</ele><time>2026-05-03T11:05:04Z</time></trkpt><trkpt lat="42.77866019220383" lon="12.768565595857977"><ele>276.66666666666663</ele><time>2026-05-03T11:05:05Z</time></trkpt><trkpt lat="42.77847879216745" lon="12.768744273682831"><ele>277.0</ele><time>2026-05-03T11:05:06Z</time></trkpt><trkpt lat="42.77829568124952" lon="12.768916081011561"><ele>277.3333333333333</ele><time>2026-05-03T11:05:07Z</time></trkpt><trkpt lat="42.77811467469718" lon="12.769088367024226"><ele>277.6666666666667</ele><time>2026-05-03T11:05:08Z</time></trkpt><trkpt lat="42.77793113849075" lon="12.769259523349303"><ele>278.0</ele><time>2026-05-03T11:05:09Z</time></trkpt><trkpt lat="42.77774164527317" lon="12.76943226538388"><ele>278.0</ele><time>2026-05-03T11:05:10Z</time></trkpt><trkpt lat="42.7775499041969" lon="12.769595596365521"><ele>278.0</ele><time>2026-05-03T11:05:11Z</time></trkpt><trkpt lat="42.77735325484332" lon="12.769752361121613"><ele>278.0</ele><time>2026-05-03T11:05:12Z</time></trkpt><trkpt lat="42.777159729997386" lon="12.769893500213469"><ele>278.0</ele><time>2026-05-03T11:05:13Z</time></trkpt><trkpt lat="42.7769584091625" lon="12.770030697879061"><ele>278.0</ele><time>2026-05-03T11:05:14Z</time></trkpt><trkpt lat="42.776754855359506" lon="12.770163234127972"><ele>279.0</ele><time>2026-05-03T11:05:15Z</time></trkpt><trkpt lat="42.77654981954917" lon="12.770284281385509"><ele>280.0</ele><time>2026-05-03T11:05:16Z</time></trkpt><trkpt lat="42.776338893193355" lon="12.770391769304908"><ele>281.0</ele><time>2026-05-03T11:05:17Z</time></trkpt><trkpt lat="42.77612370417916" lon="12.77049539649023"><ele>281.33333333333337</ele><time>2026-05-03T11:05:18Z</time></trkpt><trkpt lat="42.77590899955726" lon="12.7705825498194"><ele>281.6666666666667</ele><time>2026-05-03T11:05:19Z</time></trkpt><trkpt lat="42.775691349138505" lon="12.770662175273015"><ele>282.0</ele><time>2026-05-03T11:05:20Z</time></trkpt><trkpt lat="42.77546790607096" lon="12.770737049297741"><ele>282.0</ele><time>2026-05-03T11:05:21Z</time></trkpt><trkpt lat="42.775242559497585" lon="12.770816462127867"><ele>282.0</ele><time>2026-05-03T11:05:22Z</time></trkpt><trkpt lat="42.77502308741166" lon="12.770894153174291"><ele>282.0</ele><time>2026-05-03T11:05:23Z</time></trkpt><trkpt lat="42.77478769862665" lon="12.770988344293906"><ele>282.0</ele><time>2026-05-03T11:05:24Z</time></trkpt><trkpt lat="42.77453147171835" lon="12.771075254675994"><ele>282.0</ele><time>2026-05-03T11:05:25Z</time></trkpt><trkpt lat="42.77434457581817" lon="12.771125769006566"><ele>282.0</ele><time>2026-05-03T11:05:26Z</time></trkpt><trkpt lat="42.77410831480896" lon="12.771049385649839"><ele>282.0</ele><time>2026-05-03T11:05:27Z</time></trkpt><trkpt lat="42.773869007842" lon="12.770931315748289"><ele>280.6666666666667</ele><time>2026-05-03T11:05:28Z</time></trkpt><trkpt lat="42.77365702875138" lon="12.770884721916072"><ele>279.33333333333337</ele><time>2026-05-03T11:05:29Z</time></trkpt><trkpt lat="42.77343571672149" lon="12.770845467467668"><ele>278.0</ele><time>2026-05-03T11:05:30Z</time></trkpt><trkpt lat="42.77321178213963" lon="12.770802328071323"><ele>278.0</ele><time>2026-05-03T11:05:31Z</time></trkpt><trkpt lat="42.77298828270587" lon="12.770753201681313"><ele>278.0</ele><time>2026-05-03T11:05:32Z</time></trkpt><trkpt lat="42.772783410624335" lon="12.770711960850202"><ele>278.0</ele><time>2026-05-03T11:05:33Z</time></trkpt><trkpt lat="42.77255396805318" lon="12.770643939240026"><ele>277.0</ele><time>2026-05-03T11:05:34Z</time></trkpt><trkpt lat="42.772330719764014" lon="12.770583983668994"><ele>276.0</ele><time>2026-05-03T11:05:35Z</time></trkpt><trkpt lat="42.77211098914852" lon="12.770530597395558"><ele>276.0</ele><time>2026-05-03T11:05:36Z</time></trkpt><trkpt lat="42.771893056816175" lon="12.770482530876883"><ele>276.0</ele><time>2026-05-03T11:05:37Z</time></trkpt><trkpt lat="42.77167851029405" lon="12.770426511241268"><ele>276.0</ele><time>2026-05-03T11:05:38Z</time></trkpt><trkpt lat="42.77146678197161" lon="12.770372502309513"><ele>275.3333333333333</ele><time>2026-05-03T11:05:39Z</time></trkpt><trkpt lat="42.771257651446746" lon="12.770318628792339"><ele>274.66666666666663</ele><time>2026-05-03T11:05:40Z</time></trkpt><trkpt lat="42.77104897912087" lon="12.7702631564341"><ele>274.0</ele><time>2026-05-03T11:05:41Z</time></trkpt><trkpt lat="42.77083686642823" lon="12.770202455198492"><ele>273.66666666666663</ele><time>2026-05-03T11:05:42Z</time></trkpt><trkpt lat="42.77062483799206" lon="12.770142764457747"><ele>273.3333333333333</ele><time>2026-05-03T11:05:43Z</time></trkpt><trkpt lat="42.77042071129265" lon="12.770081034283866"><ele>273.0</ele><time>2026-05-03T11:05:44Z</time></trkpt><trkpt lat="42.77022837562033" lon="12.770022719572284"><ele>272.6666666666667</ele><time>2026-05-03T11:05:45Z</time></trkpt><trkpt lat="42.770048146258866" lon="12.769969607785224"><ele>272.33333333333337</ele><time>2026-05-03T11:05:46Z</time></trkpt><trkpt lat="42.76987485494367" lon="12.769911522704671"><ele>272.0</ele><time>2026-05-03T11:05:47Z</time></trkpt><trkpt lat="42.769703264591435" lon="12.769854233876563"><ele>272.0</ele><time>2026-05-03T11:05:48Z</time></trkpt><trkpt lat="42.76954066571451" lon="12.769796259342398"><ele>272.0</ele><time>2026-05-03T11:05:49Z</time></trkpt><trkpt lat="42.76937943535022" lon="12.769738896993168"><ele>272.0</ele><time>2026-05-03T11:05:50Z</time></trkpt><trkpt lat="42.769227279242706" lon="12.769691576878014"><ele>273.6666666666667</ele><time>2026-05-03T11:05:51Z</time></trkpt><trkpt lat="42.76907493760956" lon="12.769642163237869"><ele>275.3333333333333</ele><time>2026-05-03T11:05:52Z</time></trkpt><trkpt lat="42.768919846639925" lon="12.769592399503406"><ele>277.0</ele><time>2026-05-03T11:05:53Z</time></trkpt><trkpt lat="42.768773471480095" lon="12.769535340709583"><ele>277.0</ele><time>2026-05-03T11:05:54Z</time></trkpt><trkpt lat="42.7686324414283" lon="12.769481379637268"><ele>277.0</ele><time>2026-05-03T11:05:55Z</time></trkpt><trkpt lat="42.768492552333726" lon="12.769436450503973"><ele>277.0</ele><time>2026-05-03T11:05:56Z</time></trkpt><trkpt lat="42.7683515614564" lon="12.769391184774213"><ele>277.0</ele><time>2026-05-03T11:05:57Z</time></trkpt><trkpt lat="42.768217241130216" lon="12.769337964975403"><ele>276.75</ele><time>2026-05-03T11:05:58Z</time></trkpt><trkpt lat="42.76808607330617" lon="12.769280981754447"><ele>276.5</ele><time>2026-05-03T11:05:59Z</time></trkpt><trkpt lat="42.76795188276086" lon="12.769232506067222"><ele>276.25</ele><time>2026-05-03T11:06:00Z</time></trkpt><trkpt lat="42.76781809449248" lon="12.769183282746987"><ele>276.0</ele><time>2026-05-03T11:06:01Z</time></trkpt><trkpt lat="42.76768486618101" lon="12.769128445522833"><ele>276.75</ele><time>2026-05-03T11:06:02Z</time></trkpt><trkpt lat="42.76755850172735" lon="12.769066492365344"><ele>277.5</ele><time>2026-05-03T11:06:03Z</time></trkpt><trkpt lat="42.76743651982245" lon="12.769014009508409"><ele>278.25</ele><time>2026-05-03T11:06:04Z</time></trkpt><trkpt lat="42.767306742965545" lon="12.768965270326513"><ele>279.0</ele><time>2026-05-03T11:06:05Z</time></trkpt><trkpt lat="42.76718349926217" lon="12.76891913284861"><ele>279.0</ele><time>2026-05-03T11:06:06Z</time></trkpt><trkpt lat="42.767055640967484" lon="12.76886853450652"><ele>279.0</ele><time>2026-05-03T11:06:07Z</time></trkpt><trkpt lat="42.766931640572004" lon="12.768811702334267"><ele>279.0</ele><time>2026-05-03T11:06:08Z</time></trkpt><trkpt lat="42.76680700261423" lon="12.768750156271983"><ele>279.0</ele><time>2026-05-03T11:06:09Z</time></trkpt><trkpt lat="42.76668014576405" lon="12.76869121140085"><ele>278.75</ele><time>2026-05-03T11:06:09.999Z</time></trkpt><trkpt lat="42.76655323080257" lon="12.768623601232314"><ele>278.5</ele><time>2026-05-03T11:06:10.999Z</time></trkpt><trkpt lat="42.766427909031606" lon="12.768549518351609"><ele>278.25</ele><time>2026-05-03T11:06:11.999Z</time></trkpt><trkpt lat="42.76630173684254" lon="12.768473874292205"><ele>278.0</ele><time>2026-05-03T11:06:12.999Z</time></trkpt><trkpt lat="42.76617841527886" lon="12.768384902389514"><ele>278.0</ele><time>2026-05-03T11:06:13.999Z</time></trkpt><trkpt lat="42.76605401702538" lon="12.76829042713548"><ele>278.0</ele><time>2026-05-03T11:06:14.999Z</time></trkpt><trkpt lat="42.76593140225561" lon="12.768200843568467"><ele>278.0</ele><time>2026-05-03T11:06:15.999Z</time></trkpt><trkpt lat="42.76581082248837" lon="12.768098519828667"><ele>278.0</ele><time>2026-05-03T11:06:16.999Z</time></trkpt><trkpt lat="42.76569091021573" lon="12.767988173701957"><ele>278.25</ele><time>2026-05-03T11:06:17.999Z</time></trkpt><trkpt lat="42.765570870889384" lon="12.76787283336424"><ele>278.5</ele><time>2026-05-03T11:06:18.999Z</time></trkpt><trkpt lat="42.765461359123336" lon="12.767753315515783"><ele>278.75</ele><time>2026-05-03T11:06:19.999Z</time></trkpt><trkpt lat="42.76534513986363" lon="12.767629385201753"><ele>279.0</ele><time>2026-05-03T11:06:20.999Z</time></trkpt><trkpt lat="42.76522924327417" lon="12.767499642789364"><ele>279.6666666666667</ele><time>2026-05-03T11:06:21.999Z</time></trkpt><trkpt lat="42.76512140729546" lon="12.767363056195562"><ele>280.33333333333337</ele><time>2026-05-03T11:06:22.999Z</time></trkpt><trkpt lat="42.765009211539784" lon="12.7672134334514"><ele>281.0</ele><time>2026-05-03T11:06:23.999Z</time></trkpt><trkpt lat="42.764903764716856" lon="12.767058094719692"><ele>281.0</ele><time>2026-05-03T11:06:24.999Z</time></trkpt><trkpt lat="42.764804796781405" lon="12.766896329371926"><ele>281.0</ele><time>2026-05-03T11:06:25.999Z</time></trkpt><trkpt lat="42.764701740588414" lon="12.766722976472934"><ele>281.0</ele><time>2026-05-03T11:06:26.999Z</time></trkpt><trkpt lat="42.764610704913764" lon="12.76655432187587"><ele>280.6666666666667</ele><time>2026-05-03T11:06:27.999Z</time></trkpt><trkpt lat="42.764524353670645" lon="12.766372804684812"><ele>280.3333333333333</ele><time>2026-05-03T11:06:28.999Z</time></trkpt><trkpt lat="42.76443480940769" lon="12.766193148511778"><ele>280.0</ele><time>2026-05-03T11:06:29.999Z</time></trkpt><trkpt lat="42.76434522541433" lon="12.76599603531888"><ele>281.0</ele><time>2026-05-03T11:06:30.999Z</time></trkpt><trkpt lat="42.7642681960026" lon="12.765806880021191"><ele>282.0</ele><time>2026-05-03T11:06:31.999Z</time></trkpt><trkpt lat="42.764195894848115" lon="12.765604577264648"><ele>283.0</ele><time>2026-05-03T11:06:32.999Z</time></trkpt><trkpt lat="42.764124175927265" lon="12.765406715699998"><ele>282.0</ele><time>2026-05-03T11:06:33.999Z</time></trkpt><trkpt lat="42.764066230243934" lon="12.765184607209072"><ele>281.0</ele><time>2026-05-03T11:06:34.999Z</time></trkpt><trkpt lat="42.76400729478143" lon="12.764980808347712"><ele>280.0</ele><time>2026-05-03T11:06:35.999Z</time></trkpt><trkpt lat="42.76394732990011" lon="12.764754301088988"><ele>280.0</ele><time>2026-05-03T11:06:36.999Z</time></trkpt><trkpt lat="42.76389448428958" lon="12.764532767636029"><ele>280.0</ele><time>2026-05-03T11:06:37.999Z</time></trkpt><trkpt lat="42.76383699461773" lon="12.764311411312542"><ele>280.0</ele><time>2026-05-03T11:06:38.999Z</time></trkpt><trkpt lat="42.763784302654855" lon="12.764075082588114"><ele>279.3333333333333</ele><time>2026-05-03T11:06:39.999Z</time></trkpt><trkpt lat="42.76373683620612" lon="12.763849932293239"><ele>278.6666666666667</ele><time>2026-05-03T11:06:40.999Z</time></trkpt><trkpt lat="42.76367714306266" lon="12.763614360912122"><ele>278.0</ele><time>2026-05-03T11:06:42Z</time></trkpt><trkpt lat="42.763619509773136" lon="12.763369564686949"><ele>277.6666666666667</ele><time>2026-05-03T11:06:43Z</time></trkpt><trkpt lat="42.76357117949678" lon="12.763126283962865"><ele>277.3333333333333</ele><time>2026-05-03T11:06:44Z</time></trkpt><trkpt lat="42.763511516146195" lon="12.762880639288928"><ele>277.0</ele><time>2026-05-03T11:06:45Z</time></trkpt><trkpt lat="42.76344743928709" lon="12.762632061117646"><ele>278.3333333333333</ele><time>2026-05-03T11:06:46Z</time></trkpt><trkpt lat="42.7633736129541" lon="12.762385775499219"><ele>279.6666666666667</ele><time>2026-05-03T11:06:47Z</time></trkpt><trkpt lat="42.7632951997601" lon="12.762141578103071"><ele>281.0</ele><time>2026-05-03T11:06:48Z</time></trkpt><trkpt lat="42.76320381805577" lon="12.761898999062637"><ele>280.0</ele><time>2026-05-03T11:06:49Z</time></trkpt><trkpt lat="42.76310469524238" lon="12.761663204691429"><ele>279.0</ele><time>2026-05-03T11:06:50Z</time></trkpt><trkpt lat="42.762999940213135" lon="12.761433014354848"><ele>278.0</ele><time>2026-05-03T11:06:51Z</time></trkpt><trkpt lat="42.76289336977141" lon="12.761206314961795"><ele>277.6666666666667</ele><time>2026-05-03T11:06:52Z</time></trkpt><trkpt lat="42.762773932896444" lon="12.760990783182997"><ele>277.3333333333333</ele><time>2026-05-03T11:06:53Z</time></trkpt><trkpt lat="42.76264887844323" lon="12.760785272611285"><ele>277.0</ele><time>2026-05-03T11:06:54Z</time></trkpt><trkpt lat="42.76251544715827" lon="12.760590672179458"><ele>278.0</ele><time>2026-05-03T11:06:55Z</time></trkpt><trkpt lat="42.76238605081605" lon="12.76040341075802"><ele>279.0</ele><time>2026-05-03T11:06:56Z</time></trkpt><trkpt lat="42.762260893444086" lon="12.760211762691693"><ele>280.0</ele><time>2026-05-03T11:06:57Z</time></trkpt><trkpt lat="42.76213641348147" lon="12.760019689619547"><ele>280.0</ele><time>2026-05-03T11:06:58Z</time></trkpt><trkpt lat="42.76200837215282" lon="12.759830691602577"><ele>280.0</ele><time>2026-05-03T11:06:59Z</time></trkpt><trkpt lat="42.76187872492779" lon="12.759641581708475"><ele>280.0</ele><time>2026-05-03T11:07:00Z</time></trkpt><trkpt lat="42.76175459330075" lon="12.759447958182646"><ele>281.0</ele><time>2026-05-03T11:07:01Z</time></trkpt><trkpt lat="42.76162345223779" lon="12.759252687183857"><ele>282.0</ele><time>2026-05-03T11:07:02Z</time></trkpt><trkpt lat="42.761491231879326" lon="12.759055379519188"><ele>283.0</ele><time>2026-05-03T11:07:03Z</time></trkpt><trkpt lat="42.76135350809872" lon="12.758859668695838"><ele>283.0</ele><time>2026-05-03T11:07:04Z</time></trkpt><trkpt lat="42.76121484622074" lon="12.758664512256193"><ele>283.0</ele><time>2026-05-03T11:07:05Z</time></trkpt><trkpt lat="42.76106942563258" lon="12.75847169953238"><ele>283.0</ele><time>2026-05-03T11:07:06Z</time></trkpt><trkpt lat="42.760920184993644" lon="12.758282621263891"><ele>285.0</ele><time>2026-05-03T11:07:07Z</time></trkpt><trkpt lat="42.760767097491254" lon="12.758097714311184"><ele>287.0</ele><time>2026-05-03T11:07:08Z</time></trkpt><trkpt lat="42.76060974378166" lon="12.75791951443456"><ele>289.0</ele><time>2026-05-03T11:07:09Z</time></trkpt><trkpt lat="42.76044234444644" lon="12.757749293090807"><ele>289.0</ele><time>2026-05-03T11:07:10Z</time></trkpt><trkpt lat="42.76027585471642" lon="12.757587994872951"><ele>289.0</ele><time>2026-05-03T11:07:11Z</time></trkpt><trkpt lat="42.76011131636645" lon="12.757433593146423"><ele>289.0</ele><time>2026-05-03T11:07:12Z</time></trkpt><trkpt lat="42.759939406200516" lon="12.757287276037841"><ele>289.0</ele><time>2026-05-03T11:07:13Z</time></trkpt><trkpt lat="42.75976771316912" lon="12.757147418811595"><ele>289.0</ele><time>2026-05-03T11:07:14Z</time></trkpt><trkpt lat="42.75959373723653" lon="12.75701128516147"><ele>289.0</ele><time>2026-05-03T11:07:15Z</time></trkpt><trkpt lat="42.7594288744462" lon="12.756872110067224"><ele>288.3333333333333</ele><time>2026-05-03T11:07:16Z</time></trkpt><trkpt lat="42.75926328418325" lon="12.756736902162931"><ele>287.6666666666667</ele><time>2026-05-03T11:07:17Z</time></trkpt><trkpt lat="42.75909970425787" lon="12.756605494056897"><ele>287.0</ele><time>2026-05-03T11:07:18Z</time></trkpt><trkpt lat="42.758939971523006" lon="12.75648486388676"><ele>287.0</ele><time>2026-05-03T11:07:19Z</time></trkpt><trkpt lat="42.758776909235685" lon="12.756357905461615"><ele>287.0</ele><time>2026-05-03T11:07:20Z</time></trkpt><trkpt lat="42.758617873330465" lon="12.756230625792725"><ele>287.0</ele><time>2026-05-03T11:07:21Z</time></trkpt><trkpt lat="42.758468642371966" lon="12.756108607744869"><ele>286.6666666666667</ele><time>2026-05-03T11:07:22Z</time></trkpt><trkpt lat="42.75832245851334" lon="12.755993078931024"><ele>286.3333333333333</ele><time>2026-05-03T11:07:23Z</time></trkpt><trkpt lat="42.758173505513845" lon="12.75587409966365"><ele>286.0</ele><time>2026-05-03T11:07:24Z</time></trkpt><trkpt lat="42.75802685891957" lon="12.755761465800637"><ele>286.0</ele><time>2026-05-03T11:07:25Z</time></trkpt><trkpt lat="42.75787207237344" lon="12.755639083917144"><ele>286.0</ele><time>2026-05-03T11:07:26Z</time></trkpt><trkpt lat="42.75771781523302" lon="12.755518468680513"><ele>286.0</ele><time>2026-05-03T11:07:27Z</time></trkpt><trkpt lat="42.75755696326284" lon="12.755393079283683"><ele>286.0</ele><time>2026-05-03T11:07:28Z</time></trkpt><trkpt lat="42.7573943303541" lon="12.755265238005977"><ele>286.0</ele><time>2026-05-03T11:07:29Z</time></trkpt><trkpt lat="42.757226755650585" lon="12.755131681321643"><ele>286.0</ele><time>2026-05-03T11:07:30Z</time></trkpt><trkpt lat="42.75706015278366" lon="12.754999902124796"><ele>286.0</ele><time>2026-05-03T11:07:31Z</time></trkpt><trkpt lat="42.756885280224814" lon="12.7548629366931"><ele>286.0</ele><time>2026-05-03T11:07:32Z</time></trkpt><trkpt lat="42.756700448724025" lon="12.754721417872874"><ele>286.0</ele><time>2026-05-03T11:07:33Z</time></trkpt><trkpt lat="42.75652009579085" lon="12.754567929674955"><ele>287.0</ele><time>2026-05-03T11:07:34Z</time></trkpt><trkpt lat="42.75633437065883" lon="12.754431269551471"><ele>288.0</ele><time>2026-05-03T11:07:35Z</time></trkpt><trkpt lat="42.75615120279246" lon="12.754284024653295"><ele>289.0</ele><time>2026-05-03T11:07:36Z</time></trkpt><trkpt lat="42.75597063011272" lon="12.754142055615125"><ele>291.0</ele><time>2026-05-03T11:07:37Z</time></trkpt><trkpt lat="42.75578629841515" lon="12.753993165422074"><ele>293.0</ele><time>2026-05-03T11:07:38Z</time></trkpt><trkpt lat="42.75560595668429" lon="12.753855549202408"><ele>295.0</ele><time>2026-05-03T11:07:39Z</time></trkpt><trkpt lat="42.755431450589676" lon="12.7537131417222"><ele>295.0</ele><time>2026-05-03T11:07:40Z</time></trkpt><trkpt lat="42.755254877870904" lon="12.753573155950008"><ele>295.0</ele><time>2026-05-03T11:07:41Z</time></trkpt><trkpt lat="42.75508350667816" lon="12.753418297199227"><ele>295.0</ele><time>2026-05-03T11:07:42Z</time></trkpt><trkpt lat="42.75491326140885" lon="12.75326801975167"><ele>294.3333333333333</ele><time>2026-05-03T11:07:43Z</time></trkpt><trkpt lat="42.754739685643166" lon="12.753112792910105"><ele>293.6666666666667</ele><time>2026-05-03T11:07:44Z</time></trkpt><trkpt lat="42.75457130332969" lon="12.752955463204728"><ele>293.0</ele><time>2026-05-03T11:07:45Z</time></trkpt><trkpt lat="42.75440570937258" lon="12.752790159921068"><ele>293.33333333333337</ele><time>2026-05-03T11:07:46Z</time></trkpt><trkpt lat="42.7542414980753" lon="12.752628183978311"><ele>293.6666666666667</ele><time>2026-05-03T11:07:47Z</time></trkpt><trkpt lat="42.7540756119764" lon="12.752461557827962"><ele>294.0</ele><time>2026-05-03T11:07:48Z</time></trkpt><trkpt lat="42.75391276504712" lon="12.752288272590235"><ele>294.0</ele><time>2026-05-03T11:07:49Z</time></trkpt><trkpt lat="42.7537492412979" lon="12.752112682098932"><ele>294.0</ele><time>2026-05-03T11:07:50Z</time></trkpt><trkpt lat="42.753587231786305" lon="12.75193925458373"><ele>294.0</ele><time>2026-05-03T11:07:51Z</time></trkpt><trkpt lat="42.753425652853096" lon="12.751763497152638"><ele>294.6666666666667</ele><time>2026-05-03T11:07:52Z</time></trkpt><trkpt lat="42.753260804745345" lon="12.75159035843529"><ele>295.33333333333337</ele><time>2026-05-03T11:07:53Z</time></trkpt><trkpt lat="42.753091478901126" lon="12.751416226545683"><ele>296.0</ele><time>2026-05-03T11:07:54Z</time></trkpt><trkpt lat="42.75291966091513" lon="12.751242449245103"><ele>296.0</ele><time>2026-05-03T11:07:55Z</time></trkpt><trkpt lat="42.752748094388814" lon="12.751062608061273"><ele>296.0</ele><time>2026-05-03T11:07:56Z</time></trkpt><trkpt lat="42.752574093862194" lon="12.750881670618721"><ele>296.0</ele><time>2026-05-03T11:07:57Z</time></trkpt><trkpt lat="42.752399157685716" lon="12.750699858172934"><ele>296.0</ele><time>2026-05-03T11:07:58Z</time></trkpt><trkpt lat="42.7522243388859" lon="12.75051339129849"><ele>296.0</ele><time>2026-05-03T11:07:59Z</time></trkpt><trkpt lat="42.752050480726936" lon="12.750333522107558"><ele>296.0</ele><time>2026-05-03T11:08:00Z</time></trkpt><trkpt lat="42.75187664989742" lon="12.750152178817334"><ele>296.33333333333337</ele><time>2026-05-03T11:08:01Z</time></trkpt><trkpt lat="42.75170593130911" lon="12.7499690199226"><ele>296.6666666666667</ele><time>2026-05-03T11:08:02Z</time></trkpt><trkpt lat="42.75153284028458" lon="12.749785979565752"><ele>297.0</ele><time>2026-05-03T11:08:03Z</time></trkpt><trkpt lat="42.75136017107825" lon="12.749605599756753"><ele>297.0</ele><time>2026-05-03T11:08:04Z</time></trkpt><trkpt lat="42.75119003841509" lon="12.749428987765143"><ele>297.0</ele><time>2026-05-03T11:08:05Z</time></trkpt><trkpt lat="42.751024921866225" lon="12.749242813798231"><ele>297.0</ele><time>2026-05-03T11:08:05.999Z</time></trkpt><trkpt lat="42.75085408804187" lon="12.749073477474955"><ele>297.6666666666667</ele><time>2026-05-03T11:08:06.999Z</time></trkpt><trkpt lat="42.75068588615474" lon="12.748901391095211"><ele>298.33333333333337</ele><time>2026-05-03T11:08:07.999Z</time></trkpt><trkpt lat="42.75051710475587" lon="12.74872270693126"><ele>299.0</ele><time>2026-05-03T11:08:08.999Z</time></trkpt><trkpt lat="42.75034929873663" lon="12.748551138921757"><ele>301.0</ele><time>2026-05-03T11:08:09.999Z</time></trkpt><trkpt lat="42.75018076554593" lon="12.748381007775103"><ele>303.0</ele><time>2026-05-03T11:08:10.999Z</time></trkpt><trkpt lat="42.75001346077616" lon="12.748211114402157"><ele>305.0</ele><time>2026-05-03T11:08:11.999Z</time></trkpt><trkpt lat="42.749843935966354" lon="12.748034690173673"><ele>305.0</ele><time>2026-05-03T11:08:12.999Z</time></trkpt><trkpt lat="42.749681909248544" lon="12.747863844752414"><ele>305.0</ele><time>2026-05-03T11:08:13.999Z</time></trkpt><trkpt lat="42.74951566330978" lon="12.747689048082467"><ele>305.0</ele><time>2026-05-03T11:08:14.999Z</time></trkpt><trkpt lat="42.749348946207945" lon="12.74751327821691"><ele>306.6666666666667</ele><time>2026-05-03T11:08:15.999Z</time></trkpt><trkpt lat="42.74918208085009" lon="12.747330422073102"><ele>308.3333333333333</ele><time>2026-05-03T11:08:16.999Z</time></trkpt><trkpt lat="42.74901688495838" lon="12.747147097145115"><ele>310.0</ele><time>2026-05-03T11:08:17.999Z</time></trkpt><trkpt lat="42.74885154012584" lon="12.746971090634474"><ele>309.66666666666663</ele><time>2026-05-03T11:08:18.999Z</time></trkpt><trkpt lat="42.748680952377754" lon="12.74679338348261"><ele>309.3333333333333</ele><time>2026-05-03T11:08:19.999Z</time></trkpt><trkpt lat="42.74850725698811" lon="12.746613686424787"><ele>309.0</ele><time>2026-05-03T11:08:20.999Z</time></trkpt><trkpt lat="42.74834187237961" lon="12.746440463106394"><ele>309.6666666666667</ele><time>2026-05-03T11:08:21.999Z</time></trkpt><trkpt lat="42.74817088189005" lon="12.746263808152385"><ele>310.33333333333337</ele><time>2026-05-03T11:08:22.999Z</time></trkpt><trkpt lat="42.74800618825857" lon="12.746089393996188"><ele>311.0</ele><time>2026-05-03T11:08:23.999Z</time></trkpt><trkpt lat="42.74784045186903" lon="12.745912540141731"><ele>312.33333333333337</ele><time>2026-05-03T11:08:24.999Z</time></trkpt><trkpt lat="42.74767878311329" lon="12.745743328225474"><ele>313.6666666666667</ele><time>2026-05-03T11:08:25.999Z</time></trkpt><trkpt lat="42.747518203223464" lon="12.745588734829703"><ele>315.0</ele><time>2026-05-03T11:08:26.999Z</time></trkpt><trkpt lat="42.74735693542394" lon="12.745427509349428"><ele>315.0</ele><time>2026-05-03T11:08:27.999Z</time></trkpt><trkpt lat="42.747198355022654" lon="12.745271695893878"><ele>315.0</ele><time>2026-05-03T11:08:28.999Z</time></trkpt><trkpt lat="42.747038214572044" lon="12.745136442345876"><ele>315.0</ele><time>2026-05-03T11:08:29.999Z</time></trkpt><trkpt lat="42.74688264456796" lon="12.745002587929225"><ele>316.3333333333333</ele><time>2026-05-03T11:08:30.999Z</time></trkpt><trkpt lat="42.74672443219003" lon="12.744882480598708"><ele>317.66666666666663</ele><time>2026-05-03T11:08:31.999Z</time></trkpt><trkpt lat="42.74656687494851" lon="12.74477071932887"><ele>319.0</ele><time>2026-05-03T11:08:32.999Z</time></trkpt><trkpt lat="42.74640980856953" lon="12.74465449364914"><ele>319.0</ele><time>2026-05-03T11:08:33.999Z</time></trkpt><trkpt lat="42.74625976740297" lon="12.744535257042283"><ele>319.0</ele><time>2026-05-03T11:08:34.999Z</time></trkpt><trkpt lat="42.74610673295701" lon="12.744421765404665"><ele>319.0</ele><time>2026-05-03T11:08:35.999Z</time></trkpt><trkpt lat="42.74595263699663" lon="12.744310816199564"><ele>320.66666666666663</ele><time>2026-05-03T11:08:36.999Z</time></trkpt><trkpt lat="42.74579519570753" lon="12.74420142954331"><ele>322.3333333333333</ele><time>2026-05-03T11:08:37.999Z</time></trkpt><trkpt lat="42.74564337317418" lon="12.744086519417593"><ele>324.0</ele><time>2026-05-03T11:08:38.999Z</time></trkpt><trkpt lat="42.745487086515915" lon="12.743975351892148"><ele>324.0</ele><time>2026-05-03T11:08:39.999Z</time></trkpt><trkpt lat="42.74533911023049" lon="12.743863188779619"><ele>324.0</ele><time>2026-05-03T11:08:40.999Z</time></trkpt><trkpt lat="42.74518944664516" lon="12.74375133020642"><ele>324.0</ele><time>2026-05-03T11:08:41.999Z</time></trkpt><trkpt lat="42.74504335773307" lon="12.743639558608766"><ele>325.3333333333333</ele><time>2026-05-03T11:08:42.999Z</time></trkpt><trkpt lat="42.74490506721781" lon="12.743536284613578"><ele>326.66666666666663</ele><time>2026-05-03T11:08:43.999Z</time></trkpt><trkpt lat="42.74476938772475" lon="12.743436273423448"><ele>328.0</ele><time>2026-05-03T11:08:44.999Z</time></trkpt><trkpt lat="42.744636500541034" lon="12.743338594734759"><ele>328.0</ele><time>2026-05-03T11:08:45.999Z</time></trkpt><trkpt lat="42.74450272541983" lon="12.743241806176034"><ele>328.0</ele><time>2026-05-03T11:08:46.999Z</time></trkpt><trkpt lat="42.74437200195805" lon="12.743142251070608"><ele>328.0</ele><time>2026-05-03T11:08:48Z</time></trkpt><trkpt lat="42.744240188617596" lon="12.743039869095787"><ele>329.66666666666663</ele><time>2026-05-03T11:08:49Z</time></trkpt><trkpt lat="42.744107451749706" lon="12.742940206377275"><ele>331.3333333333333</ele><time>2026-05-03T11:08:50Z</time></trkpt><trkpt lat="42.74397121837589" lon="12.742838081556929"><ele>333.0</ele><time>2026-05-03T11:08:51Z</time></trkpt><trkpt lat="42.7438319351519" lon="12.742733066880229"><ele>333.3333333333333</ele><time>2026-05-03T11:08:52Z</time></trkpt><trkpt lat="42.743692828014126" lon="12.742622389972707"><ele>333.66666666666663</ele><time>2026-05-03T11:08:53Z</time></trkpt><trkpt lat="42.7435451577961" lon="12.742514961969546"><ele>334.0</ele><time>2026-05-03T11:08:54Z</time></trkpt><trkpt lat="42.74339960191168" lon="12.742405828145175"><ele>334.0</ele><time>2026-05-03T11:08:55Z</time></trkpt><trkpt lat="42.74324882932955" lon="12.742295330315672"><ele>334.0</ele><time>2026-05-03T11:08:56Z</time></trkpt><trkpt lat="42.743098418341475" lon="12.742185769587564"><ele>334.0</ele><time>2026-05-03T11:08:57Z</time></trkpt><trkpt lat="42.742942736173475" lon="12.742077206819305"><ele>334.0</ele><time>2026-05-03T11:08:58Z</time></trkpt><trkpt lat="42.7427872512352" lon="12.741965859871883"><ele>334.0</ele><time>2026-05-03T11:08:59Z</time></trkpt><trkpt lat="42.74263769638839" lon="12.741852078061717"><ele>334.0</ele><time>2026-05-03T11:09:00Z</time></trkpt><trkpt lat="42.74249244209777" lon="12.741738121730895"><ele>334.3333333333333</ele><time>2026-05-03T11:09:01Z</time></trkpt><trkpt lat="42.74233858757925" lon="12.741627099491293"><ele>334.6666666666667</ele><time>2026-05-03T11:09:02Z</time></trkpt><trkpt lat="42.74218042858085" lon="12.741519417507735"><ele>335.0</ele><time>2026-05-03T11:09:03Z</time></trkpt><trkpt lat="42.742031147889286" lon="12.741414656542846"><ele>336.6666666666667</ele><time>2026-05-03T11:09:04Z</time></trkpt><trkpt lat="42.74187946329538" lon="12.741309921989096"><ele>338.3333333333333</ele><time>2026-05-03T11:09:05Z</time></trkpt><trkpt lat="42.741727836853826" lon="12.741201303823344"><ele>340.0</ele><time>2026-05-03T11:09:06Z</time></trkpt><trkpt lat="42.74157675291515" lon="12.74109428294285"><ele>338.0</ele><time>2026-05-03T11:09:07Z</time></trkpt><trkpt lat="42.74141600064069" lon="12.741007038861287"><ele>336.0</ele><time>2026-05-03T11:09:08Z</time></trkpt><trkpt lat="42.74125052816381" lon="12.740932997909217"><ele>334.0</ele><time>2026-05-03T11:09:09Z</time></trkpt><trkpt lat="42.74108272617933" lon="12.74088339188911"><ele>334.3333333333333</ele><time>2026-05-03T11:09:10Z</time></trkpt><trkpt lat="42.74090526355838" lon="12.740858758181245"><ele>334.6666666666667</ele><time>2026-05-03T11:09:11Z</time></trkpt><trkpt lat="42.74073147345224" lon="12.740842840661871"><ele>335.0</ele><time>2026-05-03T11:09:12Z</time></trkpt><trkpt lat="42.74055305726456" lon="12.740843900219003"><ele>335.0</ele><time>2026-05-03T11:09:13Z</time></trkpt><trkpt lat="42.74037364280565" lon="12.740864880068022"><ele>335.0</ele><time>2026-05-03T11:09:14Z</time></trkpt><trkpt lat="42.74020214062371" lon="12.740902470721798"><ele>335.0</ele><time>2026-05-03T11:09:15Z</time></trkpt><trkpt lat="42.740032108372404" lon="12.74095812174741"><ele>335.0</ele><time>2026-05-03T11:09:16Z</time></trkpt><trkpt lat="42.739866088861525" lon="12.741027184852603"><ele>335.0</ele><time>2026-05-03T11:09:17Z</time></trkpt><trkpt lat="42.739697898656026" lon="12.741104013381676"><ele>335.0</ele><time>2026-05-03T11:09:18Z</time></trkpt><trkpt lat="42.73952708791421" lon="12.74117144552984"><ele>339.0</ele><time>2026-05-03T11:09:19Z</time></trkpt><trkpt lat="42.739356022650604" lon="12.741235442023802"><ele>343.0</ele><time>2026-05-03T11:09:20Z</time></trkpt><trkpt lat="42.73918024329597" lon="12.741298568830686"><ele>347.0</ele><time>2026-05-03T11:09:21Z</time></trkpt><trkpt lat="42.73901226022686" lon="12.741362800098429"><ele>347.0</ele><time>2026-05-03T11:09:22Z</time></trkpt><trkpt lat="42.73884141065363" lon="12.741428819204604"><ele>347.0</ele><time>2026-05-03T11:09:23Z</time></trkpt><trkpt lat="42.73867209762439" lon="12.741489823326608"><ele>347.0</ele><time>2026-05-03T11:09:24Z</time></trkpt><trkpt lat="42.7384977622797" lon="12.741555073324745"><ele>343.33333333333337</ele><time>2026-05-03T11:09:25Z</time></trkpt><trkpt lat="42.73832746103338" lon="12.741624234772985"><ele>339.6666666666667</ele><time>2026-05-03T11:09:26Z</time></trkpt><trkpt lat="42.738152420399864" lon="12.741692996327677"><ele>336.0</ele><time>2026-05-03T11:09:27Z</time></trkpt><trkpt lat="42.73797463891273" lon="12.7417576900251"><ele>336.0</ele><time>2026-05-03T11:09:28Z</time></trkpt><trkpt lat="42.73779784783865" lon="12.741823768819515"><ele>336.0</ele><time>2026-05-03T11:09:29Z</time></trkpt><trkpt lat="42.73762550807483" lon="12.741884040469376"><ele>336.0</ele><time>2026-05-03T11:09:30Z</time></trkpt><trkpt lat="42.7374575712433" lon="12.741941719073944"><ele>335.3333333333333</ele><time>2026-05-03T11:09:31Z</time></trkpt><trkpt lat="42.73729241682751" lon="12.741986708730792"><ele>334.66666666666663</ele><time>2026-05-03T11:09:32Z</time></trkpt><trkpt lat="42.73713008300646" lon="12.74201657728163"><ele>334.0</ele><time>2026-05-03T11:09:33Z</time></trkpt><trkpt lat="42.73696341298958" lon="12.742022544188572"><ele>336.0</ele><time>2026-05-03T11:09:34Z</time></trkpt><trkpt lat="42.73679402952006" lon="12.74201051219663"><ele>338.0</ele><time>2026-05-03T11:09:35Z</time></trkpt><trkpt lat="42.736629243664694" lon="12.74197911523575"><ele>340.0</ele><time>2026-05-03T11:09:36Z</time></trkpt><trkpt lat="42.736466907133035" lon="12.741936939572803"><ele>340.0</ele><time>2026-05-03T11:09:37Z</time></trkpt><trkpt lat="42.73629204134336" lon="12.741882749000995"><ele>340.0</ele><time>2026-05-03T11:09:38Z</time></trkpt><trkpt lat="42.73613185792498" lon="12.741820571380583"><ele>340.0</ele><time>2026-05-03T11:09:39Z</time></trkpt><trkpt lat="42.73595914160606" lon="12.74176259001592"><ele>353.0</ele><time>2026-05-03T11:09:40Z</time></trkpt><trkpt lat="42.7357852860568" lon="12.741709247759998"><ele>366.0</ele><time>2026-05-03T11:09:41Z</time></trkpt><trkpt lat="42.73560833777469" lon="12.74166127206031"><ele>379.0</ele><time>2026-05-03T11:09:42Z</time></trkpt><trkpt lat="42.7354353269826" lon="12.74158289056349"><ele>395.0</ele><time>2026-05-03T11:09:43Z</time></trkpt><trkpt lat="42.7352190344697" lon="12.741514978662131"><ele>411.0</ele><time>2026-05-03T11:09:44Z</time></trkpt><trkpt lat="42.73503168818868" lon="12.74145309234362"><ele>427.0</ele><time>2026-05-03T11:09:45Z</time></trkpt><trkpt lat="42.73482220503449" lon="12.741381709258986"><ele>427.0</ele><time>2026-05-03T11:09:46.074Z</time></trkpt><trkpt lat="42.73462524456716" lon="12.741315310550316"><ele>427.0</ele><time>2026-05-03T11:09:47.063Z</time></trkpt><trkpt lat="42.734360247880076" lon="12.741240354522517"><ele>432.6666666666667</ele><time>2026-05-03T11:09:48.06Z</time></trkpt><trkpt lat="42.734163137193924" lon="12.741171433425336"><ele>438.33333333333337</ele><time>2026-05-03T11:09:49.064Z</time></trkpt><trkpt lat="42.73395968178349" lon="12.741100537057605"><ele>444.0</ele><time>2026-05-03T11:09:50.059Z</time></trkpt><trkpt lat="42.7337596825544" lon="12.741028042121512"><ele>444.0</ele><time>2026-05-03T11:09:51.042Z</time></trkpt><trkpt lat="42.73355912079229" lon="12.740954303436657"><ele>444.0</ele><time>2026-05-03T11:09:52.032Z</time></trkpt><trkpt lat="42.73335637853775" lon="12.740883710082231"><ele>444.0</ele><time>2026-05-03T11:09:53.031Z</time></trkpt><trkpt lat="42.73315037939871" lon="12.740811124073787"><ele>439.33333333333337</ele><time>2026-05-03T11:09:54.033Z</time></trkpt><trkpt lat="42.73294393369525" lon="12.740738651652693"><ele>434.6666666666667</ele><time>2026-05-03T11:09:55.03Z</time></trkpt><trkpt lat="42.732735854876154" lon="12.740666275631469"><ele>430.0</ele><time>2026-05-03T11:09:56.03Z</time></trkpt><trkpt lat="42.73253165172173" lon="12.740592692716655"><ele>420.6666666666667</ele><time>2026-05-03T11:09:57.031Z</time></trkpt><trkpt lat="42.73232881651387" lon="12.740517922561194"><ele>411.33333333333337</ele><time>2026-05-03T11:09:58.03Z</time></trkpt><trkpt lat="42.73212473973715" lon="12.740442540801324"><ele>402.0</ele><time>2026-05-03T11:09:59.031Z</time></trkpt><trkpt lat="42.73192018148779" lon="12.740367460184482"><ele>390.0</ele><time>2026-05-03T11:10:00.031Z</time></trkpt><trkpt lat="42.73171631312723" lon="12.740292838741102"><ele>378.0</ele><time>2026-05-03T11:10:01.029Z</time></trkpt><trkpt lat="42.731511156653774" lon="12.740218559076714"><ele>366.0</ele><time>2026-05-03T11:10:02.032Z</time></trkpt><trkpt lat="42.73126005914398" lon="12.74016172288565"><ele>365.0</ele><time>2026-05-03T11:10:04.999Z</time></trkpt><trkpt lat="42.731078024884965" lon="12.740084962328948"><ele>364.0</ele><time>2026-05-03T11:10:05.999Z</time></trkpt><trkpt lat="42.7309172167335" lon="12.73998719784512"><ele>363.0</ele><time>2026-05-03T11:10:06.999Z</time></trkpt><trkpt lat="42.73074599514221" lon="12.739872216454106"><ele>363.0</ele><time>2026-05-03T11:10:07.999Z</time></trkpt><trkpt lat="42.73058873668214" lon="12.739723836247588"><ele>363.0</ele><time>2026-05-03T11:10:08.999Z</time></trkpt><trkpt lat="42.73043709933694" lon="12.739562427479257"><ele>363.0</ele><time>2026-05-03T11:10:09.999Z</time></trkpt><trkpt lat="42.7302910307583" lon="12.739399662126067"><ele>363.0</ele><time>2026-05-03T11:10:10.999Z</time></trkpt><trkpt lat="42.73015127251325" lon="12.739228584956567"><ele>363.0</ele><time>2026-05-03T11:10:11.999Z</time></trkpt><trkpt lat="42.73001491456236" lon="12.739045715505256"><ele>363.0</ele><time>2026-05-03T11:10:12.999Z</time></trkpt><trkpt lat="42.72987876622847" lon="12.738860691963767"><ele>363.0</ele><time>2026-05-03T11:10:13.999Z</time></trkpt><trkpt lat="42.72973848169186" lon="12.738682931213821"><ele>363.0</ele><time>2026-05-03T11:10:14.999Z</time></trkpt><trkpt lat="42.72959348778588" lon="12.738510035266456"><ele>363.0</ele><time>2026-05-03T11:10:15.999Z</time></trkpt><trkpt lat="42.72944921558566" lon="12.73832892271744"><ele>363.3333333333333</ele><time>2026-05-03T11:10:16.999Z</time></trkpt><trkpt lat="42.729306079449536" lon="12.73814932355878"><ele>363.66666666666663</ele><time>2026-05-03T11:10:17.999Z</time></trkpt><trkpt lat="42.729161869683615" lon="12.73797533167695"><ele>364.0</ele><time>2026-05-03T11:10:18.999Z</time></trkpt><trkpt lat="42.729020533877" lon="12.737794661724779"><ele>363.0</ele><time>2026-05-03T11:10:19.999Z</time></trkpt><trkpt lat="42.72887816443802" lon="12.737622229711185"><ele>362.0</ele><time>2026-05-03T11:10:20.999Z</time></trkpt><trkpt lat="42.7287437087049" lon="12.737454820035554"><ele>361.0</ele><time>2026-05-03T11:10:21.999Z</time></trkpt><trkpt lat="42.7286204704857" lon="12.737293843138977"><ele>362.66666666666663</ele><time>2026-05-03T11:10:22.999Z</time></trkpt><trkpt lat="42.7285011968982" lon="12.737143108922801"><ele>364.3333333333333</ele><time>2026-05-03T11:10:23.999Z</time></trkpt><trkpt lat="42.728392249636656" lon="12.737006199460499"><ele>366.0</ele><time>2026-05-03T11:10:24.999Z</time></trkpt><trkpt lat="42.728289586904815" lon="12.736875238530645"><ele>366.0</ele><time>2026-05-03T11:10:25.999Z</time></trkpt><trkpt lat="42.728198318221196" lon="12.736755425435417"><ele>366.0</ele><time>2026-05-03T11:10:26.999Z</time></trkpt><trkpt lat="42.7281239174955" lon="12.73665627094915"><ele>366.0</ele><time>2026-05-03T11:10:27.999Z</time></trkpt><trkpt lat="42.72805791010339" lon="12.73657668446263"><ele>366.0</ele><time>2026-05-03T11:10:28.999Z</time></trkpt><trkpt lat="42.72799895864137" lon="12.73649811290838"><ele>366.0</ele><time>2026-05-03T11:10:29.999Z</time></trkpt><trkpt lat="42.72794014407867" lon="12.736422778978142"><ele>366.0</ele><time>2026-05-03T11:10:30.999Z</time></trkpt><trkpt lat="42.727886081607615" lon="12.736358310573673"><ele>366.0</ele><time>2026-05-03T11:10:31.999Z</time></trkpt><trkpt lat="42.72780201233055" lon="12.736262149647013"><ele>366.0</ele><time>2026-05-03T11:10:33.999Z</time></trkpt><trkpt lat="42.72777142013511" lon="12.736186205441081"><ele>366.0</ele><time>2026-05-03T11:10:34.999Z</time></trkpt><trkpt lat="42.72772947873231" lon="12.736060254203247"><ele>366.0</ele><time>2026-05-03T11:10:36.999Z</time></trkpt><trkpt lat="42.727647133779286" lon="12.735913647048623"><ele>366.1666666666667</ele><time>2026-05-03T11:10:38.999Z</time></trkpt><trkpt lat="42.72757939066701" lon="12.735870856592726"><ele>366.3333333333333</ele><time>2026-05-03T11:10:39.999Z</time></trkpt><trkpt lat="42.72749749711864" lon="12.73583791821608"><ele>366.5</ele><time>2026-05-03T11:10:40.999Z</time></trkpt><trkpt lat="42.72742230154497" lon="12.735781828152007"><ele>366.66666666666663</ele><time>2026-05-03T11:10:41.999Z</time></trkpt><trkpt lat="42.727355951496" lon="12.735699525183426"><ele>366.8333333333333</ele><time>2026-05-03T11:10:42.999Z</time></trkpt><trkpt lat="42.72729104095464" lon="12.735606603907518"><ele>367.0</ele><time>2026-05-03T11:10:43.999Z</time></trkpt><trkpt lat="42.727223356012736" lon="12.735523549905592"><ele>367.0</ele><time>2026-05-03T11:10:44.999Z</time></trkpt><trkpt lat="42.727148722098526" lon="12.735433106142503"><ele>367.0</ele><time>2026-05-03T11:10:45.999Z</time></trkpt><trkpt lat="42.72706283716443" lon="12.735333445818899"><ele>367.0</ele><time>2026-05-03T11:10:46.999Z</time></trkpt><trkpt lat="42.72696374951414" lon="12.735229889873382"><ele>367.0</ele><time>2026-05-03T11:10:47.999Z</time></trkpt><trkpt lat="42.72685065454725" lon="12.735138456135022"><ele>367.5</ele><time>2026-05-03T11:10:48.999Z</time></trkpt><trkpt lat="42.726730909926964" lon="12.735057910835508"><ele>368.0</ele><time>2026-05-03T11:10:49.999Z</time></trkpt><trkpt lat="42.72660211288881" lon="12.734988969601924"><ele>368.5</ele><time>2026-05-03T11:10:50.999Z</time></trkpt><trkpt lat="42.72646727689587" lon="12.734933212527784"><ele>369.0</ele><time>2026-05-03T11:10:51.999Z</time></trkpt><trkpt lat="42.726325215158795" lon="12.734892134670753"><ele>369.0</ele><time>2026-05-03T11:10:52.999Z</time></trkpt><trkpt lat="42.7261784756772" lon="12.734867511882173"><ele>369.0</ele><time>2026-05-03T11:10:54Z</time></trkpt><trkpt lat="42.72603085100558" lon="12.734852531546952"><ele>369.0</ele><time>2026-05-03T11:10:55Z</time></trkpt><trkpt lat="42.725878129153834" lon="12.73484059045529"><ele>369.0</ele><time>2026-05-03T11:10:56Z</time></trkpt><trkpt lat="42.72572158469388" lon="12.734826807097296"><ele>370.3333333333333</ele><time>2026-05-03T11:10:57Z</time></trkpt><trkpt lat="42.72556952561717" lon="12.734800366611152"><ele>371.66666666666663</ele><time>2026-05-03T11:10:58Z</time></trkpt><trkpt lat="42.72541252305302" lon="12.73476457805532"><ele>373.0</ele><time>2026-05-03T11:10:59Z</time></trkpt><trkpt lat="42.72525621673701" lon="12.734735380901771"><ele>374.0</ele><time>2026-05-03T11:11:00Z</time></trkpt><trkpt lat="42.725096831905255" lon="12.734710225872387"><ele>375.0</ele><time>2026-05-03T11:11:01Z</time></trkpt><trkpt lat="42.72493872996528" lon="12.734685974990546"><ele>376.0</ele><time>2026-05-03T11:11:02Z</time></trkpt><trkpt lat="42.724776648039374" lon="12.734669287883412"><ele>376.0</ele><time>2026-05-03T11:11:03Z</time></trkpt><trkpt lat="42.724618606212374" lon="12.734646045341869"><ele>376.0</ele><time>2026-05-03T11:11:04Z</time></trkpt><trkpt lat="42.72445983729234" lon="12.734620858115562"><ele>376.0</ele><time>2026-05-03T11:11:05Z</time></trkpt><trkpt lat="42.724298144931794" lon="12.734604774041749"><ele>376.66666666666663</ele><time>2026-05-03T11:11:06Z</time></trkpt><trkpt lat="42.72413870934046" lon="12.734578654054076"><ele>377.3333333333333</ele><time>2026-05-03T11:11:07Z</time></trkpt><trkpt lat="42.723982746603646" lon="12.734531390464491"><ele>378.0</ele><time>2026-05-03T11:11:08Z</time></trkpt><trkpt lat="42.72382419940321" lon="12.734453063466544"><ele>378.6666666666667</ele><time>2026-05-03T11:11:09Z</time></trkpt><trkpt lat="42.72366584261967" lon="12.734354412239469"><ele>379.33333333333337</ele><time>2026-05-03T11:11:10Z</time></trkpt><trkpt lat="42.723526453908526" lon="12.73424843500544"><ele>380.0</ele><time>2026-05-03T11:11:11Z</time></trkpt><trkpt lat="42.72338779896044" lon="12.734104093877457"><ele>380.0</ele><time>2026-05-03T11:11:12Z</time></trkpt><trkpt lat="42.72326285920965" lon="12.733950087970973"><ele>380.0</ele><time>2026-05-03T11:11:13Z</time></trkpt><trkpt lat="42.72316964618967" lon="12.733761307275687"><ele>380.0</ele><time>2026-05-03T11:11:14Z</time></trkpt><trkpt lat="42.72306825477366" lon="12.733583042966359"><ele>383.33333333333337</ele><time>2026-05-03T11:11:15Z</time></trkpt><trkpt lat="42.7229646090503" lon="12.733405497824767"><ele>386.6666666666667</ele><time>2026-05-03T11:11:16Z</time></trkpt><trkpt lat="42.72286781155966" lon="12.733211906099218"><ele>390.0</ele><time>2026-05-03T11:11:17Z</time></trkpt><trkpt lat="42.72276816984353" lon="12.733019452724692"><ele>388.0</ele><time>2026-05-03T11:11:18Z</time></trkpt><trkpt lat="42.72266133030473" lon="12.732829061919121"><ele>386.0</ele><time>2026-05-03T11:11:19Z</time></trkpt><trkpt lat="42.72255353732164" lon="12.732640848058569"><ele>384.0</ele><time>2026-05-03T11:11:20Z</time></trkpt><trkpt lat="42.722441512896125" lon="12.732449126830716"><ele>383.6666666666667</ele><time>2026-05-03T11:11:21Z</time></trkpt><trkpt lat="42.72232824943189" lon="12.732253820592282"><ele>383.33333333333337</ele><time>2026-05-03T11:11:22Z</time></trkpt><trkpt lat="42.72221691908017" lon="12.73205216411154"><ele>383.0</ele><time>2026-05-03T11:11:23Z</time></trkpt><trkpt lat="42.7221035904818" lon="12.731848617039509"><ele>383.6666666666667</ele><time>2026-05-03T11:11:24Z</time></trkpt><trkpt lat="42.721987942822366" lon="12.731649174948151"><ele>384.33333333333337</ele><time>2026-05-03T11:11:25Z</time></trkpt><trkpt lat="42.721859719166034" lon="12.731462294201032"><ele>385.0</ele><time>2026-05-03T11:11:26Z</time></trkpt><trkpt lat="42.72172398128638" lon="12.731283045349892"><ele>385.0</ele><time>2026-05-03T11:11:27Z</time></trkpt><trkpt lat="42.721582833866215" lon="12.731105000005659"><ele>385.0</ele><time>2026-05-03T11:11:28Z</time></trkpt><trkpt lat="42.721440076248676" lon="12.730929752361664"><ele>385.0</ele><time>2026-05-03T11:11:29Z</time></trkpt><trkpt lat="42.72129633145271" lon="12.730759389838799"><ele>385.33333333333337</ele><time>2026-05-03T11:11:30Z</time></trkpt><trkpt lat="42.721157965462616" lon="12.73058071418929"><ele>385.66666666666663</ele><time>2026-05-03T11:11:31Z</time></trkpt><trkpt lat="42.72101684521295" lon="12.730409627938807"><ele>386.0</ele><time>2026-05-03T11:11:32Z</time></trkpt><trkpt lat="42.72087725510971" lon="12.730238208978058"><ele>385.3333333333333</ele><time>2026-05-03T11:11:33Z</time></trkpt><trkpt lat="42.72073409129919" lon="12.730073161750788"><ele>384.66666666666663</ele><time>2026-05-03T11:11:34Z</time></trkpt><trkpt lat="42.72059293440578" lon="12.729893033110786"><ele>384.0</ele><time>2026-05-03T11:11:35Z</time></trkpt><trkpt lat="42.7204512388569" lon="12.729706502581143"><ele>384.0</ele><time>2026-05-03T11:11:36Z</time></trkpt><trkpt lat="42.72030842989304" lon="12.729546062825833"><ele>384.0</ele><time>2026-05-03T11:11:37Z</time></trkpt><trkpt lat="42.72016561687407" lon="12.729376081658666"><ele>384.0</ele><time>2026-05-03T11:11:38Z</time></trkpt><trkpt lat="42.72002558821882" lon="12.729203024485638"><ele>384.66666666666663</ele><time>2026-05-03T11:11:39Z</time></trkpt><trkpt lat="42.71988451411597" lon="12.729027825357367"><ele>385.3333333333333</ele><time>2026-05-03T11:11:40Z</time></trkpt><trkpt lat="42.719742595979824" lon="12.728854885793263"><ele>386.0</ele><time>2026-05-03T11:11:41Z</time></trkpt><trkpt lat="42.71960113901091" lon="12.72867950427023"><ele>386.3333333333333</ele><time>2026-05-03T11:11:42Z</time></trkpt><trkpt lat="42.719450976763476" lon="12.728500828244455"><ele>386.66666666666663</ele><time>2026-05-03T11:11:43Z</time></trkpt><trkpt lat="42.71930139671957" lon="12.728320741763133"><ele>387.0</ele><time>2026-05-03T11:11:44Z</time></trkpt><trkpt lat="42.719153169605065" lon="12.728145542677751"><ele>387.33333333333337</ele><time>2026-05-03T11:11:45Z</time></trkpt><trkpt lat="42.719007744373236" lon="12.72796987971"><ele>387.6666666666667</ele><time>2026-05-03T11:11:46Z</time></trkpt><trkpt lat="42.71886507248688" lon="12.72779387634496"><ele>388.0</ele><time>2026-05-03T11:11:47Z</time></trkpt><trkpt lat="42.71871995634063" lon="12.727620077321118"><ele>388.0</ele><time>2026-05-03T11:11:48Z</time></trkpt><trkpt lat="42.71857756343247" lon="12.727441633002817"><ele>388.0</ele><time>2026-05-03T11:11:49Z</time></trkpt><trkpt lat="42.71843200734918" lon="12.727271579302993"><ele>388.0</ele><time>2026-05-03T11:11:50Z</time></trkpt><trkpt lat="42.71828789508759" lon="12.727095791667546"><ele>388.0</ele><time>2026-05-03T11:11:51Z</time></trkpt><trkpt lat="42.71814059273965" lon="12.726922142625295"><ele>388.0</ele><time>2026-05-03T11:11:52Z</time></trkpt><trkpt lat="42.71799582727819" lon="12.726744431289067"><ele>388.0</ele><time>2026-05-03T11:11:53Z</time></trkpt><trkpt lat="42.71785028343136" lon="12.726565366796718"><ele>390.33333333333337</ele><time>2026-05-03T11:11:54Z</time></trkpt><trkpt lat="42.717705330314836" lon="12.726390560450367"><ele>392.66666666666663</ele><time>2026-05-03T11:11:55Z</time></trkpt><trkpt lat="42.71755670221628" lon="12.726215554279522"><ele>395.0</ele><time>2026-05-03T11:11:56Z</time></trkpt><trkpt lat="42.71741150265015" lon="12.72604201457689"><ele>395.0</ele><time>2026-05-03T11:11:57Z</time></trkpt><trkpt lat="42.71726901877707" lon="12.725867662363843"><ele>395.0</ele><time>2026-05-03T11:11:58Z</time></trkpt><trkpt lat="42.71712957347045" lon="12.725694715528645"><ele>395.0</ele><time>2026-05-03T11:11:59Z</time></trkpt><trkpt lat="42.71700504549917" lon="12.725522909112703"><ele>395.0</ele><time>2026-05-03T11:12:00Z</time></trkpt><trkpt lat="42.71686971239138" lon="12.725359453624366"><ele>395.0</ele><time>2026-05-03T11:12:01Z</time></trkpt><trkpt lat="42.716737778327456" lon="12.725190929056946"><ele>395.0</ele><time>2026-05-03T11:12:01.999Z</time></trkpt><trkpt lat="42.71660367246674" lon="12.725028855918916"><ele>395.0</ele><time>2026-05-03T11:12:02.999Z</time></trkpt><trkpt lat="42.716470607443405" lon="12.72486298639018"><ele>395.0</ele><time>2026-05-03T11:12:03.999Z</time></trkpt><trkpt lat="42.71633782676696" lon="12.724701364873036"><ele>395.0</ele><time>2026-05-03T11:12:04.999Z</time></trkpt><trkpt lat="42.71620426335308" lon="12.724546150075687"><ele>396.0</ele><time>2026-05-03T11:12:05.999Z</time></trkpt><trkpt lat="42.71607146012944" lon="12.724388590511591"><ele>397.0</ele><time>2026-05-03T11:12:06.999Z</time></trkpt><trkpt lat="42.71594051106963" lon="12.724230162081478"><ele>398.0</ele><time>2026-05-03T11:12:07.999Z</time></trkpt><trkpt lat="42.71581153885274" lon="12.724071175705275"><ele>398.0</ele><time>2026-05-03T11:12:08.999Z</time></trkpt><trkpt lat="42.715680029773544" lon="12.723917747923513"><ele>398.0</ele><time>2026-05-03T11:12:09.999Z</time></trkpt><trkpt lat="42.71555195586147" lon="12.723758588106053"><ele>398.0</ele><time>2026-05-03T11:12:10.999Z</time></trkpt><trkpt lat="42.71542018980929" lon="12.723606186260188"><ele>398.66666666666663</ele><time>2026-05-03T11:12:11.999Z</time></trkpt><trkpt lat="42.71529225956615" lon="12.723441242165395"><ele>399.33333333333337</ele><time>2026-05-03T11:12:12.999Z</time></trkpt><trkpt lat="42.715167846526235" lon="12.723291326500311"><ele>400.0</ele><time>2026-05-03T11:12:13.999Z</time></trkpt><trkpt lat="42.715036363854686" lon="12.72312879514922"><ele>400.0</ele><time>2026-05-03T11:12:14.999Z</time></trkpt><trkpt lat="42.71491256273471" lon="12.722980216829363"><ele>400.0</ele><time>2026-05-03T11:12:15.999Z</time></trkpt><trkpt lat="42.7147865019928" lon="12.722826683019859"><ele>400.0</ele><time>2026-05-03T11:12:16.999Z</time></trkpt><trkpt lat="42.71466916538513" lon="12.722672746231309"><ele>400.6666666666667</ele><time>2026-05-03T11:12:17.999Z</time></trkpt><trkpt lat="42.71455165356799" lon="12.722531203999749"><ele>401.33333333333337</ele><time>2026-05-03T11:12:18.999Z</time></trkpt><trkpt lat="42.71442899592297" lon="12.722388787177968"><ele>402.0</ele><time>2026-05-03T11:12:19.999Z</time></trkpt><trkpt lat="42.71431937190432" lon="12.722254738004901"><ele>402.0</ele><time>2026-05-03T11:12:20.999Z</time></trkpt><trkpt lat="42.71420803362017" lon="12.722125178331511"><ele>402.0</ele><time>2026-05-03T11:12:21.999Z</time></trkpt><trkpt lat="42.71410254370365" lon="12.722001966025992"><ele>402.0</ele><time>2026-05-03T11:12:22.999Z</time></trkpt><trkpt lat="42.714009893031154" lon="12.721860496729825"><ele>402.0</ele><time>2026-05-03T11:12:23.999Z</time></trkpt><trkpt lat="42.71390462830585" lon="12.721734083504396"><ele>402.25</ele><time>2026-05-03T11:12:24.999Z</time></trkpt><trkpt lat="42.71380072717556" lon="12.721608337246538"><ele>402.5</ele><time>2026-05-03T11:12:25.999Z</time></trkpt><trkpt lat="42.713696833507214" lon="12.721481725652879"><ele>402.75</ele><time>2026-05-03T11:12:26.999Z</time></trkpt><trkpt lat="42.713580888314375" lon="12.721370456755004"><ele>403.0</ele><time>2026-05-03T11:12:27.999Z</time></trkpt><trkpt lat="42.71347743767729" lon="12.72123781145797"><ele>403.0</ele><time>2026-05-03T11:12:28.999Z</time></trkpt><trkpt lat="42.71336820874222" lon="12.721105133631202"><ele>403.0</ele><time>2026-05-03T11:12:29.999Z</time></trkpt><trkpt lat="42.713260825691805" lon="12.72097156137842"><ele>403.0</ele><time>2026-05-03T11:12:30.999Z</time></trkpt><trkpt lat="42.713146205304966" lon="12.72083384833274"><ele>403.0</ele><time>2026-05-03T11:12:31.999Z</time></trkpt><trkpt lat="42.713025491056314" lon="12.720690398846196"><ele>403.6666666666667</ele><time>2026-05-03T11:12:32.999Z</time></trkpt><trkpt lat="42.71288804723195" lon="12.720546013266382"><ele>404.33333333333337</ele><time>2026-05-03T11:12:33.999Z</time></trkpt><trkpt lat="42.71273997523756" lon="12.720409908597032"><ele>405.0</ele><time>2026-05-03T11:12:34.999Z</time></trkpt><trkpt lat="42.71258532300568" lon="12.720283874053626"><ele>406.33333333333337</ele><time>2026-05-03T11:12:35.999Z</time></trkpt><trkpt lat="42.712425783680864" lon="12.720166070427998"><ele>407.6666666666667</ele><time>2026-05-03T11:12:36.999Z</time></trkpt><trkpt lat="42.7122579991954" lon="12.720058520100347"><ele>409.0</ele><time>2026-05-03T11:12:37.999Z</time></trkpt><trkpt lat="42.712085226155615" lon="12.719958235897684"><ele>409.0</ele><time>2026-05-03T11:12:38.999Z</time></trkpt><trkpt lat="42.711907201095215" lon="12.719869669976744"><ele>409.0</ele><time>2026-05-03T11:12:39.999Z</time></trkpt><trkpt lat="42.71172901627289" lon="12.71979039403009"><ele>409.0</ele><time>2026-05-03T11:12:40.999Z</time></trkpt><trkpt lat="42.71154646056248" lon="12.719713573699575"><ele>408.0</ele><time>2026-05-03T11:12:41.999Z</time></trkpt><trkpt lat="42.71135877797205" lon="12.719657211647004"><ele>407.0</ele><time>2026-05-03T11:12:42.999Z</time></trkpt><trkpt lat="42.71117042827221" lon="12.719621057916653"><ele>406.0</ele><time>2026-05-03T11:12:43.999Z</time></trkpt><trkpt lat="42.71097636517755" lon="12.719584709929606"><ele>406.0</ele><time>2026-05-03T11:12:44.999Z</time></trkpt><trkpt lat="42.710785605010486" lon="12.719538060516813"><ele>406.0</ele><time>2026-05-03T11:12:45.999Z</time></trkpt><trkpt lat="42.710579487037954" lon="12.719500590781175"><ele>406.0</ele><time>2026-05-03T11:12:46.999Z</time></trkpt><trkpt lat="42.71036627510715" lon="12.719451204720329"><ele>406.6666666666667</ele><time>2026-05-03T11:12:47.999Z</time></trkpt><trkpt lat="42.71016671416501" lon="12.719403223696219"><ele>407.33333333333337</ele><time>2026-05-03T11:12:48.999Z</time></trkpt><trkpt lat="42.70996490889976" lon="12.719354328726109"><ele>408.0</ele><time>2026-05-03T11:12:49.999Z</time></trkpt><trkpt lat="42.709757975878766" lon="12.719304131646302"><ele>408.33333333333337</ele><time>2026-05-03T11:12:50.999Z</time></trkpt><trkpt lat="42.70954751829727" lon="12.719256132762292"><ele>408.6666666666667</ele><time>2026-05-03T11:12:51.999Z</time></trkpt><trkpt lat="42.709345168661315" lon="12.719208420813345"><ele>409.0</ele><time>2026-05-03T11:12:52.999Z</time></trkpt><trkpt lat="42.70914897781129" lon="12.719175479411435"><ele>409.6666666666667</ele><time>2026-05-03T11:12:53.999Z</time></trkpt><trkpt lat="42.708953352318424" lon="12.719149748412978"><ele>410.33333333333337</ele><time>2026-05-03T11:12:54.999Z</time></trkpt><trkpt lat="42.70875498180508" lon="12.719152183166202"><ele>411.0</ele><time>2026-05-03T11:12:55.999Z</time></trkpt><trkpt lat="42.70855403698685" lon="12.71915395420991"><ele>412.0</ele><time>2026-05-03T11:12:56.999Z</time></trkpt><trkpt lat="42.70835351601181" lon="12.719161788869473"><ele>413.0</ele><time>2026-05-03T11:12:57.999Z</time></trkpt><trkpt lat="42.70815030789339" lon="12.719192248843058"><ele>414.0</ele><time>2026-05-03T11:12:58.999Z</time></trkpt><trkpt lat="42.707946658272476" lon="12.719243365326069"><ele>414.0</ele><time>2026-05-03T11:13:00Z</time></trkpt><trkpt lat="42.70774718116797" lon="12.719314849377577"><ele>414.0</ele><time>2026-05-03T11:13:01Z</time></trkpt><trkpt lat="42.707547319192805" lon="12.71939375355422"><ele>414.0</ele><time>2026-05-03T11:13:02Z</time></trkpt><trkpt lat="42.70734264078104" lon="12.719484602682963"><ele>413.33333333333337</ele><time>2026-05-03T11:13:03Z</time></trkpt><trkpt lat="42.70714082843026" lon="12.71958902446394"><ele>412.6666666666667</ele><time>2026-05-03T11:13:04Z</time></trkpt><trkpt lat="42.706938363245875" lon="12.71970726417094"><ele>412.0</ele><time>2026-05-03T11:13:05Z</time></trkpt><trkpt lat="42.706734305477795" lon="12.719837000936451"><ele>414.0</ele><time>2026-05-03T11:13:06Z</time></trkpt><trkpt lat="42.70653111755182" lon="12.71997419322542"><ele>416.0</ele><time>2026-05-03T11:13:07Z</time></trkpt><trkpt lat="42.706320543723564" lon="12.720108427278216"><ele>415.0</ele><time>2026-05-03T11:13:08Z</time></trkpt><trkpt lat="42.70609799711136" lon="12.720235667092632"><ele>414.0</ele><time>2026-05-03T11:13:09Z</time></trkpt><trkpt lat="42.70588743050767" lon="12.720361315150706"><ele>416.0</ele><time>2026-05-03T11:13:10Z</time></trkpt><trkpt lat="42.70567263481841" lon="12.72048396717055"><ele>418.0</ele><time>2026-05-03T11:13:11Z</time></trkpt><trkpt lat="42.70546107083362" lon="12.72061429418057"><ele>418.0</ele><time>2026-05-03T11:13:12Z</time></trkpt><trkpt lat="42.70525241716799" lon="12.720741207114212"><ele>418.0</ele><time>2026-05-03T11:13:13Z</time></trkpt><trkpt lat="42.70504725386539" lon="12.720866949587338"><ele>419.0</ele><time>2026-05-03T11:13:14Z</time></trkpt><trkpt lat="42.70483293163757" lon="12.720999624403785"><ele>420.0</ele><time>2026-05-03T11:13:15Z</time></trkpt><trkpt lat="42.704634247491704" lon="12.721124771646974"><ele>420.0</ele><time>2026-05-03T11:13:16Z</time></trkpt><trkpt lat="42.70442969674685" lon="12.72124513921411"><ele>420.0</ele><time>2026-05-03T11:13:17Z</time></trkpt><trkpt lat="42.70422318793695" lon="12.721369854529645"><ele>420.0</ele><time>2026-05-03T11:13:18Z</time></trkpt><trkpt lat="42.70401997044469" lon="12.721492339952848"><ele>421.33333333333337</ele><time>2026-05-03T11:13:19Z</time></trkpt><trkpt lat="42.70381550882995" lon="12.721617998704692"><ele>422.6666666666667</ele><time>2026-05-03T11:13:20Z</time></trkpt><trkpt lat="42.70360984097259" lon="12.721740280389806"><ele>424.0</ele><time>2026-05-03T11:13:21Z</time></trkpt><trkpt lat="42.70339399107128" lon="12.721865661981498"><ele>425.5</ele><time>2026-05-03T11:13:22Z</time></trkpt><trkpt lat="42.70318104021959" lon="12.721991552464914"><ele>427.0</ele><time>2026-05-03T11:13:23Z</time></trkpt><trkpt lat="42.70296910134929" lon="12.722120910542772"><ele>427.0</ele><time>2026-05-03T11:13:24Z</time></trkpt><trkpt lat="42.7027545834839" lon="12.72224770688641"><ele>427.0</ele><time>2026-05-03T11:13:25Z</time></trkpt><trkpt lat="42.70254067573434" lon="12.72238086816626"><ele>432.0</ele><time>2026-05-03T11:13:26Z</time></trkpt><trkpt lat="42.70232831992081" lon="12.722508134239957"><ele>437.0</ele><time>2026-05-03T11:13:27Z</time></trkpt><trkpt lat="42.702115309572456" lon="12.722632358870529"><ele>434.66666666666663</ele><time>2026-05-03T11:13:28Z</time></trkpt><trkpt lat="42.70190954460608" lon="12.72275362345155"><ele>432.33333333333337</ele><time>2026-05-03T11:13:29Z</time></trkpt><trkpt lat="42.70172623362709" lon="12.722869548014772"><ele>430.0</ele><time>2026-05-03T11:13:30Z</time></trkpt><trkpt lat="42.70153754547135" lon="12.722972464075301"><ele>430.0</ele><time>2026-05-03T11:13:31Z</time></trkpt><trkpt lat="42.701343999127" lon="12.723054605834411"><ele>430.0</ele><time>2026-05-03T11:13:32Z</time></trkpt><trkpt lat="42.70114340255511" lon="12.723124326642214"><ele>430.0</ele><time>2026-05-03T11:13:33Z</time></trkpt><trkpt lat="42.70093986175191" lon="12.723168072472166"><ele>432.6666666666667</ele><time>2026-05-03T11:13:34Z</time></trkpt><trkpt lat="42.70072753862546" lon="12.723205973348854"><ele>435.33333333333337</ele><time>2026-05-03T11:13:35Z</time></trkpt><trkpt lat="42.70050026062667" lon="12.72321354570029"><ele>438.0</ele><time>2026-05-03T11:13:36Z</time></trkpt><trkpt lat="42.70026143542071" lon="12.723181488252184"><ele>438.66666666666663</ele><time>2026-05-03T11:13:37Z</time></trkpt><trkpt lat="42.700015374470304" lon="12.723146923661545"><ele>439.3333333333333</ele><time>2026-05-03T11:13:38Z</time></trkpt><trkpt lat="42.69986623266578" lon="12.723076323723204"><ele>440.0</ele><time>2026-05-03T11:13:39Z</time></trkpt><trkpt lat="42.69964952676666" lon="12.722999262286415"><ele>440.0</ele><time>2026-05-03T11:13:40Z</time></trkpt><trkpt lat="42.69942907637493" lon="12.7229194036371"><ele>440.0</ele><time>2026-05-03T11:13:41Z</time></trkpt><trkpt lat="42.6992130718821" lon="12.722844519914217"><ele>438.66666666666663</ele><time>2026-05-03T11:13:42Z</time></trkpt><trkpt lat="42.69900420743006" lon="12.722763891788556"><ele>437.33333333333337</ele><time>2026-05-03T11:13:43Z</time></trkpt><trkpt lat="42.6987949856839" lon="12.72268807261947"><ele>436.0</ele><time>2026-05-03T11:13:44Z</time></trkpt><trkpt lat="42.69858877924212" lon="12.72261852202509"><ele>440.0</ele><time>2026-05-03T11:13:45Z</time></trkpt><trkpt lat="42.69838810819107" lon="12.72254563247129"><ele>444.0</ele><time>2026-05-03T11:13:46Z</time></trkpt><trkpt lat="42.698191247236075" lon="12.722470273963468"><ele>448.0</ele><time>2026-05-03T11:13:47Z</time></trkpt><trkpt lat="42.697991451018055" lon="12.722394573125555"><ele>448.0</ele><time>2026-05-03T11:13:48Z</time></trkpt><trkpt lat="42.69778589329275" lon="12.722322618290216"><ele>448.0</ele><time>2026-05-03T11:13:49Z</time></trkpt><trkpt lat="42.69756801234157" lon="12.722261484900702"><ele>448.0</ele><time>2026-05-03T11:13:50Z</time></trkpt><trkpt lat="42.697346510582975" lon="12.722235499497986"><ele>448.0</ele><time>2026-05-03T11:13:51Z</time></trkpt><trkpt lat="42.697135351698854" lon="12.722207176219209"><ele>448.0</ele><time>2026-05-03T11:13:52Z</time></trkpt><trkpt lat="42.69693043381187" lon="12.72217708343714"><ele>448.0</ele><time>2026-05-03T11:13:53Z</time></trkpt><trkpt lat="42.696728139497345" lon="12.72214770387448"><ele>448.0</ele><time>2026-05-03T11:13:54Z</time></trkpt><trkpt lat="42.696529164828874" lon="12.72211694917487"><ele>448.0</ele><time>2026-05-03T11:13:55Z</time></trkpt><trkpt lat="42.69632355340877" lon="12.722085095369883"><ele>448.0</ele><time>2026-05-03T11:13:56Z</time></trkpt><trkpt lat="42.69612121235856" lon="12.722050336572636"><ele>448.6666666666667</ele><time>2026-05-03T11:13:57Z</time></trkpt><trkpt lat="42.69592471688059" lon="12.722020265823044"><ele>449.33333333333337</ele><time>2026-05-03T11:13:58Z</time></trkpt><trkpt lat="42.695719230297705" lon="12.721993786544388"><ele>450.0</ele><time>2026-05-03T11:13:59Z</time></trkpt><trkpt lat="42.69549689068276" lon="12.72196819049195"><ele>450.0</ele><time>2026-05-03T11:14:00Z</time></trkpt><trkpt lat="42.69526259424555" lon="12.721930295624913"><ele>450.0</ele><time>2026-05-03T11:14:01Z</time></trkpt><trkpt lat="42.695019419033486" lon="12.721885517606493"><ele>453.5</ele><time>2026-05-03T11:14:02Z</time></trkpt><trkpt lat="42.69478540453373" lon="12.721840711056322"><ele>457.0</ele><time>2026-05-03T11:14:03Z</time></trkpt><trkpt lat="42.69456284484954" lon="12.721791495986688"><ele>460.0</ele><time>2026-05-03T11:14:04Z</time></trkpt><trkpt lat="42.694341728994" lon="12.721751114773726"><ele>463.0</ele><time>2026-05-03T11:14:05Z</time></trkpt><trkpt lat="42.69412800827628" lon="12.721717694298619"><ele>466.0</ele><time>2026-05-03T11:14:06Z</time></trkpt><trkpt lat="42.69392850673126" lon="12.721689981850849"><ele>466.0</ele><time>2026-05-03T11:14:07Z</time></trkpt><trkpt lat="42.69372932655116" lon="12.721658708551042"><ele>466.0</ele><time>2026-05-03T11:14:08Z</time></trkpt><trkpt lat="42.69352917595308" lon="12.721626813566804"><ele>466.0</ele><time>2026-05-03T11:14:09Z</time></trkpt><trkpt lat="42.693335699402404" lon="12.72159431076728"><ele>470.0</ele><time>2026-05-03T11:14:10Z</time></trkpt><trkpt lat="42.69316232947738" lon="12.721566224916032"><ele>474.0</ele><time>2026-05-03T11:14:11Z</time></trkpt><trkpt lat="42.69299332701078" lon="12.72153865694037"><ele>478.0</ele><time>2026-05-03T11:14:12Z</time></trkpt><trkpt lat="42.69282255693659" lon="12.721508189978492"><ele>478.0</ele><time>2026-05-03T11:14:12.999Z</time></trkpt><trkpt lat="42.692656816370445" lon="12.721483724405767"><ele>478.0</ele><time>2026-05-03T11:14:13.999Z</time></trkpt><trkpt lat="42.692487658224024" lon="12.721451318461886"><ele>478.0</ele><time>2026-05-03T11:14:14.999Z</time></trkpt><trkpt lat="42.692318873842936" lon="12.721425814750228"><ele>478.0</ele><time>2026-05-03T11:14:15.999Z</time></trkpt><trkpt lat="42.6921515144883" lon="12.721398408273927"><ele>478.0</ele><time>2026-05-03T11:14:16.999Z</time></trkpt><trkpt lat="42.69198424669633" lon="12.721378612940187"><ele>478.0</ele><time>2026-05-03T11:14:17.999Z</time></trkpt><trkpt lat="42.69181670716869" lon="12.72136221173673"><ele>479.6666666666667</ele><time>2026-05-03T11:14:18.999Z</time></trkpt><trkpt lat="42.691645062316695" lon="12.721356124270992"><ele>481.33333333333337</ele><time>2026-05-03T11:14:19.999Z</time></trkpt><trkpt lat="42.6914765333222" lon="12.721370191760798"><ele>483.0</ele><time>2026-05-03T11:14:20.999Z</time></trkpt><trkpt lat="42.69131345919642" lon="12.721408679935722"><ele>483.0</ele><time>2026-05-03T11:14:21.999Z</time></trkpt><trkpt lat="42.69115133185459" lon="12.721456251350865"><ele>483.0</ele><time>2026-05-03T11:14:22.999Z</time></trkpt><trkpt lat="42.69098396105334" lon="12.72151758645272"><ele>483.0</ele><time>2026-05-03T11:14:23.999Z</time></trkpt><trkpt lat="42.69083018873518" lon="12.721580173190667"><ele>486.0</ele><time>2026-05-03T11:14:24.999Z</time></trkpt><trkpt lat="42.690669086886416" lon="12.721643754845994"><ele>489.0</ele><time>2026-05-03T11:14:25.999Z</time></trkpt><trkpt lat="42.69050834519325" lon="12.721703213582591"><ele>492.0</ele><time>2026-05-03T11:14:26.999Z</time></trkpt><trkpt lat="42.690351288521086" lon="12.721757004485632"><ele>486.66666666666663</ele><time>2026-05-03T11:14:27.999Z</time></trkpt><trkpt lat="42.690193281639814" lon="12.72181646944373"><ele>481.3333333333333</ele><time>2026-05-03T11:14:28.999Z</time></trkpt><trkpt lat="42.6900404703294" lon="12.721878804557967"><ele>476.0</ele><time>2026-05-03T11:14:29.999Z</time></trkpt><trkpt lat="42.6898932856075" lon="12.721948603697346"><ele>476.0</ele><time>2026-05-03T11:14:30.999Z</time></trkpt><trkpt lat="42.68974496637935" lon="12.722040178170799"><ele>476.0</ele><time>2026-05-03T11:14:31.999Z</time></trkpt><trkpt lat="42.68960750068344" lon="12.722157989526782"><ele>476.0</ele><time>2026-05-03T11:14:32.999Z</time></trkpt><trkpt lat="42.6894791709944" lon="12.722300482769555"><ele>479.3333333333333</ele><time>2026-05-03T11:14:33.999Z</time></trkpt><trkpt lat="42.68935988239217" lon="12.722477337441795"><ele>482.66666666666663</ele><time>2026-05-03T11:14:34.999Z</time></trkpt><trkpt lat="42.689245619984916" lon="12.722670842584167"><ele>486.0</ele><time>2026-05-03T11:14:35.999Z</time></trkpt><trkpt lat="42.689136163370556" lon="12.722881864249034"><ele>486.0</ele><time>2026-05-03T11:14:36.999Z</time></trkpt><trkpt lat="42.68901792981647" lon="12.72308932337349"><ele>486.0</ele><time>2026-05-03T11:14:37.999Z</time></trkpt><trkpt lat="42.688888764065545" lon="12.723298466737468"><ele>486.0</ele><time>2026-05-03T11:14:38.999Z</time></trkpt><trkpt lat="42.68875407508073" lon="12.723508386130161"><ele>481.0</ele><time>2026-05-03T11:14:39.999Z</time></trkpt><trkpt lat="42.68862000567523" lon="12.723718557233212"><ele>476.0</ele><time>2026-05-03T11:14:40.999Z</time></trkpt><trkpt lat="42.68848746455375" lon="12.723932247412979"><ele>471.0</ele><time>2026-05-03T11:14:41.999Z</time></trkpt><trkpt lat="42.6883527312672" lon="12.724141732406048"><ele>473.33333333333337</ele><time>2026-05-03T11:14:42.999Z</time></trkpt><trkpt lat="42.68821696077149" lon="12.72434120090131"><ele>475.6666666666667</ele><time>2026-05-03T11:14:43.999Z</time></trkpt><trkpt lat="42.688071625968725" lon="12.724520112428507"><ele>478.0</ele><time>2026-05-03T11:14:44.999Z</time></trkpt><trkpt lat="42.68792245532816" lon="12.724657964592474"><ele>478.0</ele><time>2026-05-03T11:14:45.999Z</time></trkpt><trkpt lat="42.68776148721546" lon="12.724769784636987"><ele>478.0</ele><time>2026-05-03T11:14:46.999Z</time></trkpt><trkpt lat="42.68759480263399" lon="12.724844475290974"><ele>478.0</ele><time>2026-05-03T11:14:47.999Z</time></trkpt><trkpt lat="42.687416168069824" lon="12.724902003046745"><ele>487.33333333333337</ele><time>2026-05-03T11:14:48.999Z</time></trkpt><trkpt lat="42.68723807430433" lon="12.72495317481313"><ele>496.66666666666663</ele><time>2026-05-03T11:14:49.999Z</time></trkpt><trkpt lat="42.68706039683213" lon="12.725006492821889"><ele>506.0</ele><time>2026-05-03T11:14:50.999Z</time></trkpt><trkpt lat="42.686879807319634" lon="12.725071687418367"><ele>510.66666666666663</ele><time>2026-05-03T11:14:51.999Z</time></trkpt><trkpt lat="42.68670042049514" lon="12.725135839908884"><ele>515.3333333333334</ele><time>2026-05-03T11:14:52.999Z</time></trkpt><trkpt lat="42.68652476858207" lon="12.725201418880333"><ele>520.0</ele><time>2026-05-03T11:14:53.999Z</time></trkpt><trkpt lat="42.68634952692588" lon="12.725267012825519"><ele>508.33333333333337</ele><time>2026-05-03T11:14:54.999Z</time></trkpt><trkpt lat="42.68617411211617" lon="12.7253302396753"><ele>496.66666666666663</ele><time>2026-05-03T11:14:55.999Z</time></trkpt><trkpt lat="42.685999737608206" lon="12.725396196047665"><ele>485.0</ele><time>2026-05-03T11:14:56.999Z</time></trkpt><trkpt lat="42.68582090505362" lon="12.725465821085516"><ele>485.0</ele><time>2026-05-03T11:14:57.999Z</time></trkpt><trkpt lat="42.68564414763291" lon="12.725540757943248"><ele>485.0</ele><time>2026-05-03T11:14:58.999Z</time></trkpt><trkpt lat="42.68547201523866" lon="12.725630017525669"><ele>485.0</ele><time>2026-05-03T11:14:59.999Z</time></trkpt><trkpt lat="42.68530236869637" lon="12.72572555856858"><ele>486.3333333333333</ele><time>2026-05-03T11:15:00.999Z</time></trkpt><trkpt lat="42.685139359835475" lon="12.725835762429933"><ele>487.66666666666663</ele><time>2026-05-03T11:15:01.999Z</time></trkpt><trkpt lat="42.68498114829763" lon="12.725948641720047"><ele>489.0</ele><time>2026-05-03T11:15:02.999Z</time></trkpt><trkpt lat="42.68482702267223" lon="12.726067551773028"><ele>489.0</ele><time>2026-05-03T11:15:03.999Z</time></trkpt><trkpt lat="42.68467311135541" lon="12.726180937399375"><ele>489.0</ele><time>2026-05-03T11:15:04.999Z</time></trkpt><trkpt lat="42.68451348393576" lon="12.726288406160078"><ele>489.0</ele><time>2026-05-03T11:15:06Z</time></trkpt><trkpt lat="42.684347896326486" lon="12.726391747898962"><ele>496.33333333333337</ele><time>2026-05-03T11:15:07Z</time></trkpt><trkpt lat="42.68418122219906" lon="12.726498378609014"><ele>503.6666666666667</ele><time>2026-05-03T11:15:08Z</time></trkpt><trkpt lat="42.68401729401468" lon="12.726607584465238"><ele>511.0</ele><time>2026-05-03T11:15:09Z</time></trkpt><trkpt lat="42.683853471318" lon="12.726706785620674"><ele>511.0</ele><time>2026-05-03T11:15:10Z</time></trkpt><trkpt lat="42.683680728077356" lon="12.726803048493093"><ele>511.0</ele><time>2026-05-03T11:15:11Z</time></trkpt><trkpt lat="42.68350535321994" lon="12.72688130613644"><ele>511.0</ele><time>2026-05-03T11:15:12Z</time></trkpt><trkpt lat="42.68332075949416" lon="12.726938171556254"><ele>509.6666666666667</ele><time>2026-05-03T11:15:13Z</time></trkpt><trkpt lat="42.6831418864781" lon="12.726969847718605"><ele>508.33333333333337</ele><time>2026-05-03T11:15:14Z</time></trkpt><trkpt lat="42.68295511397374" lon="12.726983490567815"><ele>507.0</ele><time>2026-05-03T11:15:15Z</time></trkpt><trkpt lat="42.68277615049927" lon="12.726982725939092"><ele>509.33333333333337</ele><time>2026-05-03T11:15:16Z</time></trkpt><trkpt lat="42.68258608985055" lon="12.72698693462901"><ele>511.6666666666667</ele><time>2026-05-03T11:15:17Z</time></trkpt><trkpt lat="42.68240318907863" lon="12.726966726552503"><ele>514.0</ele><time>2026-05-03T11:15:18Z</time></trkpt><trkpt lat="42.68221875837622" lon="12.726970763231014"><ele>514.0</ele><time>2026-05-03T11:15:19Z</time></trkpt><trkpt lat="42.682038870289155" lon="12.72697170855494"><ele>514.0</ele><time>2026-05-03T11:15:20Z</time></trkpt><trkpt lat="42.681866406877084" lon="12.726970446254601"><ele>514.0</ele><time>2026-05-03T11:15:21Z</time></trkpt><trkpt lat="42.68169629989508" lon="12.726970345958451"><ele>515.0</ele><time>2026-05-03T11:15:22Z</time></trkpt><trkpt lat="42.681532978576" lon="12.726963272263736"><ele>516.0</ele><time>2026-05-03T11:15:23Z</time></trkpt><trkpt lat="42.68137771002576" lon="12.726949162209907"><ele>517.0</ele><time>2026-05-03T11:15:24Z</time></trkpt><trkpt lat="42.68121325073165" lon="12.726916467820137"><ele>524.3333333333334</ele><time>2026-05-03T11:15:25Z</time></trkpt><trkpt lat="42.68104947138342" lon="12.726874003444424"><ele>531.6666666666666</ele><time>2026-05-03T11:15:26Z</time></trkpt><trkpt lat="42.68088773558827" lon="12.726812499714637"><ele>539.0</ele><time>2026-05-03T11:15:27Z</time></trkpt><trkpt lat="42.68072562559215" lon="12.726708509034767"><ele>539.0</ele><time>2026-05-03T11:15:28Z</time></trkpt><trkpt lat="42.68055954202742" lon="12.726618150312069"><ele>539.0</ele><time>2026-05-03T11:15:29Z</time></trkpt><trkpt lat="42.680383147506326" lon="12.72654332594409"><ele>539.0</ele><time>2026-05-03T11:15:30Z</time></trkpt><trkpt lat="42.68021612436405" lon="12.726438544533583"><ele>537.0</ele><time>2026-05-03T11:15:31Z</time></trkpt><trkpt lat="42.68005049976016" lon="12.726344132430537"><ele>535.0</ele><time>2026-05-03T11:15:32Z</time></trkpt><trkpt lat="42.679887601140614" lon="12.726257241552206"><ele>533.0</ele><time>2026-05-03T11:15:33Z</time></trkpt><trkpt lat="42.67972972559702" lon="12.726171388466716"><ele>533.0</ele><time>2026-05-03T11:15:34Z</time></trkpt><trkpt lat="42.679574008818086" lon="12.726095283037322"><ele>533.0</ele><time>2026-05-03T11:15:35Z</time></trkpt><trkpt lat="42.67941701819509" lon="12.726020557688086"><ele>533.0</ele><time>2026-05-03T11:15:36Z</time></trkpt><trkpt lat="42.679254387411326" lon="12.725956543117375"><ele>540.6666666666666</ele><time>2026-05-03T11:15:37Z</time></trkpt><trkpt lat="42.67907746942926" lon="12.725903204844426"><ele>548.3333333333334</ele><time>2026-05-03T11:15:38Z</time></trkpt><trkpt lat="42.67889416260437" lon="12.725853918670063"><ele>556.0</ele><time>2026-05-03T11:15:39Z</time></trkpt><trkpt lat="42.67870596637838" lon="12.725811309560946"><ele>553.6666666666667</ele><time>2026-05-03T11:15:40Z</time></trkpt><trkpt lat="42.6785232982964" lon="12.725776296523563"><ele>551.3333333333334</ele><time>2026-05-03T11:15:41Z</time></trkpt><trkpt lat="42.67834149111228" lon="12.725729962723706"><ele>549.0</ele><time>2026-05-03T11:15:42Z</time></trkpt><trkpt lat="42.678161602713864" lon="12.725682789841812"><ele>549.0</ele><time>2026-05-03T11:15:43Z</time></trkpt><trkpt lat="42.67798199684046" lon="12.725635082807383"><ele>549.0</ele><time>2026-05-03T11:15:44Z</time></trkpt><trkpt lat="42.67780235197165" lon="12.725594053673001"><ele>549.0</ele><time>2026-05-03T11:15:45Z</time></trkpt><trkpt lat="42.67762037586457" lon="12.72555410949178"><ele>548.3333333333334</ele><time>2026-05-03T11:15:46Z</time></trkpt><trkpt lat="42.677430041393286" lon="12.725509876518823"><ele>547.6666666666667</ele><time>2026-05-03T11:15:47Z</time></trkpt><trkpt lat="42.677244987256756" lon="12.725461033168017"><ele>547.0</ele><time>2026-05-03T11:15:48Z</time></trkpt><trkpt lat="42.67709283056909" lon="12.725381797572808"><ele>546.3333333333334</ele><time>2026-05-03T11:15:49Z</time></trkpt><trkpt lat="42.67691340051527" lon="12.725304111214635"><ele>545.6666666666666</ele><time>2026-05-03T11:15:50Z</time></trkpt><trkpt lat="42.67670703253273" lon="12.725368437772758"><ele>545.0</ele><time>2026-05-03T11:15:51Z</time></trkpt><trkpt lat="42.67651979281076" lon="12.725378499294047"><ele>545.0</ele><time>2026-05-03T11:15:52Z</time></trkpt><trkpt lat="42.676353525468066" lon="12.725404853841294"><ele>545.0</ele><time>2026-05-03T11:15:53Z</time></trkpt><trkpt lat="42.67618440208028" lon="12.725458365871747"><ele>545.0</ele><time>2026-05-03T11:15:54Z</time></trkpt><trkpt lat="42.676024670206324" lon="12.725522200043155"><ele>548.0</ele><time>2026-05-03T11:15:55Z</time></trkpt><trkpt lat="42.675861004742764" lon="12.725596591061322"><ele>551.0</ele><time>2026-05-03T11:15:56Z</time></trkpt><trkpt lat="42.67570730994016" lon="12.72568603396163"><ele>554.0</ele><time>2026-05-03T11:15:57Z</time></trkpt><trkpt lat="42.67554129026723" lon="12.725785332283785"><ele>554.0</ele><time>2026-05-03T11:15:58Z</time></trkpt><trkpt lat="42.675378893107265" lon="12.725880809481785"><ele>554.0</ele><time>2026-05-03T11:15:59Z</time></trkpt><trkpt lat="42.67522679888577" lon="12.725964438867333"><ele>554.0</ele><time>2026-05-03T11:16:00Z</time></trkpt><trkpt lat="42.675080364013134" lon="12.72604097985488"><ele>563.6666666666666</ele><time>2026-05-03T11:16:01Z</time></trkpt><trkpt lat="42.674936252371204" lon="12.726112205093266"><ele>573.3333333333334</ele><time>2026-05-03T11:16:02Z</time></trkpt><trkpt lat="42.67479533262792" lon="12.726185819888123"><ele>583.0</ele><time>2026-05-03T11:16:03Z</time></trkpt><trkpt lat="42.674656129371584" lon="12.726259027697335"><ele>583.0</ele><time>2026-05-03T11:16:04Z</time></trkpt><trkpt lat="42.674516617721814" lon="12.726329084596163"><ele>583.0</ele><time>2026-05-03T11:16:05Z</time></trkpt><trkpt lat="42.67437856930026" lon="12.726407221312481"><ele>583.0</ele><time>2026-05-03T11:16:06Z</time></trkpt><trkpt lat="42.67423829775396" lon="12.726491688728382"><ele>581.0</ele><time>2026-05-03T11:16:07Z</time></trkpt><trkpt lat="42.67409259256515" lon="12.72656795656287"><ele>579.0</ele><time>2026-05-03T11:16:08Z</time></trkpt><trkpt lat="42.67394124666756" lon="12.726646946354757"><ele>577.0</ele><time>2026-05-03T11:16:09Z</time></trkpt><trkpt lat="42.673789412921245" lon="12.726722361773712"><ele>577.0</ele><time>2026-05-03T11:16:10Z</time></trkpt><trkpt lat="42.67363571365676" lon="12.726799366102908"><ele>577.0</ele><time>2026-05-03T11:16:11Z</time></trkpt><trkpt lat="42.673478526351296" lon="12.72688322986184"><ele>577.0</ele><time>2026-05-03T11:16:12Z</time></trkpt><trkpt lat="42.67332606869977" lon="12.726973048510693"><ele>580.0</ele><time>2026-05-03T11:16:13Z</time></trkpt><trkpt lat="42.673176231627544" lon="12.72708036639887"><ele>583.0</ele><time>2026-05-03T11:16:14Z</time></trkpt><trkpt lat="42.67304460989741" lon="12.727212967489153"><ele>586.0</ele><time>2026-05-03T11:16:15Z</time></trkpt><trkpt lat="42.67291823118667" lon="12.727343064858378"><ele>586.0</ele><time>2026-05-03T11:16:16Z</time></trkpt><trkpt lat="42.672801563142016" lon="12.727480603570447"><ele>586.0</ele><time>2026-05-03T11:16:17Z</time></trkpt><trkpt lat="42.672686417354605" lon="12.727624557441066"><ele>586.0</ele><time>2026-05-03T11:16:18Z</time></trkpt><trkpt lat="42.67257497980106" lon="12.727772607521356"><ele>585.0</ele><time>2026-05-03T11:16:19Z</time></trkpt><trkpt lat="42.67247160500749" lon="12.72792362410397"><ele>584.0</ele><time>2026-05-03T11:16:20Z</time></trkpt><trkpt lat="42.672367509988334" lon="12.728067416295874"><ele>583.0</ele><time>2026-05-03T11:16:21Z</time></trkpt><trkpt lat="42.67226144361633" lon="12.728204333567806"><ele>582.0</ele><time>2026-05-03T11:16:22Z</time></trkpt><trkpt lat="42.67214697164141" lon="12.728333262666984"><ele>582.0</ele><time>2026-05-03T11:16:22.999Z</time></trkpt><trkpt lat="42.6720266842605" lon="12.728442258923682"><ele>582.0</ele><time>2026-05-03T11:16:23.999Z</time></trkpt><trkpt lat="42.67189186431486" lon="12.728527582589638"><ele>582.0</ele><time>2026-05-03T11:16:24.999Z</time></trkpt><trkpt lat="42.671751224857715" lon="12.728598060889466"><ele>582.0</ele><time>2026-05-03T11:16:25.999Z</time></trkpt><trkpt lat="42.671602591497695" lon="12.728649759921835"><ele>583.3333333333334</ele><time>2026-05-03T11:16:26.999Z</time></trkpt><trkpt lat="42.67145171550998" lon="12.728680434847895"><ele>584.6666666666667</ele><time>2026-05-03T11:16:27.999Z</time></trkpt><trkpt lat="42.67129879892111" lon="12.728693888453517"><ele>586.0</ele><time>2026-05-03T11:16:28.999Z</time></trkpt><trkpt lat="42.67114167117237" lon="12.728695093965444"><ele>591.3333333333334</ele><time>2026-05-03T11:16:29.999Z</time></trkpt><trkpt lat="42.670988154297696" lon="12.728709772071007"><ele>596.6666666666666</ele><time>2026-05-03T11:16:30.999Z</time></trkpt><trkpt lat="42.6708369159317" lon="12.728741922719063"><ele>602.0</ele><time>2026-05-03T11:16:31.999Z</time></trkpt><trkpt lat="42.67069019976585" lon="12.728801385741424"><ele>602.0</ele><time>2026-05-03T11:16:32.999Z</time></trkpt><trkpt lat="42.67055335704454" lon="12.728880516905447"><ele>602.0</ele><time>2026-05-03T11:16:33.999Z</time></trkpt><trkpt lat="42.670418250728346" lon="12.72897962070402"><ele>602.0</ele><time>2026-05-03T11:16:34.999Z</time></trkpt><trkpt lat="42.67029108388767" lon="12.729095022720767"><ele>603.3333333333333</ele><time>2026-05-03T11:16:35.999Z</time></trkpt><trkpt lat="42.67017314297544" lon="12.729232286983697"><ele>604.6666666666666</ele><time>2026-05-03T11:16:36.999Z</time></trkpt><trkpt lat="42.670065451019276" lon="12.72938285141953"><ele>606.0</ele><time>2026-05-03T11:16:37.999Z</time></trkpt><trkpt lat="42.66996765167866" lon="12.729549466184992"><ele>606.0</ele><time>2026-05-03T11:16:38.999Z</time></trkpt><trkpt lat="42.66988872531175" lon="12.729733082444234"><ele>606.0</ele><time>2026-05-03T11:16:39.999Z</time></trkpt><trkpt lat="42.669830070419785" lon="12.729928613033017"><ele>606.0</ele><time>2026-05-03T11:16:40.999Z</time></trkpt><trkpt lat="42.669776281354615" lon="12.730130545112468"><ele>611.3333333333334</ele><time>2026-05-03T11:16:41.999Z</time></trkpt><trkpt lat="42.66971904209372" lon="12.730345372100624"><ele>616.6666666666667</ele><time>2026-05-03T11:16:42.999Z</time></trkpt><trkpt lat="42.66965104987057" lon="12.730562616518727"><ele>622.0</ele><time>2026-05-03T11:16:43.999Z</time></trkpt><trkpt lat="42.66957680128967" lon="12.730786454729333"><ele>622.0</ele><time>2026-05-03T11:16:44.999Z</time></trkpt><trkpt lat="42.66949945815688" lon="12.731015226001409"><ele>622.0</ele><time>2026-05-03T11:16:45.999Z</time></trkpt><trkpt lat="42.669425815276384" lon="12.731250178198643"><ele>622.0</ele><time>2026-05-03T11:16:46.999Z</time></trkpt><trkpt lat="42.669356784351805" lon="12.731485091725455"><ele>620.0</ele><time>2026-05-03T11:16:47.999Z</time></trkpt><trkpt lat="42.66928714262028" lon="12.731718776959141"><ele>618.0</ele><time>2026-05-03T11:16:48.999Z</time></trkpt><trkpt lat="42.66921930869058" lon="12.731945286626962"><ele>616.0</ele><time>2026-05-03T11:16:49.999Z</time></trkpt><trkpt lat="42.66915247480751" lon="12.732167739185542"><ele>616.0</ele><time>2026-05-03T11:16:50.999Z</time></trkpt><trkpt lat="42.66908709739178" lon="12.73237889893745"><ele>616.0</ele><time>2026-05-03T11:16:51.999Z</time></trkpt><trkpt lat="42.669014875048596" lon="12.73258544180973"><ele>616.0</ele><time>2026-05-03T11:16:52.999Z</time></trkpt><trkpt lat="42.66893561213621" lon="12.732787137499264"><ele>617.6666666666667</ele><time>2026-05-03T11:16:53.999Z</time></trkpt><trkpt lat="42.66884557025007" lon="12.73297263139748"><ele>619.3333333333334</ele><time>2026-05-03T11:16:54.999Z</time></trkpt><trkpt lat="42.66874872053342" lon="12.73315291939715"><ele>621.0</ele><time>2026-05-03T11:16:55.999Z</time></trkpt><trkpt lat="42.668654554030425" lon="12.733301389345668"><ele>621.5</ele><time>2026-05-03T11:16:56.999Z</time></trkpt><trkpt lat="42.668551516595585" lon="12.733432968566845"><ele>622.0</ele><time>2026-05-03T11:16:57.999Z</time></trkpt><trkpt lat="42.668454071900854" lon="12.733554963042852"><ele>622.5</ele><time>2026-05-03T11:16:58.999Z</time></trkpt><trkpt lat="42.66835950207008" lon="12.733687039441095"><ele>623.0</ele><time>2026-05-03T11:16:59.999Z</time></trkpt><trkpt lat="42.668271766256375" lon="12.733823400648266"><ele>623.0</ele><time>2026-05-03T11:17:00.999Z</time></trkpt><trkpt lat="42.66818725759684" lon="12.733961831217025"><ele>623.0</ele><time>2026-05-03T11:17:01.999Z</time></trkpt><trkpt lat="42.66810195351083" lon="12.734091738690935"><ele>623.0</ele><time>2026-05-03T11:17:02.999Z</time></trkpt><trkpt lat="42.66801345698089" lon="12.734218045114305"><ele>623.0</ele><time>2026-05-03T11:17:03.999Z</time></trkpt><trkpt lat="42.667928031716045" lon="12.734345523797273"><ele>624.5</ele><time>2026-05-03T11:17:04.999Z</time></trkpt><trkpt lat="42.66784340437483" lon="12.734475646350923"><ele>626.0</ele><time>2026-05-03T11:17:05.999Z</time></trkpt><trkpt lat="42.667758606948226" lon="12.734603723405062"><ele>627.5</ele><time>2026-05-03T11:17:06.999Z</time></trkpt><trkpt lat="42.6676764828298" lon="12.734727979379791"><ele>629.0</ele><time>2026-05-03T11:17:07.999Z</time></trkpt><trkpt lat="42.66759413855016" lon="12.73484980586109"><ele>629.0</ele><time>2026-05-03T11:17:08.999Z</time></trkpt><trkpt lat="42.66750607087094" lon="12.734967758694783"><ele>629.0</ele><time>2026-05-03T11:17:09.999Z</time></trkpt><trkpt lat="42.66741477176929" lon="12.735079661045475"><ele>629.0</ele><time>2026-05-03T11:17:10.999Z</time></trkpt><trkpt lat="42.66731452718662" lon="12.735168649698299"><ele>629.0</ele><time>2026-05-03T11:17:12Z</time></trkpt><trkpt lat="42.66720331425144" lon="12.735224939017531"><ele>630.0</ele><time>2026-05-03T11:17:13Z</time></trkpt><trkpt lat="42.667080931504664" lon="12.735250129478567"><ele>631.0</ele><time>2026-05-03T11:17:14Z</time></trkpt><trkpt lat="42.666955023865995" lon="12.735244741893728"><ele>632.0</ele><time>2026-05-03T11:17:15Z</time></trkpt><trkpt lat="42.66682812300142" lon="12.735196743361236"><ele>633.0</ele><time>2026-05-03T11:17:16Z</time></trkpt><trkpt lat="42.66670996404429" lon="12.735109778486132"><ele>633.0</ele><time>2026-05-03T11:17:17Z</time></trkpt><trkpt lat="42.666606941697985" lon="12.735001047000617"><ele>633.0</ele><time>2026-05-03T11:17:18Z</time></trkpt><trkpt lat="42.66652901817622" lon="12.734855554200946"><ele>633.0</ele><time>2026-05-03T11:17:19Z</time></trkpt><trkpt lat="42.666473603018325" lon="12.734700025990653"><ele>633.0</ele><time>2026-05-03T11:17:20Z</time></trkpt><trkpt lat="42.66644548484477" lon="12.734530187795071"><ele>633.75</ele><time>2026-05-03T11:17:21Z</time></trkpt><trkpt lat="42.666438484047646" lon="12.73435540739158"><ele>634.5</ele><time>2026-05-03T11:17:22Z</time></trkpt><trkpt lat="42.66645488003532" lon="12.734181826652145"><ele>635.25</ele><time>2026-05-03T11:17:23Z</time></trkpt><trkpt lat="42.66652146078997" lon="12.734027835639935"><ele>636.0</ele><time>2026-05-03T11:17:24Z</time></trkpt><trkpt lat="42.66659498571326" lon="12.733889532503566"><ele>636.0</ele><time>2026-05-03T11:17:25Z</time></trkpt><trkpt lat="42.666680172780964" lon="12.733759084990295"><ele>636.0</ele><time>2026-05-03T11:17:26Z</time></trkpt><trkpt lat="42.666782126551524" lon="12.733641141342689"><ele>636.0</ele><time>2026-05-03T11:17:27Z</time></trkpt><trkpt lat="42.66688758674035" lon="12.73353050851284"><ele>636.0</ele><time>2026-05-03T11:17:28Z</time></trkpt><trkpt lat="42.666991440607234" lon="12.733413224539158"><ele>636.25</ele><time>2026-05-03T11:17:29Z</time></trkpt><trkpt lat="42.66709713655623" lon="12.733300251782957"><ele>636.5</ele><time>2026-05-03T11:17:30Z</time></trkpt><trkpt lat="42.66720144119736" lon="12.733183187509708"><ele>636.75</ele><time>2026-05-03T11:17:31Z</time></trkpt><trkpt lat="42.667305109176816" lon="12.733065048555739"><ele>637.0</ele><time>2026-05-03T11:17:32Z</time></trkpt><trkpt lat="42.66741401561814" lon="12.732943616847871"><ele>637.0</ele><time>2026-05-03T11:17:33Z</time></trkpt><trkpt lat="42.66751544187041" lon="12.732820517437045"><ele>637.0</ele><time>2026-05-03T11:17:34Z</time></trkpt><trkpt lat="42.667630284716736" lon="12.732669405520538"><ele>637.0</ele><time>2026-05-03T11:17:35Z</time></trkpt><trkpt lat="42.66773603983636" lon="12.732492714323723"><ele>633.6666666666667</ele><time>2026-05-03T11:17:36Z</time></trkpt><trkpt lat="42.66782815275844" lon="12.732300692083038"><ele>630.3333333333334</ele><time>2026-05-03T11:17:37Z</time></trkpt><trkpt lat="42.66789961540932" lon="12.732108925222388"><ele>627.0</ele><time>2026-05-03T11:17:38Z</time></trkpt><trkpt lat="42.667915244616424" lon="12.731893818844258"><ele>627.6666666666666</ele><time>2026-05-03T11:17:39Z</time></trkpt><trkpt lat="42.667922219859065" lon="12.731671863928582"><ele>628.3333333333333</ele><time>2026-05-03T11:17:40Z</time></trkpt><trkpt lat="42.6679089972378" lon="12.731447571413623"><ele>629.0</ele><time>2026-05-03T11:17:41Z</time></trkpt><trkpt lat="42.667868830739714" lon="12.731204903265915"><ele>631.0</ele><time>2026-05-03T11:17:42Z</time></trkpt><trkpt lat="42.667811734835325" lon="12.730951403597572"><ele>633.0</ele><time>2026-05-03T11:17:43Z</time></trkpt><trkpt lat="42.667748744042726" lon="12.730683488552764"><ele>635.0</ele><time>2026-05-03T11:17:44Z</time></trkpt><trkpt lat="42.66768659329387" lon="12.730418169227992"><ele>642.0</ele><time>2026-05-03T11:17:45Z</time></trkpt><trkpt lat="42.66762783342196" lon="12.730150804393876"><ele>649.0</ele><time>2026-05-03T11:17:46Z</time></trkpt><trkpt lat="42.667573573002116" lon="12.729895299172995"><ele>656.0</ele><time>2026-05-03T11:17:47Z</time></trkpt><trkpt lat="42.66751578666196" lon="12.72965885872521"><ele>656.0</ele><time>2026-05-03T11:17:48Z</time></trkpt><trkpt lat="42.66744357242822" lon="12.729441858620001"><ele>656.0</ele><time>2026-05-03T11:17:49Z</time></trkpt><trkpt lat="42.667347059244584" lon="12.729248766911837"><ele>656.0</ele><time>2026-05-03T11:17:50Z</time></trkpt><trkpt lat="42.66723238576158" lon="12.729074341983162"><ele>653.0</ele><time>2026-05-03T11:17:51Z</time></trkpt><trkpt lat="42.6671039651385" lon="12.728934825810232"><ele>650.0</ele><time>2026-05-03T11:17:52Z</time></trkpt><trkpt lat="42.666968353314374" lon="12.728824680206895"><ele>647.0</ele><time>2026-05-03T11:17:53Z</time></trkpt><trkpt lat="42.66682052963697" lon="12.728745406282341"><ele>656.0</ele><time>2026-05-03T11:17:54Z</time></trkpt><trkpt lat="42.666657987181225" lon="12.728684944031762"><ele>665.0</ele><time>2026-05-03T11:17:55Z</time></trkpt><trkpt lat="42.66646261172755" lon="12.72863809500926"><ele>674.0</ele><time>2026-05-03T11:17:56Z</time></trkpt><trkpt lat="42.666263476987204" lon="12.72860176769387"><ele>675.0</ele><time>2026-05-03T11:17:57Z</time></trkpt><trkpt lat="42.66606129044131" lon="12.728561849823778"><ele>676.0</ele><time>2026-05-03T11:17:58Z</time></trkpt><trkpt lat="42.6658660276429" lon="12.728524445785169"><ele>677.0</ele><time>2026-05-03T11:17:59Z</time></trkpt><trkpt lat="42.66566627455327" lon="12.72848604031519"><ele>677.0</ele><time>2026-05-03T11:18:00Z</time></trkpt><trkpt lat="42.665466886349485" lon="12.728445606909377"><ele>677.0</ele><time>2026-05-03T11:18:01Z</time></trkpt><trkpt lat="42.66524267028282" lon="12.728381002727758"><ele>677.0</ele><time>2026-05-03T11:18:02.076Z</time></trkpt><trkpt lat="42.66510690993184" lon="12.728300502607963"><ele>674.4000000000001</ele><time>2026-05-03T11:18:04Z</time></trkpt><trkpt lat="42.664961404650946" lon="12.728312831601011"><ele>671.8000000000001</ele><time>2026-05-03T11:18:05Z</time></trkpt><trkpt lat="42.66485678306116" lon="12.728338745357396"><ele>669.2</ele><time>2026-05-03T11:18:06Z</time></trkpt><trkpt lat="42.66477853629721" lon="12.72833840865949"><ele>666.6</ele><time>2026-05-03T11:18:07Z</time></trkpt><trkpt lat="42.66468778511529" lon="12.728334137827538"><ele>664.0</ele><time>2026-05-03T11:18:08Z</time></trkpt><trkpt lat="42.664606179454914" lon="12.72834536861604"><ele>664.0</ele><time>2026-05-03T11:18:09Z</time></trkpt><trkpt lat="42.66454460524732" lon="12.728324213887262"><ele>664.0</ele><time>2026-05-03T11:18:10Z</time></trkpt><trkpt lat="42.66443091194708" lon="12.728383451838072"><ele>664.0</ele><time>2026-05-03T11:18:12Z</time></trkpt><trkpt lat="42.664385929599966" lon="12.728449298271673"><ele>664.0</ele><time>2026-05-03T11:18:14Z</time></trkpt><trkpt lat="42.66437882808153" lon="12.728537863016152"><ele>664.0</ele><time>2026-05-03T11:18:17Z</time></trkpt><trkpt lat="42.66447297886477" lon="12.728575039902747"><ele>664.0</ele><time>2026-05-03T11:19:30Z</time></trkpt><trkpt lat="42.664534423371144" lon="12.728603153023315"><ele>664.0</ele><time>2026-05-03T11:21:25Z</time></trkpt><trkpt lat="42.6644633220584" lon="12.72859358655793"><ele>664.0</ele><time>2026-05-03T12:47:38Z</time></trkpt><trkpt lat="42.6643998625141" lon="12.728535767049877"><ele>664.0</ele><time>2026-05-03T12:51:10.999Z</time></trkpt><trkpt lat="42.664317691614585" lon="12.728558479727356"><ele>664.0</ele><time>2026-05-03T12:51:12.999Z</time></trkpt><trkpt lat="42.66423812730891" lon="12.728645646430113"><ele>664.0</ele><time>2026-05-03T12:51:14.999Z</time></trkpt><trkpt lat="42.664140370332916" lon="12.728756102598934"><ele>661.8571428571428</ele><time>2026-05-03T12:51:16.999Z</time></trkpt><trkpt lat="42.66408876450958" lon="12.728816436728128"><ele>659.7142857142858</ele><time>2026-05-03T12:51:17.999Z</time></trkpt><trkpt lat="42.66403340246176" lon="12.728880917017634"><ele>657.5714285714286</ele><time>2026-05-03T12:51:18.999Z</time></trkpt><trkpt lat="42.66397947452922" lon="12.72893905554153"><ele>655.4285714285713</ele><time>2026-05-03T12:51:19.999Z</time></trkpt><trkpt lat="42.66392642549979" lon="12.729002435757286"><ele>653.2857142857142</ele><time>2026-05-03T12:51:20.999Z</time></trkpt><trkpt lat="42.66387389945985" lon="12.729067565718163"><ele>651.1428571428571</ele><time>2026-05-03T12:51:21.999Z</time></trkpt><trkpt lat="42.66382353226221" lon="12.729133234561965"><ele>649.0</ele><time>2026-05-03T12:51:22.999Z</time></trkpt><trkpt lat="42.66376680491123" lon="12.72920636801334"><ele>649.0</ele><time>2026-05-03T12:51:23.999Z</time></trkpt><trkpt lat="42.66371059610517" lon="12.729274919104148"><ele>649.0</ele><time>2026-05-03T12:51:24.999Z</time></trkpt><trkpt lat="42.66365834603269" lon="12.729342154845414"><ele>649.0</ele><time>2026-05-03T12:51:25.999Z</time></trkpt><trkpt lat="42.663606671526324" lon="12.729420842558458"><ele>649.0</ele><time>2026-05-03T12:51:26.999Z</time></trkpt><trkpt lat="42.663554405141966" lon="12.729505900643469"><ele>649.0</ele><time>2026-05-03T12:51:27.999Z</time></trkpt><trkpt lat="42.66350041226259" lon="12.729575873377305"><ele>649.0</ele><time>2026-05-03T12:51:28.999Z</time></trkpt><trkpt lat="42.66342892158434" lon="12.72964462247025"><ele>646.8000000000001</ele><time>2026-05-03T12:51:29.999Z</time></trkpt><trkpt lat="42.66336364724294" lon="12.729715159583002"><ele>644.6</ele><time>2026-05-03T12:51:30.999Z</time></trkpt><trkpt lat="42.663292483998966" lon="12.729794195694373"><ele>642.4</ele><time>2026-05-03T12:51:31.999Z</time></trkpt><trkpt lat="42.66320367581124" lon="12.729860836971127"><ele>640.2</ele><time>2026-05-03T12:51:32.999Z</time></trkpt><trkpt lat="42.663119555255" lon="12.72994731304955"><ele>638.0</ele><time>2026-05-03T12:51:33.999Z</time></trkpt><trkpt lat="42.663039139415844" lon="12.730053124089437"><ele>638.0</ele><time>2026-05-03T12:51:34.999Z</time></trkpt><trkpt lat="42.6629489297225" lon="12.730139284840632"><ele>638.0</ele><time>2026-05-03T12:51:36Z</time></trkpt><trkpt lat="42.66287381638323" lon="12.730251136262275"><ele>638.0</ele><time>2026-05-03T12:51:37Z</time></trkpt><trkpt lat="42.662793440353454" lon="12.730355220941872"><ele>638.0</ele><time>2026-05-03T12:51:38Z</time></trkpt><trkpt lat="42.662725105610946" lon="12.730471792482959"><ele>638.0</ele><time>2026-05-03T12:51:39Z</time></trkpt><trkpt lat="42.662664428486245" lon="12.730598094906002"><ele>635.4</ele><time>2026-05-03T12:51:40Z</time></trkpt><trkpt lat="42.66259951487877" lon="12.730725399914506"><ele>632.8</ele><time>2026-05-03T12:51:41Z</time></trkpt><trkpt lat="42.66254523137178" lon="12.730860393993034"><ele>630.2</ele><time>2026-05-03T12:51:42Z</time></trkpt><trkpt lat="42.66249735091239" lon="12.730991688916264"><ele>627.6</ele><time>2026-05-03T12:51:42.999Z</time></trkpt><trkpt lat="42.66244287094915" lon="12.731126693187143"><ele>625.0</ele><time>2026-05-03T12:51:44Z</time></trkpt><trkpt lat="42.66239436093923" lon="12.731259517119184"><ele>625.0</ele><time>2026-05-03T12:51:45Z</time></trkpt><trkpt lat="42.66235172589547" lon="12.73138952635531"><ele>625.0</ele><time>2026-05-03T12:51:46Z</time></trkpt><trkpt lat="42.66230957981717" lon="12.731508698375448"><ele>625.0</ele><time>2026-05-03T12:51:47Z</time></trkpt><trkpt lat="42.66227073224995" lon="12.731630436775292"><ele>625.0</ele><time>2026-05-03T12:51:48Z</time></trkpt><trkpt lat="42.662237735624" lon="12.73175824906155"><ele>625.0</ele><time>2026-05-03T12:51:49Z</time></trkpt><trkpt lat="42.662214332622234" lon="12.731885765708558"><ele>625.0</ele><time>2026-05-03T12:51:50Z</time></trkpt><trkpt lat="42.66220294379251" lon="12.732015670539381"><ele>625.0</ele><time>2026-05-03T12:51:51Z</time></trkpt><trkpt lat="42.66219778145913" lon="12.732140813168183"><ele>625.0</ele><time>2026-05-03T12:51:52Z</time></trkpt><trkpt lat="42.66219391732839" lon="12.732259711674628"><ele>625.0</ele><time>2026-05-03T12:51:53Z</time></trkpt><trkpt lat="42.66218722991096" lon="12.732373354318995"><ele>625.0</ele><time>2026-05-03T12:51:54Z</time></trkpt><trkpt lat="42.6621814504144" lon="12.732473172432428"><ele>625.0</ele><time>2026-05-03T12:51:55Z</time></trkpt><trkpt lat="42.662147299001354" lon="12.732615281459944"><ele>625.0</ele><time>2026-05-03T12:51:57Z</time></trkpt><trkpt lat="42.66204593401884" lon="12.732648812987632"><ele>625.0</ele><time>2026-05-03T12:51:59Z</time></trkpt><trkpt lat="42.662001491462014" lon="12.732574029864875"><ele>625.0</ele><time>2026-05-03T12:52:00Z</time></trkpt><trkpt lat="42.66191804224782" lon="12.732441614209725"><ele>625.0</ele><time>2026-05-03T12:52:02Z</time></trkpt><trkpt lat="42.66185000387066" lon="12.732385871419334"><ele>625.0</ele><time>2026-05-03T12:52:03Z</time></trkpt><trkpt lat="42.66179050318506" lon="12.732325939702157"><ele>621.3333333333334</ele><time>2026-05-03T12:52:04Z</time></trkpt><trkpt lat="42.661727817672215" lon="12.732268146198155"><ele>617.6666666666667</ele><time>2026-05-03T12:52:05Z</time></trkpt><trkpt lat="42.66164092614025" lon="12.732260730724331"><ele>614.0</ele><time>2026-05-03T12:52:06Z</time></trkpt><trkpt lat="42.66155455332985" lon="12.732266854309863"><ele>610.3333333333334</ele><time>2026-05-03T12:52:06.999Z</time></trkpt><trkpt lat="42.66146514328776" lon="12.73228006785174"><ele>606.6666666666666</ele><time>2026-05-03T12:52:07.999Z</time></trkpt><trkpt lat="42.661377682692844" lon="12.732295663369694"><ele>603.0</ele><time>2026-05-03T12:52:08.999Z</time></trkpt><trkpt lat="42.66128565176339" lon="12.732333020464994"><ele>603.0</ele><time>2026-05-03T12:52:09.999Z</time></trkpt><trkpt lat="42.66118975502196" lon="12.732330238788313"><ele>603.0</ele><time>2026-05-03T12:52:10.999Z</time></trkpt><trkpt lat="42.661089588609606" lon="12.732350090430225"><ele>603.0</ele><time>2026-05-03T12:52:11.999Z</time></trkpt><trkpt lat="42.66098262507626" lon="12.732374501980699"><ele>603.0</ele><time>2026-05-03T12:52:12.999Z</time></trkpt><trkpt lat="42.66087345429587" lon="12.732407693082347"><ele>603.0</ele><time>2026-05-03T12:52:13.999Z</time></trkpt><trkpt lat="42.6607642131099" lon="12.732447848918799"><ele>600.0</ele><time>2026-05-03T12:52:14.999Z</time></trkpt><trkpt lat="42.66065572212052" lon="12.7324911643166"><ele>597.0</ele><time>2026-05-03T12:52:15.999Z</time></trkpt><trkpt lat="42.66054782577847" lon="12.732536716527017"><ele>594.0</ele><time>2026-05-03T12:52:16.999Z</time></trkpt><trkpt lat="42.66044399361451" lon="12.732591956116893"><ele>591.0</ele><time>2026-05-03T12:52:17.999Z</time></trkpt><trkpt lat="42.66034567912571" lon="12.732655801293678"><ele>588.0</ele><time>2026-05-03T12:52:18.999Z</time></trkpt><trkpt lat="42.66025000037424" lon="12.732730298650011"><ele>587.6</ele><time>2026-05-03T12:52:19.999Z</time></trkpt><trkpt lat="42.66016148041004" lon="12.732819662052611"><ele>587.1999999999999</ele><time>2026-05-03T12:52:20.999Z</time></trkpt><trkpt lat="42.660067949424224" lon="12.73289418733054"><ele>586.8</ele><time>2026-05-03T12:52:21.999Z</time></trkpt><trkpt lat="42.659989206634" lon="12.732998635957989"><ele>586.4</ele><time>2026-05-03T12:52:22.999Z</time></trkpt><trkpt lat="42.65989239034008" lon="12.733077801077798"><ele>586.0</ele><time>2026-05-03T12:52:23.999Z</time></trkpt><trkpt lat="42.65979016982438" lon="12.733149985890448"><ele>586.0</ele><time>2026-05-03T12:52:24.999Z</time></trkpt><trkpt lat="42.65969218031468" lon="12.733226087806875"><ele>586.0</ele><time>2026-05-03T12:52:25.999Z</time></trkpt><trkpt lat="42.65959603126983" lon="12.733300282940315"><ele>586.0</ele><time>2026-05-03T12:52:26.999Z</time></trkpt><trkpt lat="42.65949820067695" lon="12.733368605068405"><ele>586.0</ele><time>2026-05-03T12:52:27.999Z</time></trkpt><trkpt lat="42.659393444016864" lon="12.733439586661502"><ele>582.25</ele><time>2026-05-03T12:52:28.999Z</time></trkpt><trkpt lat="42.65929707411024" lon="12.733520979998849"><ele>578.5</ele><time>2026-05-03T12:52:29.999Z</time></trkpt><trkpt lat="42.65919389985856" lon="12.733599716190536"><ele>574.75</ele><time>2026-05-03T12:52:30.999Z</time></trkpt><trkpt lat="42.659111272260624" lon="12.733711969115802"><ele>571.0</ele><time>2026-05-03T12:52:31.999Z</time></trkpt><trkpt lat="42.65901406186098" lon="12.733801370067543"><ele>571.0</ele><time>2026-05-03T12:52:32.999Z</time></trkpt><trkpt lat="42.658922835674254" lon="12.73388378692452"><ele>571.0</ele><time>2026-05-03T12:52:33.999Z</time></trkpt><trkpt lat="42.65883664418592" lon="12.733950888771778"><ele>571.0</ele><time>2026-05-03T12:52:34.999Z</time></trkpt><trkpt lat="42.65876434750787" lon="12.734019018996761"><ele>571.0</ele><time>2026-05-03T12:52:35.999Z</time></trkpt><trkpt lat="42.65869576858514" lon="12.734088714331113"><ele>571.0</ele><time>2026-05-03T12:52:36.999Z</time></trkpt><trkpt lat="42.65863077587431" lon="12.734171910927202"><ele>565.6666666666667</ele><time>2026-05-03T12:52:37.999Z</time></trkpt><trkpt lat="42.65857385554254" lon="12.734252475534902"><ele>560.3333333333334</ele><time>2026-05-03T12:52:38.999Z</time></trkpt><trkpt lat="42.65854243395855" lon="12.734348830330227"><ele>555.0</ele><time>2026-05-03T12:52:39.999Z</time></trkpt><trkpt lat="42.658517113298416" lon="12.734451419370007"><ele>549.6666666666666</ele><time>2026-05-03T12:52:40.999Z</time></trkpt><trkpt lat="42.65849676083383" lon="12.734567987056014"><ele>544.3333333333333</ele><time>2026-05-03T12:52:41.999Z</time></trkpt><trkpt lat="42.65847801506283" lon="12.73469139976182"><ele>539.0</ele><time>2026-05-03T12:52:42.999Z</time></trkpt><trkpt lat="42.65845154407806" lon="12.734810188204587"><ele>538.8333333333333</ele><time>2026-05-03T12:52:43.999Z</time></trkpt><trkpt lat="42.658432964810025" lon="12.734932779948721"><ele>538.6666666666666</ele><time>2026-05-03T12:52:44.999Z</time></trkpt><trkpt lat="42.65842331894845" lon="12.735044260446632"><ele>538.5</ele><time>2026-05-03T12:52:45.999Z</time></trkpt><trkpt lat="42.6584311157104" lon="12.735158046746948"><ele>538.3333333333334</ele><time>2026-05-03T12:52:46.999Z</time></trkpt><trkpt lat="42.65845205121756" lon="12.735273249905907"><ele>538.1666666666667</ele><time>2026-05-03T12:52:47.999Z</time></trkpt><trkpt lat="42.65847786225448" lon="12.735383054053102"><ele>538.0</ele><time>2026-05-03T12:52:48.999Z</time></trkpt><trkpt lat="42.65851623890379" lon="12.7354914796837"><ele>539.0</ele><time>2026-05-03T12:52:49.999Z</time></trkpt><trkpt lat="42.65856145619625" lon="12.735604092232634"><ele>540.0</ele><time>2026-05-03T12:52:50.999Z</time></trkpt><trkpt lat="42.65860828236344" lon="12.73570852991288"><ele>541.0</ele><time>2026-05-03T12:52:51.999Z</time></trkpt><trkpt lat="42.65866028494984" lon="12.735807887869255"><ele>542.0</ele><time>2026-05-03T12:52:52.999Z</time></trkpt><trkpt lat="42.65870354750686" lon="12.735903925608232"><ele>543.0</ele><time>2026-05-03T12:52:53.999Z</time></trkpt><trkpt lat="42.65875046392689" lon="12.735981513882367"><ele>544.0</ele><time>2026-05-03T12:52:54.999Z</time></trkpt><trkpt lat="42.65879668162739" lon="12.736074422388215"><ele>544.0</ele><time>2026-05-03T12:52:55.999Z</time></trkpt><trkpt lat="42.6588325687332" lon="12.73616282836924"><ele>544.0</ele><time>2026-05-03T12:52:56.999Z</time></trkpt><trkpt lat="42.65883679230244" lon="12.736267449830267"><ele>544.0</ele><time>2026-05-03T12:52:58.999Z</time></trkpt><trkpt lat="42.65874723359759" lon="12.736300976374288"><ele>544.0</ele><time>2026-05-03T12:53:00.999Z</time></trkpt><trkpt lat="42.658694943980194" lon="12.736178864828853"><ele>544.0</ele><time>2026-05-03T12:53:02.999Z</time></trkpt><trkpt lat="42.65863352665362" lon="12.73606879357187"><ele>541.5</ele><time>2026-05-03T12:53:04.999Z</time></trkpt><trkpt lat="42.658556019382246" lon="12.73596252502444"><ele>539.0</ele><time>2026-05-03T12:53:06.999Z</time></trkpt><trkpt lat="42.65847674993806" lon="12.735845540250962"><ele>536.5</ele><time>2026-05-03T12:53:08.999Z</time></trkpt><trkpt lat="42.65843723891062" lon="12.735766409283405"><ele>534.0</ele><time>2026-05-03T12:53:09.999Z</time></trkpt><trkpt lat="42.658388053225565" lon="12.735692253377382"><ele>531.5</ele><time>2026-05-03T12:53:10.999Z</time></trkpt><trkpt lat="42.658336575538556" lon="12.735614641977598"><ele>529.0</ele><time>2026-05-03T12:53:11.999Z</time></trkpt><trkpt lat="42.65827839919178" lon="12.735526931100994"><ele>529.0</ele><time>2026-05-03T12:53:12.999Z</time></trkpt><trkpt lat="42.65822019626311" lon="12.735439180238172"><ele>529.0</ele><time>2026-05-03T12:53:13.999Z</time></trkpt><trkpt lat="42.65815115458563" lon="12.73535532888504"><ele>529.0</ele><time>2026-05-03T12:53:14.999Z</time></trkpt><trkpt lat="42.65808392169766" lon="12.73526665938251"><ele>529.0</ele><time>2026-05-03T12:53:15.999Z</time></trkpt><trkpt lat="42.65803071038366" lon="12.735153949592203"><ele>529.0</ele><time>2026-05-03T12:53:16.999Z</time></trkpt><trkpt lat="42.65795405214715" lon="12.735060849012212"><ele>530.8</ele><time>2026-05-03T12:53:17.999Z</time></trkpt><trkpt lat="42.65788779172636" lon="12.734950669075209"><ele>532.5999999999999</ele><time>2026-05-03T12:53:18.999Z</time></trkpt><trkpt lat="42.65782606968604" lon="12.7348369527209"><ele>534.4</ele><time>2026-05-03T12:53:19.999Z</time></trkpt><trkpt lat="42.65776622808148" lon="12.734726285724172"><ele>536.1999999999999</ele><time>2026-05-03T12:53:20.999Z</time></trkpt><trkpt lat="42.657705999114846" lon="12.734622639198456"><ele>538.0</ele><time>2026-05-03T12:53:21.999Z</time></trkpt><trkpt lat="42.65764199166969" lon="12.734531058643716"><ele>534.5</ele><time>2026-05-03T12:53:22.999Z</time></trkpt><trkpt lat="42.65759296436467" lon="12.734447140734336"><ele>531.0</ele><time>2026-05-03T12:53:23.999Z</time></trkpt><trkpt lat="42.65752021972765" lon="12.734408634057646"><ele>527.5</ele><time>2026-05-03T12:53:24.999Z</time></trkpt><trkpt lat="42.65744233734623" lon="12.734405403051344"><ele>524.0</ele><time>2026-05-03T12:53:25.999Z</time></trkpt><trkpt lat="42.65736671428958" lon="12.734413697413629"><ele>520.5</ele><time>2026-05-03T12:53:26.999Z</time></trkpt><trkpt lat="42.657303997247354" lon="12.734504133736905"><ele>517.0</ele><time>2026-05-03T12:53:27.999Z</time></trkpt><trkpt lat="42.657223770610756" lon="12.734526266974262"><ele>517.0</ele><time>2026-05-03T12:53:28.999Z</time></trkpt><trkpt lat="42.65715339633018" lon="12.7345452718326"><ele>517.0</ele><time>2026-05-03T12:53:29.999Z</time></trkpt><trkpt lat="42.657082379697826" lon="12.734517083884121"><ele>517.0</ele><time>2026-05-03T12:53:30.999Z</time></trkpt><trkpt lat="42.65700186544687" lon="12.734475308897732"><ele>517.0</ele><time>2026-05-03T12:53:31.999Z</time></trkpt><trkpt lat="42.656929259069116" lon="12.734385678902953"><ele>517.0</ele><time>2026-05-03T12:53:32.999Z</time></trkpt><trkpt lat="42.65685357010375" lon="12.73430243456568"><ele>517.0</ele><time>2026-05-03T12:53:33.999Z</time></trkpt><trkpt lat="42.656769057997195" lon="12.734232249830571"><ele>516.2</ele><time>2026-05-03T12:53:34.999Z</time></trkpt><trkpt lat="42.656679216205255" lon="12.734196773015904"><ele>515.4000000000001</ele><time>2026-05-03T12:53:35.999Z</time></trkpt><trkpt lat="42.65658060336911" lon="12.734197978851906"><ele>514.5999999999999</ele><time>2026-05-03T12:53:36.999Z</time></trkpt><trkpt lat="42.656488952376186" lon="12.734222339660507"><ele>513.8</ele><time>2026-05-03T12:53:37.999Z</time></trkpt><trkpt lat="42.656401408855636" lon="12.73423355087637"><ele>513.0</ele><time>2026-05-03T12:53:38.999Z</time></trkpt><trkpt lat="42.656321154241006" lon="12.734202197081467"><ele>513.0</ele><time>2026-05-03T12:53:39.999Z</time></trkpt><trkpt lat="42.65626014159975" lon="12.734113395145346"><ele>513.0</ele><time>2026-05-03T12:53:40.999Z</time></trkpt><trkpt lat="42.65617879607928" lon="12.73403695312394"><ele>513.0</ele><time>2026-05-03T12:53:41.999Z</time></trkpt><trkpt lat="42.65611265495525" lon="12.733924367971593"><ele>513.0</ele><time>2026-05-03T12:53:42.999Z</time></trkpt><trkpt lat="42.65605820533913" lon="12.733813077484166"><ele>513.0</ele><time>2026-05-03T12:53:43.999Z</time></trkpt><trkpt lat="42.6560053138788" lon="12.733717957682613"><ele>511.2</ele><time>2026-05-03T12:53:44.999Z</time></trkpt><trkpt lat="42.655930932134865" lon="12.733642911178082"><ele>509.4</ele><time>2026-05-03T12:53:45.999Z</time></trkpt><trkpt lat="42.65583861515778" lon="12.733605402195103"><ele>507.59999999999997</ele><time>2026-05-03T12:53:46.999Z</time></trkpt><trkpt lat="42.655738247340224" lon="12.733590529636423"><ele>505.79999999999995</ele><time>2026-05-03T12:53:47.999Z</time></trkpt><trkpt lat="42.65563639958389" lon="12.733566997231346"><ele>504.0</ele><time>2026-05-03T12:53:48.999Z</time></trkpt><trkpt lat="42.655532339606204" lon="12.733533917648229"><ele>504.79999999999995</ele><time>2026-05-03T12:53:49.999Z</time></trkpt><trkpt lat="42.65543113741393" lon="12.733505336493382"><ele>505.59999999999997</ele><time>2026-05-03T12:53:50.999Z</time></trkpt><trkpt lat="42.65533198364061" lon="12.733464040905977"><ele>506.4</ele><time>2026-05-03T12:53:51.999Z</time></trkpt><trkpt lat="42.65522973306593" lon="12.733433408877659"><ele>507.2</ele><time>2026-05-03T12:53:52.999Z</time></trkpt><trkpt lat="42.65513118000888" lon="12.733421703003595"><ele>508.0</ele><time>2026-05-03T12:53:53.999Z</time></trkpt><trkpt lat="42.655027626923435" lon="12.733389821937173"><ele>508.0</ele><time>2026-05-03T12:53:54.999Z</time></trkpt><trkpt lat="42.65492579879358" lon="12.733356636053195"><ele>507.99999999999994</ele><time>2026-05-03T12:53:55.999Z</time></trkpt><trkpt lat="42.65482429355882" lon="12.7333336041223"><ele>507.99999999999994</ele><time>2026-05-03T12:53:56.999Z</time></trkpt><trkpt lat="42.65472042465184" lon="12.733313448800802"><ele>508.0</ele><time>2026-05-03T12:53:57.999Z</time></trkpt><trkpt lat="42.654614424540576" lon="12.733314650058844"><ele>508.0</ele><time>2026-05-03T12:53:58.999Z</time></trkpt><trkpt lat="42.65451160708618" lon="12.733318697266863"><ele>507.0</ele><time>2026-05-03T12:53:59.999Z</time></trkpt><trkpt lat="42.654410321461995" lon="12.733319847246035"><ele>505.99999999999994</ele><time>2026-05-03T12:54:00.999Z</time></trkpt><trkpt lat="42.65431119405157" lon="12.733320880987508"><ele>504.99999999999994</ele><time>2026-05-03T12:54:01.999Z</time></trkpt><trkpt lat="42.654211937929944" lon="12.733323840090957"><ele>504.0</ele><time>2026-05-03T12:54:02.999Z</time></trkpt><trkpt lat="42.654122200057735" lon="12.733339884648483"><ele>503.0</ele><time>2026-05-03T12:54:03.999Z</time></trkpt><trkpt lat="42.65402601508858" lon="12.733354440604897"><ele>503.0</ele><time>2026-05-03T12:54:04.999Z</time></trkpt><trkpt lat="42.65393482790252" lon="12.733391998662835"><ele>502.99999999999994</ele><time>2026-05-03T12:54:05.999Z</time></trkpt><trkpt lat="42.65383790378279" lon="12.733413401296602"><ele>502.99999999999994</ele><time>2026-05-03T12:54:06.999Z</time></trkpt><trkpt lat="42.65374614233432" lon="12.73345490672164"><ele>503.0</ele><time>2026-05-03T12:54:07.999Z</time></trkpt><trkpt lat="42.653653919089614" lon="12.733500133469075"><ele>503.0</ele><time>2026-05-03T12:54:08.999Z</time></trkpt><trkpt lat="42.65356405451406" lon="12.733553237280333"><ele>497.75</ele><time>2026-05-03T12:54:09.999Z</time></trkpt><trkpt lat="42.653395530987915" lon="12.73370959356997"><ele>492.5</ele><time>2026-05-03T12:54:11.999Z</time></trkpt><trkpt lat="42.653319004080444" lon="12.7337928127904"><ele>487.25</ele><time>2026-05-03T12:54:12.999Z</time></trkpt><trkpt lat="42.65324338720106" lon="12.733875473439618"><ele>482.0</ele><time>2026-05-03T12:54:13.999Z</time></trkpt><trkpt lat="42.65316494633297" lon="12.733957415653387"><ele>482.0</ele><time>2026-05-03T12:54:14.999Z</time></trkpt><trkpt lat="42.65309601531118" lon="12.734045874090878"><ele>482.00000000000006</ele><time>2026-05-03T12:54:15.999Z</time></trkpt><trkpt lat="42.65299706821306" lon="12.734081653433384"><ele>482.00000000000006</ele><time>2026-05-03T12:54:16.999Z</time></trkpt><trkpt lat="42.65289861091881" lon="12.734128739908595"><ele>482.0</ele><time>2026-05-03T12:54:17.999Z</time></trkpt><trkpt lat="42.65279631498986" lon="12.734168768669667"><ele>482.0</ele><time>2026-05-03T12:54:18.999Z</time></trkpt><trkpt lat="42.652689388226456" lon="12.734209468245302"><ele>481.0</ele><time>2026-05-03T12:54:19.999Z</time></trkpt><trkpt lat="42.65257920046205" lon="12.734251924268962"><ele>480.0</ele><time>2026-05-03T12:54:20.999Z</time></trkpt><trkpt lat="42.65247201339084" lon="12.734295315070366"><ele>479.0</ele><time>2026-05-03T12:54:21.999Z</time></trkpt><trkpt lat="42.65236226186492" lon="12.734360868978953"><ele>478.0</ele><time>2026-05-03T12:54:22.999Z</time></trkpt><trkpt lat="42.652247968416724" lon="12.734400952273257"><ele>478.0</ele><time>2026-05-03T12:54:23.999Z</time></trkpt><trkpt lat="42.65213578427479" lon="12.734442737794263"><ele>478.0</ele><time>2026-05-03T12:54:24.999Z</time></trkpt><trkpt lat="42.65201854645752" lon="12.734488114411539"><ele>478.0</ele><time>2026-05-03T12:54:25.999Z</time></trkpt><trkpt lat="42.65190524096527" lon="12.734518652890793"><ele>478.0</ele><time>2026-05-03T12:54:26.999Z</time></trkpt><trkpt lat="42.65177850420555" lon="12.734524231591921"><ele>475.75</ele><time>2026-05-03T12:54:27.999Z</time></trkpt><trkpt lat="42.6516605393791" lon="12.734561083339292"><ele>473.5</ele><time>2026-05-03T12:54:28.999Z</time></trkpt><trkpt lat="42.65153247608436" lon="12.734587741000022"><ele>471.25</ele><time>2026-05-03T12:54:29.999Z</time></trkpt><trkpt lat="42.65140246365992" lon="12.734617586422834"><ele>469.0</ele><time>2026-05-03T12:54:30.999Z</time></trkpt><trkpt lat="42.651277570370276" lon="12.734657742630677"><ele>469.0</ele><time>2026-05-03T12:54:31.999Z</time></trkpt><trkpt lat="42.651150861696415" lon="12.734702491597124"><ele>469.0</ele><time>2026-05-03T12:54:32.999Z</time></trkpt><trkpt lat="42.65103519362622" lon="12.734735379374548"><ele>469.0</ele><time>2026-05-03T12:54:33.999Z</time></trkpt><trkpt lat="42.650908167605905" lon="12.734763304913363"><ele>469.0</ele><time>2026-05-03T12:54:34.999Z</time></trkpt><trkpt lat="42.6507900256308" lon="12.73478041918235"><ele>469.75</ele><time>2026-05-03T12:54:35.999Z</time></trkpt><trkpt lat="42.65067101818567" lon="12.73479842155222"><ele>470.5</ele><time>2026-05-03T12:54:36.999Z</time></trkpt><trkpt lat="42.65055315988056" lon="12.73483093725723"><ele>471.25</ele><time>2026-05-03T12:54:37.999Z</time></trkpt><trkpt lat="42.6504313528346" lon="12.734840400029016"><ele>472.0</ele><time>2026-05-03T12:54:38.999Z</time></trkpt><trkpt lat="42.65031463047882" lon="12.734873263273613"><ele>473.0</ele><time>2026-05-03T12:54:39.999Z</time></trkpt><trkpt lat="42.65019407063543" lon="12.734892216193574"><ele>474.0</ele><time>2026-05-03T12:54:40.999Z</time></trkpt><trkpt lat="42.650066780915736" lon="12.734904595149807"><ele>475.0</ele><time>2026-05-03T12:54:41.999Z</time></trkpt><trkpt lat="42.64994032936111" lon="12.734908718928246"><ele>476.0</ele><time>2026-05-03T12:54:42.999Z</time></trkpt><trkpt lat="42.649814828212236" lon="12.734911135876866"><ele>476.0</ele><time>2026-05-03T12:54:43.999Z</time></trkpt><trkpt lat="42.64969252204459" lon="12.734921286093288"><ele>476.0</ele><time>2026-05-03T12:54:44.999Z</time></trkpt><trkpt lat="42.64958147672363" lon="12.734886977486354"><ele>476.0</ele><time>2026-05-03T12:54:45.999Z</time></trkpt><trkpt lat="42.64947476339148" lon="12.734902107153061"><ele>476.0</ele><time>2026-05-03T12:54:46.999Z</time></trkpt><trkpt lat="42.6493738192508" lon="12.734908022554237"><ele>476.0</ele><time>2026-05-03T12:54:47.999Z</time></trkpt><trkpt lat="42.64927134122355" lon="12.734953452545914"><ele>475.75</ele><time>2026-05-03T12:54:48.999Z</time></trkpt><trkpt lat="42.6491566687199" lon="12.734981765584918"><ele>475.5</ele><time>2026-05-03T12:54:49.999Z</time></trkpt><trkpt lat="42.64903896780784" lon="12.735002450042044"><ele>475.25</ele><time>2026-05-03T12:54:50.999Z</time></trkpt><trkpt lat="42.64892322702742" lon="12.735018733209552"><ele>475.0</ele><time>2026-05-03T12:54:51.999Z</time></trkpt><trkpt lat="42.64880120896812" lon="12.735035899488073"><ele>475.0</ele><time>2026-05-03T12:54:52.999Z</time></trkpt><trkpt lat="42.648691379953576" lon="12.735051350937725"><ele>475.0</ele><time>2026-05-03T12:54:53.999Z</time></trkpt><trkpt lat="42.64859609710218" lon="12.735070022976485"><ele>475.0</ele><time>2026-05-03T12:54:54.999Z</time></trkpt><trkpt lat="42.64851355775962" lon="12.735067995769695"><ele>475.0</ele><time>2026-05-03T12:54:55.999Z</time></trkpt><trkpt lat="42.64843681261418" lon="12.73503338997101"><ele>475.0</ele><time>2026-05-03T12:54:56.999Z</time></trkpt><trkpt lat="42.648370539033834" lon="12.734952339273706"><ele>471.8</ele><time>2026-05-03T12:54:57.999Z</time></trkpt><trkpt lat="42.648280636672574" lon="12.734894035513827"><ele>468.6</ele><time>2026-05-03T12:54:58.999Z</time></trkpt><trkpt lat="42.648188573415005" lon="12.734802270482088"><ele>465.4</ele><time>2026-05-03T12:54:59.999Z</time></trkpt><trkpt lat="42.64811764597354" lon="12.73467639292137"><ele>462.2</ele><time>2026-05-03T12:55:00.999Z</time></trkpt><trkpt lat="42.64802325201166" lon="12.734583608983487"><ele>459.0</ele><time>2026-05-03T12:55:01.999Z</time></trkpt><trkpt lat="42.64793509813061" lon="12.734489210331013"><ele>459.0</ele><time>2026-05-03T12:55:02.999Z</time></trkpt><trkpt lat="42.647831051482044" lon="12.734428768045355"><ele>459.0</ele><time>2026-05-03T12:55:03.999Z</time></trkpt><trkpt lat="42.64771228621065" lon="12.734397112678277"><ele>459.0</ele><time>2026-05-03T12:55:04.999Z</time></trkpt><trkpt lat="42.64759040635985" lon="12.734356318726286"><ele>459.0</ele><time>2026-05-03T12:55:05.999Z</time></trkpt><trkpt lat="42.647476017713224" lon="12.734309155391983"><ele>460.0</ele><time>2026-05-03T12:55:06.999Z</time></trkpt><trkpt lat="42.647366417281624" lon="12.73423344355109"><ele>461.0</ele><time>2026-05-03T12:55:07.999Z</time></trkpt><trkpt lat="42.64725707479142" lon="12.734169892852782"><ele>462.0</ele><time>2026-05-03T12:55:08.999Z</time></trkpt><trkpt lat="42.64714910369488" lon="12.734095548646193"><ele>463.0</ele><time>2026-05-03T12:55:09.999Z</time></trkpt><trkpt lat="42.64704101189964" lon="12.73401392229833"><ele>458.25</ele><time>2026-05-03T12:55:10.999Z</time></trkpt><trkpt lat="42.64692455962392" lon="12.733941870779116"><ele>453.5</ele><time>2026-05-03T12:55:11.999Z</time></trkpt><trkpt lat="42.64680723988156" lon="12.733846875410613"><ele>448.75</ele><time>2026-05-03T12:55:12.999Z</time></trkpt><trkpt lat="42.64669348316306" lon="12.733737554680376"><ele>444.0</ele><time>2026-05-03T12:55:13.999Z</time></trkpt><trkpt lat="42.64658612976747" lon="12.733629298079771"><ele>446.25</ele><time>2026-05-03T12:55:14.999Z</time></trkpt><trkpt lat="42.64648360814907" lon="12.733523837017795"><ele>448.5</ele><time>2026-05-03T12:55:15.999Z</time></trkpt><trkpt lat="42.6463861999624" lon="12.733422779096397"><ele>450.75</ele><time>2026-05-03T12:55:16.999Z</time></trkpt><trkpt lat="42.64629557645711" lon="12.733316135746788"><ele>453.0</ele><time>2026-05-03T12:55:17.999Z</time></trkpt><trkpt lat="42.646204564974994" lon="12.733216351429016"><ele>449.0</ele><time>2026-05-03T12:55:18.999Z</time></trkpt><trkpt lat="42.646113633445054" lon="12.733135501349514"><ele>444.99999999999994</ele><time>2026-05-03T12:55:19.999Z</time></trkpt><trkpt lat="42.64601505889602" lon="12.73307410779671"><ele>440.99999999999994</ele><time>2026-05-03T12:55:20.999Z</time></trkpt><trkpt lat="42.64592156108986" lon="12.733025781909069"><ele>437.0</ele><time>2026-05-03T12:55:21.999Z</time></trkpt><trkpt lat="42.64583430034494" lon="12.732978031253248"><ele>433.0</ele><time>2026-05-03T12:55:22.999Z</time></trkpt><trkpt lat="42.64574855177512" lon="12.73292841795418"><ele>433.0</ele><time>2026-05-03T12:55:23.999Z</time></trkpt><trkpt lat="42.645662155754266" lon="12.732881631465935"><ele>432.99999999999994</ele><time>2026-05-03T12:55:24.999Z</time></trkpt><trkpt lat="42.64557778868482" lon="12.73283012032812"><ele>432.99999999999994</ele><time>2026-05-03T12:55:25.999Z</time></trkpt><trkpt lat="42.64549114169204" lon="12.732787739664811"><ele>433.0</ele><time>2026-05-03T12:55:26.999Z</time></trkpt><trkpt lat="42.645407232650435" lon="12.732749797752533"><ele>433.0</ele><time>2026-05-03T12:55:27.999Z</time></trkpt><trkpt lat="42.645324269932814" lon="12.732716925524974"><ele>432.33333333333337</ele><time>2026-05-03T12:55:28.999Z</time></trkpt><trkpt lat="42.645240572595704" lon="12.732672350139646"><ele>431.6666666666667</ele><time>2026-05-03T12:55:29.999Z</time></trkpt><trkpt lat="42.64515668642412" lon="12.732643297055205"><ele>431.0</ele><time>2026-05-03T12:55:30.999Z</time></trkpt><trkpt lat="42.645072181891564" lon="12.732621135647864"><ele>430.33333333333337</ele><time>2026-05-03T12:55:31.999Z</time></trkpt><trkpt lat="42.64498701387456" lon="12.732600513286405"><ele>429.6666666666667</ele><time>2026-05-03T12:55:32.999Z</time></trkpt><trkpt lat="42.64490238571535" lon="12.732573097999955"><ele>429.0</ele><time>2026-05-03T12:55:33.999Z</time></trkpt><trkpt lat="42.64481715345336" lon="12.73254072729506"><ele>429.0</ele><time>2026-05-03T12:55:34.999Z</time></trkpt><trkpt lat="42.64473611746155" lon="12.732504139875156"><ele>429.0</ele><time>2026-05-03T12:55:35.999Z</time></trkpt><trkpt lat="42.64465352211368" lon="12.732463869976518"><ele>429.0</ele><time>2026-05-03T12:55:36.999Z</time></trkpt><trkpt lat="42.64457383593889" lon="12.732421220319239"><ele>429.0</ele><time>2026-05-03T12:55:37.999Z</time></trkpt><trkpt lat="42.644497314939784" lon="12.732376764789498"><ele>429.0</ele><time>2026-05-03T12:55:38.999Z</time></trkpt><trkpt lat="42.64443108563068" lon="12.732338917769123"><ele>429.0</ele><time>2026-05-03T12:55:39.999Z</time></trkpt><trkpt lat="42.64436116717536" lon="12.732309192605925"><ele>428.42857142857144</ele><time>2026-05-03T12:55:40.999Z</time></trkpt><trkpt lat="42.64429737696019" lon="12.732282208898095"><ele>427.8571428571429</ele><time>2026-05-03T12:55:41.999Z</time></trkpt><trkpt lat="42.64422969059517" lon="12.732254725127712"><ele>427.2857142857143</ele><time>2026-05-03T12:55:42.999Z</time></trkpt><trkpt lat="42.644160856990254" lon="12.732231547496612"><ele>426.7142857142857</ele><time>2026-05-03T12:55:43.999Z</time></trkpt><trkpt lat="42.644086806206204" lon="12.732216338098024"><ele>426.1428571428571</ele><time>2026-05-03T12:55:44.999Z</time></trkpt><trkpt lat="42.644011013648566" lon="12.732174500237228"><ele>425.57142857142856</ele><time>2026-05-03T12:55:45.999Z</time></trkpt><trkpt lat="42.643939450985584" lon="12.732180413191552"><ele>425.0</ele><time>2026-05-03T12:55:46.999Z</time></trkpt><trkpt lat="42.643834081365995" lon="12.732145169593938"><ele>425.0</ele><time>2026-05-03T12:55:47.999Z</time></trkpt><trkpt lat="42.643729518038775" lon="12.732159056134511"><ele>425.0</ele><time>2026-05-03T12:55:48.999Z</time></trkpt><trkpt lat="42.643612718852204" lon="12.732158237487239"><ele>425.0</ele><time>2026-05-03T12:55:49.999Z</time></trkpt><trkpt lat="42.64350388546634" lon="12.732172809148594"><ele>425.0</ele><time>2026-05-03T12:55:50.999Z</time></trkpt><trkpt lat="42.64339111638586" lon="12.732165539588628"><ele>425.0</ele><time>2026-05-03T12:55:51.999Z</time></trkpt><trkpt lat="42.643278374578045" lon="12.73217994982605"><ele>424.25</ele><time>2026-05-03T12:55:52.999Z</time></trkpt><trkpt lat="42.64316552751935" lon="12.732194256958042"><ele>423.5</ele><time>2026-05-03T12:55:53.999Z</time></trkpt><trkpt lat="42.64303785084083" lon="12.732210342215167"><ele>422.75</ele><time>2026-05-03T12:55:54.999Z</time></trkpt><trkpt lat="42.642908043279775" lon="12.73222669591141"><ele>422.0</ele><time>2026-05-03T12:55:55.999Z</time></trkpt><trkpt lat="42.64275477945858" lon="12.732244958707275"><ele>421.3333333333333</ele><time>2026-05-03T12:55:56.999Z</time></trkpt><trkpt lat="42.64259404559764" lon="12.732262782912828"><ele>420.66666666666663</ele><time>2026-05-03T12:55:57.999Z</time></trkpt><trkpt lat="42.642430397913174" lon="12.732279238008356"><ele>420.0</ele><time>2026-05-03T12:55:58.999Z</time></trkpt><trkpt lat="42.64226544769214" lon="12.732303685708814"><ele>420.0</ele><time>2026-05-03T12:55:59.999Z</time></trkpt><trkpt lat="42.64209851745598" lon="12.732319908577141"><ele>420.0</ele><time>2026-05-03T12:56:00.999Z</time></trkpt><trkpt lat="42.64194754188639" lon="12.732336091017684"><ele>420.0</ele><time>2026-05-03T12:56:01.999Z</time></trkpt><trkpt lat="42.64179135906627" lon="12.732327052309207"><ele>418.33333333333337</ele><time>2026-05-03T12:56:02.999Z</time></trkpt><trkpt lat="42.64163798364128" lon="12.7323206580489"><ele>416.6666666666667</ele><time>2026-05-03T12:56:03.999Z</time></trkpt><trkpt lat="42.641486357200485" lon="12.73231298908132"><ele>415.0</ele><time>2026-05-03T12:56:04.999Z</time></trkpt><trkpt lat="42.64133783855456" lon="12.73232537056735"><ele>415.0</ele><time>2026-05-03T12:56:05.999Z</time></trkpt><trkpt lat="42.641192326445314" lon="12.732308538517971"><ele>415.0</ele><time>2026-05-03T12:56:07Z</time></trkpt><trkpt lat="42.641050713680684" lon="12.732259117838305"><ele>415.0</ele><time>2026-05-03T12:56:08Z</time></trkpt><trkpt lat="42.64091338116609" lon="12.732233883271663"><ele>415.0</ele><time>2026-05-03T12:56:09Z</time></trkpt><trkpt lat="42.64077292350692" lon="12.732212917874431"><ele>414.0</ele><time>2026-05-03T12:56:10Z</time></trkpt><trkpt lat="42.64063652993562" lon="12.732195933545976"><ele>413.0</ele><time>2026-05-03T12:56:11Z</time></trkpt><trkpt lat="42.64049505683396" lon="12.732206577129173"><ele>412.0</ele><time>2026-05-03T12:56:12Z</time></trkpt><trkpt lat="42.640360637570694" lon="12.732198095462696"><ele>411.0</ele><time>2026-05-03T12:56:13Z</time></trkpt><trkpt lat="42.64022610341209" lon="12.732189420222799"><ele>409.5</ele><time>2026-05-03T12:56:14Z</time></trkpt><trkpt lat="42.6400828050055" lon="12.732194558270232"><ele>408.0</ele><time>2026-05-03T12:56:15Z</time></trkpt><trkpt lat="42.639940582212816" lon="12.732191679747782"><ele>406.5</ele><time>2026-05-03T12:56:16Z</time></trkpt><trkpt lat="42.6398048688739" lon="12.732197046278202"><ele>405.0</ele><time>2026-05-03T12:56:17Z</time></trkpt><trkpt lat="42.63966853850077" lon="12.732197067237621"><ele>405.0</ele><time>2026-05-03T12:56:18Z</time></trkpt><trkpt lat="42.63952993717518" lon="12.732185446714695"><ele>405.0</ele><time>2026-05-03T12:56:19Z</time></trkpt><trkpt lat="42.63940328990027" lon="12.732137504898233"><ele>405.0</ele><time>2026-05-03T12:56:20Z</time></trkpt><trkpt lat="42.63926581406683" lon="12.732125219070594"><ele>405.0</ele><time>2026-05-03T12:56:21Z</time></trkpt><trkpt lat="42.63913661913191" lon="12.732084366367102"><ele>404.5</ele><time>2026-05-03T12:56:22Z</time></trkpt><trkpt lat="42.63901269072148" lon="12.732042505778884"><ele>404.0</ele><time>2026-05-03T12:56:23Z</time></trkpt><trkpt lat="42.6388873130891" lon="12.732018367632175"><ele>403.5</ele><time>2026-05-03T12:56:24Z</time></trkpt><trkpt lat="42.638765143182674" lon="12.732001059475255"><ele>403.0</ele><time>2026-05-03T12:56:25Z</time></trkpt><trkpt lat="42.638644715689715" lon="12.731967359721802"><ele>402.25</ele><time>2026-05-03T12:56:26Z</time></trkpt><trkpt lat="42.63852467161625" lon="12.731954462449007"><ele>401.5</ele><time>2026-05-03T12:56:27Z</time></trkpt><trkpt lat="42.63840726246247" lon="12.731942214617552"><ele>400.75</ele><time>2026-05-03T12:56:28Z</time></trkpt><trkpt lat="42.63828972795055" lon="12.731952245694911"><ele>400.0</ele><time>2026-05-03T12:56:29Z</time></trkpt><trkpt lat="42.638174268595264" lon="12.731914093970573"><ele>400.0</ele><time>2026-05-03T12:56:30Z</time></trkpt><trkpt lat="42.638064803966444" lon="12.731893354174954"><ele>400.0</ele><time>2026-05-03T12:56:31Z</time></trkpt><trkpt lat="42.63795350375096" lon="12.73186586221397"><ele>400.0</ele><time>2026-05-03T12:56:32Z</time></trkpt><trkpt lat="42.637844070422865" lon="12.731830694091656"><ele>400.0</ele><time>2026-05-03T12:56:33Z</time></trkpt><trkpt lat="42.63773311444049" lon="12.73179422170295"><ele>401.4</ele><time>2026-05-03T12:56:34Z</time></trkpt><trkpt lat="42.63762460886755" lon="12.73175987894915"><ele>402.8</ele><time>2026-05-03T12:56:34.999Z</time></trkpt><trkpt lat="42.63751542092144" lon="12.731725320239802"><ele>404.20000000000005</ele><time>2026-05-03T12:56:35.999Z</time></trkpt><trkpt lat="42.63740707280521" lon="12.731691027323299"><ele>405.6</ele><time>2026-05-03T12:56:36.999Z</time></trkpt><trkpt lat="42.63730123638978" lon="12.731657529393365"><ele>407.0</ele><time>2026-05-03T12:56:37.999Z</time></trkpt><trkpt lat="42.63719469843331" lon="12.731645656058397"><ele>407.0</ele><time>2026-05-03T12:56:38.999Z</time></trkpt><trkpt lat="42.63709215909857" lon="12.731608539784942"><ele>407.0</ele><time>2026-05-03T12:56:39.999Z</time></trkpt><trkpt lat="42.636989220306276" lon="12.73158855365001"><ele>407.0</ele><time>2026-05-03T12:56:40.999Z</time></trkpt><trkpt lat="42.63689025115453" lon="12.73154744515881"><ele>407.0</ele><time>2026-05-03T12:56:41.999Z</time></trkpt><trkpt lat="42.636784773667344" lon="12.731529366056543"><ele>407.0</ele><time>2026-05-03T12:56:42.999Z</time></trkpt><trkpt lat="42.63668235630181" lon="12.73151228980377"><ele>405.40000000000003</ele><time>2026-05-03T12:56:43.999Z</time></trkpt><trkpt lat="42.63657743138405" lon="12.73149479544421"><ele>403.8</ele><time>2026-05-03T12:56:44.999Z</time></trkpt><trkpt lat="42.63647237039493" lon="12.731499729250034"><ele>402.2</ele><time>2026-05-03T12:56:45.999Z</time></trkpt><trkpt lat="42.63636807080299" lon="12.731481248767082"><ele>400.6</ele><time>2026-05-03T12:56:46.999Z</time></trkpt><trkpt lat="42.63626318108309" lon="12.731452156282003"><ele>399.0</ele><time>2026-05-03T12:56:47.999Z</time></trkpt><trkpt lat="42.636159143100066" lon="12.731432381579578"><ele>397.4</ele><time>2026-05-03T12:56:48.999Z</time></trkpt><trkpt lat="42.63605488338946" lon="12.731421381542734"><ele>395.79999999999995</ele><time>2026-05-03T12:56:49.999Z</time></trkpt><trkpt lat="42.6359494422558" lon="12.731398514290479"><ele>394.20000000000005</ele><time>2026-05-03T12:56:50.999Z</time></trkpt><trkpt lat="42.635846652845956" lon="12.731371655883592"><ele>392.6</ele><time>2026-05-03T12:56:51.999Z</time></trkpt><trkpt lat="42.635746259448425" lon="12.731343666305467"><ele>391.0</ele><time>2026-05-03T12:56:52.999Z</time></trkpt><trkpt lat="42.63564172916448" lon="12.731314706625191"><ele>391.0</ele><time>2026-05-03T12:56:53.999Z</time></trkpt><trkpt lat="42.6355432811328" lon="12.731274910714108"><ele>391.0</ele><time>2026-05-03T12:56:54.999Z</time></trkpt><trkpt lat="42.63544263108623" lon="12.731243154442238"><ele>391.0</ele><time>2026-05-03T12:56:55.999Z</time></trkpt><trkpt lat="42.635341640337266" lon="12.731204293686696"><ele>391.0</ele><time>2026-05-03T12:56:56.999Z</time></trkpt><trkpt lat="42.635240320594185" lon="12.73116901148175"><ele>391.0</ele><time>2026-05-03T12:56:57.999Z</time></trkpt><trkpt lat="42.635143926172354" lon="12.731125202553327"><ele>390.20000000000005</ele><time>2026-05-03T12:56:58.999Z</time></trkpt><trkpt lat="42.63504416304194" lon="12.731090280810305"><ele>389.40000000000003</ele><time>2026-05-03T12:56:59.999Z</time></trkpt><trkpt lat="42.63494468082683" lon="12.731058927763666"><ele>388.6</ele><time>2026-05-03T12:57:00.999Z</time></trkpt><trkpt lat="42.634846902703195" lon="12.73101704335786"><ele>387.8</ele><time>2026-05-03T12:57:01.999Z</time></trkpt><trkpt lat="42.634746650765535" lon="12.730985818874512"><ele>387.0</ele><time>2026-05-03T12:57:02.999Z</time></trkpt><trkpt lat="42.63464786222982" lon="12.730957938610397"><ele>387.40000000000003</ele><time>2026-05-03T12:57:03.999Z</time></trkpt><trkpt lat="42.634548944907216" lon="12.73092802294828"><ele>387.8</ele><time>2026-05-03T12:57:04.999Z</time></trkpt><trkpt lat="42.63445285831625" lon="12.730879608314707"><ele>388.2</ele><time>2026-05-03T12:57:05.999Z</time></trkpt><trkpt lat="42.634354895448574" lon="12.730852619740347"><ele>388.6</ele><time>2026-05-03T12:57:06.999Z</time></trkpt><trkpt lat="42.63425650573479" lon="12.730829411302512"><ele>389.0</ele><time>2026-05-03T12:57:07.999Z</time></trkpt><trkpt lat="42.63416234805152" lon="12.730807906081303"><ele>389.0</ele><time>2026-05-03T12:57:08.999Z</time></trkpt><trkpt lat="42.6340719954954" lon="12.730790295398151"><ele>389.0</ele><time>2026-05-03T12:57:09.999Z</time></trkpt><trkpt lat="42.63398472686665" lon="12.730773287456683"><ele>389.0</ele><time>2026-05-03T12:57:10.999Z</time></trkpt><trkpt lat="42.633892829597116" lon="12.730755595890201"><ele>389.0</ele><time>2026-05-03T12:57:11.999Z</time></trkpt><trkpt lat="42.633805382736675" lon="12.730752282812114"><ele>389.0</ele><time>2026-05-03T12:57:12.999Z</time></trkpt><trkpt lat="42.633712039212554" lon="12.73074336836302"><ele>387.4</ele><time>2026-05-03T12:57:13.999Z</time></trkpt><trkpt lat="42.63362026634874" lon="12.730703220526427"><ele>385.79999999999995</ele><time>2026-05-03T12:57:14.999Z</time></trkpt><trkpt lat="42.63352988323482" lon="12.730685151508588"><ele>384.20000000000005</ele><time>2026-05-03T12:57:15.999Z</time></trkpt><trkpt lat="42.6334438046061" lon="12.730667512439881"><ele>382.6</ele><time>2026-05-03T12:57:16.999Z</time></trkpt><trkpt lat="42.63335451834356" lon="12.730649216074829"><ele>381.0</ele><time>2026-05-03T12:57:17.999Z</time></trkpt><trkpt lat="42.633256087840145" lon="12.730629527333377"><ele>381.0</ele><time>2026-05-03T12:57:18.999Z</time></trkpt><trkpt lat="42.63316780926281" lon="12.730612148707117"><ele>381.0</ele><time>2026-05-03T12:57:19.999Z</time></trkpt><trkpt lat="42.633075801136684" lon="12.730594035882538"><ele>381.0</ele><time>2026-05-03T12:57:20.999Z</time></trkpt><trkpt lat="42.63298053892486" lon="12.730576910889631"><ele>381.0</ele><time>2026-05-03T12:57:21.999Z</time></trkpt><trkpt lat="42.63288517927476" lon="12.730571246883418"><ele>381.0</ele><time>2026-05-03T12:57:22.999Z</time></trkpt><trkpt lat="42.632786125843516" lon="12.730587405552617"><ele>380.20000000000005</ele><time>2026-05-03T12:57:23.999Z</time></trkpt><trkpt lat="42.63269166559538" lon="12.73061742961666"><ele>379.40000000000003</ele><time>2026-05-03T12:57:24.999Z</time></trkpt><trkpt lat="42.63260163820638" lon="12.73064547403698"><ele>378.6</ele><time>2026-05-03T12:57:25.999Z</time></trkpt><trkpt lat="42.632508811931515" lon="12.730671171831174"><ele>377.8</ele><time>2026-05-03T12:57:26.999Z</time></trkpt><trkpt lat="42.63241016217933" lon="12.73069847171571"><ele>377.0</ele><time>2026-05-03T12:57:27.999Z</time></trkpt><trkpt lat="42.63231189380845" lon="12.730725665986444"><ele>377.0</ele><time>2026-05-03T12:57:28.999Z</time></trkpt><trkpt lat="42.63221231337614" lon="12.730753020548498"><ele>377.0</ele><time>2026-05-03T12:57:29.999Z</time></trkpt><trkpt lat="42.63211859527851" lon="12.730778847645013"><ele>377.0</ele><time>2026-05-03T12:57:30.999Z</time></trkpt><trkpt lat="42.63201680231315" lon="12.730806900029355"><ele>377.0</ele><time>2026-05-03T12:57:31.999Z</time></trkpt><trkpt lat="42.63192326959694" lon="12.730832676034339"><ele>377.0</ele><time>2026-05-03T12:57:32.999Z</time></trkpt><trkpt lat="42.63182299507943" lon="12.73085975659562"><ele>376.6</ele><time>2026-05-03T12:57:33.999Z</time></trkpt><trkpt lat="42.6317281741447" lon="12.73088500185418"><ele>376.20000000000005</ele><time>2026-05-03T12:57:34.999Z</time></trkpt><trkpt lat="42.63163081140566" lon="12.730910923848807"><ele>375.8</ele><time>2026-05-03T12:57:35.999Z</time></trkpt><trkpt lat="42.63153400882221" lon="12.73093669670938"><ele>375.4</ele><time>2026-05-03T12:57:36.999Z</time></trkpt><trkpt lat="42.631443003888506" lon="12.730960780909273"><ele>375.0</ele><time>2026-05-03T12:57:37.999Z</time></trkpt><trkpt lat="42.63135504015633" lon="12.730983404674662"><ele>375.0</ele><time>2026-05-03T12:57:38.999Z</time></trkpt><trkpt lat="42.63126446891218" lon="12.731006699076556"><ele>375.0</ele><time>2026-05-03T12:57:39.999Z</time></trkpt><trkpt lat="42.63117261221278" lon="12.731030324088835"><ele>375.0</ele><time>2026-05-03T12:57:40.999Z</time></trkpt><trkpt lat="42.63108209056563" lon="12.731052399606826"><ele>375.0</ele><time>2026-05-03T12:57:41.999Z</time></trkpt><trkpt lat="42.630988535391786" lon="12.731073871281273"><ele>375.0</ele><time>2026-05-03T12:57:42.999Z</time></trkpt><trkpt lat="42.63090224245931" lon="12.731092912735054"><ele>375.3333333333333</ele><time>2026-05-03T12:57:43.999Z</time></trkpt><trkpt lat="42.630827393040455" lon="12.731107712794492"><ele>375.6666666666667</ele><time>2026-05-03T12:57:44.999Z</time></trkpt><trkpt lat="42.6307184582066" lon="12.73112792774745"><ele>376.0</ele><time>2026-05-03T12:57:45.999Z</time></trkpt><trkpt lat="42.63064105994918" lon="12.731142290482182"><ele>376.33333333333337</ele><time>2026-05-03T12:57:46.999Z</time></trkpt><trkpt lat="42.63056264383802" lon="12.731156842102434"><ele>376.6666666666667</ele><time>2026-05-03T12:57:47.999Z</time></trkpt><trkpt lat="42.630473631576066" lon="12.73117336003922"><ele>377.0</ele><time>2026-05-03T12:57:48.999Z</time></trkpt><trkpt lat="42.63038468733467" lon="12.731190106070637"><ele>375.83333333333337</ele><time>2026-05-03T12:57:49.999Z</time></trkpt><trkpt lat="42.63028571454077" lon="12.731209124788665"><ele>374.6666666666667</ele><time>2026-05-03T12:57:50.999Z</time></trkpt><trkpt lat="42.630194986229526" lon="12.73122629419417"><ele>373.5</ele><time>2026-05-03T12:57:51.999Z</time></trkpt><trkpt lat="42.630107641841875" lon="12.731241133631098"><ele>372.3333333333333</ele><time>2026-05-03T12:57:53Z</time></trkpt><trkpt lat="42.63002685986597" lon="12.73125446980686"><ele>371.16666666666663</ele><time>2026-05-03T12:57:54Z</time></trkpt><trkpt lat="42.629940216625975" lon="12.731270356142124"><ele>370.0</ele><time>2026-05-03T12:57:55Z</time></trkpt><trkpt lat="42.62985013898763" lon="12.731287037184297"><ele>370.0</ele><time>2026-05-03T12:57:56Z</time></trkpt><trkpt lat="42.629752742292546" lon="12.731305073606256"><ele>370.0</ele><time>2026-05-03T12:57:57Z</time></trkpt><trkpt lat="42.62964485731997" lon="12.731328397009666"><ele>370.0</ele><time>2026-05-03T12:57:58Z</time></trkpt><trkpt lat="42.62953092356839" lon="12.73136784761302"><ele>370.0</ele><time>2026-05-03T12:57:59Z</time></trkpt><trkpt lat="42.62941545154815" lon="12.731422204827393"><ele>370.0</ele><time>2026-05-03T12:58:00Z</time></trkpt><trkpt lat="42.62935642015842" lon="12.731473725622443"><ele>369.4</ele><time>2026-05-03T12:58:01Z</time></trkpt><trkpt lat="42.629268042827334" lon="12.731493924631168"><ele>368.8</ele><time>2026-05-03T12:58:02Z</time></trkpt><trkpt lat="42.629196108513476" lon="12.731526155857539"><ele>368.20000000000005</ele><time>2026-05-03T12:58:03Z</time></trkpt><trkpt lat="42.62910088729758" lon="12.731566905857095"><ele>367.6</ele><time>2026-05-03T12:58:04Z</time></trkpt><trkpt lat="42.62900892798264" lon="12.731603199770575"><ele>367.0</ele><time>2026-05-03T12:58:05Z</time></trkpt><trkpt lat="42.62892166868514" lon="12.731654077688578"><ele>367.0</ele><time>2026-05-03T12:58:06Z</time></trkpt><trkpt lat="42.628826642672266" lon="12.73169369017852"><ele>367.0</ele><time>2026-05-03T12:58:07Z</time></trkpt><trkpt lat="42.62873383899917" lon="12.731710333184278"><ele>367.0</ele><time>2026-05-03T12:58:08Z</time></trkpt><trkpt lat="42.62864381862659" lon="12.731740831888375"><ele>367.0</ele><time>2026-05-03T12:58:09Z</time></trkpt><trkpt lat="42.62854870548149" lon="12.731771581391103"><ele>367.0</ele><time>2026-05-03T12:58:10Z</time></trkpt><trkpt lat="42.62845778051428" lon="12.731789921410126"><ele>366.8</ele><time>2026-05-03T12:58:11Z</time></trkpt><trkpt lat="42.62836074283025" lon="12.731796723678562"><ele>366.6</ele><time>2026-05-03T12:58:12Z</time></trkpt><trkpt lat="42.628262385007794" lon="12.731798651203476"><ele>366.40000000000003</ele><time>2026-05-03T12:58:13Z</time></trkpt><trkpt lat="42.62816383706356" lon="12.73180123430853"><ele>366.20000000000005</ele><time>2026-05-03T12:58:14Z</time></trkpt><trkpt lat="42.6280686205971" lon="12.731805680581692"><ele>366.0</ele><time>2026-05-03T12:58:15Z</time></trkpt><trkpt lat="42.627969195577116" lon="12.731809625620846"><ele>366.0</ele><time>2026-05-03T12:58:16Z</time></trkpt><trkpt lat="42.627870461960484" lon="12.731811204269139"><ele>366.0</ele><time>2026-05-03T12:58:17Z</time></trkpt><trkpt lat="42.62776885472548" lon="12.73181279279969"><ele>366.0</ele><time>2026-05-03T12:58:18Z</time></trkpt><trkpt lat="42.62766616185315" lon="12.731814398304252"><ele>366.0</ele><time>2026-05-03T12:58:19Z</time></trkpt><trkpt lat="42.627561625848614" lon="12.73183122841562"><ele>366.0</ele><time>2026-05-03T12:58:20Z</time></trkpt><trkpt lat="42.6274498078862" lon="12.731831574460841"><ele>365.8</ele><time>2026-05-03T12:58:21Z</time></trkpt><trkpt lat="42.627341899247284" lon="12.73183383570438"><ele>365.6</ele><time>2026-05-03T12:58:22Z</time></trkpt><trkpt lat="42.627232057581274" lon="12.73183563726249"><ele>365.4</ele><time>2026-05-03T12:58:23Z</time></trkpt><trkpt lat="42.62711548992642" lon="12.731821979689977"><ele>365.2</ele><time>2026-05-03T12:58:24Z</time></trkpt><trkpt lat="42.627005072727165" lon="12.731850762658123"><ele>365.0</ele><time>2026-05-03T12:58:25Z</time></trkpt><trkpt lat="42.626892060229586" lon="12.731871402438172"><ele>363.5</ele><time>2026-05-03T12:58:26Z</time></trkpt><trkpt lat="42.62677593788539" lon="12.731910311319123"><ele>362.0</ele><time>2026-05-03T12:58:27Z</time></trkpt><trkpt lat="42.62666646326393" lon="12.731968892600795"><ele>360.5</ele><time>2026-05-03T12:58:28Z</time></trkpt><trkpt lat="42.62653231181028" lon="12.732003559684642"><ele>359.0</ele><time>2026-05-03T12:58:29Z</time></trkpt><trkpt lat="42.62641308369211" lon="12.732055276151295"><ele>359.0</ele><time>2026-05-03T12:58:30Z</time></trkpt><trkpt lat="42.62628801873718" lon="12.732127742335175"><ele>359.0</ele><time>2026-05-03T12:58:31Z</time></trkpt><trkpt lat="42.62616643752619" lon="12.732184820681951"><ele>359.0</ele><time>2026-05-03T12:58:32Z</time></trkpt><trkpt lat="42.626025450493884" lon="12.73223551470815"><ele>359.0</ele><time>2026-05-03T12:58:33Z</time></trkpt><trkpt lat="42.62590466555286" lon="12.732294449139692"><ele>358.75</ele><time>2026-05-03T12:58:34Z</time></trkpt><trkpt lat="42.62577059023824" lon="12.732326136943582"><ele>358.5</ele><time>2026-05-03T12:58:35Z</time></trkpt><trkpt lat="42.62564240058458" lon="12.732378752707783"><ele>358.25</ele><time>2026-05-03T12:58:36Z</time></trkpt><trkpt lat="42.625518650772946" lon="12.73243069864452"><ele>358.0</ele><time>2026-05-03T12:58:37Z</time></trkpt><trkpt lat="42.625404751882705" lon="12.732504114757186"><ele>358.75</ele><time>2026-05-03T12:58:38Z</time></trkpt><trkpt lat="42.625287850420676" lon="12.732550205386516"><ele>359.5</ele><time>2026-05-03T12:58:39Z</time></trkpt><trkpt lat="42.625172210488955" lon="12.732596057727214"><ele>360.25</ele><time>2026-05-03T12:58:40Z</time></trkpt><trkpt lat="42.62504817402561" lon="12.732646335024127"><ele>361.0</ele><time>2026-05-03T12:58:41Z</time></trkpt><trkpt lat="42.624927665374216" lon="12.732698090958918"><ele>359.5</ele><time>2026-05-03T12:58:42Z</time></trkpt><trkpt lat="42.62479771568666" lon="12.732738028293943"><ele>358.0</ele><time>2026-05-03T12:58:43Z</time></trkpt><trkpt lat="42.62466818571973" lon="12.732782082446782"><ele>356.5</ele><time>2026-05-03T12:58:44Z</time></trkpt><trkpt lat="42.624531622211265" lon="12.732818923751072"><ele>355.0</ele><time>2026-05-03T12:58:45Z</time></trkpt><trkpt lat="42.62439291121849" lon="12.7328448492701"><ele>354.25</ele><time>2026-05-03T12:58:46Z</time></trkpt><trkpt lat="42.62425138889515" lon="12.732884703174944"><ele>353.5</ele><time>2026-05-03T12:58:47Z</time></trkpt><trkpt lat="42.624107995896" lon="12.732913002453953"><ele>352.75</ele><time>2026-05-03T12:58:48Z</time></trkpt><trkpt lat="42.62396627675887" lon="12.7329312220314"><ele>352.0</ele><time>2026-05-03T12:58:49Z</time></trkpt><trkpt lat="42.623820885431606" lon="12.7329495388239"><ele>352.0</ele><time>2026-05-03T12:58:50Z</time></trkpt><trkpt lat="42.62367938355917" lon="12.732961598590242"><ele>352.0</ele><time>2026-05-03T12:58:51Z</time></trkpt><trkpt lat="42.62353670059909" lon="12.732968748372091"><ele>352.0</ele><time>2026-05-03T12:58:52Z</time></trkpt><trkpt lat="42.623395330433866" lon="12.732975269203338"><ele>352.0</ele><time>2026-05-03T12:58:53Z</time></trkpt><trkpt lat="42.623256336221694" lon="12.732972615428345"><ele>351.25</ele><time>2026-05-03T12:58:54Z</time></trkpt><trkpt lat="42.623124458406615" lon="12.73296624964723"><ele>350.5</ele><time>2026-05-03T12:58:55Z</time></trkpt><trkpt lat="42.62299751154826" lon="12.732959012096005"><ele>349.75</ele><time>2026-05-03T12:58:56Z</time></trkpt><trkpt lat="42.62288794883557" lon="12.7329290826305"><ele>349.0</ele><time>2026-05-03T12:58:57Z</time></trkpt><trkpt lat="42.62278798252667" lon="12.732938974678529"><ele>349.0</ele><time>2026-05-03T12:58:58Z</time></trkpt><trkpt lat="42.622704565131684" lon="12.732916906158312"><ele>349.0</ele><time>2026-05-03T12:58:59Z</time></trkpt><trkpt lat="42.6226262344696" lon="12.732908375201049"><ele>349.0</ele><time>2026-05-03T12:59:00Z</time></trkpt><trkpt lat="42.62255983498542" lon="12.73288841177507"><ele>349.0</ele><time>2026-05-03T12:59:01Z</time></trkpt><trkpt lat="42.62246064309772" lon="12.732847867962441"><ele>349.0</ele><time>2026-05-03T12:59:03Z</time></trkpt><trkpt lat="42.62240766173387" lon="12.732788921154583"><ele>349.0</ele><time>2026-05-03T12:59:06Z</time></trkpt><trkpt lat="42.622315542573645" lon="12.732680659062943"><ele>349.5</ele><time>2026-05-03T12:59:13Z</time></trkpt><trkpt lat="42.62224229661185" lon="12.73264792710777"><ele>350.0</ele><time>2026-05-03T12:59:14Z</time></trkpt><trkpt lat="42.622167868425024" lon="12.732633740245046"><ele>350.5</ele><time>2026-05-03T12:59:15Z</time></trkpt><trkpt lat="42.622090984077985" lon="12.732618923832609"><ele>351.0</ele><time>2026-05-03T12:59:16Z</time></trkpt><trkpt lat="42.62200616197901" lon="12.732602541167935"><ele>351.5</ele><time>2026-05-03T12:59:17Z</time></trkpt><trkpt lat="42.62191390727943" lon="12.732581471607654"><ele>352.0</ele><time>2026-05-03T12:59:18Z</time></trkpt><trkpt lat="42.62182046765705" lon="12.732562370765264"><ele>352.0</ele><time>2026-05-03T12:59:19Z</time></trkpt><trkpt lat="42.621725466460376" lon="12.732542794794698"><ele>352.0</ele><time>2026-05-03T12:59:20Z</time></trkpt><trkpt lat="42.62162375756666" lon="12.732520927534937"><ele>352.0</ele><time>2026-05-03T12:59:21Z</time></trkpt><trkpt lat="42.62152258567541" lon="12.732504706184526"><ele>352.0</ele><time>2026-05-03T12:59:22Z</time></trkpt><trkpt lat="42.62141567742034" lon="12.732483875839261"><ele>352.0</ele><time>2026-05-03T12:59:23Z</time></trkpt><trkpt lat="42.621311384023414" lon="12.73246378827397"><ele>352.0</ele><time>2026-05-03T12:59:24Z</time></trkpt><trkpt lat="42.6212023803884" lon="12.73244867151601"><ele>352.0</ele><time>2026-05-03T12:59:25Z</time></trkpt><trkpt lat="42.62109624081746" lon="12.732432168868979"><ele>352.0</ele><time>2026-05-03T12:59:26Z</time></trkpt><trkpt lat="42.620985161045766" lon="12.732417388958028"><ele>352.0</ele><time>2026-05-03T12:59:27Z</time></trkpt><trkpt lat="42.6208723582792" lon="12.732401318295908"><ele>352.0</ele><time>2026-05-03T12:59:28Z</time></trkpt><trkpt lat="42.62076210170266" lon="12.732384903324167"><ele>350.5</ele><time>2026-05-03T12:59:29Z</time></trkpt><trkpt lat="42.62064961119899" lon="12.73236898055138"><ele>349.0</ele><time>2026-05-03T12:59:30Z</time></trkpt><trkpt lat="42.62054063889307" lon="12.732344927017909"><ele>347.5</ele><time>2026-05-03T12:59:31Z</time></trkpt><trkpt lat="42.620419716755606" lon="12.732346913752052"><ele>346.0</ele><time>2026-05-03T12:59:32Z</time></trkpt><trkpt lat="42.62030127138879" lon="12.732333491997863"><ele>345.5</ele><time>2026-05-03T12:59:33Z</time></trkpt><trkpt lat="42.62017788343019" lon="12.732330111441247"><ele>345.0</ele><time>2026-05-03T12:59:34Z</time></trkpt><trkpt lat="42.62005221695259" lon="12.732331099281545"><ele>344.5</ele><time>2026-05-03T12:59:35Z</time></trkpt><trkpt lat="42.61992289826343" lon="12.732341172395758"><ele>344.0</ele><time>2026-05-03T12:59:36Z</time></trkpt><trkpt lat="42.61979741275823" lon="12.732351552110062"><ele>344.0</ele><time>2026-05-03T12:59:37Z</time></trkpt><trkpt lat="42.619670468788" lon="12.732366591659833"><ele>344.0</ele><time>2026-05-03T12:59:38Z</time></trkpt><trkpt lat="42.61953946408502" lon="12.732381682321918"><ele>344.0</ele><time>2026-05-03T12:59:39Z</time></trkpt><trkpt lat="42.61940593174015" lon="12.732395950743667"><ele>344.0</ele><time>2026-05-03T12:59:40Z</time></trkpt><trkpt lat="42.619272321788465" lon="12.732406265103702"><ele>343.75</ele><time>2026-05-03T12:59:41Z</time></trkpt><trkpt lat="42.61913820429552" lon="12.732425414762764"><ele>343.5</ele><time>2026-05-03T12:59:42Z</time></trkpt><trkpt lat="42.61900151345028" lon="12.732462409609237"><ele>343.25</ele><time>2026-05-03T12:59:43Z</time></trkpt><trkpt lat="42.61886227207949" lon="12.732512348209713"><ele>343.0</ele><time>2026-05-03T12:59:44Z</time></trkpt><trkpt lat="42.618721438343115" lon="12.732565971712377"><ele>341.75</ele><time>2026-05-03T12:59:45Z</time></trkpt><trkpt lat="42.61858505916577" lon="12.73263120734552"><ele>340.5</ele><time>2026-05-03T12:59:45.999Z</time></trkpt><trkpt lat="42.618445015805406" lon="12.73271075155376"><ele>339.25</ele><time>2026-05-03T12:59:46.999Z</time></trkpt><trkpt lat="42.61831123751844" lon="12.732794598237941"><ele>338.0</ele><time>2026-05-03T12:59:47.999Z</time></trkpt><trkpt lat="42.618174536659694" lon="12.732882154165662"><ele>338.0</ele><time>2026-05-03T12:59:48.999Z</time></trkpt><trkpt lat="42.61803887563665" lon="12.732981359620494"><ele>338.0</ele><time>2026-05-03T12:59:49.999Z</time></trkpt><trkpt lat="42.61790753156853" lon="12.73308909738337"><ele>338.0</ele><time>2026-05-03T12:59:50.999Z</time></trkpt><trkpt lat="42.61776845122738" lon="12.733208808494348"><ele>338.33333333333337</ele><time>2026-05-03T12:59:51.999Z</time></trkpt><trkpt lat="42.617631962092396" lon="12.73332974716663"><ele>338.6666666666667</ele><time>2026-05-03T12:59:52.999Z</time></trkpt><trkpt lat="42.6174946871528" lon="12.733452571052185"><ele>339.0</ele><time>2026-05-03T12:59:53.999Z</time></trkpt><trkpt lat="42.61735580028469" lon="12.733564831608442"><ele>339.0</ele><time>2026-05-03T12:59:54.999Z</time></trkpt><trkpt lat="42.61719573038411" lon="12.73362912173435"><ele>339.0</ele><time>2026-05-03T12:59:55.999Z</time></trkpt><trkpt lat="42.61704187967607" lon="12.733717879428099"><ele>339.0</ele><time>2026-05-03T12:59:56.999Z</time></trkpt><trkpt lat="42.61692961689318" lon="12.733920577953093"><ele>341.3333333333333</ele><time>2026-05-03T12:59:57.999Z</time></trkpt><trkpt lat="42.616785878573005" lon="12.734046802193475"><ele>343.66666666666663</ele><time>2026-05-03T12:59:59Z</time></trkpt><trkpt lat="42.61663684229879" lon="12.734158860156708"><ele>346.0</ele><time>2026-05-03T13:00:00Z</time></trkpt><trkpt lat="42.61648831477484" lon="12.734261434663392"><ele>346.0</ele><time>2026-05-03T13:00:01Z</time></trkpt><trkpt lat="42.61633829379359" lon="12.734352209757926"><ele>346.0</ele><time>2026-05-03T13:00:02Z</time></trkpt><trkpt lat="42.616186765589696" lon="12.734425205573471"><ele>346.0</ele><time>2026-05-03T13:00:03Z</time></trkpt><trkpt lat="42.61603203686086" lon="12.734484766043417"><ele>342.66666666666663</ele><time>2026-05-03T13:00:04Z</time></trkpt><trkpt lat="42.61587205993385" lon="12.734538995734026"><ele>339.3333333333333</ele><time>2026-05-03T13:00:05Z</time></trkpt><trkpt lat="42.615716924813114" lon="12.73457804550408"><ele>336.0</ele><time>2026-05-03T13:00:06Z</time></trkpt><trkpt lat="42.61555736435392" lon="12.73461307445291"><ele>336.0</ele><time>2026-05-03T13:00:07Z</time></trkpt><trkpt lat="42.61539573749873" lon="12.734634804423028"><ele>336.0</ele><time>2026-05-03T13:00:08Z</time></trkpt><trkpt lat="42.615241654594946" lon="12.734659293073681"><ele>336.0</ele><time>2026-05-03T13:00:09Z</time></trkpt><trkpt lat="42.615083111041244" lon="12.734683635408489"><ele>335.0</ele><time>2026-05-03T13:00:10Z</time></trkpt><trkpt lat="42.61492587237582" lon="12.734710185140717"><ele>334.0</ele><time>2026-05-03T13:00:11Z</time></trkpt><trkpt lat="42.61476893508898" lon="12.734735305287373"><ele>333.0</ele><time>2026-05-03T13:00:12Z</time></trkpt><trkpt lat="42.614609778704136" lon="12.734761400820464"><ele>332.0</ele><time>2026-05-03T13:00:13Z</time></trkpt><trkpt lat="42.61445524189258" lon="12.734785494747127"><ele>331.0</ele><time>2026-05-03T13:00:14Z</time></trkpt><trkpt lat="42.61429601890648" lon="12.734815374105208"><ele>330.0</ele><time>2026-05-03T13:00:15Z</time></trkpt><trkpt lat="42.61414708506039" lon="12.734842227808873"><ele>330.0</ele><time>2026-05-03T13:00:16Z</time></trkpt><trkpt lat="42.61399663528043" lon="12.734862024281766"><ele>330.0</ele><time>2026-05-03T13:00:17Z</time></trkpt><trkpt lat="42.61384341238875" lon="12.734884075233213"><ele>330.0</ele><time>2026-05-03T13:00:18Z</time></trkpt><trkpt lat="42.613701620235084" lon="12.73491035719647"><ele>330.0</ele><time>2026-05-03T13:00:19Z</time></trkpt><trkpt lat="42.613553328628456" lon="12.734935232135946"><ele>329.75</ele><time>2026-05-03T13:00:20Z</time></trkpt><trkpt lat="42.6134166981594" lon="12.734962351135797"><ele>329.5</ele><time>2026-05-03T13:00:21Z</time></trkpt><trkpt lat="42.61327745814677" lon="12.73499043654517"><ele>329.25</ele><time>2026-05-03T13:00:22Z</time></trkpt><trkpt lat="42.613139275957316" lon="12.735015059853223"><ele>329.0</ele><time>2026-05-03T13:00:23Z</time></trkpt><trkpt lat="42.613004951795595" lon="12.735040660125025"><ele>329.0</ele><time>2026-05-03T13:00:24Z</time></trkpt><trkpt lat="42.61286777258838" lon="12.735062641671156"><ele>329.0</ele><time>2026-05-03T13:00:25Z</time></trkpt><trkpt lat="42.61272932098554" lon="12.735083316655128"><ele>329.0</ele><time>2026-05-03T13:00:26Z</time></trkpt><trkpt lat="42.612587854051874" lon="12.73510703499294"><ele>329.0</ele><time>2026-05-03T13:00:27Z</time></trkpt><trkpt lat="42.61244771170741" lon="12.735132343716051"><ele>331.25</ele><time>2026-05-03T13:00:28Z</time></trkpt><trkpt lat="42.61230649849562" lon="12.735156328827683"><ele>333.5</ele><time>2026-05-03T13:00:29Z</time></trkpt><trkpt lat="42.61216792699603" lon="12.735178451191528"><ele>335.75</ele><time>2026-05-03T13:00:30Z</time></trkpt><trkpt lat="42.61202828713035" lon="12.735193645817466"><ele>338.0</ele><time>2026-05-03T13:00:31Z</time></trkpt><trkpt lat="42.6118930474236" lon="12.735218885269832"><ele>334.0</ele><time>2026-05-03T13:00:32Z</time></trkpt><trkpt lat="42.611757630027085" lon="12.735243628147101"><ele>330.0</ele><time>2026-05-03T13:00:33Z</time></trkpt><trkpt lat="42.61162876510541" lon="12.735264403117903"><ele>326.0</ele><time>2026-05-03T13:00:34Z</time></trkpt><trkpt lat="42.61150644225191" lon="12.735283868532129"><ele>322.0</ele><time>2026-05-03T13:00:35Z</time></trkpt><trkpt lat="42.611391697726496" lon="12.735292687341142"><ele>322.0</ele><time>2026-05-03T13:00:36Z</time></trkpt><trkpt lat="42.611278668738855" lon="12.735299605510619"><ele>322.0</ele><time>2026-05-03T13:00:37Z</time></trkpt><trkpt lat="42.611169547144215" lon="12.73529224139642"><ele>322.0</ele><time>2026-05-03T13:00:38Z</time></trkpt><trkpt lat="42.61106142007271" lon="12.735272957506862"><ele>322.0</ele><time>2026-05-03T13:00:39Z</time></trkpt><trkpt lat="42.61095169621247" lon="12.735239608057846"><ele>322.0</ele><time>2026-05-03T13:00:40Z</time></trkpt><trkpt lat="42.61084275643615" lon="12.73519197558395"><ele>324.5</ele><time>2026-05-03T13:00:41Z</time></trkpt><trkpt lat="42.610731816789496" lon="12.73513277931196"><ele>327.0</ele><time>2026-05-03T13:00:42Z</time></trkpt><trkpt lat="42.610615583167906" lon="12.735066857499252"><ele>329.5</ele><time>2026-05-03T13:00:43Z</time></trkpt><trkpt lat="42.61049840718933" lon="12.734998723072087"><ele>332.0</ele><time>2026-05-03T13:00:44Z</time></trkpt><trkpt lat="42.61037900469664" lon="12.734926447395726"><ele>328.5</ele><time>2026-05-03T13:00:45Z</time></trkpt><trkpt lat="42.61025900220178" lon="12.734843198196447"><ele>325.0</ele><time>2026-05-03T13:00:46Z</time></trkpt><trkpt lat="42.6101416679707" lon="12.734753689272317"><ele>321.5</ele><time>2026-05-03T13:00:47Z</time></trkpt><trkpt lat="42.61002130678927" lon="12.734659370909723"><ele>318.0</ele><time>2026-05-03T13:00:48Z</time></trkpt><trkpt lat="42.60991532361355" lon="12.734566978425523"><ele>318.0</ele><time>2026-05-03T13:00:49Z</time></trkpt><trkpt lat="42.609813602743756" lon="12.734434320822649"><ele>318.0</ele><time>2026-05-03T13:00:50Z</time></trkpt><trkpt lat="42.60972161876784" lon="12.734291911959481"><ele>318.0</ele><time>2026-05-03T13:00:51Z</time></trkpt><trkpt lat="42.60964380323772" lon="12.734132516881589"><ele>318.0</ele><time>2026-05-03T13:00:52Z</time></trkpt><trkpt lat="42.6095746374323" lon="12.733963426224328"><ele>318.0</ele><time>2026-05-03T13:00:53Z</time></trkpt><trkpt lat="42.609505908487904" lon="12.733796795654658"><ele>318.0</ele><time>2026-05-03T13:00:54Z</time></trkpt><trkpt lat="42.609439718810734" lon="12.733638264193745"><ele>318.0</ele><time>2026-05-03T13:00:55Z</time></trkpt><trkpt lat="42.60937530245204" lon="12.733488522027573"><ele>318.0</ele><time>2026-05-03T13:00:56Z</time></trkpt><trkpt lat="42.60930921989889" lon="12.733346156713989"><ele>318.0</ele><time>2026-05-03T13:00:57Z</time></trkpt><trkpt lat="42.60924937320377" lon="12.733203083789274"><ele>318.0</ele><time>2026-05-03T13:00:58Z</time></trkpt><trkpt lat="42.60918782290851" lon="12.733065001868864"><ele>318.0</ele><time>2026-05-03T13:00:59Z</time></trkpt><trkpt lat="42.6091283312116" lon="12.732927398006504"><ele>318.0</ele><time>2026-05-03T13:01:00Z</time></trkpt><trkpt lat="42.609065148362575" lon="12.732787061231598"><ele>319.0</ele><time>2026-05-03T13:01:01Z</time></trkpt><trkpt lat="42.60900451509828" lon="12.732652889953588"><ele>320.0</ele><time>2026-05-03T13:01:02Z</time></trkpt><trkpt lat="42.60893654709167" lon="12.732527760114243"><ele>321.0</ele><time>2026-05-03T13:01:03Z</time></trkpt><trkpt lat="42.60886442799813" lon="12.732408532605392"><ele>322.0</ele><time>2026-05-03T13:01:04Z</time></trkpt><trkpt lat="42.608790152322285" lon="12.732297167724347"><ele>322.0</ele><time>2026-05-03T13:01:05Z</time></trkpt><trkpt lat="42.60871504373457" lon="12.732189774136362"><ele>322.0</ele><time>2026-05-03T13:01:06Z</time></trkpt><trkpt lat="42.6086368458033" lon="12.732081245449796"><ele>322.0</ele><time>2026-05-03T13:01:07Z</time></trkpt><trkpt lat="42.60855033372812" lon="12.731978466694294"><ele>322.0</ele><time>2026-05-03T13:01:08Z</time></trkpt><trkpt lat="42.60846044273646" lon="12.731868573332036"><ele>322.0</ele><time>2026-05-03T13:01:09Z</time></trkpt><trkpt lat="42.60836335720767" lon="12.731766633236203"><ele>322.0</ele><time>2026-05-03T13:01:10Z</time></trkpt><trkpt lat="42.60825280978369" lon="12.731679113430689"><ele>322.0</ele><time>2026-05-03T13:01:11Z</time></trkpt><trkpt lat="42.608162929417716" lon="12.731562028219235"><ele>322.0</ele><time>2026-05-03T13:01:12Z</time></trkpt><trkpt lat="42.60806476924555" lon="12.731438572284056"><ele>322.0</ele><time>2026-05-03T13:01:13Z</time></trkpt><trkpt lat="42.60796078410878" lon="12.7313364679836"><ele>322.0</ele><time>2026-05-03T13:01:14Z</time></trkpt><trkpt lat="42.607841174838384" lon="12.731227413183866"><ele>322.0</ele><time>2026-05-03T13:01:15Z</time></trkpt><trkpt lat="42.60774163411776" lon="12.731128606976025"><ele>322.0</ele><time>2026-05-03T13:01:16Z</time></trkpt><trkpt lat="42.607630744883714" lon="12.731008075946622"><ele>322.75</ele><time>2026-05-03T13:01:17Z</time></trkpt><trkpt lat="42.607520297018034" lon="12.730888512416712"><ele>323.5</ele><time>2026-05-03T13:01:18Z</time></trkpt><trkpt lat="42.607415606071854" lon="12.730774327109991"><ele>324.25</ele><time>2026-05-03T13:01:19Z</time></trkpt><trkpt lat="42.607300886238434" lon="12.730670477002157"><ele>325.0</ele><time>2026-05-03T13:01:20Z</time></trkpt><trkpt lat="42.60718942643661" lon="12.730546837418178"><ele>325.0</ele><time>2026-05-03T13:01:21Z</time></trkpt><trkpt lat="42.60707443158507" lon="12.730424248004754"><ele>325.0</ele><time>2026-05-03T13:01:22Z</time></trkpt><trkpt lat="42.606956754083825" lon="12.730308582707453"><ele>325.0</ele><time>2026-05-03T13:01:23Z</time></trkpt><trkpt lat="42.606841940954354" lon="12.73018448126996"><ele>325.0</ele><time>2026-05-03T13:01:24Z</time></trkpt><trkpt lat="42.60672539723093" lon="12.730051612489016"><ele>322.0</ele><time>2026-05-03T13:01:25Z</time></trkpt><trkpt lat="42.60660877200165" lon="12.7299216782417"><ele>319.0</ele><time>2026-05-03T13:01:26Z</time></trkpt><trkpt lat="42.60650043891579" lon="12.72977450418479"><ele>316.0</ele><time>2026-05-03T13:01:27Z</time></trkpt><trkpt lat="42.60640074897414" lon="12.729614445087517"><ele>316.0</ele><time>2026-05-03T13:01:28Z</time></trkpt><trkpt lat="42.60630298679335" lon="12.729450085434351"><ele>316.0</ele><time>2026-05-03T13:01:29Z</time></trkpt><trkpt lat="42.60620858153169" lon="12.72929117605084"><ele>316.0</ele><time>2026-05-03T13:01:30Z</time></trkpt><trkpt lat="42.60611769150082" lon="12.72913507038981"><ele>317.5</ele><time>2026-05-03T13:01:31Z</time></trkpt><trkpt lat="42.606032884392306" lon="12.728969384551752"><ele>319.0</ele><time>2026-05-03T13:01:32Z</time></trkpt><trkpt lat="42.60595240720426" lon="12.728806690828321"><ele>320.5</ele><time>2026-05-03T13:01:33Z</time></trkpt><trkpt lat="42.60586939567127" lon="12.72864908704872"><ele>322.0</ele><time>2026-05-03T13:01:34Z</time></trkpt><trkpt lat="42.60578409226811" lon="12.728501739821812"><ele>322.0</ele><time>2026-05-03T13:01:35Z</time></trkpt><trkpt lat="42.60569388721458" lon="12.728361862200765"><ele>322.0</ele><time>2026-05-03T13:01:36Z</time></trkpt><trkpt lat="42.60560274996659" lon="12.72822681624338"><ele>322.0</ele><time>2026-05-03T13:01:37Z</time></trkpt><trkpt lat="42.60550816470598" lon="12.728095124138987"><ele>322.0</ele><time>2026-05-03T13:01:38Z</time></trkpt><trkpt lat="42.605418446185645" lon="12.727960234255852"><ele>322.0</ele><time>2026-05-03T13:01:39Z</time></trkpt><trkpt lat="42.60532947820408" lon="12.727820284894685"><ele>322.0</ele><time>2026-05-03T13:01:40Z</time></trkpt><trkpt lat="42.60524191070813" lon="12.7276787727039"><ele>322.0</ele><time>2026-05-03T13:01:41Z</time></trkpt><trkpt lat="42.605162237215026" lon="12.727524657874763"><ele>322.0</ele><time>2026-05-03T13:01:42Z</time></trkpt><trkpt lat="42.60508667772002" lon="12.727367593849777"><ele>318.75</ele><time>2026-05-03T13:01:43Z</time></trkpt><trkpt lat="42.605015603629745" lon="12.72721475159193"><ele>315.5</ele><time>2026-05-03T13:01:44Z</time></trkpt><trkpt lat="42.60495255870256" lon="12.727057556059302"><ele>312.25</ele><time>2026-05-03T13:01:45Z</time></trkpt><trkpt lat="42.60489326179571" lon="12.72690139027686"><ele>309.0</ele><time>2026-05-03T13:01:46Z</time></trkpt><trkpt lat="42.60483017508807" lon="12.72674548116061"><ele>309.0</ele><time>2026-05-03T13:01:47Z</time></trkpt><trkpt lat="42.60476438203098" lon="12.726594270041923"><ele>309.0</ele><time>2026-05-03T13:01:48Z</time></trkpt><trkpt lat="42.604693195203566" lon="12.726439915330529"><ele>309.0</ele><time>2026-05-03T13:01:49Z</time></trkpt><trkpt lat="42.60461723843008" lon="12.726286018315522"><ele>309.0</ele><time>2026-05-03T13:01:50Z</time></trkpt><trkpt lat="42.60452976434524" lon="12.726143037855925"><ele>306.75</ele><time>2026-05-03T13:01:51Z</time></trkpt><trkpt lat="42.604439106941236" lon="12.726006298139241"><ele>304.5</ele><time>2026-05-03T13:01:52Z</time></trkpt><trkpt lat="42.6043441433028" lon="12.725875912712548"><ele>302.25</ele><time>2026-05-03T13:01:53Z</time></trkpt><trkpt lat="42.60424412004347" lon="12.725754783039983"><ele>300.0</ele><time>2026-05-03T13:01:54Z</time></trkpt><trkpt lat="42.60414265863717" lon="12.725631468274386"><ele>300.0</ele><time>2026-05-03T13:01:55Z</time></trkpt><trkpt lat="42.604040344910864" lon="12.72551299145853"><ele>300.0</ele><time>2026-05-03T13:01:56Z</time></trkpt><trkpt lat="42.603935718635476" lon="12.72539529050055"><ele>300.0</ele><time>2026-05-03T13:01:57Z</time></trkpt><trkpt lat="42.60383124383211" lon="12.725274262907053"><ele>300.0</ele><time>2026-05-03T13:01:58Z</time></trkpt><trkpt lat="42.603725304244755" lon="12.725160804538604"><ele>299.75</ele><time>2026-05-03T13:01:59Z</time></trkpt><trkpt lat="42.603618659519874" lon="12.725042826072347"><ele>299.5</ele><time>2026-05-03T13:02:00Z</time></trkpt><trkpt lat="42.60351006400494" lon="12.724926882955868"><ele>299.25</ele><time>2026-05-03T13:02:01Z</time></trkpt><trkpt lat="42.60339576657005" lon="12.72482258902044"><ele>299.0</ele><time>2026-05-03T13:02:02Z</time></trkpt><trkpt lat="42.603276602806915" lon="12.724736688421666"><ele>299.0</ele><time>2026-05-03T13:02:03Z</time></trkpt><trkpt lat="42.60315297056661" lon="12.724658855260067"><ele>299.0</ele><time>2026-05-03T13:02:04Z</time></trkpt><trkpt lat="42.60302657689593" lon="12.724602685004639"><ele>299.0</ele><time>2026-05-03T13:02:05.001Z</time></trkpt><trkpt lat="42.60289644369518" lon="12.72455226138725"><ele>299.0</ele><time>2026-05-03T13:02:06.001Z</time></trkpt><trkpt lat="42.60276814723702" lon="12.724521954136357"><ele>297.5</ele><time>2026-05-03T13:02:07.001Z</time></trkpt><trkpt lat="42.60263581537113" lon="12.724500903605529"><ele>296.0</ele><time>2026-05-03T13:02:08.001Z</time></trkpt><trkpt lat="42.60250196698943" lon="12.724484696978836"><ele>294.5</ele><time>2026-05-03T13:02:09.001Z</time></trkpt><trkpt lat="42.60236775121464" lon="12.72448287879747"><ele>293.0</ele><time>2026-05-03T13:02:10.001Z</time></trkpt><trkpt lat="42.602233783078965" lon="12.72448805249692"><ele>293.0</ele><time>2026-05-03T13:02:11.001Z</time></trkpt><trkpt lat="42.60209545068869" lon="12.7245106778438"><ele>293.0</ele><time>2026-05-03T13:02:12.001Z</time></trkpt><trkpt lat="42.60196060383761" lon="12.724538564124058"><ele>293.0</ele><time>2026-05-03T13:02:13.001Z</time></trkpt><trkpt lat="42.60181897155913" lon="12.724570527914128"><ele>293.0</ele><time>2026-05-03T13:02:14.001Z</time></trkpt><trkpt lat="42.6016795959986" lon="12.724596807787384"><ele>293.0</ele><time>2026-05-03T13:02:15.001Z</time></trkpt><trkpt lat="42.60153554560244" lon="12.724630171447139"><ele>293.0</ele><time>2026-05-03T13:02:16.001Z</time></trkpt><trkpt lat="42.60139600157637" lon="12.72467192591208"><ele>293.0</ele><time>2026-05-03T13:02:17.001Z</time></trkpt><trkpt lat="42.601258815212525" lon="12.724720753899334"><ele>293.0</ele><time>2026-05-03T13:02:18.001Z</time></trkpt><trkpt lat="42.60112732619564" lon="12.724776219667257"><ele>294.75</ele><time>2026-05-03T13:02:19.001Z</time></trkpt><trkpt lat="42.60099302389068" lon="12.724847049283547"><ele>296.5</ele><time>2026-05-03T13:02:20.001Z</time></trkpt><trkpt lat="42.600861633567966" lon="12.724918180049158"><ele>298.25</ele><time>2026-05-03T13:02:21.001Z</time></trkpt><trkpt lat="42.600732136371256" lon="12.724993816690352"><ele>300.0</ele><time>2026-05-03T13:02:22.001Z</time></trkpt><trkpt lat="42.60061188316848" lon="12.725069851837391"><ele>300.0</ele><time>2026-05-03T13:02:23Z</time></trkpt><trkpt lat="42.60048357520488" lon="12.725149374207678"><ele>300.0</ele><time>2026-05-03T13:02:24Z</time></trkpt><trkpt lat="42.600361805412554" lon="12.72522455271284"><ele>300.0</ele><time>2026-05-03T13:02:25Z</time></trkpt><trkpt lat="42.60023769557357" lon="12.725296529290278"><ele>300.0</ele><time>2026-05-03T13:02:26Z</time></trkpt><trkpt lat="42.60011703669615" lon="12.725367855626113"><ele>297.5</ele><time>2026-05-03T13:02:27Z</time></trkpt><trkpt lat="42.599992180986185" lon="12.725412473615318"><ele>295.0</ele><time>2026-05-03T13:02:28Z</time></trkpt><trkpt lat="42.599869216454216" lon="12.725449909142103"><ele>292.5</ele><time>2026-05-03T13:02:29Z</time></trkpt><trkpt lat="42.599741723066245" lon="12.725463792737024"><ele>290.0</ele><time>2026-05-03T13:02:30Z</time></trkpt><trkpt lat="42.599608979842216" lon="12.725486615922591"><ele>290.5</ele><time>2026-05-03T13:02:31Z</time></trkpt><trkpt lat="42.59947833590665" lon="12.725482550020004"><ele>291.0</ele><time>2026-05-03T13:02:32Z</time></trkpt><trkpt lat="42.59934792783938" lon="12.725454790995474"><ele>291.5</ele><time>2026-05-03T13:02:33Z</time></trkpt><trkpt lat="42.5992206763988" lon="12.725418186642749"><ele>292.0</ele><time>2026-05-03T13:02:34Z</time></trkpt><trkpt lat="42.599100683465785" lon="12.72536021694815"><ele>292.0</ele><time>2026-05-03T13:02:35Z</time></trkpt><trkpt lat="42.59897976735682" lon="12.725295211346717"><ele>292.0</ele><time>2026-05-03T13:02:36Z</time></trkpt><trkpt lat="42.598866292427644" lon="12.72521624592689"><ele>292.0</ele><time>2026-05-03T13:02:37Z</time></trkpt><trkpt lat="42.598755830450614" lon="12.725121913706298"><ele>292.0</ele><time>2026-05-03T13:02:38Z</time></trkpt><trkpt lat="42.598652239726086" lon="12.725011862757983"><ele>290.75</ele><time>2026-05-03T13:02:39Z</time></trkpt><trkpt lat="42.59855123905611" lon="12.724892344418244"><ele>289.5</ele><time>2026-05-03T13:02:40Z</time></trkpt><trkpt lat="42.598459220676034" lon="12.724760811456667"><ele>288.25</ele><time>2026-05-03T13:02:41Z</time></trkpt><trkpt lat="42.59837688664209" lon="12.724613630730914"><ele>287.0</ele><time>2026-05-03T13:02:42Z</time></trkpt><trkpt lat="42.59829552605523" lon="12.72445628733792"><ele>289.75</ele><time>2026-05-03T13:02:43Z</time></trkpt><trkpt lat="42.598218806791095" lon="12.72430429672718"><ele>292.5</ele><time>2026-05-03T13:02:44Z</time></trkpt><trkpt lat="42.598130536352386" lon="12.724150682008514"><ele>295.25</ele><time>2026-05-03T13:02:45Z</time></trkpt><trkpt lat="42.59804396191307" lon="12.723997810566868"><ele>298.0</ele><time>2026-05-03T13:02:46Z</time></trkpt><trkpt lat="42.59796125550144" lon="12.723837729631043"><ele>298.0</ele><time>2026-05-03T13:02:47Z</time></trkpt><trkpt lat="42.597876038998734" lon="12.72367817966068"><ele>298.0</ele><time>2026-05-03T13:02:48Z</time></trkpt><trkpt lat="42.59777354011585" lon="12.72352199667801"><ele>298.0</ele><time>2026-05-03T13:02:49Z</time></trkpt><trkpt lat="42.59769749681364" lon="12.723366501843916"><ele>298.0</ele><time>2026-05-03T13:02:50Z</time></trkpt><trkpt lat="42.5976086110267" lon="12.723206877383616"><ele>296.5</ele><time>2026-05-03T13:02:51Z</time></trkpt><trkpt lat="42.59752489111471" lon="12.723054291450424"><ele>295.0</ele><time>2026-05-03T13:02:52Z</time></trkpt><trkpt lat="42.59744309134621" lon="12.722879624212734"><ele>293.5</ele><time>2026-05-03T13:02:53Z</time></trkpt><trkpt lat="42.5973788694473" lon="12.722704098030457"><ele>292.0</ele><time>2026-05-03T13:02:54Z</time></trkpt><trkpt lat="42.597318278841016" lon="12.722521397687407"><ele>292.0</ele><time>2026-05-03T13:02:55Z</time></trkpt><trkpt lat="42.5972610531363" lon="12.722335276535002"><ele>292.0</ele><time>2026-05-03T13:02:56Z</time></trkpt><trkpt lat="42.59721656359632" lon="12.722142102164048"><ele>292.0</ele><time>2026-05-03T13:02:57Z</time></trkpt><trkpt lat="42.597185449214486" lon="12.72195107109222"><ele>292.0</ele><time>2026-05-03T13:02:58Z</time></trkpt><trkpt lat="42.59716528330665" lon="12.721753582113656"><ele>293.66666666666663</ele><time>2026-05-03T13:02:59Z</time></trkpt><trkpt lat="42.59714799642185" lon="12.7215547567674"><ele>295.3333333333333</ele><time>2026-05-03T13:03:00Z</time></trkpt><trkpt lat="42.59713982128505" lon="12.72134779683919"><ele>297.0</ele><time>2026-05-03T13:03:01Z</time></trkpt><trkpt lat="42.597139264383415" lon="12.721140707504656"><ele>293.3333333333333</ele><time>2026-05-03T13:03:02Z</time></trkpt><trkpt lat="42.59715766392863" lon="12.72093034977652"><ele>289.66666666666663</ele><time>2026-05-03T13:03:03Z</time></trkpt><trkpt lat="42.59719524272033" lon="12.720731175165044"><ele>286.0</ele><time>2026-05-03T13:03:04Z</time></trkpt><trkpt lat="42.59724589627714" lon="12.720538716006844"><ele>286.0</ele><time>2026-05-03T13:03:05Z</time></trkpt><trkpt lat="42.59731545746772" lon="12.720367479895785"><ele>286.0</ele><time>2026-05-03T13:03:06Z</time></trkpt><trkpt lat="42.59739992468083" lon="12.720211600012053"><ele>286.0</ele><time>2026-05-03T13:03:07Z</time></trkpt><trkpt lat="42.5974979432158" lon="12.720063708293702"><ele>286.0</ele><time>2026-05-03T13:03:08Z</time></trkpt><trkpt lat="42.59760424225626" lon="12.719928243343432"><ele>287.25</ele><time>2026-05-03T13:03:09Z</time></trkpt><trkpt lat="42.597710837061186" lon="12.719792258496266"><ele>288.5</ele><time>2026-05-03T13:03:10Z</time></trkpt><trkpt lat="42.59780221897245" lon="12.719648122706472"><ele>289.75</ele><time>2026-05-03T13:03:11Z</time></trkpt><trkpt lat="42.59787821728887" lon="12.719487674780002"><ele>291.0</ele><time>2026-05-03T13:03:12Z</time></trkpt><trkpt lat="42.597936887564835" lon="12.719309023513677"><ele>291.0</ele><time>2026-05-03T13:03:13Z</time></trkpt><trkpt lat="42.59797884810888" lon="12.719112503836035"><ele>291.0</ele><time>2026-05-03T13:03:14Z</time></trkpt><trkpt lat="42.59800477194738" lon="12.71889443595337"><ele>291.0</ele><time>2026-05-03T13:03:15Z</time></trkpt><trkpt lat="42.5980178942908" lon="12.718689197641483"><ele>289.0</ele><time>2026-05-03T13:03:16Z</time></trkpt><trkpt lat="42.59801892599623" lon="12.718501844186623"><ele>287.0</ele><time>2026-05-03T13:03:17Z</time></trkpt><trkpt lat="42.598034281915425" lon="12.718332695892956"><ele>285.0</ele><time>2026-05-03T13:03:18Z</time></trkpt><trkpt lat="42.59806344424024" lon="12.718187728685907"><ele>283.0</ele><time>2026-05-03T13:03:19Z</time></trkpt><trkpt lat="42.598098795152815" lon="12.718074145807087"><ele>283.0</ele><time>2026-05-03T13:03:20Z</time></trkpt><trkpt lat="42.59813407838668" lon="12.717999807078854"><ele>283.0</ele><time>2026-05-03T13:03:21Z</time></trkpt><trkpt lat="42.598181929874876" lon="12.71794259305796"><ele>283.0</ele><time>2026-05-03T13:03:22Z</time></trkpt><trkpt lat="42.59823262601596" lon="12.717855642104158"><ele>283.0</ele><time>2026-05-03T13:03:24Z</time></trkpt><trkpt lat="42.59829129677379" lon="12.71780162537098"><ele>283.0</ele><time>2026-05-03T13:03:26Z</time></trkpt><trkpt lat="42.59834876144137" lon="12.71772843272718"><ele>283.0</ele><time>2026-05-03T13:03:28Z</time></trkpt><trkpt lat="42.598422184679215" lon="12.717623484991641"><ele>281.3333333333333</ele><time>2026-05-03T13:03:30Z</time></trkpt><trkpt lat="42.598514342290784" lon="12.717493807902915"><ele>279.66666666666663</ele><time>2026-05-03T13:03:32Z</time></trkpt><trkpt lat="42.59856170384913" lon="12.717419577284977"><ele>278.0</ele><time>2026-05-03T13:03:33Z</time></trkpt><trkpt lat="42.59861451764468" lon="12.717336437436716"><ele>276.3333333333333</ele><time>2026-05-03T13:03:34Z</time></trkpt><trkpt lat="42.59866434759061" lon="12.717248718545738"><ele>274.6666666666667</ele><time>2026-05-03T13:03:35Z</time></trkpt><trkpt lat="42.598709152105116" lon="12.717167067786287"><ele>273.0</ele><time>2026-05-03T13:03:36Z</time></trkpt><trkpt lat="42.598755252575046" lon="12.717090391896216"><ele>274.0</ele><time>2026-05-03T13:03:37Z</time></trkpt><trkpt lat="42.59880073809909" lon="12.717017030899553"><ele>275.0</ele><time>2026-05-03T13:03:38Z</time></trkpt><trkpt lat="42.598847879421896" lon="12.71694702735119"><ele>276.0</ele><time>2026-05-03T13:03:39Z</time></trkpt><trkpt lat="42.598899471951235" lon="12.716874887127013"><ele>277.0</ele><time>2026-05-03T13:03:40Z</time></trkpt><trkpt lat="42.598955088742336" lon="12.716801471317508"><ele>278.0</ele><time>2026-05-03T13:03:41Z</time></trkpt><trkpt lat="42.599014192728795" lon="12.716720027946195"><ele>279.0</ele><time>2026-05-03T13:03:42Z</time></trkpt><trkpt lat="42.59907681166545" lon="12.716627880196683"><ele>279.0</ele><time>2026-05-03T13:03:43Z</time></trkpt><trkpt lat="42.599131305632596" lon="12.716523171343669"><ele>279.0</ele><time>2026-05-03T13:03:44Z</time></trkpt><trkpt lat="42.59916449630227" lon="12.716405414729499"><ele>279.0</ele><time>2026-05-03T13:03:45Z</time></trkpt><trkpt lat="42.59918842941803" lon="12.716271640446678"><ele>279.0</ele><time>2026-05-03T13:03:46Z</time></trkpt><trkpt lat="42.599196352853625" lon="12.716123164331046"><ele>279.0</ele><time>2026-05-03T13:03:47Z</time></trkpt><trkpt lat="42.59917329321714" lon="12.715980416311112"><ele>278.75</ele><time>2026-05-03T13:03:48Z</time></trkpt><trkpt lat="42.599131785303726" lon="12.715809401350798"><ele>278.5</ele><time>2026-05-03T13:03:49Z</time></trkpt><trkpt lat="42.5990494891331" lon="12.715642738927379"><ele>278.25</ele><time>2026-05-03T13:03:50Z</time></trkpt><trkpt lat="42.598948958734574" lon="12.71548185647308"><ele>278.0</ele><time>2026-05-03T13:03:51Z</time></trkpt><trkpt lat="42.59884155017601" lon="12.715312568160483"><ele>275.5</ele><time>2026-05-03T13:03:52Z</time></trkpt><trkpt lat="42.59872854347917" lon="12.715134456727156"><ele>273.0</ele><time>2026-05-03T13:03:53Z</time></trkpt><trkpt lat="42.59879302798182" lon="12.71519580964408"><ele>270.5</ele><time>2026-05-03T13:03:54Z</time></trkpt><trkpt lat="42.59871247377745" lon="12.715072869276987"><ele>268.0</ele><time>2026-05-03T13:03:55Z</time></trkpt><trkpt lat="42.59863248004631" lon="12.714954046276183"><ele>268.0</ele><time>2026-05-03T13:03:56Z</time></trkpt><trkpt lat="42.598554213661096" lon="12.714832119799159"><ele>268.0</ele><time>2026-05-03T13:03:57Z</time></trkpt><trkpt lat="42.59847827115746" lon="12.714699361722458"><ele>268.0</ele><time>2026-05-03T13:03:58Z</time></trkpt><trkpt lat="42.598428939690756" lon="12.714562161725324"><ele>268.0</ele><time>2026-05-03T13:03:59Z</time></trkpt><trkpt lat="42.598409953487476" lon="12.71441766927974"><ele>267.6</ele><time>2026-05-03T13:04:00Z</time></trkpt><trkpt lat="42.598418460523156" lon="12.714267192994118"><ele>267.20000000000005</ele><time>2026-05-03T13:04:01Z</time></trkpt><trkpt lat="42.59844576373109" lon="12.714122305563704"><ele>266.8</ele><time>2026-05-03T13:04:02Z</time></trkpt><trkpt lat="42.59848412819431" lon="12.71399020146359"><ele>266.40000000000003</ele><time>2026-05-03T13:04:03Z</time></trkpt><trkpt lat="42.59852593234612" lon="12.713852582134663"><ele>266.0</ele><time>2026-05-03T13:04:04Z</time></trkpt><trkpt lat="42.59856119539317" lon="12.713711999605916"><ele>265.40000000000003</ele><time>2026-05-03T13:04:05Z</time></trkpt><trkpt lat="42.59859114236481" lon="12.713564336682424"><ele>264.8</ele><time>2026-05-03T13:04:06Z</time></trkpt><trkpt lat="42.598614516413015" lon="12.713422214038086"><ele>264.20000000000005</ele><time>2026-05-03T13:04:07Z</time></trkpt><trkpt lat="42.5986107965218" lon="12.713274923315348"><ele>263.6</ele><time>2026-05-03T13:04:08Z</time></trkpt><trkpt lat="42.598584427249996" lon="12.713130612711337"><ele>263.0</ele><time>2026-05-03T13:04:09Z</time></trkpt><trkpt lat="42.598534529085896" lon="12.712998919529001"><ele>263.0</ele><time>2026-05-03T13:04:10Z</time></trkpt><trkpt lat="42.598467571394345" lon="12.712886672743439"><ele>263.0</ele><time>2026-05-03T13:04:11.001Z</time></trkpt><trkpt lat="42.598382318088206" lon="12.712790282231802"><ele>263.0</ele><time>2026-05-03T13:04:12.001Z</time></trkpt><trkpt lat="42.59827942678342" lon="12.712714785776194"><ele>263.0</ele><time>2026-05-03T13:04:13.001Z</time></trkpt><trkpt lat="42.5981681641259" lon="12.712678518386351"><ele>263.0</ele><time>2026-05-03T13:04:14.001Z</time></trkpt><trkpt lat="42.59805420500509" lon="12.712653015170885"><ele>263.5</ele><time>2026-05-03T13:04:15.001Z</time></trkpt><trkpt lat="42.59794118732069" lon="12.712636504319397"><ele>264.0</ele><time>2026-05-03T13:04:16.001Z</time></trkpt><trkpt lat="42.59782762488878" lon="12.712621918219359"><ele>264.5</ele><time>2026-05-03T13:04:17.001Z</time></trkpt><trkpt lat="42.59771092888632" lon="12.712611747556243"><ele>265.0</ele><time>2026-05-03T13:04:18.001Z</time></trkpt><trkpt lat="42.59759460035112" lon="12.712610079928664"><ele>265.0</ele><time>2026-05-03T13:04:19.001Z</time></trkpt><trkpt lat="42.59747268902331" lon="12.712622463857453"><ele>265.0</ele><time>2026-05-03T13:04:20.001Z</time></trkpt><trkpt lat="42.59735125335255" lon="12.712621520345483"><ele>265.0</ele><time>2026-05-03T13:04:21.001Z</time></trkpt><trkpt lat="42.59722264895132" lon="12.712616049424458"><ele>265.0</ele><time>2026-05-03T13:04:22.001Z</time></trkpt><trkpt lat="42.59710496440475" lon="12.712551312174016"><ele>261.0</ele><time>2026-05-03T13:04:23.001Z</time></trkpt><trkpt lat="42.59698586836055" lon="12.712495009875314"><ele>257.0</ele><time>2026-05-03T13:04:24.001Z</time></trkpt><trkpt lat="42.59688506231367" lon="12.712394915994192"><ele>253.0</ele><time>2026-05-03T13:04:25.001Z</time></trkpt><trkpt lat="42.59679382699665" lon="12.712291543409961"><ele>249.0</ele><time>2026-05-03T13:04:26.001Z</time></trkpt><trkpt lat="42.59670356152988" lon="12.712182990399135"><ele>249.0</ele><time>2026-05-03T13:04:27.001Z</time></trkpt><trkpt lat="42.59662257302924" lon="12.712079355332353"><ele>248.99999999999997</ele><time>2026-05-03T13:04:28.001Z</time></trkpt><trkpt lat="42.59654515873864" lon="12.711971778616565"><ele>248.99999999999997</ele><time>2026-05-03T13:04:29.001Z</time></trkpt><trkpt lat="42.5964786513928" lon="12.711862951109408"><ele>249.0</ele><time>2026-05-03T13:04:30Z</time></trkpt><trkpt lat="42.59642682264579" lon="12.71177178360582"><ele>249.0</ele><time>2026-05-03T13:04:31Z</time></trkpt><trkpt lat="42.59636113104866" lon="12.711671399568132"><ele>250.2</ele><time>2026-05-03T13:04:33Z</time></trkpt><trkpt lat="42.59629933842628" lon="12.711626108562921"><ele>251.39999999999998</ele><time>2026-05-03T13:05:47Z</time></trkpt><trkpt lat="42.59621149027947" lon="12.711565478475823"><ele>252.6</ele><time>2026-05-03T13:05:50Z</time></trkpt><trkpt lat="42.59609167638265" lon="12.711504609581953"><ele>253.8</ele><time>2026-05-03T13:05:52Z</time></trkpt><trkpt lat="42.59602499523319" lon="12.71146725096198"><ele>255.0</ele><time>2026-05-03T13:05:53Z</time></trkpt><trkpt lat="42.59594672774178" lon="12.71143895710034"><ele>255.0</ele><time>2026-05-03T13:05:54Z</time></trkpt><trkpt lat="42.59585558674316" lon="12.711426250807518"><ele>255.0</ele><time>2026-05-03T13:05:55Z</time></trkpt><trkpt lat="42.595757580116484" lon="12.711425925597979"><ele>255.0</ele><time>2026-05-03T13:05:56Z</time></trkpt><trkpt lat="42.59565703539113" lon="12.711434078246407"><ele>255.0</ele><time>2026-05-03T13:05:57Z</time></trkpt><trkpt lat="42.595551250415404" lon="12.711456235031008"><ele>255.0</ele><time>2026-05-03T13:05:58Z</time></trkpt><trkpt lat="42.59544475903733" lon="12.71149063130764"><ele>254.5</ele><time>2026-05-03T13:05:59Z</time></trkpt><trkpt lat="42.59533302704695" lon="12.711532229637115"><ele>254.0</ele><time>2026-05-03T13:06:00Z</time></trkpt><trkpt lat="42.59521358442812" lon="12.711576525734095"><ele>253.5</ele><time>2026-05-03T13:06:01Z</time></trkpt><trkpt lat="42.59508961510834" lon="12.711624907514278"><ele>253.0</ele><time>2026-05-03T13:06:02Z</time></trkpt><trkpt lat="42.59496049804698" lon="12.711664275625807"><ele>253.0</ele><time>2026-05-03T13:06:03Z</time></trkpt><trkpt lat="42.594833924414644" lon="12.711694247118043"><ele>253.0</ele><time>2026-05-03T13:06:04Z</time></trkpt><trkpt lat="42.59469142226688" lon="12.711733740654326"><ele>253.0</ele><time>2026-05-03T13:06:04.999Z</time></trkpt><trkpt lat="42.59455484906884" lon="12.711748169886622"><ele>253.0</ele><time>2026-05-03T13:06:05.999Z</time></trkpt><trkpt lat="42.59440953365355" lon="12.711752525974362"><ele>252.0</ele><time>2026-05-03T13:06:06.999Z</time></trkpt><trkpt lat="42.59426593675375" lon="12.711716678552362"><ele>251.0</ele><time>2026-05-03T13:06:07.999Z</time></trkpt><trkpt lat="42.59412828004822" lon="12.711658300860869"><ele>250.0</ele><time>2026-05-03T13:06:08.999Z</time></trkpt><trkpt lat="42.59399644964461" lon="12.711572024648804"><ele>249.0</ele><time>2026-05-03T13:06:09.999Z</time></trkpt><trkpt lat="42.59387474534569" lon="12.71145909144661"><ele>249.0</ele><time>2026-05-03T13:06:10.999Z</time></trkpt><trkpt lat="42.59375528730058" lon="12.711327149081809"><ele>249.0</ele><time>2026-05-03T13:06:11.999Z</time></trkpt><trkpt lat="42.59363872986748" lon="12.711199608374748"><ele>249.0</ele><time>2026-05-03T13:06:12.999Z</time></trkpt><trkpt lat="42.59351757541108" lon="12.711087985031394"><ele>250.0</ele><time>2026-05-03T13:06:13.999Z</time></trkpt><trkpt lat="42.59339106920276" lon="12.710978250038133"><ele>251.0</ele><time>2026-05-03T13:06:14.999Z</time></trkpt><trkpt lat="42.593270286407765" lon="12.710868702361074"><ele>252.0</ele><time>2026-05-03T13:06:15.999Z</time></trkpt><trkpt lat="42.59314662723755" lon="12.710768158539917"><ele>253.0</ele><time>2026-05-03T13:06:17Z</time></trkpt><trkpt lat="42.59301243215531" lon="12.710682383489203"><ele>253.0</ele><time>2026-05-03T13:06:18Z</time></trkpt><trkpt lat="42.59288147948095" lon="12.710609917028302"><ele>253.0</ele><time>2026-05-03T13:06:19Z</time></trkpt><trkpt lat="42.59273942516656" lon="12.7105362351045"><ele>253.0</ele><time>2026-05-03T13:06:20Z</time></trkpt><trkpt lat="42.59260267333281" lon="12.71047205080807"><ele>253.0</ele><time>2026-05-03T13:06:21Z</time></trkpt><trkpt lat="42.59246383511678" lon="12.710401715222748"><ele>255.25</ele><time>2026-05-03T13:06:22Z</time></trkpt><trkpt lat="42.592325029027876" lon="12.710328985547946"><ele>257.5</ele><time>2026-05-03T13:06:23Z</time></trkpt><trkpt lat="42.59219970707869" lon="12.710237011766223"><ele>259.75</ele><time>2026-05-03T13:06:24Z</time></trkpt><trkpt lat="42.59207934112306" lon="12.710118396027136"><ele>262.0</ele><time>2026-05-03T13:06:25Z</time></trkpt><trkpt lat="42.59199086314725" lon="12.709960190012753"><ele>254.75</ele><time>2026-05-03T13:06:26Z</time></trkpt><trkpt lat="42.59189482339148" lon="12.709826949733646"><ele>247.5</ele><time>2026-05-03T13:06:27Z</time></trkpt><trkpt lat="42.591812530662224" lon="12.709684211272474"><ele>240.25</ele><time>2026-05-03T13:06:28Z</time></trkpt><trkpt lat="42.591726286542794" lon="12.7095556363907"><ele>233.0</ele><time>2026-05-03T13:06:29Z</time></trkpt><trkpt lat="42.59163777380872" lon="12.70944337819699"><ele>237.5</ele><time>2026-05-03T13:06:30Z</time></trkpt><trkpt lat="42.591547020373284" lon="12.709344281055207"><ele>242.0</ele><time>2026-05-03T13:06:31Z</time></trkpt><trkpt lat="42.59144830814233" lon="12.709257422263464"><ele>246.5</ele><time>2026-05-03T13:06:32Z</time></trkpt><trkpt lat="42.59134635991644" lon="12.709187809634793"><ele>251.0</ele><time>2026-05-03T13:06:33Z</time></trkpt><trkpt lat="42.59124234585697" lon="12.709134878190742"><ele>247.0</ele><time>2026-05-03T13:06:34Z</time></trkpt><trkpt lat="42.591126759236566" lon="12.709091526759636"><ele>243.0</ele><time>2026-05-03T13:06:35Z</time></trkpt><trkpt lat="42.59101138440252" lon="12.709045735018558"><ele>239.0</ele><time>2026-05-03T13:06:36Z</time></trkpt><trkpt lat="42.590896547990056" lon="12.708989886638502"><ele>235.0</ele><time>2026-05-03T13:06:37Z</time></trkpt><trkpt lat="42.59077811257216" lon="12.708926057639276"><ele>235.0</ele><time>2026-05-03T13:06:38Z</time></trkpt><trkpt lat="42.590662462621935" lon="12.708849548057456"><ele>235.0</ele><time>2026-05-03T13:06:39Z</time></trkpt><trkpt lat="42.59055144184918" lon="12.70875480162234"><ele>235.0</ele><time>2026-05-03T13:06:40Z</time></trkpt><trkpt lat="42.590443440387396" lon="12.70865217492628"><ele>235.0</ele><time>2026-05-03T13:06:41Z</time></trkpt><trkpt lat="42.59033385392329" lon="12.708549285834554"><ele>235.25</ele><time>2026-05-03T13:06:42Z</time></trkpt><trkpt lat="42.59022988575537" lon="12.708439435384305"><ele>235.5</ele><time>2026-05-03T13:06:43Z</time></trkpt><trkpt lat="42.5901326889628" lon="12.708321987180094"><ele>235.75</ele><time>2026-05-03T13:06:44Z</time></trkpt><trkpt lat="42.59004802027404" lon="12.708189856428826"><ele>236.0</ele><time>2026-05-03T13:06:45Z</time></trkpt><trkpt lat="42.58996834812062" lon="12.70804950029131"><ele>236.0</ele><time>2026-05-03T13:06:46Z</time></trkpt><trkpt lat="42.58987730035859" lon="12.707918597443706"><ele>236.0</ele><time>2026-05-03T13:06:47Z</time></trkpt><trkpt lat="42.58975287519722" lon="12.707814000725362"><ele>236.0</ele><time>2026-05-03T13:06:48Z</time></trkpt><trkpt lat="42.589634645593634" lon="12.707718918753429"><ele>236.0</ele><time>2026-05-03T13:06:49Z</time></trkpt><trkpt lat="42.589506925644734" lon="12.707640656118809"><ele>235.25</ele><time>2026-05-03T13:06:50Z</time></trkpt><trkpt lat="42.58938383765617" lon="12.707551382402869"><ele>234.5</ele><time>2026-05-03T13:06:51Z</time></trkpt><trkpt lat="42.58927848728127" lon="12.707484302924973"><ele>233.75</ele><time>2026-05-03T13:06:52Z</time></trkpt><trkpt lat="42.58913887625048" lon="12.707398047816309"><ele>233.0</ele><time>2026-05-03T13:06:53Z</time></trkpt><trkpt lat="42.58901119626664" lon="12.707325094953092"><ele>233.0</ele><time>2026-05-03T13:06:54Z</time></trkpt><trkpt lat="42.5888872450755" lon="12.707248127699502"><ele>233.0</ele><time>2026-05-03T13:06:55Z</time></trkpt><trkpt lat="42.58876375859656" lon="12.707170578129759"><ele>233.0</ele><time>2026-05-03T13:06:56Z</time></trkpt><trkpt lat="42.58863591397726" lon="12.70709233774546"><ele>233.0</ele><time>2026-05-03T13:06:57Z</time></trkpt><trkpt lat="42.58851006685835" lon="12.707025720745074"><ele>233.75</ele><time>2026-05-03T13:06:58Z</time></trkpt><trkpt lat="42.58838770283448" lon="12.706959935863827"><ele>234.5</ele><time>2026-05-03T13:06:59Z</time></trkpt><trkpt lat="42.5882707404226" lon="12.706900144198126"><ele>235.25</ele><time>2026-05-03T13:07:00Z</time></trkpt><trkpt lat="42.58815153368994" lon="12.706838232280752"><ele>236.0</ele><time>2026-05-03T13:07:01Z</time></trkpt><trkpt lat="42.58803767508463" lon="12.706760791242104"><ele>236.0</ele><time>2026-05-03T13:07:02Z</time></trkpt><trkpt lat="42.58793444694856" lon="12.70665484344815"><ele>236.0</ele><time>2026-05-03T13:07:03Z</time></trkpt><trkpt lat="42.58784459894303" lon="12.706525209092066"><ele>236.0</ele><time>2026-05-03T13:07:04Z</time></trkpt><trkpt lat="42.58775461410167" lon="12.706388354524572"><ele>236.0</ele><time>2026-05-03T13:07:05Z</time></trkpt><trkpt lat="42.58766659448921" lon="12.706246266475318"><ele>234.5</ele><time>2026-05-03T13:07:06Z</time></trkpt><trkpt lat="42.5875781315667" lon="12.70610037711119"><ele>233.0</ele><time>2026-05-03T13:07:07Z</time></trkpt><trkpt lat="42.5874939336769" lon="12.705953681730138"><ele>231.5</ele><time>2026-05-03T13:07:08Z</time></trkpt><trkpt lat="42.587409975480725" lon="12.705809306971771"><ele>230.0</ele><time>2026-05-03T13:07:09Z</time></trkpt><trkpt lat="42.58732622785465" lon="12.70566331847214"><ele>230.0</ele><time>2026-05-03T13:07:10Z</time></trkpt><trkpt lat="42.58723443644417" lon="12.705548854931338"><ele>230.0</ele><time>2026-05-03T13:07:11Z</time></trkpt><trkpt lat="42.587150518241835" lon="12.70541512825453"><ele>230.0</ele><time>2026-05-03T13:07:12Z</time></trkpt><trkpt lat="42.58706711817479" lon="12.705275600206239"><ele>230.0</ele><time>2026-05-03T13:07:13Z</time></trkpt><trkpt lat="42.58697345240553" lon="12.705149349473508"><ele>229.75</ele><time>2026-05-03T13:07:14Z</time></trkpt><trkpt lat="42.586866445953774" lon="12.70503449725384"><ele>229.5</ele><time>2026-05-03T13:07:15Z</time></trkpt><trkpt lat="42.58674914319857" lon="12.704932791017281"><ele>229.25</ele><time>2026-05-03T13:07:16Z</time></trkpt><trkpt lat="42.586627267532926" lon="12.704823957433325"><ele>229.0</ele><time>2026-05-03T13:07:17Z</time></trkpt><trkpt lat="42.58651767751608" lon="12.704694172492154"><ele>229.0</ele><time>2026-05-03T13:07:18Z</time></trkpt><trkpt lat="42.58642865820073" lon="12.70454879680246"><ele>229.0</ele><time>2026-05-03T13:07:19Z</time></trkpt><trkpt lat="42.58636230724624" lon="12.70438176064935"><ele>229.0</ele><time>2026-05-03T13:07:20Z</time></trkpt><trkpt lat="42.5862916541673" lon="12.704218225881595"><ele>229.0</ele><time>2026-05-03T13:07:21Z</time></trkpt><trkpt lat="42.58620747112199" lon="12.704064449661002"><ele>227.0</ele><time>2026-05-03T13:07:22Z</time></trkpt><trkpt lat="42.5860955898925" lon="12.703944591608202"><ele>225.0</ele><time>2026-05-03T13:07:23Z</time></trkpt><trkpt lat="42.58597357693018" lon="12.703847793154784"><ele>223.0</ele><time>2026-05-03T13:07:24Z</time></trkpt><trkpt lat="42.5858433577821" lon="12.703752375748788"><ele>221.0</ele><time>2026-05-03T13:07:25Z</time></trkpt><trkpt lat="42.585718939750606" lon="12.703639358012294"><ele>219.0</ele><time>2026-05-03T13:07:26Z</time></trkpt><trkpt lat="42.58560605597839" lon="12.703504245434448"><ele>217.0</ele><time>2026-05-03T13:07:27Z</time></trkpt><trkpt lat="42.58550014537926" lon="12.703362185267661"><ele>215.0</ele><time>2026-05-03T13:07:28Z</time></trkpt><trkpt lat="42.585399610993605" lon="12.703214578503296"><ele>213.0</ele><time>2026-05-03T13:07:28.999Z</time></trkpt><trkpt lat="42.58533006981866" lon="12.703042442257964"><ele>213.0</ele><time>2026-05-03T13:07:29.999Z</time></trkpt><trkpt lat="42.58527265886249" lon="12.70285668476047"><ele>213.0</ele><time>2026-05-03T13:07:30.999Z</time></trkpt><trkpt lat="42.58521686278" lon="12.702667376845433"><ele>213.0</ele><time>2026-05-03T13:07:31.999Z</time></trkpt><trkpt lat="42.58516948047293" lon="12.702476921597201"><ele>213.0</ele><time>2026-05-03T13:07:32.999Z</time></trkpt><trkpt lat="42.58511622236954" lon="12.702301583713957"><ele>213.75</ele><time>2026-05-03T13:07:33.999Z</time></trkpt><trkpt lat="42.585060633405405" lon="12.70213121866693"><ele>214.5</ele><time>2026-05-03T13:07:34.999Z</time></trkpt><trkpt lat="42.585009716827855" lon="12.701967859316415"><ele>215.25</ele><time>2026-05-03T13:07:35.999Z</time></trkpt><trkpt lat="42.58495670191833" lon="12.701819466524386"><ele>216.0</ele><time>2026-05-03T13:07:36.999Z</time></trkpt><trkpt lat="42.584907194735706" lon="12.701690392773498"><ele>217.60000000000002</ele><time>2026-05-03T13:07:37.999Z</time></trkpt><trkpt lat="42.584860909729535" lon="12.701576283998817"><ele>219.20000000000002</ele><time>2026-05-03T13:07:38.999Z</time></trkpt><trkpt lat="42.58482635172578" lon="12.701479543662177"><ele>220.79999999999998</ele><time>2026-05-03T13:07:39.999Z</time></trkpt><trkpt lat="42.584778577404265" lon="12.701337529319868"><ele>222.39999999999998</ele><time>2026-05-03T13:07:41.999Z</time></trkpt><trkpt lat="42.58472151013534" lon="12.70119744696494"><ele>224.0</ele><time>2026-05-03T13:07:43.999Z</time></trkpt><trkpt lat="42.58467523518202" lon="12.701075896813963"><ele>225.79999999999998</ele><time>2026-05-03T13:07:45.999Z</time></trkpt><trkpt lat="42.584628128402024" lon="12.700953451026045"><ele>227.59999999999997</ele><time>2026-05-03T13:07:47.999Z</time></trkpt><trkpt lat="42.58457412168745" lon="12.70081646620225"><ele>229.4</ele><time>2026-05-03T13:07:49.999Z</time></trkpt><trkpt lat="42.58451822631256" lon="12.700658145712165"><ele>231.2</ele><time>2026-05-03T13:07:51.999Z</time></trkpt><trkpt lat="42.58448421550057" lon="12.700580039857316"><ele>233.0</ele><time>2026-05-03T13:07:52.999Z</time></trkpt><trkpt lat="42.58444825845032" lon="12.700506982893556"><ele>229.14285714285714</ele><time>2026-05-03T13:07:53.999Z</time></trkpt><trkpt lat="42.58440782235284" lon="12.700433472866674"><ele>225.28571428571428</ele><time>2026-05-03T13:07:54.999Z</time></trkpt><trkpt lat="42.58436894828922" lon="12.70035150633618"><ele>221.42857142857142</ele><time>2026-05-03T13:07:55.999Z</time></trkpt><trkpt lat="42.58433258915384" lon="12.700270089079872"><ele>217.57142857142856</ele><time>2026-05-03T13:07:56.999Z</time></trkpt><trkpt lat="42.584303278923336" lon="12.700178163889152"><ele>213.71428571428572</ele><time>2026-05-03T13:07:57.999Z</time></trkpt><trkpt lat="42.58428613635766" lon="12.70008170751092"><ele>209.85714285714283</ele><time>2026-05-03T13:07:58.999Z</time></trkpt><trkpt lat="42.5842592858803" lon="12.699987714678844"><ele>206.0</ele><time>2026-05-03T13:07:59.999Z</time></trkpt><trkpt lat="42.584215607759624" lon="12.699900358718144"><ele>206.0</ele><time>2026-05-03T13:08:00.999Z</time></trkpt><trkpt lat="42.58416399441433" lon="12.699818893553479"><ele>206.0</ele><time>2026-05-03T13:08:01.999Z</time></trkpt><trkpt lat="42.58411464077359" lon="12.699727847365622"><ele>206.0</ele><time>2026-05-03T13:08:02.999Z</time></trkpt><trkpt lat="42.584074809990796" lon="12.699619676313587"><ele>206.0</ele><time>2026-05-03T13:08:03.999Z</time></trkpt><trkpt lat="42.58418991624996" lon="12.699402534447897"><ele>206.0</ele><time>2026-05-03T13:08:04.999Z</time></trkpt><trkpt lat="42.584023407592724" lon="12.699372509759547"><ele>207.20000000000002</ele><time>2026-05-03T13:08:05.999Z</time></trkpt><trkpt lat="42.58399865030984" lon="12.699240539988335"><ele>208.4</ele><time>2026-05-03T13:08:06.999Z</time></trkpt><trkpt lat="42.58397216412975" lon="12.699108193822697"><ele>209.6</ele><time>2026-05-03T13:08:07.999Z</time></trkpt><trkpt lat="42.58393916768612" lon="12.698973229056907"><ele>210.8</ele><time>2026-05-03T13:08:08.999Z</time></trkpt><trkpt lat="42.58389262618786" lon="12.698839620673342"><ele>212.0</ele><time>2026-05-03T13:08:09.999Z</time></trkpt><trkpt lat="42.58385461438189" lon="12.698722754899702"><ele>212.0</ele><time>2026-05-03T13:08:10.999Z</time></trkpt><trkpt lat="42.583765181653995" lon="12.698600477057104"><ele>212.0</ele><time>2026-05-03T13:08:11.999Z</time></trkpt><trkpt lat="42.58370334934691" lon="12.698478825706601"><ele>212.0</ele><time>2026-05-03T13:08:12.999Z</time></trkpt><trkpt lat="42.583636196522555" lon="12.698347717364278"><ele>212.0</ele><time>2026-05-03T13:08:13.999Z</time></trkpt><trkpt lat="42.58357029230777" lon="12.698215513027254"><ele>210.75</ele><time>2026-05-03T13:08:14.999Z</time></trkpt><trkpt lat="42.58350405509033" lon="12.698077603709057"><ele>209.5</ele><time>2026-05-03T13:08:15.999Z</time></trkpt><trkpt lat="42.58344067688049" lon="12.69793295714336"><ele>208.25</ele><time>2026-05-03T13:08:16.999Z</time></trkpt><trkpt lat="42.58338070948766" lon="12.697790392548892"><ele>207.0</ele><time>2026-05-03T13:08:17.999Z</time></trkpt><trkpt lat="42.58331629740162" lon="12.697638507973245"><ele>207.0</ele><time>2026-05-03T13:08:18.999Z</time></trkpt><trkpt lat="42.583245145908585" lon="12.697487199368844"><ele>207.0</ele><time>2026-05-03T13:08:19.999Z</time></trkpt><trkpt lat="42.583174434231026" lon="12.697331219739286"><ele>207.0</ele><time>2026-05-03T13:08:20.999Z</time></trkpt><trkpt lat="42.583105494322204" lon="12.697179388837249"><ele>207.0</ele><time>2026-05-03T13:08:21.999Z</time></trkpt><trkpt lat="42.58303445287281" lon="12.697021596647266"><ele>208.5</ele><time>2026-05-03T13:08:23Z</time></trkpt><trkpt lat="42.5829677007857" lon="12.696864514021213"><ele>210.0</ele><time>2026-05-03T13:08:24Z</time></trkpt><trkpt lat="42.582898285421884" lon="12.696704189074172"><ele>211.5</ele><time>2026-05-03T13:08:25Z</time></trkpt><trkpt lat="42.5828286345337" lon="12.696544148936377"><ele>213.0</ele><time>2026-05-03T13:08:26Z</time></trkpt><trkpt lat="42.58276580530313" lon="12.696377359640948"><ele>210.5</ele><time>2026-05-03T13:08:27Z</time></trkpt><trkpt lat="42.58273783191163" lon="12.696189158304371"><ele>208.0</ele><time>2026-05-03T13:08:28Z</time></trkpt><trkpt lat="42.58266327974818" lon="12.69603106824293"><ele>205.5</ele><time>2026-05-03T13:08:29Z</time></trkpt><trkpt lat="42.58256560335028" lon="12.695883029050322"><ele>203.0</ele><time>2026-05-03T13:08:30Z</time></trkpt><trkpt lat="42.58246977376113" lon="12.695740139184307"><ele>203.0</ele><time>2026-05-03T13:08:31Z</time></trkpt><trkpt lat="42.58241396102566" lon="12.695559445055745"><ele>203.0</ele><time>2026-05-03T13:08:32Z</time></trkpt><trkpt lat="42.58234050099487" lon="12.69539241069666"><ele>203.0</ele><time>2026-05-03T13:08:33Z</time></trkpt><trkpt lat="42.58226428179924" lon="12.695230912079447"><ele>203.0</ele><time>2026-05-03T13:08:34Z</time></trkpt><trkpt lat="42.58219122462082" lon="12.695066591501496"><ele>203.5</ele><time>2026-05-03T13:08:35Z</time></trkpt><trkpt lat="42.582112883568755" lon="12.694898776462825"><ele>204.0</ele><time>2026-05-03T13:08:36Z</time></trkpt><trkpt lat="42.58203799920465" lon="12.694735557450533"><ele>204.5</ele><time>2026-05-03T13:08:37Z</time></trkpt><trkpt lat="42.58196447740469" lon="12.69457240699619"><ele>205.0</ele><time>2026-05-03T13:08:38Z</time></trkpt><trkpt lat="42.581893596502105" lon="12.694407943809459"><ele>203.25</ele><time>2026-05-03T13:08:39Z</time></trkpt><trkpt lat="42.58182012783505" lon="12.694246780006512"><ele>201.5</ele><time>2026-05-03T13:08:40Z</time></trkpt><trkpt lat="42.58174254396759" lon="12.694084903500913"><ele>199.75</ele><time>2026-05-03T13:08:41Z</time></trkpt><trkpt lat="42.581667796916186" lon="12.693922587819905"><ele>198.0</ele><time>2026-05-03T13:08:42Z</time></trkpt><trkpt lat="42.581593995008895" lon="12.6937594544883"><ele>198.0</ele><time>2026-05-03T13:08:43Z</time></trkpt><trkpt lat="42.58152179875068" lon="12.693595684483284"><ele>198.0</ele><time>2026-05-03T13:08:44Z</time></trkpt><trkpt lat="42.581445521002124" lon="12.693428486198357"><ele>198.0</ele><time>2026-05-03T13:08:45Z</time></trkpt><trkpt lat="42.58137695605333" lon="12.693264798827013"><ele>198.0</ele><time>2026-05-03T13:08:46Z</time></trkpt><trkpt lat="42.58130304853779" lon="12.693096358885072"><ele>199.0</ele><time>2026-05-03T13:08:47Z</time></trkpt><trkpt lat="42.58122874397066" lon="12.6929323130021"><ele>200.0</ele><time>2026-05-03T13:08:48Z</time></trkpt><trkpt lat="42.58116033606211" lon="12.69277159644096"><ele>201.0</ele><time>2026-05-03T13:08:49Z</time></trkpt><trkpt lat="42.5810856443496" lon="12.692601145877527"><ele>202.0</ele><time>2026-05-03T13:08:50Z</time></trkpt><trkpt lat="42.58101844535743" lon="12.692435114585559"><ele>200.5</ele><time>2026-05-03T13:08:51Z</time></trkpt><trkpt lat="42.58094711285931" lon="12.69226793867298"><ele>199.0</ele><time>2026-05-03T13:08:52Z</time></trkpt><trkpt lat="42.58087509191338" lon="12.692103734366324"><ele>197.5</ele><time>2026-05-03T13:08:53Z</time></trkpt><trkpt lat="42.58080665140944" lon="12.691940047860921"><ele>196.0</ele><time>2026-05-03T13:08:54Z</time></trkpt><trkpt lat="42.58073848018841" lon="12.691770257730436"><ele>196.0</ele><time>2026-05-03T13:08:55Z</time></trkpt><trkpt lat="42.580676555116334" lon="12.691595103623007"><ele>196.0</ele><time>2026-05-03T13:08:56Z</time></trkpt><trkpt lat="42.580618989932155" lon="12.691422418102773"><ele>196.0</ele><time>2026-05-03T13:08:57Z</time></trkpt><trkpt lat="42.58056080961867" lon="12.691243131512103"><ele>196.0</ele><time>2026-05-03T13:08:58Z</time></trkpt><trkpt lat="42.58050600433827" lon="12.691064407856572"><ele>196.25</ele><time>2026-05-03T13:08:59Z</time></trkpt><trkpt lat="42.58045416675422" lon="12.690883264012268"><ele>196.5</ele><time>2026-05-03T13:09:00Z</time></trkpt><trkpt lat="42.580405050723876" lon="12.690702627649278"><ele>196.75</ele><time>2026-05-03T13:09:01Z</time></trkpt><trkpt lat="42.58036186016664" lon="12.690523957746183"><ele>197.0</ele><time>2026-05-03T13:09:02Z</time></trkpt><trkpt lat="42.58031649054286" lon="12.69034466113111"><ele>195.75</ele><time>2026-05-03T13:09:03Z</time></trkpt><trkpt lat="42.58027438906871" lon="12.69016460778974"><ele>194.5</ele><time>2026-05-03T13:09:04Z</time></trkpt><trkpt lat="42.58023974483643" lon="12.689978549935494"><ele>193.25</ele><time>2026-05-03T13:09:05Z</time></trkpt><trkpt lat="42.58020535239275" lon="12.689791944886641"><ele>192.0</ele><time>2026-05-03T13:09:06Z</time></trkpt><trkpt lat="42.58017390656087" lon="12.689601321938476"><ele>192.5</ele><time>2026-05-03T13:09:07Z</time></trkpt><trkpt lat="42.580142236569756" lon="12.689414525005951"><ele>193.0</ele><time>2026-05-03T13:09:08Z</time></trkpt><trkpt lat="42.580113502298936" lon="12.6892228382005"><ele>193.5</ele><time>2026-05-03T13:09:09Z</time></trkpt><trkpt lat="42.58008881701105" lon="12.689033744902053"><ele>194.0</ele><time>2026-05-03T13:09:10Z</time></trkpt><trkpt lat="42.58006762090767" lon="12.688846996257402"><ele>194.0</ele><time>2026-05-03T13:09:11Z</time></trkpt><trkpt lat="42.58004922732509" lon="12.688659484785216"><ele>194.0</ele><time>2026-05-03T13:09:12Z</time></trkpt><trkpt lat="42.58003285397538" lon="12.6884825010705"><ele>194.0</ele><time>2026-05-03T13:09:13Z</time></trkpt><trkpt lat="42.58002294590092" lon="12.688312216764562"><ele>194.0</ele><time>2026-05-03T13:09:14Z</time></trkpt><trkpt lat="42.58001785123797" lon="12.688137663982573"><ele>194.0</ele><time>2026-05-03T13:09:15Z</time></trkpt><trkpt lat="42.5800131123025" lon="12.687971571057771"><ele>194.0</ele><time>2026-05-03T13:09:16Z</time></trkpt><trkpt lat="42.580009369222736" lon="12.687803161488855"><ele>194.0</ele><time>2026-05-03T13:09:17Z</time></trkpt><trkpt lat="42.580005874491526" lon="12.687640838475298"><ele>194.0</ele><time>2026-05-03T13:09:18Z</time></trkpt><trkpt lat="42.580007172352026" lon="12.687477847596085"><ele>194.25</ele><time>2026-05-03T13:09:19Z</time></trkpt><trkpt lat="42.580012671682915" lon="12.68731646613626"><ele>194.5</ele><time>2026-05-03T13:09:20Z</time></trkpt><trkpt lat="42.58001770436072" lon="12.687159279900081"><ele>194.75</ele><time>2026-05-03T13:09:21Z</time></trkpt><trkpt lat="42.580027342701726" lon="12.686998735647018"><ele>195.0</ele><time>2026-05-03T13:09:22Z</time></trkpt><trkpt lat="42.58003860008546" lon="12.686839586326878"><ele>195.25</ele><time>2026-05-03T13:09:23Z</time></trkpt><trkpt lat="42.580051797322824" lon="12.68666632960658"><ele>195.5</ele><time>2026-05-03T13:09:24Z</time></trkpt><trkpt lat="42.580063367976756" lon="12.686494347031964"><ele>195.75</ele><time>2026-05-03T13:09:24.999Z</time></trkpt><trkpt lat="42.58008362279184" lon="12.686315413633839"><ele>196.0</ele><time>2026-05-03T13:09:25.999Z</time></trkpt><trkpt lat="42.58010260680771" lon="12.686131171796086"><ele>196.0</ele><time>2026-05-03T13:09:26.999Z</time></trkpt><trkpt lat="42.58012901130333" lon="12.685948596317862"><ele>196.0</ele><time>2026-05-03T13:09:27.999Z</time></trkpt><trkpt lat="42.580157396685465" lon="12.685768310233481"><ele>196.0</ele><time>2026-05-03T13:09:28.999Z</time></trkpt><trkpt lat="42.580185574210354" lon="12.68559219833345"><ele>196.0</ele><time>2026-05-03T13:09:29.999Z</time></trkpt><trkpt lat="42.580214012323545" lon="12.685414828321365"><ele>196.5</ele><time>2026-05-03T13:09:30.999Z</time></trkpt><trkpt lat="42.580244066618064" lon="12.68523389338534"><ele>197.0</ele><time>2026-05-03T13:09:31.999Z</time></trkpt><trkpt lat="42.58027881253576" lon="12.685053977821708"><ele>197.5</ele><time>2026-05-03T13:09:32.999Z</time></trkpt><trkpt lat="42.580314188459525" lon="12.684884175840976"><ele>198.0</ele><time>2026-05-03T13:09:33.999Z</time></trkpt><trkpt lat="42.58035939533513" lon="12.684708560270144"><ele>198.0</ele><time>2026-05-03T13:09:34.999Z</time></trkpt><trkpt lat="42.580395074568656" lon="12.684536268616945"><ele>198.0</ele><time>2026-05-03T13:09:35.999Z</time></trkpt><trkpt lat="42.58044389429196" lon="12.684362093813919"><ele>198.0</ele><time>2026-05-03T13:09:36.999Z</time></trkpt><trkpt lat="42.580496396257686" lon="12.684193571046883"><ele>198.0</ele><time>2026-05-03T13:09:37.999Z</time></trkpt><trkpt lat="42.580551937040084" lon="12.684022385484353"><ele>195.5</ele><time>2026-05-03T13:09:38.999Z</time></trkpt><trkpt lat="42.58060551115571" lon="12.68385309392523"><ele>193.0</ele><time>2026-05-03T13:09:39.999Z</time></trkpt><trkpt lat="42.58065746634495" lon="12.683685105537888"><ele>190.5</ele><time>2026-05-03T13:09:40.999Z</time></trkpt><trkpt lat="42.580714749139744" lon="12.683516950149382"><ele>188.0</ele><time>2026-05-03T13:09:41.999Z</time></trkpt><trkpt lat="42.580777380834355" lon="12.683349919838106"><ele>186.5</ele><time>2026-05-03T13:09:42.999Z</time></trkpt><trkpt lat="42.58084264346671" lon="12.683185068908953"><ele>185.0</ele><time>2026-05-03T13:09:43.999Z</time></trkpt><trkpt lat="42.58091327515857" lon="12.683023759325923"><ele>183.5</ele><time>2026-05-03T13:09:44.999Z</time></trkpt><trkpt lat="42.58098331188079" lon="12.682855362460547"><ele>182.0</ele><time>2026-05-03T13:09:45.999Z</time></trkpt><trkpt lat="42.58106086858197" lon="12.68268909219791"><ele>181.33333333333331</ele><time>2026-05-03T13:09:46.999Z</time></trkpt><trkpt lat="42.58114460065356" lon="12.682510834092888"><ele>180.66666666666666</ele><time>2026-05-03T13:09:47.999Z</time></trkpt><trkpt lat="42.58122612599398" lon="12.682335870995708"><ele>180.0</ele><time>2026-05-03T13:09:48.999Z</time></trkpt><trkpt lat="42.581314032394424" lon="12.68216345262781"><ele>180.0</ele><time>2026-05-03T13:09:49.999Z</time></trkpt><trkpt lat="42.58140772600711" lon="12.68199763118601"><ele>180.0</ele><time>2026-05-03T13:09:50.999Z</time></trkpt><trkpt lat="42.58150107564916" lon="12.681826639276752"><ele>180.0</ele><time>2026-05-03T13:09:51.999Z</time></trkpt><trkpt lat="42.58159660038228" lon="12.681656246877134"><ele>180.0</ele><time>2026-05-03T13:09:52.999Z</time></trkpt><trkpt lat="42.58167817545724" lon="12.68148277743423"><ele>180.0</ele><time>2026-05-03T13:09:53.999Z</time></trkpt><trkpt lat="42.58177200066962" lon="12.68130645885732"><ele>180.0</ele><time>2026-05-03T13:09:54.999Z</time></trkpt><trkpt lat="42.58186683850065" lon="12.681128793291572"><ele>180.0</ele><time>2026-05-03T13:09:55.999Z</time></trkpt><trkpt lat="42.581963147410235" lon="12.680952495696005"><ele>180.0</ele><time>2026-05-03T13:09:56.999Z</time></trkpt><trkpt lat="42.582055932928085" lon="12.680778858081254"><ele>180.0</ele><time>2026-05-03T13:09:57.999Z</time></trkpt><trkpt lat="42.58214886633182" lon="12.680604166178465"><ele>180.0</ele><time>2026-05-03T13:09:58.999Z</time></trkpt><trkpt lat="42.58224237148638" lon="12.680427850928652"><ele>180.0</ele><time>2026-05-03T13:09:59.999Z</time></trkpt><trkpt lat="42.582336580761655" lon="12.680255630585355"><ele>180.0</ele><time>2026-05-03T13:10:00.999Z</time></trkpt><trkpt lat="42.5824294828022" lon="12.680084815190858"><ele>179.66666666666666</ele><time>2026-05-03T13:10:01.999Z</time></trkpt><trkpt lat="42.58251715815173" lon="12.679911024852563"><ele>179.33333333333331</ele><time>2026-05-03T13:10:02.999Z</time></trkpt><trkpt lat="42.582600066695115" lon="12.67973169068015"><ele>179.0</ele><time>2026-05-03T13:10:03.999Z</time></trkpt><trkpt lat="42.58267552191002" lon="12.679551671733913"><ele>178.33333333333331</ele><time>2026-05-03T13:10:04.999Z</time></trkpt><trkpt lat="42.58274470333836" lon="12.679368481800354"><ele>177.66666666666666</ele><time>2026-05-03T13:10:05.999Z</time></trkpt><trkpt lat="42.58280879673226" lon="12.679182208038656"><ele>177.0</ele><time>2026-05-03T13:10:06.999Z</time></trkpt><trkpt lat="42.58286739397389" lon="12.678994184712518"><ele>177.0</ele><time>2026-05-03T13:10:07.999Z</time></trkpt><trkpt lat="42.58292291467485" lon="12.678801612837972"><ele>177.0</ele><time>2026-05-03T13:10:08.999Z</time></trkpt><trkpt lat="42.582976045011584" lon="12.67861106071334"><ele>177.0</ele><time>2026-05-03T13:10:09.999Z</time></trkpt><trkpt lat="42.58302387097185" lon="12.678418155059871"><ele>175.33333333333334</ele><time>2026-05-03T13:10:10.999Z</time></trkpt><trkpt lat="42.58307142091911" lon="12.678223040013693"><ele>173.66666666666669</ele><time>2026-05-03T13:10:11.999Z</time></trkpt><trkpt lat="42.58311950726286" lon="12.678026229822475"><ele>172.0</ele><time>2026-05-03T13:10:12.999Z</time></trkpt><trkpt lat="42.5831709068529" lon="12.677829058356133"><ele>170.66666666666669</ele><time>2026-05-03T13:10:13.999Z</time></trkpt><trkpt lat="42.583219795202986" lon="12.677629907516732"><ele>169.33333333333334</ele><time>2026-05-03T13:10:14.999Z</time></trkpt><trkpt lat="42.58327398802496" lon="12.677429995178771"><ele>168.0</ele><time>2026-05-03T13:10:15.999Z</time></trkpt><trkpt lat="42.58332725025615" lon="12.67723702852744"><ele>168.0</ele><time>2026-05-03T13:10:16.999Z</time></trkpt><trkpt lat="42.583375724460694" lon="12.67704267830464"><ele>168.0</ele><time>2026-05-03T13:10:17.999Z</time></trkpt><trkpt lat="42.583423391801226" lon="12.67685077752022"><ele>168.0</ele><time>2026-05-03T13:10:18.999Z</time></trkpt><trkpt lat="42.58347172125743" lon="12.676656224326331"><ele>167.0</ele><time>2026-05-03T13:10:19.999Z</time></trkpt><trkpt lat="42.58352632610491" lon="12.676468020395687"><ele>166.0</ele><time>2026-05-03T13:10:20.999Z</time></trkpt><trkpt lat="42.5835775286138" lon="12.676267031413074"><ele>165.0</ele><time>2026-05-03T13:10:21.999Z</time></trkpt><trkpt lat="42.583625849482196" lon="12.676066120897785"><ele>165.0</ele><time>2026-05-03T13:10:22.999Z</time></trkpt><trkpt lat="42.58367480509822" lon="12.67586609894661"><ele>165.0</ele><time>2026-05-03T13:10:23.999Z</time></trkpt><trkpt lat="42.58372635801265" lon="12.675668201100168"><ele>165.0</ele><time>2026-05-03T13:10:24.999Z</time></trkpt><trkpt lat="42.58377897806489" lon="12.675467935006337"><ele>166.66666666666666</ele><time>2026-05-03T13:10:25.999Z</time></trkpt><trkpt lat="42.583830712838804" lon="12.675268113245286"><ele>168.33333333333331</ele><time>2026-05-03T13:10:26.999Z</time></trkpt><trkpt lat="42.58388749341133" lon="12.675060812492225"><ele>170.0</ele><time>2026-05-03T13:10:27.999Z</time></trkpt><trkpt lat="42.58394345015205" lon="12.674854002434579"><ele>170.0</ele><time>2026-05-03T13:10:29Z</time></trkpt><trkpt lat="42.58399425705467" lon="12.674635777051149"><ele>170.0</ele><time>2026-05-03T13:10:30Z</time></trkpt><trkpt lat="42.58404862931305" lon="12.674414983199034"><ele>170.0</ele><time>2026-05-03T13:10:31Z</time></trkpt><trkpt lat="42.58411002155683" lon="12.674193458710935"><ele>174.66666666666666</ele><time>2026-05-03T13:10:32Z</time></trkpt><trkpt lat="42.58416612959152" lon="12.67397062958488"><ele>179.33333333333334</ele><time>2026-05-03T13:10:33Z</time></trkpt><trkpt lat="42.58422476772648" lon="12.673743738837599"><ele>184.0</ele><time>2026-05-03T13:10:34Z</time></trkpt><trkpt lat="42.584281888089656" lon="12.6735220153277"><ele>188.33333333333334</ele><time>2026-05-03T13:10:35Z</time></trkpt><trkpt lat="42.58434327211089" lon="12.673300841737328"><ele>192.66666666666669</ele><time>2026-05-03T13:10:36Z</time></trkpt><trkpt lat="42.58440196942085" lon="12.67308115892889"><ele>197.0</ele><time>2026-05-03T13:10:37Z</time></trkpt><trkpt lat="42.58445888777838" lon="12.672859478137235"><ele>196.66666666666669</ele><time>2026-05-03T13:10:38Z</time></trkpt><trkpt lat="42.5845139796868" lon="12.672639386428111"><ele>196.33333333333331</ele><time>2026-05-03T13:10:39Z</time></trkpt><trkpt lat="42.58457356750869" lon="12.672418684186342"><ele>196.0</ele><time>2026-05-03T13:10:40Z</time></trkpt><trkpt lat="42.58463386814991" lon="12.672202539949431"><ele>196.0</ele><time>2026-05-03T13:10:41Z</time></trkpt><trkpt lat="42.58470257716001" lon="12.67199088967288"><ele>196.0</ele><time>2026-05-03T13:10:42Z</time></trkpt><trkpt lat="42.58477906285587" lon="12.67178103544853"><ele>196.0</ele><time>2026-05-03T13:10:43Z</time></trkpt><trkpt lat="42.58484348062697" lon="12.671562503087278"><ele>199.33333333333331</ele><time>2026-05-03T13:10:44Z</time></trkpt><trkpt lat="42.58489979813835" lon="12.671339906190802"><ele>202.66666666666669</ele><time>2026-05-03T13:10:45Z</time></trkpt><trkpt lat="42.58495778321792" lon="12.671119753054242"><ele>206.0</ele><time>2026-05-03T13:10:46Z</time></trkpt><trkpt lat="42.58501437970411" lon="12.670899953128943"><ele>208.0</ele><time>2026-05-03T13:10:47Z</time></trkpt><trkpt lat="42.5850785328322" lon="12.670677767952581"><ele>210.0</ele><time>2026-05-03T13:10:48Z</time></trkpt><trkpt lat="42.58513229303323" lon="12.670457666385083"><ele>212.0</ele><time>2026-05-03T13:10:49Z</time></trkpt><trkpt lat="42.585185757891004" lon="12.670238282986347"><ele>212.33333333333334</ele><time>2026-05-03T13:10:50Z</time></trkpt><trkpt lat="42.58524307224917" lon="12.67001911098351"><ele>212.66666666666669</ele><time>2026-05-03T13:10:51Z</time></trkpt><trkpt lat="42.585301752145696" lon="12.669800425746653"><ele>213.0</ele><time>2026-05-03T13:10:52Z</time></trkpt><trkpt lat="42.58536131359454" lon="12.669580023071"><ele>217.0</ele><time>2026-05-03T13:10:53Z</time></trkpt><trkpt lat="42.58541334212631" lon="12.66935908012557"><ele>221.0</ele><time>2026-05-03T13:10:54Z</time></trkpt><trkpt lat="42.58546761746635" lon="12.669136587710526"><ele>225.0</ele><time>2026-05-03T13:10:55Z</time></trkpt><trkpt lat="42.58552060009015" lon="12.668914914053312"><ele>225.0</ele><time>2026-05-03T13:10:56Z</time></trkpt><trkpt lat="42.585568821476755" lon="12.668687100606482"><ele>225.0</ele><time>2026-05-03T13:10:57Z</time></trkpt><trkpt lat="42.585609704115484" lon="12.668458045789096"><ele>225.0</ele><time>2026-05-03T13:10:58Z</time></trkpt><trkpt lat="42.585646105438464" lon="12.668226003165357"><ele>226.0</ele><time>2026-05-03T13:10:59Z</time></trkpt><trkpt lat="42.5856832320323" lon="12.667997262195543"><ele>227.0</ele><time>2026-05-03T13:11:00Z</time></trkpt><trkpt lat="42.58572104429585" lon="12.667767319661513"><ele>228.0</ele><time>2026-05-03T13:11:01Z</time></trkpt><trkpt lat="42.58575618279099" lon="12.66753135325788"><ele>228.0</ele><time>2026-05-03T13:11:02Z</time></trkpt><trkpt lat="42.58578612794877" lon="12.667290743010788"><ele>228.0</ele><time>2026-05-03T13:11:03Z</time></trkpt><trkpt lat="42.58581073008815" lon="12.6670672430889"><ele>228.0</ele><time>2026-05-03T13:11:04Z</time></trkpt><trkpt lat="42.58583008887382" lon="12.666828434615699"><ele>227.66666666666669</ele><time>2026-05-03T13:11:05Z</time></trkpt><trkpt lat="42.58585254152751" lon="12.666590469398539"><ele>227.33333333333334</ele><time>2026-05-03T13:11:06Z</time></trkpt><trkpt lat="42.58587225027653" lon="12.666354253540959"><ele>227.0</ele><time>2026-05-03T13:11:07Z</time></trkpt><trkpt lat="42.58588378700595" lon="12.666108879325568"><ele>227.66666666666669</ele><time>2026-05-03T13:11:08Z</time></trkpt><trkpt lat="42.58589272851272" lon="12.665865083297463"><ele>228.33333333333331</ele><time>2026-05-03T13:11:09Z</time></trkpt><trkpt lat="42.585896540487774" lon="12.665621719519262"><ele>229.0</ele><time>2026-05-03T13:11:10Z</time></trkpt><trkpt lat="42.585897954723436" lon="12.665374545578056"><ele>229.33333333333331</ele><time>2026-05-03T13:11:11Z</time></trkpt><trkpt lat="42.585901543515185" lon="12.665132685983037"><ele>229.66666666666669</ele><time>2026-05-03T13:11:12Z</time></trkpt><trkpt lat="42.5858971295017" lon="12.664883676391334"><ele>230.0</ele><time>2026-05-03T13:11:13Z</time></trkpt><trkpt lat="42.585895700095314" lon="12.66464227626376"><ele>232.0</ele><time>2026-05-03T13:11:14Z</time></trkpt><trkpt lat="42.585884060878065" lon="12.664395930527194"><ele>234.0</ele><time>2026-05-03T13:11:15Z</time></trkpt><trkpt lat="42.58587133512451" lon="12.664153324767474"><ele>236.0</ele><time>2026-05-03T13:11:16Z</time></trkpt><trkpt lat="42.58585793700975" lon="12.663913576138683"><ele>236.0</ele><time>2026-05-03T13:11:17Z</time></trkpt><trkpt lat="42.585840343042584" lon="12.66367266951954"><ele>236.0</ele><time>2026-05-03T13:11:18Z</time></trkpt><trkpt lat="42.58581215440678" lon="12.663423054249304"><ele>236.0</ele><time>2026-05-03T13:11:19Z</time></trkpt><trkpt lat="42.585788395798325" lon="12.663185194973842"><ele>238.0</ele><time>2026-05-03T13:11:20Z</time></trkpt><trkpt lat="42.585756961272345" lon="12.662934021622236"><ele>240.0</ele><time>2026-05-03T13:11:21Z</time></trkpt><trkpt lat="42.585728287650824" lon="12.662690201511523"><ele>242.0</ele><time>2026-05-03T13:11:22Z</time></trkpt><trkpt lat="42.5856966741018" lon="12.662446317713965"><ele>244.66666666666669</ele><time>2026-05-03T13:11:23Z</time></trkpt><trkpt lat="42.5856642616629" lon="12.662206968254237"><ele>247.33333333333331</ele><time>2026-05-03T13:11:24Z</time></trkpt><trkpt lat="42.585625712246255" lon="12.661957482166512"><ele>250.0</ele><time>2026-05-03T13:11:25Z</time></trkpt><trkpt lat="42.5855894917147" lon="12.661718182083401"><ele>251.66666666666666</ele><time>2026-05-03T13:11:26Z</time></trkpt><trkpt lat="42.58555004935991" lon="12.661467174037384"><ele>253.33333333333331</ele><time>2026-05-03T13:11:27Z</time></trkpt><trkpt lat="42.58551168084063" lon="12.661222666665093"><ele>255.0</ele><time>2026-05-03T13:11:28Z</time></trkpt><trkpt lat="42.58547205070977" lon="12.660972316450083"><ele>255.33333333333331</ele><time>2026-05-03T13:11:29Z</time></trkpt><trkpt lat="42.585433910689844" lon="12.660725385908897"><ele>255.66666666666666</ele><time>2026-05-03T13:11:30Z</time></trkpt><trkpt lat="42.585397481388654" lon="12.660475675084777"><ele>256.0</ele><time>2026-05-03T13:11:31Z</time></trkpt><trkpt lat="42.58536205555533" lon="12.660229750943257"><ele>254.33333333333331</ele><time>2026-05-03T13:11:32Z</time></trkpt><trkpt lat="42.58532215493054" lon="12.65997413988674"><ele>252.66666666666669</ele><time>2026-05-03T13:11:33Z</time></trkpt><trkpt lat="42.5852897145514" lon="12.659723067269798"><ele>251.0</ele><time>2026-05-03T13:11:34Z</time></trkpt><trkpt lat="42.585256219519685" lon="12.659474741696542"><ele>250.33333333333334</ele><time>2026-05-03T13:11:35Z</time></trkpt><trkpt lat="42.58521364501327" lon="12.659218681987804"><ele>249.66666666666669</ele><time>2026-05-03T13:11:36Z</time></trkpt><trkpt lat="42.58517450595315" lon="12.658962876026282"><ele>249.0</ele><time>2026-05-03T13:11:37Z</time></trkpt><trkpt lat="42.585132986848166" lon="12.65871039132072"><ele>249.0</ele><time>2026-05-03T13:11:38Z</time></trkpt><trkpt lat="42.58509530737694" lon="12.658455043476135"><ele>249.0</ele><time>2026-05-03T13:11:39Z</time></trkpt><trkpt lat="42.58505397298262" lon="12.6581955553072"><ele>249.0</ele><time>2026-05-03T13:11:40Z</time></trkpt><trkpt lat="42.585012686607556" lon="12.657931999871085"><ele>248.0</ele><time>2026-05-03T13:11:41Z</time></trkpt><trkpt lat="42.584972076150564" lon="12.657665829859893"><ele>247.0</ele><time>2026-05-03T13:11:42Z</time></trkpt><trkpt lat="42.5849440967481" lon="12.65739783986762"><ele>246.0</ele><time>2026-05-03T13:11:43Z</time></trkpt><trkpt lat="42.58491814859724" lon="12.657126667061567"><ele>245.33333333333331</ele><time>2026-05-03T13:11:44Z</time></trkpt><trkpt lat="42.58489147196343" lon="12.656850702606459"><ele>244.66666666666666</ele><time>2026-05-03T13:11:45Z</time></trkpt><trkpt lat="42.58487117109912" lon="12.656568610548137"><ele>244.0</ele><time>2026-05-03T13:11:45.999Z</time></trkpt><trkpt lat="42.58484973580101" lon="12.65629394562228"><ele>243.0</ele><time>2026-05-03T13:11:46.999Z</time></trkpt><trkpt lat="42.58483710454049" lon="12.656007599733487"><ele>242.0</ele><time>2026-05-03T13:11:47.999Z</time></trkpt><trkpt lat="42.584820767080345" lon="12.655722261755786"><ele>241.0</ele><time>2026-05-03T13:11:48.999Z</time></trkpt><trkpt lat="42.58480530146339" lon="12.655444656678915"><ele>240.33333333333331</ele><time>2026-05-03T13:11:49.999Z</time></trkpt><trkpt lat="42.5848028916676" lon="12.655165223371275"><ele>239.66666666666669</ele><time>2026-05-03T13:11:50.999Z</time></trkpt><trkpt lat="42.58481447500686" lon="12.654886889507601"><ele>239.0</ele><time>2026-05-03T13:11:51.999Z</time></trkpt><trkpt lat="42.58477363979526" lon="12.654595549808626"><ele>238.66666666666669</ele><time>2026-05-03T13:11:52.999Z</time></trkpt><trkpt lat="42.584763532736496" lon="12.654311902252084"><ele>238.33333333333331</ele><time>2026-05-03T13:11:53.999Z</time></trkpt><trkpt lat="42.58474610942723" lon="12.654025932019781"><ele>238.0</ele><time>2026-05-03T13:11:54.999Z</time></trkpt><trkpt lat="42.58472811250642" lon="12.653742659496704"><ele>237.66666666666666</ele><time>2026-05-03T13:11:55.999Z</time></trkpt><trkpt lat="42.58471370576026" lon="12.653460228567862"><ele>237.33333333333331</ele><time>2026-05-03T13:11:56.999Z</time></trkpt><trkpt lat="42.584703956304075" lon="12.653179556206403"><ele>237.0</ele><time>2026-05-03T13:11:57.999Z</time></trkpt><trkpt lat="42.58469353606565" lon="12.652891011296726"><ele>237.0</ele><time>2026-05-03T13:11:58.999Z</time></trkpt><trkpt lat="42.58468060622771" lon="12.652611952203754"><ele>237.0</ele><time>2026-05-03T13:11:59.999Z</time></trkpt><trkpt lat="42.58466921876306" lon="12.652333836709227"><ele>237.0</ele><time>2026-05-03T13:12:00.999Z</time></trkpt><trkpt lat="42.58465515437804" lon="12.652051309291025"><ele>237.33333333333331</ele><time>2026-05-03T13:12:01.999Z</time></trkpt><trkpt lat="42.58464273606545" lon="12.651769062569828"><ele>237.66666666666666</ele><time>2026-05-03T13:12:02.999Z</time></trkpt><trkpt lat="42.58463066181801" lon="12.65148357101826"><ele>238.0</ele><time>2026-05-03T13:12:03.999Z</time></trkpt><trkpt lat="42.58461937148053" lon="12.651207103656951"><ele>237.0</ele><time>2026-05-03T13:12:04.999Z</time></trkpt><trkpt lat="42.58460916073975" lon="12.650932458956698"><ele>236.0</ele><time>2026-05-03T13:12:05.999Z</time></trkpt><trkpt lat="42.584598252582026" lon="12.65065289270495"><ele>235.0</ele><time>2026-05-03T13:12:06.999Z</time></trkpt><trkpt lat="42.58458622332397" lon="12.650367695657536"><ele>234.0</ele><time>2026-05-03T13:12:07.999Z</time></trkpt><trkpt lat="42.584571909971835" lon="12.650080738785071"><ele>233.0</ele><time>2026-05-03T13:12:08.999Z</time></trkpt><trkpt lat="42.58456128608693" lon="12.649797849580564"><ele>232.0</ele><time>2026-05-03T13:12:09.999Z</time></trkpt><trkpt lat="42.58453801049625" lon="12.649515793219136"><ele>231.33333333333331</ele><time>2026-05-03T13:12:10.999Z</time></trkpt><trkpt lat="42.58453178677836" lon="12.649224540325646"><ele>230.66666666666669</ele><time>2026-05-03T13:12:11.999Z</time></trkpt><trkpt lat="42.5845238373695" lon="12.648939348310336"><ele>230.0</ele><time>2026-05-03T13:12:12.999Z</time></trkpt><trkpt lat="42.58450533258637" lon="12.648644255560134"><ele>228.0</ele><time>2026-05-03T13:12:13.999Z</time></trkpt><trkpt lat="42.584484895938765" lon="12.648356294372986"><ele>226.0</ele><time>2026-05-03T13:12:14.999Z</time></trkpt><trkpt lat="42.58445696082011" lon="12.64806864628877"><ele>224.0</ele><time>2026-05-03T13:12:15.999Z</time></trkpt><trkpt lat="42.584430043808794" lon="12.647782122823868"><ele>223.0</ele><time>2026-05-03T13:12:16.999Z</time></trkpt><trkpt lat="42.58440036908377" lon="12.647494142138848"><ele>222.0</ele><time>2026-05-03T13:12:17.999Z</time></trkpt><trkpt lat="42.584366333064345" lon="12.647204288903973"><ele>221.0</ele><time>2026-05-03T13:12:18.999Z</time></trkpt><trkpt lat="42.58432715358557" lon="12.646913167336665"><ele>220.66666666666669</ele><time>2026-05-03T13:12:19.999Z</time></trkpt><trkpt lat="42.58428560166373" lon="12.646627938422547"><ele>220.33333333333331</ele><time>2026-05-03T13:12:20.999Z</time></trkpt><trkpt lat="42.584237704645965" lon="12.646339659133805"><ele>220.0</ele><time>2026-05-03T13:12:21.999Z</time></trkpt><trkpt lat="42.584188280010686" lon="12.646048262768321"><ele>219.33333333333331</ele><time>2026-05-03T13:12:22.999Z</time></trkpt><trkpt lat="42.58413602966664" lon="12.64576021577772"><ele>218.66666666666669</ele><time>2026-05-03T13:12:23.999Z</time></trkpt><trkpt lat="42.58407109115349" lon="12.6454665283151"><ele>218.0</ele><time>2026-05-03T13:12:24.999Z</time></trkpt><trkpt lat="42.58399625704663" lon="12.645166641446853"><ele>216.5</ele><time>2026-05-03T13:12:25.999Z</time></trkpt><trkpt lat="42.58392262407851" lon="12.644863197396655"><ele>215.0</ele><time>2026-05-03T13:12:26.999Z</time></trkpt><trkpt lat="42.583846735614564" lon="12.644561224685486"><ele>214.0</ele><time>2026-05-03T13:12:27.999Z</time></trkpt><trkpt lat="42.58376848642483" lon="12.644257517744524"><ele>213.0</ele><time>2026-05-03T13:12:28.999Z</time></trkpt><trkpt lat="42.583692181779995" lon="12.643954344590716"><ele>212.0</ele><time>2026-05-03T13:12:29.999Z</time></trkpt><trkpt lat="42.5836160764011" lon="12.643652508329472"><ele>211.0</ele><time>2026-05-03T13:12:30.999Z</time></trkpt><trkpt lat="42.58353498463227" lon="12.643360939520903"><ele>211.0</ele><time>2026-05-03T13:12:31.999Z</time></trkpt><trkpt lat="42.58344691599475" lon="12.64307413731654"><ele>211.0</ele><time>2026-05-03T13:12:32.999Z</time></trkpt><trkpt lat="42.58335325869808" lon="12.642798437316628"><ele>209.66666666666666</ele><time>2026-05-03T13:12:33.999Z</time></trkpt><trkpt lat="42.58325422094927" lon="12.642524914740271"><ele>208.33333333333331</ele><time>2026-05-03T13:12:35Z</time></trkpt><trkpt lat="42.58315259805917" lon="12.642253899833198"><ele>207.0</ele><time>2026-05-03T13:12:36Z</time></trkpt><trkpt lat="42.58304981954178" lon="12.641988094774469"><ele>207.66666666666669</ele><time>2026-05-03T13:12:37Z</time></trkpt><trkpt lat="42.58294458037598" lon="12.641718873911824"><ele>208.33333333333334</ele><time>2026-05-03T13:12:38Z</time></trkpt><trkpt lat="42.58283241257741" lon="12.64145584456792"><ele>209.0</ele><time>2026-05-03T13:12:39Z</time></trkpt><trkpt lat="42.582720866846245" lon="12.641195532979179"><ele>207.33333333333334</ele><time>2026-05-03T13:12:40Z</time></trkpt><trkpt lat="42.58260563977138" lon="12.64093551680697"><ele>205.66666666666669</ele><time>2026-05-03T13:12:41Z</time></trkpt><trkpt lat="42.58248492206951" lon="12.640685021391988"><ele>204.0</ele><time>2026-05-03T13:12:42Z</time></trkpt><trkpt lat="42.5823590192141" lon="12.640437021289964"><ele>203.33333333333331</ele><time>2026-05-03T13:12:43Z</time></trkpt><trkpt lat="42.5822353509782" lon="12.640187488082185"><ele>202.66666666666666</ele><time>2026-05-03T13:12:44Z</time></trkpt><trkpt lat="42.58210526225471" lon="12.639945762564011"><ele>202.0</ele><time>2026-05-03T13:12:45Z</time></trkpt><trkpt lat="42.58197112275128" lon="12.639698741915849"><ele>200.0</ele><time>2026-05-03T13:12:46Z</time></trkpt><trkpt lat="42.58183364919405" lon="12.639462594398628"><ele>198.0</ele><time>2026-05-03T13:12:47Z</time></trkpt><trkpt lat="42.581694216615055" lon="12.639224304850433"><ele>196.0</ele><time>2026-05-03T13:12:48Z</time></trkpt><trkpt lat="42.581548798401236" lon="12.638993972097914"><ele>196.0</ele><time>2026-05-03T13:12:49Z</time></trkpt><trkpt lat="42.58140403807914" lon="12.6387667058256"><ele>196.0</ele><time>2026-05-03T13:12:50Z</time></trkpt><trkpt lat="42.58125268401278" lon="12.638538257235048"><ele>196.0</ele><time>2026-05-03T13:12:51Z</time></trkpt><trkpt lat="42.581100256242536" lon="12.638310084012922"><ele>194.0</ele><time>2026-05-03T13:12:52Z</time></trkpt><trkpt lat="42.58094714238321" lon="12.638086260648628"><ele>192.0</ele><time>2026-05-03T13:12:53Z</time></trkpt><trkpt lat="42.580789771753196" lon="12.63786427291304"><ele>188.5</ele><time>2026-05-03T13:12:54Z</time></trkpt><trkpt lat="42.58063466113003" lon="12.637643655990638"><ele>185.0</ele><time>2026-05-03T13:12:55Z</time></trkpt><trkpt lat="42.58047622334381" lon="12.637420215751243"><ele>184.5</ele><time>2026-05-03T13:12:56Z</time></trkpt><trkpt lat="42.58031750739885" lon="12.637199680646455"><ele>184.0</ele><time>2026-05-03T13:12:57Z</time></trkpt><trkpt lat="42.58015763467305" lon="12.636967920128187"><ele>181.5</ele><time>2026-05-03T13:12:58Z</time></trkpt><trkpt lat="42.579999971580605" lon="12.636738428833542"><ele>179.0</ele><time>2026-05-03T13:12:59Z</time></trkpt><trkpt lat="42.57983828301839" lon="12.63651356058308"><ele>179.0</ele><time>2026-05-03T13:13:00Z</time></trkpt><trkpt lat="42.57968016008948" lon="12.636288011201533"><ele>179.0</ele><time>2026-05-03T13:13:01Z</time></trkpt><trkpt lat="42.579522064946985" lon="12.636059562076683"><ele>176.5</ele><time>2026-05-03T13:13:02Z</time></trkpt><trkpt lat="42.57936414034329" lon="12.635836445270435"><ele>174.0</ele><time>2026-05-03T13:13:03Z</time></trkpt><trkpt lat="42.57920622914576" lon="12.635604083056236"><ele>174.0</ele><time>2026-05-03T13:13:04Z</time></trkpt><trkpt lat="42.57904795040236" lon="12.635380438715096"><ele>174.0</ele><time>2026-05-03T13:13:05Z</time></trkpt><trkpt lat="42.578891142318255" lon="12.635158544785854"><ele>172.0</ele><time>2026-05-03T13:13:06Z</time></trkpt><trkpt lat="42.57873495230038" lon="12.634927585790804"><ele>170.0</ele><time>2026-05-03T13:13:07Z</time></trkpt><trkpt lat="42.57857682690586" lon="12.634703655937972"><ele>169.33333333333331</ele><time>2026-05-03T13:13:08Z</time></trkpt><trkpt lat="42.57842202129811" lon="12.634483092530553"><ele>168.66666666666666</ele><time>2026-05-03T13:13:09Z</time></trkpt><trkpt lat="42.57826717143811" lon="12.634266540056796"><ele>168.0</ele><time>2026-05-03T13:13:10Z</time></trkpt><trkpt lat="42.57811617709283" lon="12.634051106992974"><ele>168.0</ele><time>2026-05-03T13:13:11Z</time></trkpt><trkpt lat="42.57796279817908" lon="12.633823930882995"><ele>168.0</ele><time>2026-05-03T13:13:12Z</time></trkpt><trkpt lat="42.57781060794856" lon="12.633610232160363"><ele>168.0</ele><time>2026-05-03T13:13:13Z</time></trkpt><trkpt lat="42.57765587353859" lon="12.6333885924245"><ele>164.0</ele><time>2026-05-03T13:13:14Z</time></trkpt><trkpt lat="42.577500245171706" lon="12.633164775013823"><ele>160.0</ele><time>2026-05-03T13:13:15Z</time></trkpt><trkpt lat="42.57734676575439" lon="12.632939212342214"><ele>158.5</ele><time>2026-05-03T13:13:16Z</time></trkpt><trkpt lat="42.57718991986069" lon="12.632721221710362"><ele>157.0</ele><time>2026-05-03T13:13:17Z</time></trkpt><trkpt lat="42.57703660828791" lon="12.63249469326009"><ele>155.5</ele><time>2026-05-03T13:13:18Z</time></trkpt><trkpt lat="42.576881310028845" lon="12.632274261244028"><ele>154.0</ele><time>2026-05-03T13:13:19Z</time></trkpt><trkpt lat="42.57672169991811" lon="12.632048586859543"><ele>153.5</ele><time>2026-05-03T13:13:20Z</time></trkpt><trkpt lat="42.57656635231311" lon="12.631824040726176"><ele>153.0</ele><time>2026-05-03T13:13:21Z</time></trkpt><trkpt lat="42.57641143836061" lon="12.631596474655232"><ele>153.0</ele><time>2026-05-03T13:13:22Z</time></trkpt><trkpt lat="42.57625812633362" lon="12.631373318085725"><ele>153.0</ele><time>2026-05-03T13:13:23Z</time></trkpt><trkpt lat="42.57610465334061" lon="12.631149974482673"><ele>152.33333333333334</ele><time>2026-05-03T13:13:24Z</time></trkpt><trkpt lat="42.57595014521669" lon="12.6309353313116"><ele>151.66666666666669</ele><time>2026-05-03T13:13:25Z</time></trkpt><trkpt lat="42.57579728758364" lon="12.630719954916515"><ele>151.0</ele><time>2026-05-03T13:13:26Z</time></trkpt><trkpt lat="42.5756483140575" lon="12.630508794669783"><ele>150.0</ele><time>2026-05-03T13:13:27Z</time></trkpt><trkpt lat="42.57550075260598" lon="12.630290673772329"><ele>149.0</ele><time>2026-05-03T13:13:28Z</time></trkpt><trkpt lat="42.57535594695251" lon="12.630077052810813"><ele>148.0</ele><time>2026-05-03T13:13:29Z</time></trkpt><trkpt lat="42.575212051555475" lon="12.629875602008413"><ele>148.0</ele><time>2026-05-03T13:13:30Z</time></trkpt><trkpt lat="42.575067863323966" lon="12.629669495080478"><ele>148.0</ele><time>2026-05-03T13:13:31Z</time></trkpt><trkpt lat="42.57491950108261" lon="12.629469060703359"><ele>148.0</ele><time>2026-05-03T13:13:32Z</time></trkpt><trkpt lat="42.57477850438586" lon="12.629272551211951"><ele>147.33333333333334</ele><time>2026-05-03T13:13:33Z</time></trkpt><trkpt lat="42.574638474853174" lon="12.629077149979155"><ele>146.66666666666666</ele><time>2026-05-03T13:13:34Z</time></trkpt><trkpt lat="42.57450058295531" lon="12.628874670774456"><ele>146.0</ele><time>2026-05-03T13:13:35Z</time></trkpt><trkpt lat="42.5743555733443" lon="12.628674742834612"><ele>146.0</ele><time>2026-05-03T13:13:36Z</time></trkpt><trkpt lat="42.57421591591415" lon="12.628476556507598"><ele>146.0</ele><time>2026-05-03T13:13:37Z</time></trkpt><trkpt lat="42.574075949910885" lon="12.628283474712962"><ele>146.0</ele><time>2026-05-03T13:13:38Z</time></trkpt><trkpt lat="42.573933791057996" lon="12.628094947250139"><ele>146.0</ele><time>2026-05-03T13:13:39Z</time></trkpt><trkpt lat="42.573790923423964" lon="12.627909108735883"><ele>146.0</ele><time>2026-05-03T13:13:40Z</time></trkpt><trkpt lat="42.57365143517703" lon="12.627710475109128"><ele>146.0</ele><time>2026-05-03T13:13:41Z</time></trkpt><trkpt lat="42.57351713732736" lon="12.627499802960036"><ele>144.0</ele><time>2026-05-03T13:13:42Z</time></trkpt><trkpt lat="42.57339070133928" lon="12.627277127920085"><ele>142.0</ele><time>2026-05-03T13:13:43Z</time></trkpt><trkpt lat="42.573264241183786" lon="12.627055553625688"><ele>140.0</ele><time>2026-05-03T13:13:44Z</time></trkpt><trkpt lat="42.57312869724365" lon="12.626828208610666"><ele>140.0</ele><time>2026-05-03T13:13:45Z</time></trkpt><trkpt lat="42.5729906148321" lon="12.626578765310075"><ele>140.0</ele><time>2026-05-03T13:13:46Z</time></trkpt><trkpt lat="42.57287539456826" lon="12.62638557420204"><ele>140.0</ele><time>2026-05-03T13:13:47Z</time></trkpt><trkpt lat="42.572777390256235" lon="12.626215950934073"><ele>140.0</ele><time>2026-05-03T13:13:48Z</time></trkpt><trkpt lat="42.57265214115745" lon="12.625973348628818"><ele>140.0</ele><time>2026-05-03T13:13:49Z</time></trkpt><trkpt lat="42.57251221925749" lon="12.625689497780359"><ele>140.0</ele><time>2026-05-03T13:13:50Z</time></trkpt><trkpt lat="42.57239546475359" lon="12.625442900132226"><ele>140.0</ele><time>2026-05-03T13:13:51Z</time></trkpt><trkpt lat="42.57228093433226" lon="12.625194984167749"><ele>140.0</ele><time>2026-05-03T13:13:52Z</time></trkpt><trkpt lat="42.572164373716575" lon="12.624951644121037"><ele>140.33333333333331</ele><time>2026-05-03T13:13:53Z</time></trkpt><trkpt lat="42.57205037620932" lon="12.624699621488718"><ele>140.66666666666666</ele><time>2026-05-03T13:13:54Z</time></trkpt><trkpt lat="42.571942168642664" lon="12.624446570315087"><ele>141.0</ele><time>2026-05-03T13:13:55Z</time></trkpt><trkpt lat="42.57183628170678" lon="12.624186057370107"><ele>138.66666666666666</ele><time>2026-05-03T13:13:55.999Z</time></trkpt><trkpt lat="42.57173484184712" lon="12.623924357455985"><ele>136.33333333333331</ele><time>2026-05-03T13:13:56.999Z</time></trkpt><trkpt lat="42.57163536061516" lon="12.623660149570659"><ele>134.0</ele><time>2026-05-03T13:13:57.999Z</time></trkpt><trkpt lat="42.571542565260806" lon="12.62339093036056"><ele>133.66666666666666</ele><time>2026-05-03T13:13:58.999Z</time></trkpt><trkpt lat="42.57145221027818" lon="12.623122727976025"><ele>133.33333333333334</ele><time>2026-05-03T13:13:59.999Z</time></trkpt><trkpt lat="42.571367598143034" lon="12.622846892056073"><ele>133.0</ele><time>2026-05-03T13:14:00.999Z</time></trkpt><trkpt lat="42.57128373302476" lon="12.622571601844914"><ele>132.0</ele><time>2026-05-03T13:14:01.999Z</time></trkpt><trkpt lat="42.571204961817" lon="12.622295619667469"><ele>131.0</ele><time>2026-05-03T13:14:02.999Z</time></trkpt><trkpt lat="42.57112792106077" lon="12.622017449406615"><ele>130.0</ele><time>2026-05-03T13:14:03.999Z</time></trkpt><trkpt lat="42.57105488828052" lon="12.621737649072005"><ele>128.0</ele><time>2026-05-03T13:14:04.999Z</time></trkpt><trkpt lat="42.570984943031384" lon="12.621454389732445"><ele>126.0</ele><time>2026-05-03T13:14:05.999Z</time></trkpt><trkpt lat="42.57092148833378" lon="12.621169246636214"><ele>124.0</ele><time>2026-05-03T13:14:06.999Z</time></trkpt><trkpt lat="42.57086219682796" lon="12.620885425439125"><ele>123.0</ele><time>2026-05-03T13:14:07.999Z</time></trkpt><trkpt lat="42.57080738548752" lon="12.620601808806382"><ele>122.0</ele><time>2026-05-03T13:14:08.999Z</time></trkpt><trkpt lat="42.5707572361159" lon="12.620312561731268"><ele>121.0</ele><time>2026-05-03T13:14:09.999Z</time></trkpt><trkpt lat="42.57071038727882" lon="12.620030605508902"><ele>121.0</ele><time>2026-05-03T13:14:10.999Z</time></trkpt><trkpt lat="42.57066855131514" lon="12.619741801738023"><ele>121.0</ele><time>2026-05-03T13:14:11.999Z</time></trkpt><trkpt lat="42.57063070437702" lon="12.619455476629025"><ele>121.0</ele><time>2026-05-03T13:14:12.999Z</time></trkpt><trkpt lat="42.57059435250226" lon="12.61917014496668"><ele>120.33333333333334</ele><time>2026-05-03T13:14:13.999Z</time></trkpt><trkpt lat="42.57056437239722" lon="12.618895150611134"><ele>119.66666666666666</ele><time>2026-05-03T13:14:14.999Z</time></trkpt><trkpt lat="42.570531645413254" lon="12.618611214576989"><ele>119.0</ele><time>2026-05-03T13:14:15.999Z</time></trkpt><trkpt lat="42.57049181415201" lon="12.61830118595335"><ele>118.66666666666666</ele><time>2026-05-03T13:14:16.999Z</time></trkpt><trkpt lat="42.57048146041991" lon="12.618064412849018"><ele>118.33333333333334</ele><time>2026-05-03T13:14:17.999Z</time></trkpt><trkpt lat="42.57046370519789" lon="12.617782668517545"><ele>118.0</ele><time>2026-05-03T13:14:18.999Z</time></trkpt><trkpt lat="42.570453614678634" lon="12.617508457350135"><ele>117.66666666666667</ele><time>2026-05-03T13:14:19.999Z</time></trkpt><trkpt lat="42.570438846358776" lon="12.617253906568743"><ele>117.33333333333334</ele><time>2026-05-03T13:14:20.999Z</time></trkpt><trkpt lat="42.57042550997953" lon="12.617009170161978"><ele>117.0</ele><time>2026-05-03T13:14:21.999Z</time></trkpt><trkpt lat="42.57041370091476" lon="12.616648125084991"><ele>117.33333333333334</ele><time>2026-05-03T13:14:22.999Z</time></trkpt><trkpt lat="42.57040708663892" lon="12.616361752250018"><ele>117.66666666666667</ele><time>2026-05-03T13:14:23.999Z</time></trkpt><trkpt lat="42.57039882922034" lon="12.616075092890334"><ele>118.0</ele><time>2026-05-03T13:14:24.999Z</time></trkpt><trkpt lat="42.570389541719514" lon="12.615789884381677"><ele>118.0</ele><time>2026-05-03T13:14:25.999Z</time></trkpt><trkpt lat="42.57037905545912" lon="12.615504792256374"><ele>118.0</ele><time>2026-05-03T13:14:26.999Z</time></trkpt><trkpt lat="42.570368300284834" lon="12.615224039832121"><ele>118.0</ele><time>2026-05-03T13:14:27.999Z</time></trkpt><trkpt lat="42.57035779266957" lon="12.614936959000381"><ele>117.0</ele><time>2026-05-03T13:14:28.999Z</time></trkpt><trkpt lat="42.570349623705475" lon="12.614654923749535"><ele>116.0</ele><time>2026-05-03T13:14:29.999Z</time></trkpt><trkpt lat="42.57034103258888" lon="12.614368072957038"><ele>115.0</ele><time>2026-05-03T13:14:30.999Z</time></trkpt><trkpt lat="42.57032987164722" lon="12.614087992264587"><ele>114.33333333333334</ele><time>2026-05-03T13:14:31.999Z</time></trkpt><trkpt lat="42.57032109111712" lon="12.613810181408507"><ele>113.66666666666666</ele><time>2026-05-03T13:14:32.999Z</time></trkpt><trkpt lat="42.5703065857027" lon="12.61352624280942"><ele>113.0</ele><time>2026-05-03T13:14:33.999Z</time></trkpt><trkpt lat="42.570295331097896" lon="12.613250400886907"><ele>112.66666666666666</ele><time>2026-05-03T13:14:34.999Z</time></trkpt><trkpt lat="42.570282499757994" lon="12.61297499187537"><ele>112.33333333333334</ele><time>2026-05-03T13:14:35.999Z</time></trkpt><trkpt lat="42.5702689505828" lon="12.612700262996993"><ele>112.0</ele><time>2026-05-03T13:14:36.999Z</time></trkpt><trkpt lat="42.57025577385882" lon="12.612424861242191"><ele>112.0</ele><time>2026-05-03T13:14:37.999Z</time></trkpt><trkpt lat="42.57024801278561" lon="12.612148946986776"><ele>112.0</ele><time>2026-05-03T13:14:38.999Z</time></trkpt><trkpt lat="42.57023512926562" lon="12.611872736670781"><ele>112.0</ele><time>2026-05-03T13:14:39.999Z</time></trkpt><trkpt lat="42.57022311483131" lon="12.611605096151282"><ele>112.0</ele><time>2026-05-03T13:14:41Z</time></trkpt><trkpt lat="42.570214549555615" lon="12.611334382243523"><ele>112.0</ele><time>2026-05-03T13:14:42Z</time></trkpt><trkpt lat="42.57020104886224" lon="12.611068943164986"><ele>112.0</ele><time>2026-05-03T13:14:43Z</time></trkpt><trkpt lat="42.57018926520596" lon="12.610804927384303"><ele>112.0</ele><time>2026-05-03T13:14:44Z</time></trkpt><trkpt lat="42.570174677290574" lon="12.610540392629362"><ele>112.0</ele><time>2026-05-03T13:14:45Z</time></trkpt><trkpt lat="42.57016391700644" lon="12.610276192166394"><ele>112.0</ele><time>2026-05-03T13:14:46Z</time></trkpt><trkpt lat="42.570154033991656" lon="12.61001037290722"><ele>112.33333333333334</ele><time>2026-05-03T13:14:47Z</time></trkpt><trkpt lat="42.57014210117451" lon="12.609744111794864"><ele>112.66666666666666</ele><time>2026-05-03T13:14:48Z</time></trkpt><trkpt lat="42.5701311488407" lon="12.609479036495232"><ele>113.0</ele><time>2026-05-03T13:14:49Z</time></trkpt><trkpt lat="42.570119849706835" lon="12.609213926571258"><ele>113.0</ele><time>2026-05-03T13:14:50Z</time></trkpt><trkpt lat="42.57011423924803" lon="12.60894610940283"><ele>113.0</ele><time>2026-05-03T13:14:51Z</time></trkpt><trkpt lat="42.57009946937158" lon="12.608677849724694"><ele>113.0</ele><time>2026-05-03T13:14:52Z</time></trkpt><trkpt lat="42.57008705958275" lon="12.608409282867141"><ele>112.0</ele><time>2026-05-03T13:14:53Z</time></trkpt><trkpt lat="42.57007578556336" lon="12.608142347138507"><ele>111.0</ele><time>2026-05-03T13:14:54Z</time></trkpt><trkpt lat="42.57006374961035" lon="12.60787934916819"><ele>110.0</ele><time>2026-05-03T13:14:55Z</time></trkpt><trkpt lat="42.57005733574222" lon="12.607618458881747"><ele>110.0</ele><time>2026-05-03T13:14:56Z</time></trkpt><trkpt lat="42.57004838988816" lon="12.607360341461229"><ele>110.0</ele><time>2026-05-03T13:14:57Z</time></trkpt><trkpt lat="42.570036535401194" lon="12.607097228615231"><ele>110.0</ele><time>2026-05-03T13:14:58Z</time></trkpt><trkpt lat="42.570024296322224" lon="12.606832852326791"><ele>110.0</ele><time>2026-05-03T13:14:59Z</time></trkpt><trkpt lat="42.570011751236706" lon="12.606568920698638"><ele>110.0</ele><time>2026-05-03T13:15:00Z</time></trkpt><trkpt lat="42.56999868711087" lon="12.606311645034996"><ele>110.0</ele><time>2026-05-03T13:15:01Z</time></trkpt><trkpt lat="42.56998886777707" lon="12.606049331945798"><ele>109.66666666666666</ele><time>2026-05-03T13:15:02Z</time></trkpt><trkpt lat="42.56998084088752" lon="12.6057827670055"><ele>109.33333333333334</ele><time>2026-05-03T13:15:03Z</time></trkpt><trkpt lat="42.56997096959543" lon="12.60552351834153"><ele>109.0</ele><time>2026-05-03T13:15:04Z</time></trkpt><trkpt lat="42.56996070891883" lon="12.605260989835797"><ele>108.66666666666667</ele><time>2026-05-03T13:15:05Z</time></trkpt><trkpt lat="42.569947389714756" lon="12.605002123264317"><ele>108.33333333333334</ele><time>2026-05-03T13:15:06Z</time></trkpt><trkpt lat="42.569935050112235" lon="12.60474091335701"><ele>108.0</ele><time>2026-05-03T13:15:07Z</time></trkpt><trkpt lat="42.56992180942405" lon="12.604480085235487"><ele>108.0</ele><time>2026-05-03T13:15:08Z</time></trkpt><trkpt lat="42.56991103344711" lon="12.60422147340895"><ele>108.0</ele><time>2026-05-03T13:15:09Z</time></trkpt><trkpt lat="42.56990608261573" lon="12.603962595099981"><ele>108.0</ele><time>2026-05-03T13:15:10Z</time></trkpt><trkpt lat="42.569901669635904" lon="12.6037017735642"><ele>108.0</ele><time>2026-05-03T13:15:11Z</time></trkpt><trkpt lat="42.56989982018998" lon="12.603438328953205"><ele>108.0</ele><time>2026-05-03T13:15:12Z</time></trkpt><trkpt lat="42.56989537812681" lon="12.603174957600324"><ele>108.0</ele><time>2026-05-03T13:15:13Z</time></trkpt><trkpt lat="42.569891350648035" lon="12.60291331887325"><ele>107.33333333333334</ele><time>2026-05-03T13:15:14Z</time></trkpt><trkpt lat="42.569885918931554" lon="12.602653066151657"><ele>106.66666666666667</ele><time>2026-05-03T13:15:15Z</time></trkpt><trkpt lat="42.56987870187476" lon="12.602391261687472"><ele>106.0</ele><time>2026-05-03T13:15:16Z</time></trkpt><trkpt lat="42.5698750233352" lon="12.6021377073194"><ele>106.0</ele><time>2026-05-03T13:15:17Z</time></trkpt><trkpt lat="42.569867059917144" lon="12.601872895558294"><ele>106.0</ele><time>2026-05-03T13:15:18Z</time></trkpt><trkpt lat="42.56986329999318" lon="12.601616763595887"><ele>106.0</ele><time>2026-05-03T13:15:19Z</time></trkpt><trkpt lat="42.56985784353478" lon="12.601352115880374"><ele>106.0</ele><time>2026-05-03T13:15:20Z</time></trkpt><trkpt lat="42.56985031426838" lon="12.601088261600147"><ele>106.0</ele><time>2026-05-03T13:15:21Z</time></trkpt><trkpt lat="42.569844826566914" lon="12.6008250430029"><ele>106.0</ele><time>2026-05-03T13:15:22Z</time></trkpt><trkpt lat="42.569844922331114" lon="12.600563748406987"><ele>106.0</ele><time>2026-05-03T13:15:23Z</time></trkpt><trkpt lat="42.569844167448856" lon="12.600300526445231"><ele>106.0</ele><time>2026-05-03T13:15:24Z</time></trkpt><trkpt lat="42.56983995272815" lon="12.600039700478668"><ele>106.0</ele><time>2026-05-03T13:15:25Z</time></trkpt><trkpt lat="42.56983097247286" lon="12.599782086175786"><ele>106.0</ele><time>2026-05-03T13:15:26Z</time></trkpt><trkpt lat="42.56981126286809" lon="12.599531609292569"><ele>106.0</ele><time>2026-05-03T13:15:27Z</time></trkpt><trkpt lat="42.56981666609792" lon="12.599265556643932"><ele>106.0</ele><time>2026-05-03T13:15:28Z</time></trkpt><trkpt lat="42.5698131463053" lon="12.599002392961353"><ele>106.0</ele><time>2026-05-03T13:15:29Z</time></trkpt><trkpt lat="42.569806592269394" lon="12.59874245204931"><ele>106.0</ele><time>2026-05-03T13:15:30Z</time></trkpt><trkpt lat="42.56980292494033" lon="12.598477543261527"><ele>106.0</ele><time>2026-05-03T13:15:31Z</time></trkpt><trkpt lat="42.56979631766116" lon="12.598216880578663"><ele>107.0</ele><time>2026-05-03T13:15:32Z</time></trkpt><trkpt lat="42.56978827399362" lon="12.597956096714743"><ele>108.0</ele><time>2026-05-03T13:15:33Z</time></trkpt><trkpt lat="42.569780306048635" lon="12.597693355846053"><ele>109.0</ele><time>2026-05-03T13:15:34Z</time></trkpt><trkpt lat="42.569771153459854" lon="12.597430991802327"><ele>109.0</ele><time>2026-05-03T13:15:35Z</time></trkpt><trkpt lat="42.56976155603223" lon="12.597170476211272"><ele>109.0</ele><time>2026-05-03T13:15:36Z</time></trkpt><trkpt lat="42.569756480312236" lon="12.596915542540989"><ele>109.0</ele><time>2026-05-03T13:15:37Z</time></trkpt><trkpt lat="42.56975014994176" lon="12.596650608990823"><ele>109.0</ele><time>2026-05-03T13:15:38Z</time></trkpt><trkpt lat="42.56974522847088" lon="12.596391211121347"><ele>109.0</ele><time>2026-05-03T13:15:39Z</time></trkpt><trkpt lat="42.56974011542331" lon="12.596124442754094"><ele>109.0</ele><time>2026-05-03T13:15:40Z</time></trkpt><trkpt lat="42.569735809044325" lon="12.595861102342406"><ele>109.0</ele><time>2026-05-03T13:15:41Z</time></trkpt><trkpt lat="42.569732886736" lon="12.595595618654396"><ele>109.0</ele><time>2026-05-03T13:15:42Z</time></trkpt><trkpt lat="42.56972491647624" lon="12.595336430882867"><ele>109.0</ele><time>2026-05-03T13:15:43Z</time></trkpt><trkpt lat="42.569718890188916" lon="12.59507728134142"><ele>108.66666666666667</ele><time>2026-05-03T13:15:44Z</time></trkpt><trkpt lat="42.569715717786764" lon="12.594817680479537"><ele>108.33333333333334</ele><time>2026-05-03T13:15:45Z</time></trkpt><trkpt lat="42.56971111575348" lon="12.594554405265619"><ele>108.0</ele><time>2026-05-03T13:15:46Z</time></trkpt><trkpt lat="42.56970529452465" lon="12.594293030675518"><ele>108.33333333333334</ele><time>2026-05-03T13:15:47Z</time></trkpt><trkpt lat="42.569697968424926" lon="12.594030133458356"><ele>108.66666666666667</ele><time>2026-05-03T13:15:48Z</time></trkpt><trkpt lat="42.569689497624594" lon="12.593772205206164"><ele>109.0</ele><time>2026-05-03T13:15:49Z</time></trkpt><trkpt lat="42.569682293063636" lon="12.593509775713162"><ele>109.0</ele><time>2026-05-03T13:15:50Z</time></trkpt><trkpt lat="42.56967156117918" lon="12.593247609787678"><ele>109.0</ele><time>2026-05-03T13:15:51Z</time></trkpt><trkpt lat="42.569664367227986" lon="12.592990902002335"><ele>109.0</ele><time>2026-05-03T13:15:52Z</time></trkpt><trkpt lat="42.56965974737171" lon="12.59272635344762"><ele>109.0</ele><time>2026-05-03T13:15:53Z</time></trkpt><trkpt lat="42.56965270436884" lon="12.592461998020546"><ele>109.0</ele><time>2026-05-03T13:15:54Z</time></trkpt><trkpt lat="42.569647614069844" lon="12.592202872450873"><ele>109.0</ele><time>2026-05-03T13:15:55Z</time></trkpt><trkpt lat="42.56963921668022" lon="12.591943361049195"><ele>108.33333333333334</ele><time>2026-05-03T13:15:56Z</time></trkpt><trkpt lat="42.56963576510561" lon="12.591684804037248"><ele>107.66666666666666</ele><time>2026-05-03T13:15:57Z</time></trkpt><trkpt lat="42.569631183705" lon="12.591419320176739"><ele>107.0</ele><time>2026-05-03T13:15:58Z</time></trkpt><trkpt lat="42.56961544540178" lon="12.591164690448352"><ele>107.0</ele><time>2026-05-03T13:15:59Z</time></trkpt><trkpt lat="42.5696090136206" lon="12.590892221832377"><ele>107.0</ele><time>2026-05-03T13:16:00Z</time></trkpt><trkpt lat="42.569593764215156" lon="12.59064189213956"><ele>107.0</ele><time>2026-05-03T13:16:01Z</time></trkpt><trkpt lat="42.569587603506015" lon="12.590380021541264"><ele>106.66666666666666</ele><time>2026-05-03T13:16:02Z</time></trkpt><trkpt lat="42.5695736836812" lon="12.590120550937153"><ele>106.33333333333334</ele><time>2026-05-03T13:16:03Z</time></trkpt><trkpt lat="42.56956336859065" lon="12.589855914869734"><ele>106.0</ele><time>2026-05-03T13:16:04Z</time></trkpt><trkpt lat="42.569550575604765" lon="12.589592190144979"><ele>106.0</ele><time>2026-05-03T13:16:05Z</time></trkpt><trkpt lat="42.569543438685" lon="12.589335114019242"><ele>106.0</ele><time>2026-05-03T13:16:06Z</time></trkpt><trkpt lat="42.56953002525408" lon="12.589075781767962"><ele>106.0</ele><time>2026-05-03T13:16:07Z</time></trkpt><trkpt lat="42.56952115095012" lon="12.588811006155993"><ele>105.33333333333334</ele><time>2026-05-03T13:16:08Z</time></trkpt><trkpt lat="42.569508358348905" lon="12.588552841876606"><ele>104.66666666666666</ele><time>2026-05-03T13:16:08.999Z</time></trkpt><trkpt lat="42.569495229053835" lon="12.588292932400083"><ele>104.0</ele><time>2026-05-03T13:16:09.999Z</time></trkpt><trkpt lat="42.569486467493505" lon="12.58802958574454"><ele>104.66666666666666</ele><time>2026-05-03T13:16:10.999Z</time></trkpt><trkpt lat="42.56947987761503" lon="12.587766274591528"><ele>105.33333333333334</ele><time>2026-05-03T13:16:11.999Z</time></trkpt><trkpt lat="42.569470241913955" lon="12.58750425650137"><ele>106.0</ele><time>2026-05-03T13:16:12.999Z</time></trkpt><trkpt lat="42.56945806587693" lon="12.587244467003009"><ele>106.0</ele><time>2026-05-03T13:16:13.999Z</time></trkpt><trkpt lat="42.569449965757" lon="12.586982769289989"><ele>106.0</ele><time>2026-05-03T13:16:14.999Z</time></trkpt><trkpt lat="42.56943554747111" lon="12.58672369856356"><ele>106.0</ele><time>2026-05-03T13:16:15.999Z</time></trkpt><trkpt lat="42.56942593754638" lon="12.586464264082675"><ele>106.0</ele><time>2026-05-03T13:16:16.999Z</time></trkpt><trkpt lat="42.56941229214502" lon="12.586201249617416"><ele>106.0</ele><time>2026-05-03T13:16:17.999Z</time></trkpt><trkpt lat="42.56939865385009" lon="12.585943329449341"><ele>106.0</ele><time>2026-05-03T13:16:18.999Z</time></trkpt><trkpt lat="42.56938519263686" lon="12.58568303671729"><ele>106.0</ele><time>2026-05-03T13:16:19.999Z</time></trkpt><trkpt lat="42.5693735639195" lon="12.585418908933097"><ele>106.0</ele><time>2026-05-03T13:16:20.999Z</time></trkpt><trkpt lat="42.56936072987162" lon="12.58515832411003"><ele>106.0</ele><time>2026-05-03T13:16:21.999Z</time></trkpt><trkpt lat="42.569348183821354" lon="12.58489657651198"><ele>106.0</ele><time>2026-05-03T13:16:22.999Z</time></trkpt><trkpt lat="42.56934088241529" lon="12.584638334994654"><ele>106.0</ele><time>2026-05-03T13:16:23.999Z</time></trkpt><trkpt lat="42.56932863424178" lon="12.58437851925673"><ele>106.0</ele><time>2026-05-03T13:16:24.999Z</time></trkpt><trkpt lat="42.56931962076021" lon="12.58412263559377"><ele>105.66666666666667</ele><time>2026-05-03T13:16:25.999Z</time></trkpt><trkpt lat="42.569307231675744" lon="12.583861384814476"><ele>105.33333333333334</ele><time>2026-05-03T13:16:26.999Z</time></trkpt><trkpt lat="42.56929673178476" lon="12.58360311427471"><ele>105.0</ele><time>2026-05-03T13:16:27.999Z</time></trkpt><trkpt lat="42.56928989722663" lon="12.583339602910094"><ele>106.0</ele><time>2026-05-03T13:16:28.999Z</time></trkpt><trkpt lat="42.56928377155905" lon="12.583077720012373"><ele>107.0</ele><time>2026-05-03T13:16:29.999Z</time></trkpt><trkpt lat="42.569278125452435" lon="12.582815172215893"><ele>108.0</ele><time>2026-05-03T13:16:30.999Z</time></trkpt><trkpt lat="42.56927022033819" lon="12.582553030209963"><ele>108.33333333333334</ele><time>2026-05-03T13:16:31.999Z</time></trkpt><trkpt lat="42.56925374629329" lon="12.582297891493674"><ele>108.66666666666667</ele><time>2026-05-03T13:16:32.999Z</time></trkpt><trkpt lat="42.56924516954892" lon="12.582049350131335"><ele>109.0</ele><time>2026-05-03T13:16:33.999Z</time></trkpt><trkpt lat="42.56923846786144" lon="12.581811728386675"><ele>109.33333333333334</ele><time>2026-05-03T13:16:34.999Z</time></trkpt><trkpt lat="42.56923082853835" lon="12.581589317482338"><ele>109.66666666666666</ele><time>2026-05-03T13:16:35.999Z</time></trkpt><trkpt lat="42.56922217058839" lon="12.581369203506572"><ele>110.0</ele><time>2026-05-03T13:16:36.999Z</time></trkpt><trkpt lat="42.56921382012727" lon="12.581156879499684"><ele>110.0</ele><time>2026-05-03T13:16:37.999Z</time></trkpt><trkpt lat="42.5692096108014" lon="12.580954624493357"><ele>110.0</ele><time>2026-05-03T13:16:38.999Z</time></trkpt><trkpt lat="42.56921227037188" lon="12.580757692409794"><ele>110.0</ele><time>2026-05-03T13:16:39.999Z</time></trkpt><trkpt lat="42.56922024980029" lon="12.580560999007108"><ele>110.0</ele><time>2026-05-03T13:16:40.999Z</time></trkpt><trkpt lat="42.56921627271387" lon="12.580371011258128"><ele>110.5</ele><time>2026-05-03T13:16:41.999Z</time></trkpt><trkpt lat="42.5692075825112" lon="12.580172723869032"><ele>111.0</ele><time>2026-05-03T13:16:42.999Z</time></trkpt><trkpt lat="42.56919968488279" lon="12.579973294001235"><ele>111.5</ele><time>2026-05-03T13:16:43.999Z</time></trkpt><trkpt lat="42.56919342386304" lon="12.579771487472708"><ele>112.0</ele><time>2026-05-03T13:16:44.999Z</time></trkpt><trkpt lat="42.56919010812908" lon="12.579569550923441"><ele>112.0</ele><time>2026-05-03T13:16:46Z</time></trkpt><trkpt lat="42.56918806581962" lon="12.579376033543959"><ele>112.0</ele><time>2026-05-03T13:16:47Z</time></trkpt><trkpt lat="42.569187951056186" lon="12.579186114236293"><ele>112.0</ele><time>2026-05-03T13:16:48Z</time></trkpt><trkpt lat="42.569197820372345" lon="12.578996590826263"><ele>112.0</ele><time>2026-05-03T13:16:49Z</time></trkpt><trkpt lat="42.569224092138754" lon="12.578810352927059"><ele>112.0</ele><time>2026-05-03T13:16:50Z</time></trkpt><trkpt lat="42.569268597898414" lon="12.57862916362583"><ele>112.0</ele><time>2026-05-03T13:16:51Z</time></trkpt><trkpt lat="42.56933456172644" lon="12.578460884360965"><ele>112.0</ele><time>2026-05-03T13:16:52Z</time></trkpt><trkpt lat="42.56941383981819" lon="12.5783076437032"><ele>112.0</ele><time>2026-05-03T13:16:53Z</time></trkpt><trkpt lat="42.56950450551938" lon="12.578167586610999"><ele>111.75</ele><time>2026-05-03T13:16:54Z</time></trkpt><trkpt lat="42.56960257430594" lon="12.578035765679807"><ele>111.5</ele><time>2026-05-03T13:16:55Z</time></trkpt><trkpt lat="42.56970230490232" lon="12.577909594290707"><ele>111.25</ele><time>2026-05-03T13:16:56Z</time></trkpt><trkpt lat="42.569798345573254" lon="12.577781009513494"><ele>111.0</ele><time>2026-05-03T13:16:57Z</time></trkpt><trkpt lat="42.56989794499845" lon="12.577649030279218"><ele>111.0</ele><time>2026-05-03T13:16:58Z</time></trkpt><trkpt lat="42.56999591966782" lon="12.577521187134334"><ele>111.0</ele><time>2026-05-03T13:16:59Z</time></trkpt><trkpt lat="42.57009824239849" lon="12.57738953639996"><ele>111.0</ele><time>2026-05-03T13:17:00Z</time></trkpt><trkpt lat="42.57020257556361" lon="12.577251474432193"><ele>111.0</ele><time>2026-05-03T13:17:01Z</time></trkpt><trkpt lat="42.57030350086189" lon="12.577115216343485"><ele>111.0</ele><time>2026-05-03T13:17:02Z</time></trkpt><trkpt lat="42.57040946593596" lon="12.576969864251136"><ele>111.0</ele><time>2026-05-03T13:17:03Z</time></trkpt><trkpt lat="42.570512256880484" lon="12.576829967811596"><ele>111.0</ele><time>2026-05-03T13:17:04Z</time></trkpt><trkpt lat="42.570621328813274" lon="12.576684294145801"><ele>111.0</ele><time>2026-05-03T13:17:05Z</time></trkpt><trkpt lat="42.57072991625841" lon="12.57653872678126"><ele>111.0</ele><time>2026-05-03T13:17:06Z</time></trkpt><trkpt lat="42.57083357961154" lon="12.576401052751054"><ele>111.0</ele><time>2026-05-03T13:17:07Z</time></trkpt><trkpt lat="42.570942288952395" lon="12.57625290699189"><ele>111.0</ele><time>2026-05-03T13:17:08Z</time></trkpt><trkpt lat="42.57104637430361" lon="12.57611964688023"><ele>111.0</ele><time>2026-05-03T13:17:09Z</time></trkpt><trkpt lat="42.57116192063085" lon="12.575984068169937"><ele>111.25</ele><time>2026-05-03T13:17:10Z</time></trkpt><trkpt lat="42.571271857802934" lon="12.575872592493509"><ele>111.5</ele><time>2026-05-03T13:17:11Z</time></trkpt><trkpt lat="42.57139341323358" lon="12.57577103132229"><ele>111.75</ele><time>2026-05-03T13:17:12Z</time></trkpt><trkpt lat="42.57152488371552" lon="12.575697765863456"><ele>112.0</ele><time>2026-05-03T13:17:13Z</time></trkpt><trkpt lat="42.57166181920159" lon="12.575635559360347"><ele>112.0</ele><time>2026-05-03T13:17:14Z</time></trkpt><trkpt lat="42.57180627331827" lon="12.575593341015322"><ele>112.0</ele><time>2026-05-03T13:17:15Z</time></trkpt><trkpt lat="42.571951720594015" lon="12.575555509082292"><ele>112.0</ele><time>2026-05-03T13:17:16Z</time></trkpt><trkpt lat="42.572099051806056" lon="12.575505752159824"><ele>112.0</ele><time>2026-05-03T13:17:17Z</time></trkpt><trkpt lat="42.57224385853135" lon="12.575453685860616"><ele>112.33333333333334</ele><time>2026-05-03T13:17:18Z</time></trkpt><trkpt lat="42.572392475486794" lon="12.575406418712792"><ele>112.66666666666666</ele><time>2026-05-03T13:17:19Z</time></trkpt><trkpt lat="42.572540681491105" lon="12.575348298032246"><ele>113.0</ele><time>2026-05-03T13:17:20Z</time></trkpt><trkpt lat="42.57269489758218" lon="12.575300040141288"><ele>113.66666666666666</ele><time>2026-05-03T13:17:21Z</time></trkpt><trkpt lat="42.572847645013404" lon="12.575242638875407"><ele>114.33333333333334</ele><time>2026-05-03T13:17:22Z</time></trkpt><trkpt lat="42.57300093776585" lon="12.575190809850342"><ele>115.0</ele><time>2026-05-03T13:17:23Z</time></trkpt><trkpt lat="42.573157699253215" lon="12.57513476560357"><ele>115.66666666666667</ele><time>2026-05-03T13:17:24Z</time></trkpt><trkpt lat="42.573312122574954" lon="12.575079373428284"><ele>116.33333333333334</ele><time>2026-05-03T13:17:25Z</time></trkpt><trkpt lat="42.57346703782778" lon="12.575024178495903"><ele>117.0</ele><time>2026-05-03T13:17:26Z</time></trkpt><trkpt lat="42.573625233974596" lon="12.574972322113375"><ele>116.33333333333334</ele><time>2026-05-03T13:17:27Z</time></trkpt><trkpt lat="42.573785216980745" lon="12.57491155687461"><ele>115.66666666666667</ele><time>2026-05-03T13:17:28Z</time></trkpt><trkpt lat="42.57394815125419" lon="12.574848958246848"><ele>115.0</ele><time>2026-05-03T13:17:29Z</time></trkpt><trkpt lat="42.57411069319644" lon="12.574789633386606"><ele>115.0</ele><time>2026-05-03T13:17:30Z</time></trkpt><trkpt lat="42.574278583137044" lon="12.574741673560576"><ele>115.0</ele><time>2026-05-03T13:17:31Z</time></trkpt><trkpt lat="42.5744483032356" lon="12.574692629346167"><ele>115.0</ele><time>2026-05-03T13:17:32Z</time></trkpt><trkpt lat="42.574619291488155" lon="12.574642034727765"><ele>116.0</ele><time>2026-05-03T13:17:33Z</time></trkpt><trkpt lat="42.574787898626916" lon="12.574592739333477"><ele>117.0</ele><time>2026-05-03T13:17:34Z</time></trkpt><trkpt lat="42.57495802157608" lon="12.574543778341722"><ele>118.0</ele><time>2026-05-03T13:17:35Z</time></trkpt><trkpt lat="42.57512836888427" lon="12.574494608461562"><ele>118.0</ele><time>2026-05-03T13:17:36Z</time></trkpt><trkpt lat="42.57529882613913" lon="12.574439293474004"><ele>118.0</ele><time>2026-05-03T13:17:37Z</time></trkpt><trkpt lat="42.57547278093873" lon="12.574385790129964"><ele>118.0</ele><time>2026-05-03T13:17:38Z</time></trkpt><trkpt lat="42.57564939533861" lon="12.57433460811839"><ele>118.66666666666667</ele><time>2026-05-03T13:17:39Z</time></trkpt><trkpt lat="42.57582493502933" lon="12.57427960979758"><ele>119.33333333333334</ele><time>2026-05-03T13:17:40Z</time></trkpt><trkpt lat="42.576000374946716" lon="12.574237328208216"><ele>120.0</ele><time>2026-05-03T13:17:41Z</time></trkpt><trkpt lat="42.576181740079406" lon="12.574188338067653"><ele>119.66666666666666</ele><time>2026-05-03T13:17:42Z</time></trkpt><trkpt lat="42.57636077190159" lon="12.574140334019479"><ele>119.33333333333333</ele><time>2026-05-03T13:17:43Z</time></trkpt><trkpt lat="42.576533626542826" lon="12.574087220123722"><ele>119.0</ele><time>2026-05-03T13:17:44Z</time></trkpt><trkpt lat="42.576710980914456" lon="12.574039623490647"><ele>119.0</ele><time>2026-05-03T13:17:45Z</time></trkpt><trkpt lat="42.57688786724321" lon="12.573990500612895"><ele>119.0</ele><time>2026-05-03T13:17:46Z</time></trkpt><trkpt lat="42.577060284242194" lon="12.573938245343752"><ele>119.0</ele><time>2026-05-03T13:17:47Z</time></trkpt><trkpt lat="42.57723712888798" lon="12.573886045530788"><ele>118.33333333333333</ele><time>2026-05-03T13:17:48Z</time></trkpt><trkpt lat="42.57741054235924" lon="12.573833766104126"><ele>117.66666666666666</ele><time>2026-05-03T13:17:49Z</time></trkpt><trkpt lat="42.577584057885375" lon="12.573781908930094"><ele>117.0</ele><time>2026-05-03T13:17:50Z</time></trkpt><trkpt lat="42.577758976390534" lon="12.573735458952434"><ele>117.33333333333334</ele><time>2026-05-03T13:17:51Z</time></trkpt><trkpt lat="42.57794037606657" lon="12.573688849193289"><ele>117.66666666666667</ele><time>2026-05-03T13:17:52Z</time></trkpt><trkpt lat="42.578116550835354" lon="12.573639735161358"><ele>118.0</ele><time>2026-05-03T13:17:53Z</time></trkpt><trkpt lat="42.578287657546845" lon="12.573589628277585"><ele>118.33333333333334</ele><time>2026-05-03T13:17:54Z</time></trkpt><trkpt lat="42.578464772941786" lon="12.573538722236792"><ele>118.66666666666666</ele><time>2026-05-03T13:17:55Z</time></trkpt><trkpt lat="42.57864669955717" lon="12.573483672180863"><ele>119.0</ele><time>2026-05-03T13:17:56Z</time></trkpt><trkpt lat="42.5788300170122" lon="12.573422787577517"><ele>119.0</ele><time>2026-05-03T13:17:57Z</time></trkpt><trkpt lat="42.579018260098124" lon="12.573368409725528"><ele>119.0</ele><time>2026-05-03T13:17:58Z</time></trkpt><trkpt lat="42.57921218679801" lon="12.573306275742613"><ele>119.0</ele><time>2026-05-03T13:17:59Z</time></trkpt><trkpt lat="42.57940330740492" lon="12.573248458682755"><ele>119.33333333333333</ele><time>2026-05-03T13:18:00Z</time></trkpt><trkpt lat="42.579588735620206" lon="12.57318419478191"><ele>119.66666666666666</ele><time>2026-05-03T13:18:01Z</time></trkpt><trkpt lat="42.579768907178625" lon="12.573116998937424"><ele>120.0</ele><time>2026-05-03T13:18:02Z</time></trkpt><trkpt lat="42.579950695697995" lon="12.573051197739291"><ele>120.0</ele><time>2026-05-03T13:18:03Z</time></trkpt><trkpt lat="42.58013267769341" lon="12.57298169240672"><ele>120.0</ele><time>2026-05-03T13:18:04Z</time></trkpt><trkpt lat="42.580313813321304" lon="12.572901910787913"><ele>120.0</ele><time>2026-05-03T13:18:05Z</time></trkpt><trkpt lat="42.58049829174073" lon="12.572822498183731"><ele>121.33333333333334</ele><time>2026-05-03T13:18:06Z</time></trkpt><trkpt lat="42.580693663628075" lon="12.572739270409102"><ele>122.66666666666667</ele><time>2026-05-03T13:18:07Z</time></trkpt><trkpt lat="42.58089436347227" lon="12.572649845382852"><ele>124.0</ele><time>2026-05-03T13:18:08Z</time></trkpt><trkpt lat="42.58109269783316" lon="12.572556907289826"><ele>126.33333333333334</ele><time>2026-05-03T13:18:09Z</time></trkpt><trkpt lat="42.58129347678273" lon="12.57246189717363"><ele>128.66666666666666</ele><time>2026-05-03T13:18:10Z</time></trkpt><trkpt lat="42.58149353996508" lon="12.572360898471972"><ele>131.0</ele><time>2026-05-03T13:18:11Z</time></trkpt><trkpt lat="42.581698532347936" lon="12.572252030208519"><ele>131.0</ele><time>2026-05-03T13:18:12Z</time></trkpt><trkpt lat="42.58190398675825" lon="12.572137331899196"><ele>131.0</ele><time>2026-05-03T13:18:13Z</time></trkpt><trkpt lat="42.58211693595139" lon="12.572022340610491"><ele>134.66666666666666</ele><time>2026-05-03T13:18:14Z</time></trkpt><trkpt lat="42.58232505660807" lon="12.571905068625858"><ele>138.33333333333334</ele><time>2026-05-03T13:18:15Z</time></trkpt><trkpt lat="42.582528807972444" lon="12.571784771498304"><ele>142.0</ele><time>2026-05-03T13:18:16Z</time></trkpt><trkpt lat="42.58272932522938" lon="12.571660948699511"><ele>141.33333333333334</ele><time>2026-05-03T13:18:17Z</time></trkpt><trkpt lat="42.582929511052086" lon="12.57153887804353"><ele>140.66666666666666</ele><time>2026-05-03T13:18:18Z</time></trkpt><trkpt lat="42.583128193489564" lon="12.571409304794624"><ele>140.0</ele><time>2026-05-03T13:18:19Z</time></trkpt><trkpt lat="42.583325824474414" lon="12.571277661808741"><ele>140.5</ele><time>2026-05-03T13:18:20Z</time></trkpt><trkpt lat="42.58371139328509" lon="12.570993832980685"><ele>141.0</ele><time>2026-05-03T13:18:22Z</time></trkpt><trkpt lat="42.583907449336884" lon="12.570849381856485"><ele>141.0</ele><time>2026-05-03T13:18:22.999Z</time></trkpt><trkpt lat="42.584099757707044" lon="12.570702738185487"><ele>141.0</ele><time>2026-05-03T13:18:23.999Z</time></trkpt><trkpt lat="42.584294350885834" lon="12.570552191445904"><ele>141.0</ele><time>2026-05-03T13:18:24.999Z</time></trkpt><trkpt lat="42.58448652197581" lon="12.570399880437508"><ele>143.33333333333334</ele><time>2026-05-03T13:18:25.999Z</time></trkpt><trkpt lat="42.58467119965331" lon="12.570237645257983"><ele>145.66666666666669</ele><time>2026-05-03T13:18:26.999Z</time></trkpt><trkpt lat="42.58485630479936" lon="12.57007407194916"><ele>148.0</ele><time>2026-05-03T13:18:27.999Z</time></trkpt><trkpt lat="42.58504569581384" lon="12.569913688408008"><ele>148.0</ele><time>2026-05-03T13:18:28.999Z</time></trkpt><trkpt lat="42.585233202760634" lon="12.569758042106676"><ele>148.0</ele><time>2026-05-03T13:18:29.999Z</time></trkpt><trkpt lat="42.58542671021733" lon="12.569605388082984"><ele>148.0</ele><time>2026-05-03T13:18:30.999Z</time></trkpt><trkpt lat="42.585614132447745" lon="12.56945297091475"><ele>148.66666666666669</ele><time>2026-05-03T13:18:31.999Z</time></trkpt><trkpt lat="42.58580079340237" lon="12.569296738877824"><ele>149.33333333333334</ele><time>2026-05-03T13:18:32.999Z</time></trkpt><trkpt lat="42.58599036070382" lon="12.569139973229507"><ele>150.0</ele><time>2026-05-03T13:18:33.999Z</time></trkpt><trkpt lat="42.58617600452549" lon="12.568982773566743"><ele>149.66666666666666</ele><time>2026-05-03T13:18:34.999Z</time></trkpt><trkpt lat="42.586366593759934" lon="12.568827880629373"><ele>149.33333333333331</ele><time>2026-05-03T13:18:35.999Z</time></trkpt><trkpt lat="42.586556947902494" lon="12.568672240472297"><ele>149.0</ele><time>2026-05-03T13:18:36.999Z</time></trkpt><trkpt lat="42.58674650523265" lon="12.56851669394396"><ele>149.0</ele><time>2026-05-03T13:18:37.999Z</time></trkpt><trkpt lat="42.58693692609091" lon="12.568356712805976"><ele>149.0</ele><time>2026-05-03T13:18:38.999Z</time></trkpt><trkpt lat="42.58712563441161" lon="12.56819608779973"><ele>149.0</ele><time>2026-05-03T13:18:39.999Z</time></trkpt><trkpt lat="42.587311288979976" lon="12.568035985987176"><ele>147.66666666666666</ele><time>2026-05-03T13:18:40.999Z</time></trkpt><trkpt lat="42.58749822929805" lon="12.567878397451212"><ele>146.33333333333334</ele><time>2026-05-03T13:18:41.999Z</time></trkpt><trkpt lat="42.58768771813459" lon="12.567723154444929"><ele>145.0</ele><time>2026-05-03T13:18:42.999Z</time></trkpt><trkpt lat="42.58787201484617" lon="12.56756496900195"><ele>144.33333333333334</ele><time>2026-05-03T13:18:43.999Z</time></trkpt><trkpt lat="42.588062482536714" lon="12.567406112738107"><ele>143.66666666666666</ele><time>2026-05-03T13:18:44.999Z</time></trkpt><trkpt lat="42.58825122819402" lon="12.567249849368062"><ele>143.0</ele><time>2026-05-03T13:18:45.999Z</time></trkpt><trkpt lat="42.58844057430806" lon="12.567096469059855"><ele>143.0</ele><time>2026-05-03T13:18:46.999Z</time></trkpt><trkpt lat="42.588627521589885" lon="12.566942544192713"><ele>143.0</ele><time>2026-05-03T13:18:47.999Z</time></trkpt><trkpt lat="42.58881838753833" lon="12.566787402482683"><ele>143.0</ele><time>2026-05-03T13:18:48.999Z</time></trkpt><trkpt lat="42.58900655976797" lon="12.566629199527306"><ele>143.0</ele><time>2026-05-03T13:18:49.999Z</time></trkpt><trkpt lat="42.58918872360221" lon="12.566466333508705"><ele>143.0</ele><time>2026-05-03T13:18:50.999Z</time></trkpt><trkpt lat="42.58937871926904" lon="12.566307348819924"><ele>143.0</ele><time>2026-05-03T13:18:52Z</time></trkpt><trkpt lat="42.589569804436934" lon="12.56615384691169"><ele>144.0</ele><time>2026-05-03T13:18:53Z</time></trkpt><trkpt lat="42.589761013367735" lon="12.566001656182932"><ele>145.0</ele><time>2026-05-03T13:18:54Z</time></trkpt><trkpt lat="42.5899443346787" lon="12.565846962314824"><ele>146.0</ele><time>2026-05-03T13:18:55Z</time></trkpt><trkpt lat="42.590135606966705" lon="12.565688158123464"><ele>146.0</ele><time>2026-05-03T13:18:56Z</time></trkpt><trkpt lat="42.59032189869651" lon="12.565531166631349"><ele>146.0</ele><time>2026-05-03T13:18:57Z</time></trkpt><trkpt lat="42.59051230201324" lon="12.56537586257394"><ele>146.0</ele><time>2026-05-03T13:18:58Z</time></trkpt><trkpt lat="42.59070218228917" lon="12.56522113328554"><ele>146.33333333333331</ele><time>2026-05-03T13:18:59Z</time></trkpt><trkpt lat="42.59088898190475" lon="12.565067227214719"><ele>146.66666666666666</ele><time>2026-05-03T13:19:00Z</time></trkpt><trkpt lat="42.59107684478696" lon="12.564911708778247"><ele>147.0</ele><time>2026-05-03T13:19:01Z</time></trkpt><trkpt lat="42.59126639158851" lon="12.564758070683787"><ele>147.66666666666666</ele><time>2026-05-03T13:19:02Z</time></trkpt><trkpt lat="42.5914579930059" lon="12.564610887132261"><ele>148.33333333333331</ele><time>2026-05-03T13:19:03Z</time></trkpt><trkpt lat="42.591655134122774" lon="12.564471819909668"><ele>149.0</ele><time>2026-05-03T13:19:04Z</time></trkpt><trkpt lat="42.591852100222894" lon="12.564342405500526"><ele>149.33333333333331</ele><time>2026-05-03T13:19:05Z</time></trkpt><trkpt lat="42.59205704983773" lon="12.564223644677169"><ele>149.66666666666666</ele><time>2026-05-03T13:19:06Z</time></trkpt><trkpt lat="42.592258058552424" lon="12.564109747025194"><ele>150.0</ele><time>2026-05-03T13:19:07Z</time></trkpt><trkpt lat="42.59246340324173" lon="12.564004945209204"><ele>150.0</ele><time>2026-05-03T13:19:08Z</time></trkpt><trkpt lat="42.592674334807896" lon="12.56390686202337"><ele>150.0</ele><time>2026-05-03T13:19:09Z</time></trkpt><trkpt lat="42.592880965735446" lon="12.563814127208893"><ele>150.0</ele><time>2026-05-03T13:19:10Z</time></trkpt><trkpt lat="42.59309403455637" lon="12.563723724807119"><ele>151.33333333333334</ele><time>2026-05-03T13:19:11Z</time></trkpt><trkpt lat="42.5933028902436" lon="12.563633067849894"><ele>152.66666666666669</ele><time>2026-05-03T13:19:12Z</time></trkpt><trkpt lat="42.59351658003639" lon="12.563551210314495"><ele>154.0</ele><time>2026-05-03T13:19:13Z</time></trkpt><trkpt lat="42.59373360250355" lon="12.563481996524827"><ele>155.33333333333334</ele><time>2026-05-03T13:19:14Z</time></trkpt><trkpt lat="42.59394807901999" lon="12.563421784702424"><ele>156.66666666666666</ele><time>2026-05-03T13:19:15Z</time></trkpt><trkpt lat="42.59416789200023" lon="12.563373476552826"><ele>158.0</ele><time>2026-05-03T13:19:16Z</time></trkpt><trkpt lat="42.59438503233894" lon="12.56332723645422"><ele>159.0</ele><time>2026-05-03T13:19:17Z</time></trkpt><trkpt lat="42.594603194094546" lon="12.563284161903928"><ele>160.0</ele><time>2026-05-03T13:19:18Z</time></trkpt><trkpt lat="42.59482482214831" lon="12.563253584169638"><ele>161.0</ele><time>2026-05-03T13:19:19Z</time></trkpt><trkpt lat="42.595042538278825" lon="12.563224117323383"><ele>161.0</ele><time>2026-05-03T13:19:20Z</time></trkpt><trkpt lat="42.595266091539884" lon="12.563211519967231"><ele>161.0</ele><time>2026-05-03T13:19:21Z</time></trkpt><trkpt lat="42.595485461560784" lon="12.563198564514916"><ele>161.0</ele><time>2026-05-03T13:19:22Z</time></trkpt><trkpt lat="42.59570752310399" lon="12.563199472504992"><ele>161.33333333333331</ele><time>2026-05-03T13:19:23Z</time></trkpt><trkpt lat="42.59593143321999" lon="12.563215591387207"><ele>161.66666666666666</ele><time>2026-05-03T13:19:24Z</time></trkpt><trkpt lat="42.59615150360219" lon="12.563229213697198"><ele>162.0</ele><time>2026-05-03T13:19:25Z</time></trkpt><trkpt lat="42.59637132339266" lon="12.563247218284394"><ele>162.0</ele><time>2026-05-03T13:19:26Z</time></trkpt><trkpt lat="42.5965927372511" lon="12.563263752509075"><ele>162.0</ele><time>2026-05-03T13:19:27Z</time></trkpt><trkpt lat="42.59681348331976" lon="12.56327358002798"><ele>162.0</ele><time>2026-05-03T13:19:28Z</time></trkpt><trkpt lat="42.59703386766997" lon="12.563287644699605"><ele>164.0</ele><time>2026-05-03T13:19:29Z</time></trkpt><trkpt lat="42.59725263967606" lon="12.563300174489617"><ele>166.0</ele><time>2026-05-03T13:19:30Z</time></trkpt><trkpt lat="42.597473359093804" lon="12.563316064344068"><ele>168.0</ele><time>2026-05-03T13:19:31Z</time></trkpt><trkpt lat="42.597692636062696" lon="12.563333288206808"><ele>169.33333333333334</ele><time>2026-05-03T13:19:32Z</time></trkpt><trkpt lat="42.59791871966775" lon="12.563350971781777"><ele>170.66666666666669</ele><time>2026-05-03T13:19:33Z</time></trkpt><trkpt lat="42.59813987300055" lon="12.56337230890429"><ele>172.0</ele><time>2026-05-03T13:19:34Z</time></trkpt><trkpt lat="42.598359650651" lon="12.563387630001621"><ele>172.0</ele><time>2026-05-03T13:19:35Z</time></trkpt><trkpt lat="42.59857959594745" lon="12.563398681239223"><ele>172.0</ele><time>2026-05-03T13:19:36Z</time></trkpt><trkpt lat="42.59879982813753" lon="12.563415065625533"><ele>172.0</ele><time>2026-05-03T13:19:37Z</time></trkpt><trkpt lat="42.59902145428039" lon="12.56342520821009"><ele>174.66666666666669</ele><time>2026-05-03T13:19:38Z</time></trkpt><trkpt lat="42.59924216490411" lon="12.563425582033297"><ele>177.33333333333334</ele><time>2026-05-03T13:19:39Z</time></trkpt><trkpt lat="42.59946452843692" lon="12.563425628807833"><ele>180.0</ele><time>2026-05-03T13:19:40Z</time></trkpt><trkpt lat="42.599684637022975" lon="12.563415130481587"><ele>180.66666666666666</ele><time>2026-05-03T13:19:41Z</time></trkpt><trkpt lat="42.599905825043535" lon="12.563403232927264"><ele>181.33333333333331</ele><time>2026-05-03T13:19:42Z</time></trkpt><trkpt lat="42.60012743427048" lon="12.563393149678578"><ele>182.0</ele><time>2026-05-03T13:19:43Z</time></trkpt><trkpt lat="42.600348225077646" lon="12.563383643080035"><ele>182.66666666666666</ele><time>2026-05-03T13:19:44Z</time></trkpt><trkpt lat="42.600568176036774" lon="12.563376073038867"><ele>183.33333333333334</ele><time>2026-05-03T13:19:45Z</time></trkpt><trkpt lat="42.600787056055985" lon="12.56336755956956"><ele>184.0</ele><time>2026-05-03T13:19:46Z</time></trkpt><trkpt lat="42.60100836980533" lon="12.563360728911091"><ele>184.33333333333334</ele><time>2026-05-03T13:19:47Z</time></trkpt><trkpt lat="42.601231427325644" lon="12.56334277821175"><ele>184.66666666666666</ele><time>2026-05-03T13:19:48Z</time></trkpt><trkpt lat="42.60145086455954" lon="12.563322129814802"><ele>185.0</ele><time>2026-05-03T13:19:49Z</time></trkpt><trkpt lat="42.6016723758349" lon="12.563286290145047"><ele>185.0</ele><time>2026-05-03T13:19:50Z</time></trkpt><trkpt lat="42.601889284411975" lon="12.563233310908878"><ele>185.0</ele><time>2026-05-03T13:19:51Z</time></trkpt><trkpt lat="42.60210262817518" lon="12.563153249257823"><ele>185.0</ele><time>2026-05-03T13:19:52Z</time></trkpt><trkpt lat="42.602311387985765" lon="12.56305679186903"><ele>184.66666666666666</ele><time>2026-05-03T13:19:53Z</time></trkpt><trkpt lat="42.602516614520646" lon="12.562950593953842"><ele>184.33333333333334</ele><time>2026-05-03T13:19:54Z</time></trkpt><trkpt lat="42.602717753558714" lon="12.562832181936448"><ele>184.0</ele><time>2026-05-03T13:19:55Z</time></trkpt><trkpt lat="42.60291395271556" lon="12.56269738828867"><ele>186.0</ele><time>2026-05-03T13:19:56Z</time></trkpt><trkpt lat="42.6031099889679" lon="12.562554358282046"><ele>188.0</ele><time>2026-05-03T13:19:57Z</time></trkpt><trkpt lat="42.60329994227557" lon="12.562394938897219"><ele>190.0</ele><time>2026-05-03T13:19:58Z</time></trkpt><trkpt lat="42.603481063414165" lon="12.562215968041066"><ele>190.0</ele><time>2026-05-03T13:19:59Z</time></trkpt><trkpt lat="42.603656706602926" lon="12.562026237449022"><ele>190.0</ele><time>2026-05-03T13:20:00Z</time></trkpt><trkpt lat="42.60382923957578" lon="12.56181994997082"><ele>190.0</ele><time>2026-05-03T13:20:01Z</time></trkpt><trkpt lat="42.60399831356093" lon="12.561608046468086"><ele>190.0</ele><time>2026-05-03T13:20:02Z</time></trkpt><trkpt lat="42.604123816417605" lon="12.561405797822909"><ele>190.0</ele><time>2026-05-03T13:20:03Z</time></trkpt><trkpt lat="42.604267431544976" lon="12.561182471149333"><ele>189.66666666666669</ele><time>2026-05-03T13:20:04Z</time></trkpt><trkpt lat="42.604406152347" lon="12.560951023566712"><ele>189.33333333333334</ele><time>2026-05-03T13:20:05Z</time></trkpt><trkpt lat="42.60453725412558" lon="12.560713341470308"><ele>189.0</ele><time>2026-05-03T13:20:05.999Z</time></trkpt><trkpt lat="42.604663320697796" lon="12.560461282297602"><ele>191.33333333333331</ele><time>2026-05-03T13:20:06.999Z</time></trkpt><trkpt lat="42.604791636264274" lon="12.560219148134257"><ele>193.66666666666666</ele><time>2026-05-03T13:20:07.999Z</time></trkpt><trkpt lat="42.60492781603696" lon="12.559980196764155"><ele>196.0</ele><time>2026-05-03T13:20:08.999Z</time></trkpt><trkpt lat="42.605063378515574" lon="12.559746381919984"><ele>196.0</ele><time>2026-05-03T13:20:09.999Z</time></trkpt><trkpt lat="42.60520177001923" lon="12.559509711376952"><ele>196.0</ele><time>2026-05-03T13:20:10.999Z</time></trkpt><trkpt lat="42.60533446414952" lon="12.559280001134994"><ele>196.0</ele><time>2026-05-03T13:20:11.999Z</time></trkpt><trkpt lat="42.605472813925225" lon="12.5590498099953"><ele>196.0</ele><time>2026-05-03T13:20:12.999Z</time></trkpt><trkpt lat="42.60561932209268" lon="12.558820882848465"><ele>196.0</ele><time>2026-05-03T13:20:13.999Z</time></trkpt><trkpt lat="42.60576577644176" lon="12.558598036318383"><ele>196.0</ele><time>2026-05-03T13:20:14.999Z</time></trkpt><trkpt lat="42.60591591173384" lon="12.558377524903081"><ele>197.33333333333331</ele><time>2026-05-03T13:20:15.999Z</time></trkpt><trkpt lat="42.606078262644075" lon="12.558169219450697"><ele>198.66666666666669</ele><time>2026-05-03T13:20:16.999Z</time></trkpt><trkpt lat="42.60624025808109" lon="12.55796229131362"><ele>200.0</ele><time>2026-05-03T13:20:17.999Z</time></trkpt><trkpt lat="42.60640442016319" lon="12.557756379615702"><ele>203.66666666666669</ele><time>2026-05-03T13:20:18.999Z</time></trkpt><trkpt lat="42.60656924388035" lon="12.557561634387383"><ele>207.33333333333331</ele><time>2026-05-03T13:20:19.999Z</time></trkpt><trkpt lat="42.606741560178534" lon="12.557374988351663"><ele>211.0</ele><time>2026-05-03T13:20:20.999Z</time></trkpt><trkpt lat="42.60691687716139" lon="12.55719123391665"><ele>210.66666666666666</ele><time>2026-05-03T13:20:21.999Z</time></trkpt><trkpt lat="42.60709318836371" lon="12.557015611107882"><ele>210.33333333333331</ele><time>2026-05-03T13:20:22.999Z</time></trkpt><trkpt lat="42.60727478798441" lon="12.556850606864643"><ele>210.0</ele><time>2026-05-03T13:20:23.999Z</time></trkpt><trkpt lat="42.607465743862136" lon="12.556697221985866"><ele>210.0</ele><time>2026-05-03T13:20:24.999Z</time></trkpt><trkpt lat="42.607656279308195" lon="12.55654599439889"><ele>210.0</ele><time>2026-05-03T13:20:25.999Z</time></trkpt><trkpt lat="42.60784973592891" lon="12.556406221407364"><ele>210.0</ele><time>2026-05-03T13:20:26.999Z</time></trkpt><trkpt lat="42.60804585024153" lon="12.55626227205426"><ele>212.0</ele><time>2026-05-03T13:20:27.999Z</time></trkpt><trkpt lat="42.60824071659411" lon="12.556133011797353"><ele>214.0</ele><time>2026-05-03T13:20:28.999Z</time></trkpt><trkpt lat="42.60844139728237" lon="12.556006091070133"><ele>216.0</ele><time>2026-05-03T13:20:29.999Z</time></trkpt><trkpt lat="42.60864722599629" lon="12.555890055678711"><ele>218.66666666666669</ele><time>2026-05-03T13:20:30.999Z</time></trkpt><trkpt lat="42.60885303864269" lon="12.555784076139354"><ele>221.33333333333334</ele><time>2026-05-03T13:20:31.999Z</time></trkpt><trkpt lat="42.60906219714427" lon="12.555681352370868"><ele>224.0</ele><time>2026-05-03T13:20:32.999Z</time></trkpt><trkpt lat="42.60927208883562" lon="12.555584662269359"><ele>224.0</ele><time>2026-05-03T13:20:33.999Z</time></trkpt><trkpt lat="42.609484500589815" lon="12.555502580947088"><ele>224.0</ele><time>2026-05-03T13:20:34.999Z</time></trkpt><trkpt lat="42.60969753208206" lon="12.5554284221099"><ele>224.0</ele><time>2026-05-03T13:20:35.999Z</time></trkpt><trkpt lat="42.609896553817435" lon="12.55536347778979"><ele>228.33333333333334</ele><time>2026-05-03T13:20:36.999Z</time></trkpt><trkpt lat="42.610080571479" lon="12.555310031788858"><ele>232.66666666666669</ele><time>2026-05-03T13:20:37.999Z</time></trkpt><trkpt lat="42.610262676776664" lon="12.5552619732892"><ele>237.0</ele><time>2026-05-03T13:20:38.999Z</time></trkpt><trkpt lat="42.6104423509322" lon="12.555223706125833"><ele>237.0</ele><time>2026-05-03T13:20:39.999Z</time></trkpt><trkpt lat="42.61061982687114" lon="12.55518545464482"><ele>237.0</ele><time>2026-05-03T13:20:40.999Z</time></trkpt><trkpt lat="42.61079937728074" lon="12.555149340774095"><ele>237.0</ele><time>2026-05-03T13:20:41.999Z</time></trkpt><trkpt lat="42.610972717055375" lon="12.555112260094099"><ele>237.0</ele><time>2026-05-03T13:20:42.999Z</time></trkpt><trkpt lat="42.611144663231954" lon="12.555074752061696"><ele>237.0</ele><time>2026-05-03T13:20:43.999Z</time></trkpt><trkpt lat="42.61130843879525" lon="12.555036585170784"><ele>237.0</ele><time>2026-05-03T13:20:44.999Z</time></trkpt><trkpt lat="42.61146846772874" lon="12.554996301304689"><ele>236.66666666666669</ele><time>2026-05-03T13:20:45.999Z</time></trkpt><trkpt lat="42.611625097315326" lon="12.55495081706047"><ele>236.33333333333334</ele><time>2026-05-03T13:20:46.999Z</time></trkpt><trkpt lat="42.61178033323846" lon="12.554896551392737"><ele>236.0</ele><time>2026-05-03T13:20:47.999Z</time></trkpt><trkpt lat="42.61194801096054" lon="12.55484239646424"><ele>236.33333333333334</ele><time>2026-05-03T13:20:48.999Z</time></trkpt><trkpt lat="42.61212905110005" lon="12.554806072294035"><ele>236.66666666666669</ele><time>2026-05-03T13:20:49.999Z</time></trkpt><trkpt lat="42.61232414850946" lon="12.554777168370963"><ele>237.0</ele><time>2026-05-03T13:20:50.999Z</time></trkpt><trkpt lat="42.61252406556205" lon="12.554740222909576"><ele>237.0</ele><time>2026-05-03T13:20:51.999Z</time></trkpt><trkpt lat="42.612721433787044" lon="12.554702970621555"><ele>237.0</ele><time>2026-05-03T13:20:52.999Z</time></trkpt><trkpt lat="42.6129088565607" lon="12.554668249531904"><ele>237.0</ele><time>2026-05-03T13:20:53.999Z</time></trkpt><trkpt lat="42.61308823899732" lon="12.55463495865224"><ele>236.66666666666669</ele><time>2026-05-03T13:20:54.999Z</time></trkpt><trkpt lat="42.61325660174835" lon="12.554602642377818"><ele>236.33333333333334</ele><time>2026-05-03T13:20:55.999Z</time></trkpt><trkpt lat="42.613425037908605" lon="12.554574761324222"><ele>236.0</ele><time>2026-05-03T13:20:56.999Z</time></trkpt><trkpt lat="42.613584447876235" lon="12.554545179608706"><ele>236.33333333333334</ele><time>2026-05-03T13:20:58Z</time></trkpt><trkpt lat="42.613737827576145" lon="12.55451902464387"><ele>236.66666666666669</ele><time>2026-05-03T13:20:59Z</time></trkpt><trkpt lat="42.613885233331274" lon="12.55448704594073"><ele>237.0</ele><time>2026-05-03T13:21:00Z</time></trkpt><trkpt lat="42.614031238932135" lon="12.554459213461271"><ele>237.0</ele><time>2026-05-03T13:21:01Z</time></trkpt><trkpt lat="42.614175071642904" lon="12.554434493417512"><ele>237.0</ele><time>2026-05-03T13:21:02Z</time></trkpt><trkpt lat="42.61431892625069" lon="12.554408528136275"><ele>237.0</ele><time>2026-05-03T13:21:03Z</time></trkpt><trkpt lat="42.614469607046495" lon="12.554380745952125"><ele>237.0</ele><time>2026-05-03T13:21:04Z</time></trkpt><trkpt lat="42.614619533832254" lon="12.554350399382175"><ele>235.33333333333331</ele><time>2026-05-03T13:21:05Z</time></trkpt><trkpt lat="42.614772842861036" lon="12.554319369650347"><ele>233.66666666666666</ele><time>2026-05-03T13:21:06Z</time></trkpt><trkpt lat="42.614928925188075" lon="12.554289341358986"><ele>232.0</ele><time>2026-05-03T13:21:07Z</time></trkpt><trkpt lat="42.61508705330576" lon="12.554260213282804"><ele>232.0</ele><time>2026-05-03T13:21:08Z</time></trkpt><trkpt lat="42.61524221119137" lon="12.554244117535456"><ele>232.0</ele><time>2026-05-03T13:21:09Z</time></trkpt><trkpt lat="42.61539178676583" lon="12.554209933309977"><ele>232.0</ele><time>2026-05-03T13:21:10Z</time></trkpt><trkpt lat="42.61554285811341" lon="12.554186768685831"><ele>235.66666666666666</ele><time>2026-05-03T13:21:11Z</time></trkpt><trkpt lat="42.6156964549991" lon="12.55415707187346"><ele>239.33333333333331</ele><time>2026-05-03T13:21:12Z</time></trkpt><trkpt lat="42.61585412390496" lon="12.5541232000065"><ele>243.0</ele><time>2026-05-03T13:21:13Z</time></trkpt><trkpt lat="42.61600975190044" lon="12.554090756947858"><ele>247.33333333333331</ele><time>2026-05-03T13:21:14Z</time></trkpt><trkpt lat="42.61617707811946" lon="12.554057797099617"><ele>251.66666666666666</ele><time>2026-05-03T13:21:15Z</time></trkpt><trkpt lat="42.616343297648925" lon="12.554026218162603"><ele>256.0</ele><time>2026-05-03T13:21:16Z</time></trkpt><trkpt lat="42.61650810101399" lon="12.55400235063237"><ele>256.0</ele><time>2026-05-03T13:21:17Z</time></trkpt><trkpt lat="42.61668191389231" lon="12.553972667093324"><ele>256.0</ele><time>2026-05-03T13:21:18Z</time></trkpt><trkpt lat="42.61685389715687" lon="12.553934406336777"><ele>256.0</ele><time>2026-05-03T13:21:19Z</time></trkpt><trkpt lat="42.617035110888224" lon="12.55389967900177"><ele>257.66666666666663</ele><time>2026-05-03T13:21:20Z</time></trkpt><trkpt lat="42.61721582747478" lon="12.553858950680068"><ele>259.3333333333333</ele><time>2026-05-03T13:21:21Z</time></trkpt><trkpt lat="42.61740117805556" lon="12.553818001521227"><ele>261.0</ele><time>2026-05-03T13:21:22Z</time></trkpt><trkpt lat="42.617589292517174" lon="12.553775954258851"><ele>261.0</ele><time>2026-05-03T13:21:23Z</time></trkpt><trkpt lat="42.617777274832406" lon="12.553731730420008"><ele>261.0</ele><time>2026-05-03T13:21:24Z</time></trkpt><trkpt lat="42.6179702217538" lon="12.553688699693998"><ele>261.0</ele><time>2026-05-03T13:21:25Z</time></trkpt><trkpt lat="42.61815894469894" lon="12.553639285802266"><ele>267.0</ele><time>2026-05-03T13:21:26Z</time></trkpt><trkpt lat="42.61835112191427" lon="12.553610126557652"><ele>273.0</ele><time>2026-05-03T13:21:27Z</time></trkpt><trkpt lat="42.61853893859453" lon="12.553560391961872"><ele>279.0</ele><time>2026-05-03T13:21:28Z</time></trkpt><trkpt lat="42.61872669047727" lon="12.553501296499828"><ele>279.3333333333333</ele><time>2026-05-03T13:21:29Z</time></trkpt><trkpt lat="42.618912157501825" lon="12.55344442865773"><ele>279.66666666666663</ele><time>2026-05-03T13:21:30Z</time></trkpt><trkpt lat="42.61909666992369" lon="12.553383569828926"><ele>280.0</ele><time>2026-05-03T13:21:31Z</time></trkpt><trkpt lat="42.61928618788348" lon="12.553319363553502"><ele>280.0</ele><time>2026-05-03T13:21:32Z</time></trkpt><trkpt lat="42.61946838847904" lon="12.553253789450329"><ele>280.0</ele><time>2026-05-03T13:21:33Z</time></trkpt><trkpt lat="42.619645532979426" lon="12.553187504620286"><ele>280.0</ele><time>2026-05-03T13:21:34Z</time></trkpt><trkpt lat="42.619820406246504" lon="12.553120365791926"><ele>280.3333333333333</ele><time>2026-05-03T13:21:35Z</time></trkpt><trkpt lat="42.61999833169135" lon="12.553048667978807"><ele>280.6666666666667</ele><time>2026-05-03T13:21:36Z</time></trkpt><trkpt lat="42.62017874746978" lon="12.552971830489087"><ele>281.0</ele><time>2026-05-03T13:21:37Z</time></trkpt><trkpt lat="42.62034667862697" lon="12.552896374218125"><ele>284.0</ele><time>2026-05-03T13:21:38Z</time></trkpt><trkpt lat="42.62051639095793" lon="12.552820030397951"><ele>287.0</ele><time>2026-05-03T13:21:39Z</time></trkpt><trkpt lat="42.62067211057058" lon="12.552747554608098"><ele>290.0</ele><time>2026-05-03T13:21:40Z</time></trkpt><trkpt lat="42.62081349529278" lon="12.552681750642625"><ele>290.0</ele><time>2026-05-03T13:21:41Z</time></trkpt><trkpt lat="42.620946575113116" lon="12.552619655939797"><ele>290.0</ele><time>2026-05-03T13:21:42Z</time></trkpt><trkpt lat="42.62106603746643" lon="12.552563632422698"><ele>290.0</ele><time>2026-05-03T13:21:43Z</time></trkpt><trkpt lat="42.621162375645696" lon="12.552518453315988"><ele>290.0</ele><time>2026-05-03T13:21:44Z</time></trkpt><trkpt lat="42.62123417288031" lon="12.552484783019334"><ele>290.0</ele><time>2026-05-03T13:21:45Z</time></trkpt><trkpt lat="42.62130341240848" lon="12.55245233493227"><ele>288.8</ele><time>2026-05-03T13:21:46Z</time></trkpt><trkpt lat="42.62137932995605" lon="12.55246369398364"><ele>287.6</ele><time>2026-05-03T13:21:47Z</time></trkpt><trkpt lat="42.62147295486996" lon="12.552468904476072"><ele>286.4</ele><time>2026-05-03T13:21:48Z</time></trkpt><trkpt lat="42.62156867645428" lon="12.552439246035561"><ele>285.2</ele><time>2026-05-03T13:21:49Z</time></trkpt><trkpt lat="42.62166761967725" lon="12.552399864916909"><ele>284.0</ele><time>2026-05-03T13:21:50Z</time></trkpt><trkpt lat="42.621786719194155" lon="12.552341730638322"><ele>284.0</ele><time>2026-05-03T13:21:51Z</time></trkpt><trkpt lat="42.62191746465394" lon="12.552266246414483"><ele>284.0</ele><time>2026-05-03T13:21:52Z</time></trkpt><trkpt lat="42.6220719562916" lon="12.552190812182628"><ele>284.0</ele><time>2026-05-03T13:21:53Z</time></trkpt><trkpt lat="42.62224083565045" lon="12.552112869794826"><ele>284.6666666666667</ele><time>2026-05-03T13:21:54Z</time></trkpt><trkpt lat="42.622405252543196" lon="12.552032012026073"><ele>285.3333333333333</ele><time>2026-05-03T13:21:55Z</time></trkpt><trkpt lat="42.622577756053055" lon="12.551937071037012"><ele>286.0</ele><time>2026-05-03T13:21:56Z</time></trkpt><trkpt lat="42.622752590109485" lon="12.551837990529831"><ele>285.0</ele><time>2026-05-03T13:21:57Z</time></trkpt><trkpt lat="42.622938706618314" lon="12.551745075241444"><ele>284.0</ele><time>2026-05-03T13:21:58Z</time></trkpt><trkpt lat="42.623135611927374" lon="12.551656343356921"><ele>283.0</ele><time>2026-05-03T13:21:59Z</time></trkpt><trkpt lat="42.62333452369006" lon="12.551564148785248"><ele>283.0</ele><time>2026-05-03T13:22:00Z</time></trkpt><trkpt lat="42.62352536854016" lon="12.551475933383095"><ele>283.0</ele><time>2026-05-03T13:22:01Z</time></trkpt><trkpt lat="42.623722834785056" lon="12.551380247999967"><ele>283.0</ele><time>2026-05-03T13:22:02Z</time></trkpt><trkpt lat="42.62392556330161" lon="12.551285347600276"><ele>291.3333333333333</ele><time>2026-05-03T13:22:03Z</time></trkpt><trkpt lat="42.624131342849736" lon="12.551189138174035"><ele>299.6666666666667</ele><time>2026-05-03T13:22:04Z</time></trkpt><trkpt lat="42.62433446287311" lon="12.551091490508977"><ele>308.0</ele><time>2026-05-03T13:22:05Z</time></trkpt><trkpt lat="42.62453324369181" lon="12.550994821111297"><ele>312.6666666666667</ele><time>2026-05-03T13:22:06Z</time></trkpt><trkpt lat="42.62473971950687" lon="12.550897065246634"><ele>317.3333333333333</ele><time>2026-05-03T13:22:07Z</time></trkpt><trkpt lat="42.624955146679625" lon="12.55079608049039"><ele>322.0</ele><time>2026-05-03T13:22:08Z</time></trkpt><trkpt lat="42.625174234143394" lon="12.550688506567196"><ele>329.5</ele><time>2026-05-03T13:22:09Z</time></trkpt><trkpt lat="42.62539194078886" lon="12.550580280938568"><ele>337.0</ele><time>2026-05-03T13:22:10Z</time></trkpt><trkpt lat="42.62560630176984" lon="12.550473291266231"><ele>343.0</ele><time>2026-05-03T13:22:11Z</time></trkpt><trkpt lat="42.62582281707671" lon="12.550365977921308"><ele>349.0</ele><time>2026-05-03T13:22:12Z</time></trkpt><trkpt lat="42.626058045811924" lon="12.550256910933545"><ele>355.5</ele><time>2026-05-03T13:22:13Z</time></trkpt><trkpt lat="42.62630672981589" lon="12.550142603217019"><ele>362.0</ele><time>2026-05-03T13:22:14.074Z</time></trkpt><trkpt lat="42.62653208424997" lon="12.550039397073093"><ele>362.0</ele><time>2026-05-03T13:22:15.069Z</time></trkpt><trkpt lat="42.62675491996878" lon="12.549932533254504"><ele>362.0</ele><time>2026-05-03T13:22:16.073Z</time></trkpt><trkpt lat="42.62867586883388" lon="12.549061551796722"><ele>347.0</ele><time>2026-05-03T13:22:19.459Z</time></trkpt><trkpt lat="42.63517272081992" lon="12.545889470326939"><ele>347.0</ele><time>2026-05-03T13:22:48.999Z</time></trkpt><trkpt lat="42.635429620854495" lon="12.54575528386026"><ele>347.0</ele><time>2026-05-03T13:22:49.999Z</time></trkpt><trkpt lat="42.635681971538396" lon="12.545578961195774"><ele>347.0</ele><time>2026-05-03T13:22:50.999Z</time></trkpt><trkpt lat="42.63591544753917" lon="12.545458527903929"><ele>347.0</ele><time>2026-05-03T13:22:51.999Z</time></trkpt><trkpt lat="42.636162300021184" lon="12.545322103049632"><ele>346.5</ele><time>2026-05-03T13:22:52.999Z</time></trkpt><trkpt lat="42.636409648043426" lon="12.545178462398132"><ele>346.0</ele><time>2026-05-03T13:22:53.999Z</time></trkpt><trkpt lat="42.63666962268527" lon="12.545021140673512"><ele>346.0</ele><time>2026-05-03T13:22:54.999Z</time></trkpt><trkpt lat="42.636942339113446" lon="12.544857158526174"><ele>346.0</ele><time>2026-05-03T13:22:55.999Z</time></trkpt><trkpt lat="42.63721120966065" lon="12.544699850983857"><ele>345.5</ele><time>2026-05-03T13:22:56.999Z</time></trkpt><trkpt lat="42.637480217236806" lon="12.544525347876942"><ele>345.0</ele><time>2026-05-03T13:22:57.999Z</time></trkpt><trkpt lat="42.63774071519438" lon="12.544345193805762"><ele>345.5</ele><time>2026-05-03T13:22:58.999Z</time></trkpt><trkpt lat="42.63801621537213" lon="12.544160823783809"><ele>346.0</ele><time>2026-05-03T13:22:59.999Z</time></trkpt><trkpt lat="42.638183712005684" lon="12.543997038479443"><ele>346.0</ele><time>2026-05-03T13:23:00.999Z</time></trkpt><trkpt lat="42.638437083596266" lon="12.543799412588525"><ele>346.0</ele><time>2026-05-03T13:23:01.999Z</time></trkpt><trkpt lat="42.638684908346974" lon="12.543595465488812"><ele>344.5</ele><time>2026-05-03T13:23:02.999Z</time></trkpt><trkpt lat="42.63893332719082" lon="12.543384212993532"><ele>343.0</ele><time>2026-05-03T13:23:04Z</time></trkpt><trkpt lat="42.6391935045172" lon="12.5431594581155"><ele>343.0</ele><time>2026-05-03T13:23:05Z</time></trkpt><trkpt lat="42.63946201111026" lon="12.542927980790317"><ele>343.0</ele><time>2026-05-03T13:23:06Z</time></trkpt><trkpt lat="42.63974352131205" lon="12.542695837095621"><ele>343.5</ele><time>2026-05-03T13:23:07Z</time></trkpt><trkpt lat="42.640026092829096" lon="12.542455154538807"><ele>344.0</ele><time>2026-05-03T13:23:08Z</time></trkpt><trkpt lat="42.64031809107876" lon="12.542209016389805"><ele>342.0</ele><time>2026-05-03T13:23:09Z</time></trkpt><trkpt lat="42.640620622403524" lon="12.541961919648225"><ele>340.0</ele><time>2026-05-03T13:23:10Z</time></trkpt><trkpt lat="42.64092711494688" lon="12.541706621897772"><ele>340.5</ele><time>2026-05-03T13:23:11Z</time></trkpt><trkpt lat="42.641229792274565" lon="12.541453908634386"><ele>341.0</ele><time>2026-05-03T13:23:12Z</time></trkpt><trkpt lat="42.64152835145487" lon="12.541209584940656"><ele>341.0</ele><time>2026-05-03T13:23:13Z</time></trkpt><trkpt lat="42.64182284677828" lon="12.54098450453289"><ele>341.0</ele><time>2026-05-03T13:23:14Z</time></trkpt><trkpt lat="42.64211679439927" lon="12.540770243988582"><ele>340.0</ele><time>2026-05-03T13:23:15Z</time></trkpt><trkpt lat="42.642414113987485" lon="12.540571523444283"><ele>339.0</ele><time>2026-05-03T13:23:16Z</time></trkpt><trkpt lat="42.642733979600294" lon="12.54038255523744"><ele>340.5</ele><time>2026-05-03T13:23:17Z</time></trkpt><trkpt lat="42.643000343299875" lon="12.540198584504227"><ele>342.0</ele><time>2026-05-03T13:23:18Z</time></trkpt><trkpt lat="42.643272119650895" lon="12.540024344009819"><ele>342.0</ele><time>2026-05-03T13:23:19Z</time></trkpt><trkpt lat="42.643544035494756" lon="12.53985341822737"><ele>342.0</ele><time>2026-05-03T13:23:20Z</time></trkpt><trkpt lat="42.643821217425426" lon="12.539693723872764"><ele>340.5</ele><time>2026-05-03T13:23:21Z</time></trkpt><trkpt lat="42.64410063290315" lon="12.53955005021496"><ele>339.0</ele><time>2026-05-03T13:23:22Z</time></trkpt><trkpt lat="42.644389433897054" lon="12.539409286863012"><ele>340.0</ele><time>2026-05-03T13:23:23Z</time></trkpt><trkpt lat="42.64468251531837" lon="12.539263560474845"><ele>341.0</ele><time>2026-05-03T13:23:24Z</time></trkpt><trkpt lat="42.644973210888764" lon="12.539129741409491"><ele>341.0</ele><time>2026-05-03T13:23:25Z</time></trkpt><trkpt lat="42.64526403617031" lon="12.539002789893145"><ele>341.0</ele><time>2026-05-03T13:23:26Z</time></trkpt><trkpt lat="42.645556004427235" lon="12.538875352827722"><ele>341.0</ele><time>2026-05-03T13:23:27Z</time></trkpt><trkpt lat="42.64585285773566" lon="12.538748716970911"><ele>341.0</ele><time>2026-05-03T13:23:28Z</time></trkpt><trkpt lat="42.64614767490415" lon="12.538623231458411"><ele>339.0</ele><time>2026-05-03T13:23:29Z</time></trkpt><trkpt lat="42.64644758227799" lon="12.538482018476595"><ele>337.0</ele><time>2026-05-03T13:23:30Z</time></trkpt><trkpt lat="42.646735497852106" lon="12.538367899354567"><ele>337.5</ele><time>2026-05-03T13:23:31Z</time></trkpt><trkpt lat="42.6470273564816" lon="12.538243562520437"><ele>338.0</ele><time>2026-05-03T13:23:32Z</time></trkpt><trkpt lat="42.64731982240133" lon="12.538111732655532"><ele>338.0</ele><time>2026-05-03T13:23:33Z</time></trkpt><trkpt lat="42.64761387042149" lon="12.537975306254449"><ele>338.0</ele><time>2026-05-03T13:23:34Z</time></trkpt><trkpt lat="42.64791797043311" lon="12.537838730111272"><ele>336.5</ele><time>2026-05-03T13:23:35Z</time></trkpt><trkpt lat="42.64823232705941" lon="12.537704137332437"><ele>335.0</ele><time>2026-05-03T13:23:36Z</time></trkpt><trkpt lat="42.64855725341277" lon="12.537568395990679"><ele>337.5</ele><time>2026-05-03T13:23:37Z</time></trkpt><trkpt lat="42.64888965211416" lon="12.537429609042293"><ele>340.0</ele><time>2026-05-03T13:23:38Z</time></trkpt><trkpt lat="42.64921970864083" lon="12.537292237255498"><ele>338.0</ele><time>2026-05-03T13:23:39Z</time></trkpt><trkpt lat="42.64954240012014" lon="12.537156502550827"><ele>336.0</ele><time>2026-05-03T13:23:40Z</time></trkpt><trkpt lat="42.64986259565102" lon="12.53702301167844"><ele>336.0</ele><time>2026-05-03T13:23:41Z</time></trkpt><trkpt lat="42.65017087512406" lon="12.536901763504632"><ele>336.0</ele><time>2026-05-03T13:23:42Z</time></trkpt><trkpt lat="42.65047356008834" lon="12.536798787250182"><ele>338.0</ele><time>2026-05-03T13:23:43Z</time></trkpt><trkpt lat="42.65077026662482" lon="12.53672442163638"><ele>340.0</ele><time>2026-05-03T13:23:44Z</time></trkpt><trkpt lat="42.65106702655122" lon="12.536665236697058"><ele>341.0</ele><time>2026-05-03T13:23:45Z</time></trkpt><trkpt lat="42.651355736283826" lon="12.536623714846177"><ele>342.0</ele><time>2026-05-03T13:23:46Z</time></trkpt><trkpt lat="42.65164978357993" lon="12.536593268039772"><ele>342.0</ele><time>2026-05-03T13:23:47Z</time></trkpt><trkpt lat="42.65194241321317" lon="12.536582643485483"><ele>342.0</ele><time>2026-05-03T13:23:48Z</time></trkpt><trkpt lat="42.65223954870549" lon="12.536586925635708"><ele>342.5</ele><time>2026-05-03T13:23:49Z</time></trkpt><trkpt lat="42.65253982414184" lon="12.536602681553447"><ele>343.0</ele><time>2026-05-03T13:23:50Z</time></trkpt><trkpt lat="42.65283524315999" lon="12.536632710486545"><ele>340.0</ele><time>2026-05-03T13:23:51Z</time></trkpt><trkpt lat="42.653128012196305" lon="12.536678562492385"><ele>337.0</ele><time>2026-05-03T13:23:52Z</time></trkpt><trkpt lat="42.65341137039052" lon="12.536737659151434"><ele>331.5</ele><time>2026-05-03T13:23:53Z</time></trkpt><trkpt lat="42.653691537027356" lon="12.536811028512263"><ele>326.0</ele><time>2026-05-03T13:23:54Z</time></trkpt><trkpt lat="42.65396976649441" lon="12.536900038075787"><ele>326.0</ele><time>2026-05-03T13:23:55Z</time></trkpt><trkpt lat="42.65425308074981" lon="12.537001514067613"><ele>326.0</ele><time>2026-05-03T13:23:56Z</time></trkpt><trkpt lat="42.65453351658689" lon="12.537110625670408"><ele>326.5</ele><time>2026-05-03T13:23:57Z</time></trkpt><trkpt lat="42.654815826099245" lon="12.537217650174224"><ele>327.0</ele><time>2026-05-03T13:23:58Z</time></trkpt><trkpt lat="42.65509605850397" lon="12.537320283497072"><ele>325.5</ele><time>2026-05-03T13:23:59Z</time></trkpt><trkpt lat="42.655375114115294" lon="12.537420827945878"><ele>324.0</ele><time>2026-05-03T13:24:00Z</time></trkpt><trkpt lat="42.65565327237449" lon="12.537517316609096"><ele>324.0</ele><time>2026-05-03T13:24:01Z</time></trkpt><trkpt lat="42.6559303441767" lon="12.537613007399704"><ele>324.0</ele><time>2026-05-03T13:24:02Z</time></trkpt><trkpt lat="42.656200544025744" lon="12.537708748872195"><ele>322.5</ele><time>2026-05-03T13:24:03Z</time></trkpt><trkpt lat="42.65647643479967" lon="12.537811981211961"><ele>321.0</ele><time>2026-05-03T13:24:04Z</time></trkpt><trkpt lat="42.65674742983173" lon="12.537914055873097"><ele>322.0</ele><time>2026-05-03T13:24:05Z</time></trkpt><trkpt lat="42.65702091893436" lon="12.538018946553892"><ele>323.0</ele><time>2026-05-03T13:24:06Z</time></trkpt><trkpt lat="42.65728930525522" lon="12.538119887537926"><ele>323.0</ele><time>2026-05-03T13:24:07Z</time></trkpt><trkpt lat="42.657555849284876" lon="12.538210468975814"><ele>323.0</ele><time>2026-05-03T13:24:08Z</time></trkpt><trkpt lat="42.6578128160828" lon="12.538304272764163"><ele>322.0</ele><time>2026-05-03T13:24:09Z</time></trkpt><trkpt lat="42.65807676885169" lon="12.5383896524401"><ele>321.0</ele><time>2026-05-03T13:24:10Z</time></trkpt><trkpt lat="42.658328200905494" lon="12.538478224214863"><ele>321.0</ele><time>2026-05-03T13:24:11Z</time></trkpt><trkpt lat="42.65858014079941" lon="12.538574198327462"><ele>321.0</ele><time>2026-05-03T13:24:12Z</time></trkpt><trkpt lat="42.658823990393074" lon="12.538676041111376"><ele>321.0</ele><time>2026-05-03T13:24:13Z</time></trkpt><trkpt lat="42.659066212556" lon="12.538783428901299"><ele>321.0</ele><time>2026-05-03T13:24:14Z</time></trkpt><trkpt lat="42.65930098016021" lon="12.538900458172197"><ele>321.0</ele><time>2026-05-03T13:24:15Z</time></trkpt><trkpt lat="42.65953021505454" lon="12.539037856380915"><ele>321.0</ele><time>2026-05-03T13:24:16Z</time></trkpt><trkpt lat="42.65975678590195" lon="12.53919254158209"><ele>321.0</ele><time>2026-05-03T13:24:17Z</time></trkpt><trkpt lat="42.65997716106468" lon="12.53935942673319"><ele>321.0</ele><time>2026-05-03T13:24:18Z</time></trkpt><trkpt lat="42.66019014862432" lon="12.539539978074515"><ele>321.5</ele><time>2026-05-03T13:24:19Z</time></trkpt><trkpt lat="42.66039583223793" lon="12.539735201981037"><ele>322.0</ele><time>2026-05-03T13:24:20Z</time></trkpt><trkpt lat="42.6605952273567" lon="12.539939421745986"><ele>322.0</ele><time>2026-05-03T13:24:21Z</time></trkpt><trkpt lat="42.660782500512106" lon="12.540147887762028"><ele>322.0</ele><time>2026-05-03T13:24:22Z</time></trkpt><trkpt lat="42.6609603715357" lon="12.540369770673735"><ele>319.5</ele><time>2026-05-03T13:24:23Z</time></trkpt><trkpt lat="42.66112535565411" lon="12.540596543459118"><ele>317.0</ele><time>2026-05-03T13:24:24Z</time></trkpt><trkpt lat="42.661278945055535" lon="12.540832200558196"><ele>317.0</ele><time>2026-05-03T13:24:24.999Z</time></trkpt><trkpt lat="42.66142205208612" lon="12.541072200931021"><ele>317.0</ele><time>2026-05-03T13:24:25.999Z</time></trkpt><trkpt lat="42.661557393932284" lon="12.54131992224325"><ele>317.5</ele><time>2026-05-03T13:24:26.999Z</time></trkpt><trkpt lat="42.661688608298796" lon="12.541567798420866"><ele>318.0</ele><time>2026-05-03T13:24:27.999Z</time></trkpt><trkpt lat="42.661822073344375" lon="12.541816840476383"><ele>318.5</ele><time>2026-05-03T13:24:28.999Z</time></trkpt><trkpt lat="42.66195903323238" lon="12.542071565790268"><ele>319.0</ele><time>2026-05-03T13:24:29.999Z</time></trkpt><trkpt lat="42.66209776953946" lon="12.542321084765119"><ele>319.0</ele><time>2026-05-03T13:24:30.999Z</time></trkpt><trkpt lat="42.662239659788945" lon="12.542566120255758"><ele>319.0</ele><time>2026-05-03T13:24:31.999Z</time></trkpt><trkpt lat="42.66238847367613" lon="12.542810535892473"><ele>322.0</ele><time>2026-05-03T13:24:32.999Z</time></trkpt><trkpt lat="42.66254116424966" lon="12.543062174560452"><ele>325.0</ele><time>2026-05-03T13:24:33.999Z</time></trkpt><trkpt lat="42.66269874840011" lon="12.543332618222628"><ele>324.0</ele><time>2026-05-03T13:24:34.999Z</time></trkpt><trkpt lat="42.66285568482951" lon="12.543617061993375"><ele>323.0</ele><time>2026-05-03T13:24:35.999Z</time></trkpt><trkpt lat="42.66301123464759" lon="12.543903926918608"><ele>325.0</ele><time>2026-05-03T13:24:36.999Z</time></trkpt><trkpt lat="42.663166704468736" lon="12.544197580742319"><ele>327.0</ele><time>2026-05-03T13:24:37.999Z</time></trkpt><trkpt lat="42.66332810188386" lon="12.544497493145132"><ele>327.0</ele><time>2026-05-03T13:24:38.999Z</time></trkpt><trkpt lat="42.66348672131996" lon="12.544792070042332"><ele>327.0</ele><time>2026-05-03T13:24:39.999Z</time></trkpt><trkpt lat="42.663646259726995" lon="12.545088863564077"><ele>323.5</ele><time>2026-05-03T13:24:40.999Z</time></trkpt><trkpt lat="42.6638014507831" lon="12.545376358438421"><ele>320.0</ele><time>2026-05-03T13:24:41.999Z</time></trkpt><trkpt lat="42.66395342538811" lon="12.545665734087617"><ele>320.0</ele><time>2026-05-03T13:24:42.999Z</time></trkpt><trkpt lat="42.664102234084865" lon="12.545952555513043"><ele>320.0</ele><time>2026-05-03T13:24:43.999Z</time></trkpt><trkpt lat="42.66424354174979" lon="12.546229358258248"><ele>321.0</ele><time>2026-05-03T13:24:44.999Z</time></trkpt><trkpt lat="42.66437928503424" lon="12.546482263912681"><ele>322.0</ele><time>2026-05-03T13:24:45.999Z</time></trkpt><trkpt lat="42.66451438494361" lon="12.546722739447693"><ele>320.66666666666663</ele><time>2026-05-03T13:24:46.999Z</time></trkpt><trkpt lat="42.66464759635721" lon="12.54696594729974"><ele>319.3333333333333</ele><time>2026-05-03T13:24:47.999Z</time></trkpt><trkpt lat="42.66478085032518" lon="12.54720543995577"><ele>318.0</ele><time>2026-05-03T13:24:48.999Z</time></trkpt><trkpt lat="42.66491518590233" lon="12.547447629189923"><ele>318.0</ele><time>2026-05-03T13:24:49.999Z</time></trkpt><trkpt lat="42.665044715160114" lon="12.547694553552505"><ele>318.0</ele><time>2026-05-03T13:24:50.999Z</time></trkpt><trkpt lat="42.66517531786966" lon="12.547939179531644"><ele>318.0</ele><time>2026-05-03T13:24:51.999Z</time></trkpt><trkpt lat="42.66530997667548" lon="12.548191860449775"><ele>317.5</ele><time>2026-05-03T13:24:52.999Z</time></trkpt><trkpt lat="42.66544324061656" lon="12.548443384408575"><ele>317.0</ele><time>2026-05-03T13:24:53.999Z</time></trkpt><trkpt lat="42.66557811181716" lon="12.548694221139456"><ele>317.0</ele><time>2026-05-03T13:24:54.999Z</time></trkpt><trkpt lat="42.665714791004454" lon="12.548939378526397"><ele>317.0</ele><time>2026-05-03T13:24:55.999Z</time></trkpt><trkpt lat="42.66585408838532" lon="12.549189705905695"><ele>317.0</ele><time>2026-05-03T13:24:56.999Z</time></trkpt><trkpt lat="42.66599114070028" lon="12.549436692642264"><ele>317.0</ele><time>2026-05-03T13:24:57.999Z</time></trkpt><trkpt lat="42.666129755768566" lon="12.54968139353741"><ele>316.6666666666667</ele><time>2026-05-03T13:24:58.999Z</time></trkpt><trkpt lat="42.66626068242606" lon="12.549912112469627"><ele>316.3333333333333</ele><time>2026-05-03T13:24:59.999Z</time></trkpt><trkpt lat="42.66638488069057" lon="12.550134386247988"><ele>316.0</ele><time>2026-05-03T13:25:00.999Z</time></trkpt><trkpt lat="42.66650673100951" lon="12.550363640342292"><ele>316.3333333333333</ele><time>2026-05-03T13:25:01.999Z</time></trkpt><trkpt lat="42.66662794453642" lon="12.550616069156334"><ele>316.6666666666667</ele><time>2026-05-03T13:25:02.999Z</time></trkpt><trkpt lat="42.66675721645916" lon="12.550795503704233"><ele>317.0</ele><time>2026-05-03T13:25:03.999Z</time></trkpt><trkpt lat="42.666884912236036" lon="12.551014690314458"><ele>316.6666666666667</ele><time>2026-05-03T13:25:04.999Z</time></trkpt><trkpt lat="42.667019659478555" lon="12.55122753725028"><ele>316.3333333333333</ele><time>2026-05-03T13:25:05.999Z</time></trkpt><trkpt lat="42.66716421905818" lon="12.551416460602448"><ele>316.0</ele><time>2026-05-03T13:25:06.999Z</time></trkpt><trkpt lat="42.667314804856375" lon="12.551595162331767"><ele>316.0</ele><time>2026-05-03T13:25:07.999Z</time></trkpt><trkpt lat="42.66747380984719" lon="12.55176349246242"><ele>316.0</ele><time>2026-05-03T13:25:08.999Z</time></trkpt><trkpt lat="42.66763835687531" lon="12.551924207695114"><ele>316.0</ele><time>2026-05-03T13:25:10Z</time></trkpt><trkpt lat="42.667807933266815" lon="12.552080504130045"><ele>315.3333333333333</ele><time>2026-05-03T13:25:11Z</time></trkpt><trkpt lat="42.66798034507399" lon="12.552226716647104"><ele>314.6666666666667</ele><time>2026-05-03T13:25:12Z</time></trkpt><trkpt lat="42.66816013952336" lon="12.552365612795242"><ele>314.0</ele><time>2026-05-03T13:25:13Z</time></trkpt><trkpt lat="42.66834762526129" lon="12.55249481323588"><ele>314.0</ele><time>2026-05-03T13:25:14Z</time></trkpt><trkpt lat="42.668542447636966" lon="12.552613389702927"><ele>314.0</ele><time>2026-05-03T13:25:15Z</time></trkpt><trkpt lat="42.668747210276244" lon="12.55272560238765"><ele>314.0</ele><time>2026-05-03T13:25:16Z</time></trkpt><trkpt lat="42.66895731489512" lon="12.55282838969072"><ele>313.0</ele><time>2026-05-03T13:25:17Z</time></trkpt><trkpt lat="42.66917275767008" lon="12.552914603861394"><ele>312.0</ele><time>2026-05-03T13:25:18Z</time></trkpt><trkpt lat="42.669391727044435" lon="12.552978864428455"><ele>311.0</ele><time>2026-05-03T13:25:19Z</time></trkpt><trkpt lat="42.669667890842966" lon="12.55305418497476"><ele>309.6666666666667</ele><time>2026-05-03T13:25:20Z</time></trkpt><trkpt lat="42.66984271272165" lon="12.55306735824778"><ele>308.3333333333333</ele><time>2026-05-03T13:25:21Z</time></trkpt><trkpt lat="42.67005779909549" lon="12.553084415272586"><ele>307.0</ele><time>2026-05-03T13:25:22Z</time></trkpt><trkpt lat="42.67027977741207" lon="12.5530950823723"><ele>307.0</ele><time>2026-05-03T13:25:23Z</time></trkpt><trkpt lat="42.670508661142804" lon="12.553108181115562"><ele>307.0</ele><time>2026-05-03T13:25:24Z</time></trkpt><trkpt lat="42.670736563590665" lon="12.553128519096598"><ele>307.0</ele><time>2026-05-03T13:25:25Z</time></trkpt><trkpt lat="42.670943046695825" lon="12.553150314601135"><ele>307.0</ele><time>2026-05-03T13:25:26Z</time></trkpt><trkpt lat="42.67114449027257" lon="12.553171212309568"><ele>307.0</ele><time>2026-05-03T13:25:27Z</time></trkpt><trkpt lat="42.67133255080671" lon="12.553199111921408"><ele>306.66666666666663</ele><time>2026-05-03T13:25:28Z</time></trkpt><trkpt lat="42.67151495921944" lon="12.553220855401818"><ele>306.3333333333333</ele><time>2026-05-03T13:25:29Z</time></trkpt><trkpt lat="42.67169246610703" lon="12.553239917622975"><ele>306.0</ele><time>2026-05-03T13:25:30Z</time></trkpt><trkpt lat="42.67186911212042" lon="12.553258695148855"><ele>305.6666666666667</ele><time>2026-05-03T13:25:31Z</time></trkpt><trkpt lat="42.672042265996865" lon="12.553279109781993"><ele>305.33333333333337</ele><time>2026-05-03T13:25:32Z</time></trkpt><trkpt lat="42.67220926258366" lon="12.55329728577425"><ele>305.0</ele><time>2026-05-03T13:25:33Z</time></trkpt><trkpt lat="42.67237310342529" lon="12.553313955534342"><ele>305.0</ele><time>2026-05-03T13:25:34Z</time></trkpt><trkpt lat="42.67253057737263" lon="12.553331049661095"><ele>305.0</ele><time>2026-05-03T13:25:35Z</time></trkpt><trkpt lat="42.67270209405978" lon="12.553346612711238"><ele>305.0</ele><time>2026-05-03T13:25:36Z</time></trkpt><trkpt lat="42.67287241525922" lon="12.553369256900684"><ele>304.6666666666667</ele><time>2026-05-03T13:25:37Z</time></trkpt><trkpt lat="42.673051158575134" lon="12.553390772937238"><ele>304.3333333333333</ele><time>2026-05-03T13:25:38Z</time></trkpt><trkpt lat="42.673232084587774" lon="12.553410123069522"><ele>304.0</ele><time>2026-05-03T13:25:39Z</time></trkpt><trkpt lat="42.6734185039078" lon="12.553427169932148"><ele>303.0</ele><time>2026-05-03T13:25:40Z</time></trkpt><trkpt lat="42.67360853948663" lon="12.553445705879877"><ele>302.0</ele><time>2026-05-03T13:25:41Z</time></trkpt><trkpt lat="42.673811565420266" lon="12.553466561526074"><ele>301.0</ele><time>2026-05-03T13:25:42Z</time></trkpt><trkpt lat="42.67401676522621" lon="12.553492242061441"><ele>301.0</ele><time>2026-05-03T13:25:43Z</time></trkpt><trkpt lat="42.67423312816713" lon="12.553524155941325"><ele>301.0</ele><time>2026-05-03T13:25:44Z</time></trkpt><trkpt lat="42.67444481800479" lon="12.553553915219306"><ele>301.0</ele><time>2026-05-03T13:25:45Z</time></trkpt><trkpt lat="42.67466116877836" lon="12.553590412494026"><ele>300.0</ele><time>2026-05-03T13:25:46Z</time></trkpt><trkpt lat="42.67488578398684" lon="12.553625734201637"><ele>299.0</ele><time>2026-05-03T13:25:47Z</time></trkpt><trkpt lat="42.67510902800315" lon="12.553661779797295"><ele>298.5</ele><time>2026-05-03T13:25:48Z</time></trkpt><trkpt lat="42.675337202779005" lon="12.553686226493209"><ele>298.0</ele><time>2026-05-03T13:25:49Z</time></trkpt><trkpt lat="42.6755676894083" lon="12.553706142039372"><ele>297.0</ele><time>2026-05-03T13:25:50Z</time></trkpt><trkpt lat="42.67579468144651" lon="12.553730748144723"><ele>296.0</ele><time>2026-05-03T13:25:51Z</time></trkpt><trkpt lat="42.67602113487562" lon="12.553758481485804"><ele>295.33333333333337</ele><time>2026-05-03T13:25:52Z</time></trkpt><trkpt lat="42.67624322714012" lon="12.553784647471518"><ele>294.6666666666667</ele><time>2026-05-03T13:25:53Z</time></trkpt><trkpt lat="42.67646749901091" lon="12.553810980793862"><ele>294.0</ele><time>2026-05-03T13:25:54Z</time></trkpt><trkpt lat="42.67669395864632" lon="12.553829401433974"><ele>294.0</ele><time>2026-05-03T13:25:55Z</time></trkpt><trkpt lat="42.67691614662859" lon="12.553846561327664"><ele>294.0</ele><time>2026-05-03T13:25:56Z</time></trkpt><trkpt lat="42.677141717257236" lon="12.553866369374598"><ele>294.0</ele><time>2026-05-03T13:25:57Z</time></trkpt><trkpt lat="42.677368054302114" lon="12.553883696363965"><ele>294.0</ele><time>2026-05-03T13:25:58Z</time></trkpt><trkpt lat="42.677592960298725" lon="12.553894450101938"><ele>294.0</ele><time>2026-05-03T13:25:59Z</time></trkpt><trkpt lat="42.67781967631885" lon="12.553902980109534"><ele>294.0</ele><time>2026-05-03T13:26:00Z</time></trkpt><trkpt lat="42.67804494137851" lon="12.553912859233982"><ele>294.0</ele><time>2026-05-03T13:26:01Z</time></trkpt><trkpt lat="42.67826828927554" lon="12.55391913533532"><ele>294.0</ele><time>2026-05-03T13:26:02Z</time></trkpt><trkpt lat="42.67849414273826" lon="12.553925158507806"><ele>294.5</ele><time>2026-05-03T13:26:03Z</time></trkpt><trkpt lat="42.67872023143515" lon="12.553932144613034"><ele>295.0</ele><time>2026-05-03T13:26:04Z</time></trkpt><trkpt lat="42.678949170778466" lon="12.553935154831535"><ele>295.0</ele><time>2026-05-03T13:26:05Z</time></trkpt><trkpt lat="42.67917297665314" lon="12.553934197965075"><ele>295.0</ele><time>2026-05-03T13:26:06Z</time></trkpt><trkpt lat="42.67940126747344" lon="12.553926425517894"><ele>294.66666666666663</ele><time>2026-05-03T13:26:07Z</time></trkpt><trkpt lat="42.67962571709154" lon="12.553922957905092"><ele>294.3333333333333</ele><time>2026-05-03T13:26:08Z</time></trkpt><trkpt lat="42.67984962700893" lon="12.553923608078529"><ele>294.0</ele><time>2026-05-03T13:26:09Z</time></trkpt><trkpt lat="42.680079621776976" lon="12.553921087966181"><ele>294.0</ele><time>2026-05-03T13:26:10Z</time></trkpt><trkpt lat="42.680305212015384" lon="12.553922301943341"><ele>294.0</ele><time>2026-05-03T13:26:11Z</time></trkpt><trkpt lat="42.680530190683854" lon="12.553917883647971"><ele>294.0</ele><time>2026-05-03T13:26:12Z</time></trkpt><trkpt lat="42.680755141712986" lon="12.553911192494455"><ele>294.0</ele><time>2026-05-03T13:26:13Z</time></trkpt><trkpt lat="42.68098200061424" lon="12.553915474051378"><ele>294.0</ele><time>2026-05-03T13:26:14Z</time></trkpt><trkpt lat="42.68121037850466" lon="12.553910775039553"><ele>294.0</ele><time>2026-05-03T13:26:15Z</time></trkpt><trkpt lat="42.68143563602857" lon="12.553908262649465"><ele>294.0</ele><time>2026-05-03T13:26:16Z</time></trkpt><trkpt lat="42.681660498214576" lon="12.553903985041442"><ele>294.0</ele><time>2026-05-03T13:26:17Z</time></trkpt><trkpt lat="42.68188570209716" lon="12.553907312848285"><ele>293.0</ele><time>2026-05-03T13:26:18Z</time></trkpt><trkpt lat="42.682111133893564" lon="12.553904120224653"><ele>292.0</ele><time>2026-05-03T13:26:19Z</time></trkpt><trkpt lat="42.6823408670611" lon="12.553903743983382"><ele>292.0</ele><time>2026-05-03T13:26:20Z</time></trkpt><trkpt lat="42.682566314356855" lon="12.553906009185356"><ele>292.0</ele><time>2026-05-03T13:26:21Z</time></trkpt><trkpt lat="42.68279042905263" lon="12.553903878794594"><ele>291.0</ele><time>2026-05-03T13:26:22Z</time></trkpt><trkpt lat="42.68301602552208" lon="12.55389695782919"><ele>290.0</ele><time>2026-05-03T13:26:23Z</time></trkpt><trkpt lat="42.68324319435772" lon="12.55388994117092"><ele>290.0</ele><time>2026-05-03T13:26:24Z</time></trkpt><trkpt lat="42.68346696117081" lon="12.55388285119217"><ele>290.0</ele><time>2026-05-03T13:26:25Z</time></trkpt><trkpt lat="42.683694213822754" lon="12.553884177141132"><ele>291.5</ele><time>2026-05-03T13:26:26Z</time></trkpt><trkpt lat="42.68392016500522" lon="12.553883267966446"><ele>293.0</ele><time>2026-05-03T13:26:27Z</time></trkpt><trkpt lat="42.684147818076895" lon="12.553884605283153"><ele>293.0</ele><time>2026-05-03T13:26:28Z</time></trkpt><trkpt lat="42.68437568401309" lon="12.553884007162177"><ele>293.0</ele><time>2026-05-03T13:26:29Z</time></trkpt><trkpt lat="42.68460301426249" lon="12.553879359607405"><ele>294.0</ele><time>2026-05-03T13:26:29.999Z</time></trkpt><trkpt lat="42.68482561892516" lon="12.553874772543022"><ele>295.0</ele><time>2026-05-03T13:26:30.999Z</time></trkpt><trkpt lat="42.68505102028589" lon="12.553875335409506"><ele>296.0</ele><time>2026-05-03T13:26:31.999Z</time></trkpt><trkpt lat="42.685275857464305" lon="12.553877861550857"><ele>296.0</ele><time>2026-05-03T13:26:32.999Z</time></trkpt><trkpt lat="42.68550167891003" lon="12.553884370037476"><ele>296.0</ele><time>2026-05-03T13:26:33.999Z</time></trkpt><trkpt lat="42.685729441109125" lon="12.553884601684695"><ele>296.0</ele><time>2026-05-03T13:26:34.999Z</time></trkpt><trkpt lat="42.685956135406485" lon="12.553883495830531"><ele>296.0</ele><time>2026-05-03T13:26:35.999Z</time></trkpt><trkpt lat="42.686180618492656" lon="12.55388111089261"><ele>294.5</ele><time>2026-05-03T13:26:36.999Z</time></trkpt><trkpt lat="42.68640893082366" lon="12.553875607389545"><ele>293.0</ele><time>2026-05-03T13:26:37.999Z</time></trkpt><trkpt lat="42.68663333709519" lon="12.553870280646356"><ele>293.0</ele><time>2026-05-03T13:26:38.999Z</time></trkpt><trkpt lat="42.68685905731816" lon="12.553867544488002"><ele>293.0</ele><time>2026-05-03T13:26:39.999Z</time></trkpt><trkpt lat="42.68708677731474" lon="12.553865631630652"><ele>293.5</ele><time>2026-05-03T13:26:40.999Z</time></trkpt><trkpt lat="42.68731247405106" lon="12.553859713866037"><ele>294.0</ele><time>2026-05-03T13:26:41.999Z</time></trkpt><trkpt lat="42.68753774797326" lon="12.553857519191274"><ele>296.0</ele><time>2026-05-03T13:26:42.999Z</time></trkpt><trkpt lat="42.68776501944091" lon="12.553854088186469"><ele>298.0</ele><time>2026-05-03T13:26:43.999Z</time></trkpt><trkpt lat="42.68799101626136" lon="12.553853348468527"><ele>298.0</ele><time>2026-05-03T13:26:44.999Z</time></trkpt><trkpt lat="42.68821658333424" lon="12.553847095982007"><ele>298.0</ele><time>2026-05-03T13:26:45.999Z</time></trkpt><trkpt lat="42.68844761576292" lon="12.553839049864164"><ele>300.0</ele><time>2026-05-03T13:26:46.999Z</time></trkpt><trkpt lat="42.688671052828305" lon="12.553833207911923"><ele>302.0</ele><time>2026-05-03T13:26:47.999Z</time></trkpt><trkpt lat="42.6888972578522" lon="12.553820262429282"><ele>302.0</ele><time>2026-05-03T13:26:48.999Z</time></trkpt><trkpt lat="42.68912526987408" lon="12.553814731403929"><ele>302.0</ele><time>2026-05-03T13:26:49.999Z</time></trkpt><trkpt lat="42.68934819366601" lon="12.55380759533679"><ele>300.5</ele><time>2026-05-03T13:26:50.999Z</time></trkpt><trkpt lat="42.68957790964913" lon="12.553799913999866"><ele>299.0</ele><time>2026-05-03T13:26:51.999Z</time></trkpt><trkpt lat="42.68980217253286" lon="12.553793143268965"><ele>299.0</ele><time>2026-05-03T13:26:52.999Z</time></trkpt><trkpt lat="42.690027374082405" lon="12.553785520523167"><ele>299.0</ele><time>2026-05-03T13:26:53.999Z</time></trkpt><trkpt lat="42.69025557082638" lon="12.553781350418738"><ele>296.0</ele><time>2026-05-03T13:26:54.999Z</time></trkpt><trkpt lat="42.69047982104712" lon="12.55377344408448"><ele>293.0</ele><time>2026-05-03T13:26:55.999Z</time></trkpt><trkpt lat="42.690707301038074" lon="12.553770233043178"><ele>293.0</ele><time>2026-05-03T13:26:56.999Z</time></trkpt><trkpt lat="42.69093238125733" lon="12.553759154999433"><ele>293.0</ele><time>2026-05-03T13:26:57.999Z</time></trkpt><trkpt lat="42.69115924731552" lon="12.553752106799333"><ele>292.5</ele><time>2026-05-03T13:26:58.999Z</time></trkpt><trkpt lat="42.69138283264311" lon="12.553741742934008"><ele>292.0</ele><time>2026-05-03T13:26:59.999Z</time></trkpt><trkpt lat="42.691611292261825" lon="12.553734824734638"><ele>292.0</ele><time>2026-05-03T13:27:00.999Z</time></trkpt><trkpt lat="42.69183672726422" lon="12.553728566335367"><ele>292.0</ele><time>2026-05-03T13:27:01.999Z</time></trkpt><trkpt lat="42.6920670757861" lon="12.553720953629576"><ele>292.5</ele><time>2026-05-03T13:27:02.999Z</time></trkpt><trkpt lat="42.692290586631295" lon="12.553714798454813"><ele>293.0</ele><time>2026-05-03T13:27:03.999Z</time></trkpt><trkpt lat="42.69251709254418" lon="12.553709147020337"><ele>291.33333333333337</ele><time>2026-05-03T13:27:04.999Z</time></trkpt><trkpt lat="42.69273983447861" lon="12.553703752988557"><ele>289.6666666666667</ele><time>2026-05-03T13:27:05.999Z</time></trkpt><trkpt lat="42.69296586401044" lon="12.553688830477254"><ele>288.0</ele><time>2026-05-03T13:27:06.999Z</time></trkpt><trkpt lat="42.693191129043875" lon="12.553679028912986"><ele>288.0</ele><time>2026-05-03T13:27:07.999Z</time></trkpt><trkpt lat="42.69342152777208" lon="12.553663571278058"><ele>288.0</ele><time>2026-05-03T13:27:08.999Z</time></trkpt><trkpt lat="42.69364581059491" lon="12.553664391041"><ele>287.0</ele><time>2026-05-03T13:27:09.999Z</time></trkpt><trkpt lat="42.693872393173095" lon="12.553656338288638"><ele>286.0</ele><time>2026-05-03T13:27:10.999Z</time></trkpt><trkpt lat="42.694100275486306" lon="12.553655977482059"><ele>286.0</ele><time>2026-05-03T13:27:11.999Z</time></trkpt><trkpt lat="42.69432459519974" lon="12.553650510022102"><ele>286.0</ele><time>2026-05-03T13:27:12.999Z</time></trkpt><trkpt lat="42.69454998519355" lon="12.55364252849083"><ele>289.0</ele><time>2026-05-03T13:27:13.999Z</time></trkpt><trkpt lat="42.6947761878172" lon="12.553625720819486"><ele>292.0</ele><time>2026-05-03T13:27:14.999Z</time></trkpt><trkpt lat="42.6950034686997" lon="12.553613261706447"><ele>292.0</ele><time>2026-05-03T13:27:16Z</time></trkpt><trkpt lat="42.69522619138057" lon="12.553602762666898"><ele>292.0</ele><time>2026-05-03T13:27:17Z</time></trkpt><trkpt lat="42.69545185328202" lon="12.55359309715623"><ele>292.0</ele><time>2026-05-03T13:27:18Z</time></trkpt><trkpt lat="42.695675985959255" lon="12.553589322034089"><ele>292.0</ele><time>2026-05-03T13:27:19Z</time></trkpt><trkpt lat="42.69590351315581" lon="12.55357273112508"><ele>292.0</ele><time>2026-05-03T13:27:20Z</time></trkpt><trkpt lat="42.69612799418633" lon="12.55355140863852"><ele>292.0</ele><time>2026-05-03T13:27:21Z</time></trkpt><trkpt lat="42.696351011003536" lon="12.553533256900302"><ele>292.0</ele><time>2026-05-03T13:27:22Z</time></trkpt><trkpt lat="42.69658179814605" lon="12.55350515222031"><ele>292.0</ele><time>2026-05-03T13:27:23Z</time></trkpt><trkpt lat="42.69680654064498" lon="12.553480401134266"><ele>292.0</ele><time>2026-05-03T13:27:24Z</time></trkpt><trkpt lat="42.69703046317243" lon="12.553454032202476"><ele>290.5</ele><time>2026-05-03T13:27:25Z</time></trkpt><trkpt lat="42.69725698611706" lon="12.553427948960753"><ele>289.0</ele><time>2026-05-03T13:27:26Z</time></trkpt><trkpt lat="42.69748274376416" lon="12.553403957923454"><ele>289.0</ele><time>2026-05-03T13:27:27Z</time></trkpt><trkpt lat="42.69770861336193" lon="12.55337816706838"><ele>289.0</ele><time>2026-05-03T13:27:28Z</time></trkpt><trkpt lat="42.69793301156482" lon="12.55335078209787"><ele>287.5</ele><time>2026-05-03T13:27:29Z</time></trkpt><trkpt lat="42.69815829983606" lon="12.553319968233266"><ele>286.0</ele><time>2026-05-03T13:27:30Z</time></trkpt><trkpt lat="42.69838472337862" lon="12.553287862476788"><ele>285.0</ele><time>2026-05-03T13:27:31Z</time></trkpt><trkpt lat="42.69860868445637" lon="12.553256567670376"><ele>284.0</ele><time>2026-05-03T13:27:32Z</time></trkpt><trkpt lat="42.698833482663595" lon="12.553216130430126"><ele>284.0</ele><time>2026-05-03T13:27:33Z</time></trkpt><trkpt lat="42.699058645283394" lon="12.553181518352428"><ele>284.0</ele><time>2026-05-03T13:27:34Z</time></trkpt><trkpt lat="42.69928274337889" lon="12.553148298413765"><ele>282.5</ele><time>2026-05-03T13:27:35Z</time></trkpt><trkpt lat="42.699508449820456" lon="12.553129800739447"><ele>281.0</ele><time>2026-05-03T13:27:36Z</time></trkpt><trkpt lat="42.69973371633538" lon="12.553098973253217"><ele>281.0</ele><time>2026-05-03T13:27:37Z</time></trkpt><trkpt lat="42.69995607738687" lon="12.55307034429996"><ele>281.0</ele><time>2026-05-03T13:27:38Z</time></trkpt><trkpt lat="42.700184616605696" lon="12.553038037892824"><ele>281.0</ele><time>2026-05-03T13:27:39Z</time></trkpt><trkpt lat="42.70040721955829" lon="12.55300369508896"><ele>281.0</ele><time>2026-05-03T13:27:40Z</time></trkpt><trkpt lat="42.70063274929513" lon="12.552963439046222"><ele>281.0</ele><time>2026-05-03T13:27:41Z</time></trkpt><trkpt lat="42.70086399420659" lon="12.552934208225311"><ele>281.0</ele><time>2026-05-03T13:27:42Z</time></trkpt><trkpt lat="42.70109901985215" lon="12.552903114003625"><ele>280.33333333333337</ele><time>2026-05-03T13:27:43Z</time></trkpt><trkpt lat="42.701337426966276" lon="12.552874147749566"><ele>279.6666666666667</ele><time>2026-05-03T13:27:44Z</time></trkpt><trkpt lat="42.70153445215453" lon="12.552840138441708"><ele>279.0</ele><time>2026-05-03T13:27:45Z</time></trkpt><trkpt lat="42.70175819046196" lon="12.5528076690863"><ele>280.0</ele><time>2026-05-03T13:27:46Z</time></trkpt><trkpt lat="42.70197904442286" lon="12.552774785111486"><ele>281.0</ele><time>2026-05-03T13:27:47Z</time></trkpt><trkpt lat="42.70220464154857" lon="12.552748266620693"><ele>282.0</ele><time>2026-05-03T13:27:48Z</time></trkpt><trkpt lat="42.702433107401234" lon="12.552720586956784"><ele>282.0</ele><time>2026-05-03T13:27:49Z</time></trkpt><trkpt lat="42.70266002022651" lon="12.552688865073641"><ele>282.0</ele><time>2026-05-03T13:27:50Z</time></trkpt><trkpt lat="42.702888123471844" lon="12.55265980397265"><ele>280.0</ele><time>2026-05-03T13:27:51Z</time></trkpt><trkpt lat="42.70311114778004" lon="12.552624747510285"><ele>278.0</ele><time>2026-05-03T13:27:52Z</time></trkpt><trkpt lat="42.70333669201025" lon="12.552593218500252"><ele>278.0</ele><time>2026-05-03T13:27:53Z</time></trkpt><trkpt lat="42.703558395736536" lon="12.55256517644894"><ele>278.0</ele><time>2026-05-03T13:27:54Z</time></trkpt><trkpt lat="42.70378175938468" lon="12.552539711262654"><ele>278.0</ele><time>2026-05-03T13:27:55Z</time></trkpt><trkpt lat="42.70400594178112" lon="12.552511057625145"><ele>279.0</ele><time>2026-05-03T13:27:56Z</time></trkpt><trkpt lat="42.704230018768776" lon="12.552482383608059"><ele>280.0</ele><time>2026-05-03T13:27:57Z</time></trkpt><trkpt lat="42.7044578236888" lon="12.552458617676292"><ele>280.0</ele><time>2026-05-03T13:27:58Z</time></trkpt><trkpt lat="42.704682533844284" lon="12.552440942367559"><ele>280.0</ele><time>2026-05-03T13:27:59Z</time></trkpt><trkpt lat="42.70490749085389" lon="12.552421895926175"><ele>280.0</ele><time>2026-05-03T13:28:00Z</time></trkpt><trkpt lat="42.7051344452445" lon="12.552398511876705"><ele>280.0</ele><time>2026-05-03T13:28:01Z</time></trkpt><trkpt lat="42.70535882436401" lon="12.55237218711929"><ele>279.0</ele><time>2026-05-03T13:28:02Z</time></trkpt><trkpt lat="42.70558158564561" lon="12.552342947153402"><ele>278.0</ele><time>2026-05-03T13:28:03Z</time></trkpt><trkpt lat="42.70580658262646" lon="12.552309492894546"><ele>278.0</ele><time>2026-05-03T13:28:04Z</time></trkpt><trkpt lat="42.70603295965345" lon="12.552284367778503"><ele>278.0</ele><time>2026-05-03T13:28:05Z</time></trkpt><trkpt lat="42.706258085182824" lon="12.552256673944921"><ele>279.0</ele><time>2026-05-03T13:28:06Z</time></trkpt><trkpt lat="42.70648299777052" lon="12.552230922819609"><ele>280.0</ele><time>2026-05-03T13:28:07Z</time></trkpt><trkpt lat="42.706707447717456" lon="12.55221030125456"><ele>277.0</ele><time>2026-05-03T13:28:08Z</time></trkpt><trkpt lat="42.70693443971113" lon="12.552186676098405"><ele>274.0</ele><time>2026-05-03T13:28:09Z</time></trkpt><trkpt lat="42.707158643884625" lon="12.55215791244395"><ele>274.0</ele><time>2026-05-03T13:28:10Z</time></trkpt><trkpt lat="42.70738210540422" lon="12.552133121119732"><ele>274.0</ele><time>2026-05-03T13:28:11Z</time></trkpt><trkpt lat="42.707607976579" lon="12.55210890996508"><ele>272.0</ele><time>2026-05-03T13:28:12Z</time></trkpt><trkpt lat="42.70783408146646" lon="12.552081291707072"><ele>270.0</ele><time>2026-05-03T13:28:13Z</time></trkpt><trkpt lat="42.708061735497644" lon="12.552053806381531"><ele>268.6666666666667</ele><time>2026-05-03T13:28:14Z</time></trkpt><trkpt lat="42.70828765154895" lon="12.55202739874647"><ele>267.33333333333337</ele><time>2026-05-03T13:28:15Z</time></trkpt><trkpt lat="42.70850923490395" lon="12.552000615363909"><ele>266.0</ele><time>2026-05-03T13:28:16Z</time></trkpt><trkpt lat="42.70873631348581" lon="12.551968260892286"><ele>266.0</ele><time>2026-05-03T13:28:17Z</time></trkpt><trkpt lat="42.70896155735499" lon="12.5519417800287"><ele>266.0</ele><time>2026-05-03T13:28:18Z</time></trkpt><trkpt lat="42.70918760631014" lon="12.551911046718098"><ele>268.0</ele><time>2026-05-03T13:28:19Z</time></trkpt><trkpt lat="42.70941473328098" lon="12.551878313321696"><ele>270.0</ele><time>2026-05-03T13:28:20Z</time></trkpt><trkpt lat="42.709637341022386" lon="12.551851462918007"><ele>270.0</ele><time>2026-05-03T13:28:21Z</time></trkpt><trkpt lat="42.70986228799186" lon="12.551833039028871"><ele>270.0</ele><time>2026-05-03T13:28:22Z</time></trkpt><trkpt lat="42.71008620812572" lon="12.551808223940283"><ele>269.5</ele><time>2026-05-03T13:28:23Z</time></trkpt><trkpt lat="42.71030971022737" lon="12.55178059834758"><ele>269.0</ele><time>2026-05-03T13:28:24Z</time></trkpt><trkpt lat="42.71053505718436" lon="12.551751415017138"><ele>269.0</ele><time>2026-05-03T13:28:25Z</time></trkpt><trkpt lat="42.710758210200446" lon="12.551728206013284"><ele>269.0</ele><time>2026-05-03T13:28:26Z</time></trkpt><trkpt lat="42.71098750940094" lon="12.551711279217676"><ele>263.5</ele><time>2026-05-03T13:28:27Z</time></trkpt><trkpt lat="42.71121527776306" lon="12.551707529308972"><ele>258.0</ele><time>2026-05-03T13:28:28Z</time></trkpt><trkpt lat="42.71143724904526" lon="12.551720329660494"><ele>258.0</ele><time>2026-05-03T13:28:29Z</time></trkpt><trkpt lat="42.711666066955495" lon="12.551731259461574"><ele>258.0</ele><time>2026-05-03T13:28:30Z</time></trkpt><trkpt lat="42.71189024473992" lon="12.551748916406265"><ele>256.0</ele><time>2026-05-03T13:28:31Z</time></trkpt><trkpt lat="42.71211548839116" lon="12.551774863509316"><ele>254.0</ele><time>2026-05-03T13:28:32Z</time></trkpt><trkpt lat="42.71234235799178" lon="12.551805732275437"><ele>254.0</ele><time>2026-05-03T13:28:33Z</time></trkpt><trkpt lat="42.71256218915334" lon="12.551847860066617"><ele>254.0</ele><time>2026-05-03T13:28:34Z</time></trkpt><trkpt lat="42.712789071983316" lon="12.55188444207505"><ele>259.5</ele><time>2026-05-03T13:28:35Z</time></trkpt><trkpt lat="42.713011297837426" lon="12.551921349742678"><ele>265.0</ele><time>2026-05-03T13:28:36Z</time></trkpt><trkpt lat="42.71324207314811" lon="12.551951261233533"><ele>265.0</ele><time>2026-05-03T13:28:37Z</time></trkpt><trkpt lat="42.713467852703744" lon="12.55198395758363"><ele>265.0</ele><time>2026-05-03T13:28:38Z</time></trkpt><trkpt lat="42.71369506218607" lon="12.552023775843956"><ele>263.0</ele><time>2026-05-03T13:28:38.999Z</time></trkpt><trkpt lat="42.71391686932088" lon="12.552058920952472"><ele>261.0</ele><time>2026-05-03T13:28:39.999Z</time></trkpt><trkpt lat="42.71414088025959" lon="12.552100498635841"><ele>259.0</ele><time>2026-05-03T13:28:40.999Z</time></trkpt><trkpt lat="42.714365605864394" lon="12.552137300710001"><ele>263.0</ele><time>2026-05-03T13:28:41.999Z</time></trkpt><trkpt lat="42.714591100582666" lon="12.552169408191784"><ele>267.0</ele><time>2026-05-03T13:28:42.999Z</time></trkpt><trkpt lat="42.71481697049243" lon="12.552202629497414"><ele>267.0</ele><time>2026-05-03T13:28:43.999Z</time></trkpt><trkpt lat="42.715047014165734" lon="12.552237411966816"><ele>267.0</ele><time>2026-05-03T13:28:44.999Z</time></trkpt><trkpt lat="42.71526943694574" lon="12.552265250119735"><ele>269.0</ele><time>2026-05-03T13:28:45.999Z</time></trkpt><trkpt lat="42.71549578630065" lon="12.55229053397085"><ele>271.0</ele><time>2026-05-03T13:28:46.999Z</time></trkpt><trkpt lat="42.71572168493432" lon="12.5523032996744"><ele>271.0</ele><time>2026-05-03T13:28:47.999Z</time></trkpt><trkpt lat="42.7159489139605" lon="12.552294479704429"><ele>271.0</ele><time>2026-05-03T13:28:48.999Z</time></trkpt><trkpt lat="42.716173015834045" lon="12.552272082509932"><ele>268.3333333333333</ele><time>2026-05-03T13:28:49.999Z</time></trkpt><trkpt lat="42.716399119861265" lon="12.552236941433229"><ele>265.6666666666667</ele><time>2026-05-03T13:28:50.999Z</time></trkpt><trkpt lat="42.71661773723884" lon="12.55219499077599"><ele>263.0</ele><time>2026-05-03T13:28:51.999Z</time></trkpt><trkpt lat="42.716837999784964" lon="12.552130611235398"><ele>260.0</ele><time>2026-05-03T13:28:52.999Z</time></trkpt><trkpt lat="42.717061179554875" lon="12.552058161337838"><ele>257.0</ele><time>2026-05-03T13:28:53.999Z</time></trkpt><trkpt lat="42.71727722537798" lon="12.55196925862715"><ele>257.0</ele><time>2026-05-03T13:28:54.999Z</time></trkpt><trkpt lat="42.71749452648818" lon="12.551867332428195"><ele>257.0</ele><time>2026-05-03T13:28:55.999Z</time></trkpt><trkpt lat="42.717703694174936" lon="12.55176356260898"><ele>255.0</ele><time>2026-05-03T13:28:56.999Z</time></trkpt><trkpt lat="42.71790972038656" lon="12.551644440672327"><ele>253.0</ele><time>2026-05-03T13:28:57.999Z</time></trkpt><trkpt lat="42.71811225332302" lon="12.551505685573302"><ele>253.0</ele><time>2026-05-03T13:28:58.999Z</time></trkpt><trkpt lat="42.7183100259792" lon="12.551359862605722"><ele>253.0</ele><time>2026-05-03T13:28:59.999Z</time></trkpt><trkpt lat="42.71850449330068" lon="12.551201717328684"><ele>252.0</ele><time>2026-05-03T13:29:00.999Z</time></trkpt><trkpt lat="42.718690649310524" lon="12.551037095334133"><ele>251.0</ele><time>2026-05-03T13:29:01.999Z</time></trkpt><trkpt lat="42.718877903191995" lon="12.55086263315986"><ele>250.0</ele><time>2026-05-03T13:29:02.999Z</time></trkpt><trkpt lat="42.7190656393511" lon="12.550681769511538"><ele>250.0</ele><time>2026-05-03T13:29:03.999Z</time></trkpt><trkpt lat="42.71925184593504" lon="12.550505676222441"><ele>250.0</ele><time>2026-05-03T13:29:04.999Z</time></trkpt><trkpt lat="42.7194379500878" lon="12.550333309904405"><ele>249.0</ele><time>2026-05-03T13:29:05.999Z</time></trkpt><trkpt lat="42.71962330081807" lon="12.550160860524281"><ele>248.0</ele><time>2026-05-03T13:29:06.999Z</time></trkpt><trkpt lat="42.7198058136203" lon="12.549987197776554"><ele>247.0</ele><time>2026-05-03T13:29:07.999Z</time></trkpt><trkpt lat="42.719985678089095" lon="12.54980385676525"><ele>247.0</ele><time>2026-05-03T13:29:08.999Z</time></trkpt><trkpt lat="42.72015950675122" lon="12.549607956502097"><ele>247.0</ele><time>2026-05-03T13:29:09.999Z</time></trkpt><trkpt lat="42.72032348205306" lon="12.549391231691649"><ele>246.0</ele><time>2026-05-03T13:29:10.999Z</time></trkpt><trkpt lat="42.72047950116272" lon="12.549162190107884"><ele>245.0</ele><time>2026-05-03T13:29:11.999Z</time></trkpt><trkpt lat="42.720623425869405" lon="12.548932579969845"><ele>249.5</ele><time>2026-05-03T13:29:12.999Z</time></trkpt><trkpt lat="42.720765066856885" lon="12.548686009743967"><ele>254.0</ele><time>2026-05-03T13:29:13.999Z</time></trkpt><trkpt lat="42.7208933957391" lon="12.548441437438257"><ele>254.0</ele><time>2026-05-03T13:29:14.999Z</time></trkpt><trkpt lat="42.72101185580603" lon="12.548180289889265"><ele>254.0</ele><time>2026-05-03T13:29:15.999Z</time></trkpt><trkpt lat="42.72112102126743" lon="12.547914439798667"><ele>254.0</ele><time>2026-05-03T13:29:16.999Z</time></trkpt><trkpt lat="42.721221799178174" lon="12.547637449405482"><ele>251.0</ele><time>2026-05-03T13:29:17.999Z</time></trkpt><trkpt lat="42.72131762960942" lon="12.547355577943271"><ele>248.0</ele><time>2026-05-03T13:29:18.999Z</time></trkpt><trkpt lat="42.72140437140301" lon="12.547069436633615"><ele>247.5</ele><time>2026-05-03T13:29:19.999Z</time></trkpt><trkpt lat="42.72148930049768" lon="12.546782007205223"><ele>247.0</ele><time>2026-05-03T13:29:20.999Z</time></trkpt><trkpt lat="42.7215763033617" lon="12.546495896825014"><ele>249.0</ele><time>2026-05-03T13:29:22Z</time></trkpt><trkpt lat="42.72166395180573" lon="12.546210729196346"><ele>251.0</ele><time>2026-05-03T13:29:23Z</time></trkpt><trkpt lat="42.721748349287786" lon="12.545926147000898"><ele>251.0</ele><time>2026-05-03T13:29:24Z</time></trkpt><trkpt lat="42.72183108703047" lon="12.545644431606016"><ele>251.0</ele><time>2026-05-03T13:29:25Z</time></trkpt><trkpt lat="42.72191407571664" lon="12.545363893101381"><ele>251.0</ele><time>2026-05-03T13:29:26Z</time></trkpt><trkpt lat="42.7219975488308" lon="12.545077867367242"><ele>242.0</ele><time>2026-05-03T13:29:27Z</time></trkpt><trkpt lat="42.722081974317256" lon="12.544789627418071"><ele>233.0</ele><time>2026-05-03T13:29:28Z</time></trkpt><trkpt lat="42.72216598026868" lon="12.544500660671753"><ele>233.0</ele><time>2026-05-03T13:29:29Z</time></trkpt><trkpt lat="42.72225301885838" lon="12.544217472883544"><ele>233.0</ele><time>2026-05-03T13:29:30Z</time></trkpt><trkpt lat="42.72233663128692" lon="12.543928199920922"><ele>233.0</ele><time>2026-05-03T13:29:31Z</time></trkpt><trkpt lat="42.72241810709285" lon="12.543648799741932"><ele>233.0</ele><time>2026-05-03T13:29:32Z</time></trkpt><trkpt lat="42.72249418045525" lon="12.54337731505202"><ele>233.0</ele><time>2026-05-03T13:29:33Z</time></trkpt><trkpt lat="42.72257226610852" lon="12.543108118049727"><ele>232.66666666666669</ele><time>2026-05-03T13:29:34Z</time></trkpt><trkpt lat="42.72265076081329" lon="12.542852477342295"><ele>232.33333333333331</ele><time>2026-05-03T13:29:35Z</time></trkpt><trkpt lat="42.72272799034901" lon="12.542603969467878"><ele>232.0</ele><time>2026-05-03T13:29:36Z</time></trkpt><trkpt lat="42.7228165764368" lon="12.542361373810069"><ele>231.66666666666666</ele><time>2026-05-03T13:29:37Z</time></trkpt><trkpt lat="42.722907116078815" lon="12.542116971927124"><ele>231.33333333333331</ele><time>2026-05-03T13:29:38Z</time></trkpt><trkpt lat="42.72300423590149" lon="12.541890789842416"><ele>231.0</ele><time>2026-05-03T13:29:39Z</time></trkpt><trkpt lat="42.72310721266548" lon="12.541656500630179"><ele>231.0</ele><time>2026-05-03T13:29:40Z</time></trkpt><trkpt lat="42.723208024456135" lon="12.541428138772956"><ele>231.0</ele><time>2026-05-03T13:29:41Z</time></trkpt><trkpt lat="42.72331125607432" lon="12.541198448274047"><ele>231.0</ele><time>2026-05-03T13:29:42Z</time></trkpt><trkpt lat="42.72341882884505" lon="12.540969436186376"><ele>231.33333333333331</ele><time>2026-05-03T13:29:43Z</time></trkpt><trkpt lat="42.72353345192762" lon="12.54075159755326"><ele>231.66666666666666</ele><time>2026-05-03T13:29:44Z</time></trkpt><trkpt lat="42.723652593099686" lon="12.540539663711865"><ele>232.0</ele><time>2026-05-03T13:29:45Z</time></trkpt><trkpt lat="42.72377547462267" lon="12.540324005519782"><ele>231.33333333333331</ele><time>2026-05-03T13:29:46Z</time></trkpt><trkpt lat="42.72390020793976" lon="12.540107330747153"><ele>230.66666666666669</ele><time>2026-05-03T13:29:47Z</time></trkpt><trkpt lat="42.72402652071712" lon="12.539900579643513"><ele>230.0</ele><time>2026-05-03T13:29:48Z</time></trkpt><trkpt lat="42.72415662301079" lon="12.539713664697567"><ele>230.0</ele><time>2026-05-03T13:29:49Z</time></trkpt><trkpt lat="42.72428607342722" lon="12.539538189825283"><ele>230.0</ele><time>2026-05-03T13:29:50Z</time></trkpt><trkpt lat="42.724415583063156" lon="12.539359463468118"><ele>230.0</ele><time>2026-05-03T13:29:51Z</time></trkpt><trkpt lat="42.72454304701509" lon="12.539174607734946"><ele>229.66666666666669</ele><time>2026-05-03T13:29:52Z</time></trkpt><trkpt lat="42.724672315751874" lon="12.538987888868503"><ele>229.33333333333331</ele><time>2026-05-03T13:29:53Z</time></trkpt><trkpt lat="42.724800763035866" lon="12.538807080255355"><ele>229.0</ele><time>2026-05-03T13:29:54Z</time></trkpt><trkpt lat="42.724927764274966" lon="12.538624596998746"><ele>229.0</ele><time>2026-05-03T13:29:55Z</time></trkpt><trkpt lat="42.72505506910776" lon="12.538434444308596"><ele>229.0</ele><time>2026-05-03T13:29:56Z</time></trkpt><trkpt lat="42.72518180487834" lon="12.53824404158918"><ele>229.0</ele><time>2026-05-03T13:29:57Z</time></trkpt><trkpt lat="42.7253143715885" lon="12.53806253174527"><ele>230.0</ele><time>2026-05-03T13:29:58Z</time></trkpt><trkpt lat="42.7254423929019" lon="12.537873318840044"><ele>231.0</ele><time>2026-05-03T13:29:59Z</time></trkpt><trkpt lat="42.7255746389453" lon="12.537688955907791"><ele>232.0</ele><time>2026-05-03T13:30:00Z</time></trkpt><trkpt lat="42.72570427414728" lon="12.53750640118235"><ele>232.0</ele><time>2026-05-03T13:30:01Z</time></trkpt><trkpt lat="42.72583010677662" lon="12.537316738166496"><ele>232.0</ele><time>2026-05-03T13:30:02Z</time></trkpt><trkpt lat="42.72595313466123" lon="12.537130554099392"><ele>232.0</ele><time>2026-05-03T13:30:03Z</time></trkpt><trkpt lat="42.72608668416078" lon="12.536941655844313"><ele>231.33333333333331</ele><time>2026-05-03T13:30:04Z</time></trkpt><trkpt lat="42.72621308274223" lon="12.536746946415274"><ele>230.66666666666669</ele><time>2026-05-03T13:30:04.999Z</time></trkpt><trkpt lat="42.72633972449788" lon="12.536553867063619"><ele>230.0</ele><time>2026-05-03T13:30:05.999Z</time></trkpt><trkpt lat="42.72646157263306" lon="12.536355798383733"><ele>229.33333333333334</ele><time>2026-05-03T13:30:06.999Z</time></trkpt><trkpt lat="42.726569498156515" lon="12.536151288196097"><ele>228.66666666666669</ele><time>2026-05-03T13:30:07.999Z</time></trkpt><trkpt lat="42.72666917564592" lon="12.535935755020065"><ele>228.0</ele><time>2026-05-03T13:30:08.999Z</time></trkpt><trkpt lat="42.726759844253216" lon="12.535707644497814"><ele>228.0</ele><time>2026-05-03T13:30:09.999Z</time></trkpt><trkpt lat="42.726846179475395" lon="12.53548157928834"><ele>228.0</ele><time>2026-05-03T13:30:10.999Z</time></trkpt><trkpt lat="42.72692498986673" lon="12.535251860330932"><ele>228.0</ele><time>2026-05-03T13:30:11.999Z</time></trkpt><trkpt lat="42.72699226509502" lon="12.535008796965522"><ele>229.0</ele><time>2026-05-03T13:30:12.999Z</time></trkpt><trkpt lat="42.727054852239185" lon="12.534763394902049"><ele>230.0</ele><time>2026-05-03T13:30:13.999Z</time></trkpt><trkpt lat="42.727109747949186" lon="12.534519274741982"><ele>231.0</ele><time>2026-05-03T13:30:14.999Z</time></trkpt><trkpt lat="42.727160631933096" lon="12.534274014289368"><ele>231.0</ele><time>2026-05-03T13:30:15.999Z</time></trkpt><trkpt lat="42.72720068950772" lon="12.53402292948231"><ele>231.0</ele><time>2026-05-03T13:30:16.999Z</time></trkpt><trkpt lat="42.72724576895259" lon="12.533773083905912"><ele>231.0</ele><time>2026-05-03T13:30:17.999Z</time></trkpt><trkpt lat="42.72728345864184" lon="12.533519513167464"><ele>230.33333333333331</ele><time>2026-05-03T13:30:18.999Z</time></trkpt><trkpt lat="42.72731262031582" lon="12.533267698149828"><ele>229.66666666666666</ele><time>2026-05-03T13:30:19.999Z</time></trkpt><trkpt lat="42.7273410697245" lon="12.53300420427001"><ele>229.0</ele><time>2026-05-03T13:30:20.999Z</time></trkpt><trkpt lat="42.72735896652001" lon="12.53273773794098"><ele>229.0</ele><time>2026-05-03T13:30:21.999Z</time></trkpt><trkpt lat="42.727368166994786" lon="12.53247367940143"><ele>229.0</ele><time>2026-05-03T13:30:22.999Z</time></trkpt><trkpt lat="42.727380427650125" lon="12.532180829734948"><ele>229.0</ele><time>2026-05-03T13:30:23.999Z</time></trkpt><trkpt lat="42.72737879060556" lon="12.531900878225759"><ele>229.33333333333331</ele><time>2026-05-03T13:30:24.999Z</time></trkpt><trkpt lat="42.72736709019789" lon="12.531621130612292"><ele>229.66666666666669</ele><time>2026-05-03T13:30:25.999Z</time></trkpt><trkpt lat="42.72734879419036" lon="12.53133873294305"><ele>230.0</ele><time>2026-05-03T13:30:26.999Z</time></trkpt><trkpt lat="42.727326101342484" lon="12.53106135177775"><ele>230.0</ele><time>2026-05-03T13:30:27.999Z</time></trkpt><trkpt lat="42.72729048099721" lon="12.530785333325458"><ele>230.0</ele><time>2026-05-03T13:30:28.999Z</time></trkpt><trkpt lat="42.727251117185666" lon="12.530515629380242"><ele>230.0</ele><time>2026-05-03T13:30:29.999Z</time></trkpt><trkpt lat="42.727205782111284" lon="12.530245117187322"><ele>230.33333333333334</ele><time>2026-05-03T13:30:30.999Z</time></trkpt><trkpt lat="42.72716046019894" lon="12.529976852678471"><ele>230.66666666666669</ele><time>2026-05-03T13:30:31.999Z</time></trkpt><trkpt lat="42.72711465896424" lon="12.529704415867482"><ele>231.0</ele><time>2026-05-03T13:30:32.999Z</time></trkpt><trkpt lat="42.727068259305135" lon="12.529433021623126"><ele>231.0</ele><time>2026-05-03T13:30:33.999Z</time></trkpt><trkpt lat="42.72702859209828" lon="12.5291523054986"><ele>231.0</ele><time>2026-05-03T13:30:34.999Z</time></trkpt><trkpt lat="42.726984532908276" lon="12.528875485488763"><ele>231.0</ele><time>2026-05-03T13:30:35.999Z</time></trkpt><trkpt lat="42.72694076923994" lon="12.528600190107415"><ele>228.33333333333331</ele><time>2026-05-03T13:30:36.999Z</time></trkpt><trkpt lat="42.726890812840395" lon="12.528323021533303"><ele>225.66666666666666</ele><time>2026-05-03T13:30:37.999Z</time></trkpt><trkpt lat="42.72684517778103" lon="12.528043229626121"><ele>223.0</ele><time>2026-05-03T13:30:38.999Z</time></trkpt><trkpt lat="42.726799539524734" lon="12.527754403447748"><ele>223.0</ele><time>2026-05-03T13:30:39.999Z</time></trkpt><trkpt lat="42.72675834410042" lon="12.527466903705388"><ele>223.0</ele><time>2026-05-03T13:30:40.999Z</time></trkpt><trkpt lat="42.72671009488682" lon="12.527171591772492"><ele>223.0</ele><time>2026-05-03T13:30:41.999Z</time></trkpt><trkpt lat="42.72665935550894" lon="12.526881788079535"><ele>223.33333333333331</ele><time>2026-05-03T13:30:42.999Z</time></trkpt><trkpt lat="42.72660693427964" lon="12.526586617136305"><ele>223.66666666666669</ele><time>2026-05-03T13:30:43.999Z</time></trkpt><trkpt lat="42.72655729107022" lon="12.526291598366925"><ele>224.0</ele><time>2026-05-03T13:30:44.999Z</time></trkpt><trkpt lat="42.72651086488492" lon="12.525986041324247"><ele>224.0</ele><time>2026-05-03T13:30:45.999Z</time></trkpt><trkpt lat="42.72646521073059" lon="12.525682109344332"><ele>224.0</ele><time>2026-05-03T13:30:46.999Z</time></trkpt><trkpt lat="42.72641618862381" lon="12.525377089467177"><ele>223.5</ele><time>2026-05-03T13:30:47.999Z</time></trkpt><trkpt lat="42.7263666277234" lon="12.525073775778482"><ele>223.0</ele><time>2026-05-03T13:30:48.999Z</time></trkpt><trkpt lat="42.72631929298661" lon="12.524770049979164"><ele>222.5</ele><time>2026-05-03T13:30:49.999Z</time></trkpt><trkpt lat="42.72626981154074" lon="12.52446259862652"><ele>222.0</ele><time>2026-05-03T13:30:50.999Z</time></trkpt><trkpt lat="42.726218933308196" lon="12.524157445985148"><ele>222.0</ele><time>2026-05-03T13:30:51.999Z</time></trkpt><trkpt lat="42.72617090905792" lon="12.52385132620244"><ele>222.0</ele><time>2026-05-03T13:30:52.999Z</time></trkpt><trkpt lat="42.72611722773132" lon="12.52355013450553"><ele>221.0</ele><time>2026-05-03T13:30:53.999Z</time></trkpt><trkpt lat="42.726066596589675" lon="12.52324581840247"><ele>220.0</ele><time>2026-05-03T13:30:54.999Z</time></trkpt><trkpt lat="42.72601357655989" lon="12.52294089573176"><ele>220.0</ele><time>2026-05-03T13:30:55.999Z</time></trkpt><trkpt lat="42.725965486408796" lon="12.522636103034325"><ele>220.0</ele><time>2026-05-03T13:30:56.999Z</time></trkpt><trkpt lat="42.72592052188164" lon="12.522333600613312"><ele>220.0</ele><time>2026-05-03T13:30:57.999Z</time></trkpt><trkpt lat="42.72587349887294" lon="12.522027842372411"><ele>220.0</ele><time>2026-05-03T13:30:58.999Z</time></trkpt><trkpt lat="42.72582667477913" lon="12.521723064385137"><ele>220.0</ele><time>2026-05-03T13:30:59.999Z</time></trkpt><trkpt lat="42.725776025300036" lon="12.521418310634045"><ele>220.0</ele><time>2026-05-03T13:31:00.999Z</time></trkpt><trkpt lat="42.72572679935043" lon="12.52111196244456"><ele>219.5</ele><time>2026-05-03T13:31:01.999Z</time></trkpt><trkpt lat="42.72566992384571" lon="12.520808810440036"><ele>219.0</ele><time>2026-05-03T13:31:02.999Z</time></trkpt><trkpt lat="42.72561753237208" lon="12.520499923743646"><ele>218.5</ele><time>2026-05-03T13:31:03.999Z</time></trkpt><trkpt lat="42.72555806634106" lon="12.520198522501035"><ele>218.0</ele><time>2026-05-03T13:31:04.999Z</time></trkpt><trkpt lat="42.725508297134304" lon="12.519897043292824"><ele>218.0</ele><time>2026-05-03T13:31:05.999Z</time></trkpt><trkpt lat="42.72546092006512" lon="12.519593009728863"><ele>218.0</ele><time>2026-05-03T13:31:06.999Z</time></trkpt><trkpt lat="42.72539692725041" lon="12.5192927844828"><ele>220.0</ele><time>2026-05-03T13:31:07.999Z</time></trkpt><trkpt lat="42.72532356977237" lon="12.518992549623354"><ele>222.0</ele><time>2026-05-03T13:31:08.999Z</time></trkpt><trkpt lat="42.725249083476804" lon="12.51870035582686"><ele>218.0</ele><time>2026-05-03T13:31:09.999Z</time></trkpt><trkpt lat="42.72516650161712" lon="12.518409131168172"><ele>214.0</ele><time>2026-05-03T13:31:10.999Z</time></trkpt><trkpt lat="42.72508178238001" lon="12.518120962103508"><ele>215.0</ele><time>2026-05-03T13:31:11.999Z</time></trkpt><trkpt lat="42.724991461261226" lon="12.517837432770516"><ele>216.0</ele><time>2026-05-03T13:31:12.999Z</time></trkpt><trkpt lat="42.72490054998004" lon="12.517553912704185"><ele>216.0</ele><time>2026-05-03T13:31:13.999Z</time></trkpt><trkpt lat="42.72480285060022" lon="12.517276577462601"><ele>216.0</ele><time>2026-05-03T13:31:14.999Z</time></trkpt><trkpt lat="42.72470160923704" lon="12.517004600356733"><ele>217.33333333333331</ele><time>2026-05-03T13:31:15.999Z</time></trkpt><trkpt lat="42.72459973031991" lon="12.516731448738476"><ele>218.66666666666666</ele><time>2026-05-03T13:31:16.999Z</time></trkpt><trkpt lat="42.72449545389224" lon="12.516462473757727"><ele>220.0</ele><time>2026-05-03T13:31:17.999Z</time></trkpt><trkpt lat="42.72438993316475" lon="12.516193851731439"><ele>216.0</ele><time>2026-05-03T13:31:18.999Z</time></trkpt><trkpt lat="42.72428464899986" lon="12.51592177401487"><ele>212.0</ele><time>2026-05-03T13:31:19.999Z</time></trkpt><trkpt lat="42.724178126671426" lon="12.515646569782664"><ele>213.0</ele><time>2026-05-03T13:31:20.999Z</time></trkpt><trkpt lat="42.72407344900077" lon="12.515369296133"><ele>214.0</ele><time>2026-05-03T13:31:21.999Z</time></trkpt><trkpt lat="42.723966660565516" lon="12.515097564315539"><ele>214.0</ele><time>2026-05-03T13:31:22.999Z</time></trkpt><trkpt lat="42.72386308789639" lon="12.514824901340363"><ele>214.0</ele><time>2026-05-03T13:31:23.999Z</time></trkpt><trkpt lat="42.723762332376296" lon="12.51455043985642"><ele>214.33333333333331</ele><time>2026-05-03T13:31:24.999Z</time></trkpt><trkpt lat="42.723664011952785" lon="12.514274794422047"><ele>214.66666666666669</ele><time>2026-05-03T13:31:25.999Z</time></trkpt><trkpt lat="42.723567703572634" lon="12.514004054635466"><ele>215.0</ele><time>2026-05-03T13:31:26.999Z</time></trkpt><trkpt lat="42.723466246351954" lon="12.513728866105069"><ele>212.5</ele><time>2026-05-03T13:31:28Z</time></trkpt><trkpt lat="42.7233664584795" lon="12.513453554500204"><ele>210.0</ele><time>2026-05-03T13:31:29Z</time></trkpt><trkpt lat="42.723276237369845" lon="12.513171418724781"><ele>210.0</ele><time>2026-05-03T13:31:30Z</time></trkpt><trkpt lat="42.72319345489692" lon="12.512882178323013"><ele>210.0</ele><time>2026-05-03T13:31:31Z</time></trkpt><trkpt lat="42.72311559245127" lon="12.512591463037621"><ele>210.0</ele><time>2026-05-03T13:31:32Z</time></trkpt><trkpt lat="42.72304339953475" lon="12.51230815315835"><ele>210.0</ele><time>2026-05-03T13:31:33Z</time></trkpt><trkpt lat="42.72297874463809" lon="12.512009392306746"><ele>210.0</ele><time>2026-05-03T13:31:34Z</time></trkpt><trkpt lat="42.7229177054095" lon="12.511716362559254"><ele>210.0</ele><time>2026-05-03T13:31:35Z</time></trkpt><trkpt lat="42.72285086296099" lon="12.51142346143716"><ele>210.0</ele><time>2026-05-03T13:31:36Z</time></trkpt><trkpt lat="42.72278706139804" lon="12.5111277656621"><ele>209.66666666666669</ele><time>2026-05-03T13:31:37Z</time></trkpt><trkpt lat="42.72272125715815" lon="12.510836974659542"><ele>209.33333333333334</ele><time>2026-05-03T13:31:38Z</time></trkpt><trkpt lat="42.72265936642111" lon="12.510542827652793"><ele>209.0</ele><time>2026-05-03T13:31:39Z</time></trkpt><trkpt lat="42.72259621643403" lon="12.510247071293168"><ele>209.0</ele><time>2026-05-03T13:31:40Z</time></trkpt><trkpt lat="42.72252286715359" lon="12.509947496998628"><ele>209.0</ele><time>2026-05-03T13:31:41Z</time></trkpt><trkpt lat="42.72247333029328" lon="12.509654002806101"><ele>209.0</ele><time>2026-05-03T13:31:42Z</time></trkpt><trkpt lat="42.722413586373825" lon="12.5093579676134"><ele>209.0</ele><time>2026-05-03T13:31:43Z</time></trkpt><trkpt lat="42.72234767092855" lon="12.509066658926773"><ele>209.0</ele><time>2026-05-03T13:31:44Z</time></trkpt><trkpt lat="42.72228220667022" lon="12.508775474801844"><ele>209.5</ele><time>2026-05-03T13:31:45Z</time></trkpt><trkpt lat="42.72221534421811" lon="12.508481813911844"><ele>210.0</ele><time>2026-05-03T13:31:46Z</time></trkpt><trkpt lat="42.7221502672311" lon="12.508188863167495"><ele>210.33333333333331</ele><time>2026-05-03T13:31:47Z</time></trkpt><trkpt lat="42.72208595567064" lon="12.507897223233934"><ele>210.66666666666666</ele><time>2026-05-03T13:31:48Z</time></trkpt><trkpt lat="42.72202173150253" lon="12.507607139630279"><ele>211.0</ele><time>2026-05-03T13:31:49Z</time></trkpt><trkpt lat="42.7219575680318" lon="12.507312817017056"><ele>208.5</ele><time>2026-05-03T13:31:50Z</time></trkpt><trkpt lat="42.72189731990286" lon="12.50701421551313"><ele>206.0</ele><time>2026-05-03T13:31:51Z</time></trkpt><trkpt lat="42.72183710619966" lon="12.506719271742169"><ele>206.0</ele><time>2026-05-03T13:31:52Z</time></trkpt><trkpt lat="42.72178137706523" lon="12.506422407576801"><ele>206.0</ele><time>2026-05-03T13:31:53Z</time></trkpt><trkpt lat="42.7217277939097" lon="12.506123374996044"><ele>206.0</ele><time>2026-05-03T13:31:54Z</time></trkpt><trkpt lat="42.72167696331852" lon="12.505827000694"><ele>206.0</ele><time>2026-05-03T13:31:55Z</time></trkpt><trkpt lat="42.72163484153904" lon="12.505524666084744"><ele>206.0</ele><time>2026-05-03T13:31:56Z</time></trkpt><trkpt lat="42.72159850197615" lon="12.505227522933305"><ele>206.0</ele><time>2026-05-03T13:31:57Z</time></trkpt><trkpt lat="42.72156504162979" lon="12.504922769098297"><ele>206.0</ele><time>2026-05-03T13:31:58Z</time></trkpt><trkpt lat="42.72152892750424" lon="12.504616842128161"><ele>206.5</ele><time>2026-05-03T13:31:59Z</time></trkpt><trkpt lat="42.7215029661165" lon="12.504311588602247"><ele>207.0</ele><time>2026-05-03T13:32:00Z</time></trkpt><trkpt lat="42.72148696616066" lon="12.504006453169794"><ele>206.5</ele><time>2026-05-03T13:32:01Z</time></trkpt><trkpt lat="42.72147835929449" lon="12.503699590007434"><ele>206.0</ele><time>2026-05-03T13:32:02Z</time></trkpt><trkpt lat="42.721472111531405" lon="12.503390663464545"><ele>206.0</ele><time>2026-05-03T13:32:03Z</time></trkpt><trkpt lat="42.721467011985744" lon="12.503081502647547"><ele>206.0</ele><time>2026-05-03T13:32:04Z</time></trkpt><trkpt lat="42.72147017309157" lon="12.502775881543409"><ele>206.0</ele><time>2026-05-03T13:32:05Z</time></trkpt><trkpt lat="42.721474879214135" lon="12.50247401046879"><ele>206.0</ele><time>2026-05-03T13:32:06Z</time></trkpt><trkpt lat="42.72147966207617" lon="12.502169902344553"><ele>206.0</ele><time>2026-05-03T13:32:07Z</time></trkpt><trkpt lat="42.72149617676436" lon="12.501867518293464"><ele>206.0</ele><time>2026-05-03T13:32:08Z</time></trkpt><trkpt lat="42.72151086991323" lon="12.501562622746007"><ele>206.0</ele><time>2026-05-03T13:32:09Z</time></trkpt><trkpt lat="42.72153575208792" lon="12.501261803369665"><ele>206.0</ele><time>2026-05-03T13:32:10Z</time></trkpt><trkpt lat="42.72155585655239" lon="12.500985577532903"><ele>206.0</ele><time>2026-05-03T13:32:11Z</time></trkpt><trkpt lat="42.72158505746327" lon="12.500740200146986"><ele>206.0</ele><time>2026-05-03T13:32:12Z</time></trkpt><trkpt lat="42.72161695265219" lon="12.500531048855075"><ele>206.0</ele><time>2026-05-03T13:32:13Z</time></trkpt><trkpt lat="42.72164184886599" lon="12.500340347997415"><ele>205.8</ele><time>2026-05-03T13:32:14Z</time></trkpt><trkpt lat="42.72166536216574" lon="12.500182012377996"><ele>205.60000000000002</ele><time>2026-05-03T13:32:15Z</time></trkpt><trkpt lat="42.72169187480843" lon="12.500058352842762"><ele>205.4</ele><time>2026-05-03T13:32:16Z</time></trkpt><trkpt lat="42.72172009589429" lon="12.499971105407853"><ele>205.2</ele><time>2026-05-03T13:32:17Z</time></trkpt><trkpt lat="42.72173672114548" lon="12.499838653590093"><ele>205.0</ele><time>2026-05-03T13:32:19Z</time></trkpt><trkpt lat="42.721709937777355" lon="12.499743502113335"><ele>204.99999999999997</ele><time>2026-05-03T13:32:22Z</time></trkpt><trkpt lat="42.721724371241415" lon="12.499605235435181"><ele>205.0</ele><time>2026-05-03T13:33:09.999Z</time></trkpt><trkpt lat="42.72171455363753" lon="12.499440437666408"><ele>205.0</ele><time>2026-05-03T13:33:11.999Z</time></trkpt><trkpt lat="42.72171917888878" lon="12.499348471121982"><ele>205.0</ele><time>2026-05-03T13:33:12.999Z</time></trkpt><trkpt lat="42.721719824859775" lon="12.499248185781756"><ele>204.99999999999997</ele><time>2026-05-03T13:33:13.999Z</time></trkpt><trkpt lat="42.72172088888537" lon="12.499135927436388"><ele>205.0</ele><time>2026-05-03T13:33:14.999Z</time></trkpt><trkpt lat="42.72172619517419" lon="12.499016904635354"><ele>204.99999999999997</ele><time>2026-05-03T13:33:15.999Z</time></trkpt><trkpt lat="42.72173579029343" lon="12.498900060844496"><ele>205.0</ele><time>2026-05-03T13:33:16.999Z</time></trkpt><trkpt lat="42.721746758819855" lon="12.498790516386116"><ele>205.0</ele><time>2026-05-03T13:33:17.999Z</time></trkpt><trkpt lat="42.7217563566886" lon="12.498695289937165"><ele>205.0</ele><time>2026-05-03T13:33:18.999Z</time></trkpt><trkpt lat="42.72176210490191" lon="12.498598546969964"><ele>204.99999999999997</ele><time>2026-05-03T13:33:19.999Z</time></trkpt><trkpt lat="42.72175997262768" lon="12.498498411424706"><ele>205.0</ele><time>2026-05-03T13:33:20.999Z</time></trkpt><trkpt lat="42.72175967072826" lon="12.498378245600858"><ele>205.0</ele><time>2026-05-03T13:33:21.999Z</time></trkpt><trkpt lat="42.72176968926327" lon="12.498239558353225"><ele>205.0</ele><time>2026-05-03T13:33:22.999Z</time></trkpt><trkpt lat="42.721790807438005" lon="12.498085763996801"><ele>205.0</ele><time>2026-05-03T13:33:23.999Z</time></trkpt><trkpt lat="42.72181341774748" lon="12.497923852824314"><ele>205.0</ele><time>2026-05-03T13:33:24.999Z</time></trkpt><trkpt lat="42.7218204990672" lon="12.497748875533773"><ele>204.75</ele><time>2026-05-03T13:33:25.999Z</time></trkpt><trkpt lat="42.721822176226915" lon="12.497581055689244"><ele>204.5</ele><time>2026-05-03T13:33:26.999Z</time></trkpt><trkpt lat="42.721837097062064" lon="12.497387369426288"><ele>204.25</ele><time>2026-05-03T13:33:27.999Z</time></trkpt><trkpt lat="42.72185239244937" lon="12.497180784015328"><ele>204.0</ele><time>2026-05-03T13:33:28.999Z</time></trkpt><trkpt lat="42.721867555266186" lon="12.496962074413915"><ele>204.0</ele><time>2026-05-03T13:33:29.999Z</time></trkpt><trkpt lat="42.721881467486675" lon="12.4967267662203"><ele>204.0</ele><time>2026-05-03T13:33:30.999Z</time></trkpt><trkpt lat="42.72189852445484" lon="12.496473605207049"><ele>204.0</ele><time>2026-05-03T13:33:31.999Z</time></trkpt><trkpt lat="42.72191528821914" lon="12.496230445666349"><ele>202.33333333333331</ele><time>2026-05-03T13:33:32.999Z</time></trkpt><trkpt lat="42.72193152388017" lon="12.49597971210733"><ele>200.66666666666666</ele><time>2026-05-03T13:33:34Z</time></trkpt><trkpt lat="42.72195070038467" lon="12.495708449165214"><ele>199.0</ele><time>2026-05-03T13:33:35Z</time></trkpt><trkpt lat="42.721974093322856" lon="12.495421509963995"><ele>199.33333333333331</ele><time>2026-05-03T13:33:36Z</time></trkpt><trkpt lat="42.72199776906138" lon="12.495125200691183"><ele>199.66666666666669</ele><time>2026-05-03T13:33:37Z</time></trkpt><trkpt lat="42.72201997314378" lon="12.494840176799842"><ele>200.0</ele><time>2026-05-03T13:33:38Z</time></trkpt><trkpt lat="42.72204169003349" lon="12.494549976603215"><ele>200.0</ele><time>2026-05-03T13:33:39Z</time></trkpt><trkpt lat="42.722063593033454" lon="12.494253362870621"><ele>200.0</ele><time>2026-05-03T13:33:40Z</time></trkpt><trkpt lat="42.722086646583264" lon="12.493952226858893"><ele>200.0</ele><time>2026-05-03T13:33:41Z</time></trkpt><trkpt lat="42.72210675049958" lon="12.493647226245855"><ele>200.5</ele><time>2026-05-03T13:33:42Z</time></trkpt><trkpt lat="42.722128590167635" lon="12.493336093288665"><ele>201.0</ele><time>2026-05-03T13:33:43Z</time></trkpt><trkpt lat="42.72214511514339" lon="12.493012647767122"><ele>200.5</ele><time>2026-05-03T13:33:44Z</time></trkpt><trkpt lat="42.72216073634438" lon="12.492685780575272"><ele>200.0</ele><time>2026-05-03T13:33:45Z</time></trkpt><trkpt lat="42.72217296788576" lon="12.49236101044064"><ele>199.5</ele><time>2026-05-03T13:33:46Z</time></trkpt><trkpt lat="42.722228801047265" lon="12.492065439618779"><ele>199.0</ele><time>2026-05-03T13:33:47Z</time></trkpt><trkpt lat="42.722255044916835" lon="12.491742854964054"><ele>199.0</ele><time>2026-05-03T13:33:48Z</time></trkpt><trkpt lat="42.72227717836129" lon="12.491418627289267"><ele>199.0</ele><time>2026-05-03T13:33:49Z</time></trkpt><trkpt lat="42.72229907769375" lon="12.491093687517054"><ele>200.0</ele><time>2026-05-03T13:33:50Z</time></trkpt><trkpt lat="42.722323110115745" lon="12.490771378219636"><ele>201.0</ele><time>2026-05-03T13:33:51Z</time></trkpt><trkpt lat="42.72234475213934" lon="12.490449356604918"><ele>201.0</ele><time>2026-05-03T13:33:52Z</time></trkpt><trkpt lat="42.72236993682904" lon="12.490130169314762"><ele>201.0</ele><time>2026-05-03T13:33:53Z</time></trkpt><trkpt lat="42.72239596127286" lon="12.489812921149781"><ele>201.0</ele><time>2026-05-03T13:33:54Z</time></trkpt><trkpt lat="42.72242011192032" lon="12.489492520960122"><ele>201.0</ele><time>2026-05-03T13:33:55Z</time></trkpt><trkpt lat="42.72244581229982" lon="12.4891745591469"><ele>201.0</ele><time>2026-05-03T13:33:56Z</time></trkpt><trkpt lat="42.72246681526582" lon="12.488847899483105"><ele>201.0</ele><time>2026-05-03T13:33:57Z</time></trkpt><trkpt lat="42.72248913486259" lon="12.488519197542283"><ele>201.0</ele><time>2026-05-03T13:33:58Z</time></trkpt><trkpt lat="42.72250977797295" lon="12.488187614310986"><ele>201.0</ele><time>2026-05-03T13:33:59Z</time></trkpt><trkpt lat="42.72253672963715" lon="12.487847908936985"><ele>201.0</ele><time>2026-05-03T13:34:00Z</time></trkpt><trkpt lat="42.7225617264297" lon="12.48750636204996"><ele>201.0</ele><time>2026-05-03T13:34:01Z</time></trkpt><trkpt lat="42.722590898077925" lon="12.487166081809546"><ele>201.5</ele><time>2026-05-03T13:34:02Z</time></trkpt><trkpt lat="42.72261486675191" lon="12.486822953737995"><ele>202.0</ele><time>2026-05-03T13:34:03Z</time></trkpt><trkpt lat="42.7226423601129" lon="12.486479118905569"><ele>203.0</ele><time>2026-05-03T13:34:04Z</time></trkpt><trkpt lat="42.722664925193975" lon="12.486133626333727"><ele>204.0</ele><time>2026-05-03T13:34:05Z</time></trkpt><trkpt lat="42.722693283565796" lon="12.485790501120938"><ele>204.0</ele><time>2026-05-03T13:34:06Z</time></trkpt><trkpt lat="42.72272011901138" lon="12.485447272063958"><ele>204.0</ele><time>2026-05-03T13:34:07Z</time></trkpt><trkpt lat="42.72274482502326" lon="12.485103166932248"><ele>202.0</ele><time>2026-05-03T13:34:08Z</time></trkpt><trkpt lat="42.722771700557026" lon="12.48476051087337"><ele>200.0</ele><time>2026-05-03T13:34:09Z</time></trkpt><trkpt lat="42.722793985830975" lon="12.484420653940877"><ele>200.0</ele><time>2026-05-03T13:34:10Z</time></trkpt><trkpt lat="42.722819242484164" lon="12.484081758560512"><ele>200.0</ele><time>2026-05-03T13:34:11Z</time></trkpt><trkpt lat="42.72284570060759" lon="12.483739886997105"><ele>199.5</ele><time>2026-05-03T13:34:12Z</time></trkpt><trkpt lat="42.72287045047187" lon="12.48340694192367"><ele>199.0</ele><time>2026-05-03T13:34:13Z</time></trkpt><trkpt lat="42.72289445904804" lon="12.483064921500706"><ele>198.0</ele><time>2026-05-03T13:34:14Z</time></trkpt><trkpt lat="42.72292377392279" lon="12.48272532450178"><ele>197.0</ele><time>2026-05-03T13:34:15Z</time></trkpt><trkpt lat="42.72295129526897" lon="12.482392873304843"><ele>197.0</ele><time>2026-05-03T13:34:16Z</time></trkpt><trkpt lat="42.72297638695134" lon="12.482059330737007"><ele>197.0</ele><time>2026-05-03T13:34:17Z</time></trkpt><trkpt lat="42.72300143993606" lon="12.481724253745549"><ele>197.0</ele><time>2026-05-03T13:34:18Z</time></trkpt><trkpt lat="42.72302688064447" lon="12.481390230080887"><ele>197.0</ele><time>2026-05-03T13:34:19Z</time></trkpt><trkpt lat="42.72304923886148" lon="12.481058093707816"><ele>197.0</ele><time>2026-05-03T13:34:20Z</time></trkpt><trkpt lat="42.72307130807809" lon="12.480727950380206"><ele>197.0</ele><time>2026-05-03T13:34:21Z</time></trkpt><trkpt lat="42.72309482807598" lon="12.480398474144819"><ele>197.0</ele><time>2026-05-03T13:34:22Z</time></trkpt><trkpt lat="42.723125024358836" lon="12.480073229008797"><ele>197.0</ele><time>2026-05-03T13:34:23Z</time></trkpt><trkpt lat="42.72317064034694" lon="12.479752693924983"><ele>197.5</ele><time>2026-05-03T13:34:24Z</time></trkpt><trkpt lat="42.7232346870108" lon="12.479436580137282"><ele>198.0</ele><time>2026-05-03T13:34:25Z</time></trkpt><trkpt lat="42.72331037940808" lon="12.479124143150216"><ele>198.0</ele><time>2026-05-03T13:34:26Z</time></trkpt><trkpt lat="42.72339363671958" lon="12.478821648661642"><ele>198.0</ele><time>2026-05-03T13:34:27Z</time></trkpt><trkpt lat="42.723487636388555" lon="12.478524062969523"><ele>196.5</ele><time>2026-05-03T13:34:28Z</time></trkpt><trkpt lat="42.7235919422269" lon="12.47823752565993"><ele>195.0</ele><time>2026-05-03T13:34:29Z</time></trkpt><trkpt lat="42.72371315034463" lon="12.47795709271036"><ele>196.5</ele><time>2026-05-03T13:34:30Z</time></trkpt><trkpt lat="42.723844277679184" lon="12.477688025242506"><ele>198.0</ele><time>2026-05-03T13:34:31Z</time></trkpt><trkpt lat="42.723985922306255" lon="12.477432213822643"><ele>198.0</ele><time>2026-05-03T13:34:32Z</time></trkpt><trkpt lat="42.72413469108004" lon="12.477190504566785"><ele>198.0</ele><time>2026-05-03T13:34:33Z</time></trkpt><trkpt lat="42.72429184003073" lon="12.476956983451187"><ele>198.0</ele><time>2026-05-03T13:34:34Z</time></trkpt><trkpt lat="42.72445833871437" lon="12.476736591983116"><ele>198.0</ele><time>2026-05-03T13:34:35Z</time></trkpt><trkpt lat="42.724631758762605" lon="12.476526926364338"><ele>198.0</ele><time>2026-05-03T13:34:36Z</time></trkpt><trkpt lat="42.72481163992479" lon="12.476322466065145"><ele>198.0</ele><time>2026-05-03T13:34:37Z</time></trkpt><trkpt lat="42.724990322290026" lon="12.476120051513929"><ele>199.5</ele><time>2026-05-03T13:34:38Z</time></trkpt><trkpt lat="42.7251702258684" lon="12.475919366323712"><ele>201.0</ele><time>2026-05-03T13:34:39Z</time></trkpt><trkpt lat="42.72534988305867" lon="12.475719976689664"><ele>201.5</ele><time>2026-05-03T13:34:40Z</time></trkpt><trkpt lat="42.72553150810441" lon="12.475516194484376"><ele>202.0</ele><time>2026-05-03T13:34:41Z</time></trkpt><trkpt lat="42.725711955298195" lon="12.475315565680615"><ele>202.0</ele><time>2026-05-03T13:34:42Z</time></trkpt><trkpt lat="42.7258890630811" lon="12.475111639780037"><ele>202.0</ele><time>2026-05-03T13:34:43Z</time></trkpt><trkpt lat="42.72606226055828" lon="12.47491238325823"><ele>203.5</ele><time>2026-05-03T13:34:44Z</time></trkpt><trkpt lat="42.72623713408974" lon="12.474711763522887"><ele>205.0</ele><time>2026-05-03T13:34:45Z</time></trkpt><trkpt lat="42.72641151207734" lon="12.474515282999223"><ele>205.0</ele><time>2026-05-03T13:34:46Z</time></trkpt><trkpt lat="42.7265807803558" lon="12.474321148985423"><ele>205.0</ele><time>2026-05-03T13:34:47Z</time></trkpt><trkpt lat="42.72675773573739" lon="12.47412857728405"><ele>205.0</ele><time>2026-05-03T13:34:48Z</time></trkpt><trkpt lat="42.72694218146847" lon="12.473933355561527"><ele>204.0</ele><time>2026-05-03T13:34:49Z</time></trkpt><trkpt lat="42.727127636939144" lon="12.473756240231364"><ele>203.0</ele><time>2026-05-03T13:34:50Z</time></trkpt><trkpt lat="42.72732967533952" lon="12.473582267923543"><ele>203.0</ele><time>2026-05-03T13:34:51Z</time></trkpt><trkpt lat="42.727543965298565" lon="12.473423243154127"><ele>203.0</ele><time>2026-05-03T13:34:52Z</time></trkpt><trkpt lat="42.727771976060986" lon="12.47327101684352"><ele>202.5</ele><time>2026-05-03T13:34:53Z</time></trkpt><trkpt lat="42.72801926853243" lon="12.473133919991712"><ele>202.0</ele><time>2026-05-03T13:34:54Z</time></trkpt><trkpt lat="42.72827663703859" lon="12.473016561130228"><ele>203.0</ele><time>2026-05-03T13:34:55Z</time></trkpt><trkpt lat="42.7285466738727" lon="12.4729194139956"><ele>204.0</ele><time>2026-05-03T13:34:56Z</time></trkpt><trkpt lat="42.72881688068247" lon="12.472850580400898"><ele>207.5</ele><time>2026-05-03T13:34:57Z</time></trkpt><trkpt lat="42.729086119708484" lon="12.472799498868275"><ele>211.0</ele><time>2026-05-03T13:34:58Z</time></trkpt><trkpt lat="42.72934782589343" lon="12.47276796936263"><ele>212.0</ele><time>2026-05-03T13:34:58.999Z</time></trkpt><trkpt lat="42.72960391963782" lon="12.472756821195757"><ele>213.0</ele><time>2026-05-03T13:34:59.999Z</time></trkpt><trkpt lat="42.72984888077344" lon="12.472773378907599"><ele>213.0</ele><time>2026-05-03T13:35:00.999Z</time></trkpt><trkpt lat="42.73008982634893" lon="12.47280796893247"><ele>213.0</ele><time>2026-05-03T13:35:01.999Z</time></trkpt><trkpt lat="42.73033399382177" lon="12.472852756489969"><ele>213.0</ele><time>2026-05-03T13:35:02.999Z</time></trkpt><trkpt lat="42.73057870409777" lon="12.472906834218538"><ele>213.0</ele><time>2026-05-03T13:35:03.999Z</time></trkpt><trkpt lat="42.730821563877015" lon="12.472969761696707"><ele>216.0</ele><time>2026-05-03T13:35:04.999Z</time></trkpt><trkpt lat="42.731065312765885" lon="12.473033912527713"><ele>219.0</ele><time>2026-05-03T13:35:05.999Z</time></trkpt><trkpt lat="42.73131577294006" lon="12.473099006001824"><ele>219.0</ele><time>2026-05-03T13:35:06.999Z</time></trkpt><trkpt lat="42.73156086319701" lon="12.473155579078657"><ele>219.0</ele><time>2026-05-03T13:35:07.999Z</time></trkpt><trkpt lat="42.73180771593813" lon="12.473208136798952"><ele>222.0</ele><time>2026-05-03T13:35:08.999Z</time></trkpt><trkpt lat="42.73205177757917" lon="12.473262506886504"><ele>225.0</ele><time>2026-05-03T13:35:09.999Z</time></trkpt><trkpt lat="42.73229835580653" lon="12.473319915127398"><ele>225.0</ele><time>2026-05-03T13:35:10.999Z</time></trkpt><trkpt lat="42.73254423412455" lon="12.473378175924424"><ele>225.0</ele><time>2026-05-03T13:35:11.999Z</time></trkpt><trkpt lat="42.73279238276237" lon="12.473439864113654"><ele>228.5</ele><time>2026-05-03T13:35:12.999Z</time></trkpt><trkpt lat="42.73304676605679" lon="12.473500695232717"><ele>232.0</ele><time>2026-05-03T13:35:13.999Z</time></trkpt><trkpt lat="42.733297548707924" lon="12.473561302415169"><ele>232.0</ele><time>2026-05-03T13:35:14.999Z</time></trkpt><trkpt lat="42.733542128077104" lon="12.473618918792763"><ele>232.0</ele><time>2026-05-03T13:35:15.999Z</time></trkpt><trkpt lat="42.733779984665205" lon="12.473675727086691"><ele>231.0</ele><time>2026-05-03T13:35:16.999Z</time></trkpt><trkpt lat="42.73401078893164" lon="12.473730131865917"><ele>230.0</ele><time>2026-05-03T13:35:17.999Z</time></trkpt><trkpt lat="42.73423574520568" lon="12.473781745865846"><ele>232.0</ele><time>2026-05-03T13:35:18.999Z</time></trkpt><trkpt lat="42.73445918719031" lon="12.473830774344995"><ele>234.0</ele><time>2026-05-03T13:35:19.999Z</time></trkpt><trkpt lat="42.73468612401191" lon="12.473882468584074"><ele>234.0</ele><time>2026-05-03T13:35:20.999Z</time></trkpt><trkpt lat="42.73491888439383" lon="12.473930789685646"><ele>234.0</ele><time>2026-05-03T13:35:21.999Z</time></trkpt><trkpt lat="42.73515068968454" lon="12.473976602267099"><ele>236.0</ele><time>2026-05-03T13:35:22.999Z</time></trkpt><trkpt lat="42.735369307755185" lon="12.474019926151682"><ele>238.0</ele><time>2026-05-03T13:35:23.999Z</time></trkpt><trkpt lat="42.73557002986227" lon="12.47405973145409"><ele>240.0</ele><time>2026-05-03T13:35:24.999Z</time></trkpt><trkpt lat="42.735758171660954" lon="12.474090313141211"><ele>240.0</ele><time>2026-05-03T13:35:25.999Z</time></trkpt><trkpt lat="42.73594270867512" lon="12.474106613455225"><ele>240.0</ele><time>2026-05-03T13:35:26.999Z</time></trkpt><trkpt lat="42.73612546405021" lon="12.47412647324059"><ele>240.0</ele><time>2026-05-03T13:35:27.999Z</time></trkpt><trkpt lat="42.73629737050647" lon="12.474136493633624"><ele>240.0</ele><time>2026-05-03T13:35:28.999Z</time></trkpt><trkpt lat="42.73645917085807" lon="12.47413923295868"><ele>240.0</ele><time>2026-05-03T13:35:29.999Z</time></trkpt><trkpt lat="42.73661810592167" lon="12.474137104862688"><ele>240.0</ele><time>2026-05-03T13:35:30.999Z</time></trkpt><trkpt lat="42.736775785698306" lon="12.47413088021083"><ele>240.25</ele><time>2026-05-03T13:35:31.999Z</time></trkpt><trkpt lat="42.736928216557295" lon="12.474123034342758"><ele>240.5</ele><time>2026-05-03T13:35:32.999Z</time></trkpt><trkpt lat="42.73707557479638" lon="12.47411102377436"><ele>240.75</ele><time>2026-05-03T13:35:33.999Z</time></trkpt><trkpt lat="42.737216506778026" lon="12.474093112106747"><ele>241.0</ele><time>2026-05-03T13:35:34.999Z</time></trkpt><trkpt lat="42.73735533252529" lon="12.474072911129426"><ele>241.0</ele><time>2026-05-03T13:35:35.999Z</time></trkpt><trkpt lat="42.737490694734525" lon="12.474050534355902"><ele>241.0</ele><time>2026-05-03T13:35:36.999Z</time></trkpt><trkpt lat="42.737625250145506" lon="12.474030567371141"><ele>241.0</ele><time>2026-05-03T13:35:37.999Z</time></trkpt><trkpt lat="42.737755850007574" lon="12.474008849462196"><ele>241.0</ele><time>2026-05-03T13:35:38.999Z</time></trkpt><trkpt lat="42.73788046884049" lon="12.47398949768859"><ele>240.75</ele><time>2026-05-03T13:35:40Z</time></trkpt><trkpt lat="42.73800446780861" lon="12.473970516158007"><ele>240.5</ele><time>2026-05-03T13:35:41Z</time></trkpt><trkpt lat="42.7381281997762" lon="12.473953989258447"><ele>240.25</ele><time>2026-05-03T13:35:42Z</time></trkpt><trkpt lat="42.73824922604164" lon="12.473928419391205"><ele>240.0</ele><time>2026-05-03T13:35:43Z</time></trkpt><trkpt lat="42.738364866442886" lon="12.473889971341858"><ele>240.0</ele><time>2026-05-03T13:35:44Z</time></trkpt><trkpt lat="42.73847792689858" lon="12.473846401688723"><ele>240.0</ele><time>2026-05-03T13:35:45Z</time></trkpt><trkpt lat="42.73859689379135" lon="12.473816680204575"><ele>240.0</ele><time>2026-05-03T13:35:46Z</time></trkpt><trkpt lat="42.7387264428419" lon="12.47379967455426"><ele>240.0</ele><time>2026-05-03T13:35:47Z</time></trkpt><trkpt lat="42.738867355271424" lon="12.473781208566379"><ele>241.25</ele><time>2026-05-03T13:35:48Z</time></trkpt><trkpt lat="42.73901012060551" lon="12.473761373362711"><ele>242.5</ele><time>2026-05-03T13:35:49Z</time></trkpt><trkpt lat="42.73915818387554" lon="12.473739745682385"><ele>243.75</ele><time>2026-05-03T13:35:50Z</time></trkpt><trkpt lat="42.73931209170178" lon="12.473718458388372"><ele>245.0</ele><time>2026-05-03T13:35:51Z</time></trkpt><trkpt lat="42.7394700405343" lon="12.473690460353351"><ele>247.33333333333334</ele><time>2026-05-03T13:35:52Z</time></trkpt><trkpt lat="42.739632081261504" lon="12.473664181773088"><ele>249.66666666666669</ele><time>2026-05-03T13:35:53Z</time></trkpt><trkpt lat="42.73979506935833" lon="12.47363576788874"><ele>252.0</ele><time>2026-05-03T13:35:54Z</time></trkpt><trkpt lat="42.73996189184151" lon="12.473601306567417"><ele>252.0</ele><time>2026-05-03T13:35:55Z</time></trkpt><trkpt lat="42.74012690238777" lon="12.473587051052107"><ele>252.0</ele><time>2026-05-03T13:35:56Z</time></trkpt><trkpt lat="42.74029569809493" lon="12.47355845091329"><ele>252.0</ele><time>2026-05-03T13:35:57Z</time></trkpt><trkpt lat="42.74046412264715" lon="12.473527041039766"><ele>255.0</ele><time>2026-05-03T13:35:58Z</time></trkpt><trkpt lat="42.74063740047596" lon="12.473491683428179"><ele>258.0</ele><time>2026-05-03T13:35:59Z</time></trkpt><trkpt lat="42.74080487646611" lon="12.47345016504616"><ele>261.0</ele><time>2026-05-03T13:36:00Z</time></trkpt><trkpt lat="42.74098532846957" lon="12.473396135042737"><ele>266.3333333333333</ele><time>2026-05-03T13:36:01Z</time></trkpt><trkpt lat="42.741168186862225" lon="12.47332989967948"><ele>271.66666666666663</ele><time>2026-05-03T13:36:02Z</time></trkpt><trkpt lat="42.74134664226391" lon="12.473261723867363"><ele>277.0</ele><time>2026-05-03T13:36:03Z</time></trkpt><trkpt lat="42.741510741707856" lon="12.473198989298977"><ele>277.0</ele><time>2026-05-03T13:36:04Z</time></trkpt><trkpt lat="42.74168610059917" lon="12.473130384575843"><ele>277.0</ele><time>2026-05-03T13:36:05Z</time></trkpt><trkpt lat="42.74185719901115" lon="12.473063166713736"><ele>277.0</ele><time>2026-05-03T13:36:06Z</time></trkpt><trkpt lat="42.742031428544806" lon="12.472994718771039"><ele>283.0</ele><time>2026-05-03T13:36:07Z</time></trkpt><trkpt lat="42.74220793688846" lon="12.472925375537383"><ele>289.0</ele><time>2026-05-03T13:36:08Z</time></trkpt><trkpt lat="42.74240151364401" lon="12.472849326826589"><ele>295.0</ele><time>2026-05-03T13:36:09.069Z</time></trkpt><trkpt lat="42.74258417198362" lon="12.472778010014627"><ele>298.0</ele><time>2026-05-03T13:36:10.068Z</time></trkpt><trkpt lat="42.74276417037641" lon="12.47270814381435"><ele>301.0</ele><time>2026-05-03T13:36:11.059Z</time></trkpt><trkpt lat="42.742938350259564" lon="12.472640536095863"><ele>304.0</ele><time>2026-05-03T13:36:12.042Z</time></trkpt><trkpt lat="42.74490574227713" lon="12.471970156234347"><ele>291.0</ele><time>2026-05-03T13:36:15.456Z</time></trkpt><trkpt lat="42.745682195816585" lon="12.471664446140023"><ele>265.0</ele><time>2026-05-03T13:36:16.454Z</time></trkpt><trkpt lat="42.7464627515141" lon="12.471361770898994"><ele>246.0</ele><time>2026-05-03T13:36:17.456Z</time></trkpt><trkpt lat="42.74712329239866" lon="12.470772371388565"><ele>246.0</ele><time>2026-05-03T13:36:36Z</time></trkpt><trkpt lat="42.747315377056665" lon="12.470652633428754"><ele>246.0</ele><time>2026-05-03T13:36:37Z</time></trkpt><trkpt lat="42.747519278933325" lon="12.470592249711574"><ele>246.0</ele><time>2026-05-03T13:36:38Z</time></trkpt><trkpt lat="42.74766560706409" lon="12.470439956204503"><ele>244.0</ele><time>2026-05-03T13:36:39Z</time></trkpt><trkpt lat="42.747799071120596" lon="12.470280675108373"><ele>242.0</ele><time>2026-05-03T13:36:40Z</time></trkpt><trkpt lat="42.747929949078866" lon="12.47011620054065"><ele>240.0</ele><time>2026-05-03T13:36:41Z</time></trkpt><trkpt lat="42.748039936781154" lon="12.469946796907585"><ele>240.0</ele><time>2026-05-03T13:36:42Z</time></trkpt><trkpt lat="42.74815996575273" lon="12.469805101598352"><ele>240.0</ele><time>2026-05-03T13:36:43Z</time></trkpt><trkpt lat="42.74828938953702" lon="12.469658892783915"><ele>240.0</ele><time>2026-05-03T13:36:44Z</time></trkpt><trkpt lat="42.748426132958826" lon="12.469520027823195"><ele>239.0</ele><time>2026-05-03T13:36:45Z</time></trkpt><trkpt lat="42.74856790752717" lon="12.46939022302954"><ele>238.0</ele><time>2026-05-03T13:36:46Z</time></trkpt><trkpt lat="42.74871230343558" lon="12.469242293272876"><ele>237.0</ele><time>2026-05-03T13:36:47Z</time></trkpt><trkpt lat="42.74884597189765" lon="12.469079629690961"><ele>237.0</ele><time>2026-05-03T13:36:48Z</time></trkpt><trkpt lat="42.7489852083412" lon="12.468900293219669"><ele>237.0</ele><time>2026-05-03T13:36:49Z</time></trkpt><trkpt lat="42.7491271280928" lon="12.468721898537561"><ele>237.0</ele><time>2026-05-03T13:36:50Z</time></trkpt><trkpt lat="42.749274152801654" lon="12.468544077337594"><ele>236.33333333333331</ele><time>2026-05-03T13:36:51Z</time></trkpt><trkpt lat="42.749425810992285" lon="12.468359196746261"><ele>235.66666666666666</ele><time>2026-05-03T13:36:52Z</time></trkpt><trkpt lat="42.749578745129284" lon="12.46817371185813"><ele>235.0</ele><time>2026-05-03T13:36:53Z</time></trkpt><trkpt lat="42.74973585776987" lon="12.467988279175938"><ele>235.0</ele><time>2026-05-03T13:36:54Z</time></trkpt><trkpt lat="42.74988958391575" lon="12.467800882180173"><ele>235.0</ele><time>2026-05-03T13:36:55Z</time></trkpt><trkpt lat="42.75004503670566" lon="12.46759895308951"><ele>235.0</ele><time>2026-05-03T13:36:56Z</time></trkpt><trkpt lat="42.75019750742485" lon="12.46739590657037"><ele>234.33333333333331</ele><time>2026-05-03T13:36:57Z</time></trkpt><trkpt lat="42.75036251117415" lon="12.467186382421422"><ele>233.66666666666669</ele><time>2026-05-03T13:36:58Z</time></trkpt><trkpt lat="42.75051252821607" lon="12.466962357758923"><ele>233.0</ele><time>2026-05-03T13:36:59Z</time></trkpt><trkpt lat="42.75073051133565" lon="12.466864191445717"><ele>232.33333333333334</ele><time>2026-05-03T13:37:00Z</time></trkpt><trkpt lat="42.75089910528645" lon="12.466677672865526"><ele>231.66666666666669</ele><time>2026-05-03T13:37:01Z</time></trkpt><trkpt lat="42.75106544175564" lon="12.466486240193627"><ele>231.0</ele><time>2026-05-03T13:37:02Z</time></trkpt><trkpt lat="42.75123275107979" lon="12.46629467003765"><ele>230.0</ele><time>2026-05-03T13:37:03Z</time></trkpt><trkpt lat="42.751405560327015" lon="12.466101529760527"><ele>229.0</ele><time>2026-05-03T13:37:03.999Z</time></trkpt><trkpt lat="42.75157823598841" lon="12.465910009759856"><ele>228.0</ele><time>2026-05-03T13:37:04.999Z</time></trkpt><trkpt lat="42.7517533579903" lon="12.465718698027022"><ele>227.0</ele><time>2026-05-03T13:37:05.999Z</time></trkpt><trkpt lat="42.75192346100258" lon="12.46552632722834"><ele>226.0</ele><time>2026-05-03T13:37:06.999Z</time></trkpt><trkpt lat="42.75209257745575" lon="12.465334034389643"><ele>225.0</ele><time>2026-05-03T13:37:07.999Z</time></trkpt><trkpt lat="42.752265303668096" lon="12.465135679720309"><ele>225.0</ele><time>2026-05-03T13:37:08.999Z</time></trkpt><trkpt lat="42.75243644330291" lon="12.46494157345371"><ele>225.0</ele><time>2026-05-03T13:37:09.999Z</time></trkpt><trkpt lat="42.752609222535" lon="12.46474882205062"><ele>225.0</ele><time>2026-05-03T13:37:10.999Z</time></trkpt><trkpt lat="42.752780042505044" lon="12.464557245597142"><ele>224.0</ele><time>2026-05-03T13:37:11.999Z</time></trkpt><trkpt lat="42.75295750087824" lon="12.464364376251407"><ele>223.0</ele><time>2026-05-03T13:37:12.999Z</time></trkpt><trkpt lat="42.753128012122446" lon="12.46417235846472"><ele>222.0</ele><time>2026-05-03T13:37:13.999Z</time></trkpt><trkpt lat="42.75329723007018" lon="12.463977977192288"><ele>222.0</ele><time>2026-05-03T13:37:14.999Z</time></trkpt><trkpt lat="42.753467571001835" lon="12.463786623009883"><ele>222.0</ele><time>2026-05-03T13:37:15.999Z</time></trkpt><trkpt lat="42.75363596334452" lon="12.46359169689745"><ele>222.0</ele><time>2026-05-03T13:37:16.999Z</time></trkpt><trkpt lat="42.75380720322637" lon="12.46339842211276"><ele>219.66666666666669</ele><time>2026-05-03T13:37:17.999Z</time></trkpt><trkpt lat="42.75397733363439" lon="12.463206277649304"><ele>217.33333333333334</ele><time>2026-05-03T13:37:18.999Z</time></trkpt><trkpt lat="42.75414850670547" lon="12.463017942397663"><ele>215.0</ele><time>2026-05-03T13:37:19.999Z</time></trkpt><trkpt lat="42.754318204651604" lon="12.462828810899287"><ele>214.66666666666669</ele><time>2026-05-03T13:37:20.999Z</time></trkpt><trkpt lat="42.75449078933444" lon="12.462631897568246"><ele>214.33333333333331</ele><time>2026-05-03T13:37:21.999Z</time></trkpt><trkpt lat="42.7546624979218" lon="12.462439377842768"><ele>214.0</ele><time>2026-05-03T13:37:22.999Z</time></trkpt><trkpt lat="42.754831813423586" lon="12.462247664198774"><ele>213.33333333333331</ele><time>2026-05-03T13:37:23.999Z</time></trkpt><trkpt lat="42.75500361376128" lon="12.462053795234489"><ele>212.66666666666669</ele><time>2026-05-03T13:37:24.999Z</time></trkpt><trkpt lat="42.75517339712598" lon="12.461858364762831"><ele>212.0</ele><time>2026-05-03T13:37:25.999Z</time></trkpt><trkpt lat="42.75534668429063" lon="12.461665264053932"><ele>212.33333333333334</ele><time>2026-05-03T13:37:26.999Z</time></trkpt><trkpt lat="42.75551367610125" lon="12.46147610113111"><ele>212.66666666666669</ele><time>2026-05-03T13:37:27.999Z</time></trkpt><trkpt lat="42.75568353711959" lon="12.461290362964698"><ele>213.0</ele><time>2026-05-03T13:37:28.999Z</time></trkpt><trkpt lat="42.75585616263169" lon="12.461098334236397"><ele>213.0</ele><time>2026-05-03T13:37:29.999Z</time></trkpt><trkpt lat="42.75602502812723" lon="12.460903809545053"><ele>213.0</ele><time>2026-05-03T13:37:30.999Z</time></trkpt><trkpt lat="42.75619458202881" lon="12.460707769834798"><ele>213.0</ele><time>2026-05-03T13:37:31.999Z</time></trkpt><trkpt lat="42.7563651899156" lon="12.460514959946183"><ele>212.33333333333331</ele><time>2026-05-03T13:37:32.999Z</time></trkpt><trkpt lat="42.756536422548514" lon="12.460318257291178"><ele>211.66666666666666</ele><time>2026-05-03T13:37:33.999Z</time></trkpt><trkpt lat="42.756703544094805" lon="12.460119751032797"><ele>211.0</ele><time>2026-05-03T13:37:34.999Z</time></trkpt><trkpt lat="42.75687618256707" lon="12.459923249363046"><ele>211.0</ele><time>2026-05-03T13:37:35.999Z</time></trkpt><trkpt lat="42.75704815673675" lon="12.45973087927667"><ele>211.0</ele><time>2026-05-03T13:37:36.999Z</time></trkpt><trkpt lat="42.75722330167155" lon="12.459532128871453"><ele>211.0</ele><time>2026-05-03T13:37:37.999Z</time></trkpt><trkpt lat="42.757396150893705" lon="12.459332560973923"><ele>211.0</ele><time>2026-05-03T13:37:38.999Z</time></trkpt><trkpt lat="42.75756534705771" lon="12.459135216488537"><ele>211.0</ele><time>2026-05-03T13:37:39.999Z</time></trkpt><trkpt lat="42.757736744601026" lon="12.458930509065802"><ele>211.0</ele><time>2026-05-03T13:37:40.999Z</time></trkpt><trkpt lat="42.757903019214275" lon="12.458722719720472"><ele>211.0</ele><time>2026-05-03T13:37:41.999Z</time></trkpt><trkpt lat="42.75807020964101" lon="12.458521014451792"><ele>211.0</ele><time>2026-05-03T13:37:42.999Z</time></trkpt><trkpt lat="42.75824482072058" lon="12.458320211537401"><ele>211.0</ele><time>2026-05-03T13:37:43.999Z</time></trkpt><trkpt lat="42.758421814494014" lon="12.45812582877212"><ele>211.0</ele><time>2026-05-03T13:37:44.999Z</time></trkpt><trkpt lat="42.75859593203276" lon="12.457925447541866"><ele>209.0</ele><time>2026-05-03T13:37:46Z</time></trkpt><trkpt lat="42.758776388600836" lon="12.457736288157355"><ele>207.0</ele><time>2026-05-03T13:37:47Z</time></trkpt><trkpt lat="42.75896492986649" lon="12.457565168428735"><ele>207.0</ele><time>2026-05-03T13:37:48Z</time></trkpt><trkpt lat="42.759155432887255" lon="12.457405226286527"><ele>207.0</ele><time>2026-05-03T13:37:49Z</time></trkpt><trkpt lat="42.75934760662927" lon="12.457243462958402"><ele>205.66666666666669</ele><time>2026-05-03T13:37:50Z</time></trkpt><trkpt lat="42.759541445866326" lon="12.457096846619013"><ele>204.33333333333334</ele><time>2026-05-03T13:37:51Z</time></trkpt><trkpt lat="42.75973992717331" lon="12.456948383262128"><ele>203.0</ele><time>2026-05-03T13:37:52Z</time></trkpt><trkpt lat="42.759939527671975" lon="12.456808328055605"><ele>203.0</ele><time>2026-05-03T13:37:53Z</time></trkpt><trkpt lat="42.76013953558539" lon="12.456658362852925"><ele>203.0</ele><time>2026-05-03T13:37:54Z</time></trkpt><trkpt lat="42.76033691161141" lon="12.456511373146993"><ele>203.5</ele><time>2026-05-03T13:37:55Z</time></trkpt><trkpt lat="42.76053609235333" lon="12.456356259157847"><ele>204.0</ele><time>2026-05-03T13:37:56Z</time></trkpt><trkpt lat="42.76073279247935" lon="12.45621089994637"><ele>203.0</ele><time>2026-05-03T13:37:57Z</time></trkpt><trkpt lat="42.760930672812734" lon="12.456068272931358"><ele>202.0</ele><time>2026-05-03T13:37:58Z</time></trkpt><trkpt lat="42.761130243150326" lon="12.455924803213575"><ele>202.0</ele><time>2026-05-03T13:37:59Z</time></trkpt><trkpt lat="42.76132579665069" lon="12.45577284020577"><ele>202.0</ele><time>2026-05-03T13:38:00Z</time></trkpt><trkpt lat="42.76152085039121" lon="12.455622606101045"><ele>202.0</ele><time>2026-05-03T13:38:01Z</time></trkpt><trkpt lat="42.76171893932099" lon="12.455478130010432"><ele>203.0</ele><time>2026-05-03T13:38:02Z</time></trkpt><trkpt lat="42.761916455082016" lon="12.455327056233426"><ele>204.0</ele><time>2026-05-03T13:38:03Z</time></trkpt><trkpt lat="42.76211266390118" lon="12.45517967202832"><ele>204.0</ele><time>2026-05-03T13:38:04Z</time></trkpt><trkpt lat="42.762309860115096" lon="12.45503268130837"><ele>204.0</ele><time>2026-05-03T13:38:05Z</time></trkpt><trkpt lat="42.762507452166965" lon="12.454885740854067"><ele>202.33333333333331</ele><time>2026-05-03T13:38:06Z</time></trkpt><trkpt lat="42.76270563947098" lon="12.454742443312629"><ele>200.66666666666666</ele><time>2026-05-03T13:38:07Z</time></trkpt><trkpt lat="42.76289974670966" lon="12.454596536689374"><ele>199.0</ele><time>2026-05-03T13:38:08Z</time></trkpt><trkpt lat="42.76309616648832" lon="12.454449555409548"><ele>199.0</ele><time>2026-05-03T13:38:09Z</time></trkpt><trkpt lat="42.76329077624758" lon="12.454302051945938"><ele>199.0</ele><time>2026-05-03T13:38:10Z</time></trkpt><trkpt lat="42.763486771613636" lon="12.454158985612901"><ele>199.0</ele><time>2026-05-03T13:38:11Z</time></trkpt><trkpt lat="42.76367810925533" lon="12.454016151262376"><ele>198.33333333333331</ele><time>2026-05-03T13:38:12Z</time></trkpt><trkpt lat="42.763868301910875" lon="12.453873680836779"><ele>197.66666666666669</ele><time>2026-05-03T13:38:13Z</time></trkpt><trkpt lat="42.76405753747914" lon="12.453730303796888"><ele>197.0</ele><time>2026-05-03T13:38:14Z</time></trkpt><trkpt lat="42.76424940273947" lon="12.453581319413582"><ele>196.66666666666669</ele><time>2026-05-03T13:38:15Z</time></trkpt><trkpt lat="42.76444160540951" lon="12.453440816185509"><ele>196.33333333333331</ele><time>2026-05-03T13:38:16Z</time></trkpt><trkpt lat="42.764631564378135" lon="12.453305055026092"><ele>196.0</ele><time>2026-05-03T13:38:17Z</time></trkpt><trkpt lat="42.76481831663226" lon="12.453165095497935"><ele>196.0</ele><time>2026-05-03T13:38:18Z</time></trkpt><trkpt lat="42.76500560353873" lon="12.45302460170465"><ele>196.0</ele><time>2026-05-03T13:38:19Z</time></trkpt><trkpt lat="42.765191746350915" lon="12.452887619348397"><ele>196.0</ele><time>2026-05-03T13:38:20Z</time></trkpt><trkpt lat="42.76537562706293" lon="12.452756364216652"><ele>195.66666666666666</ele><time>2026-05-03T13:38:21Z</time></trkpt><trkpt lat="42.76556361849585" lon="12.452616189087308"><ele>195.33333333333331</ele><time>2026-05-03T13:38:22Z</time></trkpt><trkpt lat="42.765746123482636" lon="12.45248041560141"><ele>195.0</ele><time>2026-05-03T13:38:23Z</time></trkpt><trkpt lat="42.76592862999259" lon="12.452345740721114"><ele>195.33333333333331</ele><time>2026-05-03T13:38:24Z</time></trkpt><trkpt lat="42.766112183493654" lon="12.452206335016248"><ele>195.66666666666666</ele><time>2026-05-03T13:38:25Z</time></trkpt><trkpt lat="42.766299532938724" lon="12.452068624385449"><ele>196.0</ele><time>2026-05-03T13:38:26Z</time></trkpt><trkpt lat="42.7664816109747" lon="12.451934716310625"><ele>196.0</ele><time>2026-05-03T13:38:27Z</time></trkpt><trkpt lat="42.76666629398367" lon="12.451796230361344"><ele>196.0</ele><time>2026-05-03T13:38:28Z</time></trkpt><trkpt lat="42.76684910118976" lon="12.451656853192855"><ele>196.0</ele><time>2026-05-03T13:38:29Z</time></trkpt><trkpt lat="42.767032802493475" lon="12.45151769053004"><ele>195.0</ele><time>2026-05-03T13:38:30Z</time></trkpt><trkpt lat="42.76721226587617" lon="12.451376138285315"><ele>194.0</ele><time>2026-05-03T13:38:31Z</time></trkpt><trkpt lat="42.767388664688" lon="12.451239110021582"><ele>193.0</ele><time>2026-05-03T13:38:32Z</time></trkpt><trkpt lat="42.767554643726335" lon="12.451089009931218"><ele>196.0</ele><time>2026-05-03T13:38:33Z</time></trkpt><trkpt lat="42.76775197879218" lon="12.450977530093185"><ele>199.0</ele><time>2026-05-03T13:38:34Z</time></trkpt><trkpt lat="42.76793426449754" lon="12.450841835185017"><ele>202.0</ele><time>2026-05-03T13:38:35Z</time></trkpt><trkpt lat="42.76811646799639" lon="12.450703033025587"><ele>202.0</ele><time>2026-05-03T13:38:36Z</time></trkpt><trkpt lat="42.76829551308455" lon="12.45057217557637"><ele>202.0</ele><time>2026-05-03T13:38:37Z</time></trkpt><trkpt lat="42.76847789760348" lon="12.450433374412222"><ele>202.0</ele><time>2026-05-03T13:38:38Z</time></trkpt><trkpt lat="42.76865827240273" lon="12.45029689769752"><ele>201.0</ele><time>2026-05-03T13:38:39Z</time></trkpt><trkpt lat="42.76883932844497" lon="12.450162794875776"><ele>200.0</ele><time>2026-05-03T13:38:40Z</time></trkpt><trkpt lat="42.7690216838371" lon="12.450034285915581"><ele>199.0</ele><time>2026-05-03T13:38:41Z</time></trkpt><trkpt lat="42.769206448505656" lon="12.4499116959341"><ele>201.0</ele><time>2026-05-03T13:38:42Z</time></trkpt><trkpt lat="42.76939089153408" lon="12.449799677241193"><ele>203.0</ele><time>2026-05-03T13:38:43Z</time></trkpt><trkpt lat="42.769580929612204" lon="12.449684750272715"><ele>205.0</ele><time>2026-05-03T13:38:44Z</time></trkpt><trkpt lat="42.76976901831016" lon="12.449571435697443"><ele>201.33333333333331</ele><time>2026-05-03T13:38:45Z</time></trkpt><trkpt lat="42.769959830107005" lon="12.449454454688087"><ele>197.66666666666669</ele><time>2026-05-03T13:38:46Z</time></trkpt><trkpt lat="42.77015135094868" lon="12.449344631735752"><ele>194.0</ele><time>2026-05-03T13:38:47Z</time></trkpt><trkpt lat="42.77034535584379" lon="12.44923442149498"><ele>194.0</ele><time>2026-05-03T13:38:48Z</time></trkpt><trkpt lat="42.770556795863065" lon="12.449132047109721"><ele>194.0</ele><time>2026-05-03T13:38:49Z</time></trkpt><trkpt lat="42.77073755532324" lon="12.449019303130868"><ele>194.0</ele><time>2026-05-03T13:38:50Z</time></trkpt><trkpt lat="42.770918052897464" lon="12.448895971163843"><ele>192.33333333333334</ele><time>2026-05-03T13:38:51Z</time></trkpt><trkpt lat="42.771107490894906" lon="12.448775833049604"><ele>190.66666666666669</ele><time>2026-05-03T13:38:52Z</time></trkpt><trkpt lat="42.771294476173146" lon="12.448659852604184"><ele>189.0</ele><time>2026-05-03T13:38:53Z</time></trkpt><trkpt lat="42.771506601509465" lon="12.44854235771472"><ele>189.0</ele><time>2026-05-03T13:38:54Z</time></trkpt><trkpt lat="42.771702550716334" lon="12.448421623570518"><ele>189.0</ele><time>2026-05-03T13:38:55Z</time></trkpt><trkpt lat="42.77190083690548" lon="12.448301223024464"><ele>189.0</ele><time>2026-05-03T13:38:56Z</time></trkpt><trkpt lat="42.772100752864525" lon="12.448182899223717"><ele>188.66666666666666</ele><time>2026-05-03T13:38:57Z</time></trkpt><trkpt lat="42.77229861916724" lon="12.448069803429059"><ele>188.33333333333331</ele><time>2026-05-03T13:38:58Z</time></trkpt><trkpt lat="42.77249780189241" lon="12.447956563684386"><ele>188.0</ele><time>2026-05-03T13:38:59Z</time></trkpt><trkpt lat="42.77270051018819" lon="12.447844191072738"><ele>188.0</ele><time>2026-05-03T13:39:00Z</time></trkpt><trkpt lat="42.7729010578837" lon="12.447727418026247"><ele>188.0</ele><time>2026-05-03T13:39:01Z</time></trkpt><trkpt lat="42.77309978041221" lon="12.447609312708973"><ele>188.0</ele><time>2026-05-03T13:39:01.999Z</time></trkpt><trkpt lat="42.77329999727609" lon="12.447488700641129"><ele>188.0</ele><time>2026-05-03T13:39:02.999Z</time></trkpt><trkpt lat="42.7734994056695" lon="12.44736922581686"><ele>188.0</ele><time>2026-05-03T13:39:03.999Z</time></trkpt><trkpt lat="42.77369731529622" lon="12.447250979313525"><ele>188.0</ele><time>2026-05-03T13:39:04.999Z</time></trkpt><trkpt lat="42.77389470506868" lon="12.447135230410202"><ele>188.33333333333331</ele><time>2026-05-03T13:39:05.999Z</time></trkpt><trkpt lat="42.77409175603052" lon="12.447024408183953"><ele>188.66666666666666</ele><time>2026-05-03T13:39:06.999Z</time></trkpt><trkpt lat="42.77428492445897" lon="12.446909903263172"><ele>189.0</ele><time>2026-05-03T13:39:07.999Z</time></trkpt><trkpt lat="42.77447915985945" lon="12.446798298914795"><ele>188.33333333333334</ele><time>2026-05-03T13:39:08.999Z</time></trkpt><trkpt lat="42.77467406913359" lon="12.446687531301619"><ele>187.66666666666669</ele><time>2026-05-03T13:39:09.999Z</time></trkpt><trkpt lat="42.77486456679083" lon="12.446579198588548"><ele>187.0</ele><time>2026-05-03T13:39:10.999Z</time></trkpt><trkpt lat="42.7750551501229" lon="12.446467613346597"><ele>186.66666666666669</ele><time>2026-05-03T13:39:11.999Z</time></trkpt><trkpt lat="42.7752435908661" lon="12.44635556812398"><ele>186.33333333333334</ele><time>2026-05-03T13:39:12.999Z</time></trkpt><trkpt lat="42.77542866332192" lon="12.446244180525637"><ele>186.0</ele><time>2026-05-03T13:39:13.999Z</time></trkpt><trkpt lat="42.77561740541441" lon="12.446129439263181"><ele>186.66666666666666</ele><time>2026-05-03T13:39:14.999Z</time></trkpt><trkpt lat="42.775798607556624" lon="12.446018339293328"><ele>187.33333333333331</ele><time>2026-05-03T13:39:15.999Z</time></trkpt><trkpt lat="42.775984608190086" lon="12.44591063080864"><ele>188.0</ele><time>2026-05-03T13:39:16.999Z</time></trkpt><trkpt lat="42.776165571945285" lon="12.445806298475146"><ele>188.0</ele><time>2026-05-03T13:39:17.999Z</time></trkpt><trkpt lat="42.77635188385336" lon="12.445698074957132"><ele>188.0</ele><time>2026-05-03T13:39:18.999Z</time></trkpt><trkpt lat="42.776533221828444" lon="12.44558583183806"><ele>188.0</ele><time>2026-05-03T13:39:19.999Z</time></trkpt><trkpt lat="42.776712061291256" lon="12.445465318507459"><ele>189.0</ele><time>2026-05-03T13:39:20.999Z</time></trkpt><trkpt lat="42.77688520526389" lon="12.445341344370384"><ele>190.0</ele><time>2026-05-03T13:39:21.999Z</time></trkpt><trkpt lat="42.777058895953715" lon="12.445210630704374"><ele>191.0</ele><time>2026-05-03T13:39:22.999Z</time></trkpt><trkpt lat="42.77723422973721" lon="12.445074689002867"><ele>191.0</ele><time>2026-05-03T13:39:23.999Z</time></trkpt><trkpt lat="42.77740398564914" lon="12.444928651549768"><ele>191.0</ele><time>2026-05-03T13:39:24.999Z</time></trkpt><trkpt lat="42.77756457998071" lon="12.444776844348011"><ele>191.0</ele><time>2026-05-03T13:39:25.999Z</time></trkpt><trkpt lat="42.77772086487207" lon="12.44460973570327"><ele>190.0</ele><time>2026-05-03T13:39:26.999Z</time></trkpt><trkpt lat="42.77788028335026" lon="12.444427822446334"><ele>189.0</ele><time>2026-05-03T13:39:27.999Z</time></trkpt><trkpt lat="42.77803724224518" lon="12.444256796303131"><ele>188.0</ele><time>2026-05-03T13:39:28.999Z</time></trkpt><trkpt lat="42.778195466138335" lon="12.444075484260495"><ele>188.0</ele><time>2026-05-03T13:39:29.999Z</time></trkpt><trkpt lat="42.77834226068436" lon="12.443891998904649"><ele>188.0</ele><time>2026-05-03T13:39:30.999Z</time></trkpt><trkpt lat="42.77848758197418" lon="12.443695089129587"><ele>188.0</ele><time>2026-05-03T13:39:31.999Z</time></trkpt><trkpt lat="42.778622194367884" lon="12.44349915364802"><ele>188.33333333333331</ele><time>2026-05-03T13:39:32.999Z</time></trkpt><trkpt lat="42.77875432716652" lon="12.443291222183607"><ele>188.66666666666666</ele><time>2026-05-03T13:39:33.999Z</time></trkpt><trkpt lat="42.778880133835784" lon="12.44307990458641"><ele>189.0</ele><time>2026-05-03T13:39:34.999Z</time></trkpt><trkpt lat="42.77900646360982" lon="12.442861660968468"><ele>189.0</ele><time>2026-05-03T13:39:35.999Z</time></trkpt><trkpt lat="42.77913036433959" lon="12.44264514037245"><ele>189.0</ele><time>2026-05-03T13:39:36.999Z</time></trkpt><trkpt lat="42.77925362777363" lon="12.442429488215483"><ele>189.0</ele><time>2026-05-03T13:39:37.999Z</time></trkpt><trkpt lat="42.77937593591532" lon="12.442213323539972"><ele>188.66666666666666</ele><time>2026-05-03T13:39:38.999Z</time></trkpt><trkpt lat="42.779499699626705" lon="12.441998256959575"><ele>188.33333333333331</ele><time>2026-05-03T13:39:39.999Z</time></trkpt><trkpt lat="42.77962644502383" lon="12.441783865130661"><ele>188.0</ele><time>2026-05-03T13:39:40.999Z</time></trkpt><trkpt lat="42.779753817689254" lon="12.441569906636973"><ele>188.0</ele><time>2026-05-03T13:39:41.999Z</time></trkpt><trkpt lat="42.77988226200996" lon="12.441354278429298"><ele>188.0</ele><time>2026-05-03T13:39:42.999Z</time></trkpt><trkpt lat="42.7800061337982" lon="12.44113710764793"><ele>188.0</ele><time>2026-05-03T13:39:43.999Z</time></trkpt><trkpt lat="42.78013153394084" lon="12.440921775485625"><ele>186.0</ele><time>2026-05-03T13:39:44.999Z</time></trkpt><trkpt lat="42.78026070113497" lon="12.440703625402667"><ele>184.0</ele><time>2026-05-03T13:39:45.999Z</time></trkpt><trkpt lat="42.78038764307739" lon="12.440489123612382"><ele>182.0</ele><time>2026-05-03T13:39:46.999Z</time></trkpt><trkpt lat="42.78051576158191" lon="12.440272456511977"><ele>182.0</ele><time>2026-05-03T13:39:47.999Z</time></trkpt><trkpt lat="42.78064753680099" lon="12.440054212906496"><ele>182.0</ele><time>2026-05-03T13:39:48.999Z</time></trkpt><trkpt lat="42.78077318664788" lon="12.439826715358981"><ele>182.0</ele><time>2026-05-03T13:39:49.999Z</time></trkpt><trkpt lat="42.78090732263572" lon="12.43961004359858"><ele>179.66666666666666</ele><time>2026-05-03T13:39:50.999Z</time></trkpt><trkpt lat="42.78107520795961" lon="12.439428272052746"><ele>177.33333333333334</ele><time>2026-05-03T13:39:52Z</time></trkpt><trkpt lat="42.78125301808816" lon="12.439279541296376"><ele>175.0</ele><time>2026-05-03T13:39:53Z</time></trkpt><trkpt lat="42.781294524674614" lon="12.438936643887091"><ele>176.66666666666669</ele><time>2026-05-03T13:39:54Z</time></trkpt><trkpt lat="42.78143096968548" lon="12.438714267525514"><ele>178.33333333333334</ele><time>2026-05-03T13:39:55Z</time></trkpt><trkpt lat="42.781566924430365" lon="12.438493406477066"><ele>180.0</ele><time>2026-05-03T13:39:56Z</time></trkpt><trkpt lat="42.781700849414044" lon="12.438259723008306"><ele>180.0</ele><time>2026-05-03T13:39:57Z</time></trkpt><trkpt lat="42.78183536282528" lon="12.438025897304676"><ele>180.0</ele><time>2026-05-03T13:39:58Z</time></trkpt><trkpt lat="42.781965777898414" lon="12.437799475010083"><ele>180.0</ele><time>2026-05-03T13:39:59Z</time></trkpt><trkpt lat="42.782102415516036" lon="12.43757292517509"><ele>178.0</ele><time>2026-05-03T13:40:00Z</time></trkpt><trkpt lat="42.78223796098915" lon="12.437345729174574"><ele>176.0</ele><time>2026-05-03T13:40:01Z</time></trkpt><trkpt lat="42.78237358487793" lon="12.437120799786543"><ele>174.0</ele><time>2026-05-03T13:40:02Z</time></trkpt><trkpt lat="42.782508524520466" lon="12.436895936300179"><ele>174.0</ele><time>2026-05-03T13:40:03Z</time></trkpt><trkpt lat="42.78264281508901" lon="12.436673606773784"><ele>174.0</ele><time>2026-05-03T13:40:04Z</time></trkpt><trkpt lat="42.7827725969693" lon="12.436453951791927"><ele>174.0</ele><time>2026-05-03T13:40:05Z</time></trkpt><trkpt lat="42.78290747512794" lon="12.436235226698212"><ele>173.0</ele><time>2026-05-03T13:40:06Z</time></trkpt><trkpt lat="42.78303952305394" lon="12.436021231361043"><ele>172.0</ele><time>2026-05-03T13:40:07Z</time></trkpt><trkpt lat="42.783170612569556" lon="12.435796187289457"><ele>171.0</ele><time>2026-05-03T13:40:08Z</time></trkpt><trkpt lat="42.783301360203815" lon="12.435576536231991"><ele>170.0</ele><time>2026-05-03T13:40:09Z</time></trkpt><trkpt lat="42.7834279870618" lon="12.43535536918297"><ele>169.0</ele><time>2026-05-03T13:40:10Z</time></trkpt><trkpt lat="42.78355355236041" lon="12.435142090827654"><ele>168.0</ele><time>2026-05-03T13:40:11Z</time></trkpt><trkpt lat="42.783680759025465" lon="12.434933562075114"><ele>168.0</ele><time>2026-05-03T13:40:12Z</time></trkpt><trkpt lat="42.78380456627474" lon="12.434722527609694"><ele>168.0</ele><time>2026-05-03T13:40:13Z</time></trkpt><trkpt lat="42.78393022051436" lon="12.43451316244333"><ele>168.0</ele><time>2026-05-03T13:40:14Z</time></trkpt><trkpt lat="42.784055165024085" lon="12.434302277987687"><ele>168.0</ele><time>2026-05-03T13:40:15Z</time></trkpt><trkpt lat="42.78418082262402" lon="12.434090115847251"><ele>168.0</ele><time>2026-05-03T13:40:16Z</time></trkpt><trkpt lat="42.784309140246776" lon="12.43387110584933"><ele>168.0</ele><time>2026-05-03T13:40:17Z</time></trkpt><trkpt lat="42.78443851728883" lon="12.433660826099265"><ele>168.0</ele><time>2026-05-03T13:40:18Z</time></trkpt><trkpt lat="42.78456777198951" lon="12.433448285543792"><ele>168.0</ele><time>2026-05-03T13:40:19Z</time></trkpt><trkpt lat="42.78469485830465" lon="12.433233620755955"><ele>168.0</ele><time>2026-05-03T13:40:20Z</time></trkpt><trkpt lat="42.78482435641455" lon="12.433026074347513"><ele>168.33333333333334</ele><time>2026-05-03T13:40:21Z</time></trkpt><trkpt lat="42.784952231973364" lon="12.432814269110207"><ele>168.66666666666669</ele><time>2026-05-03T13:40:22Z</time></trkpt><trkpt lat="42.7850801655632" lon="12.432605131867497"><ele>169.0</ele><time>2026-05-03T13:40:23Z</time></trkpt><trkpt lat="42.78520970875865" lon="12.432400326752962"><ele>167.66666666666669</ele><time>2026-05-03T13:40:24Z</time></trkpt><trkpt lat="42.78533736336271" lon="12.432195530936774"><ele>166.33333333333334</ele><time>2026-05-03T13:40:25Z</time></trkpt><trkpt lat="42.78545864630192" lon="12.431989642954605"><ele>165.0</ele><time>2026-05-03T13:40:26Z</time></trkpt><trkpt lat="42.7855746249813" lon="12.431807041276736"><ele>165.0</ele><time>2026-05-03T13:40:27Z</time></trkpt><trkpt lat="42.78568994204691" lon="12.431629555050664"><ele>165.0</ele><time>2026-05-03T13:40:28Z</time></trkpt><trkpt lat="42.78579628909433" lon="12.431453312443098"><ele>165.0</ele><time>2026-05-03T13:40:29Z</time></trkpt><trkpt lat="42.785896167146475" lon="12.431289569272579"><ele>165.0</ele><time>2026-05-03T13:40:30Z</time></trkpt><trkpt lat="42.78598484129481" lon="12.431138211164768"><ele>165.0</ele><time>2026-05-03T13:40:31Z</time></trkpt><trkpt lat="42.78606718930738" lon="12.4309993434633"><ele>165.0</ele><time>2026-05-03T13:40:32Z</time></trkpt><trkpt lat="42.78614540793422" lon="12.430877700879943"><ele>165.0</ele><time>2026-05-03T13:40:33Z</time></trkpt><trkpt lat="42.786219080135474" lon="12.43077000920023"><ele>165.0</ele><time>2026-05-03T13:40:34Z</time></trkpt><trkpt lat="42.78629586466478" lon="12.430674757194629"><ele>165.0</ele><time>2026-05-03T13:40:35Z</time></trkpt><trkpt lat="42.78637999111305" lon="12.430601640636388"><ele>165.0</ele><time>2026-05-03T13:40:36Z</time></trkpt><trkpt lat="42.786467869720674" lon="12.430540779632485"><ele>165.0</ele><time>2026-05-03T13:40:37Z</time></trkpt><trkpt lat="42.78656670481251" lon="12.430485747719585"><ele>165.0</ele><time>2026-05-03T13:40:38Z</time></trkpt><trkpt lat="42.78665915192576" lon="12.430438883576501"><ele>165.4</ele><time>2026-05-03T13:40:39Z</time></trkpt><trkpt lat="42.78675766089478" lon="12.430398823384735"><ele>165.8</ele><time>2026-05-03T13:40:40Z</time></trkpt><trkpt lat="42.786862051723865" lon="12.430370828425877"><ele>166.2</ele><time>2026-05-03T13:40:41Z</time></trkpt><trkpt lat="42.78696158333626" lon="12.430357051334644"><ele>166.6</ele><time>2026-05-03T13:40:42Z</time></trkpt><trkpt lat="42.78705681751158" lon="12.430360006701667"><ele>167.0</ele><time>2026-05-03T13:40:43Z</time></trkpt><trkpt lat="42.78714504182139" lon="12.430368338688961"><ele>166.5</ele><time>2026-05-03T13:40:44Z</time></trkpt><trkpt lat="42.78722154269887" lon="12.43038131140061"><ele>166.0</ele><time>2026-05-03T13:40:45Z</time></trkpt><trkpt lat="42.7872893892536" lon="12.430394659526781"><ele>165.5</ele><time>2026-05-03T13:40:46Z</time></trkpt><trkpt lat="42.78738704890712" lon="12.430390135194548"><ele>165.0</ele><time>2026-05-03T13:40:48Z</time></trkpt><trkpt lat="42.78745568532742" lon="12.430340891422809"><ele>164.5</ele><time>2026-05-03T13:40:51Z</time></trkpt><trkpt lat="42.78751762528509" lon="12.430486162210142"><ele>164.0</ele><time>2026-05-03T13:41:18.999Z</time></trkpt><trkpt lat="42.78751377789194" lon="12.430656285682828"><ele>164.0</ele><time>2026-05-03T13:41:20.999Z</time></trkpt><trkpt lat="42.78751150782431" lon="12.43074508451964"><ele>164.0</ele><time>2026-05-03T13:41:21.999Z</time></trkpt><trkpt lat="42.78751484878435" lon="12.43083929091891"><ele>164.0</ele><time>2026-05-03T13:41:22.999Z</time></trkpt><trkpt lat="42.78752458906243" lon="12.43094130837757"><ele>164.0</ele><time>2026-05-03T13:41:23.999Z</time></trkpt><trkpt lat="42.78752923697072" lon="12.43104967180229"><ele>164.0</ele><time>2026-05-03T13:41:24.999Z</time></trkpt><trkpt lat="42.787533634028776" lon="12.431161235011507"><ele>164.0</ele><time>2026-05-03T13:41:25.999Z</time></trkpt><trkpt lat="42.78754388739609" lon="12.431281163507418"><ele>164.16666666666666</ele><time>2026-05-03T13:41:26.999Z</time></trkpt><trkpt lat="42.78755071025643" lon="12.431382109906158"><ele>164.33333333333331</ele><time>2026-05-03T13:41:27.999Z</time></trkpt><trkpt lat="42.787577569310834" lon="12.431485970516245"><ele>164.5</ele><time>2026-05-03T13:41:28.999Z</time></trkpt><trkpt lat="42.78762859552854" lon="12.431576516449894"><ele>164.66666666666666</ele><time>2026-05-03T13:41:29.999Z</time></trkpt><trkpt lat="42.787695173020396" lon="12.431656119235724"><ele>164.83333333333334</ele><time>2026-05-03T13:41:30.999Z</time></trkpt><trkpt lat="42.787759425235635" lon="12.431745221197813"><ele>165.0</ele><time>2026-05-03T13:41:31.999Z</time></trkpt><trkpt lat="42.78782149694861" lon="12.431827719558626"><ele>164.6</ele><time>2026-05-03T13:41:32.999Z</time></trkpt><trkpt lat="42.7878900484492" lon="12.431912739597056"><ele>164.2</ele><time>2026-05-03T13:41:33.999Z</time></trkpt><trkpt lat="42.787953884819984" lon="12.431999250429222"><ele>163.8</ele><time>2026-05-03T13:41:34.999Z</time></trkpt><trkpt lat="42.78802042477864" lon="12.432082415023581"><ele>163.4</ele><time>2026-05-03T13:41:35.999Z</time></trkpt><trkpt lat="42.788089319295196" lon="12.432166145752285"><ele>163.0</ele><time>2026-05-03T13:41:36.999Z</time></trkpt><trkpt lat="42.78815774910053" lon="12.432257546421207"><ele>163.8</ele><time>2026-05-03T13:41:37.999Z</time></trkpt><trkpt lat="42.78822666508336" lon="12.43234507857725"><ele>164.60000000000002</ele><time>2026-05-03T13:41:38.999Z</time></trkpt><trkpt lat="42.78829538021634" lon="12.432437112768413"><ele>165.39999999999998</ele><time>2026-05-03T13:41:39.999Z</time></trkpt><trkpt lat="42.78836287499855" lon="12.432522990000852"><ele>166.2</ele><time>2026-05-03T13:41:40.999Z</time></trkpt><trkpt lat="42.78843301417363" lon="12.43261315800733"><ele>167.0</ele><time>2026-05-03T13:41:41.999Z</time></trkpt><trkpt lat="42.78850188646732" lon="12.432712191000514"><ele>166.6</ele><time>2026-05-03T13:41:42.999Z</time></trkpt><trkpt lat="42.78857762556972" lon="12.43280370513905"><ele>166.2</ele><time>2026-05-03T13:41:43.999Z</time></trkpt><trkpt lat="42.78865161601215" lon="12.432904843965312"><ele>165.8</ele><time>2026-05-03T13:41:44.999Z</time></trkpt><trkpt lat="42.78872853253" lon="12.43300802612842"><ele>165.4</ele><time>2026-05-03T13:41:45.999Z</time></trkpt><trkpt lat="42.788806061245225" lon="12.43310784538351"><ele>165.0</ele><time>2026-05-03T13:41:46.999Z</time></trkpt><trkpt lat="42.78887695706737" lon="12.433205984562006"><ele>167.2</ele><time>2026-05-03T13:41:47.999Z</time></trkpt><trkpt lat="42.78894781225201" lon="12.433299880099728"><ele>169.4</ele><time>2026-05-03T13:41:48.999Z</time></trkpt><trkpt lat="42.789015512676876" lon="12.433382258656161"><ele>171.60000000000002</ele><time>2026-05-03T13:41:49.999Z</time></trkpt><trkpt lat="42.78908117165598" lon="12.433456878616228"><ele>173.8</ele><time>2026-05-03T13:41:50.999Z</time></trkpt><trkpt lat="42.78915701447885" lon="12.433518391208393"><ele>176.0</ele><time>2026-05-03T13:41:51.999Z</time></trkpt><trkpt lat="42.78924480987986" lon="12.433566167355147"><ele>176.0</ele><time>2026-05-03T13:41:52.999Z</time></trkpt><trkpt lat="42.789335650515234" lon="12.433596039705474"><ele>176.0</ele><time>2026-05-03T13:41:53.999Z</time></trkpt><trkpt lat="42.78943529843946" lon="12.433612861892852"><ele>176.0</ele><time>2026-05-03T13:41:54.999Z</time></trkpt><trkpt lat="42.78953044193049" lon="12.43362690097277"><ele>176.0</ele><time>2026-05-03T13:41:55.999Z</time></trkpt><trkpt lat="42.789612934085454" lon="12.433665378247078"><ele>176.0</ele><time>2026-05-03T13:41:56.999Z</time></trkpt><trkpt lat="42.78969050576802" lon="12.433741252019228"><ele>177.25</ele><time>2026-05-03T13:41:58Z</time></trkpt><trkpt lat="42.78976275600111" lon="12.433836700153178"><ele>178.5</ele><time>2026-05-03T13:41:59Z</time></trkpt><trkpt lat="42.7898292076065" lon="12.433945909506088"><ele>179.75</ele><time>2026-05-03T13:42:00Z</time></trkpt><trkpt lat="42.78990962212655" lon="12.43408138498676"><ele>181.0</ele><time>2026-05-03T13:42:01Z</time></trkpt><trkpt lat="42.78999260906611" lon="12.434210542217272"><ele>181.0</ele><time>2026-05-03T13:42:02Z</time></trkpt><trkpt lat="42.79008553484184" lon="12.434319919691749"><ele>181.0</ele><time>2026-05-03T13:42:03Z</time></trkpt><trkpt lat="42.79018656647592" lon="12.434412544112016"><ele>181.0</ele><time>2026-05-03T13:42:04Z</time></trkpt><trkpt lat="42.79029509715239" lon="12.434493395280365"><ele>181.0</ele><time>2026-05-03T13:42:05Z</time></trkpt><trkpt lat="42.79040710537988" lon="12.43456663606241"><ele>181.5</ele><time>2026-05-03T13:42:06Z</time></trkpt><trkpt lat="42.79051693360241" lon="12.434630260212426"><ele>182.0</ele><time>2026-05-03T13:42:07Z</time></trkpt><trkpt lat="42.790623694914196" lon="12.434688529024696"><ele>182.5</ele><time>2026-05-03T13:42:08Z</time></trkpt><trkpt lat="42.790716999142596" lon="12.434777264685225"><ele>183.0</ele><time>2026-05-03T13:42:09Z</time></trkpt><trkpt lat="42.790816567292545" lon="12.43483930898151"><ele>183.0</ele><time>2026-05-03T13:42:10Z</time></trkpt><trkpt lat="42.790908423755624" lon="12.434938017658132"><ele>183.0</ele><time>2026-05-03T13:42:11Z</time></trkpt><trkpt lat="42.79100247089258" lon="12.435044807027545"><ele>183.0</ele><time>2026-05-03T13:42:12Z</time></trkpt><trkpt lat="42.79109415349373" lon="12.435158079986081"><ele>183.0</ele><time>2026-05-03T13:42:13Z</time></trkpt><trkpt lat="42.791189291749" lon="12.435269988111063"><ele>182.75</ele><time>2026-05-03T13:42:14Z</time></trkpt><trkpt lat="42.79128438129912" lon="12.435384888403176"><ele>182.5</ele><time>2026-05-03T13:42:15Z</time></trkpt><trkpt lat="42.7913863776358" lon="12.435498404527833"><ele>182.25</ele><time>2026-05-03T13:42:16Z</time></trkpt><trkpt lat="42.79148765504382" lon="12.435610149230628"><ele>182.0</ele><time>2026-05-03T13:42:17Z</time></trkpt><trkpt lat="42.79158909572193" lon="12.435715859708901"><ele>182.0</ele><time>2026-05-03T13:42:18Z</time></trkpt><trkpt lat="42.79168675695716" lon="12.435818873531575"><ele>182.0</ele><time>2026-05-03T13:42:19Z</time></trkpt><trkpt lat="42.79177669337244" lon="12.435922062239051"><ele>182.0</ele><time>2026-05-03T13:42:20Z</time></trkpt><trkpt lat="42.79186613574137" lon="12.436021850362959"><ele>182.0</ele><time>2026-05-03T13:42:21Z</time></trkpt><trkpt lat="42.79195265713255" lon="12.436118424813394"><ele>180.5</ele><time>2026-05-03T13:42:22Z</time></trkpt><trkpt lat="42.792033163884795" lon="12.436225430722716"><ele>179.0</ele><time>2026-05-03T13:42:23Z</time></trkpt><trkpt lat="42.79211229729071" lon="12.436338366176498"><ele>177.5</ele><time>2026-05-03T13:42:24Z</time></trkpt><trkpt lat="42.79219028627236" lon="12.436461451845075"><ele>176.0</ele><time>2026-05-03T13:42:25Z</time></trkpt><trkpt lat="42.792261327307756" lon="12.436589561516245"><ele>176.0</ele><time>2026-05-03T13:42:26Z</time></trkpt><trkpt lat="42.79233686821247" lon="12.436706590066766"><ele>176.0</ele><time>2026-05-03T13:42:27Z</time></trkpt><trkpt lat="42.79241313698658" lon="12.436834027328139"><ele>176.0</ele><time>2026-05-03T13:42:28Z</time></trkpt><trkpt lat="42.79247994436553" lon="12.436959189333884"><ele>176.0</ele><time>2026-05-03T13:42:29Z</time></trkpt><trkpt lat="42.792547123974785" lon="12.437095268004311"><ele>176.75</ele><time>2026-05-03T13:42:30Z</time></trkpt><trkpt lat="42.792615177258966" lon="12.437231583340324"><ele>177.5</ele><time>2026-05-03T13:42:31Z</time></trkpt><trkpt lat="42.792676670167346" lon="12.437374273374115"><ele>178.25</ele><time>2026-05-03T13:42:32Z</time></trkpt><trkpt lat="42.79272641271812" lon="12.437521639004412"><ele>179.0</ele><time>2026-05-03T13:42:33Z</time></trkpt><trkpt lat="42.792765084689854" lon="12.437671692755012"><ele>178.39999999999998</ele><time>2026-05-03T13:42:34Z</time></trkpt><trkpt lat="42.79279983605896" lon="12.437820094418507"><ele>177.8</ele><time>2026-05-03T13:42:35Z</time></trkpt><trkpt lat="42.79283895049811" lon="12.437961998137823"><ele>177.2</ele><time>2026-05-03T13:42:36Z</time></trkpt><trkpt lat="42.792872193678285" lon="12.43809841474307"><ele>176.60000000000002</ele><time>2026-05-03T13:42:37Z</time></trkpt><trkpt lat="42.79290255799815" lon="12.438226533376119"><ele>176.0</ele><time>2026-05-03T13:42:38Z</time></trkpt><trkpt lat="42.79294142746133" lon="12.438349132586978"><ele>176.0</ele><time>2026-05-03T13:42:39Z</time></trkpt><trkpt lat="42.79298879813832" lon="12.438456072855903"><ele>176.0</ele><time>2026-05-03T13:42:40Z</time></trkpt><trkpt lat="42.79304810991216" lon="12.438550769039116"><ele>176.0</ele><time>2026-05-03T13:42:41Z</time></trkpt><trkpt lat="42.793125491076005" lon="12.438617473395924"><ele>176.0</ele><time>2026-05-03T13:42:42Z</time></trkpt><trkpt lat="42.79321684825147" lon="12.438659741383892"><ele>176.0</ele><time>2026-05-03T13:42:43Z</time></trkpt><trkpt lat="42.79331219185895" lon="12.438693224372491"><ele>176.0</ele><time>2026-05-03T13:42:44Z</time></trkpt><trkpt lat="42.79340408187698" lon="12.438749544631118"><ele>176.0</ele><time>2026-05-03T13:42:45Z</time></trkpt><trkpt lat="42.793503407760944" lon="12.438789374127708"><ele>176.0</ele><time>2026-05-03T13:42:46Z</time></trkpt><trkpt lat="42.79360718968367" lon="12.438832298458262"><ele>176.0</ele><time>2026-05-03T13:42:47Z</time></trkpt><trkpt lat="42.793711869553135" lon="12.438882387692184"><ele>176.0</ele><time>2026-05-03T13:42:48Z</time></trkpt><trkpt lat="42.79380971492712" lon="12.438913679394721"><ele>175.8</ele><time>2026-05-03T13:42:49Z</time></trkpt><trkpt lat="42.79390271004658" lon="12.438975653668807"><ele>175.60000000000002</ele><time>2026-05-03T13:42:50Z</time></trkpt><trkpt lat="42.793991483879125" lon="12.4390573526033"><ele>175.4</ele><time>2026-05-03T13:42:51Z</time></trkpt><trkpt lat="42.79407116353761" lon="12.439157027028612"><ele>175.2</ele><time>2026-05-03T13:42:52Z</time></trkpt><trkpt lat="42.794141051009795" lon="12.439278678718862"><ele>175.0</ele><time>2026-05-03T13:42:53Z</time></trkpt><trkpt lat="42.7942043671217" lon="12.439408499449032"><ele>175.0</ele><time>2026-05-03T13:42:54Z</time></trkpt><trkpt lat="42.794264019828674" lon="12.439552091337719"><ele>175.0</ele><time>2026-05-03T13:42:55Z</time></trkpt><trkpt lat="42.79431628705527" lon="12.439684866017974"><ele>175.0</ele><time>2026-05-03T13:42:56Z</time></trkpt><trkpt lat="42.79436689272946" lon="12.439825774278146"><ele>175.0</ele><time>2026-05-03T13:42:57Z</time></trkpt><trkpt lat="42.79442176002874" lon="12.439961919159233"><ele>175.0</ele><time>2026-05-03T13:42:58Z</time></trkpt><trkpt lat="42.794477140531974" lon="12.44009965420368"><ele>175.0</ele><time>2026-05-03T13:42:58.999Z</time></trkpt><trkpt lat="42.794530409130466" lon="12.440243155884975"><ele>175.0</ele><time>2026-05-03T13:42:59.999Z</time></trkpt><trkpt lat="42.794585169924666" lon="12.440384922744233"><ele>175.0</ele><time>2026-05-03T13:43:00.999Z</time></trkpt><trkpt lat="42.794643620435984" lon="12.440527353682832"><ele>176.0</ele><time>2026-05-03T13:43:01.999Z</time></trkpt><trkpt lat="42.79469794239079" lon="12.440675670478996"><ele>177.0</ele><time>2026-05-03T13:43:02.999Z</time></trkpt><trkpt lat="42.794741365197886" lon="12.440819029967358"><ele>178.0</ele><time>2026-05-03T13:43:03.999Z</time></trkpt><trkpt lat="42.79479092337244" lon="12.440956545871272"><ele>179.0</ele><time>2026-05-03T13:43:04.999Z</time></trkpt><trkpt lat="42.79484501570141" lon="12.441096550951489"><ele>179.0</ele><time>2026-05-03T13:43:05.999Z</time></trkpt><trkpt lat="42.794899544094605" lon="12.441239971805398"><ele>179.0</ele><time>2026-05-03T13:43:06.999Z</time></trkpt><trkpt lat="42.79495240436285" lon="12.441380870458968"><ele>179.0</ele><time>2026-05-03T13:43:07.999Z</time></trkpt><trkpt lat="42.7950152808315" lon="12.441521549457997"><ele>179.0</ele><time>2026-05-03T13:43:08.999Z</time></trkpt><trkpt lat="42.795087394229085" lon="12.441659212021893"><ele>180.0</ele><time>2026-05-03T13:43:09.999Z</time></trkpt><trkpt lat="42.79516762052826" lon="12.441793764568972"><ele>181.0</ele><time>2026-05-03T13:43:10.999Z</time></trkpt><trkpt lat="42.795243440226685" lon="12.441922139243035"><ele>182.0</ele><time>2026-05-03T13:43:11.999Z</time></trkpt><trkpt lat="42.79531708295589" lon="12.442046359191536"><ele>183.0</ele><time>2026-05-03T13:43:12.999Z</time></trkpt><trkpt lat="42.795388006846984" lon="12.44216740687393"><ele>186.25</ele><time>2026-05-03T13:43:13.999Z</time></trkpt><trkpt lat="42.79545862835258" lon="12.442299537412048"><ele>189.5</ele><time>2026-05-03T13:43:14.999Z</time></trkpt><trkpt lat="42.795520241540146" lon="12.442436643728785"><ele>192.75</ele><time>2026-05-03T13:43:15.999Z</time></trkpt><trkpt lat="42.79557323100831" lon="12.442566094458282"><ele>196.0</ele><time>2026-05-03T13:43:16.999Z</time></trkpt><trkpt lat="42.79562850925083" lon="12.44269714642842"><ele>196.0</ele><time>2026-05-03T13:43:17.999Z</time></trkpt><trkpt lat="42.79568875395458" lon="12.442833900107457"><ele>196.0</ele><time>2026-05-03T13:43:18.999Z</time></trkpt><trkpt lat="42.79575113237757" lon="12.442978350665243"><ele>196.0</ele><time>2026-05-03T13:43:19.999Z</time></trkpt><trkpt lat="42.7958097082506" lon="12.44311518734396"><ele>196.0</ele><time>2026-05-03T13:43:20.999Z</time></trkpt><trkpt lat="42.79586731182624" lon="12.443250041354021"><ele>196.75</ele><time>2026-05-03T13:43:21.999Z</time></trkpt><trkpt lat="42.79592800360026" lon="12.443366701529323"><ele>197.5</ele><time>2026-05-03T13:43:22.999Z</time></trkpt><trkpt lat="42.79597711565751" lon="12.443496269584609"><ele>198.25</ele><time>2026-05-03T13:43:23.999Z</time></trkpt><trkpt lat="42.796035966389226" lon="12.443595002042132"><ele>199.0</ele><time>2026-05-03T13:43:24.999Z</time></trkpt><trkpt lat="42.796154391378664" lon="12.443769973266708"><ele>202.0</ele><time>2026-05-03T13:43:25.999Z</time></trkpt><trkpt lat="42.796241118005604" lon="12.443866114314154"><ele>205.0</ele><time>2026-05-03T13:43:26.999Z</time></trkpt><trkpt lat="42.796331500683216" lon="12.44394632150673"><ele>207.99999999999997</ele><time>2026-05-03T13:43:27.999Z</time></trkpt><trkpt lat="42.79642232549058" lon="12.444007458683155"><ele>211.0</ele><time>2026-05-03T13:43:28.999Z</time></trkpt><trkpt lat="42.79651937017528" lon="12.44405735286224"><ele>214.0</ele><time>2026-05-03T13:43:29.999Z</time></trkpt><trkpt lat="42.7966219645149" lon="12.444105024983593"><ele>214.0</ele><time>2026-05-03T13:43:30.999Z</time></trkpt><trkpt lat="42.796723999791915" lon="12.444143573125723"><ele>213.99999999999997</ele><time>2026-05-03T13:43:31.999Z</time></trkpt><trkpt lat="42.796822214061955" lon="12.444193664509575"><ele>213.99999999999997</ele><time>2026-05-03T13:43:32.999Z</time></trkpt><trkpt lat="42.79692327259342" lon="12.444243833682473"><ele>214.0</ele><time>2026-05-03T13:43:33.999Z</time></trkpt><trkpt lat="42.79702841031964" lon="12.44428323384381"><ele>214.0</ele><time>2026-05-03T13:43:34.999Z</time></trkpt><trkpt lat="42.797133531969095" lon="12.444327034532352"><ele>216.5</ele><time>2026-05-03T13:43:35.999Z</time></trkpt><trkpt lat="42.79723778087593" lon="12.444374109252875"><ele>219.0</ele><time>2026-05-03T13:43:36.999Z</time></trkpt><trkpt lat="42.79734611562748" lon="12.444433368604592"><ele>221.5</ele><time>2026-05-03T13:43:37.999Z</time></trkpt><trkpt lat="42.79746351475379" lon="12.444487826855411"><ele>224.0</ele><time>2026-05-03T13:43:38.999Z</time></trkpt><trkpt lat="42.79759345580925" lon="12.444558909869588"><ele>226.6</ele><time>2026-05-03T13:43:39.999Z</time></trkpt><trkpt lat="42.79771738808311" lon="12.444635388289159"><ele>229.2</ele><time>2026-05-03T13:43:40.999Z</time></trkpt><trkpt lat="42.797807055179035" lon="12.444695577263522"><ele>231.79999999999998</ele><time>2026-05-03T13:43:41.999Z</time></trkpt><trkpt lat="42.79789821071679" lon="12.444764015327863"><ele>234.39999999999998</ele><time>2026-05-03T13:43:42.999Z</time></trkpt><trkpt lat="42.79798375262925" lon="12.444823512387039"><ele>237.0</ele><time>2026-05-03T13:43:43.999Z</time></trkpt><trkpt lat="42.798069202856716" lon="12.444878741907154"><ele>237.0</ele><time>2026-05-03T13:43:44.999Z</time></trkpt><trkpt lat="42.7981556235703" lon="12.444942371484489"><ele>237.0</ele><time>2026-05-03T13:43:45.999Z</time></trkpt><trkpt lat="42.798232321004825" lon="12.44500908017219"><ele>237.0</ele><time>2026-05-03T13:43:46.999Z</time></trkpt><trkpt lat="42.798302552687" lon="12.445099993806208"><ele>237.0</ele><time>2026-05-03T13:43:47.999Z</time></trkpt><trkpt lat="42.79837127628173" lon="12.445195611091036"><ele>237.0</ele><time>2026-05-03T13:43:48.999Z</time></trkpt><trkpt lat="42.79843140657967" lon="12.44530178108041"><ele>237.0</ele><time>2026-05-03T13:43:49.999Z</time></trkpt><trkpt lat="42.79848919508449" lon="12.445411411520025"><ele>237.0</ele><time>2026-05-03T13:43:50.999Z</time></trkpt><trkpt lat="42.79854440555989" lon="12.445530232435727"><ele>237.0</ele><time>2026-05-03T13:43:51.999Z</time></trkpt><trkpt lat="42.79859654863185" lon="12.445651228971059"><ele>237.0</ele><time>2026-05-03T13:43:52.999Z</time></trkpt><trkpt lat="42.79864770422905" lon="12.44577052422122"><ele>237.0</ele><time>2026-05-03T13:43:53.999Z</time></trkpt><trkpt lat="42.798697783886425" lon="12.445895520036151"><ele>238.2</ele><time>2026-05-03T13:43:54.999Z</time></trkpt><trkpt lat="42.79875427196397" lon="12.446019153830349"><ele>239.39999999999998</ele><time>2026-05-03T13:43:55.999Z</time></trkpt><trkpt lat="42.7988092611015" lon="12.44614176138317"><ele>240.60000000000002</ele><time>2026-05-03T13:43:56.999Z</time></trkpt><trkpt lat="42.79885967963782" lon="12.446279102723365"><ele>241.8</ele><time>2026-05-03T13:43:57.999Z</time></trkpt><trkpt lat="42.798910996684846" lon="12.446408802476553"><ele>243.0</ele><time>2026-05-03T13:43:58.999Z</time></trkpt><trkpt lat="42.79896589183254" lon="12.446543387899316"><ele>245.2</ele><time>2026-05-03T13:43:59.999Z</time></trkpt><trkpt lat="42.79901926663825" lon="12.446675089655171"><ele>247.4</ele><time>2026-05-03T13:44:00.999Z</time></trkpt><trkpt lat="42.79904268663939" lon="12.44682546308862"><ele>249.59999999999997</ele><time>2026-05-03T13:44:01.999Z</time></trkpt><trkpt lat="42.79905395893415" lon="12.446943658738979"><ele>251.79999999999998</ele><time>2026-05-03T13:44:02.999Z</time></trkpt><trkpt lat="42.799047937739424" lon="12.447074557039235"><ele>254.0</ele><time>2026-05-03T13:44:04Z</time></trkpt><trkpt lat="42.79905387665557" lon="12.447217492704318"><ele>256.2</ele><time>2026-05-03T13:44:05Z</time></trkpt><trkpt lat="42.79903618236621" lon="12.447355425006043"><ele>258.4</ele><time>2026-05-03T13:44:06Z</time></trkpt><trkpt lat="42.79902279049876" lon="12.447493797584274"><ele>260.6</ele><time>2026-05-03T13:44:07Z</time></trkpt><trkpt lat="42.79901398137704" lon="12.447635999689922"><ele>262.8</ele><time>2026-05-03T13:44:08Z</time></trkpt><trkpt lat="42.79900902649264" lon="12.447781400534705"><ele>265.0</ele><time>2026-05-03T13:44:09Z</time></trkpt><trkpt lat="42.798997581797664" lon="12.447929125730305"><ele>266.6</ele><time>2026-05-03T13:44:10Z</time></trkpt><trkpt lat="42.79898781962581" lon="12.44806865424589"><ele>268.2</ele><time>2026-05-03T13:44:11Z</time></trkpt><trkpt lat="42.79897333757108" lon="12.448210251442955"><ele>269.8</ele><time>2026-05-03T13:44:12Z</time></trkpt><trkpt lat="42.7989596989505" lon="12.448338025082114"><ele>271.4</ele><time>2026-05-03T13:44:13Z</time></trkpt><trkpt lat="42.79894847190632" lon="12.44844744162774"><ele>273.0</ele><time>2026-05-03T13:44:14Z</time></trkpt><trkpt lat="42.79895280304889" lon="12.448578682703832"><ele>273.0</ele><time>2026-05-03T13:44:15Z</time></trkpt><trkpt lat="42.79895744562113" lon="12.448698942673925"><ele>273.0</ele><time>2026-05-03T13:44:16Z</time></trkpt><trkpt lat="42.79896323184711" lon="12.44880741566777"><ele>273.0</ele><time>2026-05-03T13:44:17Z</time></trkpt><trkpt lat="42.79896980780437" lon="12.448923688557105"><ele>273.0</ele><time>2026-05-03T13:44:18Z</time></trkpt><trkpt lat="42.798986190242736" lon="12.449033349553272"><ele>273.0</ele><time>2026-05-03T13:44:19Z</time></trkpt><trkpt lat="42.79901630638799" lon="12.449132373971326"><ele>273.0</ele><time>2026-05-03T13:44:20Z</time></trkpt><trkpt lat="42.799046521724065" lon="12.44922015000909"><ele>273.0</ele><time>2026-05-03T13:44:21Z</time></trkpt><trkpt lat="42.799104090401194" lon="12.449279520773128"><ele>273.0</ele><time>2026-05-03T13:44:22Z</time></trkpt><trkpt lat="42.79916853958298" lon="12.44932581267664"><ele>273.0</ele><time>2026-05-03T13:44:23Z</time></trkpt><trkpt lat="42.79924380395524" lon="12.449344596029631"><ele>273.0</ele><time>2026-05-03T13:44:24Z</time></trkpt><trkpt lat="42.799324792048914" lon="12.449336333555605"><ele>273.0</ele><time>2026-05-03T13:44:25Z</time></trkpt><trkpt lat="42.799400872911576" lon="12.449342958963053"><ele>273.0</ele><time>2026-05-03T13:44:26Z</time></trkpt><trkpt lat="42.799474825670934" lon="12.449347698536226"><ele>274.2</ele><time>2026-05-03T13:44:27Z</time></trkpt><trkpt lat="42.79956205114293" lon="12.44935106353471"><ele>275.4</ele><time>2026-05-03T13:44:28Z</time></trkpt><trkpt lat="42.79964750334799" lon="12.449338522215236"><ele>276.59999999999997</ele><time>2026-05-03T13:44:29Z</time></trkpt><trkpt lat="42.799745246180734" lon="12.44933016351275"><ele>277.8</ele><time>2026-05-03T13:44:30Z</time></trkpt><trkpt lat="42.799841506060254" lon="12.449324936642313"><ele>279.0</ele><time>2026-05-03T13:44:31Z</time></trkpt><trkpt lat="42.79994302627575" lon="12.449301189340247"><ele>279.0</ele><time>2026-05-03T13:44:32Z</time></trkpt><trkpt lat="42.80004661539677" lon="12.449289666153732"><ele>279.0</ele><time>2026-05-03T13:44:33Z</time></trkpt><trkpt lat="42.80015165335925" lon="12.44930962366034"><ele>279.0</ele><time>2026-05-03T13:44:34Z</time></trkpt><trkpt lat="42.80026097796062" lon="12.44932392448055"><ele>279.0</ele><time>2026-05-03T13:44:35Z</time></trkpt><trkpt lat="42.80037967952721" lon="12.44934633312749"><ele>279.0</ele><time>2026-05-03T13:44:36Z</time></trkpt><trkpt lat="42.80050055148475" lon="12.449355264178706"><ele>280.0</ele><time>2026-05-03T13:44:37Z</time></trkpt><trkpt lat="42.800618438606286" lon="12.449384960382298"><ele>281.0</ele><time>2026-05-03T13:44:38Z</time></trkpt><trkpt lat="42.800732956240495" lon="12.449413478851836"><ele>282.0</ele><time>2026-05-03T13:44:39Z</time></trkpt><trkpt lat="42.800851367042725" lon="12.449443358315717"><ele>283.0</ele><time>2026-05-03T13:44:40Z</time></trkpt><trkpt lat="42.800963202648944" lon="12.449471672589816"><ele>283.8</ele><time>2026-05-03T13:44:41Z</time></trkpt><trkpt lat="42.801074127521495" lon="12.449498224695454"><ele>284.6</ele><time>2026-05-03T13:44:42Z</time></trkpt><trkpt lat="42.80117608409328" lon="12.449543732486939"><ele>285.4</ele><time>2026-05-03T13:44:43Z</time></trkpt><trkpt lat="42.801278907981775" lon="12.449571938408761"><ele>286.2</ele><time>2026-05-03T13:44:44Z</time></trkpt><trkpt lat="42.80137975082337" lon="12.449600389909323"><ele>287.0</ele><time>2026-05-03T13:44:45Z</time></trkpt><trkpt lat="42.80147614932845" lon="12.449629217219092"><ele>287.6666666666667</ele><time>2026-05-03T13:44:46Z</time></trkpt><trkpt lat="42.80156987198001" lon="12.449643239701237"><ele>288.33333333333337</ele><time>2026-05-03T13:44:47Z</time></trkpt><trkpt lat="42.80166110124962" lon="12.449680100746077"><ele>289.0</ele><time>2026-05-03T13:44:48Z</time></trkpt><trkpt lat="42.801742219873574" lon="12.449705692542599"><ele>289.6666666666667</ele><time>2026-05-03T13:44:49Z</time></trkpt><trkpt lat="42.801827302418204" lon="12.449748808351893"><ele>290.3333333333333</ele><time>2026-05-03T13:44:50Z</time></trkpt><trkpt lat="42.80190136863135" lon="12.44979775660618"><ele>291.0</ele><time>2026-05-03T13:44:51Z</time></trkpt><trkpt lat="42.80196815452159" lon="12.449856371237418"><ele>291.42857142857144</ele><time>2026-05-03T13:44:52Z</time></trkpt><trkpt lat="42.80201990498221" lon="12.449918999681554"><ele>291.85714285714283</ele><time>2026-05-03T13:44:53Z</time></trkpt><trkpt lat="42.80207688216036" lon="12.449977893486913"><ele>292.2857142857143</ele><time>2026-05-03T13:44:54Z</time></trkpt><trkpt lat="42.80213585016737" lon="12.450041930764563"><ele>292.7142857142857</ele><time>2026-05-03T13:44:55Z</time></trkpt><trkpt lat="42.802192972615664" lon="12.450117598884361"><ele>293.1428571428571</ele><time>2026-05-03T13:44:56Z</time></trkpt><trkpt lat="42.802254321073654" lon="12.450183435126497"><ele>293.57142857142856</ele><time>2026-05-03T13:44:57Z</time></trkpt><trkpt lat="42.80231421519945" lon="12.450246348832982"><ele>294.0</ele><time>2026-05-03T13:44:58Z</time></trkpt><trkpt lat="42.802375044958126" lon="12.450308826065077"><ele>294.0</ele><time>2026-05-03T13:44:59Z</time></trkpt><trkpt lat="42.80243325020354" lon="12.450374776383626"><ele>294.0</ele><time>2026-05-03T13:45:00Z</time></trkpt><trkpt lat="42.802492507220094" lon="12.45044074612702"><ele>294.0</ele><time>2026-05-03T13:45:01Z</time></trkpt><trkpt lat="42.80255108426629" lon="12.450504019875344"><ele>294.0</ele><time>2026-05-03T13:45:02Z</time></trkpt><trkpt lat="42.80261642350667" lon="12.45056940966335"><ele>294.0</ele><time>2026-05-03T13:45:03Z</time></trkpt><trkpt lat="42.80268118515748" lon="12.450629104484124"><ele>294.0</ele><time>2026-05-03T13:45:04Z</time></trkpt><trkpt lat="42.802758972303295" lon="12.450697379906623"><ele>294.4</ele><time>2026-05-03T13:45:05Z</time></trkpt><trkpt lat="42.802830218159485" lon="12.45076046523476"><ele>294.79999999999995</ele><time>2026-05-03T13:45:06Z</time></trkpt><trkpt lat="42.80291192605423" lon="12.45084008204512"><ele>295.20000000000005</ele><time>2026-05-03T13:45:07Z</time></trkpt><trkpt lat="42.80298724111624" lon="12.45092034273432"><ele>295.6</ele><time>2026-05-03T13:45:08Z</time></trkpt><trkpt lat="42.803079677090196" lon="12.451004299812011"><ele>296.0</ele><time>2026-05-03T13:45:09Z</time></trkpt><trkpt lat="42.8031725250072" lon="12.451082354925298"><ele>296.0</ele><time>2026-05-03T13:45:10Z</time></trkpt><trkpt lat="42.803267529927076" lon="12.451154462958373"><ele>296.0</ele><time>2026-05-03T13:45:11Z</time></trkpt><trkpt lat="42.80336109411904" lon="12.451231196675849"><ele>296.0</ele><time>2026-05-03T13:45:11.999Z</time></trkpt><trkpt lat="42.803443710692484" lon="12.451321571006037"><ele>296.0</ele><time>2026-05-03T13:45:12.999Z</time></trkpt><trkpt lat="42.80354079492627" lon="12.451395815335085"><ele>296.0</ele><time>2026-05-03T13:45:13.999Z</time></trkpt><trkpt lat="42.80362408696692" lon="12.451488582106915"><ele>295.8</ele><time>2026-05-03T13:45:14.999Z</time></trkpt><trkpt lat="42.803693887578966" lon="12.451591021019087"><ele>295.6</ele><time>2026-05-03T13:45:15.999Z</time></trkpt><trkpt lat="42.80375928240582" lon="12.451700223879394"><ele>295.4</ele><time>2026-05-03T13:45:16.999Z</time></trkpt><trkpt lat="42.803820793240995" lon="12.451816662479262"><ele>295.2</ele><time>2026-05-03T13:45:17.999Z</time></trkpt><trkpt lat="42.80387408822559" lon="12.451937235192329"><ele>295.0</ele><time>2026-05-03T13:45:18.999Z</time></trkpt><trkpt lat="42.80392106699441" lon="12.452064407850317"><ele>295.4</ele><time>2026-05-03T13:45:19.999Z</time></trkpt><trkpt lat="42.80396711029056" lon="12.452194460648547"><ele>295.8</ele><time>2026-05-03T13:45:20.999Z</time></trkpt><trkpt lat="42.80401428546798" lon="12.452323938163243"><ele>296.2</ele><time>2026-05-03T13:45:21.999Z</time></trkpt><trkpt lat="42.80405409574175" lon="12.45245674434097"><ele>296.6</ele><time>2026-05-03T13:45:22.999Z</time></trkpt><trkpt lat="42.804091615289565" lon="12.452596478561968"><ele>297.0</ele><time>2026-05-03T13:45:23.999Z</time></trkpt><trkpt lat="42.80413139634957" lon="12.452736927780801"><ele>297.0</ele><time>2026-05-03T13:45:24.999Z</time></trkpt><trkpt lat="42.80417014810134" lon="12.452874508662386"><ele>297.0</ele><time>2026-05-03T13:45:25.999Z</time></trkpt><trkpt lat="42.8042030879075" lon="12.453007176858039"><ele>297.0</ele><time>2026-05-03T13:45:26.999Z</time></trkpt><trkpt lat="42.80423030434394" lon="12.453142237838467"><ele>297.0</ele><time>2026-05-03T13:45:27.999Z</time></trkpt><trkpt lat="42.804255446962685" lon="12.45328192680748"><ele>297.0</ele><time>2026-05-03T13:45:28.999Z</time></trkpt><trkpt lat="42.80428164662192" lon="12.453419183286035"><ele>297.8</ele><time>2026-05-03T13:45:29.999Z</time></trkpt><trkpt lat="42.80430141836271" lon="12.453553310503732"><ele>298.6</ele><time>2026-05-03T13:45:30.999Z</time></trkpt><trkpt lat="42.80431783389104" lon="12.453701909406886"><ele>299.40000000000003</ele><time>2026-05-03T13:45:31.999Z</time></trkpt><trkpt lat="42.8043327299653" lon="12.453841981585676"><ele>300.2</ele><time>2026-05-03T13:45:32.999Z</time></trkpt><trkpt lat="42.804344153994904" lon="12.453997541851313"><ele>301.0</ele><time>2026-05-03T13:45:33.999Z</time></trkpt><trkpt lat="42.80435923645444" lon="12.454149452490975"><ele>303.2</ele><time>2026-05-03T13:45:34.999Z</time></trkpt><trkpt lat="42.804373883104496" lon="12.454298614067765"><ele>305.40000000000003</ele><time>2026-05-03T13:45:35.999Z</time></trkpt><trkpt lat="42.80437860139857" lon="12.454451600142443"><ele>307.6</ele><time>2026-05-03T13:45:36.999Z</time></trkpt><trkpt lat="42.80438285613431" lon="12.454602984332201"><ele>309.8</ele><time>2026-05-03T13:45:37.999Z</time></trkpt><trkpt lat="42.80438166516297" lon="12.454758158734249"><ele>312.0</ele><time>2026-05-03T13:45:38.999Z</time></trkpt><trkpt lat="42.804367910341334" lon="12.454911448806978"><ele>313.25</ele><time>2026-05-03T13:45:39.999Z</time></trkpt><trkpt lat="42.804347912624856" lon="12.455070911115797"><ele>314.5</ele><time>2026-05-03T13:45:40.999Z</time></trkpt><trkpt lat="42.8043216905886" lon="12.455225450285996"><ele>315.75</ele><time>2026-05-03T13:45:41.999Z</time></trkpt><trkpt lat="42.80429236978529" lon="12.455376660638919"><ele>317.0</ele><time>2026-05-03T13:45:42.999Z</time></trkpt><trkpt lat="42.804267018331" lon="12.455526212701132"><ele>314.5</ele><time>2026-05-03T13:45:43.999Z</time></trkpt><trkpt lat="42.80424505522603" lon="12.455678289939167"><ele>312.0</ele><time>2026-05-03T13:45:44.999Z</time></trkpt><trkpt lat="42.804224147104534" lon="12.455832477998518"><ele>309.5</ele><time>2026-05-03T13:45:45.999Z</time></trkpt><trkpt lat="42.80420165202071" lon="12.455998548304368"><ele>307.0</ele><time>2026-05-03T13:45:46.999Z</time></trkpt><trkpt lat="42.804186185887694" lon="12.456167551564226"><ele>308.0</ele><time>2026-05-03T13:45:47.999Z</time></trkpt><trkpt lat="42.804168278465845" lon="12.45634673087962"><ele>309.0</ele><time>2026-05-03T13:45:48.999Z</time></trkpt><trkpt lat="42.80414619881403" lon="12.45652363994674"><ele>310.0</ele><time>2026-05-03T13:45:49.999Z</time></trkpt><trkpt lat="42.804122886572365" lon="12.456693772667668"><ele>311.0</ele><time>2026-05-03T13:45:50.999Z</time></trkpt><trkpt lat="42.80410548114594" lon="12.456863903645802"><ele>311.0</ele><time>2026-05-03T13:45:51.999Z</time></trkpt><trkpt lat="42.804091502990325" lon="12.457031953376328"><ele>311.0</ele><time>2026-05-03T13:45:52.999Z</time></trkpt><trkpt lat="42.80408280397596" lon="12.45720736727559"><ele>311.0</ele><time>2026-05-03T13:45:53.999Z</time></trkpt><trkpt lat="42.8040831257787" lon="12.457379450248968"><ele>311.0</ele><time>2026-05-03T13:45:54.999Z</time></trkpt><trkpt lat="42.804088287238066" lon="12.457552586206289"><ele>311.25</ele><time>2026-05-03T13:45:55.999Z</time></trkpt><trkpt lat="42.80409781509793" lon="12.457728925751399"><ele>311.5</ele><time>2026-05-03T13:45:56.999Z</time></trkpt><trkpt lat="42.80410564224134" lon="12.457899378117663"><ele>311.75</ele><time>2026-05-03T13:45:57.999Z</time></trkpt><trkpt lat="42.80411581436594" lon="12.458081642443624"><ele>312.0</ele><time>2026-05-03T13:45:58.999Z</time></trkpt><trkpt lat="42.80412898629928" lon="12.458257819244087"><ele>312.0</ele><time>2026-05-03T13:45:59.999Z</time></trkpt><trkpt lat="42.80414013208519" lon="12.458435434857394"><ele>312.0</ele><time>2026-05-03T13:46:00.999Z</time></trkpt><trkpt lat="42.8041488180246" lon="12.458617923317169"><ele>312.0</ele><time>2026-05-03T13:46:01.999Z</time></trkpt><trkpt lat="42.80415463673599" lon="12.45880217567535"><ele>312.0</ele><time>2026-05-03T13:46:02.999Z</time></trkpt><trkpt lat="42.80415642397938" lon="12.45899011068681"><ele>312.75</ele><time>2026-05-03T13:46:03.999Z</time></trkpt><trkpt lat="42.804150365411424" lon="12.459166118595288"><ele>313.5</ele><time>2026-05-03T13:46:04.999Z</time></trkpt><trkpt lat="42.80413573473033" lon="12.459341567757567"><ele>314.25</ele><time>2026-05-03T13:46:05.999Z</time></trkpt><trkpt lat="42.80411302157029" lon="12.459506949420495"><ele>315.0</ele><time>2026-05-03T13:46:06.999Z</time></trkpt><trkpt lat="42.80408312652508" lon="12.4596754053324"><ele>315.25</ele><time>2026-05-03T13:46:07.999Z</time></trkpt><trkpt lat="42.80404736041436" lon="12.459837695390803"><ele>315.5</ele><time>2026-05-03T13:46:08.999Z</time></trkpt><trkpt lat="42.804004794703" lon="12.459997541338838"><ele>315.75</ele><time>2026-05-03T13:46:10Z</time></trkpt><trkpt lat="42.803963789623324" lon="12.46015182636078"><ele>316.0</ele><time>2026-05-03T13:46:11Z</time></trkpt><trkpt lat="42.80392410790466" lon="12.460310034527485"><ele>317.25</ele><time>2026-05-03T13:46:12Z</time></trkpt><trkpt lat="42.80387895172955" lon="12.460471979276566"><ele>318.5</ele><time>2026-05-03T13:46:13Z</time></trkpt><trkpt lat="42.803830637859285" lon="12.46063165669295"><ele>319.75</ele><time>2026-05-03T13:46:14Z</time></trkpt><trkpt lat="42.803781079294936" lon="12.46079131016272"><ele>321.0</ele><time>2026-05-03T13:46:15Z</time></trkpt><trkpt lat="42.80373235388574" lon="12.460951264251348"><ele>321.0</ele><time>2026-05-03T13:46:16Z</time></trkpt><trkpt lat="42.80368381830825" lon="12.461108806770872"><ele>321.0</ele><time>2026-05-03T13:46:17Z</time></trkpt><trkpt lat="42.803634995195104" lon="12.461266110842079"><ele>321.0</ele><time>2026-05-03T13:46:18Z</time></trkpt><trkpt lat="42.803587828686325" lon="12.461421678013293"><ele>321.0</ele><time>2026-05-03T13:46:19Z</time></trkpt><trkpt lat="42.80354338343118" lon="12.46157237184546"><ele>322.25</ele><time>2026-05-03T13:46:20Z</time></trkpt><trkpt lat="42.8035042161906" lon="12.461725001181016"><ele>323.5</ele><time>2026-05-03T13:46:21Z</time></trkpt><trkpt lat="42.80347665869768" lon="12.46187587651524"><ele>324.75</ele><time>2026-05-03T13:46:22Z</time></trkpt><trkpt lat="42.80345848987684" lon="12.462027182768725"><ele>326.0</ele><time>2026-05-03T13:46:23Z</time></trkpt><trkpt lat="42.80344255602787" lon="12.462179004158457"><ele>328.0</ele><time>2026-05-03T13:46:24Z</time></trkpt><trkpt lat="42.803432706029895" lon="12.462334748372104"><ele>330.0</ele><time>2026-05-03T13:46:25Z</time></trkpt><trkpt lat="42.80342463619612" lon="12.462495908607975"><ele>332.0</ele><time>2026-05-03T13:46:26Z</time></trkpt><trkpt lat="42.803419461554604" lon="12.462657795827349"><ele>334.0</ele><time>2026-05-03T13:46:27Z</time></trkpt><trkpt lat="42.80341088203289" lon="12.46281285031626"><ele>335.5</ele><time>2026-05-03T13:46:28Z</time></trkpt><trkpt lat="42.80340616524959" lon="12.462975115242088"><ele>337.0</ele><time>2026-05-03T13:46:29Z</time></trkpt><trkpt lat="42.80340450911964" lon="12.463127058961332"><ele>338.5</ele><time>2026-05-03T13:46:30Z</time></trkpt><trkpt lat="42.803398223020494" lon="12.463290659597051"><ele>340.0</ele><time>2026-05-03T13:46:31Z</time></trkpt><trkpt lat="42.80339175106855" lon="12.463433502504511"><ele>340.0</ele><time>2026-05-03T13:46:32Z</time></trkpt><trkpt lat="42.80338728519228" lon="12.463583408793603"><ele>340.0</ele><time>2026-05-03T13:46:33Z</time></trkpt><trkpt lat="42.80338513056922" lon="12.463720688401834"><ele>340.0</ele><time>2026-05-03T13:46:34Z</time></trkpt><trkpt lat="42.80338748127917" lon="12.463852736878161"><ele>340.0</ele><time>2026-05-03T13:46:35Z</time></trkpt><trkpt lat="42.80339452200691" lon="12.463984668735893"><ele>340.0</ele><time>2026-05-03T13:46:36Z</time></trkpt><trkpt lat="42.80341408482548" lon="12.464112033880584"><ele>340.66666666666663</ele><time>2026-05-03T13:46:37Z</time></trkpt><trkpt lat="42.80344033226005" lon="12.46423796487808"><ele>341.3333333333333</ele><time>2026-05-03T13:46:38Z</time></trkpt><trkpt lat="42.80347197328731" lon="12.464360697144729"><ele>342.0</ele><time>2026-05-03T13:46:39Z</time></trkpt><trkpt lat="42.80350748874286" lon="12.464472802274665"><ele>342.6666666666667</ele><time>2026-05-03T13:46:40Z</time></trkpt><trkpt lat="42.80352544561519" lon="12.4645906556347"><ele>343.33333333333337</ele><time>2026-05-03T13:46:41Z</time></trkpt><trkpt lat="42.803571220383326" lon="12.464678864641437"><ele>344.0</ele><time>2026-05-03T13:46:42Z</time></trkpt><trkpt lat="42.80359782987069" lon="12.464768760457051"><ele>345.2</ele><time>2026-05-03T13:46:43Z</time></trkpt><trkpt lat="42.803640824222285" lon="12.464896295416139"><ele>346.4</ele><time>2026-05-03T13:46:45Z</time></trkpt><trkpt lat="42.80370059110426" lon="12.464992069346408"><ele>347.6</ele><time>2026-05-03T13:46:48Z</time></trkpt><trkpt lat="42.80373386116708" lon="12.465078880483842"><ele>348.8</ele><time>2026-05-03T13:46:50Z</time></trkpt><trkpt lat="42.80378339676898" lon="12.465137113786213"><ele>350.0</ele><time>2026-05-03T13:46:51Z</time></trkpt><trkpt lat="42.80388715355115" lon="12.465230846998738"><ele>350.0</ele><time>2026-05-03T13:46:53Z</time></trkpt><trkpt lat="42.803946301682274" lon="12.4653023837254"><ele>350.0</ele><time>2026-05-03T13:46:54Z</time></trkpt><trkpt lat="42.804011246341915" lon="12.465361671557451"><ele>350.0</ele><time>2026-05-03T13:46:55Z</time></trkpt><trkpt lat="42.80407235322958" lon="12.465447813611181"><ele>350.0</ele><time>2026-05-03T13:46:56Z</time></trkpt><trkpt lat="42.804145526825835" lon="12.46552458357891"><ele>350.0</ele><time>2026-05-03T13:46:57Z</time></trkpt><trkpt lat="42.804225246147965" lon="12.465584096055677"><ele>350.0</ele><time>2026-05-03T13:46:58Z</time></trkpt><trkpt lat="42.80429312421357" lon="12.465659882813052"><ele>350.5</ele><time>2026-05-03T13:46:59Z</time></trkpt><trkpt lat="42.804364330764784" lon="12.465731180172742"><ele>351.0</ele><time>2026-05-03T13:47:00Z</time></trkpt><trkpt lat="42.80443691577224" lon="12.465802726594926"><ele>351.5</ele><time>2026-05-03T13:47:01Z</time></trkpt><trkpt lat="42.80450525640885" lon="12.465880744443767"><ele>352.0</ele><time>2026-05-03T13:47:02Z</time></trkpt><trkpt lat="42.80457007758416" lon="12.465956033767368"><ele>352.5</ele><time>2026-05-03T13:47:03Z</time></trkpt><trkpt lat="42.80463892224091" lon="12.466023892603415"><ele>353.0</ele><time>2026-05-03T13:47:04Z</time></trkpt><trkpt lat="42.80471118922715" lon="12.466093378428475"><ele>353.0</ele><time>2026-05-03T13:47:05Z</time></trkpt><trkpt lat="42.804772251840724" lon="12.46616791421956"><ele>353.0</ele><time>2026-05-03T13:47:06Z</time></trkpt><trkpt lat="42.80483688569491" lon="12.466236673009073"><ele>353.0</ele><time>2026-05-03T13:47:07Z</time></trkpt><trkpt lat="42.804899877711094" lon="12.466300963999243"><ele>353.0</ele><time>2026-05-03T13:47:08Z</time></trkpt><trkpt lat="42.80496059507084" lon="12.466361998985516"><ele>353.0</ele><time>2026-05-03T13:47:09Z</time></trkpt><trkpt lat="42.80501942831841" lon="12.466420906487873"><ele>353.0</ele><time>2026-05-03T13:47:10Z</time></trkpt><trkpt lat="42.80508464637899" lon="12.466485055918216"><ele>354.1666666666667</ele><time>2026-05-03T13:47:11Z</time></trkpt><trkpt lat="42.80515698301209" lon="12.466538166155724"><ele>355.33333333333337</ele><time>2026-05-03T13:47:12Z</time></trkpt><trkpt lat="42.80523897143341" lon="12.466590956569489"><ele>356.5</ele><time>2026-05-03T13:47:13Z</time></trkpt><trkpt lat="42.80531040316034" lon="12.466644452463024"><ele>357.6666666666667</ele><time>2026-05-03T13:47:14Z</time></trkpt><trkpt lat="42.805388030919815" lon="12.466701371963914"><ele>358.8333333333333</ele><time>2026-05-03T13:47:15Z</time></trkpt><trkpt lat="42.80546869841932" lon="12.466749722636637"><ele>360.0</ele><time>2026-05-03T13:47:16Z</time></trkpt><trkpt lat="42.80554264027254" lon="12.466795232587312"><ele>360.0</ele><time>2026-05-03T13:47:17Z</time></trkpt><trkpt lat="42.805616619130376" lon="12.466843524352141"><ele>360.0</ele><time>2026-05-03T13:47:18Z</time></trkpt><trkpt lat="42.80568962840777" lon="12.466896679626734"><ele>360.0</ele><time>2026-05-03T13:47:19Z</time></trkpt><trkpt lat="42.80576406032204" lon="12.466956267420597"><ele>360.0</ele><time>2026-05-03T13:47:20Z</time></trkpt><trkpt lat="42.80582844401316" lon="12.467010738646117"><ele>360.0</ele><time>2026-05-03T13:47:20.999Z</time></trkpt><trkpt lat="42.80588931445712" lon="12.467072636949036"><ele>360.0</ele><time>2026-05-03T13:47:21.999Z</time></trkpt><trkpt lat="42.8059423757959" lon="12.467136401834518"><ele>359.6666666666667</ele><time>2026-05-03T13:47:22.999Z</time></trkpt><trkpt lat="42.80599007841062" lon="12.467208099419114"><ele>359.3333333333333</ele><time>2026-05-03T13:47:23.999Z</time></trkpt><trkpt lat="42.80603759896349" lon="12.467281767488833"><ele>359.0</ele><time>2026-05-03T13:47:24.999Z</time></trkpt><trkpt lat="42.806089686342034" lon="12.467365080154533"><ele>358.66666666666663</ele><time>2026-05-03T13:47:25.999Z</time></trkpt><trkpt lat="42.80614062533212" lon="12.46744161321596"><ele>358.3333333333333</ele><time>2026-05-03T13:47:26.999Z</time></trkpt><trkpt lat="42.806190646026984" lon="12.46751928678946"><ele>358.0</ele><time>2026-05-03T13:47:27.999Z</time></trkpt><trkpt lat="42.806243834797186" lon="12.467604346041485"><ele>358.0</ele><time>2026-05-03T13:47:28.999Z</time></trkpt><trkpt lat="42.8062923551495" lon="12.467684820462264"><ele>358.0</ele><time>2026-05-03T13:47:29.999Z</time></trkpt><trkpt lat="42.806353776037966" lon="12.467772968699308"><ele>358.0</ele><time>2026-05-03T13:47:30.999Z</time></trkpt><trkpt lat="42.80641260159564" lon="12.467859682782073"><ele>358.0</ele><time>2026-05-03T13:47:31.999Z</time></trkpt><trkpt lat="42.806471237662194" lon="12.467955216741073"><ele>358.0</ele><time>2026-05-03T13:47:32.999Z</time></trkpt><trkpt lat="42.8065360762196" lon="12.468050170865228"><ele>358.0</ele><time>2026-05-03T13:47:33.999Z</time></trkpt><trkpt lat="42.80660632009796" lon="12.468149664494474"><ele>358.4</ele><time>2026-05-03T13:47:34.999Z</time></trkpt><trkpt lat="42.80667319051435" lon="12.468250547083484"><ele>358.79999999999995</ele><time>2026-05-03T13:47:35.999Z</time></trkpt><trkpt lat="42.80674739818299" lon="12.468359098834773"><ele>359.2</ele><time>2026-05-03T13:47:36.999Z</time></trkpt><trkpt lat="42.80682013658006" lon="12.468470455988363"><ele>359.6</ele><time>2026-05-03T13:47:37.999Z</time></trkpt><trkpt lat="42.80689194816406" lon="12.46858064952519"><ele>360.0</ele><time>2026-05-03T13:47:38.999Z</time></trkpt><trkpt lat="42.80697220072918" lon="12.468693746107705"><ele>359.0</ele><time>2026-05-03T13:47:39.999Z</time></trkpt><trkpt lat="42.80705971277155" lon="12.468793410645421"><ele>358.0</ele><time>2026-05-03T13:47:40.999Z</time></trkpt><trkpt lat="42.80715379286088" lon="12.468893856246718"><ele>357.0</ele><time>2026-05-03T13:47:41.999Z</time></trkpt><trkpt lat="42.807245576715935" lon="12.468986188437409"><ele>356.0</ele><time>2026-05-03T13:47:42.999Z</time></trkpt><trkpt lat="42.80734209606681" lon="12.469075094835508"><ele>356.0</ele><time>2026-05-03T13:47:43.999Z</time></trkpt><trkpt lat="42.80743400994671" lon="12.469161522949822"><ele>356.0</ele><time>2026-05-03T13:47:44.999Z</time></trkpt><trkpt lat="42.80751924416358" lon="12.469250754766122"><ele>356.0</ele><time>2026-05-03T13:47:45.999Z</time></trkpt><trkpt lat="42.80760330329368" lon="12.469336497556347"><ele>356.0</ele><time>2026-05-03T13:47:46.999Z</time></trkpt><trkpt lat="42.80769080343033" lon="12.46942387693716"><ele>356.0</ele><time>2026-05-03T13:47:47.999Z</time></trkpt><trkpt lat="42.80777418731151" lon="12.469501554738754"><ele>355.8</ele><time>2026-05-03T13:47:48.999Z</time></trkpt><trkpt lat="42.807861388334246" lon="12.46958409125197"><ele>355.6</ele><time>2026-05-03T13:47:49.999Z</time></trkpt><trkpt lat="42.80794949491951" lon="12.46966906863406"><ele>355.4</ele><time>2026-05-03T13:47:50.999Z</time></trkpt><trkpt lat="42.80804013052894" lon="12.469751621169111"><ele>355.2</ele><time>2026-05-03T13:47:51.999Z</time></trkpt><trkpt lat="42.80812414386145" lon="12.469833638890176"><ele>355.0</ele><time>2026-05-03T13:47:52.999Z</time></trkpt><trkpt lat="42.808208119202604" lon="12.469917970260585"><ele>355.0</ele><time>2026-05-03T13:47:53.999Z</time></trkpt><trkpt lat="42.808291995225" lon="12.46999706745893"><ele>355.0</ele><time>2026-05-03T13:47:54.999Z</time></trkpt><trkpt lat="42.808376664485984" lon="12.470073313825678"><ele>355.0</ele><time>2026-05-03T13:47:55.999Z</time></trkpt><trkpt lat="42.80845564365373" lon="12.470157707152822"><ele>355.0</ele><time>2026-05-03T13:47:56.999Z</time></trkpt><trkpt lat="42.80852881774184" lon="12.470232404078214"><ele>355.0</ele><time>2026-05-03T13:47:57.999Z</time></trkpt><trkpt lat="42.80862447203483" lon="12.470313130772347"><ele>355.0</ele><time>2026-05-03T13:47:58.999Z</time></trkpt><trkpt lat="42.80870534551791" lon="12.470385813742464"><ele>355.0</ele><time>2026-05-03T13:47:59.999Z</time></trkpt><trkpt lat="42.80878694272023" lon="12.470469841041673"><ele>355.0</ele><time>2026-05-03T13:48:00.999Z</time></trkpt><trkpt lat="42.808861635160376" lon="12.470551438248517"><ele>355.0</ele><time>2026-05-03T13:48:01.999Z</time></trkpt><trkpt lat="42.8089371840811" lon="12.470636667686135"><ele>355.0</ele><time>2026-05-03T13:48:02.999Z</time></trkpt><trkpt lat="42.80901831514922" lon="12.470727033823188"><ele>355.0</ele><time>2026-05-03T13:48:03.999Z</time></trkpt><trkpt lat="42.80909169227181" lon="12.47082494742624"><ele>355.0</ele><time>2026-05-03T13:48:04.999Z</time></trkpt><trkpt lat="42.80916384477127" lon="12.470922854159959"><ele>355.0</ele><time>2026-05-03T13:48:05.999Z</time></trkpt><trkpt lat="42.80923608847479" lon="12.471025467833424"><ele>355.0</ele><time>2026-05-03T13:48:06.999Z</time></trkpt><trkpt lat="42.80930624622886" lon="12.471131534592622"><ele>355.0</ele><time>2026-05-03T13:48:07.999Z</time></trkpt><trkpt lat="42.80937217338975" lon="12.471240662239945"><ele>354.4</ele><time>2026-05-03T13:48:08.999Z</time></trkpt><trkpt lat="42.809440918881435" lon="12.471349269027607"><ele>353.8</ele><time>2026-05-03T13:48:09.999Z</time></trkpt><trkpt lat="42.80951475882157" lon="12.471440279345574"><ele>353.20000000000005</ele><time>2026-05-03T13:48:10.999Z</time></trkpt><trkpt lat="42.80958457025089" lon="12.471539180524253"><ele>352.6</ele><time>2026-05-03T13:48:11.999Z</time></trkpt><trkpt lat="42.80965545433511" lon="12.471636938700852"><ele>352.0</ele><time>2026-05-03T13:48:12.999Z</time></trkpt><trkpt lat="42.80972046295759" lon="12.471738205527506"><ele>352.0</ele><time>2026-05-03T13:48:13.999Z</time></trkpt><trkpt lat="42.80978474168714" lon="12.471837377927331"><ele>352.0</ele><time>2026-05-03T13:48:14.999Z</time></trkpt><trkpt lat="42.80984866137566" lon="12.47193822378334"><ele>352.0</ele><time>2026-05-03T13:48:16Z</time></trkpt><trkpt lat="42.809912383066255" lon="12.47203340584218"><ele>352.0</ele><time>2026-05-03T13:48:17Z</time></trkpt><trkpt lat="42.809981991759436" lon="12.472133846407822"><ele>352.0</ele><time>2026-05-03T13:48:18Z</time></trkpt><trkpt lat="42.810051107801286" lon="12.472224138098863"><ele>351.40000000000003</ele><time>2026-05-03T13:48:19Z</time></trkpt><trkpt lat="42.81012684256013" lon="12.472307139791507"><ele>350.8</ele><time>2026-05-03T13:48:20Z</time></trkpt><trkpt lat="42.81020430053549" lon="12.472386057400136"><ele>350.2</ele><time>2026-05-03T13:48:21Z</time></trkpt><trkpt lat="42.81028291672261" lon="12.472469656793667"><ele>349.6</ele><time>2026-05-03T13:48:22Z</time></trkpt><trkpt lat="42.81036581419157" lon="12.472557245462673"><ele>349.0</ele><time>2026-05-03T13:48:23Z</time></trkpt><trkpt lat="42.81044777939209" lon="12.472655742443859"><ele>348.79999999999995</ele><time>2026-05-03T13:48:24Z</time></trkpt><trkpt lat="42.81053124547479" lon="12.472755836651597"><ele>348.59999999999997</ele><time>2026-05-03T13:48:25Z</time></trkpt><trkpt lat="42.81061235656268" lon="12.472854115693226"><ele>348.4</ele><time>2026-05-03T13:48:26Z</time></trkpt><trkpt lat="42.81069729492634" lon="12.472940703254674"><ele>348.2</ele><time>2026-05-03T13:48:27Z</time></trkpt><trkpt lat="42.81078109979326" lon="12.473037196768876"><ele>348.0</ele><time>2026-05-03T13:48:28Z</time></trkpt><trkpt lat="42.8108652515552" lon="12.473128059031458"><ele>348.59999999999997</ele><time>2026-05-03T13:48:29Z</time></trkpt><trkpt lat="42.81094821904277" lon="12.473219539682379"><ele>349.2</ele><time>2026-05-03T13:48:30Z</time></trkpt><trkpt lat="42.81102976774923" lon="12.473305357904543"><ele>349.8</ele><time>2026-05-03T13:48:31Z</time></trkpt><trkpt lat="42.81111265187422" lon="12.47339306583806"><ele>350.4</ele><time>2026-05-03T13:48:32Z</time></trkpt><trkpt lat="42.8112019064712" lon="12.473489148717498"><ele>351.0</ele><time>2026-05-03T13:48:33Z</time></trkpt><trkpt lat="42.811293790159624" lon="12.473576185971607"><ele>351.0</ele><time>2026-05-03T13:48:34Z</time></trkpt><trkpt lat="42.81139071054039" lon="12.473659414299835"><ele>351.0</ele><time>2026-05-03T13:48:35Z</time></trkpt><trkpt lat="42.81148645393606" lon="12.473738533768413"><ele>351.0</ele><time>2026-05-03T13:48:36Z</time></trkpt><trkpt lat="42.81158066436881" lon="12.473825388049592"><ele>351.0</ele><time>2026-05-03T13:48:37Z</time></trkpt><trkpt lat="42.81167813868126" lon="12.473911355235114"><ele>352.4</ele><time>2026-05-03T13:48:38Z</time></trkpt><trkpt lat="42.81177769844729" lon="12.473993581338176"><ele>353.8</ele><time>2026-05-03T13:48:39Z</time></trkpt><trkpt lat="42.81186875128765" lon="12.474075751206517"><ele>355.2</ele><time>2026-05-03T13:48:40Z</time></trkpt><trkpt lat="42.811962819324016" lon="12.474155372264303"><ele>356.59999999999997</ele><time>2026-05-03T13:48:41Z</time></trkpt><trkpt lat="42.81205353365119" lon="12.47423215895861"><ele>358.0</ele><time>2026-05-03T13:48:42Z</time></trkpt><trkpt lat="42.81213844563731" lon="12.47431309874174"><ele>359.0</ele><time>2026-05-03T13:48:43Z</time></trkpt><trkpt lat="42.81222716227382" lon="12.474397819003757"><ele>360.0</ele><time>2026-05-03T13:48:44Z</time></trkpt><trkpt lat="42.81231545511207" lon="12.474491653972809"><ele>361.0</ele><time>2026-05-03T13:48:45Z</time></trkpt><trkpt lat="42.81238961328723" lon="12.474583854416153"><ele>362.0</ele><time>2026-05-03T13:48:46Z</time></trkpt><trkpt lat="42.812455643155864" lon="12.47468569590784"><ele>363.0</ele><time>2026-05-03T13:48:47Z</time></trkpt><trkpt lat="42.81251853314718" lon="12.474800962820039"><ele>364.59999999999997</ele><time>2026-05-03T13:48:48Z</time></trkpt><trkpt lat="42.812577630531386" lon="12.474914443662799"><ele>366.2</ele><time>2026-05-03T13:48:49Z</time></trkpt><trkpt lat="42.812638536719206" lon="12.475032822129764"><ele>367.8</ele><time>2026-05-03T13:48:50Z</time></trkpt><trkpt lat="42.81270364882194" lon="12.475147134269276"><ele>369.4</ele><time>2026-05-03T13:48:51Z</time></trkpt><trkpt lat="42.81276645954136" lon="12.475258091333835"><ele>371.0</ele><time>2026-05-03T13:48:52Z</time></trkpt><trkpt lat="42.81282681026065" lon="12.47534500429081"><ele>371.6</ele><time>2026-05-03T13:48:53Z</time></trkpt><trkpt lat="42.81289110468046" lon="12.475430261514623"><ele>372.20000000000005</ele><time>2026-05-03T13:48:54Z</time></trkpt><trkpt lat="42.81296159262483" lon="12.475502459768238"><ele>372.79999999999995</ele><time>2026-05-03T13:48:55Z</time></trkpt><trkpt lat="42.81303805350581" lon="12.475565328073031"><ele>373.4</ele><time>2026-05-03T13:48:56Z</time></trkpt><trkpt lat="42.81311317383649" lon="12.475629600421488"><ele>374.0</ele><time>2026-05-03T13:48:57Z</time></trkpt><trkpt lat="42.81319839150308" lon="12.47571228334346"><ele>374.0</ele><time>2026-05-03T13:48:58Z</time></trkpt><trkpt lat="42.813272320965886" lon="12.475794100468937"><ele>374.0</ele><time>2026-05-03T13:48:59Z</time></trkpt><trkpt lat="42.81334414242267" lon="12.475882222292224"><ele>374.0</ele><time>2026-05-03T13:49:00Z</time></trkpt><trkpt lat="42.81341980389242" lon="12.475964807640782"><ele>374.0</ele><time>2026-05-03T13:49:01Z</time></trkpt><trkpt lat="42.81349900627767" lon="12.476053249260808"><ele>374.0</ele><time>2026-05-03T13:49:02Z</time></trkpt><trkpt lat="42.81357027885218" lon="12.47613199464957"><ele>375.2</ele><time>2026-05-03T13:49:03Z</time></trkpt><trkpt lat="42.813646902464505" lon="12.476210782045012"><ele>376.4</ele><time>2026-05-03T13:49:04Z</time></trkpt><trkpt lat="42.81372505852005" lon="12.476287430394018"><ele>377.6</ele><time>2026-05-03T13:49:05Z</time></trkpt><trkpt lat="42.81380814748487" lon="12.476356188053856"><ele>378.8</ele><time>2026-05-03T13:49:06Z</time></trkpt><trkpt lat="42.813887252943395" lon="12.476437077298423"><ele>380.0</ele><time>2026-05-03T13:49:07Z</time></trkpt><trkpt lat="42.813963177481455" lon="12.47650796998171"><ele>380.0</ele><time>2026-05-03T13:49:08Z</time></trkpt><trkpt lat="42.81402532378464" lon="12.476562536252898"><ele>380.0</ele><time>2026-05-03T13:49:09Z</time></trkpt><trkpt lat="42.81410735609031" lon="12.476623219652756"><ele>380.0</ele><time>2026-05-03T13:49:11Z</time></trkpt><trkpt lat="42.81414941905308" lon="12.476698682617203"><ele>380.0</ele><time>2026-05-03T13:52:48Z</time></trkpt><trkpt lat="42.81423094822962" lon="12.476793023452583"><ele>380.0</ele><time>2026-05-03T13:52:51Z</time></trkpt><trkpt lat="42.814290470518024" lon="12.476914427787685"><ele>380.1666666666667</ele><time>2026-05-03T13:52:53Z</time></trkpt><trkpt lat="42.81433040463165" lon="12.477072152285249"><ele>380.33333333333337</ele><time>2026-05-03T13:52:55Z</time></trkpt><trkpt lat="42.81435792263612" lon="12.477159410414828"><ele>380.5</ele><time>2026-05-03T13:52:56Z</time></trkpt><trkpt lat="42.81438581400113" lon="12.477246022427947"><ele>380.6666666666667</ele><time>2026-05-03T13:52:57Z</time></trkpt><trkpt lat="42.81441417888977" lon="12.477330342499855"><ele>380.8333333333333</ele><time>2026-05-03T13:52:58Z</time></trkpt><trkpt lat="42.81443953057535" lon="12.477423994312117"><ele>381.0</ele><time>2026-05-03T13:52:59Z</time></trkpt><trkpt lat="42.81445880457232" lon="12.477521073427825"><ele>381.0</ele><time>2026-05-03T13:53:00Z</time></trkpt><trkpt lat="42.8144823235061" lon="12.477620555684851"><ele>381.0</ele><time>2026-05-03T13:53:01Z</time></trkpt><trkpt lat="42.81450643622907" lon="12.477714531887923"><ele>381.0</ele><time>2026-05-03T13:53:02Z</time></trkpt><trkpt lat="42.81453333188257" lon="12.47780577627696"><ele>381.0</ele><time>2026-05-03T13:53:03Z</time></trkpt><trkpt lat="42.81455713165605" lon="12.477886848381836"><ele>381.0</ele><time>2026-05-03T13:53:04Z</time></trkpt><trkpt lat="42.81457823316761" lon="12.477973700383053"><ele>381.0</ele><time>2026-05-03T13:53:05Z</time></trkpt><trkpt lat="42.814596916456416" lon="12.47806238308547"><ele>381.0</ele><time>2026-05-03T13:53:06Z</time></trkpt><trkpt lat="42.81461896927487" lon="12.478153067384097"><ele>381.85714285714283</ele><time>2026-05-03T13:53:07Z</time></trkpt><trkpt lat="42.81464247955547" lon="12.478244866940264"><ele>382.7142857142857</ele><time>2026-05-03T13:53:08Z</time></trkpt><trkpt lat="42.81466691056079" lon="12.4783375956874"><ele>383.57142857142856</ele><time>2026-05-03T13:53:09Z</time></trkpt><trkpt lat="42.81468927036244" lon="12.478429565718649"><ele>384.42857142857144</ele><time>2026-05-03T13:53:10Z</time></trkpt><trkpt lat="42.814709404683526" lon="12.478517772816861"><ele>385.28571428571433</ele><time>2026-05-03T13:53:11Z</time></trkpt><trkpt lat="42.81472863445291" lon="12.478600768923515"><ele>386.14285714285717</ele><time>2026-05-03T13:53:12Z</time></trkpt><trkpt lat="42.81474960776212" lon="12.478687914481327"><ele>387.0</ele><time>2026-05-03T13:53:13Z</time></trkpt><trkpt lat="42.81477129746448" lon="12.47877262028629"><ele>387.42857142857144</ele><time>2026-05-03T13:53:14Z</time></trkpt><trkpt lat="42.81479939319222" lon="12.47886343165269"><ele>387.8571428571429</ele><time>2026-05-03T13:53:15Z</time></trkpt><trkpt lat="42.81483223972143" lon="12.478952046944526"><ele>388.2857142857143</ele><time>2026-05-03T13:53:16Z</time></trkpt><trkpt lat="42.814865444844806" lon="12.479034939334346"><ele>388.7142857142857</ele><time>2026-05-03T13:53:17Z</time></trkpt><trkpt lat="42.81490176327995" lon="12.479120842629102"><ele>389.1428571428571</ele><time>2026-05-03T13:53:18Z</time></trkpt><trkpt lat="42.814940484584085" lon="12.47920395258696"><ele>389.57142857142856</ele><time>2026-05-03T13:53:19Z</time></trkpt><trkpt lat="42.8149843728624" lon="12.479294363166163"><ele>390.0</ele><time>2026-05-03T13:53:20Z</time></trkpt><trkpt lat="42.815027865512405" lon="12.479390528439"><ele>390.0</ele><time>2026-05-03T13:53:21Z</time></trkpt><trkpt lat="42.81507201334014" lon="12.479488057627371"><ele>390.0</ele><time>2026-05-03T13:53:22Z</time></trkpt><trkpt lat="42.81512015038727" lon="12.479581776887585"><ele>390.0</ele><time>2026-05-03T13:53:23Z</time></trkpt><trkpt lat="42.8151679644109" lon="12.479677587279417"><ele>390.0</ele><time>2026-05-03T13:53:24Z</time></trkpt><trkpt lat="42.81521245630658" lon="12.479771837084693"><ele>390.0</ele><time>2026-05-03T13:53:25Z</time></trkpt><trkpt lat="42.81525721864567" lon="12.479872352174915"><ele>390.0</ele><time>2026-05-03T13:53:26Z</time></trkpt><trkpt lat="42.815301945794516" lon="12.479970250857944"><ele>391.0</ele><time>2026-05-03T13:53:27Z</time></trkpt><trkpt lat="42.81534243870361" lon="12.480067841103574"><ele>392.0</ele><time>2026-05-03T13:53:28Z</time></trkpt><trkpt lat="42.815380169314935" lon="12.48016608332416"><ele>393.0</ele><time>2026-05-03T13:53:29Z</time></trkpt><trkpt lat="42.81542223386876" lon="12.480264097407012"><ele>394.0</ele><time>2026-05-03T13:53:30Z</time></trkpt><trkpt lat="42.81546697909832" lon="12.480363624924781"><ele>395.0</ele><time>2026-05-03T13:53:31Z</time></trkpt><trkpt lat="42.81551574257945" lon="12.480471567698872"><ele>396.0</ele><time>2026-05-03T13:53:32Z</time></trkpt><trkpt lat="42.815561390333684" lon="12.480579524881152"><ele>396.0</ele><time>2026-05-03T13:53:33Z</time></trkpt><trkpt lat="42.81560318540648" lon="12.480691154748364"><ele>396.0</ele><time>2026-05-03T13:53:33.999Z</time></trkpt><trkpt lat="42.81562932943077" lon="12.48080886582702"><ele>396.0</ele><time>2026-05-03T13:53:34.999Z</time></trkpt><trkpt lat="42.81567348582434" lon="12.48090983814756"><ele>396.0</ele><time>2026-05-03T13:53:35.999Z</time></trkpt><trkpt lat="42.815699476504726" lon="12.481020484268658"><ele>396.0</ele><time>2026-05-03T13:53:36.999Z</time></trkpt><trkpt lat="42.815728967562" lon="12.481122864545453"><ele>396.0</ele><time>2026-05-03T13:53:37.999Z</time></trkpt><trkpt lat="42.81575764524066" lon="12.481225145441801"><ele>395.8333333333333</ele><time>2026-05-03T13:53:38.999Z</time></trkpt><trkpt lat="42.81578357711529" lon="12.481324728698862"><ele>395.66666666666663</ele><time>2026-05-03T13:53:39.999Z</time></trkpt><trkpt lat="42.81580957174655" lon="12.481428083149234"><ele>395.5</ele><time>2026-05-03T13:53:40.999Z</time></trkpt><trkpt lat="42.8158353134809" lon="12.48152934723003"><ele>395.3333333333333</ele><time>2026-05-03T13:53:41.999Z</time></trkpt><trkpt lat="42.81585971281106" lon="12.481627614254666"><ele>395.16666666666663</ele><time>2026-05-03T13:53:42.999Z</time></trkpt><trkpt lat="42.81588225972477" lon="12.481732298637974"><ele>395.0</ele><time>2026-05-03T13:53:43.999Z</time></trkpt><trkpt lat="42.815902540278245" lon="12.481833045355721"><ele>394.99999999999994</ele><time>2026-05-03T13:53:44.999Z</time></trkpt><trkpt lat="42.81592385442114" lon="12.481938001004616"><ele>395.0</ele><time>2026-05-03T13:53:45.999Z</time></trkpt><trkpt lat="42.815944219805836" lon="12.482039072059012"><ele>395.0</ele><time>2026-05-03T13:53:46.999Z</time></trkpt><trkpt lat="42.81596531600138" lon="12.482135385586924"><ele>395.0</ele><time>2026-05-03T13:53:47.999Z</time></trkpt><trkpt lat="42.815982621569184" lon="12.482235483878988"><ele>394.99999999999994</ele><time>2026-05-03T13:53:48.999Z</time></trkpt><trkpt lat="42.81599804944001" lon="12.482338443433168"><ele>395.0</ele><time>2026-05-03T13:53:49.999Z</time></trkpt><trkpt lat="42.816014910958586" lon="12.482449272500853"><ele>394.4</ele><time>2026-05-03T13:53:50.999Z</time></trkpt><trkpt lat="42.816037725644215" lon="12.482568747463123"><ele>393.8</ele><time>2026-05-03T13:53:51.999Z</time></trkpt><trkpt lat="42.816060833777655" lon="12.482687355920543"><ele>393.20000000000005</ele><time>2026-05-03T13:53:52.999Z</time></trkpt><trkpt lat="42.816084752956016" lon="12.482811601899158"><ele>392.6</ele><time>2026-05-03T13:53:53.999Z</time></trkpt><trkpt lat="42.81611160504642" lon="12.482934221891878"><ele>392.0</ele><time>2026-05-03T13:53:54.999Z</time></trkpt><trkpt lat="42.81614064278813" lon="12.48305864522391"><ele>393.20000000000005</ele><time>2026-05-03T13:53:55.999Z</time></trkpt><trkpt lat="42.81617076451001" lon="12.483186150358877"><ele>394.4</ele><time>2026-05-03T13:53:56.999Z</time></trkpt><trkpt lat="42.81620049761789" lon="12.483310101350613"><ele>395.6</ele><time>2026-05-03T13:53:57.999Z</time></trkpt><trkpt lat="42.81622369081402" lon="12.483430189246253"><ele>396.79999999999995</ele><time>2026-05-03T13:53:58.999Z</time></trkpt><trkpt lat="42.81625237679385" lon="12.483551467703995"><ele>398.0</ele><time>2026-05-03T13:53:59.999Z</time></trkpt><trkpt lat="42.816277800365846" lon="12.48367126046924"><ele>399.2</ele><time>2026-05-03T13:54:00.999Z</time></trkpt><trkpt lat="42.8163071123563" lon="12.483792162947328"><ele>400.4</ele><time>2026-05-03T13:54:01.999Z</time></trkpt><trkpt lat="42.816336802196965" lon="12.483909464259376"><ele>401.59999999999997</ele><time>2026-05-03T13:54:02.999Z</time></trkpt><trkpt lat="42.816364771413404" lon="12.484025444362022"><ele>402.79999999999995</ele><time>2026-05-03T13:54:03.999Z</time></trkpt><trkpt lat="42.81639053865901" lon="12.48414075172669"><ele>404.0</ele><time>2026-05-03T13:54:04.999Z</time></trkpt><trkpt lat="42.81641707765025" lon="12.484262307694"><ele>403.99999999999994</ele><time>2026-05-03T13:54:05.999Z</time></trkpt><trkpt lat="42.81644434821195" lon="12.484383353779176"><ele>404.0</ele><time>2026-05-03T13:54:06.999Z</time></trkpt><trkpt lat="42.81646990946254" lon="12.484500316126619"><ele>404.0</ele><time>2026-05-03T13:54:07.999Z</time></trkpt><trkpt lat="42.81649784452008" lon="12.484621195959207"><ele>404.0</ele><time>2026-05-03T13:54:08.999Z</time></trkpt><trkpt lat="42.81652443997104" lon="12.484735629854864"><ele>403.99999999999994</ele><time>2026-05-03T13:54:09.999Z</time></trkpt><trkpt lat="42.816549826126334" lon="12.484840247076951"><ele>404.0</ele><time>2026-05-03T13:54:10.999Z</time></trkpt><trkpt lat="42.81658164690812" lon="12.484942604384731"><ele>404.57142857142856</ele><time>2026-05-03T13:54:11.999Z</time></trkpt><trkpt lat="42.816620134218034" lon="12.485028208086124"><ele>405.1428571428571</ele><time>2026-05-03T13:54:12.999Z</time></trkpt><trkpt lat="42.81666283267903" lon="12.48510741676386"><ele>405.7142857142857</ele><time>2026-05-03T13:54:13.999Z</time></trkpt><trkpt lat="42.81670526468682" lon="12.48517917917255"><ele>406.2857142857143</ele><time>2026-05-03T13:54:14.999Z</time></trkpt><trkpt lat="42.81675167712657" lon="12.485249879849539"><ele>406.8571428571429</ele><time>2026-05-03T13:54:15.999Z</time></trkpt><trkpt lat="42.81679845654092" lon="12.485334736052375"><ele>407.42857142857144</ele><time>2026-05-03T13:54:16.999Z</time></trkpt><trkpt lat="42.81684183385184" lon="12.485418036129825"><ele>408.0</ele><time>2026-05-03T13:54:17.999Z</time></trkpt><trkpt lat="42.81689032790283" lon="12.48551362931941"><ele>408.8333333333333</ele><time>2026-05-03T13:54:18.999Z</time></trkpt><trkpt lat="42.81693679842541" lon="12.485609961550047"><ele>409.66666666666663</ele><time>2026-05-03T13:54:19.999Z</time></trkpt><trkpt lat="42.81696328068371" lon="12.485728326074556"><ele>410.5</ele><time>2026-05-03T13:54:20.999Z</time></trkpt><trkpt lat="42.8170110358411" lon="12.485834369868101"><ele>411.3333333333333</ele><time>2026-05-03T13:54:21.999Z</time></trkpt><trkpt lat="42.817044381542274" lon="12.485944904321817"><ele>412.16666666666663</ele><time>2026-05-03T13:54:22.999Z</time></trkpt><trkpt lat="42.81708161357257" lon="12.486059110449753"><ele>413.0</ele><time>2026-05-03T13:54:23.999Z</time></trkpt><trkpt lat="42.81711921194863" lon="12.486169659135088"><ele>411.79999999999995</ele><time>2026-05-03T13:54:24.999Z</time></trkpt><trkpt lat="42.81717071581345" lon="12.486279908245468"><ele>410.6</ele><time>2026-05-03T13:54:25.999Z</time></trkpt><trkpt lat="42.817219052127825" lon="12.486392073493521"><ele>409.4</ele><time>2026-05-03T13:54:26.999Z</time></trkpt><trkpt lat="42.8172699952007" lon="12.486494782751885"><ele>408.20000000000005</ele><time>2026-05-03T13:54:27.999Z</time></trkpt><trkpt lat="42.817320432405445" lon="12.48659768955368"><ele>407.0</ele><time>2026-05-03T13:54:28.999Z</time></trkpt><trkpt lat="42.81736735140097" lon="12.486704517196728"><ele>407.0</ele><time>2026-05-03T13:54:29.999Z</time></trkpt><trkpt lat="42.81741805110356" lon="12.48681132216484"><ele>407.0</ele><time>2026-05-03T13:54:30.999Z</time></trkpt><trkpt lat="42.81746673094243" lon="12.48690741938667"><ele>407.0</ele><time>2026-05-03T13:54:31.999Z</time></trkpt><trkpt lat="42.81751857592132" lon="12.487010575494612"><ele>407.0</ele><time>2026-05-03T13:54:32.999Z</time></trkpt><trkpt lat="42.81756982509994" lon="12.487112271453633"><ele>407.0</ele><time>2026-05-03T13:54:34Z</time></trkpt><trkpt lat="42.81762265859017" lon="12.487216663345865"><ele>408.3333333333333</ele><time>2026-05-03T13:54:35Z</time></trkpt><trkpt lat="42.817674958847455" lon="12.487320598183551"><ele>409.66666666666663</ele><time>2026-05-03T13:54:36Z</time></trkpt><trkpt lat="42.81772335315866" lon="12.48742182464428"><ele>411.0</ele><time>2026-05-03T13:54:37Z</time></trkpt><trkpt lat="42.81777372377573" lon="12.487520326180118"><ele>412.33333333333337</ele><time>2026-05-03T13:54:38Z</time></trkpt><trkpt lat="42.81782093871332" lon="12.487614666006273"><ele>413.6666666666667</ele><time>2026-05-03T13:54:39Z</time></trkpt><trkpt lat="42.817868057518524" lon="12.487716369077617"><ele>415.0</ele><time>2026-05-03T13:54:40Z</time></trkpt><trkpt lat="42.81791804354854" lon="12.487819030888637"><ele>415.0</ele><time>2026-05-03T13:54:41Z</time></trkpt><trkpt lat="42.81796869537954" lon="12.48791923343248"><ele>415.0</ele><time>2026-05-03T13:54:42Z</time></trkpt><trkpt lat="42.81802741490192" lon="12.488014385641081"><ele>415.0</ele><time>2026-05-03T13:54:43Z</time></trkpt><trkpt lat="42.81807992982572" lon="12.488120683076572"><ele>415.0</ele><time>2026-05-03T13:54:44Z</time></trkpt><trkpt lat="42.81813426441127" lon="12.488221032270735"><ele>415.0</ele><time>2026-05-03T13:54:45Z</time></trkpt><trkpt lat="42.818186983159514" lon="12.48832500422275"><ele>416.4</ele><time>2026-05-03T13:54:46Z</time></trkpt><trkpt lat="42.81823538762964" lon="12.488430436340655"><ele>417.8</ele><time>2026-05-03T13:54:47Z</time></trkpt><trkpt lat="42.81828431616554" lon="12.48854053300317"><ele>419.20000000000005</ele><time>2026-05-03T13:54:48Z</time></trkpt><trkpt lat="42.818328666977216" lon="12.488650595303142"><ele>420.6</ele><time>2026-05-03T13:54:49Z</time></trkpt><trkpt lat="42.818361940020324" lon="12.488767396206892"><ele>422.0</ele><time>2026-05-03T13:54:50Z</time></trkpt><trkpt lat="42.818385288019236" lon="12.488885144394157"><ele>422.16666666666663</ele><time>2026-05-03T13:54:51Z</time></trkpt><trkpt lat="42.81840074805274" lon="12.489003218968229"><ele>422.3333333333333</ele><time>2026-05-03T13:54:52Z</time></trkpt><trkpt lat="42.81841430423696" lon="12.48912408068551"><ele>422.5</ele><time>2026-05-03T13:54:53Z</time></trkpt><trkpt lat="42.81843412113189" lon="12.489236812502423"><ele>422.66666666666663</ele><time>2026-05-03T13:54:54Z</time></trkpt><trkpt lat="42.81845577855531" lon="12.489348452597202"><ele>422.8333333333333</ele><time>2026-05-03T13:54:55Z</time></trkpt><trkpt lat="42.81848507406972" lon="12.48945327975826"><ele>423.0</ele><time>2026-05-03T13:54:56Z</time></trkpt><trkpt lat="42.818515194577344" lon="12.489558618358828"><ele>426.59999999999997</ele><time>2026-05-03T13:54:57Z</time></trkpt><trkpt lat="42.81854517637788" lon="12.489657867714818"><ele>430.2</ele><time>2026-05-03T13:54:58Z</time></trkpt><trkpt lat="42.81857269923438" lon="12.489741752795766"><ele>433.8</ele><time>2026-05-03T13:54:59Z</time></trkpt><trkpt lat="42.81862688668012" lon="12.489892043545826"><ele>437.4</ele><time>2026-05-03T13:55:01Z</time></trkpt><trkpt lat="42.8186947686168" lon="12.490050377029819"><ele>441.0</ele><time>2026-05-03T13:55:03Z</time></trkpt><trkpt lat="42.81873771227351" lon="12.490127648915637"><ele>441.0</ele><time>2026-05-03T13:55:04Z</time></trkpt><trkpt lat="42.81878483173118" lon="12.490199172684388"><ele>441.0</ele><time>2026-05-03T13:55:05Z</time></trkpt><trkpt lat="42.81883477887769" lon="12.490259199659018"><ele>441.0</ele><time>2026-05-03T13:55:06Z</time></trkpt><trkpt lat="42.81889394509807" lon="12.49031366165724"><ele>441.0</ele><time>2026-05-03T13:55:07Z</time></trkpt><trkpt lat="42.818958018038536" lon="12.490357027235786"><ele>441.0</ele><time>2026-05-03T13:55:08Z</time></trkpt><trkpt lat="42.819026490733435" lon="12.490391809193941"><ele>441.0</ele><time>2026-05-03T13:55:09Z</time></trkpt><trkpt lat="42.81909464661573" lon="12.490423885598029"><ele>441.0</ele><time>2026-05-03T13:55:10Z</time></trkpt><trkpt lat="42.81916916570474" lon="12.490456342189509"><ele>441.0</ele><time>2026-05-03T13:55:11Z</time></trkpt><trkpt lat="42.81924220948663" lon="12.490489657341998"><ele>441.0</ele><time>2026-05-03T13:55:12Z</time></trkpt><trkpt lat="42.81932093863451" lon="12.490524765154312"><ele>441.0</ele><time>2026-05-03T13:55:13Z</time></trkpt><trkpt lat="42.819392484382924" lon="12.490558975148893"><ele>441.0</ele><time>2026-05-03T13:55:14Z</time></trkpt><trkpt lat="42.81946653334767" lon="12.490589277575681"><ele>441.0</ele><time>2026-05-03T13:55:15Z</time></trkpt><trkpt lat="42.81954056160478" lon="12.490615316992052"><ele>441.0</ele><time>2026-05-03T13:55:16Z</time></trkpt><trkpt lat="42.81961309758114" lon="12.490641704493827"><ele>441.0</ele><time>2026-05-03T13:55:17Z</time></trkpt><trkpt lat="42.81969030518386" lon="12.490668518814623"><ele>441.0</ele><time>2026-05-03T13:55:18Z</time></trkpt><trkpt lat="42.81977303331919" lon="12.490699206347797"><ele>441.0</ele><time>2026-05-03T13:55:19Z</time></trkpt><trkpt lat="42.81986167113664" lon="12.490732961118965"><ele>441.0</ele><time>2026-05-03T13:55:20Z</time></trkpt><trkpt lat="42.81995242941211" lon="12.490767695025916"><ele>441.0</ele><time>2026-05-03T13:55:21Z</time></trkpt><trkpt lat="42.82004230380559" lon="12.49080368648368"><ele>441.0</ele><time>2026-05-03T13:55:22Z</time></trkpt><trkpt lat="42.82013347795049" lon="12.490830259470703"><ele>441.20000000000005</ele><time>2026-05-03T13:55:23Z</time></trkpt><trkpt lat="42.820222783539556" lon="12.490849815712842"><ele>441.40000000000003</ele><time>2026-05-03T13:55:24Z</time></trkpt><trkpt lat="42.82031465106421" lon="12.490864771304393"><ele>441.6</ele><time>2026-05-03T13:55:25Z</time></trkpt><trkpt lat="42.82040495221053" lon="12.490878273879847"><ele>441.8</ele><time>2026-05-03T13:55:26Z</time></trkpt><trkpt lat="42.82050029420731" lon="12.490889520107576"><ele>442.0</ele><time>2026-05-03T13:55:27Z</time></trkpt><trkpt lat="42.820587021859446" lon="12.490902054733333"><ele>442.00000000000006</ele><time>2026-05-03T13:55:28Z</time></trkpt><trkpt lat="42.820682415299885" lon="12.490916890586872"><ele>442.0</ele><time>2026-05-03T13:55:29Z</time></trkpt><trkpt lat="42.82077308666265" lon="12.490935042968541"><ele>442.0</ele><time>2026-05-03T13:55:30Z</time></trkpt><trkpt lat="42.82086159350489" lon="12.490961009246561"><ele>442.0</ele><time>2026-05-03T13:55:31Z</time></trkpt><trkpt lat="42.820936667043085" lon="12.491007832039292"><ele>442.00000000000006</ele><time>2026-05-03T13:55:32Z</time></trkpt><trkpt lat="42.82100484155746" lon="12.491073965556101"><ele>442.0</ele><time>2026-05-03T13:55:33Z</time></trkpt><trkpt lat="42.82106799023227" lon="12.491152418122738"><ele>442.0</ele><time>2026-05-03T13:55:34Z</time></trkpt><trkpt lat="42.82113809793879" lon="12.491240096550413"><ele>442.00000000000006</ele><time>2026-05-03T13:55:35Z</time></trkpt><trkpt lat="42.82121826189156" lon="12.49132683398019"><ele>442.00000000000006</ele><time>2026-05-03T13:55:36Z</time></trkpt><trkpt lat="42.82130150004233" lon="12.49141395494316"><ele>442.0</ele><time>2026-05-03T13:55:37Z</time></trkpt><trkpt lat="42.82137335090002" lon="12.491502116886531"><ele>442.0</ele><time>2026-05-03T13:55:38Z</time></trkpt><trkpt lat="42.82146035516121" lon="12.491590324574876"><ele>442.0</ele><time>2026-05-03T13:55:39Z</time></trkpt><trkpt lat="42.82154053318121" lon="12.49168278043074"><ele>442.00000000000006</ele><time>2026-05-03T13:55:40Z</time></trkpt><trkpt lat="42.82161801913953" lon="12.491776781220162"><ele>442.00000000000006</ele><time>2026-05-03T13:55:41Z</time></trkpt><trkpt lat="42.8216993230852" lon="12.491872332884242"><ele>442.0</ele><time>2026-05-03T13:55:42Z</time></trkpt><trkpt lat="42.82178254128119" lon="12.491964984428256"><ele>442.0</ele><time>2026-05-03T13:55:43Z</time></trkpt><trkpt lat="42.821869616371615" lon="12.492062702238679"><ele>443.0</ele><time>2026-05-03T13:55:44Z</time></trkpt><trkpt lat="42.821953664058626" lon="12.49215497720986"><ele>444.00000000000006</ele><time>2026-05-03T13:55:45Z</time></trkpt><trkpt lat="42.82203532933283" lon="12.492245087994924"><ele>445.00000000000006</ele><time>2026-05-03T13:55:46Z</time></trkpt><trkpt lat="42.822116500126505" lon="12.492334204061196"><ele>446.0</ele><time>2026-05-03T13:55:47Z</time></trkpt><trkpt lat="42.822190055335035" lon="12.492413185224592"><ele>447.0</ele><time>2026-05-03T13:55:48Z</time></trkpt><trkpt lat="42.82226595324449" lon="12.4924966046659"><ele>447.0</ele><time>2026-05-03T13:55:49Z</time></trkpt><trkpt lat="42.82234120634714" lon="12.49257885152725"><ele>447.00000000000006</ele><time>2026-05-03T13:55:50Z</time></trkpt><trkpt lat="42.82241941582374" lon="12.492655981090342"><ele>447.00000000000006</ele><time>2026-05-03T13:55:51Z</time></trkpt><trkpt lat="42.822501456662344" lon="12.492722633748636"><ele>447.0</ele><time>2026-05-03T13:55:52Z</time></trkpt><trkpt lat="42.82257877812361" lon="12.492776591725123"><ele>447.0</ele><time>2026-05-03T13:55:53Z</time></trkpt><trkpt lat="42.82265525178802" lon="12.492818926693236"><ele>447.0</ele><time>2026-05-03T13:55:54Z</time></trkpt><trkpt lat="42.822734697593134" lon="12.492857911217826"><ele>447.00000000000006</ele><time>2026-05-03T13:55:55Z</time></trkpt><trkpt lat="42.822821020234905" lon="12.4929013609193"><ele>447.00000000000006</ele><time>2026-05-03T13:55:56Z</time></trkpt><trkpt lat="42.82290979864666" lon="12.49294818171101"><ele>447.0</ele><time>2026-05-03T13:55:57Z</time></trkpt><trkpt lat="42.823001517515664" lon="12.492994748930656"><ele>447.0</ele><time>2026-05-03T13:55:58Z</time></trkpt><trkpt lat="42.82309177563186" lon="12.49303859808636"><ele>447.0</ele><time>2026-05-03T13:55:59Z</time></trkpt><trkpt lat="42.8231847246066" lon="12.493086337492173"><ele>447.00000000000006</ele><time>2026-05-03T13:56:00Z</time></trkpt><trkpt lat="42.823268222915075" lon="12.493128226969546"><ele>447.00000000000006</ele><time>2026-05-03T13:56:01Z</time></trkpt><trkpt lat="42.823345157553995" lon="12.49317604879744"><ele>447.0</ele><time>2026-05-03T13:56:02Z</time></trkpt><trkpt lat="42.823431564477445" lon="12.49322364002701"><ele>447.0</ele><time>2026-05-03T13:56:02.999Z</time></trkpt><trkpt lat="42.82351590305072" lon="12.493270140046816"><ele>447.5</ele><time>2026-05-03T13:56:03.999Z</time></trkpt><trkpt lat="42.82359989081958" lon="12.493312493029237"><ele>448.0</ele><time>2026-05-03T13:56:04.999Z</time></trkpt><trkpt lat="42.823679732221564" lon="12.493350044340904"><ele>448.5</ele><time>2026-05-03T13:56:05.999Z</time></trkpt><trkpt lat="42.82375877878318" lon="12.493386853060729"><ele>449.0</ele><time>2026-05-03T13:56:06.999Z</time></trkpt><trkpt lat="42.82383535494632" lon="12.493423468144789"><ele>449.5</ele><time>2026-05-03T13:56:07.999Z</time></trkpt><trkpt lat="42.823914432530366" lon="12.493461536460302"><ele>450.0</ele><time>2026-05-03T13:56:08.999Z</time></trkpt><trkpt lat="42.82398958596459" lon="12.493499301280217"><ele>450.0</ele><time>2026-05-03T13:56:09.999Z</time></trkpt><trkpt lat="42.82406706427393" lon="12.493535578072345"><ele>450.0</ele><time>2026-05-03T13:56:10.999Z</time></trkpt><trkpt lat="42.82414447578119" lon="12.493572452840958"><ele>450.0</ele><time>2026-05-03T13:56:11.999Z</time></trkpt><trkpt lat="42.82422005271004" lon="12.493609485295968"><ele>450.0</ele><time>2026-05-03T13:56:12.999Z</time></trkpt><trkpt lat="42.82429661382404" lon="12.493648685535774"><ele>450.0</ele><time>2026-05-03T13:56:13.999Z</time></trkpt><trkpt lat="42.824374424110445" lon="12.493691587449181"><ele>450.0</ele><time>2026-05-03T13:56:14.999Z</time></trkpt><trkpt lat="42.82446163782864" lon="12.493736810006848"><ele>449.0</ele><time>2026-05-03T13:56:15.999Z</time></trkpt><trkpt lat="42.824551218145324" lon="12.493782648821433"><ele>448.0</ele><time>2026-05-03T13:56:16.999Z</time></trkpt><trkpt lat="42.82464772996768" lon="12.493831910198113"><ele>447.0</ele><time>2026-05-03T13:56:17.999Z</time></trkpt><trkpt lat="42.82474092914914" lon="12.493878489645079"><ele>446.0</ele><time>2026-05-03T13:56:18.999Z</time></trkpt><trkpt lat="42.82483284415989" lon="12.493924047907694"><ele>445.0</ele><time>2026-05-03T13:56:19.999Z</time></trkpt><trkpt lat="42.824924704365976" lon="12.493975106035093"><ele>445.0</ele><time>2026-05-03T13:56:20.999Z</time></trkpt><trkpt lat="42.825011465469856" lon="12.494021834163638"><ele>445.0</ele><time>2026-05-03T13:56:21.999Z</time></trkpt><trkpt lat="42.82510219388449" lon="12.494067153778259"><ele>445.0</ele><time>2026-05-03T13:56:22.999Z</time></trkpt><trkpt lat="42.825190977881064" lon="12.494111790329416"><ele>445.0</ele><time>2026-05-03T13:56:23.999Z</time></trkpt><trkpt lat="42.82527980240824" lon="12.49415657947285"><ele>445.0</ele><time>2026-05-03T13:56:24.999Z</time></trkpt><trkpt lat="42.82536984843004" lon="12.494202395286656"><ele>444.6</ele><time>2026-05-03T13:56:25.999Z</time></trkpt><trkpt lat="42.82546301522182" lon="12.494245805641054"><ele>444.2</ele><time>2026-05-03T13:56:26.999Z</time></trkpt><trkpt lat="42.8255547600139" lon="12.494286894535191"><ele>443.79999999999995</ele><time>2026-05-03T13:56:27.999Z</time></trkpt><trkpt lat="42.82564474911066" lon="12.494329324498452"><ele>443.4</ele><time>2026-05-03T13:56:28.999Z</time></trkpt><trkpt lat="42.82572834382675" lon="12.494365082697316"><ele>443.0</ele><time>2026-05-03T13:56:29.999Z</time></trkpt><trkpt lat="42.825809408034516" lon="12.494398685816778"><ele>442.99999999999994</ele><time>2026-05-03T13:56:30.999Z</time></trkpt><trkpt lat="42.82588671267303" lon="12.4944292926543"><ele>443.0</ele><time>2026-05-03T13:56:31.999Z</time></trkpt><trkpt lat="42.82595797781142" lon="12.494451598530658"><ele>443.0</ele><time>2026-05-03T13:56:32.999Z</time></trkpt><trkpt lat="42.82602963965614" lon="12.494465015405066"><ele>443.0</ele><time>2026-05-03T13:56:33.999Z</time></trkpt><trkpt lat="42.82610138961245" lon="12.494476112533558"><ele>442.99999999999994</ele><time>2026-05-03T13:56:34.999Z</time></trkpt><trkpt lat="42.826183774685155" lon="12.494487196606112"><ele>443.0</ele><time>2026-05-03T13:56:35.999Z</time></trkpt><trkpt lat="42.82626747544896" lon="12.494497548671319"><ele>442.8333333333333</ele><time>2026-05-03T13:56:36.999Z</time></trkpt><trkpt lat="42.826349731179725" lon="12.494509638674712"><ele>442.66666666666663</ele><time>2026-05-03T13:56:37.999Z</time></trkpt><trkpt lat="42.8264356481662" lon="12.494528943566642"><ele>442.5</ele><time>2026-05-03T13:56:38.999Z</time></trkpt><trkpt lat="42.82651774619467" lon="12.494559842425982"><ele>442.33333333333337</ele><time>2026-05-03T13:56:40Z</time></trkpt><trkpt lat="42.82659588852449" lon="12.494606861809476"><ele>442.1666666666667</ele><time>2026-05-03T13:56:41Z</time></trkpt><trkpt lat="42.826670420588336" lon="12.494666057906457"><ele>442.0</ele><time>2026-05-03T13:56:42Z</time></trkpt><trkpt lat="42.826745118727985" lon="12.49472888698253"><ele>444.20000000000005</ele><time>2026-05-03T13:56:43Z</time></trkpt><trkpt lat="42.82682499903511" lon="12.49479370592825"><ele>446.40000000000003</ele><time>2026-05-03T13:56:44Z</time></trkpt><trkpt lat="42.82690412557243" lon="12.494854964933273"><ele>448.59999999999997</ele><time>2026-05-03T13:56:45Z</time></trkpt><trkpt lat="42.82698368370828" lon="12.494916451506738"><ele>450.79999999999995</ele><time>2026-05-03T13:56:46Z</time></trkpt><trkpt lat="42.827066792321254" lon="12.494977208165682"><ele>453.0</ele><time>2026-05-03T13:56:47Z</time></trkpt><trkpt lat="42.827149724669496" lon="12.495047029645415"><ele>453.0</ele><time>2026-05-03T13:56:48Z</time></trkpt><trkpt lat="42.82723103894913" lon="12.495114913992463"><ele>452.99999999999994</ele><time>2026-05-03T13:56:49Z</time></trkpt><trkpt lat="42.82732098831515" lon="12.495179495301683"><ele>452.99999999999994</ele><time>2026-05-03T13:56:50Z</time></trkpt><trkpt lat="42.82741582478628" lon="12.495244268958967"><ele>453.0</ele><time>2026-05-03T13:56:51Z</time></trkpt><trkpt lat="42.82750970708528" lon="12.495305925328665"><ele>453.0</ele><time>2026-05-03T13:56:52Z</time></trkpt><trkpt lat="42.82760472597413" lon="12.495351689555843"><ele>454.4</ele><time>2026-05-03T13:56:53Z</time></trkpt><trkpt lat="42.82769651597101" lon="12.495377934741589"><ele>455.79999999999995</ele><time>2026-05-03T13:56:54Z</time></trkpt><trkpt lat="42.827791967392535" lon="12.49537619578483"><ele>457.2</ele><time>2026-05-03T13:56:55Z</time></trkpt><trkpt lat="42.82787743767036" lon="12.49536595376177"><ele>458.6</ele><time>2026-05-03T13:56:56Z</time></trkpt><trkpt lat="42.82795698385049" lon="12.495342129371155"><ele>460.0</ele><time>2026-05-03T13:56:57Z</time></trkpt><trkpt lat="42.82805650177936" lon="12.495294323475417"><ele>460.00000000000006</ele><time>2026-05-03T13:56:59Z</time></trkpt><trkpt lat="42.82812130451025" lon="12.49522945513934"><ele>460.0</ele><time>2026-05-03T13:57:02Z</time></trkpt><trkpt lat="42.82816264965235" lon="12.495148000836497"><ele>460.0</ele><time>2026-05-03T13:57:06Z</time></trkpt><trkpt lat="42.828100793406136" lon="12.495063775776284"><ele>460.0</ele><time>2026-05-03T13:57:07Z</time></trkpt><trkpt lat="42.828040008441" lon="12.495007004126347"><ele>460.00000000000006</ele><time>2026-05-03T13:57:09Z</time></trkpt><trkpt lat="42.82798390671122" lon="12.494933688440868"><ele>460.0</ele><time>2026-05-03T13:57:11Z</time></trkpt><trkpt lat="42.82792655403551" lon="12.494855811542045"><ele>460.00000000000006</ele><time>2026-05-03T13:57:13Z</time></trkpt><trkpt lat="42.827856932976935" lon="12.494779669881966"><ele>460.0</ele><time>2026-05-03T13:57:15Z</time></trkpt><trkpt lat="42.82779571367567" lon="12.494700684106146"><ele>460.0</ele><time>2026-05-03T13:57:17Z</time></trkpt><trkpt lat="42.82773476964562" lon="12.494644977179458"><ele>460.0</ele><time>2026-05-03T13:58:15Z</time></trkpt><trkpt lat="42.827653571415304" lon="12.494552258008861"><ele>460.00000000000006</ele><time>2026-05-03T13:58:17Z</time></trkpt><trkpt lat="42.82760545794695" lon="12.49449010527028"><ele>460.0</ele><time>2026-05-03T13:58:18Z</time></trkpt><trkpt lat="42.82755372780853" lon="12.49442201521552"><ele>455.8</ele><time>2026-05-03T13:58:19Z</time></trkpt><trkpt lat="42.8274915282661" lon="12.494350396175548"><ele>451.6</ele><time>2026-05-03T13:58:20Z</time></trkpt><trkpt lat="42.82742578743329" lon="12.494273733426265"><ele>447.4</ele><time>2026-05-03T13:58:21Z</time></trkpt><trkpt lat="42.827355132041234" lon="12.494185506475809"><ele>443.2</ele><time>2026-05-03T13:58:21.999Z</time></trkpt><trkpt lat="42.82728662749491" lon="12.494097541626068"><ele>439.0</ele><time>2026-05-03T13:58:22.999Z</time></trkpt><trkpt lat="42.827205623090144" lon="12.493996036086418"><ele>439.0</ele><time>2026-05-03T13:58:23.999Z</time></trkpt><trkpt lat="42.82712318630259" lon="12.493896262302478"><ele>439.0</ele><time>2026-05-03T13:58:24.999Z</time></trkpt><trkpt lat="42.82703530344678" lon="12.493788349557567"><ele>439.0</ele><time>2026-05-03T13:58:25.999Z</time></trkpt><trkpt lat="42.82693997750419" lon="12.493671343600806"><ele>439.0</ele><time>2026-05-03T13:58:26.999Z</time></trkpt><trkpt lat="42.82684598124209" lon="12.493558428997815"><ele>438.0</ele><time>2026-05-03T13:58:27.999Z</time></trkpt><trkpt lat="42.82674516063761" lon="12.493436770115053"><ele>437.0</ele><time>2026-05-03T13:58:28.999Z</time></trkpt><trkpt lat="42.82664698007082" lon="12.493316984261837"><ele>436.0</ele><time>2026-05-03T13:58:29.999Z</time></trkpt><trkpt lat="42.82654538279126" lon="12.493196597444802"><ele>435.0</ele><time>2026-05-03T13:58:30.999Z</time></trkpt><trkpt lat="42.8263420559242" lon="12.492955973209186"><ele>434.75</ele><time>2026-05-03T13:58:32.999Z</time></trkpt><trkpt lat="42.82624328080085" lon="12.492841902243109"><ele>434.5</ele><time>2026-05-03T13:58:33.999Z</time></trkpt><trkpt lat="42.82614595026057" lon="12.492724664107334"><ele>434.25</ele><time>2026-05-03T13:58:34.999Z</time></trkpt><trkpt lat="42.82604594847356" lon="12.492603526925418"><ele>434.0</ele><time>2026-05-03T13:58:35.999Z</time></trkpt><trkpt lat="42.82595532673155" lon="12.492493844169351"><ele>434.0</ele><time>2026-05-03T13:58:36.999Z</time></trkpt><trkpt lat="42.825863148978144" lon="12.492381074624728"><ele>434.0</ele><time>2026-05-03T13:58:37.999Z</time></trkpt><trkpt lat="42.825771429838106" lon="12.492268448017013"><ele>434.0</ele><time>2026-05-03T13:58:38.999Z</time></trkpt><trkpt lat="42.825681398003546" lon="12.492165384052479"><ele>434.0</ele><time>2026-05-03T13:58:39.999Z</time></trkpt><trkpt lat="42.82558839517655" lon="12.492044200969412"><ele>431.5</ele><time>2026-05-03T13:58:40.999Z</time></trkpt><trkpt lat="42.82549396388438" lon="12.4919282037425"><ele>429.0</ele><time>2026-05-03T13:58:41.999Z</time></trkpt><trkpt lat="42.825395471037986" lon="12.491807336024685"><ele>426.5</ele><time>2026-05-03T13:58:42.999Z</time></trkpt><trkpt lat="42.82529995315775" lon="12.491684665434203"><ele>424.0</ele><time>2026-05-03T13:58:43.999Z</time></trkpt><trkpt lat="42.82520996021641" lon="12.491551985551913"><ele>424.75</ele><time>2026-05-03T13:58:44.999Z</time></trkpt><trkpt lat="42.825144541109545" lon="12.49139927081224"><ele>425.5</ele><time>2026-05-03T13:58:46Z</time></trkpt><trkpt lat="42.82507243576969" lon="12.491260206383304"><ele>426.25</ele><time>2026-05-03T13:58:47Z</time></trkpt><trkpt lat="42.825018859396195" lon="12.491111038519467"><ele>427.0</ele><time>2026-05-03T13:58:48Z</time></trkpt><trkpt lat="42.82496539728158" lon="12.490972386832956"><ele>427.0</ele><time>2026-05-03T13:58:49Z</time></trkpt><trkpt lat="42.82490686017457" lon="12.490849404750607"><ele>427.00000000000006</ele><time>2026-05-03T13:58:50Z</time></trkpt><trkpt lat="42.82483915407977" lon="12.490737897560802"><ele>427.00000000000006</ele><time>2026-05-03T13:58:51Z</time></trkpt><trkpt lat="42.82476457664817" lon="12.49063698222698"><ele>427.0</ele><time>2026-05-03T13:58:52Z</time></trkpt><trkpt lat="42.82469121283591" lon="12.490538278273824"><ele>427.0</ele><time>2026-05-03T13:58:53Z</time></trkpt><trkpt lat="42.824633560624854" lon="12.490420111709879"><ele>426.20000000000005</ele><time>2026-05-03T13:58:54Z</time></trkpt><trkpt lat="42.824563832092814" lon="12.490316492064885"><ele>425.40000000000003</ele><time>2026-05-03T13:58:55Z</time></trkpt><trkpt lat="42.82449594600081" lon="12.490214536211047"><ele>424.6</ele><time>2026-05-03T13:58:56Z</time></trkpt><trkpt lat="42.82442789807663" lon="12.490110535176925"><ele>423.79999999999995</ele><time>2026-05-03T13:58:57Z</time></trkpt><trkpt lat="42.82436277866819" lon="12.49000434286245"><ele>423.0</ele><time>2026-05-03T13:58:58Z</time></trkpt><trkpt lat="42.82429114819488" lon="12.489907037187962"><ele>423.0</ele><time>2026-05-03T13:58:59Z</time></trkpt><trkpt lat="42.824230484289146" lon="12.489790661660845"><ele>423.0</ele><time>2026-05-03T13:59:00Z</time></trkpt><trkpt lat="42.824171781063306" lon="12.48967015518067"><ele>423.0</ele><time>2026-05-03T13:59:01Z</time></trkpt><trkpt lat="42.82411562063266" lon="12.489549473115458"><ele>423.0</ele><time>2026-05-03T13:59:02Z</time></trkpt><trkpt lat="42.824077283824" lon="12.489415399767005"><ele>423.0</ele><time>2026-05-03T13:59:03Z</time></trkpt><trkpt lat="42.82402666996796" lon="12.489291492610318"><ele>422.59999999999997</ele><time>2026-05-03T13:59:04Z</time></trkpt><trkpt lat="42.82397584470874" lon="12.489171014028653"><ele>422.2</ele><time>2026-05-03T13:59:05Z</time></trkpt><trkpt lat="42.8239137313393" lon="12.48906265035912"><ele>421.8</ele><time>2026-05-03T13:59:06Z</time></trkpt><trkpt lat="42.82386326618564" lon="12.48895235104444"><ele>421.4</ele><time>2026-05-03T13:59:07Z</time></trkpt><trkpt lat="42.82380367385233" lon="12.488849823626408"><ele>421.0</ele><time>2026-05-03T13:59:08Z</time></trkpt><trkpt lat="42.823740888081545" lon="12.488749426312658"><ele>421.0</ele><time>2026-05-03T13:59:09Z</time></trkpt><trkpt lat="42.82366735709672" lon="12.488659073854251"><ele>421.0</ele><time>2026-05-03T13:59:10Z</time></trkpt><trkpt lat="42.823590644141845" lon="12.488574673032513"><ele>421.0</ele><time>2026-05-03T13:59:11Z</time></trkpt><trkpt lat="42.823511610950014" lon="12.488500431850685"><ele>421.0</ele><time>2026-05-03T13:59:12Z</time></trkpt><trkpt lat="42.82342630029145" lon="12.488433837704397"><ele>421.0</ele><time>2026-05-03T13:59:13Z</time></trkpt><trkpt lat="42.82334929095589" lon="12.488376946508636"><ele>421.20000000000005</ele><time>2026-05-03T13:59:14Z</time></trkpt><trkpt lat="42.823280895821924" lon="12.488291001958189"><ele>421.40000000000003</ele><time>2026-05-03T13:59:15Z</time></trkpt><trkpt lat="42.823217533144586" lon="12.488217811909923"><ele>421.6</ele><time>2026-05-03T13:59:16Z</time></trkpt><trkpt lat="42.82316126372155" lon="12.488130522770996"><ele>421.8</ele><time>2026-05-03T13:59:17Z</time></trkpt><trkpt lat="42.823095626476636" lon="12.488034542060932"><ele>422.0</ele><time>2026-05-03T13:59:18Z</time></trkpt><trkpt lat="42.82306622572869" lon="12.487912138993241"><ele>423.6</ele><time>2026-05-03T13:59:19Z</time></trkpt><trkpt lat="42.82301110959654" lon="12.487801800803906"><ele>425.20000000000005</ele><time>2026-05-03T13:59:20Z</time></trkpt><trkpt lat="42.82297537217565" lon="12.48769003980797"><ele>426.8</ele><time>2026-05-03T13:59:21Z</time></trkpt><trkpt lat="42.82294385975638" lon="12.487555386066665"><ele>428.4</ele><time>2026-05-03T13:59:22Z</time></trkpt><trkpt lat="42.82290888885373" lon="12.487426340380885"><ele>430.0</ele><time>2026-05-03T13:59:23Z</time></trkpt><trkpt lat="42.822883742739414" lon="12.487293132998989"><ele>430.0</ele><time>2026-05-03T13:59:24Z</time></trkpt><trkpt lat="42.822871054209294" lon="12.487146512001742"><ele>430.0</ele><time>2026-05-03T13:59:25Z</time></trkpt><trkpt lat="42.822856937136805" lon="12.487009013360622"><ele>430.0</ele><time>2026-05-03T13:59:26Z</time></trkpt><trkpt lat="42.82283837001317" lon="12.486868171380891"><ele>430.0</ele><time>2026-05-03T13:59:27Z</time></trkpt><trkpt lat="42.8228307714021" lon="12.486727443119845"><ele>430.0</ele><time>2026-05-03T13:59:28Z</time></trkpt><trkpt lat="42.82283369566288" lon="12.486602048472633"><ele>429.6666666666667</ele><time>2026-05-03T13:59:29Z</time></trkpt><trkpt lat="42.822840616171966" lon="12.486487966934567"><ele>429.33333333333337</ele><time>2026-05-03T13:59:30Z</time></trkpt><trkpt lat="42.822865580079274" lon="12.486386876107934"><ele>429.0</ele><time>2026-05-03T13:59:31Z</time></trkpt><trkpt lat="42.822912586169146" lon="12.486298242572849"><ele>428.66666666666663</ele><time>2026-05-03T13:59:32Z</time></trkpt><trkpt lat="42.822971771349756" lon="12.486215331374378"><ele>428.3333333333333</ele><time>2026-05-03T13:59:33Z</time></trkpt><trkpt lat="42.82302349137311" lon="12.486140285553423"><ele>428.0</ele><time>2026-05-03T13:59:34Z</time></trkpt><trkpt lat="42.82308014235546" lon="12.486085666386053"><ele>426.49999999999994</ele><time>2026-05-03T13:59:35Z</time></trkpt><trkpt lat="42.82314433370807" lon="12.486021634623304"><ele>425.0</ele><time>2026-05-03T13:59:36Z</time></trkpt><trkpt lat="42.823238848696924" lon="12.485963916806137"><ele>423.5</ele><time>2026-05-03T13:59:37Z</time></trkpt><trkpt lat="42.82331301691863" lon="12.485904006169443"><ele>422.0</ele><time>2026-05-03T13:59:38Z</time></trkpt><trkpt lat="42.82339421388235" lon="12.485860491366871"><ele>420.49999999999994</ele><time>2026-05-03T13:59:39Z</time></trkpt><trkpt lat="42.82347719952883" lon="12.485814496988123"><ele>419.0</ele><time>2026-05-03T13:59:40Z</time></trkpt><trkpt lat="42.82355280045206" lon="12.4857717706987"><ele>418.3333333333333</ele><time>2026-05-03T13:59:41Z</time></trkpt><trkpt lat="42.82363208337362" lon="12.48571920773943"><ele>417.66666666666663</ele><time>2026-05-03T13:59:42Z</time></trkpt><trkpt lat="42.823714773373716" lon="12.485677232068921"><ele>417.0</ele><time>2026-05-03T13:59:43Z</time></trkpt><trkpt lat="42.82379643525331" lon="12.485628589928432"><ele>416.33333333333337</ele><time>2026-05-03T13:59:44Z</time></trkpt><trkpt lat="42.82388098867818" lon="12.485597453831756"><ele>415.6666666666667</ele><time>2026-05-03T13:59:45Z</time></trkpt><trkpt lat="42.823971902317105" lon="12.485580934027057"><ele>415.0</ele><time>2026-05-03T13:59:46Z</time></trkpt><trkpt lat="42.82405813456043" lon="12.485578682128029"><ele>415.00000000000006</ele><time>2026-05-03T13:59:47Z</time></trkpt><trkpt lat="42.82413733115313" lon="12.485594016341505"><ele>415.0</ele><time>2026-05-03T13:59:48Z</time></trkpt><trkpt lat="42.82421371004144" lon="12.48560652302787"><ele>415.0</ele><time>2026-05-03T13:59:49Z</time></trkpt><trkpt lat="42.82428480344844" lon="12.485620616608186"><ele>415.0</ele><time>2026-05-03T13:59:50Z</time></trkpt><trkpt lat="42.824356486423724" lon="12.485612173604771"><ele>415.00000000000006</ele><time>2026-05-03T13:59:51Z</time></trkpt><trkpt lat="42.82442330251416" lon="12.485588043447493"><ele>415.0</ele><time>2026-05-03T13:59:52Z</time></trkpt><trkpt lat="42.82451591138712" lon="12.485480794773949"><ele>412.6666666666667</ele><time>2026-05-03T13:59:54Z</time></trkpt><trkpt lat="42.824526909503895" lon="12.485383858447015"><ele>410.33333333333337</ele><time>2026-05-03T13:59:55Z</time></trkpt><trkpt lat="42.824509981302654" lon="12.485281956279795"><ele>408.0</ele><time>2026-05-03T13:59:56Z</time></trkpt><trkpt lat="42.82447696351777" lon="12.485183882683028"><ele>405.66666666666663</ele><time>2026-05-03T13:59:57Z</time></trkpt><trkpt lat="42.82443592726286" lon="12.485087137843834"><ele>403.3333333333333</ele><time>2026-05-03T13:59:58Z</time></trkpt><trkpt lat="42.824391096588556" lon="12.484985732498386"><ele>401.0</ele><time>2026-05-03T13:59:59Z</time></trkpt><trkpt lat="42.82434431412323" lon="12.484878195019705"><ele>402.0</ele><time>2026-05-03T14:00:00Z</time></trkpt><trkpt lat="42.82429591684803" lon="12.484764788297475"><ele>403.0</ele><time>2026-05-03T14:00:01Z</time></trkpt><trkpt lat="42.82424686794452" lon="12.484648212139387"><ele>404.0</ele><time>2026-05-03T14:00:02Z</time></trkpt><trkpt lat="42.82419886483677" lon="12.48453365249484"><ele>405.0</ele><time>2026-05-03T14:00:03Z</time></trkpt><trkpt lat="42.82415161553015" lon="12.48441887802142"><ele>406.0</ele><time>2026-05-03T14:00:04Z</time></trkpt><trkpt lat="42.824100375787154" lon="12.48429122784684"><ele>404.0</ele><time>2026-05-03T14:00:05Z</time></trkpt><trkpt lat="42.824050780372815" lon="12.484167674481542"><ele>402.0</ele><time>2026-05-03T14:00:06Z</time></trkpt><trkpt lat="42.82400455110262" lon="12.484052723494303"><ele>400.0</ele><time>2026-05-03T14:00:07Z</time></trkpt><trkpt lat="42.82395489495922" lon="12.483948206257578"><ele>398.0</ele><time>2026-05-03T14:00:08Z</time></trkpt><trkpt lat="42.823901067668395" lon="12.483861736334834"><ele>396.0</ele><time>2026-05-03T14:00:09Z</time></trkpt><trkpt lat="42.82383581112351" lon="12.483807238773007"><ele>396.0</ele><time>2026-05-03T14:00:10Z</time></trkpt><trkpt lat="42.82377042243012" lon="12.483782667995113"><ele>396.0</ele><time>2026-05-03T14:00:11Z</time></trkpt><trkpt lat="42.82369547052022" lon="12.483812425222702"><ele>396.0</ele><time>2026-05-03T14:00:12Z</time></trkpt><trkpt lat="42.82362674620284" lon="12.483840750732506"><ele>396.0</ele><time>2026-05-03T14:00:13Z</time></trkpt><trkpt lat="42.823564973592184" lon="12.483887553097155"><ele>396.0</ele><time>2026-05-03T14:00:14Z</time></trkpt><trkpt lat="42.8235110413382" lon="12.483953268705527"><ele>396.0</ele><time>2026-05-03T14:00:15Z</time></trkpt><trkpt lat="42.82345468346605" lon="12.484027798108007"><ele>396.0</ele><time>2026-05-03T14:00:16Z</time></trkpt><trkpt lat="42.8233968214539" lon="12.484104171215105"><ele>395.42857142857144</ele><time>2026-05-03T14:00:17Z</time></trkpt><trkpt lat="42.82333592101749" lon="12.484179415926482"><ele>394.85714285714283</ele><time>2026-05-03T14:00:18Z</time></trkpt><trkpt lat="42.82327650991277" lon="12.484246023076691"><ele>394.2857142857143</ele><time>2026-05-03T14:00:19Z</time></trkpt><trkpt lat="42.82321569114173" lon="12.484298683726745"><ele>393.7142857142857</ele><time>2026-05-03T14:00:20Z</time></trkpt><trkpt lat="42.8231494981518" lon="12.484334627792473"><ele>393.1428571428571</ele><time>2026-05-03T14:00:21Z</time></trkpt><trkpt lat="42.82308227143176" lon="12.484348627459601"><ele>392.57142857142856</ele><time>2026-05-03T14:00:22Z</time></trkpt><trkpt lat="42.82302541906905" lon="12.484307422698866"><ele>392.0</ele><time>2026-05-03T14:00:23Z</time></trkpt><trkpt lat="42.8229446795835" lon="12.48418079825287"><ele>392.0</ele><time>2026-05-03T14:00:25Z</time></trkpt><trkpt lat="42.82294065738787" lon="12.484064466703591"><ele>392.0</ele><time>2026-05-03T14:00:26Z</time></trkpt><trkpt lat="42.822947811687435" lon="12.483946085103419"><ele>392.0</ele><time>2026-05-03T14:00:27Z</time></trkpt><trkpt lat="42.82294418868864" lon="12.483822218321022"><ele>392.0</ele><time>2026-05-03T14:00:28Z</time></trkpt><trkpt lat="42.822918937185534" lon="12.48369707534524"><ele>392.0</ele><time>2026-05-03T14:00:29Z</time></trkpt><trkpt lat="42.82287530911754" lon="12.483571567773666"><ele>389.20000000000005</ele><time>2026-05-03T14:00:30Z</time></trkpt><trkpt lat="42.82281447333646" lon="12.48345025471975"><ele>386.4</ele><time>2026-05-03T14:00:31Z</time></trkpt><trkpt lat="42.82275114635025" lon="12.48332836172998"><ele>383.6</ele><time>2026-05-03T14:00:32Z</time></trkpt><trkpt lat="42.82267622050662" lon="12.483257827727838"><ele>380.79999999999995</ele><time>2026-05-03T14:00:32.999Z</time></trkpt><trkpt lat="42.8225995210325" lon="12.483220079947637"><ele>378.0</ele><time>2026-05-03T14:00:33.999Z</time></trkpt><trkpt lat="42.822436511040735" lon="12.483205614711519"><ele>372.5</ele><time>2026-05-03T14:00:34.999Z</time></trkpt><trkpt lat="42.82224510857637" lon="12.4829244523947"><ele>367.0</ele><time>2026-05-03T14:00:35.999Z</time></trkpt><trkpt lat="42.82222419063104" lon="12.48264776778087"><ele>367.0</ele><time>2026-05-03T14:00:36.999Z</time></trkpt><trkpt lat="42.82222823684029" lon="12.482493800969834"><ele>367.0</ele><time>2026-05-03T14:00:37.999Z</time></trkpt><trkpt lat="42.82223522466459" lon="12.482341312123246"><ele>367.0</ele><time>2026-05-03T14:00:38.999Z</time></trkpt><trkpt lat="42.82224325639602" lon="12.48220395522245"><ele>367.0</ele><time>2026-05-03T14:00:39.999Z</time></trkpt><trkpt lat="42.82225049750078" lon="12.482075185078713"><ele>367.0</ele><time>2026-05-03T14:00:40.999Z</time></trkpt><trkpt lat="42.822257467224915" lon="12.481958200316695"><ele>366.6</ele><time>2026-05-03T14:00:41.999Z</time></trkpt><trkpt lat="42.82226073532937" lon="12.481848697460656"><ele>366.20000000000005</ele><time>2026-05-03T14:00:42.999Z</time></trkpt><trkpt lat="42.82226001486177" lon="12.481731874187805"><ele>365.8</ele><time>2026-05-03T14:00:43.999Z</time></trkpt><trkpt lat="42.82225800368581" lon="12.481607140233235"><ele>365.4</ele><time>2026-05-03T14:00:44.999Z</time></trkpt><trkpt lat="42.82222117497015" lon="12.481476687055924"><ele>365.0</ele><time>2026-05-03T14:00:45.999Z</time></trkpt><trkpt lat="42.82216516828992" lon="12.481356206693503"><ele>364.6</ele><time>2026-05-03T14:00:46.999Z</time></trkpt><trkpt lat="42.822107551046365" lon="12.48124131054935"><ele>364.2</ele><time>2026-05-03T14:00:47.999Z</time></trkpt><trkpt lat="42.822054168678704" lon="12.481122429867916"><ele>363.79999999999995</ele><time>2026-05-03T14:00:48.999Z</time></trkpt><trkpt lat="42.82199813204348" lon="12.481002974624104"><ele>363.4</ele><time>2026-05-03T14:00:49.999Z</time></trkpt><trkpt lat="42.82194088306011" lon="12.480888431666704"><ele>363.0</ele><time>2026-05-03T14:00:50.999Z</time></trkpt><trkpt lat="42.821875752528705" lon="12.480778905123966"><ele>363.0</ele><time>2026-05-03T14:00:52Z</time></trkpt><trkpt lat="42.821831022244574" lon="12.480651978117168"><ele>363.0</ele><time>2026-05-03T14:00:53Z</time></trkpt><trkpt lat="42.821761897989965" lon="12.48054473366289"><ele>363.0</ele><time>2026-05-03T14:00:54Z</time></trkpt><trkpt lat="42.82170709941839" lon="12.480430126987697"><ele>363.0</ele><time>2026-05-03T14:00:55Z</time></trkpt><trkpt lat="42.82165237489883" lon="12.48031201308977"><ele>363.0</ele><time>2026-05-03T14:00:56Z</time></trkpt><trkpt lat="42.82160512228197" lon="12.480196299818012"><ele>363.59999999999997</ele><time>2026-05-03T14:00:57Z</time></trkpt><trkpt lat="42.82156231760088" lon="12.480075354245153"><ele>364.2</ele><time>2026-05-03T14:00:58Z</time></trkpt><trkpt lat="42.82152565223398" lon="12.47995952796114"><ele>364.8</ele><time>2026-05-03T14:00:59Z</time></trkpt><trkpt lat="42.82150548489118" lon="12.47983330649276"><ele>365.4</ele><time>2026-05-03T14:01:00Z</time></trkpt><trkpt lat="42.821492677731435" lon="12.479703246272813"><ele>366.0</ele><time>2026-05-03T14:01:01Z</time></trkpt><trkpt lat="42.82150127001494" lon="12.479578786115477"><ele>366.0</ele><time>2026-05-03T14:01:02Z</time></trkpt><trkpt lat="42.82151246110945" lon="12.479456218854557"><ele>366.0</ele><time>2026-05-03T14:01:03Z</time></trkpt><trkpt lat="42.82153759656149" lon="12.479336479443194"><ele>366.0</ele><time>2026-05-03T14:01:04Z</time></trkpt><trkpt lat="42.82157091129593" lon="12.479227128612091"><ele>366.0</ele><time>2026-05-03T14:01:05Z</time></trkpt><trkpt lat="42.821611286741316" lon="12.47911878000755"><ele>366.0</ele><time>2026-05-03T14:01:06Z</time></trkpt><trkpt lat="42.82164821772905" lon="12.479013567988625"><ele>366.0</ele><time>2026-05-03T14:01:07Z</time></trkpt><trkpt lat="42.821680140638854" lon="12.478906593253043"><ele>366.0</ele><time>2026-05-03T14:01:08Z</time></trkpt><trkpt lat="42.82170741898975" lon="12.478789913946546"><ele>366.0</ele><time>2026-05-03T14:01:09Z</time></trkpt><trkpt lat="42.82172523827189" lon="12.478664129526843"><ele>366.0</ele><time>2026-05-03T14:01:10Z</time></trkpt><trkpt lat="42.82174186786683" lon="12.4785391003289"><ele>366.0</ele><time>2026-05-03T14:01:11Z</time></trkpt><trkpt lat="42.8217007671293" lon="12.478407558157866"><ele>366.0</ele><time>2026-05-03T14:01:12Z</time></trkpt><trkpt lat="42.82166083227708" lon="12.478276287146551"><ele>364.4</ele><time>2026-05-03T14:01:13Z</time></trkpt><trkpt lat="42.821609243491054" lon="12.478151397394663"><ele>362.8</ele><time>2026-05-03T14:01:14Z</time></trkpt><trkpt lat="42.821553394742644" lon="12.478023238731529"><ele>361.2</ele><time>2026-05-03T14:01:15Z</time></trkpt><trkpt lat="42.82150006026437" lon="12.477891705788132"><ele>359.59999999999997</ele><time>2026-05-03T14:01:16Z</time></trkpt><trkpt lat="42.82144867984938" lon="12.477760950819459"><ele>358.0</ele><time>2026-05-03T14:01:17Z</time></trkpt><trkpt lat="42.82139845314122" lon="12.477626378866505"><ele>356.5</ele><time>2026-05-03T14:01:18Z</time></trkpt><trkpt lat="42.82135454091688" lon="12.477484599515318"><ele>355.0</ele><time>2026-05-03T14:01:19Z</time></trkpt><trkpt lat="42.82131770832624" lon="12.477339371024662"><ele>353.5</ele><time>2026-05-03T14:01:20Z</time></trkpt><trkpt lat="42.82128975667538" lon="12.47718775215087"><ele>352.0</ele><time>2026-05-03T14:01:21Z</time></trkpt><trkpt lat="42.82127182681006" lon="12.477034432818325"><ele>351.0</ele><time>2026-05-03T14:01:22Z</time></trkpt><trkpt lat="42.82127073911602" lon="12.476871875697732"><ele>350.0</ele><time>2026-05-03T14:01:23Z</time></trkpt><trkpt lat="42.821271719454806" lon="12.476714509220335"><ele>349.0</ele><time>2026-05-03T14:01:24Z</time></trkpt><trkpt lat="42.82127509580022" lon="12.476561311384758"><ele>348.0</ele><time>2026-05-03T14:01:25Z</time></trkpt><trkpt lat="42.82122647503454" lon="12.476460768649527"><ele>347.0</ele><time>2026-05-03T14:01:26Z</time></trkpt><trkpt lat="42.82119093831139" lon="12.476339559053255"><ele>347.0</ele><time>2026-05-03T14:01:27Z</time></trkpt><trkpt lat="42.82114277844182" lon="12.476227057667097"><ele>347.0</ele><time>2026-05-03T14:01:28Z</time></trkpt><trkpt lat="42.821081073739485" lon="12.476123197772912"><ele>347.0</ele><time>2026-05-03T14:01:29Z</time></trkpt><trkpt lat="42.82101277648346" lon="12.476032918375843"><ele>347.0</ele><time>2026-05-03T14:01:30Z</time></trkpt><trkpt lat="42.82093495432987" lon="12.475947262919345"><ele>347.0</ele><time>2026-05-03T14:01:31Z</time></trkpt><trkpt lat="42.8208526522281" lon="12.475868645267958"><ele>348.8</ele><time>2026-05-03T14:01:32Z</time></trkpt><trkpt lat="42.8207683150149" lon="12.475786700395469"><ele>350.6</ele><time>2026-05-03T14:01:33Z</time></trkpt><trkpt lat="42.82068353327379" lon="12.475701061974787"><ele>352.40000000000003</ele><time>2026-05-03T14:01:34Z</time></trkpt><trkpt lat="42.82060344064024" lon="12.475604387075746"><ele>354.20000000000005</ele><time>2026-05-03T14:01:35Z</time></trkpt><trkpt lat="42.82053373187874" lon="12.47549447427598"><ele>356.0</ele><time>2026-05-03T14:01:36Z</time></trkpt><trkpt lat="42.82047719311887" lon="12.475385842441568"><ele>357.8</ele><time>2026-05-03T14:01:37Z</time></trkpt><trkpt lat="42.82042395479803" lon="12.475269655030376"><ele>359.6</ele><time>2026-05-03T14:01:38Z</time></trkpt><trkpt lat="42.82037100985253" lon="12.475142156900137"><ele>361.4</ele><time>2026-05-03T14:01:39Z</time></trkpt><trkpt lat="42.820318771008104" lon="12.475009079512404"><ele>363.2</ele><time>2026-05-03T14:01:40Z</time></trkpt><trkpt lat="42.820263578797125" lon="12.47486993444875"><ele>365.0</ele><time>2026-05-03T14:01:41Z</time></trkpt><trkpt lat="42.820208399374856" lon="12.474729165574955"><ele>364.75</ele><time>2026-05-03T14:01:42Z</time></trkpt><trkpt lat="42.820155128775475" lon="12.474585173981815"><ele>364.5</ele><time>2026-05-03T14:01:43Z</time></trkpt><trkpt lat="42.820102594508825" lon="12.474444367556309"><ele>364.25</ele><time>2026-05-03T14:01:44Z</time></trkpt><trkpt lat="42.82004989415939" lon="12.474303152363918"><ele>364.0</ele><time>2026-05-03T14:01:45Z</time></trkpt><trkpt lat="42.82000388920903" lon="12.474160104199724"><ele>364.0</ele><time>2026-05-03T14:01:46Z</time></trkpt><trkpt lat="42.81996895311925" lon="12.474024836304777"><ele>364.0</ele><time>2026-05-03T14:01:47Z</time></trkpt><trkpt lat="42.81995248456518" lon="12.47388445829116"><ele>364.0</ele><time>2026-05-03T14:01:48Z</time></trkpt><trkpt lat="42.81995506648463" lon="12.473747738368187"><ele>364.0</ele><time>2026-05-03T14:01:49Z</time></trkpt><trkpt lat="42.81996455750027" lon="12.473614352103366"><ele>364.0</ele><time>2026-05-03T14:01:50Z</time></trkpt><trkpt lat="42.819976267939836" lon="12.473483066449631"><ele>364.6</ele><time>2026-05-03T14:01:51Z</time></trkpt><trkpt lat="42.81999229411993" lon="12.473350566021692"><ele>365.2</ele><time>2026-05-03T14:01:52Z</time></trkpt><trkpt lat="42.82000708755368" lon="12.473221229228841"><ele>365.8</ele><time>2026-05-03T14:01:53Z</time></trkpt><trkpt lat="42.820015909048436" lon="12.473092805075833"><ele>366.40000000000003</ele><time>2026-05-03T14:01:54Z</time></trkpt><trkpt lat="42.82001542618624" lon="12.472962616675012"><ele>367.0</ele><time>2026-05-03T14:01:55Z</time></trkpt><trkpt lat="42.82000114865767" lon="12.472837660562002"><ele>367.16666666666663</ele><time>2026-05-03T14:01:56Z</time></trkpt><trkpt lat="42.81997804753115" lon="12.47271123770656"><ele>367.3333333333333</ele><time>2026-05-03T14:01:57Z</time></trkpt><trkpt lat="42.81995484183537" lon="12.472589728946144"><ele>367.5</ele><time>2026-05-03T14:01:58Z</time></trkpt><trkpt lat="42.81993600104168" lon="12.472478543580548"><ele>367.6666666666667</ele><time>2026-05-03T14:01:59Z</time></trkpt><trkpt lat="42.819918671293415" lon="12.47236026679144"><ele>367.83333333333337</ele><time>2026-05-03T14:02:00Z</time></trkpt><trkpt lat="42.81990529048126" lon="12.472241198642184"><ele>368.0</ele><time>2026-05-03T14:02:01Z</time></trkpt><trkpt lat="42.81989683871547" lon="12.47212432963051"><ele>367.33333333333337</ele><time>2026-05-03T14:02:02Z</time></trkpt><trkpt lat="42.81989917387021" lon="12.472006937003686"><ele>366.6666666666667</ele><time>2026-05-03T14:02:03Z</time></trkpt><trkpt lat="42.81991121319329" lon="12.471887347133103"><ele>366.0</ele><time>2026-05-03T14:02:04Z</time></trkpt><trkpt lat="42.81994158702227" lon="12.47177189634123"><ele>365.3333333333333</ele><time>2026-05-03T14:02:05Z</time></trkpt><trkpt lat="42.81997308097837" lon="12.471662676554134"><ele>364.66666666666663</ele><time>2026-05-03T14:02:06Z</time></trkpt><trkpt lat="42.82001247863949" lon="12.471555092771935"><ele>364.0</ele><time>2026-05-03T14:02:07Z</time></trkpt><trkpt lat="42.8200618473826" lon="12.471453501279933"><ele>364.0</ele><time>2026-05-03T14:02:08Z</time></trkpt><trkpt lat="42.82011162262269" lon="12.471356663613072"><ele>364.0</ele><time>2026-05-03T14:02:09Z</time></trkpt><trkpt lat="42.820158601975024" lon="12.47125269472355"><ele>364.0</ele><time>2026-05-03T14:02:10Z</time></trkpt><trkpt lat="42.82021023799895" lon="12.471143640559553"><ele>364.0</ele><time>2026-05-03T14:02:11Z</time></trkpt><trkpt lat="42.820262112781286" lon="12.471035682626402"><ele>364.0</ele><time>2026-05-03T14:02:12Z</time></trkpt><trkpt lat="42.820307688773006" lon="12.470918130296619"><ele>363.4</ele><time>2026-05-03T14:02:13Z</time></trkpt><trkpt lat="42.820343666021" lon="12.470793804993708"><ele>362.79999999999995</ele><time>2026-05-03T14:02:14Z</time></trkpt><trkpt lat="42.820370829132244" lon="12.4706607003095"><ele>362.20000000000005</ele><time>2026-05-03T14:02:15Z</time></trkpt><trkpt lat="42.82039586907222" lon="12.47052694831006"><ele>361.6</ele><time>2026-05-03T14:02:16Z</time></trkpt><trkpt lat="42.82041554997639" lon="12.470392447355888"><ele>361.0</ele><time>2026-05-03T14:02:17Z</time></trkpt><trkpt lat="42.82043170663303" lon="12.470256850619178"><ele>361.0</ele><time>2026-05-03T14:02:18Z</time></trkpt><trkpt lat="42.82044222675677" lon="12.470123773924184"><ele>361.0</ele><time>2026-05-03T14:02:19Z</time></trkpt><trkpt lat="42.82046205585073" lon="12.469997928756301"><ele>361.0</ele><time>2026-05-03T14:02:20Z</time></trkpt><trkpt lat="42.82045665436687" lon="12.469870241109728"><ele>361.0</ele><time>2026-05-03T14:02:21Z</time></trkpt><trkpt lat="42.82041847098995" lon="12.469745812517013"><ele>361.0</ele><time>2026-05-03T14:02:22Z</time></trkpt><trkpt lat="42.820394899023626" lon="12.469625277506985"><ele>359.8</ele><time>2026-05-03T14:02:23Z</time></trkpt><trkpt lat="42.82035724649941" lon="12.469510908219673"><ele>358.6</ele><time>2026-05-03T14:02:24Z</time></trkpt><trkpt lat="42.82033202642763" lon="12.469386204424135"><ele>357.4</ele><time>2026-05-03T14:02:25Z</time></trkpt><trkpt lat="42.82028959491311" lon="12.469269152768103"><ele>356.2</ele><time>2026-05-03T14:02:26Z</time></trkpt><trkpt lat="42.820229882680025" lon="12.469162656909376"><ele>355.0</ele><time>2026-05-03T14:02:27Z</time></trkpt><trkpt lat="42.820180888385515" lon="12.469047534765657"><ele>355.6</ele><time>2026-05-03T14:02:28Z</time></trkpt><trkpt lat="42.82012840967241" lon="12.468932391237844"><ele>356.2</ele><time>2026-05-03T14:02:29Z</time></trkpt><trkpt lat="42.820079152110594" lon="12.468819626549974"><ele>356.79999999999995</ele><time>2026-05-03T14:02:30Z</time></trkpt><trkpt lat="42.82003105499597" lon="12.46870308030451"><ele>357.4</ele><time>2026-05-03T14:02:31Z</time></trkpt><trkpt lat="42.81998319829531" lon="12.46858503959707"><ele>358.0</ele><time>2026-05-03T14:02:32Z</time></trkpt><trkpt lat="42.819934853725286" lon="12.468463992543223"><ele>358.4</ele><time>2026-05-03T14:02:33Z</time></trkpt><trkpt lat="42.81988623555398" lon="12.468346947396201"><ele>358.79999999999995</ele><time>2026-05-03T14:02:34Z</time></trkpt><trkpt lat="42.81983479737724" lon="12.468232159701632"><ele>359.2</ele><time>2026-05-03T14:02:35Z</time></trkpt><trkpt lat="42.819780608132085" lon="12.468118069350036"><ele>359.6</ele><time>2026-05-03T14:02:36Z</time></trkpt><trkpt lat="42.81972756088371" lon="12.468001265279572"><ele>360.0</ele><time>2026-05-03T14:02:37Z</time></trkpt><trkpt lat="42.81967489912962" lon="12.467884917500168"><ele>360.4</ele><time>2026-05-03T14:02:38Z</time></trkpt><trkpt lat="42.819618746468386" lon="12.467768486660658"><ele>360.8</ele><time>2026-05-03T14:02:39Z</time></trkpt><trkpt lat="42.81955927357165" lon="12.467656553308217"><ele>361.20000000000005</ele><time>2026-05-03T14:02:40Z</time></trkpt><trkpt lat="42.81949755295368" lon="12.46754658990766"><ele>361.6</ele><time>2026-05-03T14:02:41Z</time></trkpt><trkpt lat="42.819437937501355" lon="12.467431289956817"><ele>362.0</ele><time>2026-05-03T14:02:42Z</time></trkpt><trkpt lat="42.819378725443826" lon="12.467322742227914"><ele>362.0</ele><time>2026-05-03T14:02:42.999Z</time></trkpt><trkpt lat="42.81932238605012" lon="12.467214462194136"><ele>362.0</ele><time>2026-05-03T14:02:43.999Z</time></trkpt><trkpt lat="42.81926250989018" lon="12.467097495935532"><ele>362.0</ele><time>2026-05-03T14:02:44.999Z</time></trkpt><trkpt lat="42.81920403148581" lon="12.466982113124178"><ele>362.0</ele><time>2026-05-03T14:02:45.999Z</time></trkpt><trkpt lat="42.819147133176465" lon="12.466865954778212"><ele>362.0</ele><time>2026-05-03T14:02:46.999Z</time></trkpt><trkpt lat="42.81908918382423" lon="12.46674786355892"><ele>362.0</ele><time>2026-05-03T14:02:47.999Z</time></trkpt><trkpt lat="42.819029008573516" lon="12.466628693675283"><ele>362.0</ele><time>2026-05-03T14:02:48.999Z</time></trkpt><trkpt lat="42.81896877026804" lon="12.466507992158546"><ele>362.0</ele><time>2026-05-03T14:02:49.999Z</time></trkpt><trkpt lat="42.81891249629606" lon="12.466387905202632"><ele>362.0</ele><time>2026-05-03T14:02:50.999Z</time></trkpt><trkpt lat="42.81885705074665" lon="12.466272513975623"><ele>362.0</ele><time>2026-05-03T14:02:51.999Z</time></trkpt><trkpt lat="42.818803207415094" lon="12.466153011625664"><ele>362.0</ele><time>2026-05-03T14:02:52.999Z</time></trkpt><trkpt lat="42.81875082941636" lon="12.46603186321063"><ele>362.0</ele><time>2026-05-03T14:02:53.999Z</time></trkpt><trkpt lat="42.818700346103896" lon="12.465905502354936"><ele>362.0</ele><time>2026-05-03T14:02:54.999Z</time></trkpt><trkpt lat="42.818653431780746" lon="12.465775349161088"><ele>362.0</ele><time>2026-05-03T14:02:55.999Z</time></trkpt><trkpt lat="42.81861473507866" lon="12.465638372551606"><ele>362.0</ele><time>2026-05-03T14:02:56.999Z</time></trkpt><trkpt lat="42.81858381448051" lon="12.465502747556059"><ele>360.20000000000005</ele><time>2026-05-03T14:02:58Z</time></trkpt><trkpt lat="42.81855679091643" lon="12.465360136038385"><ele>358.4</ele><time>2026-05-03T14:02:59Z</time></trkpt><trkpt lat="42.81854157441863" lon="12.465214447785103"><ele>356.6</ele><time>2026-05-03T14:03:00Z</time></trkpt><trkpt lat="42.818532955864576" lon="12.465066258593863"><ele>354.79999999999995</ele><time>2026-05-03T14:03:01Z</time></trkpt><trkpt lat="42.818524058711176" lon="12.464918175080006"><ele>353.0</ele><time>2026-05-03T14:03:02.001Z</time></trkpt><trkpt lat="42.818508661038734" lon="12.464767073506945"><ele>353.0</ele><time>2026-05-03T14:03:03Z</time></trkpt><trkpt lat="42.818494151717005" lon="12.464612960536297"><ele>353.0</ele><time>2026-05-03T14:03:04Z</time></trkpt><trkpt lat="42.818479759891254" lon="12.464457850951886"><ele>353.0</ele><time>2026-05-03T14:03:05Z</time></trkpt><trkpt lat="42.818466256250574" lon="12.464302079685362"><ele>353.0</ele><time>2026-05-03T14:03:06Z</time></trkpt><trkpt lat="42.818455252124934" lon="12.464145795668596"><ele>353.25</ele><time>2026-05-03T14:03:07Z</time></trkpt><trkpt lat="42.81844561495626" lon="12.463987208274425"><ele>353.5</ele><time>2026-05-03T14:03:08Z</time></trkpt><trkpt lat="42.81843739943106" lon="12.463829397099875"><ele>353.75</ele><time>2026-05-03T14:03:09Z</time></trkpt><trkpt lat="42.81843042413836" lon="12.463675021618142"><ele>354.0</ele><time>2026-05-03T14:03:10Z</time></trkpt><trkpt lat="42.8184241522308" lon="12.463515949291283"><ele>353.25</ele><time>2026-05-03T14:03:11Z</time></trkpt><trkpt lat="42.81841914402396" lon="12.463356427696468"><ele>352.5</ele><time>2026-05-03T14:03:12Z</time></trkpt><trkpt lat="42.818418297143566" lon="12.463194653325223"><ele>351.75</ele><time>2026-05-03T14:03:13Z</time></trkpt><trkpt lat="42.81842043619162" lon="12.463030080716251"><ele>351.0</ele><time>2026-05-03T14:03:14Z</time></trkpt><trkpt lat="42.81842705137944" lon="12.462865115697904"><ele>350.25</ele><time>2026-05-03T14:03:15Z</time></trkpt><trkpt lat="42.81843620058714" lon="12.462696229830714"><ele>349.5</ele><time>2026-05-03T14:03:16Z</time></trkpt><trkpt lat="42.818446276899486" lon="12.46252304886588"><ele>348.75</ele><time>2026-05-03T14:03:17Z</time></trkpt><trkpt lat="42.81845964151935" lon="12.462344122954585"><ele>348.0</ele><time>2026-05-03T14:03:18Z</time></trkpt><trkpt lat="42.818477472323764" lon="12.462164186321628"><ele>346.75</ele><time>2026-05-03T14:03:19Z</time></trkpt><trkpt lat="42.81849074013603" lon="12.46198036476313"><ele>345.5</ele><time>2026-05-03T14:03:20Z</time></trkpt><trkpt lat="42.81849833867146" lon="12.461796938544285"><ele>344.25</ele><time>2026-05-03T14:03:21Z</time></trkpt><trkpt lat="42.81850118922292" lon="12.461604261276625"><ele>343.0</ele><time>2026-05-03T14:03:22Z</time></trkpt><trkpt lat="42.818499647735756" lon="12.46140936317991"><ele>341.25</ele><time>2026-05-03T14:03:23Z</time></trkpt><trkpt lat="42.818512039328716" lon="12.461216427569243"><ele>339.5</ele><time>2026-05-03T14:03:24Z</time></trkpt><trkpt lat="42.81850422341532" lon="12.461017897911809"><ele>337.75</ele><time>2026-05-03T14:03:25Z</time></trkpt><trkpt lat="42.8184737808154" lon="12.460819250148328"><ele>336.0</ele><time>2026-05-03T14:03:26Z</time></trkpt><trkpt lat="42.81845873240037" lon="12.460614236389858"><ele>334.6666666666667</ele><time>2026-05-03T14:03:27Z</time></trkpt><trkpt lat="42.81844329962237" lon="12.460409603493558"><ele>333.33333333333337</ele><time>2026-05-03T14:03:28Z</time></trkpt><trkpt lat="42.81842631337982" lon="12.460203883755534"><ele>332.0</ele><time>2026-05-03T14:03:29Z</time></trkpt><trkpt lat="42.81840747069547" lon="12.459999111416527"><ele>332.0</ele><time>2026-05-03T14:03:30Z</time></trkpt><trkpt lat="42.81840206478883" lon="12.459787929712082"><ele>332.0</ele><time>2026-05-03T14:03:31Z</time></trkpt><trkpt lat="42.818380742188396" lon="12.45956875828638"><ele>332.0</ele><time>2026-05-03T14:03:32Z</time></trkpt><trkpt lat="42.81834728569078" lon="12.45935679410856"><ele>330.6666666666667</ele><time>2026-05-03T14:03:33Z</time></trkpt><trkpt lat="42.81832444040991" lon="12.459153969824735"><ele>329.3333333333333</ele><time>2026-05-03T14:03:34Z</time></trkpt><trkpt lat="42.818301205404744" lon="12.458940186987892"><ele>328.0</ele><time>2026-05-03T14:03:35Z</time></trkpt><trkpt lat="42.81827882545236" lon="12.458722767816926"><ele>326.3333333333333</ele><time>2026-05-03T14:03:36Z</time></trkpt><trkpt lat="42.81825537836668" lon="12.458510446741462"><ele>324.6666666666667</ele><time>2026-05-03T14:03:37Z</time></trkpt><trkpt lat="42.818230786946366" lon="12.458302443970355"><ele>323.0</ele><time>2026-05-03T14:03:38Z</time></trkpt><trkpt lat="42.81820505200591" lon="12.458097010666147"><ele>322.0</ele><time>2026-05-03T14:03:39Z</time></trkpt><trkpt lat="42.81817803646314" lon="12.457895024708261"><ele>321.0</ele><time>2026-05-03T14:03:40Z</time></trkpt><trkpt lat="42.81815380789735" lon="12.457691840992297"><ele>320.0</ele><time>2026-05-03T14:03:41Z</time></trkpt><trkpt lat="42.818146810436794" lon="12.457484357351799"><ele>320.0</ele><time>2026-05-03T14:03:42Z</time></trkpt><trkpt lat="42.81812413523946" lon="12.457281005771218"><ele>320.0</ele><time>2026-05-03T14:03:43Z</time></trkpt><trkpt lat="42.818102865960064" lon="12.457079702090464"><ele>320.0</ele><time>2026-05-03T14:03:44Z</time></trkpt><trkpt lat="42.81807431792717" lon="12.456878062615122"><ele>319.25</ele><time>2026-05-03T14:03:45Z</time></trkpt><trkpt lat="42.81806723138032" lon="12.456676025040471"><ele>318.5</ele><time>2026-05-03T14:03:46Z</time></trkpt><trkpt lat="42.818057306541895" lon="12.456479969296494"><ele>317.75</ele><time>2026-05-03T14:03:47Z</time></trkpt><trkpt lat="42.81804907349713" lon="12.456289622872356"><ele>317.0</ele><time>2026-05-03T14:03:48Z</time></trkpt><trkpt lat="42.81804045490323" lon="12.456104740661708"><ele>318.25</ele><time>2026-05-03T14:03:49Z</time></trkpt><trkpt lat="42.818029223477176" lon="12.455926279027763"><ele>319.5</ele><time>2026-05-03T14:03:50Z</time></trkpt><trkpt lat="42.818019005501675" lon="12.455753686632736"><ele>320.75</ele><time>2026-05-03T14:03:51Z</time></trkpt><trkpt lat="42.81801045107202" lon="12.45558922856628"><ele>322.0</ele><time>2026-05-03T14:03:52Z</time></trkpt><trkpt lat="42.817995200859784" lon="12.455426680866614"><ele>322.0</ele><time>2026-05-03T14:03:53Z</time></trkpt><trkpt lat="42.8179707379279" lon="12.455268397324476"><ele>322.0</ele><time>2026-05-03T14:03:54Z</time></trkpt><trkpt lat="42.81794242421565" lon="12.455115487459034"><ele>322.0</ele><time>2026-05-03T14:03:55Z</time></trkpt><trkpt lat="42.81791714824331" lon="12.454963198941414"><ele>322.0</ele><time>2026-05-03T14:03:56Z</time></trkpt><trkpt lat="42.81788417436318" lon="12.454814954801442"><ele>322.0</ele><time>2026-05-03T14:03:57Z</time></trkpt><trkpt lat="42.817853387670375" lon="12.454660404158279"><ele>322.0</ele><time>2026-05-03T14:03:58Z</time></trkpt><trkpt lat="42.817839513951746" lon="12.454493300406266"><ele>322.0</ele><time>2026-05-03T14:03:59Z</time></trkpt><trkpt lat="42.81779579301615" lon="12.454334860661872"><ele>322.0</ele><time>2026-05-03T14:04:00Z</time></trkpt><trkpt lat="42.81777042062813" lon="12.4541651476484"><ele>321.0</ele><time>2026-05-03T14:04:01Z</time></trkpt><trkpt lat="42.8177425456156" lon="12.45399263932461"><ele>320.0</ele><time>2026-05-03T14:04:02Z</time></trkpt><trkpt lat="42.81771242749341" lon="12.453818730838028"><ele>319.0</ele><time>2026-05-03T14:04:03Z</time></trkpt><trkpt lat="42.817676989186374" lon="12.453642723036094"><ele>318.0</ele><time>2026-05-03T14:04:04Z</time></trkpt><trkpt lat="42.81764426557677" lon="12.453465502799252"><ele>318.0</ele><time>2026-05-03T14:04:05Z</time></trkpt><trkpt lat="42.81761467728822" lon="12.453291806785797"><ele>318.0</ele><time>2026-05-03T14:04:06Z</time></trkpt><trkpt lat="42.81758179951309" lon="12.45311020797429"><ele>318.0</ele><time>2026-05-03T14:04:07Z</time></trkpt><trkpt lat="42.81755725264323" lon="12.452926522116313"><ele>318.0</ele><time>2026-05-03T14:04:08Z</time></trkpt><trkpt lat="42.81754960393242" lon="12.452753409019426"><ele>318.75</ele><time>2026-05-03T14:04:09Z</time></trkpt><trkpt lat="42.81756642768842" lon="12.45258370820878"><ele>319.5</ele><time>2026-05-03T14:04:10Z</time></trkpt><trkpt lat="42.81759772363007" lon="12.452423706434354"><ele>320.25</ele><time>2026-05-03T14:04:11Z</time></trkpt><trkpt lat="42.817640662582875" lon="12.452268492994753"><ele>321.0</ele><time>2026-05-03T14:04:12Z</time></trkpt><trkpt lat="42.81769018237685" lon="12.452124331438748"><ele>319.0</ele><time>2026-05-03T14:04:13Z</time></trkpt><trkpt lat="42.817738444594134" lon="12.45198172092824"><ele>317.0</ele><time>2026-05-03T14:04:14Z</time></trkpt><trkpt lat="42.8177856362792" lon="12.451830830186493"><ele>315.0</ele><time>2026-05-03T14:04:15Z</time></trkpt><trkpt lat="42.81783182991802" lon="12.451680775259677"><ele>313.0</ele><time>2026-05-03T14:04:16Z</time></trkpt><trkpt lat="42.81788008990619" lon="12.451526895425003"><ele>313.0</ele><time>2026-05-03T14:04:17Z</time></trkpt><trkpt lat="42.81793199933588" lon="12.451371341614713"><ele>313.0</ele><time>2026-05-03T14:04:18Z</time></trkpt><trkpt lat="42.817984746018396" lon="12.45121635179162"><ele>313.0</ele><time>2026-05-03T14:04:19Z</time></trkpt><trkpt lat="42.818037441799895" lon="12.451057294956327"><ele>313.0</ele><time>2026-05-03T14:04:20Z</time></trkpt><trkpt lat="42.81809098460848" lon="12.450897762234462"><ele>312.75</ele><time>2026-05-03T14:04:21Z</time></trkpt><trkpt lat="42.81814181451151" lon="12.45073740969429"><ele>312.5</ele><time>2026-05-03T14:04:22Z</time></trkpt><trkpt lat="42.81818736891142" lon="12.450576814830873"><ele>312.25</ele><time>2026-05-03T14:04:23Z</time></trkpt><trkpt lat="42.81822881948382" lon="12.450414542834439"><ele>312.0</ele><time>2026-05-03T14:04:24Z</time></trkpt><trkpt lat="42.818263797387615" lon="12.450249199423197"><ele>312.0</ele><time>2026-05-03T14:04:25Z</time></trkpt><trkpt lat="42.818291088060505" lon="12.450085042423918"><ele>312.0</ele><time>2026-05-03T14:04:26Z</time></trkpt><trkpt lat="42.81831543656948" lon="12.449916339935227"><ele>312.0</ele><time>2026-05-03T14:04:27Z</time></trkpt><trkpt lat="42.81833829857551" lon="12.449751193190318"><ele>312.0</ele><time>2026-05-03T14:04:28Z</time></trkpt><trkpt lat="42.81835152145512" lon="12.449577996915146"><ele>312.0</ele><time>2026-05-03T14:04:29Z</time></trkpt><trkpt lat="42.818362236651076" lon="12.44940640896093"><ele>312.0</ele><time>2026-05-03T14:04:30Z</time></trkpt><trkpt lat="42.81837305995364" lon="12.449233496825677"><ele>312.0</ele><time>2026-05-03T14:04:31Z</time></trkpt><trkpt lat="42.81838530384938" lon="12.449057492222785"><ele>312.0</ele><time>2026-05-03T14:04:32Z</time></trkpt><trkpt lat="42.81839528261887" lon="12.448882951767647"><ele>311.25</ele><time>2026-05-03T14:04:33Z</time></trkpt><trkpt lat="42.81840563808631" lon="12.448712293302258"><ele>310.5</ele><time>2026-05-03T14:04:34Z</time></trkpt><trkpt lat="42.8184192351389" lon="12.448538391789166"><ele>309.75</ele><time>2026-05-03T14:04:35Z</time></trkpt><trkpt lat="42.818423143209316" lon="12.448368737874615"><ele>309.0</ele><time>2026-05-03T14:04:36Z</time></trkpt><trkpt lat="42.818413462757384" lon="12.44821004648021"><ele>309.0</ele><time>2026-05-03T14:04:37Z</time></trkpt><trkpt lat="42.81838463625241" lon="12.448062539921427"><ele>309.0</ele><time>2026-05-03T14:04:38Z</time></trkpt><trkpt lat="42.818350435757196" lon="12.44792196335139"><ele>309.0</ele><time>2026-05-03T14:04:39Z</time></trkpt><trkpt lat="42.81826659923659" lon="12.44780664621439"><ele>309.0</ele><time>2026-05-03T14:04:40Z</time></trkpt><trkpt lat="42.81819634323125" lon="12.447685888865587"><ele>307.0</ele><time>2026-05-03T14:04:41Z</time></trkpt><trkpt lat="42.81812476561806" lon="12.447569251984977"><ele>305.0</ele><time>2026-05-03T14:04:42Z</time></trkpt><trkpt lat="42.81805319664505" lon="12.447450591064367"><ele>303.0</ele><time>2026-05-03T14:04:43Z</time></trkpt><trkpt lat="42.81798263753951" lon="12.4473203071044"><ele>301.0</ele><time>2026-05-03T14:04:44Z</time></trkpt><trkpt lat="42.817916281239626" lon="12.44719273278141"><ele>299.5</ele><time>2026-05-03T14:04:45Z</time></trkpt><trkpt lat="42.817846757235436" lon="12.447067007462259"><ele>298.0</ele><time>2026-05-03T14:04:46Z</time></trkpt><trkpt lat="42.8177724493756" lon="12.446941756520472"><ele>296.5</ele><time>2026-05-03T14:04:47Z</time></trkpt><trkpt lat="42.81769557704312" lon="12.446815029801725"><ele>295.0</ele><time>2026-05-03T14:04:48Z</time></trkpt><trkpt lat="42.81762698965432" lon="12.44668725744059"><ele>297.5</ele><time>2026-05-03T14:04:49Z</time></trkpt><trkpt lat="42.81756198315734" lon="12.446551980256823"><ele>300.0</ele><time>2026-05-03T14:04:50Z</time></trkpt><trkpt lat="42.81750162371326" lon="12.446409804638588"><ele>302.5</ele><time>2026-05-03T14:04:51Z</time></trkpt><trkpt lat="42.81744330444161" lon="12.446261395803097"><ele>305.0</ele><time>2026-05-03T14:04:52Z</time></trkpt><trkpt lat="42.8173872730465" lon="12.446108700497792"><ele>305.0</ele><time>2026-05-03T14:04:53Z</time></trkpt><trkpt lat="42.81733202910208" lon="12.445949137272558"><ele>305.0</ele><time>2026-05-03T14:04:54Z</time></trkpt><trkpt lat="42.81727362561443" lon="12.445790745068917"><ele>305.0</ele><time>2026-05-03T14:04:55Z</time></trkpt><trkpt lat="42.81720174207212" lon="12.445641733184956"><ele>305.0</ele><time>2026-05-03T14:04:56Z</time></trkpt><trkpt lat="42.817127478925805" lon="12.445494259261666"><ele>306.0</ele><time>2026-05-03T14:04:57Z</time></trkpt><trkpt lat="42.81703999144587" lon="12.445355217792695"><ele>307.0</ele><time>2026-05-03T14:04:58Z</time></trkpt><trkpt lat="42.816944491038704" lon="12.445227686647717"><ele>308.0</ele><time>2026-05-03T14:04:59Z</time></trkpt><trkpt lat="42.816839879464574" lon="12.44511607760251"><ele>309.0</ele><time>2026-05-03T14:05:00Z</time></trkpt><trkpt lat="42.81673174911898" lon="12.445010413686788"><ele>309.0</ele><time>2026-05-03T14:05:01Z</time></trkpt><trkpt lat="42.8166377678437" lon="12.444885242962547"><ele>309.0</ele><time>2026-05-03T14:05:01.999Z</time></trkpt><trkpt lat="42.81653545610827" lon="12.444777627608046"><ele>309.0</ele><time>2026-05-03T14:05:02.999Z</time></trkpt><trkpt lat="42.81642309098895" lon="12.444687909960935"><ele>309.0</ele><time>2026-05-03T14:05:04.001Z</time></trkpt><trkpt lat="42.81632194446142" lon="12.444582137496806"><ele>308.0</ele><time>2026-05-03T14:05:05.001Z</time></trkpt><trkpt lat="42.816223614532625" lon="12.444478373626993"><ele>307.0</ele><time>2026-05-03T14:05:06.001Z</time></trkpt><trkpt lat="42.81612718317374" lon="12.444375072598723"><ele>306.0</ele><time>2026-05-03T14:05:07.001Z</time></trkpt><trkpt lat="42.81603924257673" lon="12.444278012389693"><ele>305.0</ele><time>2026-05-03T14:05:08.001Z</time></trkpt><trkpt lat="42.815959153838214" lon="12.444175253006813"><ele>305.0</ele><time>2026-05-03T14:05:09.001Z</time></trkpt><trkpt lat="42.81589026253136" lon="12.44406465978451"><ele>305.0</ele><time>2026-05-03T14:05:10.001Z</time></trkpt><trkpt lat="42.815834428616824" lon="12.443942818425908"><ele>305.0</ele><time>2026-05-03T14:05:11.001Z</time></trkpt><trkpt lat="42.81579375714618" lon="12.443809508380307"><ele>305.0</ele><time>2026-05-03T14:05:12.001Z</time></trkpt><trkpt lat="42.815756429889134" lon="12.443661811998952"><ele>305.0</ele><time>2026-05-03T14:05:13.001Z</time></trkpt><trkpt lat="42.81575369563602" lon="12.443503594845001"><ele>305.0</ele><time>2026-05-03T14:05:14.001Z</time></trkpt><trkpt lat="42.81572434141953" lon="12.443349901309393"><ele>305.0</ele><time>2026-05-03T14:05:15.001Z</time></trkpt><trkpt lat="42.81571346732903" lon="12.443194478144694"><ele>305.0</ele><time>2026-05-03T14:05:16.001Z</time></trkpt><trkpt lat="42.815701787980004" lon="12.443039352343042"><ele>305.0</ele><time>2026-05-03T14:05:17.001Z</time></trkpt><trkpt lat="42.81568963618149" lon="12.442889590252193"><ele>305.2</ele><time>2026-05-03T14:05:18.001Z</time></trkpt><trkpt lat="42.81567009274361" lon="12.442742197239339"><ele>305.4</ele><time>2026-05-03T14:05:19.001Z</time></trkpt><trkpt lat="42.815643022569276" lon="12.44260083111584"><ele>305.6</ele><time>2026-05-03T14:05:20.001Z</time></trkpt><trkpt lat="42.815603642685275" lon="12.442463945439899"><ele>305.8</ele><time>2026-05-03T14:05:21.001Z</time></trkpt><trkpt lat="42.81557256815797" lon="12.442313912575303"><ele>306.0</ele><time>2026-05-03T14:05:22Z</time></trkpt><trkpt lat="42.81551709506518" lon="12.442174271023886"><ele>306.75</ele><time>2026-05-03T14:05:23Z</time></trkpt><trkpt lat="42.81543482704829" lon="12.442059584479745"><ele>307.5</ele><time>2026-05-03T14:05:24Z</time></trkpt><trkpt lat="42.815365982970626" lon="12.44193008455789"><ele>308.25</ele><time>2026-05-03T14:05:25Z</time></trkpt><trkpt lat="42.815292848120066" lon="12.441804048953637"><ele>309.0</ele><time>2026-05-03T14:05:26Z</time></trkpt><trkpt lat="42.815217777693384" lon="12.441671127276678"><ele>309.0</ele><time>2026-05-03T14:05:27Z</time></trkpt><trkpt lat="42.8151493364961" lon="12.441533860617787"><ele>309.0</ele><time>2026-05-03T14:05:28Z</time></trkpt><trkpt lat="42.815088959215785" lon="12.441394237905572"><ele>309.0</ele><time>2026-05-03T14:05:29Z</time></trkpt><trkpt lat="42.81502603338496" lon="12.441251671169459"><ele>309.0</ele><time>2026-05-03T14:05:30Z</time></trkpt><trkpt lat="42.8149696209413" lon="12.441106607152962"><ele>309.0</ele><time>2026-05-03T14:05:31Z</time></trkpt><trkpt lat="42.81491541461289" lon="12.440965797932506"><ele>309.0</ele><time>2026-05-03T14:05:32Z</time></trkpt><trkpt lat="42.81486236713474" lon="12.44082700102356"><ele>309.0</ele><time>2026-05-03T14:05:33Z</time></trkpt><trkpt lat="42.81482458052529" lon="12.440678265872418"><ele>309.0</ele><time>2026-05-03T14:05:34Z</time></trkpt><trkpt lat="42.81477789286883" lon="12.44054441989676"><ele>309.5</ele><time>2026-05-03T14:05:35Z</time></trkpt><trkpt lat="42.81472765927985" lon="12.440400471342787"><ele>310.0</ele><time>2026-05-03T14:05:36Z</time></trkpt><trkpt lat="42.81466287141345" lon="12.440267479940452"><ele>310.5</ele><time>2026-05-03T14:05:37Z</time></trkpt><trkpt lat="42.81461134855617" lon="12.440116801088864"><ele>311.0</ele><time>2026-05-03T14:05:38Z</time></trkpt><trkpt lat="42.8145612392314" lon="12.439966128342942"><ele>311.0</ele><time>2026-05-03T14:05:39Z</time></trkpt><trkpt lat="42.814506312292075" lon="12.439814025198475"><ele>311.0</ele><time>2026-05-03T14:05:40Z</time></trkpt><trkpt lat="42.814448655234706" lon="12.439662447382434"><ele>311.0</ele><time>2026-05-03T14:05:41Z</time></trkpt><trkpt lat="42.81439883243655" lon="12.439503855841286"><ele>311.0</ele><time>2026-05-03T14:05:42Z</time></trkpt><trkpt lat="42.814316482124894" lon="12.439378251106989"><ele>310.75</ele><time>2026-05-03T14:05:43Z</time></trkpt><trkpt lat="42.814212804799446" lon="12.439282784520115"><ele>310.5</ele><time>2026-05-03T14:05:44Z</time></trkpt><trkpt lat="42.81412092356602" lon="12.439188208017779"><ele>310.25</ele><time>2026-05-03T14:05:45Z</time></trkpt><trkpt lat="42.81402123682076" lon="12.439098457256438"><ele>310.0</ele><time>2026-05-03T14:05:46Z</time></trkpt><trkpt lat="42.81393373126045" lon="12.438991571978677"><ele>310.0</ele><time>2026-05-03T14:05:47Z</time></trkpt><trkpt lat="42.81383489558192" lon="12.43890149922233"><ele>310.0</ele><time>2026-05-03T14:05:48Z</time></trkpt><trkpt lat="42.81372766195089" lon="12.438829414617656"><ele>310.0</ele><time>2026-05-03T14:05:49Z</time></trkpt><trkpt lat="42.81362999766297" lon="12.43873013008155"><ele>310.0</ele><time>2026-05-03T14:05:50Z</time></trkpt><trkpt lat="42.8135309645843" lon="12.438629643488197"><ele>309.75</ele><time>2026-05-03T14:05:51Z</time></trkpt><trkpt lat="42.81343537203622" lon="12.43852863765476"><ele>309.5</ele><time>2026-05-03T14:05:52Z</time></trkpt><trkpt lat="42.813336407471645" lon="12.438424523350179"><ele>309.25</ele><time>2026-05-03T14:05:53Z</time></trkpt><trkpt lat="42.81323841170823" lon="12.438319509184144"><ele>309.0</ele><time>2026-05-03T14:05:54Z</time></trkpt><trkpt lat="42.813141556032896" lon="12.43821567681845"><ele>309.0</ele><time>2026-05-03T14:05:55Z</time></trkpt><trkpt lat="42.813041676137075" lon="12.438106317870819"><ele>309.0</ele><time>2026-05-03T14:05:56Z</time></trkpt><trkpt lat="42.812944381779076" lon="12.43800097657371"><ele>309.0</ele><time>2026-05-03T14:05:57Z</time></trkpt><trkpt lat="42.81284118836489" lon="12.437901952532432"><ele>309.0</ele><time>2026-05-03T14:05:58Z</time></trkpt><trkpt lat="42.81273816427581" lon="12.4378135645993"><ele>308.25</ele><time>2026-05-03T14:05:59Z</time></trkpt><trkpt lat="42.81262787015708" lon="12.437734114718564"><ele>307.5</ele><time>2026-05-03T14:06:00Z</time></trkpt><trkpt lat="42.8125149996735" lon="12.437658522141046"><ele>306.75</ele><time>2026-05-03T14:06:01Z</time></trkpt><trkpt lat="42.81240344963609" lon="12.437584979514762"><ele>306.0</ele><time>2026-05-03T14:06:02Z</time></trkpt><trkpt lat="42.81229463492482" lon="12.437506703285672"><ele>306.0</ele><time>2026-05-03T14:06:03Z</time></trkpt><trkpt lat="42.81218298707667" lon="12.437425063173022"><ele>306.0</ele><time>2026-05-03T14:06:04Z</time></trkpt><trkpt lat="42.812075534217634" lon="12.437336546639788"><ele>306.0</ele><time>2026-05-03T14:06:05Z</time></trkpt><trkpt lat="42.81196856611348" lon="12.437240947978994"><ele>306.0</ele><time>2026-05-03T14:06:06Z</time></trkpt><trkpt lat="42.8118631203111" lon="12.437140834250426"><ele>305.5</ele><time>2026-05-03T14:06:07Z</time></trkpt><trkpt lat="42.811757056683355" lon="12.437034838462647"><ele>305.0</ele><time>2026-05-03T14:06:08Z</time></trkpt><trkpt lat="42.81165093589091" lon="12.436923770647518"><ele>304.5</ele><time>2026-05-03T14:06:09Z</time></trkpt><trkpt lat="42.81153944116133" lon="12.43682876521233"><ele>304.0</ele><time>2026-05-03T14:06:10Z</time></trkpt><trkpt lat="42.81142807303387" lon="12.436730853596123"><ele>304.0</ele><time>2026-05-03T14:06:11Z</time></trkpt><trkpt lat="42.81132003884176" lon="12.436631362524167"><ele>304.0</ele><time>2026-05-03T14:06:12Z</time></trkpt><trkpt lat="42.8112082523807" lon="12.436534071530431"><ele>304.0</ele><time>2026-05-03T14:06:13Z</time></trkpt><trkpt lat="42.8111013071694" lon="12.43643143619576"><ele>304.0</ele><time>2026-05-03T14:06:14Z</time></trkpt><trkpt lat="42.810991084238445" lon="12.436337384888581"><ele>305.0</ele><time>2026-05-03T14:06:15Z</time></trkpt><trkpt lat="42.81088541030894" lon="12.436226232015201"><ele>306.0</ele><time>2026-05-03T14:06:16Z</time></trkpt><trkpt lat="42.81078060084344" lon="12.436127079033767"><ele>307.0</ele><time>2026-05-03T14:06:17Z</time></trkpt><trkpt lat="42.81067475514983" lon="12.436030451231842"><ele>308.0</ele><time>2026-05-03T14:06:18Z</time></trkpt><trkpt lat="42.81057910658277" lon="12.43592115191614"><ele>308.0</ele><time>2026-05-03T14:06:19Z</time></trkpt><trkpt lat="42.81049270987206" lon="12.435807391713267"><ele>308.0</ele><time>2026-05-03T14:06:20Z</time></trkpt><trkpt lat="42.810408046450775" lon="12.435687688694356"><ele>308.0</ele><time>2026-05-03T14:06:21Z</time></trkpt><trkpt lat="42.81032748373557" lon="12.435564432562005"><ele>308.0</ele><time>2026-05-03T14:06:22Z</time></trkpt><trkpt lat="42.81025184904254" lon="12.43543732293756"><ele>308.0</ele><time>2026-05-03T14:06:23Z</time></trkpt><trkpt lat="42.81017658948644" lon="12.435311719309398"><ele>308.0</ele><time>2026-05-03T14:06:24Z</time></trkpt><trkpt lat="42.81010074401602" lon="12.435189983491433"><ele>308.0</ele><time>2026-05-03T14:06:25Z</time></trkpt><trkpt lat="42.810023921876244" lon="12.435072036859461"><ele>308.0</ele><time>2026-05-03T14:06:26Z</time></trkpt><trkpt lat="42.809949863550834" lon="12.434954978694154"><ele>308.0</ele><time>2026-05-03T14:06:27Z</time></trkpt><trkpt lat="42.809888281191654" lon="12.434824677599536"><ele>308.0</ele><time>2026-05-03T14:06:28Z</time></trkpt><trkpt lat="42.809815594973664" lon="12.434705575627222"><ele>308.0</ele><time>2026-05-03T14:06:29Z</time></trkpt><trkpt lat="42.80974341417059" lon="12.434587301800148"><ele>308.0</ele><time>2026-05-03T14:06:30Z</time></trkpt><trkpt lat="42.80966145017875" lon="12.434477284774049"><ele>306.75</ele><time>2026-05-03T14:06:31Z</time></trkpt><trkpt lat="42.809590446323405" lon="12.434354808051603"><ele>305.5</ele><time>2026-05-03T14:06:32Z</time></trkpt><trkpt lat="42.80951496159497" lon="12.434234910025676"><ele>304.25</ele><time>2026-05-03T14:06:33Z</time></trkpt><trkpt lat="42.80944075001753" lon="12.434114976235472"><ele>303.0</ele><time>2026-05-03T14:06:34Z</time></trkpt><trkpt lat="42.80937033167933" lon="12.433994385245754"><ele>302.25</ele><time>2026-05-03T14:06:35Z</time></trkpt><trkpt lat="42.809321145636396" lon="12.433855032192596"><ele>301.5</ele><time>2026-05-03T14:06:36Z</time></trkpt><trkpt lat="42.80927182283855" lon="12.433720541108245"><ele>300.75</ele><time>2026-05-03T14:06:37Z</time></trkpt><trkpt lat="42.80922616415665" lon="12.43357964619948"><ele>300.0</ele><time>2026-05-03T14:06:38Z</time></trkpt><trkpt lat="42.809182657115635" lon="12.43343189034399"><ele>299.75</ele><time>2026-05-03T14:06:39Z</time></trkpt><trkpt lat="42.80912752392971" lon="12.433294868267371"><ele>299.5</ele><time>2026-05-03T14:06:40Z</time></trkpt><trkpt lat="42.80909442542523" lon="12.433141411507817"><ele>299.25</ele><time>2026-05-03T14:06:41Z</time></trkpt><trkpt lat="42.80906069144627" lon="12.432992818959331"><ele>299.0</ele><time>2026-05-03T14:06:42Z</time></trkpt><trkpt lat="42.809026099201425" lon="12.432843965628328"><ele>297.0</ele><time>2026-05-03T14:06:43Z</time></trkpt><trkpt lat="42.8089855906804" lon="12.432702077946594"><ele>295.0</ele><time>2026-05-03T14:06:44Z</time></trkpt><trkpt lat="42.808940039286185" lon="12.432562639790536"><ele>293.0</ele><time>2026-05-03T14:06:45Z</time></trkpt><trkpt lat="42.80887852262715" lon="12.4324348183807"><ele>291.0</ele><time>2026-05-03T14:06:46Z</time></trkpt><trkpt lat="42.80879731953673" lon="12.432315847013331"><ele>291.0</ele><time>2026-05-03T14:06:47Z</time></trkpt><trkpt lat="42.80870157513611" lon="12.432201286869178"><ele>291.0</ele><time>2026-05-03T14:06:48Z</time></trkpt><trkpt lat="42.808599920159736" lon="12.432089649503238"><ele>291.0</ele><time>2026-05-03T14:06:49Z</time></trkpt><trkpt lat="42.80848956801278" lon="12.431984079757617"><ele>291.0</ele><time>2026-05-03T14:06:50Z</time></trkpt><trkpt lat="42.808383984031636" lon="12.43186500677663"><ele>290.25</ele><time>2026-05-03T14:06:51Z</time></trkpt><trkpt lat="42.80827737191268" lon="12.431753668882578"><ele>289.5</ele><time>2026-05-03T14:06:52Z</time></trkpt><trkpt lat="42.80817250771327" lon="12.431645429180453"><ele>288.75</ele><time>2026-05-03T14:06:53Z</time></trkpt><trkpt lat="42.80807203191211" lon="12.4315406540418"><ele>288.0</ele><time>2026-05-03T14:06:53.999Z</time></trkpt><trkpt lat="42.80797489701315" lon="12.43142998892353"><ele>288.0</ele><time>2026-05-03T14:06:54.999Z</time></trkpt><trkpt lat="42.80787868166925" lon="12.431325394325883"><ele>288.0</ele><time>2026-05-03T14:06:55.999Z</time></trkpt><trkpt lat="42.8077817650708" lon="12.43122807059967"><ele>288.0</ele><time>2026-05-03T14:06:56.999Z</time></trkpt><trkpt lat="42.80768249019805" lon="12.431136690000908"><ele>288.0</ele><time>2026-05-03T14:06:57.999Z</time></trkpt><trkpt lat="42.80757897029466" lon="12.431037993139965"><ele>285.75</ele><time>2026-05-03T14:06:58.999Z</time></trkpt><trkpt lat="42.807478065957326" lon="12.430934329609324"><ele>283.5</ele><time>2026-05-03T14:06:59.999Z</time></trkpt><trkpt lat="42.80736408795669" lon="12.430846283996907"><ele>281.25</ele><time>2026-05-03T14:07:00.999Z</time></trkpt><trkpt lat="42.80724969463938" lon="12.430768656723593"><ele>279.0</ele><time>2026-05-03T14:07:01.999Z</time></trkpt><trkpt lat="42.80713832460351" lon="12.430700711211946"><ele>279.0</ele><time>2026-05-03T14:07:02.999Z</time></trkpt><trkpt lat="42.807031744722764" lon="12.430635842098559"><ele>279.0</ele><time>2026-05-03T14:07:03.999Z</time></trkpt><trkpt lat="42.80693758327214" lon="12.430558017338061"><ele>279.0</ele><time>2026-05-03T14:07:04.999Z</time></trkpt><trkpt lat="42.806852556788094" lon="12.430452044190302"><ele>279.0</ele><time>2026-05-03T14:07:05.999Z</time></trkpt><trkpt lat="42.8067789397264" lon="12.430327622786493"><ele>277.5</ele><time>2026-05-03T14:07:06.999Z</time></trkpt><trkpt lat="42.806709954923946" lon="12.430195908287093"><ele>276.0</ele><time>2026-05-03T14:07:07.999Z</time></trkpt><trkpt lat="42.80663665597046" lon="12.430076582962766"><ele>274.5</ele><time>2026-05-03T14:07:09.001Z</time></trkpt><trkpt lat="42.80655523328597" lon="12.429963854018974"><ele>273.0</ele><time>2026-05-03T14:07:10.001Z</time></trkpt><trkpt lat="42.806460654918794" lon="12.429852340161647"><ele>273.0</ele><time>2026-05-03T14:07:11.001Z</time></trkpt><trkpt lat="42.80636080579112" lon="12.429744204566651"><ele>273.0</ele><time>2026-05-03T14:07:12.001Z</time></trkpt><trkpt lat="42.80625434025481" lon="12.429626162512921"><ele>273.0</ele><time>2026-05-03T14:07:13.001Z</time></trkpt><trkpt lat="42.80614773703283" lon="12.429507256207797"><ele>273.0</ele><time>2026-05-03T14:07:14.001Z</time></trkpt><trkpt lat="42.806036404519" lon="12.429382177274814"><ele>270.5</ele><time>2026-05-03T14:07:15.001Z</time></trkpt><trkpt lat="42.805925162828956" lon="12.429257536953486"><ele>268.0</ele><time>2026-05-03T14:07:16.001Z</time></trkpt><trkpt lat="42.80581197929777" lon="12.429133063140458"><ele>265.5</ele><time>2026-05-03T14:07:17.001Z</time></trkpt><trkpt lat="42.80569657407018" lon="12.429003216207139"><ele>263.0</ele><time>2026-05-03T14:07:18.001Z</time></trkpt><trkpt lat="42.80558210936038" lon="12.428875090620473"><ele>260.6666666666667</ele><time>2026-05-03T14:07:19.001Z</time></trkpt><trkpt lat="42.80545976305783" lon="12.428749273879516"><ele>258.3333333333333</ele><time>2026-05-03T14:07:20.001Z</time></trkpt><trkpt lat="42.80533976588282" lon="12.428611799666486"><ele>256.0</ele><time>2026-05-03T14:07:21.001Z</time></trkpt><trkpt lat="42.80521232858499" lon="12.428475351433393"><ele>254.66666666666666</ele><time>2026-05-03T14:07:22.001Z</time></trkpt><trkpt lat="42.80508960323285" lon="12.42834219563711"><ele>253.33333333333331</ele><time>2026-05-03T14:07:23.001Z</time></trkpt><trkpt lat="42.80495867892702" lon="12.428205016659458"><ele>252.0</ele><time>2026-05-03T14:07:24.001Z</time></trkpt><trkpt lat="42.80483045077138" lon="12.428066003212495"><ele>250.66666666666669</ele><time>2026-05-03T14:07:25.001Z</time></trkpt><trkpt lat="42.804703358833095" lon="12.427922333845874"><ele>249.33333333333334</ele><time>2026-05-03T14:07:26.001Z</time></trkpt><trkpt lat="42.80457462336355" lon="12.427781807937846"><ele>248.0</ele><time>2026-05-03T14:07:27Z</time></trkpt><trkpt lat="42.80444938049495" lon="12.427646646650775"><ele>246.0</ele><time>2026-05-03T14:07:28Z</time></trkpt><trkpt lat="42.80432765093575" lon="12.427511713196663"><ele>244.0</ele><time>2026-05-03T14:07:29Z</time></trkpt><trkpt lat="42.80420072718117" lon="12.427370814709706"><ele>242.0</ele><time>2026-05-03T14:07:30Z</time></trkpt><trkpt lat="42.804076386771555" lon="12.427233763676258"><ele>241.33333333333334</ele><time>2026-05-03T14:07:31Z</time></trkpt><trkpt lat="42.80395974224762" lon="12.427099010943111"><ele>240.66666666666669</ele><time>2026-05-03T14:07:32Z</time></trkpt><trkpt lat="42.803842518562995" lon="12.426969407684526"><ele>240.0</ele><time>2026-05-03T14:07:33Z</time></trkpt><trkpt lat="42.80372229869282" lon="12.426840796055664"><ele>240.0</ele><time>2026-05-03T14:07:34Z</time></trkpt><trkpt lat="42.803611645700315" lon="12.426711868184038"><ele>240.0</ele><time>2026-05-03T14:07:35Z</time></trkpt><trkpt lat="42.803500611761436" lon="12.426586548859314"><ele>240.0</ele><time>2026-05-03T14:07:36Z</time></trkpt><trkpt lat="42.80339931929619" lon="12.426470847179075"><ele>240.0</ele><time>2026-05-03T14:07:37Z</time></trkpt><trkpt lat="42.803293343592536" lon="12.426362771689933"><ele>240.5</ele><time>2026-05-03T14:07:38Z</time></trkpt><trkpt lat="42.80318533784104" lon="12.4262519643192"><ele>241.0</ele><time>2026-05-03T14:07:39Z</time></trkpt><trkpt lat="42.803078229080356" lon="12.426160405194167"><ele>241.5</ele><time>2026-05-03T14:07:40Z</time></trkpt><trkpt lat="42.80296841724131" lon="12.426068712798413"><ele>242.0</ele><time>2026-05-03T14:07:41Z</time></trkpt><trkpt lat="42.8028556677939" lon="12.425987118162805"><ele>242.0</ele><time>2026-05-03T14:07:42Z</time></trkpt><trkpt lat="42.80274710911396" lon="12.425908944609372"><ele>242.0</ele><time>2026-05-03T14:07:43Z</time></trkpt><trkpt lat="42.80263420289296" lon="12.425840146954776"><ele>242.0</ele><time>2026-05-03T14:07:44Z</time></trkpt><trkpt lat="42.802517311126614" lon="12.425768372745448"><ele>242.0</ele><time>2026-05-03T14:07:45Z</time></trkpt><trkpt lat="42.80241257235879" lon="12.425674089258676"><ele>242.0</ele><time>2026-05-03T14:07:46Z</time></trkpt><trkpt lat="42.802292840421806" lon="12.42561487102016"><ele>242.0</ele><time>2026-05-03T14:07:47Z</time></trkpt><trkpt lat="42.80217987972223" lon="12.425536022962232"><ele>242.0</ele><time>2026-05-03T14:07:48Z</time></trkpt><trkpt lat="42.80206820061434" lon="12.425457523702827"><ele>242.0</ele><time>2026-05-03T14:07:49Z</time></trkpt><trkpt lat="42.80195489419964" lon="12.425386604532573"><ele>242.0</ele><time>2026-05-03T14:07:50Z</time></trkpt><trkpt lat="42.801846744216995" lon="12.425320501144904"><ele>242.0</ele><time>2026-05-03T14:07:51Z</time></trkpt><trkpt lat="42.80173981077691" lon="12.425242600603102"><ele>242.0</ele><time>2026-05-03T14:07:52Z</time></trkpt><trkpt lat="42.80163982634278" lon="12.425149456195685"><ele>242.0</ele><time>2026-05-03T14:07:53Z</time></trkpt><trkpt lat="42.80154769017902" lon="12.425048361518401"><ele>242.39999999999998</ele><time>2026-05-03T14:07:54Z</time></trkpt><trkpt lat="42.80146071358119" lon="12.424946722794814"><ele>242.79999999999998</ele><time>2026-05-03T14:07:55Z</time></trkpt><trkpt lat="42.80137511303714" lon="12.424849169819975"><ele>243.2</ele><time>2026-05-03T14:07:56Z</time></trkpt><trkpt lat="42.80129836210446" lon="12.424755350848816"><ele>243.6</ele><time>2026-05-03T14:07:57Z</time></trkpt><trkpt lat="42.80122152278965" lon="12.424655478972532"><ele>244.0</ele><time>2026-05-03T14:07:58Z</time></trkpt><trkpt lat="42.80114694327408" lon="12.424558785923848"><ele>244.0</ele><time>2026-05-03T14:07:59Z</time></trkpt><trkpt lat="42.80107567731969" lon="12.424462516933367"><ele>243.99999999999997</ele><time>2026-05-03T14:08:00Z</time></trkpt><trkpt lat="42.80099566294063" lon="12.424355336743565"><ele>243.99999999999997</ele><time>2026-05-03T14:08:01Z</time></trkpt><trkpt lat="42.80091697608219" lon="12.424248867583529"><ele>244.0</ele><time>2026-05-03T14:08:02Z</time></trkpt><trkpt lat="42.80083547447908" lon="12.424136787935717"><ele>244.0</ele><time>2026-05-03T14:08:03Z</time></trkpt><trkpt lat="42.80075503254679" lon="12.424021976424754"><ele>243.75</ele><time>2026-05-03T14:08:04Z</time></trkpt><trkpt lat="42.800672599669795" lon="12.42390127364235"><ele>243.5</ele><time>2026-05-03T14:08:05Z</time></trkpt><trkpt lat="42.800585193989285" lon="12.423781478160276"><ele>243.25</ele><time>2026-05-03T14:08:06Z</time></trkpt><trkpt lat="42.800500737910085" lon="12.423659639681707"><ele>243.0</ele><time>2026-05-03T14:08:07Z</time></trkpt><trkpt lat="42.800417070119565" lon="12.423543987979889"><ele>243.0</ele><time>2026-05-03T14:08:08Z</time></trkpt><trkpt lat="42.80033157927475" lon="12.42342294349952"><ele>243.0</ele><time>2026-05-03T14:08:09Z</time></trkpt><trkpt lat="42.800243161616706" lon="12.42330591528861"><ele>243.0</ele><time>2026-05-03T14:08:10Z</time></trkpt><trkpt lat="42.800160942032754" lon="12.423187012578095"><ele>243.0</ele><time>2026-05-03T14:08:11Z</time></trkpt><trkpt lat="42.80008271525128" lon="12.423078190935135"><ele>241.8</ele><time>2026-05-03T14:08:12Z</time></trkpt><trkpt lat="42.799999329992595" lon="12.422970804939249"><ele>240.60000000000002</ele><time>2026-05-03T14:08:13Z</time></trkpt><trkpt lat="42.79992218797269" lon="12.422869246670833"><ele>239.39999999999998</ele><time>2026-05-03T14:08:14Z</time></trkpt><trkpt lat="42.79984382067953" lon="12.422763482524257"><ele>238.2</ele><time>2026-05-03T14:08:15Z</time></trkpt><trkpt lat="42.799767030292635" lon="12.422665409072305"><ele>237.0</ele><time>2026-05-03T14:08:16Z</time></trkpt><trkpt lat="42.79969365050011" lon="12.422570534635028"><ele>237.0</ele><time>2026-05-03T14:08:17Z</time></trkpt><trkpt lat="42.799631455971685" lon="12.422458635057062"><ele>237.0</ele><time>2026-05-03T14:08:18Z</time></trkpt><trkpt lat="42.79955898387995" lon="12.422360798607546"><ele>237.0</ele><time>2026-05-03T14:08:19Z</time></trkpt><trkpt lat="42.79947697088981" lon="12.422277509848408"><ele>237.0</ele><time>2026-05-03T14:08:20Z</time></trkpt><trkpt lat="42.79940248913949" lon="12.422173109534667"><ele>237.0</ele><time>2026-05-03T14:08:21Z</time></trkpt><trkpt lat="42.79933025568593" lon="12.42206727968836"><ele>235.6</ele><time>2026-05-03T14:08:22Z</time></trkpt><trkpt lat="42.79926289692411" lon="12.421961690162906"><ele>234.2</ele><time>2026-05-03T14:08:23Z</time></trkpt><trkpt lat="42.79920612390577" lon="12.421847833442113"><ele>232.8</ele><time>2026-05-03T14:08:24Z</time></trkpt><trkpt lat="42.7991652794598" lon="12.421726481228186"><ele>231.4</ele><time>2026-05-03T14:08:25Z</time></trkpt><trkpt lat="42.79913877772356" lon="12.4216020843021"><ele>230.0</ele><time>2026-05-03T14:08:26Z</time></trkpt><trkpt lat="42.799132908378986" lon="12.421477400212"><ele>230.0</ele><time>2026-05-03T14:08:27Z</time></trkpt><trkpt lat="42.799150958348484" lon="12.421349664272206"><ele>230.0</ele><time>2026-05-03T14:08:28Z</time></trkpt><trkpt lat="42.799185367397115" lon="12.421216871610335"><ele>230.0</ele><time>2026-05-03T14:08:29Z</time></trkpt><trkpt lat="42.79922712258285" lon="12.421084416520946"><ele>230.0</ele><time>2026-05-03T14:08:30Z</time></trkpt><trkpt lat="42.79927512282604" lon="12.42094921122309"><ele>230.0</ele><time>2026-05-03T14:08:31Z</time></trkpt><trkpt lat="42.79932384274349" lon="12.420813527112962"><ele>227.0</ele><time>2026-05-03T14:08:32Z</time></trkpt><trkpt lat="42.79937366711812" lon="12.420677777726787"><ele>224.0</ele><time>2026-05-03T14:08:33Z</time></trkpt><trkpt lat="42.79942339467442" lon="12.420540663448953"><ele>221.0</ele><time>2026-05-03T14:08:34Z</time></trkpt><trkpt lat="42.79947333480849" lon="12.420401272723165"><ele>218.0</ele><time>2026-05-03T14:08:35Z</time></trkpt><trkpt lat="42.79952233272812" lon="12.420265424753975"><ele>215.0</ele><time>2026-05-03T14:08:36Z</time></trkpt><trkpt lat="42.7995704059247" lon="12.420130805488375"><ele>214.4</ele><time>2026-05-03T14:08:37Z</time></trkpt><trkpt lat="42.79961865251727" lon="12.420000704938735"><ele>213.8</ele><time>2026-05-03T14:08:38Z</time></trkpt><trkpt lat="42.79966914284323" lon="12.419866857774997"><ele>213.2</ele><time>2026-05-03T14:08:39Z</time></trkpt><trkpt lat="42.799721948741904" lon="12.41973343584799"><ele>212.6</ele><time>2026-05-03T14:08:40Z</time></trkpt><trkpt lat="42.79976999717007" lon="12.419605400917789"><ele>212.0</ele><time>2026-05-03T14:08:41Z</time></trkpt><trkpt lat="42.79980921430506" lon="12.419487616572741"><ele>211.2</ele><time>2026-05-03T14:08:42Z</time></trkpt><trkpt lat="42.79984345024795" lon="12.419372467595931"><ele>210.39999999999998</ele><time>2026-05-03T14:08:43Z</time></trkpt><trkpt lat="42.79988141144571" lon="12.419269584978174"><ele>209.60000000000002</ele><time>2026-05-03T14:08:44Z</time></trkpt><trkpt lat="42.799883192928746" lon="12.419138700779172"><ele>208.8</ele><time>2026-05-03T14:08:45Z</time></trkpt><trkpt lat="42.79986860778232" lon="12.419010701617774"><ele>208.0</ele><time>2026-05-03T14:08:46Z</time></trkpt><trkpt lat="42.79983786089037" lon="12.418878265159552"><ele>206.99999999999997</ele><time>2026-05-03T14:08:47Z</time></trkpt><trkpt lat="42.79978697769896" lon="12.418755236084213"><ele>206.0</ele><time>2026-05-03T14:08:48Z</time></trkpt><trkpt lat="42.799760355399115" lon="12.418651290364478"><ele>205.0</ele><time>2026-05-03T14:08:49Z</time></trkpt><trkpt lat="42.79975860392718" lon="12.418557900680918"><ele>204.0</ele><time>2026-05-03T14:08:50Z</time></trkpt><trkpt lat="42.799772402544" lon="12.418473408614222"><ele>202.99999999999997</ele><time>2026-05-03T14:08:51Z</time></trkpt><trkpt lat="42.79987712865009" lon="12.418388768342393"><ele>202.0</ele><time>2026-05-03T14:08:53Z</time></trkpt><trkpt lat="42.799950945986424" lon="12.418410177474517"><ele>202.0</ele><time>2026-05-03T14:08:54Z</time></trkpt><trkpt lat="42.80002342723683" lon="12.41845342445395"><ele>202.0</ele><time>2026-05-03T14:08:55Z</time></trkpt><trkpt lat="42.800101345306395" lon="12.418502943369345"><ele>202.0</ele><time>2026-05-03T14:08:56Z</time></trkpt><trkpt lat="42.80018228946444" lon="12.418556947596683"><ele>202.0</ele><time>2026-05-03T14:08:57Z</time></trkpt><trkpt lat="42.800277378737164" lon="12.418615250567866"><ele>202.0</ele><time>2026-05-03T14:08:58Z</time></trkpt><trkpt lat="42.80037820103976" lon="12.418668095224092"><ele>199.5</ele><time>2026-05-03T14:08:58.999Z</time></trkpt><trkpt lat="42.800481865942025" lon="12.418720134456755"><ele>197.0</ele><time>2026-05-03T14:08:59.999Z</time></trkpt><trkpt lat="42.80059169715398" lon="12.418757020803586"><ele>194.5</ele><time>2026-05-03T14:09:00.999Z</time></trkpt><trkpt lat="42.800703556377776" lon="12.418781757569393"><ele>192.0</ele><time>2026-05-03T14:09:01.999Z</time></trkpt><trkpt lat="42.80081693922891" lon="12.418789271372434"><ele>192.0</ele><time>2026-05-03T14:09:02.999Z</time></trkpt><trkpt lat="42.80092929574223" lon="12.418772136201156"><ele>192.0</ele><time>2026-05-03T14:09:03.999Z</time></trkpt><trkpt lat="42.80102162947106" lon="12.41872987629537"><ele>192.0</ele><time>2026-05-03T14:09:04.999Z</time></trkpt><trkpt lat="42.801098362291775" lon="12.418651868140554"><ele>192.0</ele><time>2026-05-03T14:09:05.999Z</time></trkpt><trkpt lat="42.80116188163635" lon="12.418537916820673"><ele>192.0</ele><time>2026-05-03T14:09:06.999Z</time></trkpt><trkpt lat="42.80120966955472" lon="12.41841554634608"><ele>191.0</ele><time>2026-05-03T14:09:07.999Z</time></trkpt><trkpt lat="42.801244444083515" lon="12.418281873857941"><ele>190.0</ele><time>2026-05-03T14:09:08.999Z</time></trkpt><trkpt lat="42.80127932015625" lon="12.418145063593515"><ele>189.0</ele><time>2026-05-03T14:09:09.999Z</time></trkpt><trkpt lat="42.80131718096753" lon="12.418005817830942"><ele>188.0</ele><time>2026-05-03T14:09:10.999Z</time></trkpt><trkpt lat="42.801352908786676" lon="12.417867218884894"><ele>187.0</ele><time>2026-05-03T14:09:11.999Z</time></trkpt><trkpt lat="42.801387867041505" lon="12.41772669031932"><ele>187.0</ele><time>2026-05-03T14:09:12.999Z</time></trkpt><trkpt lat="42.801423130133976" lon="12.417585415908652"><ele>187.0</ele><time>2026-05-03T14:09:13.999Z</time></trkpt><trkpt lat="42.80146087756405" lon="12.417444312333373"><ele>187.0</ele><time>2026-05-03T14:09:15.001Z</time></trkpt><trkpt lat="42.80149273515112" lon="12.417306565294952"><ele>187.0</ele><time>2026-05-03T14:09:16.001Z</time></trkpt><trkpt lat="42.801515803439514" lon="12.417166273910931"><ele>187.0</ele><time>2026-05-03T14:09:17.001Z</time></trkpt><trkpt lat="42.80152699604811" lon="12.417019963351054"><ele>185.75</ele><time>2026-05-03T14:09:18.001Z</time></trkpt><trkpt lat="42.801521520660316" lon="12.416874030620146"><ele>184.5</ele><time>2026-05-03T14:09:19.001Z</time></trkpt><trkpt lat="42.80151826365026" lon="12.41672158419474"><ele>183.25</ele><time>2026-05-03T14:09:20.001Z</time></trkpt><trkpt lat="42.80148950012228" lon="12.416570889809215"><ele>182.0</ele><time>2026-05-03T14:09:21.001Z</time></trkpt><trkpt lat="42.80145320020594" lon="12.416418747949802"><ele>180.75</ele><time>2026-05-03T14:09:22.001Z</time></trkpt><trkpt lat="42.80141593136766" lon="12.416265156529626"><ele>179.5</ele><time>2026-05-03T14:09:23.001Z</time></trkpt><trkpt lat="42.80137772292725" lon="12.416107685935966"><ele>178.25</ele><time>2026-05-03T14:09:24.001Z</time></trkpt><trkpt lat="42.801323223298205" lon="12.415955931927538"><ele>177.0</ele><time>2026-05-03T14:09:25.001Z</time></trkpt><trkpt lat="42.80128480859442" lon="12.41579617591345"><ele>177.0</ele><time>2026-05-03T14:09:26.001Z</time></trkpt><trkpt lat="42.80124311069476" lon="12.415635824723154"><ele>177.0</ele><time>2026-05-03T14:09:27.001Z</time></trkpt><trkpt lat="42.801218029079436" lon="12.415463632971214"><ele>177.0</ele><time>2026-05-03T14:09:28.001Z</time></trkpt><trkpt lat="42.80117676940899" lon="12.415294822362481"><ele>177.0</ele><time>2026-05-03T14:09:29.001Z</time></trkpt><trkpt lat="42.80112087353712" lon="12.415134837191486"><ele>176.5</ele><time>2026-05-03T14:09:30.001Z</time></trkpt><trkpt lat="42.80107322850544" lon="12.4149744273246"><ele>176.0</ele><time>2026-05-03T14:09:31Z</time></trkpt><trkpt lat="42.80103076224688" lon="12.414811789498769"><ele>175.5</ele><time>2026-05-03T14:09:32Z</time></trkpt><trkpt lat="42.800967035691954" lon="12.414665234955116"><ele>175.0</ele><time>2026-05-03T14:09:33Z</time></trkpt><trkpt lat="42.80090140346068" lon="12.414523916644209"><ele>173.75</ele><time>2026-05-03T14:09:34Z</time></trkpt><trkpt lat="42.800821774759505" lon="12.414395561742763"><ele>172.5</ele><time>2026-05-03T14:09:35Z</time></trkpt><trkpt lat="42.80075705392091" lon="12.414258142175873"><ele>171.25</ele><time>2026-05-03T14:09:36Z</time></trkpt><trkpt lat="42.80069670010627" lon="12.414126501151637"><ele>170.0</ele><time>2026-05-03T14:09:37Z</time></trkpt><trkpt lat="42.80064018492089" lon="12.413999701647226"><ele>170.0</ele><time>2026-05-03T14:09:38Z</time></trkpt><trkpt lat="42.80058622993395" lon="12.4138712141966"><ele>170.0</ele><time>2026-05-03T14:09:39Z</time></trkpt><trkpt lat="42.80053590031609" lon="12.413736111709836"><ele>170.0</ele><time>2026-05-03T14:09:40Z</time></trkpt><trkpt lat="42.80048948555516" lon="12.413603474567669"><ele>170.0</ele><time>2026-05-03T14:09:41Z</time></trkpt><trkpt lat="42.800446695642684" lon="12.413472814663368"><ele>170.0</ele><time>2026-05-03T14:09:42Z</time></trkpt><trkpt lat="42.80041776720036" lon="12.413330252602456"><ele>168.6</ele><time>2026-05-03T14:09:43Z</time></trkpt><trkpt lat="42.80037396710728" lon="12.41319667569635"><ele>167.2</ele><time>2026-05-03T14:09:44Z</time></trkpt><trkpt lat="42.80033091995467" lon="12.413068939616293"><ele>165.8</ele><time>2026-05-03T14:09:45Z</time></trkpt><trkpt lat="42.800292531441094" lon="12.41295159244797"><ele>164.4</ele><time>2026-05-03T14:09:46Z</time></trkpt><trkpt lat="42.80025808854077" lon="12.412842663096324"><ele>163.0</ele><time>2026-05-03T14:09:47Z</time></trkpt><trkpt lat="42.80022057559086" lon="12.41275086047021"><ele>161.66666666666669</ele><time>2026-05-03T14:09:48Z</time></trkpt><trkpt lat="42.80021476553835" lon="12.412661289873451"><ele>160.33333333333334</ele><time>2026-05-03T14:09:49Z</time></trkpt><trkpt lat="42.8002274384332" lon="12.412511616340215"><ele>159.0</ele><time>2026-05-03T14:09:51Z</time></trkpt><trkpt lat="42.800249295340734" lon="12.412420275850227"><ele>157.66666666666666</ele><time>2026-05-03T14:09:53Z</time></trkpt><trkpt lat="42.80024346644832" lon="12.412326999490059"><ele>156.33333333333331</ele><time>2026-05-03T14:09:55Z</time></trkpt><trkpt lat="42.800169666564706" lon="12.412229504604147"><ele>155.0</ele><time>2026-05-03T14:09:57Z</time></trkpt><trkpt lat="42.800112900426456" lon="12.412180827415966"><ele>154.5</ele><time>2026-05-03T14:09:58Z</time></trkpt><trkpt lat="42.800057594293975" lon="12.412133142415774"><ele>154.0</ele><time>2026-05-03T14:09:59Z</time></trkpt><trkpt lat="42.80000094187055" lon="12.412079248269956"><ele>153.5</ele><time>2026-05-03T14:10:00Z</time></trkpt><trkpt lat="42.79993960874303" lon="12.41201730982583"><ele>153.0</ele><time>2026-05-03T14:10:01Z</time></trkpt><trkpt lat="42.79988152137721" lon="12.41194060275827"><ele>152.5</ele><time>2026-05-03T14:10:02Z</time></trkpt><trkpt lat="42.799820809413916" lon="12.411861443605684"><ele>152.0</ele><time>2026-05-03T14:10:03Z</time></trkpt><trkpt lat="42.7997586678442" lon="12.411780922070724"><ele>152.0</ele><time>2026-05-03T14:10:04Z</time></trkpt><trkpt lat="42.799691273883035" lon="12.411707722900191"><ele>152.0</ele><time>2026-05-03T14:10:05Z</time></trkpt><trkpt lat="42.79962093784557" lon="12.411634066832013"><ele>152.0</ele><time>2026-05-03T14:10:06Z</time></trkpt><trkpt lat="42.7995479093423" lon="12.411554732464955"><ele>152.0</ele><time>2026-05-03T14:10:07Z</time></trkpt><trkpt lat="42.79947806274728" lon="12.411480553464282"><ele>152.0</ele><time>2026-05-03T14:10:08Z</time></trkpt><trkpt lat="42.79940496119414" lon="12.411405725752488"><ele>152.0</ele><time>2026-05-03T14:10:09Z</time></trkpt><trkpt lat="42.799340361506474" lon="12.411336218336661"><ele>151.42857142857142</ele><time>2026-05-03T14:10:10Z</time></trkpt><trkpt lat="42.7992802027057" lon="12.41126706277334"><ele>150.85714285714286</ele><time>2026-05-03T14:10:11Z</time></trkpt><trkpt lat="42.79922533591972" lon="12.411203933620097"><ele>150.28571428571428</ele><time>2026-05-03T14:10:12Z</time></trkpt><trkpt lat="42.79917256567509" lon="12.411142992402432"><ele>149.71428571428572</ele><time>2026-05-03T14:10:13Z</time></trkpt><trkpt lat="42.799115726484054" lon="12.411079420098849"><ele>149.14285714285714</ele><time>2026-05-03T14:10:14Z</time></trkpt><trkpt lat="42.799057420563784" lon="12.411012598351643"><ele>148.57142857142858</ele><time>2026-05-03T14:10:15Z</time></trkpt><trkpt lat="42.799002762821054" lon="12.41094392463008"><ele>148.0</ele><time>2026-05-03T14:10:16Z</time></trkpt><trkpt lat="42.798951369850585" lon="12.410870011851754"><ele>148.0</ele><time>2026-05-03T14:10:17Z</time></trkpt><trkpt lat="42.79889657408472" lon="12.41079265454602"><ele>148.0</ele><time>2026-05-03T14:10:18Z</time></trkpt><trkpt lat="42.79884236793623" lon="12.410717393408573"><ele>148.0</ele><time>2026-05-03T14:10:19Z</time></trkpt><trkpt lat="42.798788356021845" lon="12.410638854794103"><ele>148.0</ele><time>2026-05-03T14:10:20Z</time></trkpt><trkpt lat="42.798734481629204" lon="12.410559862179257"><ele>148.0</ele><time>2026-05-03T14:10:21Z</time></trkpt><trkpt lat="42.798676175691696" lon="12.41048158785463"><ele>148.0</ele><time>2026-05-03T14:10:22Z</time></trkpt><trkpt lat="42.79861566375106" lon="12.41040581803986"><ele>148.16666666666669</ele><time>2026-05-03T14:10:23Z</time></trkpt><trkpt lat="42.79855812253495" lon="12.41032911794756"><ele>148.33333333333334</ele><time>2026-05-03T14:10:24Z</time></trkpt><trkpt lat="42.79850565016451" lon="12.410253249775124"><ele>148.5</ele><time>2026-05-03T14:10:25Z</time></trkpt><trkpt lat="42.79845543526328" lon="12.410177130174773"><ele>148.66666666666666</ele><time>2026-05-03T14:10:26Z</time></trkpt><trkpt lat="42.798413595754354" lon="12.410109766237099"><ele>148.83333333333331</ele><time>2026-05-03T14:10:27Z</time></trkpt><trkpt lat="42.798356398624364" lon="12.409976828493999"><ele>149.0</ele><time>2026-05-03T14:10:29Z</time></trkpt><trkpt lat="42.798338112513164" lon="12.40987161426715"><ele>149.0</ele><time>2026-05-03T14:10:31Z</time></trkpt><trkpt lat="42.79840676514624" lon="12.409787492000548"><ele>149.0</ele><time>2026-05-03T14:10:34Z</time></trkpt><trkpt lat="42.798526163694824" lon="12.409763938749679"><ele>149.0</ele><time>2026-05-03T14:10:36Z</time></trkpt><trkpt lat="42.79858530800418" lon="12.409733092876936"><ele>149.0</ele><time>2026-05-03T14:10:37Z</time></trkpt><trkpt lat="42.79865866745037" lon="12.409711587973883"><ele>149.0</ele><time>2026-05-03T14:10:38Z</time></trkpt><trkpt lat="42.798739000495466" lon="12.409691434081457"><ele>149.0</ele><time>2026-05-03T14:10:39Z</time></trkpt><trkpt lat="42.79882783613529" lon="12.409669356162858"><ele>148.6</ele><time>2026-05-03T14:10:40Z</time></trkpt><trkpt lat="42.79892186518435" lon="12.409646022911685"><ele>148.2</ele><time>2026-05-03T14:10:41Z</time></trkpt><trkpt lat="42.79901655048524" lon="12.409623034874087"><ele>147.79999999999998</ele><time>2026-05-03T14:10:42Z</time></trkpt><trkpt lat="42.799116247947396" lon="12.40959218015789"><ele>147.4</ele><time>2026-05-03T14:10:43Z</time></trkpt><trkpt lat="42.79921968761873" lon="12.40956092504282"><ele>147.0</ele><time>2026-05-03T14:10:44Z</time></trkpt><trkpt lat="42.799324830954546" lon="12.409528002444706"><ele>147.0</ele><time>2026-05-03T14:10:45Z</time></trkpt><trkpt lat="42.799429444858696" lon="12.40949555216667"><ele>147.0</ele><time>2026-05-03T14:10:46Z</time></trkpt><trkpt lat="42.79953636791481" lon="12.40946293758656"><ele>147.0</ele><time>2026-05-03T14:10:47Z</time></trkpt><trkpt lat="42.7996423324248" lon="12.409434055117131"><ele>147.0</ele><time>2026-05-03T14:10:47.999Z</time></trkpt><trkpt lat="42.799748369348514" lon="12.409406576785187"><ele>147.0</ele><time>2026-05-03T14:10:48.999Z</time></trkpt><trkpt lat="42.79985483757001" lon="12.409378607961385"><ele>147.0</ele><time>2026-05-03T14:10:49.999Z</time></trkpt><trkpt lat="42.79996105494929" lon="12.409351524559568"><ele>147.0</ele><time>2026-05-03T14:10:50.999Z</time></trkpt><trkpt lat="42.800063760433076" lon="12.409325089844927"><ele>147.0</ele><time>2026-05-03T14:10:51.999Z</time></trkpt><trkpt lat="42.800167763341435" lon="12.409294504147187"><ele>147.0</ele><time>2026-05-03T14:10:52.999Z</time></trkpt><trkpt lat="42.80026937124039" lon="12.409263258045533"><ele>147.0</ele><time>2026-05-03T14:10:53.999Z</time></trkpt><trkpt lat="42.8003730401357" lon="12.409231947025596"><ele>147.0</ele><time>2026-05-03T14:10:54.999Z</time></trkpt><trkpt lat="42.80047454691322" lon="12.40920383795997"><ele>147.0</ele><time>2026-05-03T14:10:55.999Z</time></trkpt><trkpt lat="42.8005751952219" lon="12.409178000526236"><ele>147.0</ele><time>2026-05-03T14:10:56.999Z</time></trkpt><trkpt lat="42.80067435227798" lon="12.409150402609697"><ele>147.0</ele><time>2026-05-03T14:10:57.999Z</time></trkpt><trkpt lat="42.800777639609706" lon="12.409120983619962"><ele>147.0</ele><time>2026-05-03T14:10:58.999Z</time></trkpt><trkpt lat="42.80087811972264" lon="12.409090253936265"><ele>147.0</ele><time>2026-05-03T14:10:59.999Z</time></trkpt><trkpt lat="42.80097886107289" lon="12.409057100764015"><ele>147.0</ele><time>2026-05-03T14:11:00.999Z</time></trkpt><trkpt lat="42.80108163504869" lon="12.409022828708954"><ele>147.0</ele><time>2026-05-03T14:11:01.999Z</time></trkpt><trkpt lat="42.80118575728152" lon="12.408989615890402"><ele>147.0</ele><time>2026-05-03T14:11:02.999Z</time></trkpt><trkpt lat="42.80129036941677" lon="12.408956746837234"><ele>147.0</ele><time>2026-05-03T14:11:03.999Z</time></trkpt><trkpt lat="42.80139514098847" lon="12.40893165043425"><ele>147.2</ele><time>2026-05-03T14:11:04.999Z</time></trkpt><trkpt lat="42.801501907856895" lon="12.408905329279559"><ele>147.39999999999998</ele><time>2026-05-03T14:11:05.999Z</time></trkpt><trkpt lat="42.80161005445923" lon="12.408876286583777"><ele>147.60000000000002</ele><time>2026-05-03T14:11:06.999Z</time></trkpt><trkpt lat="42.8017195098366" lon="12.408848182984164"><ele>147.8</ele><time>2026-05-03T14:11:07.999Z</time></trkpt><trkpt lat="42.80182889667419" lon="12.408814364347416"><ele>148.0</ele><time>2026-05-03T14:11:08.999Z</time></trkpt><trkpt lat="42.801937755871165" lon="12.408776399700178"><ele>148.0</ele><time>2026-05-03T14:11:09.999Z</time></trkpt><trkpt lat="42.80204326426472" lon="12.408737294519819"><ele>148.0</ele><time>2026-05-03T14:11:10.999Z</time></trkpt><trkpt lat="42.80214262797801" lon="12.408687433729064"><ele>148.0</ele><time>2026-05-03T14:11:11.999Z</time></trkpt><trkpt lat="42.80223214278401" lon="12.408629489968284"><ele>148.0</ele><time>2026-05-03T14:11:12.999Z</time></trkpt><trkpt lat="42.80231080878835" lon="12.408586581888573"><ele>148.0</ele><time>2026-05-03T14:11:13.999Z</time></trkpt><trkpt lat="42.80238087143186" lon="12.408556997354959"><ele>148.0</ele><time>2026-05-03T14:11:14.999Z</time></trkpt><trkpt lat="42.80241050757088" lon="12.408477645128192"><ele>148.0</ele><time>2026-05-03T14:11:15.999Z</time></trkpt><trkpt lat="42.80250847024507" lon="12.408437727421177"><ele>148.0</ele><time>2026-05-03T14:11:17.999Z</time></trkpt><trkpt lat="42.80261909787431" lon="12.408395334612567"><ele>148.0</ele><time>2026-05-03T14:11:19.999Z</time></trkpt><trkpt lat="42.802662788378186" lon="12.408325720870087"><ele>148.0</ele><time>2026-05-03T14:11:21Z</time></trkpt><trkpt lat="42.80268980094678" lon="12.408236444550733"><ele>148.0</ele><time>2026-05-03T14:11:22Z</time></trkpt><trkpt lat="42.8027018502004" lon="12.408136217033807"><ele>148.16666666666669</ele><time>2026-05-03T14:11:23Z</time></trkpt><trkpt lat="42.80267562921596" lon="12.408040765404516"><ele>148.33333333333334</ele><time>2026-05-03T14:11:24Z</time></trkpt><trkpt lat="42.8027470157377" lon="12.407941525127297"><ele>148.5</ele><time>2026-05-03T14:11:25Z</time></trkpt><trkpt lat="42.80279909308406" lon="12.407856674775386"><ele>148.66666666666666</ele><time>2026-05-03T14:11:26Z</time></trkpt><trkpt lat="42.802857245505585" lon="12.407773100144908"><ele>148.83333333333331</ele><time>2026-05-03T14:11:27Z</time></trkpt><trkpt lat="42.80291284405733" lon="12.407688782566156"><ele>149.0</ele><time>2026-05-03T14:11:28Z</time></trkpt><trkpt lat="42.80296735910388" lon="12.407599772869604"><ele>148.5</ele><time>2026-05-03T14:11:29Z</time></trkpt><trkpt lat="42.80302661100775" lon="12.407511072515527"><ele>148.0</ele><time>2026-05-03T14:11:30Z</time></trkpt><trkpt lat="42.803084936646115" lon="12.407425939993354"><ele>147.5</ele><time>2026-05-03T14:11:31Z</time></trkpt><trkpt lat="42.803146237796334" lon="12.407342971163937"><ele>147.0</ele><time>2026-05-03T14:11:32Z</time></trkpt><trkpt lat="42.80320290293309" lon="12.407263217637325"><ele>146.5</ele><time>2026-05-03T14:11:33Z</time></trkpt><trkpt lat="42.803258966676566" lon="12.407177333330363"><ele>146.0</ele><time>2026-05-03T14:11:34Z</time></trkpt><trkpt lat="42.80331506590693" lon="12.40708351348792"><ele>146.0</ele><time>2026-05-03T14:11:35Z</time></trkpt><trkpt lat="42.80337324792431" lon="12.406987068404979"><ele>146.0</ele><time>2026-05-03T14:11:36Z</time></trkpt><trkpt lat="42.80343568570578" lon="12.4068932702129"><ele>146.0</ele><time>2026-05-03T14:11:37Z</time></trkpt><trkpt lat="42.80350090908787" lon="12.40678596179816"><ele>146.0</ele><time>2026-05-03T14:11:38Z</time></trkpt><trkpt lat="42.80357669832871" lon="12.406686129350875"><ele>146.0</ele><time>2026-05-03T14:11:39Z</time></trkpt><trkpt lat="42.80363997402362" lon="12.406590020511288"><ele>146.0</ele><time>2026-05-03T14:11:40Z</time></trkpt><trkpt lat="42.8037056350326" lon="12.40649312450068"><ele>146.0</ele><time>2026-05-03T14:11:41Z</time></trkpt><trkpt lat="42.80376530554907" lon="12.406396338770957"><ele>146.0</ele><time>2026-05-03T14:11:42Z</time></trkpt><trkpt lat="42.8038312844949" lon="12.406304165428576"><ele>146.0</ele><time>2026-05-03T14:11:43Z</time></trkpt><trkpt lat="42.80390518991646" lon="12.4062319737511"><ele>146.0</ele><time>2026-05-03T14:11:44Z</time></trkpt><trkpt lat="42.80398138188453" lon="12.406178501907691"><ele>145.83333333333331</ele><time>2026-05-03T14:11:45Z</time></trkpt><trkpt lat="42.80406155257573" lon="12.406146655954933"><ele>145.66666666666666</ele><time>2026-05-03T14:11:46Z</time></trkpt><trkpt lat="42.80414334037152" lon="12.406124221423584"><ele>145.5</ele><time>2026-05-03T14:11:47Z</time></trkpt><trkpt lat="42.80421491473909" lon="12.406110822936087"><ele>145.33333333333334</ele><time>2026-05-03T14:11:48Z</time></trkpt><trkpt lat="42.804288733193495" lon="12.406117598557843"><ele>145.16666666666669</ele><time>2026-05-03T14:11:50Z</time></trkpt><trkpt lat="42.80435083432981" lon="12.406180336869092"><ele>145.0</ele><time>2026-05-03T14:11:52Z</time></trkpt><trkpt lat="42.80445843099146" lon="12.406266072715773"><ele>145.16666666666669</ele><time>2026-05-03T14:11:54Z</time></trkpt><trkpt lat="42.804511557586565" lon="12.406340121910718"><ele>145.33333333333334</ele><time>2026-05-03T14:11:55Z</time></trkpt><trkpt lat="42.804562968894224" lon="12.406420058150493"><ele>145.5</ele><time>2026-05-03T14:11:56Z</time></trkpt><trkpt lat="42.80460611561936" lon="12.406513449084311"><ele>145.66666666666666</ele><time>2026-05-03T14:11:57Z</time></trkpt><trkpt lat="42.804657843527416" lon="12.406601090893023"><ele>145.83333333333331</ele><time>2026-05-03T14:11:58Z</time></trkpt><trkpt lat="42.80465357907306" lon="12.406752595943932"><ele>146.0</ele><time>2026-05-03T14:11:59Z</time></trkpt><trkpt lat="42.80467378605482" lon="12.40688956282579"><ele>146.0</ele><time>2026-05-03T14:12:00Z</time></trkpt><trkpt lat="42.80469603123579" lon="12.407025164840944"><ele>146.0</ele><time>2026-05-03T14:12:01Z</time></trkpt><trkpt lat="42.80472004396527" lon="12.407173817679732"><ele>146.0</ele><time>2026-05-03T14:12:02Z</time></trkpt><trkpt lat="42.80474614287585" lon="12.40732432890441"><ele>146.0</ele><time>2026-05-03T14:12:03Z</time></trkpt><trkpt lat="42.80477271718563" lon="12.407468552667579"><ele>146.0</ele><time>2026-05-03T14:12:04Z</time></trkpt><trkpt lat="42.8047984363648" lon="12.407608021076232"><ele>146.2</ele><time>2026-05-03T14:12:05Z</time></trkpt><trkpt lat="42.80482431039825" lon="12.407742356286477"><ele>146.39999999999998</ele><time>2026-05-03T14:12:06Z</time></trkpt><trkpt lat="42.80485153636795" lon="12.407887772869595"><ele>146.6</ele><time>2026-05-03T14:12:07Z</time></trkpt><trkpt lat="42.80487623154324" lon="12.407998942809776"><ele>146.79999999999998</ele><time>2026-05-03T14:12:08Z</time></trkpt><trkpt lat="42.804882427671245" lon="12.408148735631256"><ele>147.0</ele><time>2026-05-03T14:12:09Z</time></trkpt><trkpt lat="42.804900014905776" lon="12.408276201742346"><ele>147.0</ele><time>2026-05-03T14:12:10Z</time></trkpt><trkpt lat="42.80491236911985" lon="12.408399424896812"><ele>147.0</ele><time>2026-05-03T14:12:11Z</time></trkpt><trkpt lat="42.80491445502632" lon="12.40852326613178"><ele>147.0</ele><time>2026-05-03T14:12:12Z</time></trkpt><trkpt lat="42.80489989898911" lon="12.40864250002708"><ele>147.0</ele><time>2026-05-03T14:12:13Z</time></trkpt><trkpt lat="42.80486279939285" lon="12.408746403179594"><ele>147.0</ele><time>2026-05-03T14:12:14Z</time></trkpt><trkpt lat="42.804806044918045" lon="12.408831793715942"><ele>147.0</ele><time>2026-05-03T14:12:15Z</time></trkpt><trkpt lat="42.80474231883251" lon="12.4089023969906"><ele>147.16666666666666</ele><time>2026-05-03T14:12:16Z</time></trkpt><trkpt lat="42.804665924628914" lon="12.408962755652084"><ele>147.33333333333334</ele><time>2026-05-03T14:12:17Z</time></trkpt><trkpt lat="42.804580394716396" lon="12.408998958854678"><ele>147.5</ele><time>2026-05-03T14:12:18Z</time></trkpt><trkpt lat="42.804492376430844" lon="12.409009257571805"><ele>147.66666666666669</ele><time>2026-05-03T14:12:19Z</time></trkpt><trkpt lat="42.80440305824763" lon="12.408992226192302"><ele>147.83333333333334</ele><time>2026-05-03T14:12:20Z</time></trkpt><trkpt lat="42.80431821145164" lon="12.40894827210284"><ele>148.0</ele><time>2026-05-03T14:12:21Z</time></trkpt><trkpt lat="42.804241249849866" lon="12.40888300561303"><ele>148.20000000000002</ele><time>2026-05-03T14:12:22Z</time></trkpt><trkpt lat="42.8041756627105" lon="12.408796602498995"><ele>148.4</ele><time>2026-05-03T14:12:23Z</time></trkpt><trkpt lat="42.804122991780474" lon="12.408693156082961"><ele>148.60000000000002</ele><time>2026-05-03T14:12:24Z</time></trkpt><trkpt lat="42.80409672068349" lon="12.408570269025686"><ele>148.8</ele><time>2026-05-03T14:12:25Z</time></trkpt><trkpt lat="42.804088929063006" lon="12.408444571395401"><ele>149.0</ele><time>2026-05-03T14:12:26Z</time></trkpt><trkpt lat="42.80410130331436" lon="12.408315516615842"><ele>149.0</ele><time>2026-05-03T14:12:27Z</time></trkpt><trkpt lat="42.804139551191014" lon="12.408192837866407"><ele>149.0</ele><time>2026-05-03T14:12:28Z</time></trkpt><trkpt lat="42.804185059116456" lon="12.408082586706934"><ele>149.0</ele><time>2026-05-03T14:12:28.999Z</time></trkpt><trkpt lat="42.80424968224017" lon="12.407993019053965"><ele>149.0</ele><time>2026-05-03T14:12:29.999Z</time></trkpt><trkpt lat="42.80433651196768" lon="12.407929301656292"><ele>149.0</ele><time>2026-05-03T14:12:30.999Z</time></trkpt><trkpt lat="42.80443459019157" lon="12.40788084461409"><ele>149.0</ele><time>2026-05-03T14:12:31.999Z</time></trkpt><trkpt lat="42.804539505756104" lon="12.407844302181822"><ele>149.0</ele><time>2026-05-03T14:12:32.999Z</time></trkpt><trkpt lat="42.8046523219333" lon="12.407817422568103"><ele>149.0</ele><time>2026-05-03T14:12:33.999Z</time></trkpt><trkpt lat="42.80477001606668" lon="12.40778397449563"><ele>149.0</ele><time>2026-05-03T14:12:34.999Z</time></trkpt><trkpt lat="42.80489320453693" lon="12.407744972716932"><ele>149.0</ele><time>2026-05-03T14:12:35.999Z</time></trkpt><trkpt lat="42.80502514245331" lon="12.407694759970472"><ele>149.0</ele><time>2026-05-03T14:12:36.999Z</time></trkpt><trkpt lat="42.80516397415734" lon="12.407636449718517"><ele>149.0</ele><time>2026-05-03T14:12:37.999Z</time></trkpt><trkpt lat="42.805302120401706" lon="12.407592964955445"><ele>149.0</ele><time>2026-05-03T14:12:38.999Z</time></trkpt><trkpt lat="42.80544713103864" lon="12.407549486391158"><ele>148.66666666666666</ele><time>2026-05-03T14:12:39.999Z</time></trkpt><trkpt lat="42.80559701387626" lon="12.40750823237612"><ele>148.33333333333334</ele><time>2026-05-03T14:12:40.999Z</time></trkpt><trkpt lat="42.80575023002093" lon="12.407466631812754"><ele>148.0</ele><time>2026-05-03T14:12:41.999Z</time></trkpt><trkpt lat="42.80590839308297" lon="12.407421020587346"><ele>148.0</ele><time>2026-05-03T14:12:42.999Z</time></trkpt><trkpt lat="42.806069312046894" lon="12.40736520241847"><ele>148.0</ele><time>2026-05-03T14:12:43.999Z</time></trkpt><trkpt lat="42.80623772573406" lon="12.407316777023581"><ele>148.0</ele><time>2026-05-03T14:12:44.999Z</time></trkpt><trkpt lat="42.806411861445255" lon="12.407277256876196"><ele>148.0</ele><time>2026-05-03T14:12:45.999Z</time></trkpt><trkpt lat="42.806577976130136" lon="12.407234632325709"><ele>148.0</ele><time>2026-05-03T14:12:46.999Z</time></trkpt><trkpt lat="42.80675142070721" lon="12.407186950120169"><ele>148.0</ele><time>2026-05-03T14:12:47.999Z</time></trkpt><trkpt lat="42.806929049011664" lon="12.407137951289998"><ele>147.0</ele><time>2026-05-03T14:12:48.999Z</time></trkpt><trkpt lat="42.80711738093487" lon="12.407084518155242"><ele>146.0</ele><time>2026-05-03T14:12:49.999Z</time></trkpt><trkpt lat="42.80730238304642" lon="12.407032472775343"><ele>145.0</ele><time>2026-05-03T14:12:50.999Z</time></trkpt><trkpt lat="42.80749761414874" lon="12.406978498508632"><ele>145.33333333333334</ele><time>2026-05-03T14:12:51.999Z</time></trkpt><trkpt lat="42.80768925066238" lon="12.406924621122455"><ele>145.66666666666666</ele><time>2026-05-03T14:12:52.999Z</time></trkpt><trkpt lat="42.80789060258883" lon="12.406869687097451"><ele>146.0</ele><time>2026-05-03T14:12:53.999Z</time></trkpt><trkpt lat="42.80809284264594" lon="12.406816989498951"><ele>146.0</ele><time>2026-05-03T14:12:54.999Z</time></trkpt><trkpt lat="42.80829811247425" lon="12.4067611749901"><ele>146.0</ele><time>2026-05-03T14:12:55.999Z</time></trkpt><trkpt lat="42.80850352196542" lon="12.406698999373969"><ele>146.0</ele><time>2026-05-03T14:12:56.999Z</time></trkpt><trkpt lat="42.808710730222494" lon="12.406632399891167"><ele>146.33333333333331</ele><time>2026-05-03T14:12:57.999Z</time></trkpt><trkpt lat="42.80892374815868" lon="12.406568534645817"><ele>146.66666666666666</ele><time>2026-05-03T14:12:58.999Z</time></trkpt><trkpt lat="42.80913084168921" lon="12.40650758743967"><ele>147.0</ele><time>2026-05-03T14:12:59.999Z</time></trkpt><trkpt lat="42.80933451894354" lon="12.40645683638509"><ele>147.0</ele><time>2026-05-03T14:13:00.999Z</time></trkpt><trkpt lat="42.809548218752234" lon="12.40641704055519"><ele>147.0</ele><time>2026-05-03T14:13:01.999Z</time></trkpt><trkpt lat="42.80974055183175" lon="12.406340220829009"><ele>147.0</ele><time>2026-05-03T14:13:02.999Z</time></trkpt><trkpt lat="42.80994124923125" lon="12.40628414767921"><ele>146.66666666666666</ele><time>2026-05-03T14:13:03.999Z</time></trkpt><trkpt lat="42.81014351491595" lon="12.40623095260841"><ele>146.33333333333331</ele><time>2026-05-03T14:13:04.999Z</time></trkpt><trkpt lat="42.81034003714801" lon="12.40618136629323"><ele>146.0</ele><time>2026-05-03T14:13:05.999Z</time></trkpt><trkpt lat="42.810538668787174" lon="12.40613168800457"><ele>146.0</ele><time>2026-05-03T14:13:06.999Z</time></trkpt><trkpt lat="42.810734270323124" lon="12.406071631893225"><ele>146.0</ele><time>2026-05-03T14:13:07.999Z</time></trkpt><trkpt lat="42.81093221309982" lon="12.406014127282596"><ele>146.0</ele><time>2026-05-03T14:13:08.999Z</time></trkpt><trkpt lat="42.811126289441816" lon="12.405956448979785"><ele>146.33333333333331</ele><time>2026-05-03T14:13:09.999Z</time></trkpt><trkpt lat="42.811326756842604" lon="12.405899988182215"><ele>146.66666666666666</ele><time>2026-05-03T14:13:10.999Z</time></trkpt><trkpt lat="42.811524376002886" lon="12.405841548135154"><ele>147.0</ele><time>2026-05-03T14:13:11.999Z</time></trkpt><trkpt lat="42.81171944787714" lon="12.405786231489024"><ele>146.66666666666666</ele><time>2026-05-03T14:13:12.999Z</time></trkpt><trkpt lat="42.81191894898457" lon="12.40573034478948"><ele>146.33333333333331</ele><time>2026-05-03T14:13:13.999Z</time></trkpt><trkpt lat="42.812114320364" lon="12.405677147190353"><ele>146.0</ele><time>2026-05-03T14:13:14.999Z</time></trkpt><trkpt lat="42.81231351088175" lon="12.405617845930596"><ele>146.0</ele><time>2026-05-03T14:13:15.999Z</time></trkpt><trkpt lat="42.812513480046256" lon="12.405558044352793"><ele>146.0</ele><time>2026-05-03T14:13:16.999Z</time></trkpt><trkpt lat="42.81271143351557" lon="12.405487596294302"><ele>146.0</ele><time>2026-05-03T14:13:17.999Z</time></trkpt><trkpt lat="42.812905018082674" lon="12.40540306100107"><ele>147.0</ele><time>2026-05-03T14:13:18.999Z</time></trkpt><trkpt lat="42.813096709216175" lon="12.405311792321903"><ele>148.0</ele><time>2026-05-03T14:13:19.999Z</time></trkpt><trkpt lat="42.81328399060078" lon="12.405214993812525"><ele>149.0</ele><time>2026-05-03T14:13:20.999Z</time></trkpt><trkpt lat="42.81347436350212" lon="12.405109180060348"><ele>149.0</ele><time>2026-05-03T14:13:21.999Z</time></trkpt><trkpt lat="42.81365536100368" lon="12.404992304150197"><ele>149.0</ele><time>2026-05-03T14:13:22.999Z</time></trkpt><trkpt lat="42.81383984017161" lon="12.404872554103056"><ele>149.0</ele><time>2026-05-03T14:13:23.999Z</time></trkpt><trkpt lat="42.81401816188741" lon="12.40474470380914"><ele>149.33333333333331</ele><time>2026-05-03T14:13:24.999Z</time></trkpt><trkpt lat="42.814195498771454" lon="12.40461568807248"><ele>149.66666666666666</ele><time>2026-05-03T14:13:25.999Z</time></trkpt><trkpt lat="42.81437165407029" lon="12.404476485316875"><ele>150.0</ele><time>2026-05-03T14:13:27Z</time></trkpt><trkpt lat="42.814546957310476" lon="12.404331724977313"><ele>150.0</ele><time>2026-05-03T14:13:28Z</time></trkpt><trkpt lat="42.81471471480734" lon="12.404181545908237"><ele>150.0</ele><time>2026-05-03T14:13:29Z</time></trkpt><trkpt lat="42.814884466227056" lon="12.404023490159775"><ele>150.0</ele><time>2026-05-03T14:13:30Z</time></trkpt><trkpt lat="42.815054023552385" lon="12.403875042066147"><ele>149.66666666666666</ele><time>2026-05-03T14:13:31Z</time></trkpt><trkpt lat="42.81522568270843" lon="12.403729319355389"><ele>149.33333333333331</ele><time>2026-05-03T14:13:32Z</time></trkpt><trkpt lat="42.81539590704462" lon="12.40357983280785"><ele>149.0</ele><time>2026-05-03T14:13:33Z</time></trkpt><trkpt lat="42.81556449051453" lon="12.403424443412094"><ele>149.0</ele><time>2026-05-03T14:13:34Z</time></trkpt><trkpt lat="42.81573065391824" lon="12.403271550690075"><ele>149.0</ele><time>2026-05-03T14:13:35Z</time></trkpt><trkpt lat="42.815898172541864" lon="12.403121181157676"><ele>149.0</ele><time>2026-05-03T14:13:36Z</time></trkpt><trkpt lat="42.81606505005639" lon="12.402970751566459"><ele>149.33333333333331</ele><time>2026-05-03T14:13:37Z</time></trkpt><trkpt lat="42.81623418153706" lon="12.402820745421574"><ele>149.66666666666666</ele><time>2026-05-03T14:13:38Z</time></trkpt><trkpt lat="42.81640316939566" lon="12.40267224377936"><ele>150.0</ele><time>2026-05-03T14:13:39Z</time></trkpt><trkpt lat="42.8165773920321" lon="12.402520593796618"><ele>150.0</ele><time>2026-05-03T14:13:40Z</time></trkpt><trkpt lat="42.81674612905547" lon="12.402368655253643"><ele>150.0</ele><time>2026-05-03T14:13:41Z</time></trkpt><trkpt lat="42.81691335466916" lon="12.402216937169865"><ele>150.0</ele><time>2026-05-03T14:13:42Z</time></trkpt><trkpt lat="42.817085097505526" lon="12.402065101644434"><ele>150.0</ele><time>2026-05-03T14:13:43Z</time></trkpt><trkpt lat="42.817254393902815" lon="12.401918368105095"><ele>150.0</ele><time>2026-05-03T14:13:44Z</time></trkpt><trkpt lat="42.817421529590895" lon="12.401771264880495"><ele>150.0</ele><time>2026-05-03T14:13:45Z</time></trkpt><trkpt lat="42.81758837680844" lon="12.401619649839017"><ele>151.66666666666666</ele><time>2026-05-03T14:13:46Z</time></trkpt><trkpt lat="42.81775799789258" lon="12.401469132001987"><ele>153.33333333333331</ele><time>2026-05-03T14:13:47Z</time></trkpt><trkpt lat="42.817929952609965" lon="12.401324081101647"><ele>155.0</ele><time>2026-05-03T14:13:48Z</time></trkpt><trkpt lat="42.818104237738076" lon="12.401175722350127"><ele>155.0</ele><time>2026-05-03T14:13:49Z</time></trkpt><trkpt lat="42.818275030945614" lon="12.40103671482391"><ele>155.0</ele><time>2026-05-03T14:13:50Z</time></trkpt><trkpt lat="42.818451672131545" lon="12.400901603192743"><ele>155.0</ele><time>2026-05-03T14:13:51Z</time></trkpt><trkpt lat="42.818633576765464" lon="12.40077956166999"><ele>156.33333333333331</ele><time>2026-05-03T14:13:52Z</time></trkpt><trkpt lat="42.81881677653141" lon="12.40066890264424"><ele>157.66666666666666</ele><time>2026-05-03T14:13:53Z</time></trkpt><trkpt lat="42.819001983876774" lon="12.400561547282905"><ele>159.0</ele><time>2026-05-03T14:13:54Z</time></trkpt><trkpt lat="42.8191879098743" lon="12.400455847111836"><ele>161.66666666666666</ele><time>2026-05-03T14:13:55Z</time></trkpt><trkpt lat="42.81937812087687" lon="12.400350486566785"><ele>164.33333333333331</ele><time>2026-05-03T14:13:56Z</time></trkpt><trkpt lat="42.81956896180893" lon="12.400256163781432"><ele>167.0</ele><time>2026-05-03T14:13:57Z</time></trkpt><trkpt lat="42.819761966759984" lon="12.400174365699428"><ele>167.0</ele><time>2026-05-03T14:13:58Z</time></trkpt><trkpt lat="42.81995652020616" lon="12.400103204022647"><ele>167.0</ele><time>2026-05-03T14:13:59Z</time></trkpt><trkpt lat="42.82015399952444" lon="12.400040825491757"><ele>167.0</ele><time>2026-05-03T14:14:00Z</time></trkpt><trkpt lat="42.82035108711857" lon="12.399980885321993"><ele>168.0</ele><time>2026-05-03T14:14:01Z</time></trkpt><trkpt lat="42.820545921926936" lon="12.399926299497366"><ele>169.0</ele><time>2026-05-03T14:14:02Z</time></trkpt><trkpt lat="42.82074444949786" lon="12.399873195484458"><ele>170.0</ele><time>2026-05-03T14:14:03Z</time></trkpt><trkpt lat="42.82093822730988" lon="12.399815323550166"><ele>170.66666666666666</ele><time>2026-05-03T14:14:04Z</time></trkpt><trkpt lat="42.821139869380296" lon="12.399773654068184"><ele>171.33333333333334</ele><time>2026-05-03T14:14:05Z</time></trkpt><trkpt lat="42.82134021078797" lon="12.399728902436975"><ele>172.0</ele><time>2026-05-03T14:14:06Z</time></trkpt><trkpt lat="42.82154177426185" lon="12.399679658596117"><ele>172.66666666666669</ele><time>2026-05-03T14:14:07Z</time></trkpt><trkpt lat="42.82173960463053" lon="12.399629121911769"><ele>173.33333333333334</ele><time>2026-05-03T14:14:08Z</time></trkpt><trkpt lat="42.8219404119413" lon="12.399577981912183"><ele>174.0</ele><time>2026-05-03T14:14:09Z</time></trkpt><trkpt lat="42.822136415700264" lon="12.399527807934984"><ele>175.33333333333334</ele><time>2026-05-03T14:14:10Z</time></trkpt><trkpt lat="42.82233631814332" lon="12.399478346667093"><ele>176.66666666666669</ele><time>2026-05-03T14:14:11Z</time></trkpt><trkpt lat="42.822534604519014" lon="12.399427518307114"><ele>178.0</ele><time>2026-05-03T14:14:12Z</time></trkpt><trkpt lat="42.82273505938815" lon="12.39937697755739"><ele>179.33333333333334</ele><time>2026-05-03T14:14:13Z</time></trkpt><trkpt lat="42.82293247651137" lon="12.39933087299335"><ele>180.66666666666666</ele><time>2026-05-03T14:14:14Z</time></trkpt><trkpt lat="42.823128628686774" lon="12.399288381449697"><ele>182.0</ele><time>2026-05-03T14:14:15Z</time></trkpt><trkpt lat="42.82332862590338" lon="12.399244607517824"><ele>182.66666666666666</ele><time>2026-05-03T14:14:16Z</time></trkpt><trkpt lat="42.823529577700015" lon="12.399196472598957"><ele>183.33333333333334</ele><time>2026-05-03T14:14:17Z</time></trkpt><trkpt lat="42.82372724748285" lon="12.3991481579151"><ele>184.0</ele><time>2026-05-03T14:14:18Z</time></trkpt><trkpt lat="42.82392569758175" lon="12.399103925027951"><ele>184.0</ele><time>2026-05-03T14:14:19Z</time></trkpt><trkpt lat="42.824129418228864" lon="12.399064630688908"><ele>184.0</ele><time>2026-05-03T14:14:20Z</time></trkpt><trkpt lat="42.82433235672137" lon="12.399026551716405"><ele>184.0</ele><time>2026-05-03T14:14:21Z</time></trkpt><trkpt lat="42.82453313965203" lon="12.398998282229881"><ele>186.0</ele><time>2026-05-03T14:14:22Z</time></trkpt><trkpt lat="42.82473602808257" lon="12.398982626455183"><ele>188.0</ele><time>2026-05-03T14:14:23Z</time></trkpt><trkpt lat="42.82493577268373" lon="12.398967679474024"><ele>190.0</ele><time>2026-05-03T14:14:24Z</time></trkpt><trkpt lat="42.825139976351416" lon="12.398956553287677"><ele>191.33333333333334</ele><time>2026-05-03T14:14:25Z</time></trkpt><trkpt lat="42.82534352251663" lon="12.398948244227583"><ele>192.66666666666669</ele><time>2026-05-03T14:14:25.999Z</time></trkpt><trkpt lat="42.825546998126086" lon="12.398950664796242"><ele>194.0</ele><time>2026-05-03T14:14:26.999Z</time></trkpt><trkpt lat="42.825750802509106" lon="12.398962837890057"><ele>194.0</ele><time>2026-05-03T14:14:27.999Z</time></trkpt><trkpt lat="42.82595474413379" lon="12.398977143374866"><ele>194.0</ele><time>2026-05-03T14:14:28.999Z</time></trkpt><trkpt lat="42.82615975416581" lon="12.398995937527358"><ele>194.0</ele><time>2026-05-03T14:14:29.999Z</time></trkpt><trkpt lat="42.82636124378498" lon="12.399025193114232"><ele>194.0</ele><time>2026-05-03T14:14:30.999Z</time></trkpt><trkpt lat="42.82656342530635" lon="12.399055920109124"><ele>194.0</ele><time>2026-05-03T14:14:31.999Z</time></trkpt><trkpt lat="42.82676382934459" lon="12.399091275193227"><ele>194.0</ele><time>2026-05-03T14:14:32.999Z</time></trkpt><trkpt lat="42.82696574937819" lon="12.399144147804044"><ele>191.66666666666669</ele><time>2026-05-03T14:14:33.999Z</time></trkpt><trkpt lat="42.82716472204026" lon="12.399197726613934"><ele>189.33333333333334</ele><time>2026-05-03T14:14:34.999Z</time></trkpt><trkpt lat="42.827365490283036" lon="12.399256236824698"><ele>187.0</ele><time>2026-05-03T14:14:35.999Z</time></trkpt><trkpt lat="42.82756305810829" lon="12.399311109261268"><ele>183.33333333333334</ele><time>2026-05-03T14:14:36.999Z</time></trkpt><trkpt lat="42.8277616447018" lon="12.39937173426661"><ele>179.66666666666666</ele><time>2026-05-03T14:14:37.999Z</time></trkpt><trkpt lat="42.82795842678502" lon="12.399433787269118"><ele>176.0</ele><time>2026-05-03T14:14:38.999Z</time></trkpt><trkpt lat="42.82815817406696" lon="12.399495455094975"><ele>176.0</ele><time>2026-05-03T14:14:39.999Z</time></trkpt><trkpt lat="42.82835835663277" lon="12.399550596969835"><ele>176.0</ele><time>2026-05-03T14:14:40.999Z</time></trkpt><trkpt lat="42.82856006716908" lon="12.399606555528484"><ele>176.0</ele><time>2026-05-03T14:14:41.999Z</time></trkpt><trkpt lat="42.82875682675829" lon="12.399659393447621"><ele>176.0</ele><time>2026-05-03T14:14:42.999Z</time></trkpt><trkpt lat="42.8289568296063" lon="12.399713518427157"><ele>176.0</ele><time>2026-05-03T14:14:43.999Z</time></trkpt><trkpt lat="42.82915309784428" lon="12.399768681082984"><ele>176.0</ele><time>2026-05-03T14:14:44.999Z</time></trkpt><trkpt lat="42.829350865113994" lon="12.399833637876158"><ele>173.66666666666666</ele><time>2026-05-03T14:14:45.999Z</time></trkpt><trkpt lat="42.829548369281206" lon="12.399893806684588"><ele>171.33333333333334</ele><time>2026-05-03T14:14:46.999Z</time></trkpt><trkpt lat="42.8297467932246" lon="12.399952373256326"><ele>169.0</ele><time>2026-05-03T14:14:47.999Z</time></trkpt><trkpt lat="42.82994375046653" lon="12.400008050602692"><ele>167.33333333333334</ele><time>2026-05-03T14:14:48.999Z</time></trkpt><trkpt lat="42.83014291278166" lon="12.400068166348929"><ele>165.66666666666666</ele><time>2026-05-03T14:14:49.999Z</time></trkpt><trkpt lat="42.83034136089234" lon="12.400133078393118"><ele>164.0</ele><time>2026-05-03T14:14:50.999Z</time></trkpt><trkpt lat="42.83053634242797" lon="12.400199716063886"><ele>164.0</ele><time>2026-05-03T14:14:51.999Z</time></trkpt><trkpt lat="42.83073167040096" lon="12.400263880126738"><ele>164.0</ele><time>2026-05-03T14:14:52.999Z</time></trkpt><trkpt lat="42.83092912592069" lon="12.400332414349917"><ele>164.0</ele><time>2026-05-03T14:14:53.999Z</time></trkpt><trkpt lat="42.83112333257029" lon="12.400410193586268"><ele>164.33333333333331</ele><time>2026-05-03T14:14:54.999Z</time></trkpt><trkpt lat="42.83131279371494" lon="12.400499267042933"><ele>164.66666666666666</ele><time>2026-05-03T14:14:55.999Z</time></trkpt><trkpt lat="42.83150459646827" lon="12.40060062204065"><ele>165.0</ele><time>2026-05-03T14:14:56.999Z</time></trkpt><trkpt lat="42.83169283363899" lon="12.400696788180763"><ele>163.33333333333334</ele><time>2026-05-03T14:14:57.999Z</time></trkpt><trkpt lat="42.831880653724944" lon="12.400801988238968"><ele>161.66666666666669</ele><time>2026-05-03T14:14:58.999Z</time></trkpt><trkpt lat="42.83206251499144" lon="12.40091238915568"><ele>160.0</ele><time>2026-05-03T14:14:59.999Z</time></trkpt><trkpt lat="42.832245922704594" lon="12.401032852234493"><ele>160.0</ele><time>2026-05-03T14:15:00.999Z</time></trkpt><trkpt lat="42.83242642452309" lon="12.40114639433622"><ele>160.0</ele><time>2026-05-03T14:15:01.999Z</time></trkpt><trkpt lat="42.83260938412449" lon="12.401266558515058"><ele>160.0</ele><time>2026-05-03T14:15:02.999Z</time></trkpt><trkpt lat="42.832795239366654" lon="12.401387755006267"><ele>159.66666666666669</ele><time>2026-05-03T14:15:03.999Z</time></trkpt><trkpt lat="42.83298024317051" lon="12.40150663279983"><ele>159.33333333333334</ele><time>2026-05-03T14:15:04.999Z</time></trkpt><trkpt lat="42.83316228977238" lon="12.401621633973072"><ele>159.0</ele><time>2026-05-03T14:15:05.999Z</time></trkpt><trkpt lat="42.833348048893534" lon="12.401739641170703"><ele>157.66666666666666</ele><time>2026-05-03T14:15:06.999Z</time></trkpt><trkpt lat="42.833533259418765" lon="12.40185648505977"><ele>156.33333333333331</ele><time>2026-05-03T14:15:07.999Z</time></trkpt><trkpt lat="42.83371521478537" lon="12.401970018817204"><ele>155.0</ele><time>2026-05-03T14:15:08.999Z</time></trkpt><trkpt lat="42.833895177399064" lon="12.402085930818954"><ele>154.66666666666666</ele><time>2026-05-03T14:15:09.999Z</time></trkpt><trkpt lat="42.834077282915224" lon="12.402203262614657"><ele>154.33333333333334</ele><time>2026-05-03T14:15:10.999Z</time></trkpt><trkpt lat="42.834262368356576" lon="12.402321863987751"><ele>154.0</ele><time>2026-05-03T14:15:11.999Z</time></trkpt><trkpt lat="42.83444521580839" lon="12.40243914240211"><ele>154.0</ele><time>2026-05-03T14:15:12.999Z</time></trkpt><trkpt lat="42.834630121308756" lon="12.402555746296802"><ele>154.0</ele><time>2026-05-03T14:15:13.999Z</time></trkpt><trkpt lat="42.83481387501574" lon="12.402672039818032"><ele>154.0</ele><time>2026-05-03T14:15:14.999Z</time></trkpt><trkpt lat="42.83499748832575" lon="12.402789296121057"><ele>153.66666666666669</ele><time>2026-05-03T14:15:15.999Z</time></trkpt><trkpt lat="42.83517877700919" lon="12.402905855604454"><ele>153.33333333333334</ele><time>2026-05-03T14:15:16.999Z</time></trkpt><trkpt lat="42.83536288299116" lon="12.403022983181545"><ele>153.0</ele><time>2026-05-03T14:15:17.999Z</time></trkpt><trkpt lat="42.83554575158005" lon="12.403142029315147"><ele>153.0</ele><time>2026-05-03T14:15:18.999Z</time></trkpt><trkpt lat="42.83572744958039" lon="12.403261924012991"><ele>153.0</ele><time>2026-05-03T14:15:19.999Z</time></trkpt><trkpt lat="42.83591075229901" lon="12.40337980301652"><ele>153.0</ele><time>2026-05-03T14:15:20.999Z</time></trkpt><trkpt lat="42.83609428416284" lon="12.403498051861943"><ele>153.0</ele><time>2026-05-03T14:15:21.999Z</time></trkpt><trkpt lat="42.83627943302655" lon="12.4036232832588"><ele>153.0</ele><time>2026-05-03T14:15:22.999Z</time></trkpt><trkpt lat="42.83645754685387" lon="12.403754289915991"><ele>153.0</ele><time>2026-05-03T14:15:23.999Z</time></trkpt><trkpt lat="42.836636509453605" lon="12.403888408237666"><ele>153.66666666666666</ele><time>2026-05-03T14:15:24.999Z</time></trkpt><trkpt lat="42.836810732317346" lon="12.404021297784919"><ele>154.33333333333331</ele><time>2026-05-03T14:15:25.999Z</time></trkpt><trkpt lat="42.836989600745184" lon="12.404160811536698"><ele>155.0</ele><time>2026-05-03T14:15:26.999Z</time></trkpt><trkpt lat="42.83716245502239" lon="12.404300598746362"><ele>155.0</ele><time>2026-05-03T14:15:27.999Z</time></trkpt><trkpt lat="42.83733465730198" lon="12.404442471117934"><ele>155.0</ele><time>2026-05-03T14:15:28.999Z</time></trkpt><trkpt lat="42.837506717537025" lon="12.404590015355298"><ele>155.0</ele><time>2026-05-03T14:15:29.999Z</time></trkpt><trkpt lat="42.837673696798355" lon="12.404740800991188"><ele>154.66666666666666</ele><time>2026-05-03T14:15:30.999Z</time></trkpt><trkpt lat="42.837845237106606" lon="12.404893758050926"><ele>154.33333333333334</ele><time>2026-05-03T14:15:31.999Z</time></trkpt><trkpt lat="42.83801530516739" lon="12.405040217205945"><ele>154.0</ele><time>2026-05-03T14:15:33Z</time></trkpt><trkpt lat="42.83818767349839" lon="12.40518904942301"><ele>154.0</ele><time>2026-05-03T14:15:34Z</time></trkpt><trkpt lat="42.83834738167239" lon="12.405333406169923"><ele>154.0</ele><time>2026-05-03T14:15:35Z</time></trkpt><trkpt lat="42.83849560847356" lon="12.405472896325545"><ele>154.0</ele><time>2026-05-03T14:15:36Z</time></trkpt><trkpt lat="42.83864031145618" lon="12.405597790857193"><ele>154.0</ele><time>2026-05-03T14:15:37Z</time></trkpt><trkpt lat="42.83877992631953" lon="12.405722857413606"><ele>154.0</ele><time>2026-05-03T14:15:38Z</time></trkpt><trkpt lat="42.838918185263545" lon="12.40584791007095"><ele>154.0</ele><time>2026-05-03T14:15:39Z</time></trkpt><trkpt lat="42.83906155249295" lon="12.405973774429539"><ele>154.0</ele><time>2026-05-03T14:15:40Z</time></trkpt><trkpt lat="42.839199213240164" lon="12.406103255458074"><ele>154.0</ele><time>2026-05-03T14:15:41Z</time></trkpt><trkpt lat="42.83934152320865" lon="12.406233468133902"><ele>154.0</ele><time>2026-05-03T14:15:42Z</time></trkpt><trkpt lat="42.839486563884044" lon="12.406364226548263"><ele>154.66666666666669</ele><time>2026-05-03T14:15:43Z</time></trkpt><trkpt lat="42.83963403641264" lon="12.406494498202173"><ele>155.33333333333334</ele><time>2026-05-03T14:15:44Z</time></trkpt><trkpt lat="42.83978086934385" lon="12.406625252140252"><ele>156.0</ele><time>2026-05-03T14:15:45Z</time></trkpt><trkpt lat="42.83992470714931" lon="12.406761202673337"><ele>156.0</ele><time>2026-05-03T14:15:46Z</time></trkpt><trkpt lat="42.8400793809772" lon="12.406901964979632"><ele>156.0</ele><time>2026-05-03T14:15:47Z</time></trkpt><trkpt lat="42.840239259322594" lon="12.407044162511482"><ele>156.0</ele><time>2026-05-03T14:15:48Z</time></trkpt><trkpt lat="42.840397339065085" lon="12.407185808690263"><ele>157.33333333333334</ele><time>2026-05-03T14:15:49Z</time></trkpt><trkpt lat="42.84055947325086" lon="12.407331432912867"><ele>158.66666666666669</ele><time>2026-05-03T14:15:50Z</time></trkpt><trkpt lat="42.84072202961224" lon="12.40747747430123"><ele>160.0</ele><time>2026-05-03T14:15:51Z</time></trkpt><trkpt lat="42.84088760535171" lon="12.407626314552985"><ele>160.33333333333334</ele><time>2026-05-03T14:15:52Z</time></trkpt><trkpt lat="42.84105323509966" lon="12.407778028427407"><ele>160.66666666666666</ele><time>2026-05-03T14:15:53Z</time></trkpt><trkpt lat="42.84122424656008" lon="12.407927736757811"><ele>161.0</ele><time>2026-05-03T14:15:54Z</time></trkpt><trkpt lat="42.84139773754249" lon="12.40807725986584"><ele>161.0</ele><time>2026-05-03T14:15:55Z</time></trkpt><trkpt lat="42.84157779328736" lon="12.408215012850889"><ele>161.0</ele><time>2026-05-03T14:15:56Z</time></trkpt><trkpt lat="42.84176215736288" lon="12.408340762014193"><ele>161.0</ele><time>2026-05-03T14:15:57Z</time></trkpt><trkpt lat="42.84195241208271" lon="12.408453926581501"><ele>160.33333333333331</ele><time>2026-05-03T14:15:58Z</time></trkpt><trkpt lat="42.84214838716597" lon="12.40855114080335"><ele>159.66666666666666</ele><time>2026-05-03T14:15:59Z</time></trkpt><trkpt lat="42.842350621355166" lon="12.408616564878795"><ele>159.0</ele><time>2026-05-03T14:16:00Z</time></trkpt><trkpt lat="42.84255163349221" lon="12.408666187072042"><ele>158.66666666666666</ele><time>2026-05-03T14:16:01Z</time></trkpt><trkpt lat="42.84274976762745" lon="12.408708422410943"><ele>158.33333333333331</ele><time>2026-05-03T14:16:02Z</time></trkpt><trkpt lat="42.84296194393176" lon="12.40872845956476"><ele>158.0</ele><time>2026-05-03T14:16:03Z</time></trkpt><trkpt lat="42.843163990045" lon="12.408745279643606"><ele>158.0</ele><time>2026-05-03T14:16:04Z</time></trkpt><trkpt lat="42.843368074382845" lon="12.408736648894717"><ele>158.0</ele><time>2026-05-03T14:16:05Z</time></trkpt><trkpt lat="42.843576131594" lon="12.408722016911362"><ele>158.0</ele><time>2026-05-03T14:16:06Z</time></trkpt><trkpt lat="42.84377849826852" lon="12.408682917986264"><ele>158.0</ele><time>2026-05-03T14:16:07Z</time></trkpt><trkpt lat="42.8439793922359" lon="12.40863089038197"><ele>158.0</ele><time>2026-05-03T14:16:08Z</time></trkpt><trkpt lat="42.84417914449315" lon="12.408566473749616"><ele>158.0</ele><time>2026-05-03T14:16:09Z</time></trkpt><trkpt lat="42.844377487909824" lon="12.408491684578438"><ele>157.66666666666666</ele><time>2026-05-03T14:16:10Z</time></trkpt><trkpt lat="42.8445675350073" lon="12.408400102112028"><ele>157.33333333333334</ele><time>2026-05-03T14:16:11Z</time></trkpt><trkpt lat="42.844758044228676" lon="12.408292243916652"><ele>157.0</ele><time>2026-05-03T14:16:12Z</time></trkpt><trkpt lat="42.844970976902765" lon="12.408176915377332"><ele>156.66666666666669</ele><time>2026-05-03T14:16:13Z</time></trkpt><trkpt lat="42.845134253297154" lon="12.408041238028687"><ele>156.33333333333334</ele><time>2026-05-03T14:16:14Z</time></trkpt><trkpt lat="42.84531554680844" lon="12.407913278565925"><ele>156.0</ele><time>2026-05-03T14:16:15Z</time></trkpt><trkpt lat="42.845496999205615" lon="12.407789507138688"><ele>156.0</ele><time>2026-05-03T14:16:16Z</time></trkpt><trkpt lat="42.84568356305539" lon="12.40767013483377"><ele>156.0</ele><time>2026-05-03T14:16:17Z</time></trkpt><trkpt lat="42.8458704717341" lon="12.407555526395589"><ele>156.0</ele><time>2026-05-03T14:16:18Z</time></trkpt><trkpt lat="42.84605307262604" lon="12.407434942176193"><ele>155.66666666666666</ele><time>2026-05-03T14:16:19Z</time></trkpt><trkpt lat="42.8462326984264" lon="12.40730724960083"><ele>155.33333333333331</ele><time>2026-05-03T14:16:20Z</time></trkpt><trkpt lat="42.84641633724758" lon="12.407181645054086"><ele>155.0</ele><time>2026-05-03T14:16:21Z</time></trkpt><trkpt lat="42.846601120882376" lon="12.407060545529465"><ele>155.0</ele><time>2026-05-03T14:16:22Z</time></trkpt><trkpt lat="42.84678856490584" lon="12.406937834449227"><ele>155.0</ele><time>2026-05-03T14:16:23Z</time></trkpt><trkpt lat="42.84697080619966" lon="12.406814726736204"><ele>155.0</ele><time>2026-05-03T14:16:23.999Z</time></trkpt><trkpt lat="42.84715226941684" lon="12.406687473178506"><ele>155.66666666666666</ele><time>2026-05-03T14:16:24.999Z</time></trkpt><trkpt lat="42.84733400166434" lon="12.406560430487554"><ele>156.33333333333334</ele><time>2026-05-03T14:16:25.999Z</time></trkpt><trkpt lat="42.847518895542215" lon="12.406435188348079"><ele>157.0</ele><time>2026-05-03T14:16:26.999Z</time></trkpt><trkpt lat="42.847697924701016" lon="12.406310200125914"><ele>157.0</ele><time>2026-05-03T14:16:27.999Z</time></trkpt><trkpt lat="42.847886276653995" lon="12.406185867290711"><ele>157.0</ele><time>2026-05-03T14:16:28.999Z</time></trkpt><trkpt lat="42.84806720899941" lon="12.406065614841927"><ele>157.0</ele><time>2026-05-03T14:16:29.999Z</time></trkpt><trkpt lat="42.84824810702507" lon="12.405942593247305"><ele>157.0</ele><time>2026-05-03T14:16:30.999Z</time></trkpt><trkpt lat="42.84843277638357" lon="12.405818023133266"><ele>157.0</ele><time>2026-05-03T14:16:31.999Z</time></trkpt><trkpt lat="42.84861864430685" lon="12.40569226638963"><ele>157.0</ele><time>2026-05-03T14:16:32.999Z</time></trkpt><trkpt lat="42.84880067366254" lon="12.40556450957305"><ele>157.0</ele><time>2026-05-03T14:16:33.999Z</time></trkpt><trkpt lat="42.84898847733828" lon="12.405441199852897"><ele>157.0</ele><time>2026-05-03T14:16:34.999Z</time></trkpt><trkpt lat="42.84917192826843" lon="12.405320904292864"><ele>157.0</ele><time>2026-05-03T14:16:35.999Z</time></trkpt><trkpt lat="42.849355765328085" lon="12.405198854044151"><ele>157.0</ele><time>2026-05-03T14:16:36.999Z</time></trkpt><trkpt lat="42.849537885053245" lon="12.40507876819427"><ele>157.0</ele><time>2026-05-03T14:16:37.999Z</time></trkpt><trkpt lat="42.84972269374377" lon="12.404956707137197"><ele>157.0</ele><time>2026-05-03T14:16:38.999Z</time></trkpt><trkpt lat="42.84990412421194" lon="12.404834975342029"><ele>157.0</ele><time>2026-05-03T14:16:39.999Z</time></trkpt><trkpt lat="42.85009036557949" lon="12.404710533748785"><ele>157.0</ele><time>2026-05-03T14:16:40.999Z</time></trkpt><trkpt lat="42.8502731751645" lon="12.404587268699313"><ele>157.0</ele><time>2026-05-03T14:16:41.999Z</time></trkpt><trkpt lat="42.85045521970988" lon="12.404462668728153"><ele>156.66666666666669</ele><time>2026-05-03T14:16:42.999Z</time></trkpt><trkpt lat="42.85063937636982" lon="12.40433000266247"><ele>156.33333333333334</ele><time>2026-05-03T14:16:43.999Z</time></trkpt><trkpt lat="42.85082037875461" lon="12.404208698462915"><ele>156.0</ele><time>2026-05-03T14:16:44.999Z</time></trkpt><trkpt lat="42.85100523131277" lon="12.404086778801267"><ele>156.0</ele><time>2026-05-03T14:16:45.999Z</time></trkpt><trkpt lat="42.85118955528871" lon="12.403965689382623"><ele>156.0</ele><time>2026-05-03T14:16:46.999Z</time></trkpt><trkpt lat="42.851374734495195" lon="12.403846412195746"><ele>156.0</ele><time>2026-05-03T14:16:47.999Z</time></trkpt><trkpt lat="42.85155972524852" lon="12.403724559025859"><ele>156.0</ele><time>2026-05-03T14:16:48.999Z</time></trkpt><trkpt lat="42.851741785623794" lon="12.403602964527172"><ele>156.0</ele><time>2026-05-03T14:16:49.999Z</time></trkpt><trkpt lat="42.85192317642419" lon="12.403475996520868"><ele>156.0</ele><time>2026-05-03T14:16:50.999Z</time></trkpt><trkpt lat="42.85210608343967" lon="12.403348619142168"><ele>156.0</ele><time>2026-05-03T14:16:51.999Z</time></trkpt><trkpt lat="42.85228913235867" lon="12.40322392025919"><ele>156.0</ele><time>2026-05-03T14:16:52.999Z</time></trkpt><trkpt lat="42.85247686514617" lon="12.403097734074223"><ele>156.0</ele><time>2026-05-03T14:16:53.999Z</time></trkpt><trkpt lat="42.85266097852489" lon="12.402977627014542"><ele>155.66666666666666</ele><time>2026-05-03T14:16:54.999Z</time></trkpt><trkpt lat="42.8528447639922" lon="12.402859086479426"><ele>155.33333333333331</ele><time>2026-05-03T14:16:55.999Z</time></trkpt><trkpt lat="42.853030505436685" lon="12.40273492528699"><ele>155.0</ele><time>2026-05-03T14:16:56.999Z</time></trkpt><trkpt lat="42.853214856769455" lon="12.402613133165687"><ele>155.0</ele><time>2026-05-03T14:16:57.999Z</time></trkpt><trkpt lat="42.85339657038981" lon="12.402487231900613"><ele>155.0</ele><time>2026-05-03T14:16:58.999Z</time></trkpt><trkpt lat="42.85358437876462" lon="12.40236103007084"><ele>155.0</ele><time>2026-05-03T14:16:59.999Z</time></trkpt><trkpt lat="42.853771161136976" lon="12.402230011595561"><ele>155.0</ele><time>2026-05-03T14:17:00.999Z</time></trkpt><trkpt lat="42.853958789084786" lon="12.402103132116347"><ele>155.0</ele><time>2026-05-03T14:17:01.999Z</time></trkpt><trkpt lat="42.85415433413221" lon="12.401974164677393"><ele>155.0</ele><time>2026-05-03T14:17:02.999Z</time></trkpt><trkpt lat="42.8543414994229" lon="12.401853890869514"><ele>155.33333333333331</ele><time>2026-05-03T14:17:03.999Z</time></trkpt><trkpt lat="42.85453163441287" lon="12.40172405291538"><ele>155.66666666666666</ele><time>2026-05-03T14:17:04.999Z</time></trkpt><trkpt lat="42.8547124307637" lon="12.401593786407528"><ele>156.0</ele><time>2026-05-03T14:17:05.999Z</time></trkpt><trkpt lat="42.85490639614171" lon="12.401473258054535"><ele>156.0</ele><time>2026-05-03T14:17:06.999Z</time></trkpt><trkpt lat="42.85510242240027" lon="12.401350093108224"><ele>156.0</ele><time>2026-05-03T14:17:07.999Z</time></trkpt><trkpt lat="42.85532416654925" lon="12.401250863890995"><ele>156.0</ele><time>2026-05-03T14:17:08.999Z</time></trkpt><trkpt lat="42.85547225553472" lon="12.401094291716722"><ele>155.33333333333334</ele><time>2026-05-03T14:17:09.999Z</time></trkpt><trkpt lat="42.85566375077558" lon="12.400974247211387"><ele>154.66666666666669</ele><time>2026-05-03T14:17:10.999Z</time></trkpt><trkpt lat="42.855855635696415" lon="12.400855949451524"><ele>154.0</ele><time>2026-05-03T14:17:11.999Z</time></trkpt><trkpt lat="42.856044874426274" lon="12.400745884019978"><ele>154.0</ele><time>2026-05-03T14:17:12.999Z</time></trkpt><trkpt lat="42.85623729664486" lon="12.400632418267516"><ele>154.0</ele><time>2026-05-03T14:17:13.999Z</time></trkpt><trkpt lat="42.85643287880653" lon="12.400530401824303"><ele>154.0</ele><time>2026-05-03T14:17:14.999Z</time></trkpt><trkpt lat="42.856631157297045" lon="12.400436606845254"><ele>154.33333333333334</ele><time>2026-05-03T14:17:15.999Z</time></trkpt><trkpt lat="42.856829110126725" lon="12.400349254402123"><ele>154.66666666666666</ele><time>2026-05-03T14:17:16.999Z</time></trkpt><trkpt lat="42.857030924806764" lon="12.400263739696884"><ele>155.0</ele><time>2026-05-03T14:17:17.999Z</time></trkpt><trkpt lat="42.85723135146631" lon="12.400187732360358"><ele>155.0</ele><time>2026-05-03T14:17:18.999Z</time></trkpt><trkpt lat="42.85743304155293" lon="12.400119072786403"><ele>155.0</ele><time>2026-05-03T14:17:19.999Z</time></trkpt><trkpt lat="42.85764067989166" lon="12.400053713144239"><ele>155.0</ele><time>2026-05-03T14:17:20.999Z</time></trkpt><trkpt lat="42.85784819427602" lon="12.39999865320398"><ele>155.0</ele><time>2026-05-03T14:17:21.999Z</time></trkpt><trkpt lat="42.85805682187745" lon="12.3999491673814"><ele>155.0</ele><time>2026-05-03T14:17:22.999Z</time></trkpt><trkpt lat="42.85826713300148" lon="12.39990505892074"><ele>155.0</ele><time>2026-05-03T14:17:23.999Z</time></trkpt><trkpt lat="42.85847379247669" lon="12.399867605370364"><ele>155.0</ele><time>2026-05-03T14:17:24.999Z</time></trkpt><trkpt lat="42.85867749028121" lon="12.399824772224488"><ele>155.0</ele><time>2026-05-03T14:17:25.999Z</time></trkpt><trkpt lat="42.858885417268645" lon="12.39978160754018"><ele>155.0</ele><time>2026-05-03T14:17:26.999Z</time></trkpt><trkpt lat="42.85909411218185" lon="12.399738809395345"><ele>155.33333333333331</ele><time>2026-05-03T14:17:27.999Z</time></trkpt><trkpt lat="42.859300091474275" lon="12.39969864469616"><ele>155.66666666666666</ele><time>2026-05-03T14:17:28.999Z</time></trkpt><trkpt lat="42.85950628403038" lon="12.399654404601444"><ele>156.0</ele><time>2026-05-03T14:17:29.999Z</time></trkpt><trkpt lat="42.85971124493405" lon="12.399611625499897"><ele>156.0</ele><time>2026-05-03T14:17:30.999Z</time></trkpt><trkpt lat="42.859912734474904" lon="12.399565597210282"><ele>156.0</ele><time>2026-05-03T14:17:31.999Z</time></trkpt><trkpt lat="42.86010461184452" lon="12.399530764735776"><ele>156.0</ele><time>2026-05-03T14:17:32.999Z</time></trkpt><trkpt lat="42.86029726870772" lon="12.399488465969071"><ele>156.33333333333334</ele><time>2026-05-03T14:17:33.999Z</time></trkpt><trkpt lat="42.860489790751416" lon="12.39945048043416"><ele>156.66666666666669</ele><time>2026-05-03T14:17:34.999Z</time></trkpt><trkpt lat="42.86067849772406" lon="12.39941151362796"><ele>157.0</ele><time>2026-05-03T14:17:35.999Z</time></trkpt><trkpt lat="42.8608665313959" lon="12.399378498236253"><ele>156.66666666666669</ele><time>2026-05-03T14:17:36.999Z</time></trkpt><trkpt lat="42.86104863096125" lon="12.399339329487947"><ele>156.33333333333334</ele><time>2026-05-03T14:17:37.999Z</time></trkpt><trkpt lat="42.8612298090148" lon="12.399303398499969"><ele>156.0</ele><time>2026-05-03T14:17:38.999Z</time></trkpt><trkpt lat="42.86141053926038" lon="12.399257445626274"><ele>156.0</ele><time>2026-05-03T14:17:39.999Z</time></trkpt><trkpt lat="42.861595993698714" lon="12.399226350153603"><ele>156.0</ele><time>2026-05-03T14:17:40.999Z</time></trkpt><trkpt lat="42.86178301692143" lon="12.399190340724939"><ele>156.0</ele><time>2026-05-03T14:17:41.999Z</time></trkpt><trkpt lat="42.86197389895627" lon="12.399147977390738"><ele>156.66666666666666</ele><time>2026-05-03T14:17:42.999Z</time></trkpt><trkpt lat="42.862162319310045" lon="12.399109554644104"><ele>157.33333333333331</ele><time>2026-05-03T14:17:43.999Z</time></trkpt><trkpt lat="42.86235031595143" lon="12.399070840030483"><ele>158.0</ele><time>2026-05-03T14:17:44.999Z</time></trkpt><trkpt lat="42.86254162198198" lon="12.399025932639901"><ele>158.33333333333331</ele><time>2026-05-03T14:17:45.999Z</time></trkpt><trkpt lat="42.86273170966427" lon="12.398980591623685"><ele>158.66666666666666</ele><time>2026-05-03T14:17:46.999Z</time></trkpt><trkpt lat="42.862922839275804" lon="12.398942147459906"><ele>159.0</ele><time>2026-05-03T14:17:47.999Z</time></trkpt><trkpt lat="42.86311795777336" lon="12.39889835815106"><ele>159.0</ele><time>2026-05-03T14:17:48.999Z</time></trkpt><trkpt lat="42.863311598565815" lon="12.398866398495736"><ele>159.0</ele><time>2026-05-03T14:17:49.999Z</time></trkpt><trkpt lat="42.86350773944311" lon="12.398823657493537"><ele>159.0</ele><time>2026-05-03T14:17:50.999Z</time></trkpt><trkpt lat="42.863703445597544" lon="12.398783423428343"><ele>159.33333333333334</ele><time>2026-05-03T14:17:52Z</time></trkpt><trkpt lat="42.86389996146314" lon="12.398746342453162"><ele>159.66666666666669</ele><time>2026-05-03T14:17:53Z</time></trkpt><trkpt lat="42.864095878169174" lon="12.398709512368299"><ele>160.0</ele><time>2026-05-03T14:17:54Z</time></trkpt><trkpt lat="42.86429530269496" lon="12.398664179211378"><ele>160.66666666666669</ele><time>2026-05-03T14:17:55Z</time></trkpt><trkpt lat="42.86449038411265" lon="12.398625403772643"><ele>161.33333333333334</ele><time>2026-05-03T14:17:56Z</time></trkpt><trkpt lat="42.864685711662304" lon="12.39858437184786"><ele>162.0</ele><time>2026-05-03T14:17:57Z</time></trkpt><trkpt lat="42.86488130566659" lon="12.398541226578143"><ele>162.0</ele><time>2026-05-03T14:17:58Z</time></trkpt><trkpt lat="42.86507698395401" lon="12.398499507788648"><ele>162.0</ele><time>2026-05-03T14:17:59Z</time></trkpt><trkpt lat="42.86527207381248" lon="12.398462141461719"><ele>162.0</ele><time>2026-05-03T14:18:00Z</time></trkpt><trkpt lat="42.86546648458907" lon="12.398425790743774"><ele>162.0</ele><time>2026-05-03T14:18:01Z</time></trkpt><trkpt lat="42.86566410723382" lon="12.398381457551235"><ele>162.0</ele><time>2026-05-03T14:18:02Z</time></trkpt><trkpt lat="42.86585857842547" lon="12.39834347996561"><ele>162.0</ele><time>2026-05-03T14:18:03Z</time></trkpt><trkpt lat="42.86605520393056" lon="12.398299158462814"><ele>162.0</ele><time>2026-05-03T14:18:04Z</time></trkpt><trkpt lat="42.86624866078969" lon="12.398259389690317"><ele>162.0</ele><time>2026-05-03T14:18:04.999Z</time></trkpt><trkpt lat="42.8664439003791" lon="12.398221521345103"><ele>162.0</ele><time>2026-05-03T14:18:05.999Z</time></trkpt><trkpt lat="42.86664018902076" lon="12.398181696895945"><ele>162.33333333333334</ele><time>2026-05-03T14:18:06.999Z</time></trkpt><trkpt lat="42.86683390516623" lon="12.398144874391106"><ele>162.66666666666669</ele><time>2026-05-03T14:18:07.999Z</time></trkpt><trkpt lat="42.86703021472372" lon="12.398105512546042"><ele>163.0</ele><time>2026-05-03T14:18:08.999Z</time></trkpt><trkpt lat="42.867224415764184" lon="12.398068138831418"><ele>163.0</ele><time>2026-05-03T14:18:09.999Z</time></trkpt><trkpt lat="42.86742077549636" lon="12.398027427612233"><ele>163.0</ele><time>2026-05-03T14:18:10.999Z</time></trkpt><trkpt lat="42.867616614681424" lon="12.39798397034717"><ele>163.0</ele><time>2026-05-03T14:18:11.999Z</time></trkpt><trkpt lat="42.867812125638615" lon="12.39794232985891"><ele>163.0</ele><time>2026-05-03T14:18:12.999Z</time></trkpt><trkpt lat="42.86800702994043" lon="12.397898925443377"><ele>163.0</ele><time>2026-05-03T14:18:13.999Z</time></trkpt><trkpt lat="42.86820163654966" lon="12.397855859598746"><ele>163.0</ele><time>2026-05-03T14:18:14.999Z</time></trkpt><trkpt lat="42.86839850723304" lon="12.397815072497684"><ele>162.66666666666669</ele><time>2026-05-03T14:18:15.999Z</time></trkpt><trkpt lat="42.868593502243996" lon="12.397774960522701"><ele>162.33333333333334</ele><time>2026-05-03T14:18:16.999Z</time></trkpt><trkpt lat="42.86878986076688" lon="12.397733670457196"><ele>162.0</ele><time>2026-05-03T14:18:17.999Z</time></trkpt><trkpt lat="42.868984843136445" lon="12.39769458688384"><ele>162.0</ele><time>2026-05-03T14:18:18.999Z</time></trkpt><trkpt lat="42.8691785508221" lon="12.397655011244854"><ele>162.0</ele><time>2026-05-03T14:18:19.999Z</time></trkpt><trkpt lat="42.86937455333404" lon="12.397616459178987"><ele>162.0</ele><time>2026-05-03T14:18:20.999Z</time></trkpt><trkpt lat="42.86956871432673" lon="12.397579189094065"><ele>162.66666666666666</ele><time>2026-05-03T14:18:21.999Z</time></trkpt><trkpt lat="42.86976558069026" lon="12.397540295672695"><ele>163.33333333333331</ele><time>2026-05-03T14:18:22.999Z</time></trkpt><trkpt lat="42.8699599091868" lon="12.397499916071398"><ele>164.0</ele><time>2026-05-03T14:18:23.999Z</time></trkpt><trkpt lat="42.87015644013319" lon="12.397453692280603"><ele>164.66666666666666</ele><time>2026-05-03T14:18:24.999Z</time></trkpt><trkpt lat="42.870351320432285" lon="12.397411259664432"><ele>165.33333333333334</ele><time>2026-05-03T14:18:25.999Z</time></trkpt><trkpt lat="42.87054901802629" lon="12.397364326786212"><ele>166.0</ele><time>2026-05-03T14:18:26.999Z</time></trkpt><trkpt lat="42.870744489794944" lon="12.397325206666771"><ele>166.0</ele><time>2026-05-03T14:18:27.999Z</time></trkpt><trkpt lat="42.8709396204629" lon="12.397287565479983"><ele>166.0</ele><time>2026-05-03T14:18:28.999Z</time></trkpt><trkpt lat="42.871134063612146" lon="12.397241067081927"><ele>166.0</ele><time>2026-05-03T14:18:29.999Z</time></trkpt><trkpt lat="42.87133823545445" lon="12.397198503709442"><ele>166.33333333333334</ele><time>2026-05-03T14:18:30.999Z</time></trkpt><trkpt lat="42.871550921732556" lon="12.397148495413722"><ele>166.66666666666666</ele><time>2026-05-03T14:18:31.999Z</time></trkpt><trkpt lat="42.871770341208574" lon="12.39709481593357"><ele>167.0</ele><time>2026-05-03T14:18:32.999Z</time></trkpt><trkpt lat="42.87199799672199" lon="12.397040018782587"><ele>167.0</ele><time>2026-05-03T14:18:33.999Z</time></trkpt><trkpt lat="42.87223254238805" lon="12.396986376368806"><ele>167.0</ele><time>2026-05-03T14:18:34.999Z</time></trkpt><trkpt lat="42.87247600577955" lon="12.396930418195957"><ele>165.5</ele><time>2026-05-03T14:18:35.999Z</time></trkpt><trkpt lat="42.87272311015737" lon="12.396875366050619"><ele>164.0</ele><time>2026-05-03T14:18:36.999Z</time></trkpt><trkpt lat="42.872974439214126" lon="12.39682415492679"><ele>164.0</ele><time>2026-05-03T14:18:37.999Z</time></trkpt><trkpt lat="42.87322889658089" lon="12.39677311600769"><ele>164.0</ele><time>2026-05-03T14:18:38.999Z</time></trkpt><trkpt lat="42.87348269752763" lon="12.39672052217335"><ele>164.5</ele><time>2026-05-03T14:18:39.999Z</time></trkpt><trkpt lat="42.87373367788787" lon="12.396672838172801"><ele>165.0</ele><time>2026-05-03T14:18:40.999Z</time></trkpt><trkpt lat="42.8739913969268" lon="12.396634964678716"><ele>165.0</ele><time>2026-05-03T14:18:41.999Z</time></trkpt><trkpt lat="42.87423949337878" lon="12.396589677050862"><ele>165.0</ele><time>2026-05-03T14:18:42.999Z</time></trkpt><trkpt lat="42.87448781760725" lon="12.396554072375482"><ele>165.0</ele><time>2026-05-03T14:18:43.999Z</time></trkpt><trkpt lat="42.874736763195095" lon="12.39651293901529"><ele>165.0</ele><time>2026-05-03T14:18:44.999Z</time></trkpt><trkpt lat="42.87498462275013" lon="12.396473286109934"><ele>165.5</ele><time>2026-05-03T14:18:45.999Z</time></trkpt><trkpt lat="42.87523203749446" lon="12.39643353706302"><ele>166.0</ele><time>2026-05-03T14:18:46.999Z</time></trkpt><trkpt lat="42.87547582274702" lon="12.396398585931461"><ele>166.0</ele><time>2026-05-03T14:18:47.999Z</time></trkpt><trkpt lat="42.87571745830944" lon="12.396371459765458"><ele>166.0</ele><time>2026-05-03T14:18:48.999Z</time></trkpt><trkpt lat="42.87595744590786" lon="12.396344851936732"><ele>165.5</ele><time>2026-05-03T14:18:49.999Z</time></trkpt><trkpt lat="42.8761988335057" lon="12.396315637216176"><ele>165.0</ele><time>2026-05-03T14:18:50.999Z</time></trkpt><trkpt lat="42.876436318443005" lon="12.396285355056447"><ele>165.0</ele><time>2026-05-03T14:18:51.999Z</time></trkpt><trkpt lat="42.876668103105104" lon="12.396254769620866"><ele>165.0</ele><time>2026-05-03T14:18:52.999Z</time></trkpt><trkpt lat="42.87689653271567" lon="12.396221646102273"><ele>165.0</ele><time>2026-05-03T14:18:53.999Z</time></trkpt><trkpt lat="42.877120797252594" lon="12.396188508425828"><ele>165.0</ele><time>2026-05-03T14:18:54.999Z</time></trkpt><trkpt lat="42.877341303700305" lon="12.396162565973128"><ele>165.0</ele><time>2026-05-03T14:18:55.999Z</time></trkpt><trkpt lat="42.87756064860267" lon="12.396132133370976"><ele>166.0</ele><time>2026-05-03T14:18:56.999Z</time></trkpt><trkpt lat="42.877775418532856" lon="12.396105800531654"><ele>167.0</ele><time>2026-05-03T14:18:57.999Z</time></trkpt><trkpt lat="42.87799003386416" lon="12.396076537674046"><ele>168.0</ele><time>2026-05-03T14:18:58.999Z</time></trkpt><trkpt lat="42.878200555117424" lon="12.396046827136425"><ele>168.0</ele><time>2026-05-03T14:18:59.999Z</time></trkpt><trkpt lat="42.87841031865334" lon="12.396016827119348"><ele>168.0</ele><time>2026-05-03T14:19:00.999Z</time></trkpt><trkpt lat="42.878617844899104" lon="12.395988337819277"><ele>168.0</ele><time>2026-05-03T14:19:01.999Z</time></trkpt><trkpt lat="42.87883015479157" lon="12.395958663099035"><ele>168.33333333333334</ele><time>2026-05-03T14:19:02.999Z</time></trkpt><trkpt lat="42.87903705768229" lon="12.395929796020589"><ele>168.66666666666669</ele><time>2026-05-03T14:19:03.999Z</time></trkpt><trkpt lat="42.87924785263584" lon="12.395900950865254"><ele>169.0</ele><time>2026-05-03T14:19:04.999Z</time></trkpt><trkpt lat="42.87945660283749" lon="12.395873584111534"><ele>169.0</ele><time>2026-05-03T14:19:05.999Z</time></trkpt><trkpt lat="42.879668471572394" lon="12.395840220743095"><ele>169.0</ele><time>2026-05-03T14:19:06.999Z</time></trkpt><trkpt lat="42.87987666273722" lon="12.395812192628323"><ele>169.0</ele><time>2026-05-03T14:19:07.999Z</time></trkpt><trkpt lat="42.88008736426347" lon="12.395784601252565"><ele>169.33333333333334</ele><time>2026-05-03T14:19:08.999Z</time></trkpt><trkpt lat="42.880301057954945" lon="12.395758697409061"><ele>169.66666666666666</ele><time>2026-05-03T14:19:09.999Z</time></trkpt><trkpt lat="42.88051596714408" lon="12.395732094445185"><ele>170.0</ele><time>2026-05-03T14:19:10.999Z</time></trkpt><trkpt lat="42.880730862115975" lon="12.39570757018866"><ele>170.0</ele><time>2026-05-03T14:19:11.999Z</time></trkpt><trkpt lat="42.88094575418031" lon="12.395677610141778"><ele>170.0</ele><time>2026-05-03T14:19:12.999Z</time></trkpt><trkpt lat="42.88116496251738" lon="12.39564095596506"><ele>170.0</ele><time>2026-05-03T14:19:13.999Z</time></trkpt><trkpt lat="42.881383656774446" lon="12.395612107709768"><ele>170.0</ele><time>2026-05-03T14:19:14.999Z</time></trkpt><trkpt lat="42.88160412535231" lon="12.395581033359361"><ele>170.0</ele><time>2026-05-03T14:19:15.999Z</time></trkpt><trkpt lat="42.88182637786092" lon="12.395552940616664"><ele>170.0</ele><time>2026-05-03T14:19:16.999Z</time></trkpt><trkpt lat="42.88205075048485" lon="12.39552312197684"><ele>169.33333333333331</ele><time>2026-05-03T14:19:17.999Z</time></trkpt><trkpt lat="42.882272119929965" lon="12.395493932216285"><ele>168.66666666666666</ele><time>2026-05-03T14:19:18.999Z</time></trkpt><trkpt lat="42.88249274084597" lon="12.395461948508462"><ele>168.0</ele><time>2026-05-03T14:19:19.999Z</time></trkpt><trkpt lat="42.88271425129652" lon="12.395436931581058"><ele>167.0</ele><time>2026-05-03T14:19:20.999Z</time></trkpt><trkpt lat="42.88293318229864" lon="12.395409388939493"><ele>166.0</ele><time>2026-05-03T14:19:21.999Z</time></trkpt><trkpt lat="42.88315135105083" lon="12.395376870060385"><ele>165.0</ele><time>2026-05-03T14:19:22.999Z</time></trkpt><trkpt lat="42.8833707928011" lon="12.395341329989217"><ele>165.33333333333334</ele><time>2026-05-03T14:19:23.999Z</time></trkpt><trkpt lat="42.88359133680225" lon="12.395305835462974"><ele>165.66666666666669</ele><time>2026-05-03T14:19:24.999Z</time></trkpt><trkpt lat="42.88381115497849" lon="12.395268976086106"><ele>166.0</ele><time>2026-05-03T14:19:25.999Z</time></trkpt><trkpt lat="42.88403109245178" lon="12.395221560261136"><ele>166.0</ele><time>2026-05-03T14:19:26.999Z</time></trkpt><trkpt lat="42.88424959954747" lon="12.395165582155483"><ele>166.0</ele><time>2026-05-03T14:19:27.999Z</time></trkpt><trkpt lat="42.88446407474925" lon="12.395095584417724"><ele>166.0</ele><time>2026-05-03T14:19:28.999Z</time></trkpt><trkpt lat="42.884676708182184" lon="12.395011681019108"><ele>166.66666666666669</ele><time>2026-05-03T14:19:29.999Z</time></trkpt><trkpt lat="42.88488812109298" lon="12.394924637446305"><ele>167.33333333333334</ele><time>2026-05-03T14:19:30.999Z</time></trkpt><trkpt lat="42.88509858678585" lon="12.394828769284729"><ele>168.0</ele><time>2026-05-03T14:19:31.999Z</time></trkpt><trkpt lat="42.88530564769537" lon="12.39472451658745"><ele>167.66666666666666</ele><time>2026-05-03T14:19:32.999Z</time></trkpt><trkpt lat="42.88551384202412" lon="12.394615066674039"><ele>167.33333333333331</ele><time>2026-05-03T14:19:33.999Z</time></trkpt><trkpt lat="42.885714795541716" lon="12.394502358297478"><ele>167.0</ele><time>2026-05-03T14:19:34.999Z</time></trkpt><trkpt lat="42.885918277288454" lon="12.394384884862415"><ele>168.33333333333331</ele><time>2026-05-03T14:19:35.999Z</time></trkpt><trkpt lat="42.88612257422002" lon="12.39426398028874"><ele>169.66666666666666</ele><time>2026-05-03T14:19:36.999Z</time></trkpt><trkpt lat="42.88632847923468" lon="12.39414304406839"><ele>171.0</ele><time>2026-05-03T14:19:37.999Z</time></trkpt><trkpt lat="42.886534508254115" lon="12.39402426580682"><ele>171.0</ele><time>2026-05-03T14:19:38.999Z</time></trkpt><trkpt lat="42.886740287697926" lon="12.393906267774934"><ele>171.0</ele><time>2026-05-03T14:19:39.999Z</time></trkpt><trkpt lat="42.886943826486906" lon="12.393791999432503"><ele>171.0</ele><time>2026-05-03T14:19:40.999Z</time></trkpt><trkpt lat="42.88714670856659" lon="12.39367495386089"><ele>168.0</ele><time>2026-05-03T14:19:41.999Z</time></trkpt><trkpt lat="42.88734985824571" lon="12.39355260826441"><ele>165.0</ele><time>2026-05-03T14:19:42.999Z</time></trkpt><trkpt lat="42.88755269806934" lon="12.393432254788433"><ele>162.0</ele><time>2026-05-03T14:19:43.999Z</time></trkpt><trkpt lat="42.887752589431905" lon="12.39331190156669"><ele>162.0</ele><time>2026-05-03T14:19:44.999Z</time></trkpt><trkpt lat="42.88795646305666" lon="12.393194108812553"><ele>162.0</ele><time>2026-05-03T14:19:45.999Z</time></trkpt><trkpt lat="42.88816365830534" lon="12.393073264183634"><ele>162.0</ele><time>2026-05-03T14:19:46.999Z</time></trkpt><trkpt lat="42.88836547326885" lon="12.392951604059725"><ele>161.0</ele><time>2026-05-03T14:19:47.999Z</time></trkpt><trkpt lat="42.888568233598306" lon="12.392829974901934"><ele>160.0</ele><time>2026-05-03T14:19:48.999Z</time></trkpt><trkpt lat="42.88877013751794" lon="12.392709752701066"><ele>159.0</ele><time>2026-05-03T14:19:49.999Z</time></trkpt><trkpt lat="42.88897341460916" lon="12.392590709873879"><ele>159.0</ele><time>2026-05-03T14:19:50.999Z</time></trkpt><trkpt lat="42.8891764849857" lon="12.39247056261251"><ele>159.0</ele><time>2026-05-03T14:19:52Z</time></trkpt><trkpt lat="42.88937958653018" lon="12.39234899137718"><ele>159.0</ele><time>2026-05-03T14:19:53Z</time></trkpt><trkpt lat="42.88958789941781" lon="12.39222684098879"><ele>158.0</ele><time>2026-05-03T14:19:54Z</time></trkpt><trkpt lat="42.88978121426777" lon="12.39211254482428"><ele>157.0</ele><time>2026-05-03T14:19:55Z</time></trkpt><trkpt lat="42.8899832427472" lon="12.391994340096547"><ele>156.0</ele><time>2026-05-03T14:19:56Z</time></trkpt><trkpt lat="42.89018718754882" lon="12.391879287647903"><ele>156.0</ele><time>2026-05-03T14:19:57Z</time></trkpt><trkpt lat="42.89039345387805" lon="12.39176405017467"><ele>156.0</ele><time>2026-05-03T14:19:58Z</time></trkpt><trkpt lat="42.89058920056974" lon="12.391644118067529"><ele>156.0</ele><time>2026-05-03T14:19:59Z</time></trkpt><trkpt lat="42.89079199108416" lon="12.391522128930387"><ele>155.33333333333334</ele><time>2026-05-03T14:20:00Z</time></trkpt><trkpt lat="42.89099552087956" lon="12.391400037491982"><ele>154.66666666666669</ele><time>2026-05-03T14:20:01Z</time></trkpt><trkpt lat="42.891204357781305" lon="12.391282122677023"><ele>154.0</ele><time>2026-05-03T14:20:02Z</time></trkpt><trkpt lat="42.891405717630136" lon="12.391168886440473"><ele>154.0</ele><time>2026-05-03T14:20:03Z</time></trkpt><trkpt lat="42.8916075994881" lon="12.391049804657364"><ele>154.0</ele><time>2026-05-03T14:20:04Z</time></trkpt><trkpt lat="42.891808975233985" lon="12.390926971556645"><ele>154.0</ele><time>2026-05-03T14:20:05Z</time></trkpt><trkpt lat="42.89201096440078" lon="12.390804254649098"><ele>155.0</ele><time>2026-05-03T14:20:06Z</time></trkpt><trkpt lat="42.89221382413085" lon="12.390683056663574"><ele>156.0</ele><time>2026-05-03T14:20:07Z</time></trkpt><trkpt lat="42.89241809173451" lon="12.390564767974345"><ele>157.0</ele><time>2026-05-03T14:20:08Z</time></trkpt><trkpt lat="42.89262314991914" lon="12.390451373990995"><ele>157.0</ele><time>2026-05-03T14:20:09Z</time></trkpt><trkpt lat="42.892826423375126" lon="12.390333109956341"><ele>157.0</ele><time>2026-05-03T14:20:10Z</time></trkpt><trkpt lat="42.89303132366146" lon="12.390217885332179"><ele>157.0</ele><time>2026-05-03T14:20:11Z</time></trkpt><trkpt lat="42.89323456922591" lon="12.390095648136851"><ele>157.66666666666669</ele><time>2026-05-03T14:20:12Z</time></trkpt><trkpt lat="42.89343885405973" lon="12.389977560889106"><ele>158.33333333333334</ele><time>2026-05-03T14:20:13Z</time></trkpt><trkpt lat="42.893642032516674" lon="12.389863632806831"><ele>159.0</ele><time>2026-05-03T14:20:14Z</time></trkpt><trkpt lat="42.89384553354552" lon="12.389743151997736"><ele>158.66666666666666</ele><time>2026-05-03T14:20:15Z</time></trkpt><trkpt lat="42.8940465061501" lon="12.38962009753795"><ele>158.33333333333331</ele><time>2026-05-03T14:20:16Z</time></trkpt><trkpt lat="42.894250293397945" lon="12.389503808644353"><ele>158.0</ele><time>2026-05-03T14:20:17Z</time></trkpt><trkpt lat="42.89445638628117" lon="12.38939237260361"><ele>158.0</ele><time>2026-05-03T14:20:18Z</time></trkpt><trkpt lat="42.894665317486634" lon="12.389298137834217"><ele>158.0</ele><time>2026-05-03T14:20:19Z</time></trkpt><trkpt lat="42.89488134122622" lon="12.389216510208424"><ele>158.0</ele><time>2026-05-03T14:20:20Z</time></trkpt><trkpt lat="42.89509431032357" lon="12.389148931627014"><ele>158.66666666666666</ele><time>2026-05-03T14:20:21Z</time></trkpt><trkpt lat="42.895312122045475" lon="12.389088322488035"><ele>159.33333333333334</ele><time>2026-05-03T14:20:22Z</time></trkpt><trkpt lat="42.89553172924098" lon="12.389041172868303"><ele>160.0</ele><time>2026-05-03T14:20:23Z</time></trkpt><trkpt lat="42.89574969097724" lon="12.389005957893115"><ele>160.33333333333334</ele><time>2026-05-03T14:20:24Z</time></trkpt><trkpt lat="42.89597070704106" lon="12.388982695454876"><ele>160.66666666666666</ele><time>2026-05-03T14:20:25Z</time></trkpt><trkpt lat="42.896191998921665" lon="12.388970276328534"><ele>161.0</ele><time>2026-05-03T14:20:25.999Z</time></trkpt><trkpt lat="42.896411608192565" lon="12.388970868930146"><ele>161.0</ele><time>2026-05-03T14:20:26.999Z</time></trkpt><trkpt lat="42.89663429527177" lon="12.388985780708119"><ele>161.0</ele><time>2026-05-03T14:20:27.999Z</time></trkpt><trkpt lat="42.89685352458542" lon="12.389010642424141"><ele>161.0</ele><time>2026-05-03T14:20:28.999Z</time></trkpt><trkpt lat="42.897072381113276" lon="12.389045290438075"><ele>162.0</ele><time>2026-05-03T14:20:29.999Z</time></trkpt><trkpt lat="42.8972914239491" lon="12.389093251953899"><ele>163.0</ele><time>2026-05-03T14:20:30.999Z</time></trkpt><trkpt lat="42.897509135625185" lon="12.389138584758648"><ele>164.0</ele><time>2026-05-03T14:20:31.999Z</time></trkpt><trkpt lat="42.89772683488883" lon="12.389181354978831"><ele>165.66666666666666</ele><time>2026-05-03T14:20:32.999Z</time></trkpt><trkpt lat="42.897947962380655" lon="12.389223157382757"><ele>167.33333333333334</ele><time>2026-05-03T14:20:33.999Z</time></trkpt><trkpt lat="42.89816443674977" lon="12.389261853101802"><ele>169.0</ele><time>2026-05-03T14:20:34.999Z</time></trkpt><trkpt lat="42.89838368553616" lon="12.389299601658045"><ele>169.66666666666669</ele><time>2026-05-03T14:20:35.999Z</time></trkpt><trkpt lat="42.89860468380614" lon="12.389338128332195"><ele>170.33333333333334</ele><time>2026-05-03T14:20:36.999Z</time></trkpt><trkpt lat="42.898826463011034" lon="12.389377816703208"><ele>171.0</ele><time>2026-05-03T14:20:37.999Z</time></trkpt><trkpt lat="42.899045430419605" lon="12.38941751440688"><ele>170.33333333333334</ele><time>2026-05-03T14:20:38.999Z</time></trkpt><trkpt lat="42.899264953182325" lon="12.389458695359602"><ele>169.66666666666669</ele><time>2026-05-03T14:20:39.999Z</time></trkpt><trkpt lat="42.899486086762955" lon="12.389499249367475"><ele>169.0</ele><time>2026-05-03T14:20:40.999Z</time></trkpt><trkpt lat="42.899707140386376" lon="12.389540806792748"><ele>169.0</ele><time>2026-05-03T14:20:41.999Z</time></trkpt><trkpt lat="42.89993125342549" lon="12.389584604647451"><ele>169.0</ele><time>2026-05-03T14:20:42.999Z</time></trkpt><trkpt lat="42.9001504760511" lon="12.389630958012573"><ele>169.0</ele><time>2026-05-03T14:20:43.999Z</time></trkpt><trkpt lat="42.90037143067856" lon="12.389677287042714"><ele>169.66666666666669</ele><time>2026-05-03T14:20:44.999Z</time></trkpt><trkpt lat="42.900589197262434" lon="12.38972485769248"><ele>170.33333333333334</ele><time>2026-05-03T14:20:45.999Z</time></trkpt><trkpt lat="42.900807639622215" lon="12.389774545989532"><ele>171.0</ele><time>2026-05-03T14:20:46.999Z</time></trkpt><trkpt lat="42.90102372700064" lon="12.389819497808146"><ele>171.0</ele><time>2026-05-03T14:20:47.999Z</time></trkpt><trkpt lat="42.90124252950284" lon="12.389862052354474"><ele>171.0</ele><time>2026-05-03T14:20:48.999Z</time></trkpt><trkpt lat="42.90146000276436" lon="12.389910095213354"><ele>171.0</ele><time>2026-05-03T14:20:49.999Z</time></trkpt><trkpt lat="42.90167912770982" lon="12.389965747689093"><ele>170.66666666666666</ele><time>2026-05-03T14:20:50.999Z</time></trkpt><trkpt lat="42.90189954393545" lon="12.390025603042206"><ele>170.33333333333331</ele><time>2026-05-03T14:20:51.999Z</time></trkpt><trkpt lat="42.902114721846125" lon="12.390086500700258"><ele>170.0</ele><time>2026-05-03T14:20:52.999Z</time></trkpt><trkpt lat="42.902332192920184" lon="12.390151417109989"><ele>170.0</ele><time>2026-05-03T14:20:53.999Z</time></trkpt><trkpt lat="42.902548350929585" lon="12.390215732527967"><ele>170.0</ele><time>2026-05-03T14:20:54.999Z</time></trkpt><trkpt lat="42.902763965499936" lon="12.390283713105706"><ele>170.0</ele><time>2026-05-03T14:20:55.999Z</time></trkpt><trkpt lat="42.902978267359146" lon="12.39035587550701"><ele>169.66666666666666</ele><time>2026-05-03T14:20:56.999Z</time></trkpt><trkpt lat="42.90319309320569" lon="12.390428868865248"><ele>169.33333333333334</ele><time>2026-05-03T14:20:57.999Z</time></trkpt><trkpt lat="42.90341074647981" lon="12.390501462733448"><ele>169.0</ele><time>2026-05-03T14:20:58.999Z</time></trkpt><trkpt lat="42.903625915670894" lon="12.390574782049667"><ele>170.0</ele><time>2026-05-03T14:20:59.999Z</time></trkpt><trkpt lat="42.90384239719304" lon="12.390643899573522"><ele>171.0</ele><time>2026-05-03T14:21:00.999Z</time></trkpt><trkpt lat="42.90405850071352" lon="12.390709708483316"><ele>172.0</ele><time>2026-05-03T14:21:01.999Z</time></trkpt><trkpt lat="42.90427442435452" lon="12.390777840040267"><ele>172.0</ele><time>2026-05-03T14:21:02.999Z</time></trkpt><trkpt lat="42.904488158509444" lon="12.390845164573939"><ele>172.0</ele><time>2026-05-03T14:21:03.999Z</time></trkpt><trkpt lat="42.90470378018663" lon="12.390915747895683"><ele>172.0</ele><time>2026-05-03T14:21:04.999Z</time></trkpt><trkpt lat="42.904920308231745" lon="12.390985231374945"><ele>170.33333333333334</ele><time>2026-05-03T14:21:05.999Z</time></trkpt><trkpt lat="42.90513569900463" lon="12.391052914410555"><ele>168.66666666666666</ele><time>2026-05-03T14:21:06.999Z</time></trkpt><trkpt lat="42.905349939260624" lon="12.391123295934731"><ele>167.0</ele><time>2026-05-03T14:21:07.999Z</time></trkpt><trkpt lat="42.90556577159866" lon="12.39119736059352"><ele>167.0</ele><time>2026-05-03T14:21:08.999Z</time></trkpt><trkpt lat="42.90577992582666" lon="12.391266696027769"><ele>167.0</ele><time>2026-05-03T14:21:09.999Z</time></trkpt><trkpt lat="42.90599729395229" lon="12.391333501229436"><ele>167.0</ele><time>2026-05-03T14:21:10.999Z</time></trkpt><trkpt lat="42.906210766331974" lon="12.39139938739407"><ele>167.33333333333331</ele><time>2026-05-03T14:21:11.999Z</time></trkpt><trkpt lat="42.906425920065715" lon="12.391469259483507"><ele>167.66666666666666</ele><time>2026-05-03T14:21:12.999Z</time></trkpt><trkpt lat="42.906640114267354" lon="12.391537110318616"><ele>168.0</ele><time>2026-05-03T14:21:13.999Z</time></trkpt><trkpt lat="42.90685322858616" lon="12.391613435652635"><ele>168.0</ele><time>2026-05-03T14:21:14.999Z</time></trkpt><trkpt lat="42.907068952017134" lon="12.391690079331175"><ele>168.0</ele><time>2026-05-03T14:21:15.999Z</time></trkpt><trkpt lat="42.907276369787745" lon="12.391762905548852"><ele>168.0</ele><time>2026-05-03T14:21:16.999Z</time></trkpt><trkpt lat="42.90749507726603" lon="12.391827408585689"><ele>168.0</ele><time>2026-05-03T14:21:17.999Z</time></trkpt><trkpt lat="42.907716249003386" lon="12.391883733966079"><ele>168.0</ele><time>2026-05-03T14:21:18.999Z</time></trkpt><trkpt lat="42.90793549463159" lon="12.391931472847562"><ele>168.0</ele><time>2026-05-03T14:21:19.999Z</time></trkpt><trkpt lat="42.90815558462766" lon="12.39197086322288"><ele>168.0</ele><time>2026-05-03T14:21:20.999Z</time></trkpt><trkpt lat="42.908375412645384" lon="12.392012204226093"><ele>168.0</ele><time>2026-05-03T14:21:21.999Z</time></trkpt><trkpt lat="42.90859218035923" lon="12.392056532537694"><ele>168.0</ele><time>2026-05-03T14:21:22.999Z</time></trkpt><trkpt lat="42.90881012652265" lon="12.39209612548721"><ele>167.66666666666666</ele><time>2026-05-03T14:21:23.999Z</time></trkpt><trkpt lat="42.909029918470544" lon="12.392130011741102"><ele>167.33333333333331</ele><time>2026-05-03T14:21:24.999Z</time></trkpt><trkpt lat="42.90925002102004" lon="12.392154847965289"><ele>167.0</ele><time>2026-05-03T14:21:25.999Z</time></trkpt><trkpt lat="42.90947199862443" lon="12.392177199349105"><ele>167.0</ele><time>2026-05-03T14:21:26.999Z</time></trkpt><trkpt lat="42.909692148363234" lon="12.392195374372427"><ele>167.0</ele><time>2026-05-03T14:21:27.999Z</time></trkpt><trkpt lat="42.90991454464345" lon="12.392210446173433"><ele>167.0</ele><time>2026-05-03T14:21:28.999Z</time></trkpt><trkpt lat="42.910135505907476" lon="12.392220826124777"><ele>167.0</ele><time>2026-05-03T14:21:29.999Z</time></trkpt><trkpt lat="42.9103587799464" lon="12.392223254100788"><ele>167.0</ele><time>2026-05-03T14:21:30.999Z</time></trkpt><trkpt lat="42.91057685272564" lon="12.392223351918027"><ele>167.0</ele><time>2026-05-03T14:21:31.999Z</time></trkpt><trkpt lat="42.910798316523746" lon="12.392217646708273"><ele>168.0</ele><time>2026-05-03T14:21:32.999Z</time></trkpt><trkpt lat="42.91102091212571" lon="12.392210541142825"><ele>169.0</ele><time>2026-05-03T14:21:33.999Z</time></trkpt><trkpt lat="42.91124122144208" lon="12.39220056682917"><ele>170.0</ele><time>2026-05-03T14:21:34.999Z</time></trkpt><trkpt lat="42.91146523664744" lon="12.392179903651295"><ele>169.0</ele><time>2026-05-03T14:21:35.999Z</time></trkpt><trkpt lat="42.91168470763143" lon="12.392161723226252"><ele>168.0</ele><time>2026-05-03T14:21:36.999Z</time></trkpt><trkpt lat="42.911905575533815" lon="12.39214277325805"><ele>167.0</ele><time>2026-05-03T14:21:37.999Z</time></trkpt><trkpt lat="42.912127519563796" lon="12.392125546881047"><ele>167.0</ele><time>2026-05-03T14:21:38.999Z</time></trkpt><trkpt lat="42.912349621111034" lon="12.392106729658009"><ele>167.0</ele><time>2026-05-03T14:21:39.999Z</time></trkpt><trkpt lat="42.91257005744617" lon="12.392087694915874"><ele>167.0</ele><time>2026-05-03T14:21:40.999Z</time></trkpt><trkpt lat="42.91279022586825" lon="12.392066983990025"><ele>167.0</ele><time>2026-05-03T14:21:41.999Z</time></trkpt><trkpt lat="42.913012423633674" lon="12.39204424507939"><ele>167.0</ele><time>2026-05-03T14:21:42.999Z</time></trkpt><trkpt lat="42.91323145862272" lon="12.392024309345876"><ele>167.0</ele><time>2026-05-03T14:21:43.999Z</time></trkpt><trkpt lat="42.913451859237604" lon="12.39200612106476"><ele>167.33333333333331</ele><time>2026-05-03T14:21:44.999Z</time></trkpt><trkpt lat="42.91367388379407" lon="12.391991998798954"><ele>167.66666666666666</ele><time>2026-05-03T14:21:45.999Z</time></trkpt><trkpt lat="42.91389397373769" lon="12.39197425319138"><ele>168.0</ele><time>2026-05-03T14:21:46.999Z</time></trkpt><trkpt lat="42.91411621270739" lon="12.391955031225262"><ele>168.33333333333334</ele><time>2026-05-03T14:21:47.999Z</time></trkpt><trkpt lat="42.914336294033234" lon="12.39193281336079"><ele>168.66666666666669</ele><time>2026-05-03T14:21:48.999Z</time></trkpt><trkpt lat="42.914557157896475" lon="12.391911910610766"><ele>169.0</ele><time>2026-05-03T14:21:50Z</time></trkpt><trkpt lat="42.91477656225825" lon="12.391891000623021"><ele>169.0</ele><time>2026-05-03T14:21:51Z</time></trkpt><trkpt lat="42.914998922013744" lon="12.391874141998558"><ele>169.0</ele><time>2026-05-03T14:21:52Z</time></trkpt><trkpt lat="42.91521882402698" lon="12.391854918632777"><ele>169.0</ele><time>2026-05-03T14:21:53Z</time></trkpt><trkpt lat="42.915438761702156" lon="12.391840421263957"><ele>168.66666666666669</ele><time>2026-05-03T14:21:54Z</time></trkpt><trkpt lat="42.915660499803224" lon="12.391830012754662"><ele>168.33333333333334</ele><time>2026-05-03T14:21:55Z</time></trkpt><trkpt lat="42.91588376259817" lon="12.391825218458917"><ele>168.0</ele><time>2026-05-03T14:21:56Z</time></trkpt><trkpt lat="42.91610412998029" lon="12.391818625045971"><ele>166.0</ele><time>2026-05-03T14:21:57Z</time></trkpt><trkpt lat="42.9163225169803" lon="12.391809828631398"><ele>164.0</ele><time>2026-05-03T14:21:58Z</time></trkpt><trkpt lat="42.9165470180043" lon="12.39180029405445"><ele>162.0</ele><time>2026-05-03T14:21:59Z</time></trkpt><trkpt lat="42.91677072733839" lon="12.391795707399162"><ele>161.66666666666666</ele><time>2026-05-03T14:22:00Z</time></trkpt><trkpt lat="42.9169895736049" lon="12.391795012072532"><ele>161.33333333333331</ele><time>2026-05-03T14:22:01Z</time></trkpt><trkpt lat="42.917211079643025" lon="12.391798025373031"><ele>161.0</ele><time>2026-05-03T14:22:02Z</time></trkpt><trkpt lat="42.91743134263432" lon="12.391799898381262"><ele>161.33333333333331</ele><time>2026-05-03T14:22:03Z</time></trkpt><trkpt lat="42.91765493451771" lon="12.391801374125274"><ele>161.66666666666666</ele><time>2026-05-03T14:22:04Z</time></trkpt><trkpt lat="42.91787804071007" lon="12.391803626894765"><ele>162.0</ele><time>2026-05-03T14:22:05Z</time></trkpt><trkpt lat="42.9180983004493" lon="12.391801781624238"><ele>162.0</ele><time>2026-05-03T14:22:06Z</time></trkpt><trkpt lat="42.918318814376825" lon="12.391801114954207"><ele>162.0</ele><time>2026-05-03T14:22:07Z</time></trkpt><trkpt lat="42.91854243868272" lon="12.391800484062648"><ele>162.0</ele><time>2026-05-03T14:22:08Z</time></trkpt><trkpt lat="42.91876107961279" lon="12.391799434163541"><ele>162.0</ele><time>2026-05-03T14:22:09Z</time></trkpt><trkpt lat="42.91898439595677" lon="12.391795778890785"><ele>162.0</ele><time>2026-05-03T14:22:10Z</time></trkpt><trkpt lat="42.919205462306635" lon="12.391794251910621"><ele>162.0</ele><time>2026-05-03T14:22:11Z</time></trkpt><trkpt lat="42.91942895180983" lon="12.391796102086422"><ele>162.33333333333334</ele><time>2026-05-03T14:22:12Z</time></trkpt><trkpt lat="42.91964618520637" lon="12.391792625840623"><ele>162.66666666666669</ele><time>2026-05-03T14:22:13Z</time></trkpt><trkpt lat="42.91986937748802" lon="12.391793128562572"><ele>163.0</ele><time>2026-05-03T14:22:14Z</time></trkpt><trkpt lat="42.920090318752045" lon="12.391794305477527"><ele>163.33333333333334</ele><time>2026-05-03T14:22:15Z</time></trkpt><trkpt lat="42.92031338769585" lon="12.391797299709912"><ele>163.66666666666666</ele><time>2026-05-03T14:22:16Z</time></trkpt><trkpt lat="42.92053560273188" lon="12.391795463247288"><ele>164.0</ele><time>2026-05-03T14:22:17Z</time></trkpt><trkpt lat="42.92075428270768" lon="12.391795562048522"><ele>165.0</ele><time>2026-05-03T14:22:18Z</time></trkpt><trkpt lat="42.92097554122" lon="12.391795574187743"><ele>166.0</ele><time>2026-05-03T14:22:19Z</time></trkpt><trkpt lat="42.92119276601706" lon="12.391799151548627"><ele>167.0</ele><time>2026-05-03T14:22:20Z</time></trkpt><trkpt lat="42.921416149540214" lon="12.391801198938735"><ele>167.0</ele><time>2026-05-03T14:22:21Z</time></trkpt><trkpt lat="42.92163637495832" lon="12.391806743251584"><ele>167.0</ele><time>2026-05-03T14:22:22Z</time></trkpt><trkpt lat="42.92186076056464" lon="12.391815872644452"><ele>167.0</ele><time>2026-05-03T14:22:23Z</time></trkpt><trkpt lat="42.92208018915194" lon="12.39182508057139"><ele>165.66666666666666</ele><time>2026-05-03T14:22:24Z</time></trkpt><trkpt lat="42.922302071767156" lon="12.391843158069813"><ele>164.33333333333334</ele><time>2026-05-03T14:22:25Z</time></trkpt><trkpt lat="42.922522501517086" lon="12.391876247118757"><ele>163.0</ele><time>2026-05-03T14:22:26Z</time></trkpt><trkpt lat="42.92274360189208" lon="12.391921855809006"><ele>162.0</ele><time>2026-05-03T14:22:27Z</time></trkpt><trkpt lat="42.922957491795216" lon="12.391983778441322"><ele>161.0</ele><time>2026-05-03T14:22:28Z</time></trkpt><trkpt lat="42.92317512307582" lon="12.392064134454417"><ele>160.0</ele><time>2026-05-03T14:22:29Z</time></trkpt><trkpt lat="42.92338634824671" lon="12.392153563082024"><ele>160.0</ele><time>2026-05-03T14:22:30Z</time></trkpt><trkpt lat="42.92359421562901" lon="12.392256274049965"><ele>160.0</ele><time>2026-05-03T14:22:31Z</time></trkpt><trkpt lat="42.923798416983615" lon="12.392369706591616"><ele>160.0</ele><time>2026-05-03T14:22:32Z</time></trkpt><trkpt lat="42.924003630145805" lon="12.39249269011182"><ele>160.0</ele><time>2026-05-03T14:22:33Z</time></trkpt><trkpt lat="42.92420566287402" lon="12.392626446362081"><ele>160.0</ele><time>2026-05-03T14:22:34Z</time></trkpt><trkpt lat="42.92439909651967" lon="12.39277506952814"><ele>160.0</ele><time>2026-05-03T14:22:35Z</time></trkpt><trkpt lat="42.92458668187821" lon="12.392934590433857"><ele>159.66666666666669</ele><time>2026-05-03T14:22:36Z</time></trkpt><trkpt lat="42.92477135566301" lon="12.39309869710475"><ele>159.33333333333334</ele><time>2026-05-03T14:22:37Z</time></trkpt><trkpt lat="42.92495404015166" lon="12.393264439489606"><ele>159.0</ele><time>2026-05-03T14:22:38Z</time></trkpt><trkpt lat="42.925138924883434" lon="12.393432325722111"><ele>158.66666666666666</ele><time>2026-05-03T14:22:39Z</time></trkpt><trkpt lat="42.925314040159385" lon="12.393595700174926"><ele>158.33333333333331</ele><time>2026-05-03T14:22:40Z</time></trkpt><trkpt lat="42.92550380591221" lon="12.39376094419915"><ele>158.0</ele><time>2026-05-03T14:22:41Z</time></trkpt><trkpt lat="42.925685806490904" lon="12.39392370319291"><ele>158.66666666666666</ele><time>2026-05-03T14:22:42Z</time></trkpt><trkpt lat="42.925872310255706" lon="12.394083264532313"><ele>159.33333333333334</ele><time>2026-05-03T14:22:43Z</time></trkpt><trkpt lat="42.92605730276911" lon="12.39424758442031"><ele>160.0</ele><time>2026-05-03T14:22:44Z</time></trkpt><trkpt lat="42.92624173116416" lon="12.394403334576928"><ele>160.33333333333334</ele><time>2026-05-03T14:22:45Z</time></trkpt><trkpt lat="42.92641723349558" lon="12.39454975136854"><ele>160.66666666666666</ele><time>2026-05-03T14:22:46Z</time></trkpt><trkpt lat="42.92659142588233" lon="12.39470490366006"><ele>161.0</ele><time>2026-05-03T14:22:47Z</time></trkpt><trkpt lat="42.92676174211869" lon="12.394865448298223"><ele>162.0</ele><time>2026-05-03T14:22:47.999Z</time></trkpt><trkpt lat="42.926929529192925" lon="12.395018044850703"><ele>163.0</ele><time>2026-05-03T14:22:48.999Z</time></trkpt><trkpt lat="42.92710331222088" lon="12.39516302880431"><ele>164.0</ele><time>2026-05-03T14:22:49.999Z</time></trkpt><trkpt lat="42.92727321870417" lon="12.39531541606441"><ele>164.0</ele><time>2026-05-03T14:22:50.999Z</time></trkpt><trkpt lat="42.92743558388526" lon="12.39545362909037"><ele>164.0</ele><time>2026-05-03T14:22:51.999Z</time></trkpt><trkpt lat="42.927596299546686" lon="12.395595062895477"><ele>164.0</ele><time>2026-05-03T14:22:52.999Z</time></trkpt><trkpt lat="42.927751634999964" lon="12.395736957458057"><ele>164.33333333333331</ele><time>2026-05-03T14:22:53.999Z</time></trkpt><trkpt lat="42.92790075744552" lon="12.395867909657468"><ele>164.66666666666666</ele><time>2026-05-03T14:22:54.999Z</time></trkpt><trkpt lat="42.92804221114801" lon="12.39599177013099"><ele>165.0</ele><time>2026-05-03T14:22:55.999Z</time></trkpt><trkpt lat="42.928171021966506" lon="12.396111827109"><ele>165.0</ele><time>2026-05-03T14:22:56.999Z</time></trkpt><trkpt lat="42.928289880467574" lon="12.396232435169205"><ele>165.0</ele><time>2026-05-03T14:22:57.999Z</time></trkpt><trkpt lat="42.92839699091455" lon="12.396344438042012"><ele>165.0</ele><time>2026-05-03T14:22:58.999Z</time></trkpt><trkpt lat="42.9284921221798" lon="12.396446056621901"><ele>165.0</ele><time>2026-05-03T14:22:59.999Z</time></trkpt><trkpt lat="42.92857939331974" lon="12.396527434385074"><ele>165.0</ele><time>2026-05-03T14:23:00.999Z</time></trkpt><trkpt lat="42.92864543110626" lon="12.396599931796729"><ele>165.0</ele><time>2026-05-03T14:23:01.999Z</time></trkpt><trkpt lat="42.928678437763665" lon="12.396712660793069"><ele>165.0</ele><time>2026-05-03T14:23:03.999Z</time></trkpt><trkpt lat="42.928673747670864" lon="12.396824508605174"><ele>165.0</ele><time>2026-05-03T14:23:05.999Z</time></trkpt><trkpt lat="42.92870372290502" lon="12.396909159520364"><ele>165.0</ele><time>2026-05-03T14:23:08.999Z</time></trkpt><trkpt lat="42.92876066178719" lon="12.396953366142162"><ele>165.0</ele><time>2026-05-03T14:24:13Z</time></trkpt><trkpt lat="42.92881352679464" lon="12.396827213323688"><ele>165.0</ele><time>2026-05-03T14:36:45Z</time></trkpt><trkpt lat="42.92886742008028" lon="12.396884428556874"><ele>165.0</ele><time>2026-05-03T14:36:47Z</time></trkpt><trkpt lat="42.92892028545823" lon="12.396936870274539"><ele>165.0</ele><time>2026-05-03T14:36:49Z</time></trkpt><trkpt lat="42.92898277389233" lon="12.39698151436777"><ele>165.0</ele><time>2026-05-03T14:36:51Z</time></trkpt><trkpt lat="42.92904254725052" lon="12.39701696125041"><ele>165.0</ele><time>2026-05-03T14:36:53Z</time></trkpt><trkpt lat="42.92913631563234" lon="12.397045141363858"><ele>165.0</ele><time>2026-05-03T14:36:55Z</time></trkpt><trkpt lat="42.929236275905964" lon="12.39710343078856"><ele>165.42857142857144</ele><time>2026-05-03T14:36:57Z</time></trkpt><trkpt lat="42.92929473353453" lon="12.397151672900053"><ele>165.85714285714286</ele><time>2026-05-03T14:36:58Z</time></trkpt><trkpt lat="42.929363946844" lon="12.39716898548854"><ele>166.28571428571428</ele><time>2026-05-03T14:36:59Z</time></trkpt><trkpt lat="42.929417532177425" lon="12.397251555789145"><ele>166.71428571428572</ele><time>2026-05-03T14:37:00Z</time></trkpt><trkpt lat="42.92947922400622" lon="12.397301494381752"><ele>167.14285714285714</ele><time>2026-05-03T14:37:01Z</time></trkpt><trkpt lat="42.92954284430956" lon="12.397350306885205"><ele>167.57142857142858</ele><time>2026-05-03T14:37:02Z</time></trkpt><trkpt lat="42.92960741382395" lon="12.397402530603184"><ele>168.0</ele><time>2026-05-03T14:37:03Z</time></trkpt><trkpt lat="42.92967634441447" lon="12.397455426645234"><ele>168.0</ele><time>2026-05-03T14:37:04Z</time></trkpt><trkpt lat="42.929749074242714" lon="12.3975158433117"><ele>168.0</ele><time>2026-05-03T14:37:05Z</time></trkpt><trkpt lat="42.92981094241191" lon="12.39757003909526"><ele>168.0</ele><time>2026-05-03T14:37:06Z</time></trkpt><trkpt lat="42.929864974021875" lon="12.397622545304024"><ele>168.0</ele><time>2026-05-03T14:37:07Z</time></trkpt><trkpt lat="42.92996507369102" lon="12.397707078014506"><ele>168.0</ele><time>2026-05-03T14:37:09Z</time></trkpt><trkpt lat="42.930021544309376" lon="12.39775487029108"><ele>168.0</ele><time>2026-05-03T14:37:10Z</time></trkpt><trkpt lat="42.93008533109738" lon="12.397810186414821"><ele>169.0</ele><time>2026-05-03T14:37:11Z</time></trkpt><trkpt lat="42.930166219218776" lon="12.397877830465527"><ele>170.0</ele><time>2026-05-03T14:37:12Z</time></trkpt><trkpt lat="42.93026739724821" lon="12.397963758413098"><ele>171.0</ele><time>2026-05-03T14:37:13Z</time></trkpt><trkpt lat="42.93038322195902" lon="12.398063685938299"><ele>172.0</ele><time>2026-05-03T14:37:14Z</time></trkpt><trkpt lat="42.93049494222303" lon="12.39816098250844"><ele>173.0</ele><time>2026-05-03T14:37:15Z</time></trkpt><trkpt lat="42.930618839843454" lon="12.398265353790535"><ele>174.0</ele><time>2026-05-03T14:37:16Z</time></trkpt><trkpt lat="42.93075876805047" lon="12.398385260267501"><ele>175.0</ele><time>2026-05-03T14:37:17Z</time></trkpt><trkpt lat="42.930890766424604" lon="12.398503282638192"><ele>175.33333333333334</ele><time>2026-05-03T14:37:18Z</time></trkpt><trkpt lat="42.93102665231662" lon="12.398624041570956"><ele>175.66666666666666</ele><time>2026-05-03T14:37:19Z</time></trkpt><trkpt lat="42.93116693243329" lon="12.398749666706312"><ele>176.0</ele><time>2026-05-03T14:37:20Z</time></trkpt><trkpt lat="42.931308458985804" lon="12.398876620659294"><ele>176.0</ele><time>2026-05-03T14:37:21Z</time></trkpt><trkpt lat="42.93144809536549" lon="12.399007243662666"><ele>176.0</ele><time>2026-05-03T14:37:22Z</time></trkpt><trkpt lat="42.93158799849992" lon="12.399139977217636"><ele>176.0</ele><time>2026-05-03T14:37:23Z</time></trkpt><trkpt lat="42.93173175920909" lon="12.39925585252746"><ele>178.0</ele><time>2026-05-03T14:37:24Z</time></trkpt><trkpt lat="42.93187595149307" lon="12.399379027396236"><ele>180.0</ele><time>2026-05-03T14:37:25Z</time></trkpt><trkpt lat="42.93203399127" lon="12.399509862269127"><ele>182.0</ele><time>2026-05-03T14:37:26Z</time></trkpt><trkpt lat="42.93219182493887" lon="12.399643483299146"><ele>182.33333333333331</ele><time>2026-05-03T14:37:27Z</time></trkpt><trkpt lat="42.932349155285934" lon="12.399773863157279"><ele>182.66666666666666</ele><time>2026-05-03T14:37:28Z</time></trkpt><trkpt lat="42.93250811705561" lon="12.399896916285826"><ele>183.0</ele><time>2026-05-03T14:37:29Z</time></trkpt><trkpt lat="42.93267004879434" lon="12.400008017976644"><ele>183.0</ele><time>2026-05-03T14:37:30Z</time></trkpt><trkpt lat="42.93283505379649" lon="12.400108822039156"><ele>183.0</ele><time>2026-05-03T14:37:31Z</time></trkpt><trkpt lat="42.93300307313564" lon="12.400205099002317"><ele>183.0</ele><time>2026-05-03T14:37:32Z</time></trkpt><trkpt lat="42.93317210675328" lon="12.400295167215528"><ele>183.0</ele><time>2026-05-03T14:37:33Z</time></trkpt><trkpt lat="42.93334342548712" lon="12.400380982400184"><ele>183.0</ele><time>2026-05-03T14:37:34Z</time></trkpt><trkpt lat="42.933518582536" lon="12.400462014139613"><ele>183.0</ele><time>2026-05-03T14:37:35Z</time></trkpt><trkpt lat="42.933694427198255" lon="12.400534882443615"><ele>183.66666666666666</ele><time>2026-05-03T14:37:36Z</time></trkpt><trkpt lat="42.93387204591605" lon="12.400595329763325"><ele>184.33333333333331</ele><time>2026-05-03T14:37:37Z</time></trkpt><trkpt lat="42.9340546078112" lon="12.400651011788694"><ele>185.0</ele><time>2026-05-03T14:37:38Z</time></trkpt><trkpt lat="42.93423702696216" lon="12.400702276862594"><ele>185.33333333333331</ele><time>2026-05-03T14:37:39Z</time></trkpt><trkpt lat="42.93442186515665" lon="12.40074799803227"><ele>185.66666666666666</ele><time>2026-05-03T14:37:40Z</time></trkpt><trkpt lat="42.93460962822718" lon="12.400788931240866"><ele>186.0</ele><time>2026-05-03T14:37:41Z</time></trkpt><trkpt lat="42.93479732358025" lon="12.400845390095467"><ele>186.0</ele><time>2026-05-03T14:37:42Z</time></trkpt><trkpt lat="42.93498832040758" lon="12.400914040107773"><ele>186.0</ele><time>2026-05-03T14:37:43Z</time></trkpt><trkpt lat="42.93517211005675" lon="12.40094539801641"><ele>186.0</ele><time>2026-05-03T14:37:44Z</time></trkpt><trkpt lat="42.935361130554234" lon="12.400994883764573"><ele>185.66666666666666</ele><time>2026-05-03T14:37:45Z</time></trkpt><trkpt lat="42.93555146211534" lon="12.401042217460093"><ele>185.33333333333331</ele><time>2026-05-03T14:37:46Z</time></trkpt><trkpt lat="42.93574046242864" lon="12.401092409325493"><ele>185.0</ele><time>2026-05-03T14:37:47Z</time></trkpt><trkpt lat="42.935931213702254" lon="12.401142874137546"><ele>186.33333333333331</ele><time>2026-05-03T14:37:48Z</time></trkpt><trkpt lat="42.93612253474604" lon="12.401194817640341"><ele>187.66666666666666</ele><time>2026-05-03T14:37:49Z</time></trkpt><trkpt lat="42.93631599656726" lon="12.40124877773145"><ele>189.0</ele><time>2026-05-03T14:37:50Z</time></trkpt><trkpt lat="42.93650519781444" lon="12.401296072034743"><ele>188.66666666666666</ele><time>2026-05-03T14:37:51Z</time></trkpt><trkpt lat="42.93669873914639" lon="12.401346985529244"><ele>188.33333333333331</ele><time>2026-05-03T14:37:52Z</time></trkpt><trkpt lat="42.93689205247797" lon="12.401396986158572"><ele>188.0</ele><time>2026-05-03T14:37:53Z</time></trkpt><trkpt lat="42.93708522247582" lon="12.40144378244918"><ele>191.0</ele><time>2026-05-03T14:37:53.999Z</time></trkpt><trkpt lat="42.937278457458326" lon="12.40149610170043"><ele>194.0</ele><time>2026-05-03T14:37:54.999Z</time></trkpt><trkpt lat="42.937474540947306" lon="12.40154443555182"><ele>197.0</ele><time>2026-05-03T14:37:55.999Z</time></trkpt><trkpt lat="42.937667751138804" lon="12.401591116312815"><ele>199.33333333333334</ele><time>2026-05-03T14:37:56.999Z</time></trkpt><trkpt lat="42.93786471845402" lon="12.40164056768978"><ele>201.66666666666669</ele><time>2026-05-03T14:37:57.999Z</time></trkpt><trkpt lat="42.93805810187473" lon="12.401691864095852"><ele>204.0</ele><time>2026-05-03T14:37:58.999Z</time></trkpt><trkpt lat="42.93825119950805" lon="12.401740557119206"><ele>204.33333333333331</ele><time>2026-05-03T14:37:59.999Z</time></trkpt><trkpt lat="42.93845111493789" lon="12.401794340397965"><ele>204.66666666666666</ele><time>2026-05-03T14:38:00.999Z</time></trkpt><trkpt lat="42.93865764679913" lon="12.401847092116585"><ele>205.0</ele><time>2026-05-03T14:38:01.999Z</time></trkpt><trkpt lat="42.93886251487046" lon="12.401900205121626"><ele>205.0</ele><time>2026-05-03T14:38:02.999Z</time></trkpt><trkpt lat="42.9390651225879" lon="12.401949995085312"><ele>205.0</ele><time>2026-05-03T14:38:03.999Z</time></trkpt><trkpt lat="42.93926873270901" lon="12.402002988888409"><ele>205.0</ele><time>2026-05-03T14:38:04.999Z</time></trkpt><trkpt lat="42.93947741010842" lon="12.402059679111078"><ele>204.0</ele><time>2026-05-03T14:38:05.999Z</time></trkpt><trkpt lat="42.93968902327685" lon="12.402108730701672"><ele>203.0</ele><time>2026-05-03T14:38:06.999Z</time></trkpt><trkpt lat="42.93989583713304" lon="12.40216330672846"><ele>202.0</ele><time>2026-05-03T14:38:07.999Z</time></trkpt><trkpt lat="42.94010184737671" lon="12.402216118016947"><ele>202.0</ele><time>2026-05-03T14:38:08.999Z</time></trkpt><trkpt lat="42.9403068160156" lon="12.402267774950602"><ele>202.0</ele><time>2026-05-03T14:38:09.999Z</time></trkpt><trkpt lat="42.94051576258414" lon="12.402304628497866"><ele>202.0</ele><time>2026-05-03T14:38:10.999Z</time></trkpt><trkpt lat="42.940725420037616" lon="12.402332885721638"><ele>201.33333333333331</ele><time>2026-05-03T14:38:11.999Z</time></trkpt><trkpt lat="42.940936278072705" lon="12.402332509211496"><ele>200.66666666666669</ele><time>2026-05-03T14:38:12.999Z</time></trkpt><trkpt lat="42.941147213246" lon="12.402314158956031"><ele>200.0</ele><time>2026-05-03T14:38:13.999Z</time></trkpt><trkpt lat="42.94135527698262" lon="12.402287850405868"><ele>200.0</ele><time>2026-05-03T14:38:14.999Z</time></trkpt><trkpt lat="42.94156326677452" lon="12.402253074045333"><ele>200.0</ele><time>2026-05-03T14:38:15.999Z</time></trkpt><trkpt lat="42.94176831039045" lon="12.402202897361216"><ele>200.0</ele><time>2026-05-03T14:38:16.999Z</time></trkpt><trkpt lat="42.94197407856193" lon="12.402148291075983"><ele>197.0</ele><time>2026-05-03T14:38:17.999Z</time></trkpt><trkpt lat="42.94217465834534" lon="12.402068577052654"><ele>194.0</ele><time>2026-05-03T14:38:18.999Z</time></trkpt><trkpt lat="42.942379587298134" lon="12.401994144114626"><ele>191.0</ele><time>2026-05-03T14:38:19.999Z</time></trkpt><trkpt lat="42.9425822821841" lon="12.40192688188538"><ele>190.66666666666666</ele><time>2026-05-03T14:38:20.999Z</time></trkpt><trkpt lat="42.94278729417085" lon="12.401864831382289"><ele>190.33333333333334</ele><time>2026-05-03T14:38:21.999Z</time></trkpt><trkpt lat="42.94299291355037" lon="12.401800367696204"><ele>190.0</ele><time>2026-05-03T14:38:22.999Z</time></trkpt><trkpt lat="42.9431955703138" lon="12.401734400094108"><ele>190.66666666666669</ele><time>2026-05-03T14:38:23.999Z</time></trkpt><trkpt lat="42.9434015329103" lon="12.40166679086001"><ele>191.33333333333334</ele><time>2026-05-03T14:38:24.999Z</time></trkpt><trkpt lat="42.9436042195847" lon="12.401602372801086"><ele>192.0</ele><time>2026-05-03T14:38:25.999Z</time></trkpt><trkpt lat="42.94380847643155" lon="12.40153909480269"><ele>192.0</ele><time>2026-05-03T14:38:26.999Z</time></trkpt><trkpt lat="42.94401399036516" lon="12.401475929344272"><ele>192.0</ele><time>2026-05-03T14:38:27.999Z</time></trkpt><trkpt lat="42.94421783021142" lon="12.40141614671838"><ele>192.0</ele><time>2026-05-03T14:38:28.999Z</time></trkpt><trkpt lat="42.94442236962931" lon="12.401353984597138"><ele>188.66666666666666</ele><time>2026-05-03T14:38:29.999Z</time></trkpt><trkpt lat="42.94463186668679" lon="12.401300359541638"><ele>185.33333333333331</ele><time>2026-05-03T14:38:30.999Z</time></trkpt><trkpt lat="42.94483896284559" lon="12.40125786636344"><ele>182.0</ele><time>2026-05-03T14:38:31.999Z</time></trkpt><trkpt lat="42.94504869204629" lon="12.401224034268157"><ele>180.66666666666666</ele><time>2026-05-03T14:38:32.999Z</time></trkpt><trkpt lat="42.94525730258205" lon="12.401201294589095"><ele>179.33333333333334</ele><time>2026-05-03T14:38:33.999Z</time></trkpt><trkpt lat="42.94546734025106" lon="12.401185221503843"><ele>178.0</ele><time>2026-05-03T14:38:34.999Z</time></trkpt><trkpt lat="42.945674810419526" lon="12.401181603021174"><ele>177.33333333333334</ele><time>2026-05-03T14:38:35.999Z</time></trkpt><trkpt lat="42.94588738395143" lon="12.401182008160596"><ele>176.66666666666666</ele><time>2026-05-03T14:38:36.999Z</time></trkpt><trkpt lat="42.946093646430896" lon="12.40120143600739"><ele>176.0</ele><time>2026-05-03T14:38:37.999Z</time></trkpt><trkpt lat="42.94630509109268" lon="12.401206326017432"><ele>176.0</ele><time>2026-05-03T14:38:38.999Z</time></trkpt><trkpt lat="42.946510821646896" lon="12.401225590459486"><ele>176.0</ele><time>2026-05-03T14:38:39.999Z</time></trkpt><trkpt lat="42.94672455537124" lon="12.40123117693672"><ele>176.0</ele><time>2026-05-03T14:38:40.999Z</time></trkpt><trkpt lat="42.94693340356983" lon="12.401246474694537"><ele>176.0</ele><time>2026-05-03T14:38:41.999Z</time></trkpt><trkpt lat="42.94714249992978" lon="12.401258141279602"><ele>176.0</ele><time>2026-05-03T14:38:42.999Z</time></trkpt><trkpt lat="42.94735374362118" lon="12.40127103525461"><ele>176.0</ele><time>2026-05-03T14:38:43.999Z</time></trkpt><trkpt lat="42.94756165606284" lon="12.401283526863683"><ele>175.33333333333331</ele><time>2026-05-03T14:38:44.999Z</time></trkpt><trkpt lat="42.94777284505763" lon="12.40129670915575"><ele>174.66666666666666</ele><time>2026-05-03T14:38:45.999Z</time></trkpt><trkpt lat="42.94798185499363" lon="12.401306567518894"><ele>174.0</ele><time>2026-05-03T14:38:46.999Z</time></trkpt><trkpt lat="42.94819203279441" lon="12.401322405214891"><ele>173.33333333333334</ele><time>2026-05-03T14:38:47.999Z</time></trkpt><trkpt lat="42.948397223789044" lon="12.40133150900687"><ele>172.66666666666669</ele><time>2026-05-03T14:38:48.999Z</time></trkpt><trkpt lat="42.948604579928364" lon="12.401340685897045"><ele>172.0</ele><time>2026-05-03T14:38:49.999Z</time></trkpt><trkpt lat="42.94881503779948" lon="12.401356607726916"><ele>173.66666666666669</ele><time>2026-05-03T14:38:50.999Z</time></trkpt><trkpt lat="42.94902349138512" lon="12.401372890703362"><ele>175.33333333333334</ele><time>2026-05-03T14:38:51.999Z</time></trkpt><trkpt lat="42.9492316190165" lon="12.40138174423489"><ele>177.0</ele><time>2026-05-03T14:38:52.999Z</time></trkpt><trkpt lat="42.94944088062741" lon="12.401395546406317"><ele>177.0</ele><time>2026-05-03T14:38:53.999Z</time></trkpt><trkpt lat="42.94965143292535" lon="12.40140684653457"><ele>177.0</ele><time>2026-05-03T14:38:54.999Z</time></trkpt><trkpt lat="42.94985987054797" lon="12.401421669888036"><ele>177.0</ele><time>2026-05-03T14:38:55.999Z</time></trkpt><trkpt lat="42.9500659750287" lon="12.401433383994718"><ele>176.33333333333334</ele><time>2026-05-03T14:38:56.999Z</time></trkpt><trkpt lat="42.95027609916078" lon="12.401448625468399"><ele>175.66666666666669</ele><time>2026-05-03T14:38:57.999Z</time></trkpt><trkpt lat="42.95048582959205" lon="12.40145934587995"><ele>175.0</ele><time>2026-05-03T14:38:58.999Z</time></trkpt><trkpt lat="42.950693129659506" lon="12.401473457019053"><ele>175.66666666666669</ele><time>2026-05-03T14:38:59.999Z</time></trkpt><trkpt lat="42.95090352039167" lon="12.401483554049415"><ele>176.33333333333334</ele><time>2026-05-03T14:39:00.999Z</time></trkpt><trkpt lat="42.95111555109384" lon="12.401494726081413"><ele>177.0</ele><time>2026-05-03T14:39:01.999Z</time></trkpt><trkpt lat="42.95132333285979" lon="12.401510678533274"><ele>177.0</ele><time>2026-05-03T14:39:02.999Z</time></trkpt><trkpt lat="42.95153140683105" lon="12.401525098497208"><ele>177.0</ele><time>2026-05-03T14:39:04Z</time></trkpt><trkpt lat="42.951741261218366" lon="12.401536461913382"><ele>177.0</ele><time>2026-05-03T14:39:05Z</time></trkpt><trkpt lat="42.95194939648661" lon="12.401549690575724"><ele>177.33333333333334</ele><time>2026-05-03T14:39:06Z</time></trkpt><trkpt lat="42.952161083499064" lon="12.401557066951543"><ele>177.66666666666669</ele><time>2026-05-03T14:39:07Z</time></trkpt><trkpt lat="42.952370952076905" lon="12.401571960717089"><ele>178.0</ele><time>2026-05-03T14:39:08Z</time></trkpt><trkpt lat="42.9525808185925" lon="12.401584727171063"><ele>178.0</ele><time>2026-05-03T14:39:09Z</time></trkpt><trkpt lat="42.952788536957634" lon="12.401595674007682"><ele>178.0</ele><time>2026-05-03T14:39:10Z</time></trkpt><trkpt lat="42.95299738497799" lon="12.401608541614692"><ele>178.0</ele><time>2026-05-03T14:39:11Z</time></trkpt><trkpt lat="42.95320486337811" lon="12.401620363201005"><ele>178.66666666666669</ele><time>2026-05-03T14:39:12Z</time></trkpt><trkpt lat="42.95341506506872" lon="12.40163341423977"><ele>179.33333333333334</ele><time>2026-05-03T14:39:13Z</time></trkpt><trkpt lat="42.953624905875905" lon="12.40163236948132"><ele>180.0</ele><time>2026-05-03T14:39:14Z</time></trkpt><trkpt lat="42.953837007165575" lon="12.401629566689664"><ele>180.0</ele><time>2026-05-03T14:39:15Z</time></trkpt><trkpt lat="42.95404506320732" lon="12.401619877156419"><ele>180.0</ele><time>2026-05-03T14:39:16Z</time></trkpt><trkpt lat="42.95425560024761" lon="12.401605880141172"><ele>180.0</ele><time>2026-05-03T14:39:17Z</time></trkpt><trkpt lat="42.95446524542375" lon="12.401591621522916"><ele>179.66666666666666</ele><time>2026-05-03T14:39:18Z</time></trkpt><trkpt lat="42.954672454371554" lon="12.401577245722075"><ele>179.33333333333331</ele><time>2026-05-03T14:39:19Z</time></trkpt><trkpt lat="42.95488093244334" lon="12.401567466176624"><ele>179.0</ele><time>2026-05-03T14:39:19.999Z</time></trkpt><trkpt lat="42.95508909151272" lon="12.401554950199214"><ele>180.66666666666666</ele><time>2026-05-03T14:39:20.999Z</time></trkpt><trkpt lat="42.955299973474304" lon="12.40154711849063"><ele>182.33333333333334</ele><time>2026-05-03T14:39:21.999Z</time></trkpt><trkpt lat="42.95550974736713" lon="12.401533604338193"><ele>184.0</ele><time>2026-05-03T14:39:22.999Z</time></trkpt><trkpt lat="42.9557265220106" lon="12.401517100681904"><ele>188.0</ele><time>2026-05-03T14:39:23.999Z</time></trkpt><trkpt lat="42.95595136746221" lon="12.401499325073678"><ele>192.0</ele><time>2026-05-03T14:39:24.999Z</time></trkpt><trkpt lat="42.95618244329689" lon="12.401484315128888"><ele>192.0</ele><time>2026-05-03T14:39:25.999Z</time></trkpt><trkpt lat="42.95641620536367" lon="12.40147002922555"><ele>192.0</ele><time>2026-05-03T14:39:26.999Z</time></trkpt><trkpt lat="42.95665205863666" lon="12.40145571752252"><ele>193.5</ele><time>2026-05-03T14:39:27.999Z</time></trkpt><trkpt lat="42.95688083256576" lon="12.401443197456356"><ele>195.0</ele><time>2026-05-03T14:39:28.999Z</time></trkpt><trkpt lat="42.95710500529681" lon="12.401432933971087"><ele>195.0</ele><time>2026-05-03T14:39:29.999Z</time></trkpt><trkpt lat="42.95731609052721" lon="12.401421521993734"><ele>195.0</ele><time>2026-05-03T14:39:30.999Z</time></trkpt><trkpt lat="42.95752034949561" lon="12.401402891112085"><ele>195.0</ele><time>2026-05-03T14:39:31.999Z</time></trkpt><trkpt lat="42.95773221883616" lon="12.401383568074829"><ele>197.0</ele><time>2026-05-03T14:39:32.999Z</time></trkpt><trkpt lat="42.957951330853334" lon="12.40137003885548"><ele>199.0</ele><time>2026-05-03T14:39:33.999Z</time></trkpt><trkpt lat="42.958175283417575" lon="12.401359381177807"><ele>201.0</ele><time>2026-05-03T14:39:34.999Z</time></trkpt><trkpt lat="42.95840038466235" lon="12.401348602018475"><ele>203.5</ele><time>2026-05-03T14:39:35.999Z</time></trkpt><trkpt lat="42.958627074326174" lon="12.401336957799254"><ele>206.0</ele><time>2026-05-03T14:39:36.999Z</time></trkpt><trkpt lat="42.95885615610507" lon="12.401324530734353"><ele>196.0</ele><time>2026-05-03T14:39:37.999Z</time></trkpt><trkpt lat="42.95908774800743" lon="12.401307368789281"><ele>186.0</ele><time>2026-05-03T14:39:38.999Z</time></trkpt><trkpt lat="42.959320603050074" lon="12.401290706005652"><ele>186.0</ele><time>2026-05-03T14:39:39.999Z</time></trkpt><trkpt lat="42.959550664733186" lon="12.40127680608778"><ele>186.0</ele><time>2026-05-03T14:39:40.999Z</time></trkpt><trkpt lat="42.95978110532176" lon="12.401262952789686"><ele>186.0</ele><time>2026-05-03T14:39:41.999Z</time></trkpt><trkpt lat="42.96000837210052" lon="12.401251836613907"><ele>186.0</ele><time>2026-05-03T14:39:42.999Z</time></trkpt><trkpt lat="42.960233550502046" lon="12.401239260582603"><ele>187.0</ele><time>2026-05-03T14:39:43.999Z</time></trkpt><trkpt lat="42.960460282243226" lon="12.401228412777007"><ele>188.0</ele><time>2026-05-03T14:39:44.999Z</time></trkpt><trkpt lat="42.96069075250178" lon="12.401213799103626"><ele>187.0</ele><time>2026-05-03T14:39:45.999Z</time></trkpt><trkpt lat="42.960923449196294" lon="12.4011999879517"><ele>186.0</ele><time>2026-05-03T14:39:46.999Z</time></trkpt><trkpt lat="42.96116109003934" lon="12.401183946004556"><ele>186.0</ele><time>2026-05-03T14:39:47.999Z</time></trkpt><trkpt lat="42.96139730171954" lon="12.401172732426984"><ele>186.0</ele><time>2026-05-03T14:39:48.999Z</time></trkpt><trkpt lat="42.96163210186824" lon="12.401158638414172"><ele>188.0</ele><time>2026-05-03T14:39:49.999Z</time></trkpt><trkpt lat="42.96186601402557" lon="12.401149474530335"><ele>190.0</ele><time>2026-05-03T14:39:50.999Z</time></trkpt><trkpt lat="42.96209377570857" lon="12.401139830594456"><ele>190.0</ele><time>2026-05-03T14:39:51.999Z</time></trkpt><trkpt lat="42.96232463691312" lon="12.401125948180304"><ele>190.0</ele><time>2026-05-03T14:39:52.999Z</time></trkpt><trkpt lat="42.96255531445881" lon="12.401116334694445"><ele>190.0</ele><time>2026-05-03T14:39:53.999Z</time></trkpt><trkpt lat="42.962788759966024" lon="12.401108403114387"><ele>190.0</ele><time>2026-05-03T14:39:54.999Z</time></trkpt><trkpt lat="42.963023050748255" lon="12.401109786033784"><ele>190.0</ele><time>2026-05-03T14:39:55.999Z</time></trkpt><trkpt lat="42.96325596340383" lon="12.401132183028448"><ele>190.0</ele><time>2026-05-03T14:39:56.999Z</time></trkpt><trkpt lat="42.963488363316316" lon="12.401175227608647"><ele>189.0</ele><time>2026-05-03T14:39:57.999Z</time></trkpt><trkpt lat="42.963718975453034" lon="12.401241694880614"><ele>188.0</ele><time>2026-05-03T14:39:58.999Z</time></trkpt><trkpt lat="42.9639419260385" lon="12.401324608245002"><ele>189.0</ele><time>2026-05-03T14:39:59.999Z</time></trkpt><trkpt lat="42.96416332523418" lon="12.40141794903094"><ele>190.0</ele><time>2026-05-03T14:40:00.999Z</time></trkpt><trkpt lat="42.96438435016589" lon="12.401525540685933"><ele>188.0</ele><time>2026-05-03T14:40:01.999Z</time></trkpt><trkpt lat="42.96460401476404" lon="12.401646128085899"><ele>186.0</ele><time>2026-05-03T14:40:02.999Z</time></trkpt><trkpt lat="42.964815922118824" lon="12.401781823885733"><ele>186.0</ele><time>2026-05-03T14:40:03.999Z</time></trkpt><trkpt lat="42.96502070245416" lon="12.401935316965075"><ele>186.0</ele><time>2026-05-03T14:40:04.999Z</time></trkpt><trkpt lat="42.96522411255376" lon="12.402097210900477"><ele>187.0</ele><time>2026-05-03T14:40:05.999Z</time></trkpt><trkpt lat="42.96542030790841" lon="12.402263382808298"><ele>188.0</ele><time>2026-05-03T14:40:06.999Z</time></trkpt><trkpt lat="42.9656223582388" lon="12.402424367669854"><ele>188.0</ele><time>2026-05-03T14:40:07.999Z</time></trkpt><trkpt lat="42.9658249747492" lon="12.402579912156426"><ele>188.0</ele><time>2026-05-03T14:40:08.999Z</time></trkpt><trkpt lat="42.96602876250315" lon="12.402736187665582"><ele>191.0</ele><time>2026-05-03T14:40:09.999Z</time></trkpt><trkpt lat="42.96623231578564" lon="12.402891993846678"><ele>194.0</ele><time>2026-05-03T14:40:10.999Z</time></trkpt><trkpt lat="42.96643805868185" lon="12.4030444806536"><ele>194.0</ele><time>2026-05-03T14:40:11.999Z</time></trkpt><trkpt lat="42.96664847504015" lon="12.403190941014145"><ele>194.0</ele><time>2026-05-03T14:40:12.999Z</time></trkpt><trkpt lat="42.966859061193595" lon="12.4033207554245"><ele>189.5</ele><time>2026-05-03T14:40:13.999Z</time></trkpt><trkpt lat="42.967081422401755" lon="12.403420452120063"><ele>185.0</ele><time>2026-05-03T14:40:14.999Z</time></trkpt><trkpt lat="42.967306332839165" lon="12.403490628124448"><ele>181.0</ele><time>2026-05-03T14:40:15.999Z</time></trkpt><trkpt lat="42.9675362637178" lon="12.403539814565356"><ele>177.0</ele><time>2026-05-03T14:40:16.999Z</time></trkpt><trkpt lat="42.96776881018407" lon="12.403570992146808"><ele>177.0</ele><time>2026-05-03T14:40:17.999Z</time></trkpt><trkpt lat="42.96800035132209" lon="12.403587030306998"><ele>177.0</ele><time>2026-05-03T14:40:18.999Z</time></trkpt><trkpt lat="42.96823567880142" lon="12.403599708046151"><ele>177.5</ele><time>2026-05-03T14:40:19.999Z</time></trkpt><trkpt lat="42.968469338234854" lon="12.403613723908697"><ele>178.0</ele><time>2026-05-03T14:40:20.999Z</time></trkpt><trkpt lat="42.96870286769354" lon="12.403632509351064"><ele>178.0</ele><time>2026-05-03T14:40:21.999Z</time></trkpt><trkpt lat="42.96893517492112" lon="12.403655584909147"><ele>178.0</ele><time>2026-05-03T14:40:22.999Z</time></trkpt><trkpt lat="42.9691664589985" lon="12.403676021564957"><ele>176.0</ele><time>2026-05-03T14:40:23.999Z</time></trkpt><trkpt lat="42.96940192689534" lon="12.403690538606579"><ele>174.0</ele><time>2026-05-03T14:40:24.999Z</time></trkpt><trkpt lat="42.969635010279966" lon="12.403706871755569"><ele>174.0</ele><time>2026-05-03T14:40:25.999Z</time></trkpt><trkpt lat="42.96986882498473" lon="12.40372614807766"><ele>174.0</ele><time>2026-05-03T14:40:26.999Z</time></trkpt><trkpt lat="42.970100409432696" lon="12.40374309421235"><ele>170.0</ele><time>2026-05-03T14:40:27.999Z</time></trkpt><trkpt lat="42.970333723915616" lon="12.403760318933246"><ele>166.0</ele><time>2026-05-03T14:40:28.999Z</time></trkpt><trkpt lat="42.97056667494419" lon="12.403775000607032"><ele>166.0</ele><time>2026-05-03T14:40:29.999Z</time></trkpt><trkpt lat="42.97079809983917" lon="12.403796405235155"><ele>166.0</ele><time>2026-05-03T14:40:30.999Z</time></trkpt><trkpt lat="42.97103163520364" lon="12.40383516345008"><ele>166.0</ele><time>2026-05-03T14:40:31.999Z</time></trkpt><trkpt lat="42.971258799274025" lon="12.403906758154323"><ele>166.0</ele><time>2026-05-03T14:40:32.999Z</time></trkpt><trkpt lat="42.971482258612546" lon="12.403989253110597"><ele>166.0</ele><time>2026-05-03T14:40:33.999Z</time></trkpt><trkpt lat="42.9717035561259" lon="12.404092026706698"><ele>166.0</ele><time>2026-05-03T14:40:34.999Z</time></trkpt><trkpt lat="42.9719158865895" lon="12.404208935750857"><ele>166.0</ele><time>2026-05-03T14:40:35.999Z</time></trkpt><trkpt lat="42.97212972565698" lon="12.404344210074253"><ele>166.0</ele><time>2026-05-03T14:40:36.999Z</time></trkpt><trkpt lat="42.97233029670907" lon="12.404493981486304"><ele>165.0</ele><time>2026-05-03T14:40:37.999Z</time></trkpt><trkpt lat="42.972529385908565" lon="12.404659180833997"><ele>164.0</ele><time>2026-05-03T14:40:38.999Z</time></trkpt><trkpt lat="42.97272160343555" lon="12.404843415815726"><ele>164.0</ele><time>2026-05-03T14:40:39.999Z</time></trkpt><trkpt lat="42.97290224300376" lon="12.405040690485645"><ele>164.0</ele><time>2026-05-03T14:40:40.999Z</time></trkpt><trkpt lat="42.97308858768762" lon="12.405242854279969"><ele>164.0</ele><time>2026-05-03T14:40:42Z</time></trkpt><trkpt lat="42.973270686163985" lon="12.405450505909432"><ele>164.0</ele><time>2026-05-03T14:40:43Z</time></trkpt><trkpt lat="42.97346294555101" lon="12.405661949639681"><ele>163.0</ele><time>2026-05-03T14:40:43.999Z</time></trkpt><trkpt lat="42.97366661062735" lon="12.405885777804905"><ele>162.0</ele><time>2026-05-03T14:40:45Z</time></trkpt><trkpt lat="42.97387201317411" lon="12.406111479645775"><ele>162.0</ele><time>2026-05-03T14:40:46Z</time></trkpt><trkpt lat="42.97408212543314" lon="12.406348581542753"><ele>162.0</ele><time>2026-05-03T14:40:47Z</time></trkpt><trkpt lat="42.97429678085776" lon="12.40659377116977"><ele>162.0</ele><time>2026-05-03T14:40:48Z</time></trkpt><trkpt lat="42.974516891841006" lon="12.406842876625815"><ele>162.0</ele><time>2026-05-03T14:40:49Z</time></trkpt><trkpt lat="42.97473776829803" lon="12.40710283128009"><ele>163.0</ele><time>2026-05-03T14:40:50Z</time></trkpt><trkpt lat="42.97496402031133" lon="12.40736164860037"><ele>164.0</ele><time>2026-05-03T14:40:51Z</time></trkpt><trkpt lat="42.975193242042884" lon="12.407622178466456"><ele>163.0</ele><time>2026-05-03T14:40:52Z</time></trkpt><trkpt lat="42.97542263848149" lon="12.407883539314135"><ele>162.0</ele><time>2026-05-03T14:40:53Z</time></trkpt><trkpt lat="42.97565025728129" lon="12.408148761323732"><ele>161.5</ele><time>2026-05-03T14:40:54Z</time></trkpt><trkpt lat="42.97587655334491" lon="12.408418909014607"><ele>161.0</ele><time>2026-05-03T14:40:55Z</time></trkpt><trkpt lat="42.97610457197766" lon="12.408694486821325"><ele>162.0</ele><time>2026-05-03T14:40:56Z</time></trkpt><trkpt lat="42.97633536910152" lon="12.40896786173765"><ele>163.0</ele><time>2026-05-03T14:40:57Z</time></trkpt><trkpt lat="42.97656602666535" lon="12.409234209446023"><ele>163.0</ele><time>2026-05-03T14:40:58Z</time></trkpt><trkpt lat="42.97679693321136" lon="12.409501276092854"><ele>163.0</ele><time>2026-05-03T14:40:59Z</time></trkpt><trkpt lat="42.97702414601896" lon="12.40976814491019"><ele>163.5</ele><time>2026-05-03T14:41:00Z</time></trkpt><trkpt lat="42.977248184390405" lon="12.410036682861577"><ele>164.0</ele><time>2026-05-03T14:41:01Z</time></trkpt><trkpt lat="42.97746866240174" lon="12.410306560781788"><ele>164.5</ele><time>2026-05-03T14:41:02Z</time></trkpt><trkpt lat="42.97768587142172" lon="12.41057197638553"><ele>165.0</ele><time>2026-05-03T14:41:03Z</time></trkpt><trkpt lat="42.97790174126459" lon="12.410828148756007"><ele>165.0</ele><time>2026-05-03T14:41:04Z</time></trkpt><trkpt lat="42.97811642185848" lon="12.411073679745538"><ele>165.0</ele><time>2026-05-03T14:41:05Z</time></trkpt><trkpt lat="42.978331852770694" lon="12.411312061589767"><ele>164.5</ele><time>2026-05-03T14:41:06Z</time></trkpt><trkpt lat="42.97855141684786" lon="12.411538668160528"><ele>164.0</ele><time>2026-05-03T14:41:07Z</time></trkpt><trkpt lat="42.978778623019785" lon="12.411749561083347"><ele>164.0</ele><time>2026-05-03T14:41:08Z</time></trkpt><trkpt lat="42.97901121002006" lon="12.411939247416182"><ele>164.0</ele><time>2026-05-03T14:41:09Z</time></trkpt><trkpt lat="42.97924568289019" lon="12.41211991404385"><ele>164.0</ele><time>2026-05-03T14:41:10Z</time></trkpt><trkpt lat="42.97948265693249" lon="12.412292884026272"><ele>164.0</ele><time>2026-05-03T14:41:11Z</time></trkpt><trkpt lat="42.97971933376665" lon="12.412457759372243"><ele>164.0</ele><time>2026-05-03T14:41:12Z</time></trkpt><trkpt lat="42.9799558682395" lon="12.412619778732035"><ele>164.0</ele><time>2026-05-03T14:41:13Z</time></trkpt><trkpt lat="42.980193539439455" lon="12.412781148793503"><ele>164.0</ele><time>2026-05-03T14:41:14Z</time></trkpt><trkpt lat="42.980430100557946" lon="12.412940277022907"><ele>164.0</ele><time>2026-05-03T14:41:15Z</time></trkpt><trkpt lat="42.980665935969576" lon="12.413098954101821"><ele>164.0</ele><time>2026-05-03T14:41:16Z</time></trkpt><trkpt lat="42.98089963683697" lon="12.413256483877467"><ele>164.0</ele><time>2026-05-03T14:41:17Z</time></trkpt><trkpt lat="42.98113158900495" lon="12.413414585473022"><ele>164.0</ele><time>2026-05-03T14:41:18Z</time></trkpt><trkpt lat="42.98136349638495" lon="12.413571239476267"><ele>164.0</ele><time>2026-05-03T14:41:19Z</time></trkpt><trkpt lat="42.98159406332706" lon="12.413729749693918"><ele>164.0</ele><time>2026-05-03T14:41:20Z</time></trkpt><trkpt lat="42.981824677041175" lon="12.413885248536932"><ele>164.0</ele><time>2026-05-03T14:41:21Z</time></trkpt><trkpt lat="42.98205494736626" lon="12.414040343109859"><ele>164.0</ele><time>2026-05-03T14:41:22Z</time></trkpt><trkpt lat="42.98228566444955" lon="12.414194967145596"><ele>164.0</ele><time>2026-05-03T14:41:23Z</time></trkpt><trkpt lat="42.98251720654049" lon="12.414351612381514"><ele>164.5</ele><time>2026-05-03T14:41:24Z</time></trkpt><trkpt lat="42.98274597272235" lon="12.414507788547795"><ele>165.0</ele><time>2026-05-03T14:41:25Z</time></trkpt><trkpt lat="42.98297132355413" lon="12.414660981991315"><ele>165.5</ele><time>2026-05-03T14:41:26Z</time></trkpt><trkpt lat="42.98319056203867" lon="12.414814184778168"><ele>166.0</ele><time>2026-05-03T14:41:27Z</time></trkpt><trkpt lat="42.98340586400938" lon="12.414963933955217"><ele>166.0</ele><time>2026-05-03T14:41:28Z</time></trkpt><trkpt lat="42.98362058278236" lon="12.415113122863588"><ele>166.0</ele><time>2026-05-03T14:41:29Z</time></trkpt><trkpt lat="42.98383539908342" lon="12.415268229946445"><ele>166.0</ele><time>2026-05-03T14:41:30Z</time></trkpt><trkpt lat="42.98404917850989" lon="12.415435279160356"><ele>166.0</ele><time>2026-05-03T14:41:31Z</time></trkpt><trkpt lat="42.98426479179309" lon="12.415610969478525"><ele>166.5</ele><time>2026-05-03T14:41:32Z</time></trkpt><trkpt lat="42.98447654317815" lon="12.415788533240175"><ele>167.0</ele><time>2026-05-03T14:41:33Z</time></trkpt><trkpt lat="42.984686534825315" lon="12.415971112933077"><ele>167.0</ele><time>2026-05-03T14:41:34Z</time></trkpt><trkpt lat="42.984892772867575" lon="12.41615617019855"><ele>167.0</ele><time>2026-05-03T14:41:35Z</time></trkpt><trkpt lat="42.98509575307463" lon="12.416340977535473"><ele>167.5</ele><time>2026-05-03T14:41:36Z</time></trkpt><trkpt lat="42.98529543184464" lon="12.416527228291097"><ele>168.0</ele><time>2026-05-03T14:41:37Z</time></trkpt><trkpt lat="42.985497123806375" lon="12.416720571456295"><ele>168.0</ele><time>2026-05-03T14:41:38Z</time></trkpt><trkpt lat="42.985694473527175" lon="12.416913018485188"><ele>168.0</ele><time>2026-05-03T14:41:39Z</time></trkpt><trkpt lat="42.98588989139002" lon="12.417104904625763"><ele>168.0</ele><time>2026-05-03T14:41:40Z</time></trkpt><trkpt lat="42.98608508658372" lon="12.41729511956219"><ele>168.0</ele><time>2026-05-03T14:41:41Z</time></trkpt><trkpt lat="42.986282614697394" lon="12.417485796657369"><ele>168.0</ele><time>2026-05-03T14:41:42Z</time></trkpt><trkpt lat="42.9864749994377" lon="12.417672570643012"><ele>168.0</ele><time>2026-05-03T14:41:43Z</time></trkpt><trkpt lat="42.98666733917265" lon="12.417860748117599"><ele>169.5</ele><time>2026-05-03T14:41:44Z</time></trkpt><trkpt lat="42.98685736260622" lon="12.418047490667492"><ele>171.0</ele><time>2026-05-03T14:41:45Z</time></trkpt><trkpt lat="42.98704298398864" lon="12.418229106984677"><ele>171.0</ele><time>2026-05-03T14:41:46Z</time></trkpt><trkpt lat="42.987226954167554" lon="12.418410132323649"><ele>171.0</ele><time>2026-05-03T14:41:47Z</time></trkpt><trkpt lat="42.987412613417504" lon="12.418595429592163"><ele>170.0</ele><time>2026-05-03T14:41:48Z</time></trkpt><trkpt lat="42.98759995101665" lon="12.418781161320783"><ele>169.0</ele><time>2026-05-03T14:41:48.999Z</time></trkpt><trkpt lat="42.98779372343927" lon="12.418964233288841"><ele>169.0</ele><time>2026-05-03T14:41:49.999Z</time></trkpt><trkpt lat="42.987986908735365" lon="12.419147212622647"><ele>169.0</ele><time>2026-05-03T14:41:50.999Z</time></trkpt><trkpt lat="42.988179667198004" lon="12.419330865935095"><ele>168.5</ele><time>2026-05-03T14:41:51.999Z</time></trkpt><trkpt lat="42.988372042456746" lon="12.419517085329817"><ele>168.0</ele><time>2026-05-03T14:41:52.999Z</time></trkpt><trkpt lat="42.98856586596552" lon="12.419706052596183"><ele>168.0</ele><time>2026-05-03T14:41:53.999Z</time></trkpt><trkpt lat="42.988762464764406" lon="12.41989671987214"><ele>168.0</ele><time>2026-05-03T14:41:54.999Z</time></trkpt><trkpt lat="42.9889613294883" lon="12.42008713811533"><ele>168.0</ele><time>2026-05-03T14:41:55.999Z</time></trkpt><trkpt lat="42.989160010721804" lon="12.42027878139828"><ele>168.0</ele><time>2026-05-03T14:41:56.999Z</time></trkpt><trkpt lat="42.989358664973764" lon="12.420471715142195"><ele>166.5</ele><time>2026-05-03T14:41:57.999Z</time></trkpt><trkpt lat="42.989558387751934" lon="12.42066405115157"><ele>165.0</ele><time>2026-05-03T14:41:58.999Z</time></trkpt><trkpt lat="42.98975615471678" lon="12.42085528384784"><ele>165.0</ele><time>2026-05-03T14:41:59.999Z</time></trkpt><trkpt lat="42.98995310687083" lon="12.421045627725709"><ele>165.0</ele><time>2026-05-03T14:42:00.999Z</time></trkpt><trkpt lat="42.9901544535658" lon="12.42123877412422"><ele>166.0</ele><time>2026-05-03T14:42:01.999Z</time></trkpt><trkpt lat="42.990355907892116" lon="12.421428661426893"><ele>167.0</ele><time>2026-05-03T14:42:02.999Z</time></trkpt><trkpt lat="42.99056112056958" lon="12.421617179475417"><ele>167.0</ele><time>2026-05-03T14:42:03.999Z</time></trkpt><trkpt lat="42.9907683505368" lon="12.421811280691127"><ele>167.0</ele><time>2026-05-03T14:42:04.999Z</time></trkpt><trkpt lat="42.990974351692536" lon="12.422009930118708"><ele>168.5</ele><time>2026-05-03T14:42:05.999Z</time></trkpt><trkpt lat="42.99118449071089" lon="12.422207275754968"><ele>170.0</ele><time>2026-05-03T14:42:06.999Z</time></trkpt><trkpt lat="42.99139146110272" lon="12.422403282094926"><ele>170.0</ele><time>2026-05-03T14:42:07.999Z</time></trkpt><trkpt lat="42.99160181148617" lon="12.422604694938437"><ele>170.0</ele><time>2026-05-03T14:42:08.999Z</time></trkpt><trkpt lat="42.99181059224519" lon="12.422807109981774"><ele>168.5</ele><time>2026-05-03T14:42:09.999Z</time></trkpt><trkpt lat="42.992018132002045" lon="12.423009056532878"><ele>167.0</ele><time>2026-05-03T14:42:10.999Z</time></trkpt><trkpt lat="42.99222407195389" lon="12.423209283675787"><ele>167.0</ele><time>2026-05-03T14:42:11.999Z</time></trkpt><trkpt lat="42.99243217566167" lon="12.423409701867895"><ele>167.0</ele><time>2026-05-03T14:42:12.999Z</time></trkpt><trkpt lat="42.992641340041494" lon="12.423610306405767"><ele>167.0</ele><time>2026-05-03T14:42:13.999Z</time></trkpt><trkpt lat="42.992850997904" lon="12.42381207990699"><ele>167.0</ele><time>2026-05-03T14:42:14.999Z</time></trkpt><trkpt lat="42.99305793489329" lon="12.424011295749159"><ele>167.5</ele><time>2026-05-03T14:42:15.999Z</time></trkpt><trkpt lat="42.99326328520569" lon="12.4242056427209"><ele>168.0</ele><time>2026-05-03T14:42:16.999Z</time></trkpt><trkpt lat="42.99346969663036" lon="12.424394483256062"><ele>168.0</ele><time>2026-05-03T14:42:17.999Z</time></trkpt><trkpt lat="42.99367598063137" lon="12.424574184174176"><ele>168.0</ele><time>2026-05-03T14:42:18.999Z</time></trkpt><trkpt lat="42.99388480455466" lon="12.424745045158891"><ele>168.0</ele><time>2026-05-03T14:42:19.999Z</time></trkpt><trkpt lat="42.99409707888451" lon="12.424903395766687"><ele>168.0</ele><time>2026-05-03T14:42:20.999Z</time></trkpt><trkpt lat="42.99431121351581" lon="12.425046434023095"><ele>168.0</ele><time>2026-05-03T14:42:21.999Z</time></trkpt><trkpt lat="42.99452843332744" lon="12.425179597224728"><ele>168.0</ele><time>2026-05-03T14:42:22.999Z</time></trkpt><trkpt lat="42.994746518620474" lon="12.425302821707529"><ele>168.0</ele><time>2026-05-03T14:42:23.999Z</time></trkpt><trkpt lat="42.994967301912936" lon="12.425420199214246"><ele>168.0</ele><time>2026-05-03T14:42:24.999Z</time></trkpt><trkpt lat="42.99519466783953" lon="12.425528641143265"><ele>170.0</ele><time>2026-05-03T14:42:25.999Z</time></trkpt><trkpt lat="42.99542604210974" lon="12.425629392697218"><ele>172.0</ele><time>2026-05-03T14:42:26.999Z</time></trkpt><trkpt lat="42.99566568453828" lon="12.425721885753829"><ele>170.0</ele><time>2026-05-03T14:42:27.999Z</time></trkpt><trkpt lat="42.99591015491852" lon="12.425804730446787"><ele>168.0</ele><time>2026-05-03T14:42:28.999Z</time></trkpt><trkpt lat="42.996167188457896" lon="12.425878763217879"><ele>168.0</ele><time>2026-05-03T14:42:29.999Z</time></trkpt><trkpt lat="42.99642959691928" lon="12.425940927004307"><ele>168.0</ele><time>2026-05-03T14:42:30.999Z</time></trkpt><trkpt lat="42.996699904753356" lon="12.425990642993792"><ele>168.0</ele><time>2026-05-03T14:42:31.999Z</time></trkpt><trkpt lat="42.99697277071145" lon="12.426032369056255"><ele>168.0</ele><time>2026-05-03T14:42:32.999Z</time></trkpt><trkpt lat="42.99725253648928" lon="12.426059609614756"><ele>168.5</ele><time>2026-05-03T14:42:33.999Z</time></trkpt><trkpt lat="42.99752933948345" lon="12.426072940491114"><ele>169.0</ele><time>2026-05-03T14:42:34.999Z</time></trkpt><trkpt lat="42.99781228721197" lon="12.426082545365912"><ele>169.0</ele><time>2026-05-03T14:42:35.999Z</time></trkpt><trkpt lat="42.99808939091456" lon="12.426095745380604"><ele>169.0</ele><time>2026-05-03T14:42:36.999Z</time></trkpt><trkpt lat="42.99836486260065" lon="12.42610524382178"><ele>169.0</ele><time>2026-05-03T14:42:37.999Z</time></trkpt><trkpt lat="42.99863633720595" lon="12.426106264646618"><ele>169.0</ele><time>2026-05-03T14:42:38.999Z</time></trkpt><trkpt lat="42.99889975799201" lon="12.426101070779966"><ele>169.0</ele><time>2026-05-03T14:42:39.999Z</time></trkpt><trkpt lat="42.99916295334315" lon="12.426099078364736"><ele>169.0</ele><time>2026-05-03T14:42:40.999Z</time></trkpt><trkpt lat="42.99941913206232" lon="12.426097985178814"><ele>169.5</ele><time>2026-05-03T14:42:41.999Z</time></trkpt><trkpt lat="42.99967531690437" lon="12.426093768193123"><ele>170.0</ele><time>2026-05-03T14:42:42.999Z</time></trkpt><trkpt lat="42.99993368149778" lon="12.426090123975847"><ele>170.0</ele><time>2026-05-03T14:42:43.999Z</time></trkpt><trkpt lat="43.0001921213212" lon="12.426091738187965"><ele>170.0</ele><time>2026-05-03T14:42:44.999Z</time></trkpt><trkpt lat="43.00045426447768" lon="12.42608000581736"><ele>170.0</ele><time>2026-05-03T14:42:45.999Z</time></trkpt><trkpt lat="43.00071303570134" lon="12.426075703144669"><ele>170.0</ele><time>2026-05-03T14:42:46.999Z</time></trkpt><trkpt lat="43.00097132994714" lon="12.42607523388058"><ele>170.0</ele><time>2026-05-03T14:42:48Z</time></trkpt><trkpt lat="43.00123402628253" lon="12.426070886260964"><ele>170.0</ele><time>2026-05-03T14:42:49Z</time></trkpt><trkpt lat="43.00149989721398" lon="12.426063882848098"><ele>169.5</ele><time>2026-05-03T14:42:50Z</time></trkpt><trkpt lat="43.00176334734283" lon="12.42606244613376"><ele>169.0</ele><time>2026-05-03T14:42:51Z</time></trkpt><trkpt lat="43.002032728706155" lon="12.426058636900095"><ele>169.0</ele><time>2026-05-03T14:42:52Z</time></trkpt><trkpt lat="43.002297613060676" lon="12.426058180047475"><ele>169.0</ele><time>2026-05-03T14:42:53Z</time></trkpt><trkpt lat="43.00256358977901" lon="12.426058262625725"><ele>169.0</ele><time>2026-05-03T14:42:54Z</time></trkpt><trkpt lat="43.00282666042031" lon="12.42605483363617"><ele>169.0</ele><time>2026-05-03T14:42:55Z</time></trkpt><trkpt lat="43.003088467973015" lon="12.426050414278237"><ele>169.0</ele><time>2026-05-03T14:42:56Z</time></trkpt><trkpt lat="43.00335194541581" lon="12.426048888735496"><ele>169.0</ele><time>2026-05-03T14:42:57Z</time></trkpt><trkpt lat="43.00361647663748" lon="12.4260441421731"><ele>169.0</ele><time>2026-05-03T14:42:58Z</time></trkpt><trkpt lat="43.003878405927026" lon="12.426037872624871"><ele>169.0</ele><time>2026-05-03T14:42:59Z</time></trkpt><trkpt lat="43.0041388907311" lon="12.426030162286358"><ele>169.0</ele><time>2026-05-03T14:43:00Z</time></trkpt><trkpt lat="43.00439954452281" lon="12.426029680754441"><ele>169.0</ele><time>2026-05-03T14:43:01Z</time></trkpt><trkpt lat="43.004660009433174" lon="12.426019941329361"><ele>169.0</ele><time>2026-05-03T14:43:02Z</time></trkpt><trkpt lat="43.00491598466285" lon="12.426010237339892"><ele>169.0</ele><time>2026-05-03T14:43:03Z</time></trkpt><trkpt lat="43.00518027113563" lon="12.426001526396638"><ele>168.5</ele><time>2026-05-03T14:43:04Z</time></trkpt><trkpt lat="43.00545578701563" lon="12.425991434824665"><ele>168.0</ele><time>2026-05-03T14:43:05Z</time></trkpt><trkpt lat="43.005737395499004" lon="12.425985669834997"><ele>168.5</ele><time>2026-05-03T14:43:06Z</time></trkpt><trkpt lat="43.006007164596554" lon="12.425986542873165"><ele>169.0</ele><time>2026-05-03T14:43:07Z</time></trkpt><trkpt lat="43.00628723096829" lon="12.425979939864623"><ele>169.0</ele><time>2026-05-03T14:43:08Z</time></trkpt><trkpt lat="43.00655744306689" lon="12.425975877159594"><ele>169.0</ele><time>2026-05-03T14:43:09Z</time></trkpt><trkpt lat="43.00681918532198" lon="12.42596873629946"><ele>168.0</ele><time>2026-05-03T14:43:10Z</time></trkpt><trkpt lat="43.00707941162782" lon="12.425957546096823"><ele>167.0</ele><time>2026-05-03T14:43:11Z</time></trkpt><trkpt lat="43.007349376025395" lon="12.42595494200406"><ele>166.5</ele><time>2026-05-03T14:43:12Z</time></trkpt><trkpt lat="43.00761204272847" lon="12.425960268769233"><ele>166.0</ele><time>2026-05-03T14:43:13Z</time></trkpt><trkpt lat="43.00786992848149" lon="12.425961107574546"><ele>166.0</ele><time>2026-05-03T14:43:14Z</time></trkpt><trkpt lat="43.00812246377688" lon="12.425956913156147"><ele>166.0</ele><time>2026-05-03T14:43:15Z</time></trkpt><trkpt lat="43.008360234827705" lon="12.425947613858748"><ele>165.5</ele><time>2026-05-03T14:43:16Z</time></trkpt><trkpt lat="43.008603618773606" lon="12.425948760659082"><ele>165.0</ele><time>2026-05-03T14:43:17Z</time></trkpt><trkpt lat="43.008850398027164" lon="12.425943675569448"><ele>165.0</ele><time>2026-05-03T14:43:18Z</time></trkpt><trkpt lat="43.00909346490953" lon="12.42593900365774"><ele>165.0</ele><time>2026-05-03T14:43:19Z</time></trkpt><trkpt lat="43.00932912612127" lon="12.425937209989"><ele>164.5</ele><time>2026-05-03T14:43:20Z</time></trkpt><trkpt lat="43.00957085380749" lon="12.425943013663815"><ele>164.0</ele><time>2026-05-03T14:43:21Z</time></trkpt><trkpt lat="43.009798223741065" lon="12.425940958680158"><ele>164.5</ele><time>2026-05-03T14:43:22Z</time></trkpt><trkpt lat="43.01001925411311" lon="12.425923122072119"><ele>165.0</ele><time>2026-05-03T14:43:23Z</time></trkpt><trkpt lat="43.0102475083235" lon="12.425928497594377"><ele>165.0</ele><time>2026-05-03T14:43:24Z</time></trkpt><trkpt lat="43.01048530714555" lon="12.425928838796274"><ele>165.0</ele><time>2026-05-03T14:43:25Z</time></trkpt><trkpt lat="43.010717197015424" lon="12.425925592550545"><ele>166.0</ele><time>2026-05-03T14:43:26Z</time></trkpt><trkpt lat="43.010956157733034" lon="12.425923792195693"><ele>167.0</ele><time>2026-05-03T14:43:27Z</time></trkpt><trkpt lat="43.01119170828252" lon="12.425925384784968"><ele>167.0</ele><time>2026-05-03T14:43:28Z</time></trkpt><trkpt lat="43.011379133354275" lon="12.425917435538903"><ele>167.0</ele><time>2026-05-03T14:43:29Z</time></trkpt><trkpt lat="43.011579460764175" lon="12.42591293970041"><ele>167.0</ele><time>2026-05-03T14:43:30Z</time></trkpt><trkpt lat="43.01174601219313" lon="12.425901601505407"><ele>167.25</ele><time>2026-05-03T14:43:31Z</time></trkpt><trkpt lat="43.01189598551375" lon="12.425875587610326"><ele>167.5</ele><time>2026-05-03T14:43:32Z</time></trkpt><trkpt lat="43.01203621636103" lon="12.425851352791579"><ele>167.75</ele><time>2026-05-03T14:43:33Z</time></trkpt><trkpt lat="43.01217108518541" lon="12.42582536675174"><ele>168.0</ele><time>2026-05-03T14:43:34Z</time></trkpt><trkpt lat="43.012282611385615" lon="12.42580287607221"><ele>168.0</ele><time>2026-05-03T14:43:35Z</time></trkpt><trkpt lat="43.01239018107934" lon="12.425773288489497"><ele>168.0</ele><time>2026-05-03T14:43:36Z</time></trkpt><trkpt lat="43.01248989058633" lon="12.425734675789267"><ele>168.0</ele><time>2026-05-03T14:43:37Z</time></trkpt><trkpt lat="43.01259411688324" lon="12.425693564711917"><ele>168.0</ele><time>2026-05-03T14:43:38Z</time></trkpt><trkpt lat="43.012693945577965" lon="12.425649007700095"><ele>168.0</ele><time>2026-05-03T14:43:39Z</time></trkpt><trkpt lat="43.01279005636896" lon="12.425610968783696"><ele>168.2</ele><time>2026-05-03T14:43:40Z</time></trkpt><trkpt lat="43.012885301760164" lon="12.425578345673673"><ele>168.4</ele><time>2026-05-03T14:43:41Z</time></trkpt><trkpt lat="43.01297727237901" lon="12.425540917818168"><ele>168.6</ele><time>2026-05-03T14:43:42Z</time></trkpt><trkpt lat="43.01306675107343" lon="12.425504286485866"><ele>168.79999999999998</ele><time>2026-05-03T14:43:43Z</time></trkpt><trkpt lat="43.013152262787926" lon="12.425462770843922"><ele>169.0</ele><time>2026-05-03T14:43:44Z</time></trkpt><trkpt lat="43.01323493064328" lon="12.425419376066614"><ele>169.0</ele><time>2026-05-03T14:43:45Z</time></trkpt><trkpt lat="43.013314064802216" lon="12.425374959361084"><ele>169.0</ele><time>2026-05-03T14:43:46Z</time></trkpt><trkpt lat="43.013390813175796" lon="12.425335046282239"><ele>169.0</ele><time>2026-05-03T14:43:47Z</time></trkpt><trkpt lat="43.01346758279051" lon="12.425294119535916"><ele>169.0</ele><time>2026-05-03T14:43:48Z</time></trkpt><trkpt lat="43.013540228436256" lon="12.425252049720914"><ele>169.0</ele><time>2026-05-03T14:43:49Z</time></trkpt><trkpt lat="43.01361072988571" lon="12.425207707563118"><ele>169.0</ele><time>2026-05-03T14:43:50Z</time></trkpt><trkpt lat="43.01367520084342" lon="12.425166783641405"><ele>169.0</ele><time>2026-05-03T14:43:51Z</time></trkpt><trkpt lat="43.013757924050104" lon="12.425111880698202"><ele>169.0</ele><time>2026-05-03T14:43:53Z</time></trkpt><trkpt lat="43.01382841036825" lon="12.425066151629197"><ele>169.0</ele><time>2026-05-03T14:43:55Z</time></trkpt><trkpt lat="43.0138987546691" lon="12.42502665191363"><ele>169.0</ele><time>2026-05-03T14:43:58Z</time></trkpt><trkpt lat="43.013961610919054" lon="12.424987948869074"><ele>169.0</ele><time>2026-05-03T14:44:01Z</time></trkpt><trkpt lat="43.01402632877908" lon="12.4249367412808"><ele>169.0</ele><time>2026-05-03T14:44:05Z</time></trkpt><trkpt lat="43.01408814644989" lon="12.42490206329605"><ele>169.0</ele><time>2026-05-03T14:44:09Z</time></trkpt><trkpt lat="43.014147615622456" lon="12.424855676625127"><ele>169.0</ele><time>2026-05-03T14:44:13Z</time></trkpt><trkpt lat="43.01419803743379" lon="12.424801084113177"><ele>169.0</ele><time>2026-05-03T14:44:15Z</time></trkpt><trkpt lat="43.01427438002915" lon="12.424732252001638"><ele>169.0</ele><time>2026-05-03T14:44:18Z</time></trkpt><trkpt lat="43.01433027445883" lon="12.424682254903988"><ele>169.0</ele><time>2026-05-03T14:44:20Z</time></trkpt><trkpt lat="43.01441300551359" lon="12.424606821947402"><ele>169.0</ele><time>2026-05-03T14:44:22Z</time></trkpt><trkpt lat="43.0145066739127" lon="12.424519243045062"><ele>168.6</ele><time>2026-05-03T14:44:24Z</time></trkpt><trkpt lat="43.01460594047765" lon="12.424428219765666"><ele>168.2</ele><time>2026-05-03T14:44:26Z</time></trkpt><trkpt lat="43.014694717761486" lon="12.424337347250402"><ele>167.79999999999998</ele><time>2026-05-03T14:44:27.999Z</time></trkpt><trkpt lat="43.014773760479926" lon="12.42425077392427"><ele>167.39999999999998</ele><time>2026-05-03T14:44:29.999Z</time></trkpt><trkpt lat="43.01484610975898" lon="12.424175492639414"><ele>167.0</ele><time>2026-05-03T14:44:31.999Z</time></trkpt><trkpt lat="43.0149058130125" lon="12.424107121733732"><ele>167.0</ele><time>2026-05-03T14:44:34.999Z</time></trkpt><trkpt lat="43.014959701333275" lon="12.424049720707417"><ele>167.0</ele><time>2026-05-03T14:44:38.999Z</time></trkpt><trkpt lat="43.01502197144171" lon="12.423990538035875"><ele>167.0</ele><time>2026-05-03T14:44:42.999Z</time></trkpt><trkpt lat="43.0150845166859" lon="12.42392089189585"><ele>167.0</ele><time>2026-05-03T14:44:45.999Z</time></trkpt><trkpt lat="43.01513733718615" lon="12.423867772590134"><ele>167.0</ele><time>2026-05-03T14:44:47.999Z</time></trkpt><trkpt lat="43.015197376123844" lon="12.423807624244645"><ele>167.0</ele><time>2026-05-03T14:44:49.999Z</time></trkpt><trkpt lat="43.01525925727768" lon="12.423750317987196"><ele>167.0</ele><time>2026-05-03T14:44:51.999Z</time></trkpt><trkpt lat="43.015341338788204" lon="12.423673138787011"><ele>167.39999999999998</ele><time>2026-05-03T14:44:54Z</time></trkpt><trkpt lat="43.01542473403987" lon="12.423584171297314"><ele>167.79999999999998</ele><time>2026-05-03T14:44:56Z</time></trkpt><trkpt lat="43.01549839307984" lon="12.423505804978348"><ele>168.2</ele><time>2026-05-03T14:44:58Z</time></trkpt><trkpt lat="43.015574524424935" lon="12.423427334899849"><ele>168.6</ele><time>2026-05-03T14:45:00Z</time></trkpt><trkpt lat="43.01565608365386" lon="12.423345752431835"><ele>169.0</ele><time>2026-05-03T14:45:02Z</time></trkpt><trkpt lat="43.01574199860074" lon="12.423255131123797"><ele>169.16666666666669</ele><time>2026-05-03T14:45:04Z</time></trkpt><trkpt lat="43.01582381511456" lon="12.423170525638815"><ele>169.33333333333334</ele><time>2026-05-03T14:45:06Z</time></trkpt><trkpt lat="43.01588848024649" lon="12.423105182268735"><ele>169.5</ele><time>2026-05-03T14:45:08Z</time></trkpt><trkpt lat="43.01595316970911" lon="12.423044452148142"><ele>169.66666666666666</ele><time>2026-05-03T14:45:11Z</time></trkpt><trkpt lat="43.01600543017189" lon="12.422986088600844"><ele>169.83333333333331</ele><time>2026-05-03T14:45:16Z</time></trkpt><trkpt lat="43.01607698585348" lon="12.422909773559857"><ele>170.0</ele><time>2026-05-03T14:45:19Z</time></trkpt><trkpt lat="43.0161281182358" lon="12.42285518571184"><ele>170.0</ele><time>2026-05-03T14:45:21Z</time></trkpt><trkpt lat="43.016189245794706" lon="12.422792817499296"><ele>170.0</ele><time>2026-05-03T14:45:24Z</time></trkpt><trkpt lat="43.01623940059086" lon="12.42274054827592"><ele>170.0</ele><time>2026-05-03T14:45:27Z</time></trkpt><trkpt lat="43.01629266816209" lon="12.422679374198907"><ele>170.0</ele><time>2026-05-03T14:45:29Z</time></trkpt><trkpt lat="43.01634415526662" lon="12.422628948267798"><ele>170.0</ele><time>2026-05-03T14:45:31Z</time></trkpt><trkpt lat="43.01641999915397" lon="12.422552757919297"><ele>170.0</ele><time>2026-05-03T14:45:34Z</time></trkpt><trkpt lat="43.0164755585472" lon="12.422505555599196"><ele>170.0</ele><time>2026-05-03T14:45:36Z</time></trkpt><trkpt lat="43.016536601077625" lon="12.422428456571883"><ele>170.0</ele><time>2026-05-03T14:45:38Z</time></trkpt><trkpt lat="43.01661147965034" lon="12.422339024550155"><ele>170.0</ele><time>2026-05-03T14:45:40Z</time></trkpt><trkpt lat="43.01667938771684" lon="12.422270994149022"><ele>170.0</ele><time>2026-05-03T14:45:42Z</time></trkpt><trkpt lat="43.016747959225654" lon="12.422193049346786"><ele>170.0</ele><time>2026-05-03T14:45:44Z</time></trkpt><trkpt lat="43.016840287929824" lon="12.422083284356667"><ele>170.0</ele><time>2026-05-03T14:45:46Z</time></trkpt><trkpt lat="43.01689936435326" lon="12.422017237109657"><ele>170.0</ele><time>2026-05-03T14:45:47Z</time></trkpt><trkpt lat="43.016970077647855" lon="12.42194756014753"><ele>170.0</ele><time>2026-05-03T14:45:48Z</time></trkpt><trkpt lat="43.01703911284983" lon="12.421884842262008"><ele>170.0</ele><time>2026-05-03T14:45:49Z</time></trkpt><trkpt lat="43.01710032919389" lon="12.421820592944485"><ele>170.0</ele><time>2026-05-03T14:45:50Z</time></trkpt><trkpt lat="43.01716332318898" lon="12.421741339464178"><ele>170.0</ele><time>2026-05-03T14:45:51Z</time></trkpt><trkpt lat="43.01722910216113" lon="12.42165621621574"><ele>170.0</ele><time>2026-05-03T14:45:52Z</time></trkpt><trkpt lat="43.01729441573506" lon="12.421578455215474"><ele>170.0</ele><time>2026-05-03T14:45:53Z</time></trkpt><trkpt lat="43.01735720046029" lon="12.421507019520655"><ele>170.0</ele><time>2026-05-03T14:45:54Z</time></trkpt><trkpt lat="43.01741391240427" lon="12.421438891082985"><ele>170.0</ele><time>2026-05-03T14:45:55Z</time></trkpt><trkpt lat="43.01746598489807" lon="12.421369380983634"><ele>170.0</ele><time>2026-05-03T14:45:56Z</time></trkpt><trkpt lat="43.01751669035036" lon="12.421297954454602"><ele>170.0</ele><time>2026-05-03T14:45:57Z</time></trkpt><trkpt lat="43.01756782944033" lon="12.421226965575608"><ele>170.0</ele><time>2026-05-03T14:45:58Z</time></trkpt><trkpt lat="43.01761912580933" lon="12.42115983299158"><ele>170.0</ele><time>2026-05-03T14:45:59Z</time></trkpt><trkpt lat="43.01767230856509" lon="12.421091476057214"><ele>170.14285714285714</ele><time>2026-05-03T14:46:00Z</time></trkpt><trkpt lat="43.01772863819253" lon="12.421021443898347"><ele>170.28571428571428</ele><time>2026-05-03T14:46:01Z</time></trkpt><trkpt lat="43.01778611835083" lon="12.420949815150239"><ele>170.42857142857142</ele><time>2026-05-03T14:46:02Z</time></trkpt><trkpt lat="43.01783940831141" lon="12.420881068926434"><ele>170.57142857142856</ele><time>2026-05-03T14:46:03Z</time></trkpt><trkpt lat="43.01789125655069" lon="12.420812167851004"><ele>170.71428571428572</ele><time>2026-05-03T14:46:04Z</time></trkpt><trkpt lat="43.01794067993717" lon="12.4207473187444"><ele>170.85714285714283</ele><time>2026-05-03T14:46:05Z</time></trkpt><trkpt lat="43.017985910943544" lon="12.420685690561907"><ele>171.0</ele><time>2026-05-03T14:46:06Z</time></trkpt><trkpt lat="43.01806782071838" lon="12.420574181905"><ele>171.0</ele><time>2026-05-03T14:46:08Z</time></trkpt><trkpt lat="43.01814275409549" lon="12.42046945006508"><ele>171.0</ele><time>2026-05-03T14:46:10Z</time></trkpt><trkpt lat="43.01821786470683" lon="12.42037906448675"><ele>171.0</ele><time>2026-05-03T14:46:12Z</time></trkpt><trkpt lat="43.018284906746665" lon="12.420298727127845"><ele>171.0</ele><time>2026-05-03T14:46:14Z</time></trkpt><trkpt lat="43.018336954261166" lon="12.420225106266932"><ele>171.0</ele><time>2026-05-03T14:46:16Z</time></trkpt><trkpt lat="43.01838416068152" lon="12.420164203156622"><ele>171.0</ele><time>2026-05-03T14:46:18Z</time></trkpt><trkpt lat="43.018436171455086" lon="12.42010954759515"><ele>170.83333333333334</ele><time>2026-05-03T14:46:20Z</time></trkpt><trkpt lat="43.01848197013457" lon="12.420046837267378"><ele>170.66666666666666</ele><time>2026-05-03T14:46:22Z</time></trkpt><trkpt lat="43.01852248179398" lon="12.419975425568657"><ele>170.5</ele><time>2026-05-03T14:46:24Z</time></trkpt><trkpt lat="43.01857270780421" lon="12.419905325803992"><ele>170.33333333333331</ele><time>2026-05-03T14:46:27Z</time></trkpt><trkpt lat="43.01863123812502" lon="12.41983505407319"><ele>170.16666666666666</ele><time>2026-05-03T14:46:29Z</time></trkpt><trkpt lat="43.01871249625817" lon="12.419722790851122"><ele>170.0</ele><time>2026-05-03T14:46:31Z</time></trkpt><trkpt lat="43.018760252072596" lon="12.419652737606684"><ele>170.16666666666666</ele><time>2026-05-03T14:46:32Z</time></trkpt><trkpt lat="43.01881336654941" lon="12.419576878523124"><ele>170.33333333333331</ele><time>2026-05-03T14:46:33Z</time></trkpt><trkpt lat="43.018869052109444" lon="12.419494089471092"><ele>170.5</ele><time>2026-05-03T14:46:34Z</time></trkpt><trkpt lat="43.018927066438046" lon="12.41940961407041"><ele>170.66666666666666</ele><time>2026-05-03T14:46:35Z</time></trkpt><trkpt lat="43.01898432538922" lon="12.419322794660825"><ele>170.83333333333334</ele><time>2026-05-03T14:46:36Z</time></trkpt><trkpt lat="43.01904151052454" lon="12.41923163769359"><ele>171.0</ele><time>2026-05-03T14:46:37Z</time></trkpt><trkpt lat="43.01909130208972" lon="12.41915794116531"><ele>171.0</ele><time>2026-05-03T14:46:38Z</time></trkpt><trkpt lat="43.01914573837718" lon="12.41907604215049"><ele>171.0</ele><time>2026-05-03T14:46:39Z</time></trkpt><trkpt lat="43.0191971363265" lon="12.41900302266214"><ele>171.0</ele><time>2026-05-03T14:46:40Z</time></trkpt><trkpt lat="43.01924618040459" lon="12.418928698695524"><ele>171.0</ele><time>2026-05-03T14:46:41Z</time></trkpt><trkpt lat="43.01929755060083" lon="12.418852761550703"><ele>171.0</ele><time>2026-05-03T14:46:42Z</time></trkpt><trkpt lat="43.019351320525104" lon="12.418771397319878"><ele>171.0</ele><time>2026-05-03T14:46:43Z</time></trkpt><trkpt lat="43.01940917848346" lon="12.41868626479467"><ele>170.66666666666666</ele><time>2026-05-03T14:46:44Z</time></trkpt><trkpt lat="43.01946705756929" lon="12.418600805025928"><ele>170.33333333333334</ele><time>2026-05-03T14:46:45Z</time></trkpt><trkpt lat="43.019524180570635" lon="12.41851489908138"><ele>170.0</ele><time>2026-05-03T14:46:46Z</time></trkpt><trkpt lat="43.019577074260575" lon="12.418430757661797"><ele>169.66666666666669</ele><time>2026-05-03T14:46:47Z</time></trkpt><trkpt lat="43.019624517297494" lon="12.418358908014357"><ele>169.33333333333334</ele><time>2026-05-03T14:46:48Z</time></trkpt><trkpt lat="43.01969741978266" lon="12.418253849048252"><ele>169.0</ele><time>2026-05-03T14:46:50Z</time></trkpt><trkpt lat="43.019774416117734" lon="12.418124060195744"><ele>169.0</ele><time>2026-05-03T14:46:52Z</time></trkpt><trkpt lat="43.01981726955793" lon="12.418044807104792"><ele>169.0</ele><time>2026-05-03T14:46:53Z</time></trkpt><trkpt lat="43.01986664684672" lon="12.417956753483296"><ele>169.0</ele><time>2026-05-03T14:46:54Z</time></trkpt><trkpt lat="43.01992656978047" lon="12.41786349237607"><ele>169.0</ele><time>2026-05-03T14:46:55Z</time></trkpt><trkpt lat="43.01999249088338" lon="12.417773554815138"><ele>169.0</ele><time>2026-05-03T14:46:56Z</time></trkpt><trkpt lat="43.020058656018584" lon="12.417682375424178"><ele>169.0</ele><time>2026-05-03T14:46:57Z</time></trkpt><trkpt lat="43.0201232886758" lon="12.417588934537541"><ele>169.39999999999998</ele><time>2026-05-03T14:46:57.999Z</time></trkpt><trkpt lat="43.02018730641353" lon="12.417493982143576"><ele>169.8</ele><time>2026-05-03T14:46:59Z</time></trkpt><trkpt lat="43.02025138871551" lon="12.41740206557625"><ele>170.2</ele><time>2026-05-03T14:47:00Z</time></trkpt><trkpt lat="43.02031849094475" lon="12.417299573305062"><ele>170.60000000000002</ele><time>2026-05-03T14:47:01Z</time></trkpt><trkpt lat="43.02038603450983" lon="12.417198768193614"><ele>171.0</ele><time>2026-05-03T14:47:02Z</time></trkpt><trkpt lat="43.02045935107581" lon="12.417091112623735"><ele>171.0</ele><time>2026-05-03T14:47:03Z</time></trkpt><trkpt lat="43.020535848723384" lon="12.416976070621155"><ele>171.0</ele><time>2026-05-03T14:47:04Z</time></trkpt><trkpt lat="43.02061608377798" lon="12.416856891230083"><ele>171.0</ele><time>2026-05-03T14:47:05Z</time></trkpt><trkpt lat="43.02070036992444" lon="12.416734330373536"><ele>171.0</ele><time>2026-05-03T14:47:06Z</time></trkpt><trkpt lat="43.02078764813323" lon="12.416607957604231"><ele>171.0</ele><time>2026-05-03T14:47:07Z</time></trkpt><trkpt lat="43.02087628951263" lon="12.416479121211077"><ele>171.0</ele><time>2026-05-03T14:47:08Z</time></trkpt><trkpt lat="43.02096535801364" lon="12.416349285180555"><ele>171.0</ele><time>2026-05-03T14:47:09Z</time></trkpt><trkpt lat="43.0210541109749" lon="12.416219328685477"><ele>171.0</ele><time>2026-05-03T14:47:10Z</time></trkpt><trkpt lat="43.021143505144146" lon="12.416089677863686"><ele>170.5</ele><time>2026-05-03T14:47:11Z</time></trkpt><trkpt lat="43.0212336208075" lon="12.415958585465265"><ele>170.0</ele><time>2026-05-03T14:47:12Z</time></trkpt><trkpt lat="43.02132504247359" lon="12.415826283930363"><ele>169.5</ele><time>2026-05-03T14:47:13Z</time></trkpt><trkpt lat="43.02142056181874" lon="12.415694730063317"><ele>169.0</ele><time>2026-05-03T14:47:14Z</time></trkpt><trkpt lat="43.021525239812604" lon="12.415565858258152"><ele>169.5</ele><time>2026-05-03T14:47:15Z</time></trkpt><trkpt lat="43.021633194689095" lon="12.415432461042764"><ele>170.0</ele><time>2026-05-03T14:47:16Z</time></trkpt><trkpt lat="43.02174316149602" lon="12.415306034442095"><ele>170.5</ele><time>2026-05-03T14:47:17Z</time></trkpt><trkpt lat="43.02186179474427" lon="12.41517946060159"><ele>171.0</ele><time>2026-05-03T14:47:18Z</time></trkpt><trkpt lat="43.02198396595546" lon="12.415055905828915"><ele>171.0</ele><time>2026-05-03T14:47:19Z</time></trkpt><trkpt lat="43.02210924184924" lon="12.414936858205154"><ele>171.0</ele><time>2026-05-03T14:47:20Z</time></trkpt><trkpt lat="43.02223840425269" lon="12.414824399656103"><ele>171.0</ele><time>2026-05-03T14:47:21Z</time></trkpt><trkpt lat="43.02237212872648" lon="12.41471612925019"><ele>171.0</ele><time>2026-05-03T14:47:22Z</time></trkpt><trkpt lat="43.022509569459416" lon="12.41461078567148"><ele>171.0</ele><time>2026-05-03T14:47:23Z</time></trkpt><trkpt lat="43.02265265511362" lon="12.414508149361206"><ele>171.0</ele><time>2026-05-03T14:47:24Z</time></trkpt><trkpt lat="43.02280099496325" lon="12.414408507151741"><ele>171.0</ele><time>2026-05-03T14:47:25Z</time></trkpt><trkpt lat="43.022952509526725" lon="12.414310522181555"><ele>171.0</ele><time>2026-05-03T14:47:26Z</time></trkpt><trkpt lat="43.02310471636005" lon="12.414220154405186"><ele>171.0</ele><time>2026-05-03T14:47:27Z</time></trkpt><trkpt lat="43.02326813344467" lon="12.414138360793295"><ele>170.66666666666666</ele><time>2026-05-03T14:47:28Z</time></trkpt><trkpt lat="43.02343519418569" lon="12.414064087081616"><ele>170.33333333333331</ele><time>2026-05-03T14:47:29Z</time></trkpt><trkpt lat="43.023604275334726" lon="12.413999747549177"><ele>170.0</ele><time>2026-05-03T14:47:30Z</time></trkpt><trkpt lat="43.02377755840985" lon="12.413941921823103"><ele>170.0</ele><time>2026-05-03T14:47:31Z</time></trkpt><trkpt lat="43.02395211997284" lon="12.41389024561357"><ele>170.0</ele><time>2026-05-03T14:47:32Z</time></trkpt><trkpt lat="43.02412563264428" lon="12.413846523966281"><ele>170.0</ele><time>2026-05-03T14:47:33Z</time></trkpt><trkpt lat="43.02430127988969" lon="12.413811542671349"><ele>170.0</ele><time>2026-05-03T14:47:34Z</time></trkpt><trkpt lat="43.02447334605904" lon="12.413776868289323"><ele>170.0</ele><time>2026-05-03T14:47:35Z</time></trkpt><trkpt lat="43.02464756299121" lon="12.413744941932755"><ele>170.0</ele><time>2026-05-03T14:47:36Z</time></trkpt><trkpt lat="43.024820641153966" lon="12.413703426845379"><ele>170.66666666666666</ele><time>2026-05-03T14:47:37Z</time></trkpt><trkpt lat="43.024985933372385" lon="12.41366542323114"><ele>171.33333333333334</ele><time>2026-05-03T14:47:38Z</time></trkpt><trkpt lat="43.02513784416759" lon="12.413630374678785"><ele>172.0</ele><time>2026-05-03T14:47:39Z</time></trkpt><trkpt lat="43.02528576846447" lon="12.413592473718676"><ele>172.0</ele><time>2026-05-03T14:47:40Z</time></trkpt><trkpt lat="43.02543842774691" lon="12.413561076735975"><ele>172.0</ele><time>2026-05-03T14:47:41Z</time></trkpt><trkpt lat="43.02559264294519" lon="12.413529523761937"><ele>172.0</ele><time>2026-05-03T14:47:42Z</time></trkpt><trkpt lat="43.025747066858" lon="12.413492235861161"><ele>171.33333333333334</ele><time>2026-05-03T14:47:43Z</time></trkpt><trkpt lat="43.02590166073613" lon="12.413456804897208"><ele>170.66666666666666</ele><time>2026-05-03T14:47:44Z</time></trkpt><trkpt lat="43.02605882320223" lon="12.413419052342674"><ele>170.0</ele><time>2026-05-03T14:47:45Z</time></trkpt><trkpt lat="43.02622116177759" lon="12.413386343865946"><ele>170.0</ele><time>2026-05-03T14:47:46Z</time></trkpt><trkpt lat="43.02638598630533" lon="12.413359703658921"><ele>170.0</ele><time>2026-05-03T14:47:47Z</time></trkpt><trkpt lat="43.02655270853901" lon="12.41332100939569"><ele>170.0</ele><time>2026-05-03T14:47:48Z</time></trkpt><trkpt lat="43.02670960051408" lon="12.413282703874547"><ele>170.0</ele><time>2026-05-03T14:47:49Z</time></trkpt><trkpt lat="43.02686075774513" lon="12.413236387116045"><ele>170.0</ele><time>2026-05-03T14:47:50Z</time></trkpt><trkpt lat="43.02701875523799" lon="12.413200292140754"><ele>170.0</ele><time>2026-05-03T14:47:51Z</time></trkpt><trkpt lat="43.02717673800634" lon="12.41316202802011"><ele>170.0</ele><time>2026-05-03T14:47:52Z</time></trkpt><trkpt lat="43.02733623986121" lon="12.41312306955828"><ele>170.0</ele><time>2026-05-03T14:47:53Z</time></trkpt><trkpt lat="43.02749894908456" lon="12.41308363088311"><ele>170.0</ele><time>2026-05-03T14:47:54Z</time></trkpt><trkpt lat="43.02766449902393" lon="12.413048922032116"><ele>170.33333333333331</ele><time>2026-05-03T14:47:55Z</time></trkpt><trkpt lat="43.02782642099521" lon="12.413016930362827"><ele>170.66666666666666</ele><time>2026-05-03T14:47:56Z</time></trkpt><trkpt lat="43.027985649467766" lon="12.412980982899882"><ele>171.0</ele><time>2026-05-03T14:47:57Z</time></trkpt><trkpt lat="43.02815097239131" lon="12.412942103370638"><ele>170.33333333333334</ele><time>2026-05-03T14:47:58Z</time></trkpt><trkpt lat="43.028303139831806" lon="12.4129062396843"><ele>169.66666666666669</ele><time>2026-05-03T14:47:59Z</time></trkpt><trkpt lat="43.02846372536429" lon="12.412867147133333"><ele>169.0</ele><time>2026-05-03T14:48:00Z</time></trkpt><trkpt lat="43.02862992773307" lon="12.412832978390805"><ele>170.33333333333334</ele><time>2026-05-03T14:48:01Z</time></trkpt><trkpt lat="43.02878639987449" lon="12.412793760556152"><ele>171.66666666666666</ele><time>2026-05-03T14:48:02Z</time></trkpt><trkpt lat="43.02893282491122" lon="12.412759924512528"><ele>173.0</ele><time>2026-05-03T14:48:03Z</time></trkpt><trkpt lat="43.02907876055324" lon="12.412731001325772"><ele>173.0</ele><time>2026-05-03T14:48:04Z</time></trkpt><trkpt lat="43.02922531454387" lon="12.41270216624681"><ele>173.0</ele><time>2026-05-03T14:48:05Z</time></trkpt><trkpt lat="43.02937089364623" lon="12.41266844128871"><ele>173.0</ele><time>2026-05-03T14:48:06Z</time></trkpt><trkpt lat="43.029515417240624" lon="12.412635285790222"><ele>173.0</ele><time>2026-05-03T14:48:07Z</time></trkpt><trkpt lat="43.02966473367487" lon="12.412598972535957"><ele>173.0</ele><time>2026-05-03T14:48:08Z</time></trkpt><trkpt lat="43.02981507489124" lon="12.412569938581003"><ele>173.0</ele><time>2026-05-03T14:48:09Z</time></trkpt><trkpt lat="43.029964013779406" lon="12.412529858530263"><ele>173.0</ele><time>2026-05-03T14:48:10Z</time></trkpt><trkpt lat="43.030115951910894" lon="12.412498681039754"><ele>173.0</ele><time>2026-05-03T14:48:11Z</time></trkpt><trkpt lat="43.03026939510937" lon="12.41246762263629"><ele>173.0</ele><time>2026-05-03T14:48:12Z</time></trkpt><trkpt lat="43.03042441054171" lon="12.41243174638195"><ele>173.0</ele><time>2026-05-03T14:48:13Z</time></trkpt><trkpt lat="43.03057872510502" lon="12.412393439779738"><ele>173.0</ele><time>2026-05-03T14:48:14Z</time></trkpt><trkpt lat="43.03073497945884" lon="12.412357494182743"><ele>173.0</ele><time>2026-05-03T14:48:15Z</time></trkpt><trkpt lat="43.030892523815915" lon="12.412318256234377"><ele>173.0</ele><time>2026-05-03T14:48:16Z</time></trkpt><trkpt lat="43.03104771193019" lon="12.412283917183846"><ele>172.0</ele><time>2026-05-03T14:48:17Z</time></trkpt><trkpt lat="43.03120424337379" lon="12.412250412114448"><ele>171.0</ele><time>2026-05-03T14:48:17.999Z</time></trkpt><trkpt lat="43.03136328771641" lon="12.412217979977486"><ele>170.0</ele><time>2026-05-03T14:48:18.999Z</time></trkpt><trkpt lat="43.03152408636573" lon="12.412185135652294"><ele>170.0</ele><time>2026-05-03T14:48:19.999Z</time></trkpt><trkpt lat="43.03168712471523" lon="12.4121477544744"><ele>170.0</ele><time>2026-05-03T14:48:20.999Z</time></trkpt><trkpt lat="43.03185264976672" lon="12.412108249553516"><ele>170.0</ele><time>2026-05-03T14:48:21.999Z</time></trkpt><trkpt lat="43.03201850044552" lon="12.41206564691682"><ele>170.0</ele><time>2026-05-03T14:48:22.999Z</time></trkpt><trkpt lat="43.03218431896202" lon="12.4120276653571"><ele>170.0</ele><time>2026-05-03T14:48:23.999Z</time></trkpt><trkpt lat="43.0323575168674" lon="12.41199097704234"><ele>170.0</ele><time>2026-05-03T14:48:24.999Z</time></trkpt><trkpt lat="43.032534038515756" lon="12.41195474831289"><ele>171.0</ele><time>2026-05-03T14:48:25.999Z</time></trkpt><trkpt lat="43.032714995049744" lon="12.411915267218937"><ele>172.0</ele><time>2026-05-03T14:48:26.999Z</time></trkpt><trkpt lat="43.03290364115736" lon="12.411873833875623"><ele>173.0</ele><time>2026-05-03T14:48:27.999Z</time></trkpt><trkpt lat="43.03308481761765" lon="12.411821514414607"><ele>173.0</ele><time>2026-05-03T14:48:28.999Z</time></trkpt><trkpt lat="43.033272793803675" lon="12.411787483742977"><ele>173.0</ele><time>2026-05-03T14:48:29.999Z</time></trkpt><trkpt lat="43.03346628528913" lon="12.411743861679776"><ele>173.0</ele><time>2026-05-03T14:48:30.999Z</time></trkpt><trkpt lat="43.033663952646314" lon="12.411704929050392"><ele>173.0</ele><time>2026-05-03T14:48:31.999Z</time></trkpt><trkpt lat="43.033861955996876" lon="12.411663215096866"><ele>173.0</ele><time>2026-05-03T14:48:32.999Z</time></trkpt><trkpt lat="43.03405945423582" lon="12.41162117163833"><ele>173.0</ele><time>2026-05-03T14:48:33.999Z</time></trkpt><trkpt lat="43.0342572117274" lon="12.411578482421453"><ele>173.33333333333331</ele><time>2026-05-03T14:48:34.999Z</time></trkpt><trkpt lat="43.03445545791958" lon="12.411534715287129"><ele>173.66666666666666</ele><time>2026-05-03T14:48:35.999Z</time></trkpt><trkpt lat="43.03465276725835" lon="12.41149080448101"><ele>174.0</ele><time>2026-05-03T14:48:36.999Z</time></trkpt><trkpt lat="43.03484620614883" lon="12.411449826287031"><ele>174.0</ele><time>2026-05-03T14:48:37.999Z</time></trkpt><trkpt lat="43.035035794549664" lon="12.411412428007466"><ele>174.0</ele><time>2026-05-03T14:48:38.999Z</time></trkpt><trkpt lat="43.03522609495231" lon="12.411376377215676"><ele>174.0</ele><time>2026-05-03T14:48:39.999Z</time></trkpt><trkpt lat="43.03541678102166" lon="12.411336479569764"><ele>174.33333333333334</ele><time>2026-05-03T14:48:40.999Z</time></trkpt><trkpt lat="43.035609340237876" lon="12.41129297728023"><ele>174.66666666666669</ele><time>2026-05-03T14:48:41.999Z</time></trkpt><trkpt lat="43.035800785024" lon="12.411244228161054"><ele>175.0</ele><time>2026-05-03T14:48:42.999Z</time></trkpt><trkpt lat="43.03599750278419" lon="12.4111938385973"><ele>175.33333333333334</ele><time>2026-05-03T14:48:43.999Z</time></trkpt><trkpt lat="43.036195587856845" lon="12.411147421077127"><ele>175.66666666666666</ele><time>2026-05-03T14:48:44.999Z</time></trkpt><trkpt lat="43.03639076791483" lon="12.411104188648011"><ele>176.0</ele><time>2026-05-03T14:48:45.999Z</time></trkpt><trkpt lat="43.03658607841614" lon="12.411060694331695"><ele>176.0</ele><time>2026-05-03T14:48:46.999Z</time></trkpt><trkpt lat="43.03677984526656" lon="12.411017484417332"><ele>176.0</ele><time>2026-05-03T14:48:47.999Z</time></trkpt><trkpt lat="43.03696932964433" lon="12.410972660481157"><ele>176.0</ele><time>2026-05-03T14:48:48.999Z</time></trkpt><trkpt lat="43.037151042764144" lon="12.410930108508323"><ele>176.0</ele><time>2026-05-03T14:48:49.999Z</time></trkpt><trkpt lat="43.03733348002453" lon="12.410877505519197"><ele>176.0</ele><time>2026-05-03T14:48:50.999Z</time></trkpt><trkpt lat="43.03751601375158" lon="12.410824077196741"><ele>176.0</ele><time>2026-05-03T14:48:51.999Z</time></trkpt><trkpt lat="43.03770218956941" lon="12.410777166286412"><ele>175.66666666666666</ele><time>2026-05-03T14:48:52.999Z</time></trkpt><trkpt lat="43.037884402611304" lon="12.41073015484008"><ele>175.33333333333334</ele><time>2026-05-03T14:48:53.999Z</time></trkpt><trkpt lat="43.03806910322035" lon="12.410679899178357"><ele>175.0</ele><time>2026-05-03T14:48:54.999Z</time></trkpt><trkpt lat="43.03824947116215" lon="12.410629494473932"><ele>175.0</ele><time>2026-05-03T14:48:55.999Z</time></trkpt><trkpt lat="43.03843360265326" lon="12.410578839551263"><ele>175.0</ele><time>2026-05-03T14:48:56.999Z</time></trkpt><trkpt lat="43.0386174856306" lon="12.41052732701341"><ele>175.0</ele><time>2026-05-03T14:48:57.999Z</time></trkpt><trkpt lat="43.038799746704676" lon="12.410476955675486"><ele>175.0</ele><time>2026-05-03T14:48:58.999Z</time></trkpt><trkpt lat="43.03897213530571" lon="12.410430036090997"><ele>175.0</ele><time>2026-05-03T14:48:59.999Z</time></trkpt><trkpt lat="43.03913103959464" lon="12.41038638138696"><ele>175.0</ele><time>2026-05-03T14:49:00.999Z</time></trkpt><trkpt lat="43.03929128653352" lon="12.410342945336478"><ele>174.66666666666669</ele><time>2026-05-03T14:49:01.999Z</time></trkpt><trkpt lat="43.03944768930983" lon="12.41030221692014"><ele>174.33333333333334</ele><time>2026-05-03T14:49:02.999Z</time></trkpt><trkpt lat="43.039608300053075" lon="12.410261491804336"><ele>174.0</ele><time>2026-05-03T14:49:03.999Z</time></trkpt><trkpt lat="43.03976817949082" lon="12.410223334135939"><ele>174.0</ele><time>2026-05-03T14:49:05Z</time></trkpt><trkpt lat="43.03992882563062" lon="12.410180498952588"><ele>174.0</ele><time>2026-05-03T14:49:06Z</time></trkpt><trkpt lat="43.04009144316179" lon="12.410136997417272"><ele>174.0</ele><time>2026-05-03T14:49:07Z</time></trkpt><trkpt lat="43.040258665948144" lon="12.410090170448258"><ele>175.0</ele><time>2026-05-03T14:49:08Z</time></trkpt><trkpt lat="43.04042338379012" lon="12.410046719956073"><ele>176.0</ele><time>2026-05-03T14:49:09Z</time></trkpt><trkpt lat="43.04059285247375" lon="12.41000483167554"><ele>177.0</ele><time>2026-05-03T14:49:10Z</time></trkpt><trkpt lat="43.04076033347256" lon="12.409961001040749"><ele>177.0</ele><time>2026-05-03T14:49:11Z</time></trkpt><trkpt lat="43.04092751367134" lon="12.409917876114148"><ele>177.0</ele><time>2026-05-03T14:49:12Z</time></trkpt><trkpt lat="43.041092335512346" lon="12.409874968536794"><ele>177.0</ele><time>2026-05-03T14:49:13Z</time></trkpt><trkpt lat="43.041261941856675" lon="12.409828561900042"><ele>177.0</ele><time>2026-05-03T14:49:14Z</time></trkpt><trkpt lat="43.04143221068897" lon="12.409781271183478"><ele>177.0</ele><time>2026-05-03T14:49:15Z</time></trkpt><trkpt lat="43.0416033401591" lon="12.40973162418862"><ele>177.0</ele><time>2026-05-03T14:49:16Z</time></trkpt><trkpt lat="43.04177204802741" lon="12.409685714778558"><ele>177.0</ele><time>2026-05-03T14:49:17Z</time></trkpt><trkpt lat="43.04193806608644" lon="12.409645259221268"><ele>177.0</ele><time>2026-05-03T14:49:18Z</time></trkpt><trkpt lat="43.04210294390082" lon="12.409604111878696"><ele>177.0</ele><time>2026-05-03T14:49:19Z</time></trkpt><trkpt lat="43.04226703093234" lon="12.409558291656044"><ele>177.0</ele><time>2026-05-03T14:49:20Z</time></trkpt><trkpt lat="43.04243246411445" lon="12.409505482174902"><ele>177.0</ele><time>2026-05-03T14:49:21Z</time></trkpt><trkpt lat="43.04259905669117" lon="12.409456963558558"><ele>177.0</ele><time>2026-05-03T14:49:22Z</time></trkpt><trkpt lat="43.04276690236895" lon="12.40941369415032"><ele>177.0</ele><time>2026-05-03T14:49:23Z</time></trkpt><trkpt lat="43.04294057954845" lon="12.40936802729431"><ele>177.0</ele><time>2026-05-03T14:49:24Z</time></trkpt><trkpt lat="43.04310990519653" lon="12.409319271551867"><ele>177.0</ele><time>2026-05-03T14:49:25Z</time></trkpt><trkpt lat="43.043282415231076" lon="12.40927321438786"><ele>177.0</ele><time>2026-05-03T14:49:26Z</time></trkpt><trkpt lat="43.043455284378076" lon="12.409226621872333"><ele>177.0</ele><time>2026-05-03T14:49:27Z</time></trkpt><trkpt lat="43.043630130919894" lon="12.409184149469322"><ele>177.0</ele><time>2026-05-03T14:49:28Z</time></trkpt><trkpt lat="43.043803689598455" lon="12.409140854634778"><ele>177.0</ele><time>2026-05-03T14:49:29Z</time></trkpt><trkpt lat="43.043977302223205" lon="12.409093175935757"><ele>177.0</ele><time>2026-05-03T14:49:30Z</time></trkpt><trkpt lat="43.044151361340205" lon="12.409046656666884"><ele>177.0</ele><time>2026-05-03T14:49:31Z</time></trkpt><trkpt lat="43.04432431085805" lon="12.40899736254035"><ele>176.66666666666666</ele><time>2026-05-03T14:49:32Z</time></trkpt><trkpt lat="43.044495636078885" lon="12.408952467352716"><ele>176.33333333333331</ele><time>2026-05-03T14:49:33Z</time></trkpt><trkpt lat="43.044667729254364" lon="12.408907341105516"><ele>176.0</ele><time>2026-05-03T14:49:34Z</time></trkpt><trkpt lat="43.044839617877756" lon="12.408860570247858"><ele>176.66666666666666</ele><time>2026-05-03T14:49:35Z</time></trkpt><trkpt lat="43.045012424171745" lon="12.408816454428793"><ele>177.33333333333334</ele><time>2026-05-03T14:49:36Z</time></trkpt><trkpt lat="43.04518769057518" lon="12.408769971731584"><ele>178.0</ele><time>2026-05-03T14:49:37Z</time></trkpt><trkpt lat="43.045365571874605" lon="12.40872805274546"><ele>178.0</ele><time>2026-05-03T14:49:38Z</time></trkpt><trkpt lat="43.04554316195793" lon="12.408691623757006"><ele>178.0</ele><time>2026-05-03T14:49:39Z</time></trkpt><trkpt lat="43.04572332013184" lon="12.408657261546361"><ele>178.0</ele><time>2026-05-03T14:49:40Z</time></trkpt><trkpt lat="43.04590301414661" lon="12.408624917269293"><ele>177.33333333333334</ele><time>2026-05-03T14:49:41Z</time></trkpt><trkpt lat="43.046085599038385" lon="12.408593331682019"><ele>176.66666666666666</ele><time>2026-05-03T14:49:42Z</time></trkpt><trkpt lat="43.04627241217562" lon="12.408557452658858"><ele>176.0</ele><time>2026-05-03T14:49:43Z</time></trkpt><trkpt lat="43.046457749400616" lon="12.408528137353192"><ele>177.33333333333331</ele><time>2026-05-03T14:49:44Z</time></trkpt><trkpt lat="43.046647648608214" lon="12.408499514079253"><ele>178.66666666666666</ele><time>2026-05-03T14:49:45Z</time></trkpt><trkpt lat="43.04683839254452" lon="12.408479422901099"><ele>180.0</ele><time>2026-05-03T14:49:46Z</time></trkpt><trkpt lat="43.047031522291654" lon="12.408455958685641"><ele>180.0</ele><time>2026-05-03T14:49:47Z</time></trkpt><trkpt lat="43.047232467743726" lon="12.408432683713245"><ele>180.0</ele><time>2026-05-03T14:49:48Z</time></trkpt><trkpt lat="43.0474357070264" lon="12.408416572101983"><ele>180.0</ele><time>2026-05-03T14:49:49Z</time></trkpt><trkpt lat="43.04764111180703" lon="12.408397814784177"><ele>179.33333333333334</ele><time>2026-05-03T14:49:50Z</time></trkpt><trkpt lat="43.047847342442815" lon="12.408382209049151"><ele>178.66666666666669</ele><time>2026-05-03T14:49:51Z</time></trkpt><trkpt lat="43.04805789495393" lon="12.408366735842959"><ele>178.0</ele><time>2026-05-03T14:49:52Z</time></trkpt><trkpt lat="43.048273031680594" lon="12.408350318664965"><ele>177.66666666666669</ele><time>2026-05-03T14:49:53Z</time></trkpt><trkpt lat="43.04848583845629" lon="12.408335053029624"><ele>177.33333333333334</ele><time>2026-05-03T14:49:54Z</time></trkpt><trkpt lat="43.048703406265794" lon="12.408317707331967"><ele>177.0</ele><time>2026-05-03T14:49:55Z</time></trkpt><trkpt lat="43.04891692466572" lon="12.408302740040623"><ele>177.5</ele><time>2026-05-03T14:49:56Z</time></trkpt><trkpt lat="43.04914334190775" lon="12.408285543698975"><ele>178.0</ele><time>2026-05-03T14:49:57Z</time></trkpt><trkpt lat="43.04937402627308" lon="12.408270937450045"><ele>178.0</ele><time>2026-05-03T14:49:58Z</time></trkpt><trkpt lat="43.04959845529278" lon="12.408253128820819"><ele>178.0</ele><time>2026-05-03T14:49:59Z</time></trkpt><trkpt lat="43.04982775009683" lon="12.408233098648623"><ele>178.0</ele><time>2026-05-03T14:50:00Z</time></trkpt><trkpt lat="43.05005506954916" lon="12.408215089174528"><ele>178.0</ele><time>2026-05-03T14:50:01Z</time></trkpt><trkpt lat="43.05028410998563" lon="12.408199093607017"><ele>178.0</ele><time>2026-05-03T14:50:02Z</time></trkpt><trkpt lat="43.05051739701075" lon="12.408179950990545"><ele>178.0</ele><time>2026-05-03T14:50:03Z</time></trkpt><trkpt lat="43.05075149008287" lon="12.40815995102623"><ele>179.0</ele><time>2026-05-03T14:50:04Z</time></trkpt><trkpt lat="43.05099010571376" lon="12.408141569541787"><ele>180.0</ele><time>2026-05-03T14:50:05Z</time></trkpt><trkpt lat="43.051231681069694" lon="12.408127146119154"><ele>180.0</ele><time>2026-05-03T14:50:06Z</time></trkpt><trkpt lat="43.05147760837403" lon="12.408114802343404"><ele>180.0</ele><time>2026-05-03T14:50:07Z</time></trkpt><trkpt lat="43.05172526111415" lon="12.408099379125174"><ele>179.5</ele><time>2026-05-03T14:50:08Z</time></trkpt><trkpt lat="43.05197922182682" lon="12.408081494110995"><ele>179.0</ele><time>2026-05-03T14:50:09Z</time></trkpt><trkpt lat="43.05223540093621" lon="12.408063812081503"><ele>179.0</ele><time>2026-05-03T14:50:10Z</time></trkpt><trkpt lat="43.05249474126945" lon="12.408043461825645"><ele>179.0</ele><time>2026-05-03T14:50:11Z</time></trkpt><trkpt lat="43.05275638475259" lon="12.40801998341874"><ele>179.0</ele><time>2026-05-03T14:50:12Z</time></trkpt><trkpt lat="43.05301544498073" lon="12.407998268504526"><ele>179.0</ele><time>2026-05-03T14:50:13Z</time></trkpt><trkpt lat="43.05327686280772" lon="12.407979966119877"><ele>179.5</ele><time>2026-05-03T14:50:14Z</time></trkpt><trkpt lat="43.053537360580656" lon="12.407964498676488"><ele>180.0</ele><time>2026-05-03T14:50:15Z</time></trkpt><trkpt lat="43.05379575619393" lon="12.407951122147063"><ele>180.0</ele><time>2026-05-03T14:50:16Z</time></trkpt><trkpt lat="43.05405054057287" lon="12.407938649396"><ele>180.0</ele><time>2026-05-03T14:50:17Z</time></trkpt><trkpt lat="43.05430368837048" lon="12.407941463044642"><ele>179.5</ele><time>2026-05-03T14:50:18Z</time></trkpt><trkpt lat="43.054554962241404" lon="12.407970812458982"><ele>179.0</ele><time>2026-05-03T14:50:19Z</time></trkpt><trkpt lat="43.05480360675531" lon="12.408029343013778"><ele>179.0</ele><time>2026-05-03T14:50:20Z</time></trkpt><trkpt lat="43.05505093678209" lon="12.408091635739607"><ele>179.0</ele><time>2026-05-03T14:50:21Z</time></trkpt><trkpt lat="43.0552946766128" lon="12.40816644621114"><ele>179.0</ele><time>2026-05-03T14:50:22Z</time></trkpt><trkpt lat="43.05553063678894" lon="12.408252921260216"><ele>179.0</ele><time>2026-05-03T14:50:23Z</time></trkpt><trkpt lat="43.05576473877953" lon="12.408355460323756"><ele>179.5</ele><time>2026-05-03T14:50:24Z</time></trkpt><trkpt lat="43.05598836723124" lon="12.408471746012365"><ele>180.0</ele><time>2026-05-03T14:50:25Z</time></trkpt><trkpt lat="43.056206286227535" lon="12.40859128658488"><ele>180.0</ele><time>2026-05-03T14:50:26Z</time></trkpt><trkpt lat="43.05642102832446" lon="12.408723384304174"><ele>180.0</ele><time>2026-05-03T14:50:27Z</time></trkpt><trkpt lat="43.05663599006182" lon="12.408852300183929"><ele>180.5</ele><time>2026-05-03T14:50:28Z</time></trkpt><trkpt lat="43.05685640959284" lon="12.408978668483508"><ele>181.0</ele><time>2026-05-03T14:50:29Z</time></trkpt><trkpt lat="43.05707723210121" lon="12.409102502534116"><ele>181.0</ele><time>2026-05-03T14:50:30Z</time></trkpt><trkpt lat="43.05730477305257" lon="12.409227554602177"><ele>181.0</ele><time>2026-05-03T14:50:31Z</time></trkpt><trkpt lat="43.05754320975029" lon="12.409349180107485"><ele>181.0</ele><time>2026-05-03T14:50:32Z</time></trkpt><trkpt lat="43.057789742133025" lon="12.409478850677385"><ele>181.0</ele><time>2026-05-03T14:50:33Z</time></trkpt><trkpt lat="43.05804489149467" lon="12.409615530313275"><ele>180.5</ele><time>2026-05-03T14:50:34Z</time></trkpt><trkpt lat="43.05830357755174" lon="12.409757907388343"><ele>180.0</ele><time>2026-05-03T14:50:35Z</time></trkpt><trkpt lat="43.0585619835761" lon="12.409903255876342"><ele>180.0</ele><time>2026-05-03T14:50:36Z</time></trkpt><trkpt lat="43.05882056127903" lon="12.410057287046246"><ele>180.0</ele><time>2026-05-03T14:50:37Z</time></trkpt><trkpt lat="43.05908914493907" lon="12.410206622862935"><ele>180.0</ele><time>2026-05-03T14:50:38Z</time></trkpt><trkpt lat="43.05935639370629" lon="12.410363163244634"><ele>180.0</ele><time>2026-05-03T14:50:39Z</time></trkpt><trkpt lat="43.059634478581536" lon="12.410520913854855"><ele>180.0</ele><time>2026-05-03T14:50:40Z</time></trkpt><trkpt lat="43.059920875632585" lon="12.4106906053714"><ele>180.0</ele><time>2026-05-03T14:50:41Z</time></trkpt><trkpt lat="43.06020168399" lon="12.410861154278427"><ele>180.5</ele><time>2026-05-03T14:50:42Z</time></trkpt><trkpt lat="43.060481265698975" lon="12.411036713445538"><ele>181.0</ele><time>2026-05-03T14:50:43Z</time></trkpt><trkpt lat="43.06075717392983" lon="12.411212850522494"><ele>181.5</ele><time>2026-05-03T14:50:44Z</time></trkpt><trkpt lat="43.06102810973203" lon="12.411393185545485"><ele>182.0</ele><time>2026-05-03T14:50:45Z</time></trkpt><trkpt lat="43.06129246460235" lon="12.411576616282494"><ele>182.0</ele><time>2026-05-03T14:50:46Z</time></trkpt><trkpt lat="43.06155237122923" lon="12.411758207543212"><ele>182.0</ele><time>2026-05-03T14:50:47Z</time></trkpt><trkpt lat="43.06180832814966" lon="12.411931977068713"><ele>182.0</ele><time>2026-05-03T14:50:48Z</time></trkpt><trkpt lat="43.06206242529532" lon="12.412097215370942"><ele>182.0</ele><time>2026-05-03T14:50:49Z</time></trkpt><trkpt lat="43.06231104654572" lon="12.412257849502447"><ele>181.5</ele><time>2026-05-03T14:50:50Z</time></trkpt><trkpt lat="43.06255595675745" lon="12.412415050628987"><ele>181.0</ele><time>2026-05-03T14:50:51Z</time></trkpt><trkpt lat="43.06279778156481" lon="12.412573016533617"><ele>181.0</ele><time>2026-05-03T14:50:52Z</time></trkpt><trkpt lat="43.063035678567715" lon="12.412728588333339"><ele>181.0</ele><time>2026-05-03T14:50:53Z</time></trkpt><trkpt lat="43.06327271456108" lon="12.412881834619567"><ele>180.5</ele><time>2026-05-03T14:50:54Z</time></trkpt><trkpt lat="43.06351002034086" lon="12.41303223282447"><ele>180.0</ele><time>2026-05-03T14:50:55Z</time></trkpt><trkpt lat="43.06374296026343" lon="12.41318054204003"><ele>180.0</ele><time>2026-05-03T14:50:56Z</time></trkpt><trkpt lat="43.06397389423599" lon="12.413329253198464"><ele>180.0</ele><time>2026-05-03T14:50:57Z</time></trkpt><trkpt lat="43.06420411079977" lon="12.41347814362853"><ele>181.5</ele><time>2026-05-03T14:50:58Z</time></trkpt><trkpt lat="43.06442713821767" lon="12.413621503596897"><ele>183.0</ele><time>2026-05-03T14:50:59Z</time></trkpt><trkpt lat="43.0646441431256" lon="12.413761045693489"><ele>182.0</ele><time>2026-05-03T14:51:00Z</time></trkpt><trkpt lat="43.06485805256584" lon="12.413900207861902"><ele>181.0</ele><time>2026-05-03T14:51:01Z</time></trkpt><trkpt lat="43.06505984955098" lon="12.414030960672626"><ele>181.0</ele><time>2026-05-03T14:51:02Z</time></trkpt><trkpt lat="43.06525209419278" lon="12.414153301314583"><ele>181.0</ele><time>2026-05-03T14:51:03Z</time></trkpt><trkpt lat="43.06544528334561" lon="12.414275665482348"><ele>181.0</ele><time>2026-05-03T14:51:04Z</time></trkpt><trkpt lat="43.06563722356106" lon="12.414396118534539"><ele>181.66666666666669</ele><time>2026-05-03T14:51:05Z</time></trkpt><trkpt lat="43.06582853770227" lon="12.414514231780208"><ele>182.33333333333334</ele><time>2026-05-03T14:51:05.999Z</time></trkpt><trkpt lat="43.06602052415571" lon="12.414634565240142"><ele>183.0</ele><time>2026-05-03T14:51:06.999Z</time></trkpt><trkpt lat="43.06621143459187" lon="12.414756989712345"><ele>183.33333333333334</ele><time>2026-05-03T14:51:07.999Z</time></trkpt><trkpt lat="43.066399560746916" lon="12.414877173555169"><ele>183.66666666666669</ele><time>2026-05-03T14:51:08.999Z</time></trkpt><trkpt lat="43.06659153372073" lon="12.414990968457786"><ele>184.0</ele><time>2026-05-03T14:51:09.999Z</time></trkpt><trkpt lat="43.06677878920622" lon="12.415113269792315"><ele>184.33333333333334</ele><time>2026-05-03T14:51:11Z</time></trkpt><trkpt lat="43.06696847290131" lon="12.415237007806775"><ele>184.66666666666666</ele><time>2026-05-03T14:51:12Z</time></trkpt><trkpt lat="43.06715444187343" lon="12.41535940827819"><ele>185.0</ele><time>2026-05-03T14:51:13Z</time></trkpt><trkpt lat="43.06736164003518" lon="12.41548178994199"><ele>184.66666666666666</ele><time>2026-05-03T14:51:14Z</time></trkpt><trkpt lat="43.067558231249116" lon="12.415597188236552"><ele>184.33333333333334</ele><time>2026-05-03T14:51:15Z</time></trkpt><trkpt lat="43.06775669530157" lon="12.415721406437298"><ele>184.0</ele><time>2026-05-03T14:51:16Z</time></trkpt><trkpt lat="43.06795658017094" lon="12.415846485222016"><ele>184.0</ele><time>2026-05-03T14:51:17Z</time></trkpt><trkpt lat="43.06815964315016" lon="12.415971802939682"><ele>184.0</ele><time>2026-05-03T14:51:18Z</time></trkpt><trkpt lat="43.06836023396459" lon="12.416096817096717"><ele>184.0</ele><time>2026-05-03T14:51:19Z</time></trkpt><trkpt lat="43.06856528290831" lon="12.416220914816245"><ele>183.5</ele><time>2026-05-03T14:51:20Z</time></trkpt><trkpt lat="43.0687721348621" lon="12.41634830651527"><ele>183.0</ele><time>2026-05-03T14:51:21Z</time></trkpt><trkpt lat="43.068993246714165" lon="12.416474440545457"><ele>183.5</ele><time>2026-05-03T14:51:22Z</time></trkpt><trkpt lat="43.06922773514186" lon="12.41660841876713"><ele>184.0</ele><time>2026-05-03T14:51:23Z</time></trkpt><trkpt lat="43.06946337359077" lon="12.41674724141615"><ele>184.0</ele><time>2026-05-03T14:51:24Z</time></trkpt><trkpt lat="43.069708694768295" lon="12.41689373801328"><ele>184.0</ele><time>2026-05-03T14:51:25Z</time></trkpt><trkpt lat="43.06995955541862" lon="12.417040882149914"><ele>183.5</ele><time>2026-05-03T14:51:26Z</time></trkpt><trkpt lat="43.0702098374941" lon="12.417193679840874"><ele>183.0</ele><time>2026-05-03T14:51:27Z</time></trkpt><trkpt lat="43.07045872359897" lon="12.417349631120665"><ele>183.0</ele><time>2026-05-03T14:51:28Z</time></trkpt><trkpt lat="43.07070636815948" lon="12.417508970662304"><ele>183.0</ele><time>2026-05-03T14:51:29Z</time></trkpt><trkpt lat="43.07094736204087" lon="12.417669355605533"><ele>183.5</ele><time>2026-05-03T14:51:30Z</time></trkpt><trkpt lat="43.0711852844694" lon="12.417830336720755"><ele>184.0</ele><time>2026-05-03T14:51:31Z</time></trkpt><trkpt lat="43.071425623889915" lon="12.417990308513293"><ele>184.0</ele><time>2026-05-03T14:51:32Z</time></trkpt><trkpt lat="43.071661614000725" lon="12.418145460404649"><ele>184.0</ele><time>2026-05-03T14:51:33Z</time></trkpt><trkpt lat="43.071894946316654" lon="12.41829884404431"><ele>184.0</ele><time>2026-05-03T14:51:34Z</time></trkpt><trkpt lat="43.07212572426565" lon="12.41844781972008"><ele>184.0</ele><time>2026-05-03T14:51:35Z</time></trkpt><trkpt lat="43.07235496326776" lon="12.418581716992561"><ele>185.0</ele><time>2026-05-03T14:51:36Z</time></trkpt><trkpt lat="43.072585024978494" lon="12.41872154187808"><ele>186.0</ele><time>2026-05-03T14:51:37Z</time></trkpt><trkpt lat="43.07281064072164" lon="12.418863331621225"><ele>186.0</ele><time>2026-05-03T14:51:38Z</time></trkpt><trkpt lat="43.07303429830726" lon="12.419007004031064"><ele>186.0</ele><time>2026-05-03T14:51:39Z</time></trkpt><trkpt lat="43.07325551456122" lon="12.419150857988505"><ele>186.5</ele><time>2026-05-03T14:51:40Z</time></trkpt><trkpt lat="43.073475688153735" lon="12.41928958219069"><ele>187.0</ele><time>2026-05-03T14:51:41Z</time></trkpt><trkpt lat="43.073696257518755" lon="12.41942307974498"><ele>187.0</ele><time>2026-05-03T14:51:42Z</time></trkpt><trkpt lat="43.07391328620945" lon="12.419560518453416"><ele>187.0</ele><time>2026-05-03T14:51:43Z</time></trkpt><trkpt lat="43.07413423429499" lon="12.419693929324616"><ele>187.5</ele><time>2026-05-03T14:51:44Z</time></trkpt><trkpt lat="43.074350242650674" lon="12.41982569484283"><ele>188.0</ele><time>2026-05-03T14:51:45Z</time></trkpt><trkpt lat="43.07457028543091" lon="12.41996033714903"><ele>188.0</ele><time>2026-05-03T14:51:46Z</time></trkpt><trkpt lat="43.07478596674397" lon="12.420092340578265"><ele>188.0</ele><time>2026-05-03T14:51:47Z</time></trkpt><trkpt lat="43.07500553008198" lon="12.420227309728093"><ele>187.5</ele><time>2026-05-03T14:51:48Z</time></trkpt><trkpt lat="43.07522220072644" lon="12.420359497444393"><ele>187.0</ele><time>2026-05-03T14:51:49Z</time></trkpt><trkpt lat="43.075437822422955" lon="12.420491012159266"><ele>186.5</ele><time>2026-05-03T14:51:50Z</time></trkpt><trkpt lat="43.075652595199045" lon="12.420626267470917"><ele>186.0</ele><time>2026-05-03T14:51:51Z</time></trkpt><trkpt lat="43.07587049031062" lon="12.42075909814106"><ele>187.0</ele><time>2026-05-03T14:51:52Z</time></trkpt><trkpt lat="43.076087516034676" lon="12.42089340159894"><ele>188.0</ele><time>2026-05-03T14:51:53Z</time></trkpt><trkpt lat="43.076304601379064" lon="12.42102977120584"><ele>188.0</ele><time>2026-05-03T14:51:54Z</time></trkpt><trkpt lat="43.07651739693883" lon="12.421163863266004"><ele>188.0</ele><time>2026-05-03T14:51:55Z</time></trkpt><trkpt lat="43.07673466406904" lon="12.421297590534541"><ele>189.5</ele><time>2026-05-03T14:51:56Z</time></trkpt><trkpt lat="43.07695394832817" lon="12.4214371311087"><ele>191.0</ele><time>2026-05-03T14:51:57Z</time></trkpt><trkpt lat="43.077172110762135" lon="12.42156974358448"><ele>191.0</ele><time>2026-05-03T14:51:58Z</time></trkpt><trkpt lat="43.077384643828594" lon="12.421709044506096"><ele>191.0</ele><time>2026-05-03T14:51:59Z</time></trkpt><trkpt lat="43.077596356102276" lon="12.421844945186908"><ele>191.5</ele><time>2026-05-03T14:52:00Z</time></trkpt><trkpt lat="43.077807160241555" lon="12.421987987518987"><ele>192.0</ele><time>2026-05-03T14:52:01Z</time></trkpt><trkpt lat="43.07800793243962" lon="12.422133687895913"><ele>192.33333333333331</ele><time>2026-05-03T14:52:02Z</time></trkpt><trkpt lat="43.07820791444452" lon="12.422276122434278"><ele>192.66666666666666</ele><time>2026-05-03T14:52:03Z</time></trkpt><trkpt lat="43.078402668776825" lon="12.422426629601969"><ele>193.0</ele><time>2026-05-03T14:52:04Z</time></trkpt><trkpt lat="43.07858646673444" lon="12.422569804449052"><ele>193.33333333333331</ele><time>2026-05-03T14:52:05Z</time></trkpt><trkpt lat="43.07876803562735" lon="12.422709082297898"><ele>193.66666666666669</ele><time>2026-05-03T14:52:06Z</time></trkpt><trkpt lat="43.078933744950746" lon="12.422843350251998"><ele>194.0</ele><time>2026-05-03T14:52:07Z</time></trkpt><trkpt lat="43.07908979400982" lon="12.422974635726137"><ele>193.33333333333334</ele><time>2026-05-03T14:52:08Z</time></trkpt><trkpt lat="43.079249578752105" lon="12.4231023435281"><ele>192.66666666666669</ele><time>2026-05-03T14:52:09Z</time></trkpt><trkpt lat="43.07941785599609" lon="12.423237876579979"><ele>192.0</ele><time>2026-05-03T14:52:10Z</time></trkpt><trkpt lat="43.079590812451514" lon="12.42338472675688"><ele>192.0</ele><time>2026-05-03T14:52:11Z</time></trkpt><trkpt lat="43.07976709502869" lon="12.42354683390462"><ele>192.0</ele><time>2026-05-03T14:52:12Z</time></trkpt><trkpt lat="43.0799465772327" lon="12.423712354394752"><ele>192.0</ele><time>2026-05-03T14:52:13Z</time></trkpt><trkpt lat="43.08013360938471" lon="12.423883815567782"><ele>192.5</ele><time>2026-05-03T14:52:14Z</time></trkpt><trkpt lat="43.08031959449059" lon="12.424061611548906"><ele>193.0</ele><time>2026-05-03T14:52:15Z</time></trkpt><trkpt lat="43.08050393998652" lon="12.424245467849223"><ele>193.0</ele><time>2026-05-03T14:52:16Z</time></trkpt><trkpt lat="43.080685621036345" lon="12.424428688850995"><ele>193.0</ele><time>2026-05-03T14:52:17Z</time></trkpt><trkpt lat="43.08086884760877" lon="12.424609528851299"><ele>193.5</ele><time>2026-05-03T14:52:18Z</time></trkpt><trkpt lat="43.081056474751726" lon="12.424785811321172"><ele>194.0</ele><time>2026-05-03T14:52:19Z</time></trkpt><trkpt lat="43.08124308545586" lon="12.424957038355169"><ele>194.0</ele><time>2026-05-03T14:52:20Z</time></trkpt><trkpt lat="43.081426592815085" lon="12.425126991199127"><ele>194.0</ele><time>2026-05-03T14:52:21Z</time></trkpt><trkpt lat="43.08161218101102" lon="12.425300198260393"><ele>194.0</ele><time>2026-05-03T14:52:22Z</time></trkpt><trkpt lat="43.081789679931774" lon="12.425471204768092"><ele>193.33333333333334</ele><time>2026-05-03T14:52:23Z</time></trkpt><trkpt lat="43.08197186117476" lon="12.425643748363083"><ele>192.66666666666669</ele><time>2026-05-03T14:52:24Z</time></trkpt><trkpt lat="43.08215584872187" lon="12.42581229495292"><ele>192.0</ele><time>2026-05-03T14:52:25Z</time></trkpt><trkpt lat="43.08233986150184" lon="12.425980518900639"><ele>191.66666666666666</ele><time>2026-05-03T14:52:26Z</time></trkpt><trkpt lat="43.08252226850681" lon="12.4261496505625"><ele>191.33333333333331</ele><time>2026-05-03T14:52:27Z</time></trkpt><trkpt lat="43.082702527441214" lon="12.426317276552574"><ele>191.0</ele><time>2026-05-03T14:52:28Z</time></trkpt><trkpt lat="43.08288449841617" lon="12.426479894743217"><ele>191.0</ele><time>2026-05-03T14:52:29Z</time></trkpt><trkpt lat="43.083060852944435" lon="12.426637715078131"><ele>191.0</ele><time>2026-05-03T14:52:30Z</time></trkpt><trkpt lat="43.0832322195767" lon="12.426794990525583"><ele>191.0</ele><time>2026-05-03T14:52:31Z</time></trkpt><trkpt lat="43.08339074927458" lon="12.426947973863788"><ele>192.33333333333331</ele><time>2026-05-03T14:52:32Z</time></trkpt><trkpt lat="43.0835448487646" lon="12.427102348633722"><ele>193.66666666666666</ele><time>2026-05-03T14:52:33Z</time></trkpt><trkpt lat="43.08369664756542" lon="12.42725099118738"><ele>195.0</ele><time>2026-05-03T14:52:34Z</time></trkpt><trkpt lat="43.08384288488612" lon="12.427397508846637"><ele>195.0</ele><time>2026-05-03T14:52:35Z</time></trkpt><trkpt lat="43.08397627311962" lon="12.427541464099324"><ele>195.0</ele><time>2026-05-03T14:52:36Z</time></trkpt><trkpt lat="43.0841090860552" lon="12.427682187183136"><ele>195.0</ele><time>2026-05-03T14:52:37Z</time></trkpt><trkpt lat="43.08424902653679" lon="12.427818309957875"><ele>195.33333333333331</ele><time>2026-05-03T14:52:38Z</time></trkpt><trkpt lat="43.084388148010646" lon="12.427964224049232"><ele>195.66666666666666</ele><time>2026-05-03T14:52:39Z</time></trkpt><trkpt lat="43.084521104169845" lon="12.428120124462831"><ele>196.0</ele><time>2026-05-03T14:52:40Z</time></trkpt><trkpt lat="43.08465398750114" lon="12.428290415926545"><ele>196.0</ele><time>2026-05-03T14:52:41Z</time></trkpt><trkpt lat="43.084785565416" lon="12.428475310283257"><ele>196.0</ele><time>2026-05-03T14:52:42Z</time></trkpt><trkpt lat="43.08491106973859" lon="12.428668596922504"><ele>196.0</ele><time>2026-05-03T14:52:43Z</time></trkpt><trkpt lat="43.085030327594176" lon="12.428876761112488"><ele>196.33333333333331</ele><time>2026-05-03T14:52:44Z</time></trkpt><trkpt lat="43.08513523921812" lon="12.429106510447056"><ele>196.66666666666669</ele><time>2026-05-03T14:52:45Z</time></trkpt><trkpt lat="43.08523004573046" lon="12.429347544466523"><ele>197.0</ele><time>2026-05-03T14:52:46Z</time></trkpt><trkpt lat="43.085313611483336" lon="12.429591863474622"><ele>197.33333333333334</ele><time>2026-05-03T14:52:47Z</time></trkpt><trkpt lat="43.08539122859457" lon="12.42984342738085"><ele>197.66666666666669</ele><time>2026-05-03T14:52:48Z</time></trkpt><trkpt lat="43.0854542903671" lon="12.430099661094001"><ele>198.0</ele><time>2026-05-03T14:52:49Z</time></trkpt><trkpt lat="43.08551309704567" lon="12.430364890089006"><ele>197.33333333333331</ele><time>2026-05-03T14:52:50Z</time></trkpt><trkpt lat="43.08556504473603" lon="12.430637719806477"><ele>196.66666666666666</ele><time>2026-05-03T14:52:51Z</time></trkpt><trkpt lat="43.08561083544705" lon="12.430914546337787"><ele>196.0</ele><time>2026-05-03T14:52:52Z</time></trkpt><trkpt lat="43.08564494910409" lon="12.43119443789876"><ele>196.33333333333331</ele><time>2026-05-03T14:52:52.999Z</time></trkpt><trkpt lat="43.085670582146086" lon="12.431479979946118"><ele>196.66666666666669</ele><time>2026-05-03T14:52:53.999Z</time></trkpt><trkpt lat="43.085694149793596" lon="12.431764991982442"><ele>197.0</ele><time>2026-05-03T14:52:54.999Z</time></trkpt><trkpt lat="43.08571448346753" lon="12.432052100482077"><ele>197.0</ele><time>2026-05-03T14:52:55.999Z</time></trkpt><trkpt lat="43.085732294365584" lon="12.432343021989727"><ele>197.0</ele><time>2026-05-03T14:52:56.999Z</time></trkpt><trkpt lat="43.0857465524241" lon="12.432634571332843"><ele>197.0</ele><time>2026-05-03T14:52:57.999Z</time></trkpt><trkpt lat="43.08575912051383" lon="12.432928381964683"><ele>197.66666666666669</ele><time>2026-05-03T14:52:58.999Z</time></trkpt><trkpt lat="43.08576895547937" lon="12.43322622598749"><ele>198.33333333333331</ele><time>2026-05-03T14:52:59.999Z</time></trkpt><trkpt lat="43.08577594624893" lon="12.433520229806783"><ele>199.0</ele><time>2026-05-03T14:53:00.999Z</time></trkpt><trkpt lat="43.08577935038808" lon="12.433819285562004"><ele>199.0</ele><time>2026-05-03T14:53:01.999Z</time></trkpt><trkpt lat="43.08578186391508" lon="12.43411590436558"><ele>199.0</ele><time>2026-05-03T14:53:02.999Z</time></trkpt><trkpt lat="43.085784526214724" lon="12.434412127141147"><ele>199.0</ele><time>2026-05-03T14:53:03.999Z</time></trkpt><trkpt lat="43.08578933644214" lon="12.434712681517661"><ele>198.0</ele><time>2026-05-03T14:53:04.999Z</time></trkpt><trkpt lat="43.0857940146389" lon="12.435023227452042"><ele>197.0</ele><time>2026-05-03T14:53:05.999Z</time></trkpt><trkpt lat="43.085798671712716" lon="12.435336819187937"><ele>196.33333333333334</ele><time>2026-05-03T14:53:06.999Z</time></trkpt><trkpt lat="43.08579951367433" lon="12.435646145398087"><ele>195.66666666666669</ele><time>2026-05-03T14:53:07.999Z</time></trkpt><trkpt lat="43.08579936331456" lon="12.43593938134011"><ele>195.0</ele><time>2026-05-03T14:53:08.999Z</time></trkpt><trkpt lat="43.08579602423941" lon="12.436221608647333"><ele>194.33333333333331</ele><time>2026-05-03T14:53:09.999Z</time></trkpt><trkpt lat="43.08579534994704" lon="12.43649822331219"><ele>193.66666666666666</ele><time>2026-05-03T14:53:10.999Z</time></trkpt><trkpt lat="43.08579440370767" lon="12.436776767186156"><ele>193.0</ele><time>2026-05-03T14:53:11.999Z</time></trkpt><trkpt lat="43.085790889291246" lon="12.437061463348654"><ele>193.0</ele><time>2026-05-03T14:53:12.999Z</time></trkpt><trkpt lat="43.0857893766849" lon="12.43734397807805"><ele>193.0</ele><time>2026-05-03T14:53:13.999Z</time></trkpt><trkpt lat="43.085790856536335" lon="12.437631655763601"><ele>193.0</ele><time>2026-05-03T14:53:14.999Z</time></trkpt><trkpt lat="43.08578521590091" lon="12.437915212328985"><ele>193.0</ele><time>2026-05-03T14:53:15.999Z</time></trkpt><trkpt lat="43.08577535827318" lon="12.438207055018205"><ele>193.0</ele><time>2026-05-03T14:53:17Z</time></trkpt><trkpt lat="43.085770672497105" lon="12.43849067692252"><ele>193.0</ele><time>2026-05-03T14:53:18Z</time></trkpt><trkpt lat="43.085763860404306" lon="12.438756647686144"><ele>193.33333333333331</ele><time>2026-05-03T14:53:19Z</time></trkpt><trkpt lat="43.08575623935567" lon="12.439023398595621"><ele>193.66666666666669</ele><time>2026-05-03T14:53:20Z</time></trkpt><trkpt lat="43.08574889405988" lon="12.439290331874258"><ele>194.0</ele><time>2026-05-03T14:53:21Z</time></trkpt><trkpt lat="43.08574145559052" lon="12.43955605252986"><ele>193.33333333333334</ele><time>2026-05-03T14:53:22Z</time></trkpt><trkpt lat="43.08573455927539" lon="12.439811783319234"><ele>192.66666666666669</ele><time>2026-05-03T14:53:23Z</time></trkpt><trkpt lat="43.085728454686645" lon="12.440066960103"><ele>192.0</ele><time>2026-05-03T14:53:24Z</time></trkpt><trkpt lat="43.085732022264054" lon="12.440320237699563"><ele>192.0</ele><time>2026-05-03T14:53:25Z</time></trkpt><trkpt lat="43.08573930557948" lon="12.440569831040012"><ele>192.0</ele><time>2026-05-03T14:53:26Z</time></trkpt><trkpt lat="43.08575461109857" lon="12.440815156360182"><ele>192.0</ele><time>2026-05-03T14:53:27Z</time></trkpt><trkpt lat="43.08578704151646" lon="12.441061922871304"><ele>192.0</ele><time>2026-05-03T14:53:28Z</time></trkpt><trkpt lat="43.085827810617126" lon="12.441310049258021"><ele>192.0</ele><time>2026-05-03T14:53:29Z</time></trkpt><trkpt lat="43.085876456785044" lon="12.4415604853876"><ele>192.0</ele><time>2026-05-03T14:53:30Z</time></trkpt><trkpt lat="43.08593734324797" lon="12.441803661037678"><ele>192.0</ele><time>2026-05-03T14:53:31Z</time></trkpt><trkpt lat="43.08601110084123" lon="12.442044432301925"><ele>192.0</ele><time>2026-05-03T14:53:32Z</time></trkpt><trkpt lat="43.08608807750251" lon="12.44228456638234"><ele>192.0</ele><time>2026-05-03T14:53:33Z</time></trkpt><trkpt lat="43.086161870418216" lon="12.442522935376164"><ele>191.66666666666666</ele><time>2026-05-03T14:53:34Z</time></trkpt><trkpt lat="43.08623639132501" lon="12.442762088548127"><ele>191.33333333333331</ele><time>2026-05-03T14:53:35Z</time></trkpt><trkpt lat="43.08631164002252" lon="12.443002462030268"><ele>191.0</ele><time>2026-05-03T14:53:36Z</time></trkpt><trkpt lat="43.08638344015284" lon="12.443241752158585"><ele>191.0</ele><time>2026-05-03T14:53:37Z</time></trkpt><trkpt lat="43.086458416572675" lon="12.443491114985092"><ele>191.0</ele><time>2026-05-03T14:53:38Z</time></trkpt><trkpt lat="43.086534355115155" lon="12.443748395604404"><ele>191.0</ele><time>2026-05-03T14:53:39Z</time></trkpt><trkpt lat="43.08660978999609" lon="12.444007997694207"><ele>191.0</ele><time>2026-05-03T14:53:40Z</time></trkpt><trkpt lat="43.086685777925695" lon="12.4442663679215"><ele>191.0</ele><time>2026-05-03T14:53:41Z</time></trkpt><trkpt lat="43.08676442336222" lon="12.44452772827836"><ele>191.0</ele><time>2026-05-03T14:53:42Z</time></trkpt><trkpt lat="43.08684459279331" lon="12.444785884953129"><ele>191.0</ele><time>2026-05-03T14:53:43Z</time></trkpt><trkpt lat="43.08692520287559" lon="12.445042169956688"><ele>191.0</ele><time>2026-05-03T14:53:44Z</time></trkpt><trkpt lat="43.087006148599635" lon="12.445299407429154"><ele>191.0</ele><time>2026-05-03T14:53:45Z</time></trkpt><trkpt lat="43.087084381653646" lon="12.445558465184654"><ele>190.0</ele><time>2026-05-03T14:53:46Z</time></trkpt><trkpt lat="43.08716392105035" lon="12.445820339756505"><ele>189.0</ele><time>2026-05-03T14:53:47Z</time></trkpt><trkpt lat="43.0872446970471" lon="12.446080990218407"><ele>188.0</ele><time>2026-05-03T14:53:48Z</time></trkpt><trkpt lat="43.08732746171754" lon="12.446356366219975"><ele>188.0</ele><time>2026-05-03T14:53:49Z</time></trkpt><trkpt lat="43.087413825440706" lon="12.446649363270238"><ele>188.0</ele><time>2026-05-03T14:53:50Z</time></trkpt><trkpt lat="43.08750194832858" lon="12.446945521308917"><ele>188.0</ele><time>2026-05-03T14:53:51Z</time></trkpt><trkpt lat="43.087586483180374" lon="12.447241664643196"><ele>188.0</ele><time>2026-05-03T14:53:52Z</time></trkpt><trkpt lat="43.087669609255244" lon="12.447532978413577"><ele>188.0</ele><time>2026-05-03T14:53:53Z</time></trkpt><trkpt lat="43.0877518240146" lon="12.447807363471526"><ele>188.0</ele><time>2026-05-03T14:53:54Z</time></trkpt><trkpt lat="43.08782220112544" lon="12.448048839474632"><ele>188.0</ele><time>2026-05-03T14:53:55Z</time></trkpt><trkpt lat="43.08789017570316" lon="12.4482695992606"><ele>186.66666666666666</ele><time>2026-05-03T14:53:56Z</time></trkpt><trkpt lat="43.087940425283726" lon="12.448482542535787"><ele>185.33333333333334</ele><time>2026-05-03T14:53:57Z</time></trkpt><trkpt lat="43.08802378032026" lon="12.44870768313744"><ele>184.0</ele><time>2026-05-03T14:53:58Z</time></trkpt><trkpt lat="43.08807983303602" lon="12.448894851021372"><ele>184.5</ele><time>2026-05-03T14:53:59Z</time></trkpt><trkpt lat="43.088133816842216" lon="12.449082194228938"><ele>185.0</ele><time>2026-05-03T14:54:00Z</time></trkpt><trkpt lat="43.08818674377058" lon="12.449269650604467"><ele>185.5</ele><time>2026-05-03T14:54:01Z</time></trkpt><trkpt lat="43.08823753623446" lon="12.449447808078412"><ele>186.0</ele><time>2026-05-03T14:54:02Z</time></trkpt><trkpt lat="43.088291488713345" lon="12.44963419840923"><ele>186.0</ele><time>2026-05-03T14:54:03Z</time></trkpt><trkpt lat="43.0883443216684" lon="12.449811806014397"><ele>186.0</ele><time>2026-05-03T14:54:04Z</time></trkpt><trkpt lat="43.088400781706255" lon="12.449993900001935"><ele>186.0</ele><time>2026-05-03T14:54:05Z</time></trkpt><trkpt lat="43.08845717295761" lon="12.450179324075672"><ele>186.0</ele><time>2026-05-03T14:54:06Z</time></trkpt><trkpt lat="43.0885090021727" lon="12.450363543812179"><ele>186.0</ele><time>2026-05-03T14:54:07Z</time></trkpt><trkpt lat="43.08856661056297" lon="12.450547703614687"><ele>186.0</ele><time>2026-05-03T14:54:08Z</time></trkpt><trkpt lat="43.08861978664888" lon="12.450732226716044"><ele>186.0</ele><time>2026-05-03T14:54:09Z</time></trkpt><trkpt lat="43.088673256976996" lon="12.450921931352518"><ele>186.0</ele><time>2026-05-03T14:54:10Z</time></trkpt><trkpt lat="43.088726461663335" lon="12.451118488347706"><ele>186.33333333333334</ele><time>2026-05-03T14:54:11Z</time></trkpt><trkpt lat="43.088783726712194" lon="12.451317033238016"><ele>186.66666666666669</ele><time>2026-05-03T14:54:12Z</time></trkpt><trkpt lat="43.088846256217096" lon="12.45151320664441"><ele>187.0</ele><time>2026-05-03T14:54:13Z</time></trkpt><trkpt lat="43.08890275959705" lon="12.451713404465824"><ele>187.0</ele><time>2026-05-03T14:54:14Z</time></trkpt><trkpt lat="43.088967024839825" lon="12.451911147223482"><ele>187.0</ele><time>2026-05-03T14:54:15Z</time></trkpt><trkpt lat="43.08902660959791" lon="12.452103968179037"><ele>187.0</ele><time>2026-05-03T14:54:16Z</time></trkpt><trkpt lat="43.08908281594916" lon="12.452307679912716"><ele>186.66666666666669</ele><time>2026-05-03T14:54:17Z</time></trkpt><trkpt lat="43.08913778124485" lon="12.452514431754825"><ele>186.33333333333334</ele><time>2026-05-03T14:54:18Z</time></trkpt><trkpt lat="43.089185486399195" lon="12.452719079379788"><ele>186.0</ele><time>2026-05-03T14:54:19Z</time></trkpt><trkpt lat="43.089228428788985" lon="12.452936400928563"><ele>186.0</ele><time>2026-05-03T14:54:20Z</time></trkpt><trkpt lat="43.0892547086149" lon="12.453153581535762"><ele>186.0</ele><time>2026-05-03T14:54:21Z</time></trkpt><trkpt lat="43.08927589598552" lon="12.453368954337593"><ele>186.0</ele><time>2026-05-03T14:54:22Z</time></trkpt><trkpt lat="43.08929798927557" lon="12.453588604627031"><ele>186.33333333333334</ele><time>2026-05-03T14:54:23Z</time></trkpt><trkpt lat="43.08931244581559" lon="12.453807604214006"><ele>186.66666666666669</ele><time>2026-05-03T14:54:24Z</time></trkpt><trkpt lat="43.08932875586918" lon="12.454025567770724"><ele>187.0</ele><time>2026-05-03T14:54:25Z</time></trkpt><trkpt lat="43.08933252725873" lon="12.454241793237546"><ele>187.0</ele><time>2026-05-03T14:54:26Z</time></trkpt><trkpt lat="43.08932256396259" lon="12.454445987900456"><ele>187.0</ele><time>2026-05-03T14:54:27Z</time></trkpt><trkpt lat="43.089304357110635" lon="12.454647994436524"><ele>187.0</ele><time>2026-05-03T14:54:28Z</time></trkpt><trkpt lat="43.08928755486279" lon="12.454843494685505"><ele>187.0</ele><time>2026-05-03T14:54:29Z</time></trkpt><trkpt lat="43.08927580504388" lon="12.45504137920115"><ele>187.0</ele><time>2026-05-03T14:54:30Z</time></trkpt><trkpt lat="43.08925684023561" lon="12.455242345346571"><ele>187.0</ele><time>2026-05-03T14:54:31Z</time></trkpt><trkpt lat="43.08923346996527" lon="12.45546422340749"><ele>187.0</ele><time>2026-05-03T14:54:32Z</time></trkpt><trkpt lat="43.08919596518097" lon="12.455684585619872"><ele>186.66666666666669</ele><time>2026-05-03T14:54:33Z</time></trkpt><trkpt lat="43.089158290736606" lon="12.455911188349999"><ele>186.33333333333334</ele><time>2026-05-03T14:54:34Z</time></trkpt><trkpt lat="43.089120453063856" lon="12.456146215891488"><ele>186.0</ele><time>2026-05-03T14:54:35Z</time></trkpt><trkpt lat="43.089086672607365" lon="12.456372494944489"><ele>189.66666666666669</ele><time>2026-05-03T14:54:36Z</time></trkpt><trkpt lat="43.08905957897301" lon="12.456588351477516"><ele>193.33333333333334</ele><time>2026-05-03T14:54:37Z</time></trkpt><trkpt lat="43.089027199339824" lon="12.456812173770608"><ele>197.0</ele><time>2026-05-03T14:54:38Z</time></trkpt><trkpt lat="43.08899235413283" lon="12.457038644954649"><ele>194.0</ele><time>2026-05-03T14:54:39Z</time></trkpt><trkpt lat="43.08896100683048" lon="12.45726368069251"><ele>191.0</ele><time>2026-05-03T14:54:40Z</time></trkpt><trkpt lat="43.0889226303042" lon="12.457483408461588"><ele>188.0</ele><time>2026-05-03T14:54:41Z</time></trkpt><trkpt lat="43.088885328445336" lon="12.45771078403701"><ele>188.0</ele><time>2026-05-03T14:54:42Z</time></trkpt><trkpt lat="43.08885365825921" lon="12.457926263619372"><ele>188.0</ele><time>2026-05-03T14:54:43Z</time></trkpt><trkpt lat="43.08882205362369" lon="12.458148335297235"><ele>188.0</ele><time>2026-05-03T14:54:44Z</time></trkpt><trkpt lat="43.08878461623819" lon="12.458371199431774"><ele>188.33333333333331</ele><time>2026-05-03T14:54:45Z</time></trkpt><trkpt lat="43.088744782872226" lon="12.458598221850924"><ele>188.66666666666666</ele><time>2026-05-03T14:54:46Z</time></trkpt><trkpt lat="43.088708397463705" lon="12.458814258641224"><ele>189.0</ele><time>2026-05-03T14:54:46.999Z</time></trkpt><trkpt lat="43.08867331314819" lon="12.459042399725641"><ele>188.0</ele><time>2026-05-03T14:54:47.999Z</time></trkpt><trkpt lat="43.088636645238275" lon="12.459274966699839"><ele>187.0</ele><time>2026-05-03T14:54:48.999Z</time></trkpt><trkpt lat="43.08859852031939" lon="12.459507061946498"><ele>186.0</ele><time>2026-05-03T14:54:49.999Z</time></trkpt><trkpt lat="43.08856180748469" lon="12.459752222706218"><ele>186.0</ele><time>2026-05-03T14:54:50.999Z</time></trkpt><trkpt lat="43.08852810542738" lon="12.45999057757961"><ele>186.0</ele><time>2026-05-03T14:54:51.999Z</time></trkpt><trkpt lat="43.0884928271667" lon="12.460231937790116"><ele>186.0</ele><time>2026-05-03T14:54:52.999Z</time></trkpt><trkpt lat="43.088452774616975" lon="12.460468955653274"><ele>186.33333333333334</ele><time>2026-05-03T14:54:53.999Z</time></trkpt><trkpt lat="43.08840777587275" lon="12.460715745939854"><ele>186.66666666666669</ele><time>2026-05-03T14:54:54.999Z</time></trkpt><trkpt lat="43.08836926054551" lon="12.46096846314725"><ele>187.0</ele><time>2026-05-03T14:54:55.999Z</time></trkpt><trkpt lat="43.08833359890965" lon="12.461215689010045"><ele>187.33333333333334</ele><time>2026-05-03T14:54:56.999Z</time></trkpt><trkpt lat="43.08829724511439" lon="12.461469752125623"><ele>187.66666666666666</ele><time>2026-05-03T14:54:57.999Z</time></trkpt><trkpt lat="43.088260938664675" lon="12.461716961460976"><ele>188.0</ele><time>2026-05-03T14:54:58.999Z</time></trkpt><trkpt lat="43.08822580286183" lon="12.461956722655886"><ele>188.0</ele><time>2026-05-03T14:54:59.999Z</time></trkpt><trkpt lat="43.08819134029184" lon="12.462187036213452"><ele>188.0</ele><time>2026-05-03T14:55:00.999Z</time></trkpt><trkpt lat="43.08815204338644" lon="12.462415400906929"><ele>188.0</ele><time>2026-05-03T14:55:01.999Z</time></trkpt><trkpt lat="43.08811802170528" lon="12.462640395742708"><ele>188.0</ele><time>2026-05-03T14:55:02.999Z</time></trkpt><trkpt lat="43.0880869953967" lon="12.462849490645215"><ele>188.0</ele><time>2026-05-03T14:55:03.999Z</time></trkpt><trkpt lat="43.088048475663236" lon="12.463052298326746"><ele>188.0</ele><time>2026-05-03T14:55:04.999Z</time></trkpt><trkpt lat="43.08800747766533" lon="12.463250318275959"><ele>188.0</ele><time>2026-05-03T14:55:05.999Z</time></trkpt><trkpt lat="43.08797419055207" lon="12.463445085946082"><ele>188.0</ele><time>2026-05-03T14:55:06.999Z</time></trkpt><trkpt lat="43.087938104882106" lon="12.463616311720765"><ele>188.0</ele><time>2026-05-03T14:55:07.999Z</time></trkpt><trkpt lat="43.08791194093107" lon="12.463766618674974"><ele>188.0</ele><time>2026-05-03T14:55:08.999Z</time></trkpt><trkpt lat="43.08788515253818" lon="12.46389780353991"><ele>188.0</ele><time>2026-05-03T14:55:09.999Z</time></trkpt><trkpt lat="43.087849636239284" lon="12.464002803322394"><ele>188.0</ele><time>2026-05-03T14:55:10.999Z</time></trkpt><trkpt lat="43.087809793407494" lon="12.464085796486547"><ele>188.0</ele><time>2026-05-03T14:55:11.999Z</time></trkpt><trkpt lat="43.08776982533854" lon="12.464157765181314"><ele>188.0</ele><time>2026-05-03T14:55:12.999Z</time></trkpt><trkpt lat="43.08773435968852" lon="12.464233190111779"><ele>188.0</ele><time>2026-05-03T14:55:13.999Z</time></trkpt><trkpt lat="43.08770902081638" lon="12.464314806562422"><ele>188.0</ele><time>2026-05-03T14:55:14.999Z</time></trkpt><trkpt lat="43.087661564226266" lon="12.46444767178288"><ele>188.0</ele><time>2026-05-03T14:55:16.999Z</time></trkpt><trkpt lat="43.08758384583975" lon="12.464481978274508"><ele>188.0</ele><time>2026-05-03T14:55:19.999Z</time></trkpt><trkpt lat="43.08750404369868" lon="12.464470426467294"><ele>188.0</ele><time>2026-05-03T14:55:23Z</time></trkpt><trkpt lat="43.08743549551324" lon="12.464524952970905"><ele>188.0</ele><time>2026-05-03T14:55:26Z</time></trkpt><trkpt lat="43.08743216542958" lon="12.464612065225333"><ele>188.0</ele><time>2026-05-03T14:56:16Z</time></trkpt><trkpt lat="43.08748984419052" lon="12.464553615869422"><ele>188.0</ele><time>2026-05-03T14:57:01.999Z</time></trkpt><trkpt lat="43.087517562228875" lon="12.464465905005325"><ele>188.0</ele><time>2026-05-03T14:58:37Z</time></trkpt><trkpt lat="43.08758511320624" lon="12.464451130035107"><ele>188.0</ele><time>2026-05-03T14:58:39Z</time></trkpt><trkpt lat="43.087697166884055" lon="12.464417145380173"><ele>188.0</ele><time>2026-05-03T14:58:41Z</time></trkpt><trkpt lat="43.087610576347906" lon="12.464434717394136"><ele>188.0</ele><time>2026-05-03T14:58:54.036Z</time></trkpt><trkpt lat="43.087019366314145" lon="12.464377374436168"><ele>188.0</ele><time>2026-05-03T14:59:10.031Z</time></trkpt><trkpt lat="43.08696988841287" lon="12.464291153059092"><ele>188.0</ele><time>2026-05-03T14:59:11.033Z</time></trkpt><trkpt lat="43.08744199385913" lon="12.464398529648316"><ele>188.0</ele><time>2026-05-03T14:59:14.032Z</time></trkpt><trkpt lat="43.08750255704872" lon="12.46443904665298"><ele>188.0</ele><time>2026-05-03T14:59:15.038Z</time></trkpt><trkpt lat="43.087433509481514" lon="12.464418381006318"><ele>188.0</ele><time>2026-05-03T14:59:16.034Z</time></trkpt><trkpt lat="43.08703813851503" lon="12.464296861693088"><ele>188.2</ele><time>2026-05-03T14:59:17.031Z</time></trkpt><trkpt lat="43.08716067456763" lon="12.464252655903696"><ele>188.4</ele><time>2026-05-03T14:59:40.028Z</time></trkpt><trkpt lat="43.08705713165939" lon="12.464198056694011"><ele>188.6</ele><time>2026-05-03T14:59:42.026Z</time></trkpt><trkpt lat="43.08711998914962" lon="12.464247648772707"><ele>188.79999999999998</ele><time>2026-05-03T15:00:02.018Z</time></trkpt><trkpt lat="43.08720542382178" lon="12.464337182495434"><ele>189.0</ele><time>2026-05-03T15:00:04.02Z</time></trkpt><trkpt lat="43.0871384057034" lon="12.464311292962567"><ele>189.0</ele><time>2026-05-03T15:00:06.018Z</time></trkpt><trkpt lat="43.087160399694994" lon="12.46440973571049"><ele>189.0</ele><time>2026-05-03T15:00:15.015Z</time></trkpt><trkpt lat="43.08719792055652" lon="12.464496412073217"><ele>189.0</ele><time>2026-05-03T15:00:27.011Z</time></trkpt><trkpt lat="43.08735632272377" lon="12.464510294688141"><ele>189.0</ele><time>2026-05-03T15:00:34.011Z</time></trkpt><trkpt lat="43.0875009247161" lon="12.464495354414135"><ele>188.83333333333334</ele><time>2026-05-03T15:00:48.009Z</time></trkpt><trkpt lat="43.08744128243245" lon="12.464467238231611"><ele>188.66666666666666</ele><time>2026-05-03T15:02:10Z</time></trkpt><trkpt lat="43.0874954991005" lon="12.464521904979797"><ele>188.5</ele><time>2026-05-03T15:05:47Z</time></trkpt><trkpt lat="43.08751218070483" lon="12.46464374182838"><ele>188.33333333333331</ele><time>2026-05-03T15:10:07Z</time></trkpt><trkpt lat="43.08757718008427" lon="12.464698445243535"><ele>188.16666666666666</ele><time>2026-05-03T15:10:10Z</time></trkpt><trkpt lat="43.08764840284809" lon="12.464770762364038"><ele>188.0</ele><time>2026-05-03T15:10:12Z</time></trkpt><trkpt lat="43.08767921556245" lon="12.464870529576737"><ele>188.0</ele><time>2026-05-03T15:10:14Z</time></trkpt><trkpt lat="43.08769938482022" lon="12.464998891494986"><ele>188.0</ele><time>2026-05-03T15:10:16Z</time></trkpt><trkpt lat="43.087683498694425" lon="12.465132935086492"><ele>188.0</ele><time>2026-05-03T15:10:18Z</time></trkpt><trkpt lat="43.08766011271136" lon="12.465282025533837"><ele>188.0</ele><time>2026-05-03T15:10:20Z</time></trkpt><trkpt lat="43.08764430391583" lon="12.465435708976237"><ele>188.0</ele><time>2026-05-03T15:10:22Z</time></trkpt><trkpt lat="43.087623749344864" lon="12.465602342178125"><ele>188.0</ele><time>2026-05-03T15:10:24Z</time></trkpt><trkpt lat="43.087602045911" lon="12.465764901541172"><ele>188.0</ele><time>2026-05-03T15:10:26Z</time></trkpt><trkpt lat="43.08759005505699" lon="12.465850921602948"><ele>188.0</ele><time>2026-05-03T15:10:27Z</time></trkpt><trkpt lat="43.08757912534797" lon="12.465937863904122"><ele>188.0</ele><time>2026-05-03T15:10:27.999Z</time></trkpt><trkpt lat="43.087566860174526" lon="12.466046932505998"><ele>188.0</ele><time>2026-05-03T15:10:28.999Z</time></trkpt><trkpt lat="43.087548736972266" lon="12.466185226148811"><ele>188.0</ele><time>2026-05-03T15:10:29.999Z</time></trkpt><trkpt lat="43.087527136339006" lon="12.466356346037863"><ele>188.25</ele><time>2026-05-03T15:10:30.999Z</time></trkpt><trkpt lat="43.08750835546176" lon="12.466525117937906"><ele>188.5</ele><time>2026-05-03T15:10:31.999Z</time></trkpt><trkpt lat="43.087480865638405" lon="12.466711268708835"><ele>188.75</ele><time>2026-05-03T15:10:32.999Z</time></trkpt><trkpt lat="43.08745102613988" lon="12.466902158884226"><ele>189.0</ele><time>2026-05-03T15:10:33.999Z</time></trkpt><trkpt lat="43.08741957786021" lon="12.467101445944575"><ele>189.75</ele><time>2026-05-03T15:10:34.999Z</time></trkpt><trkpt lat="43.08738675007346" lon="12.467294230854153"><ele>190.5</ele><time>2026-05-03T15:10:35.999Z</time></trkpt><trkpt lat="43.08735247643639" lon="12.467483084325277"><ele>191.25</ele><time>2026-05-03T15:10:36.999Z</time></trkpt><trkpt lat="43.08733037456185" lon="12.467692624987139"><ele>192.0</ele><time>2026-05-03T15:10:37.999Z</time></trkpt><trkpt lat="43.08729893087349" lon="12.467892748173435"><ele>192.25</ele><time>2026-05-03T15:10:38.999Z</time></trkpt><trkpt lat="43.08726818037513" lon="12.468090253908851"><ele>192.5</ele><time>2026-05-03T15:10:39.999Z</time></trkpt><trkpt lat="43.08724329259641" lon="12.468283323340007"><ele>192.75</ele><time>2026-05-03T15:10:40.999Z</time></trkpt><trkpt lat="43.08722548444559" lon="12.468475515775628"><ele>193.0</ele><time>2026-05-03T15:10:41.999Z</time></trkpt><trkpt lat="43.0872140822041" lon="12.468665827834755"><ele>193.5</ele><time>2026-05-03T15:10:42.999Z</time></trkpt><trkpt lat="43.08720623447546" lon="12.468862904722544"><ele>194.0</ele><time>2026-05-03T15:10:43.999Z</time></trkpt><trkpt lat="43.087201672537944" lon="12.469061930422528"><ele>194.5</ele><time>2026-05-03T15:10:44.999Z</time></trkpt><trkpt lat="43.0872012532501" lon="12.46926136443161"><ele>195.0</ele><time>2026-05-03T15:10:45.999Z</time></trkpt><trkpt lat="43.087210047532466" lon="12.469452009796568"><ele>196.25</ele><time>2026-05-03T15:10:46.999Z</time></trkpt><trkpt lat="43.08722301853736" lon="12.469640181042605"><ele>197.5</ele><time>2026-05-03T15:10:47.999Z</time></trkpt><trkpt lat="43.0872460372137" lon="12.469832425043686"><ele>198.75</ele><time>2026-05-03T15:10:48.999Z</time></trkpt><trkpt lat="43.087278242536954" lon="12.47002641959854"><ele>200.0</ele><time>2026-05-03T15:10:49.999Z</time></trkpt><trkpt lat="43.08731362725133" lon="12.470214890025126"><ele>200.0</ele><time>2026-05-03T15:10:50.999Z</time></trkpt><trkpt lat="43.087346478675535" lon="12.470401719597998"><ele>200.0</ele><time>2026-05-03T15:10:51.999Z</time></trkpt><trkpt lat="43.08737620205521" lon="12.470588674290154"><ele>200.0</ele><time>2026-05-03T15:10:52.999Z</time></trkpt><trkpt lat="43.0874033124988" lon="12.470777338600447"><ele>200.0</ele><time>2026-05-03T15:10:53.999Z</time></trkpt><trkpt lat="43.08743070091012" lon="12.470962685459538"><ele>200.25</ele><time>2026-05-03T15:10:54.999Z</time></trkpt><trkpt lat="43.087460329405744" lon="12.471146414261739"><ele>200.5</ele><time>2026-05-03T15:10:55.999Z</time></trkpt><trkpt lat="43.08748220478075" lon="12.471324226108067"><ele>200.75</ele><time>2026-05-03T15:10:56.999Z</time></trkpt><trkpt lat="43.08751049834845" lon="12.471502676818861"><ele>201.0</ele><time>2026-05-03T15:10:57.999Z</time></trkpt><trkpt lat="43.087539828960324" lon="12.471683984090895"><ele>201.0</ele><time>2026-05-03T15:10:58.999Z</time></trkpt><trkpt lat="43.087569009732434" lon="12.471869284847756"><ele>201.0</ele><time>2026-05-03T15:10:59.999Z</time></trkpt><trkpt lat="43.087601082057276" lon="12.472065580554087"><ele>201.0</ele><time>2026-05-03T15:11:00.999Z</time></trkpt><trkpt lat="43.087634501028106" lon="12.472274483037918"><ele>201.0</ele><time>2026-05-03T15:11:01.999Z</time></trkpt><trkpt lat="43.08766781306434" lon="12.47250005806365"><ele>203.33333333333331</ele><time>2026-05-03T15:11:02.999Z</time></trkpt><trkpt lat="43.08770240421752" lon="12.47271394415818"><ele>205.66666666666666</ele><time>2026-05-03T15:11:03.999Z</time></trkpt><trkpt lat="43.08774834809858" lon="12.47293041376621"><ele>208.0</ele><time>2026-05-03T15:11:04.999Z</time></trkpt><trkpt lat="43.08780803804857" lon="12.473144722999768"><ele>209.66666666666666</ele><time>2026-05-03T15:11:05.999Z</time></trkpt><trkpt lat="43.087881133359765" lon="12.473351184531543"><ele>211.33333333333331</ele><time>2026-05-03T15:11:06.999Z</time></trkpt><trkpt lat="43.08796654665506" lon="12.473543916426433"><ele>213.0</ele><time>2026-05-03T15:11:07.999Z</time></trkpt><trkpt lat="43.0880644766268" lon="12.473705425029472"><ele>213.33333333333331</ele><time>2026-05-03T15:11:08.999Z</time></trkpt><trkpt lat="43.088179908382045" lon="12.473842263534724"><ele>213.66666666666666</ele><time>2026-05-03T15:11:09.999Z</time></trkpt><trkpt lat="43.08830611189123" lon="12.473960374644546"><ele>214.0</ele><time>2026-05-03T15:11:10.999Z</time></trkpt><trkpt lat="43.088445157563235" lon="12.474067039027275"><ele>210.0</ele><time>2026-05-03T15:11:11.999Z</time></trkpt><trkpt lat="43.08859979221192" lon="12.474151270979949"><ele>206.0</ele><time>2026-05-03T15:11:12.999Z</time></trkpt><trkpt lat="43.08876071035897" lon="12.47422252603747"><ele>202.0</ele><time>2026-05-03T15:11:13.999Z</time></trkpt><trkpt lat="43.08892702062896" lon="12.474285769047269"><ele>200.66666666666666</ele><time>2026-05-03T15:11:14.999Z</time></trkpt><trkpt lat="43.08910668185657" lon="12.474335445210532"><ele>199.33333333333331</ele><time>2026-05-03T15:11:15.999Z</time></trkpt><trkpt lat="43.0893005323167" lon="12.474364833015262"><ele>198.0</ele><time>2026-05-03T15:11:16.999Z</time></trkpt><trkpt lat="43.08951783356387" lon="12.474387749759307"><ele>198.0</ele><time>2026-05-03T15:11:17.999Z</time></trkpt><trkpt lat="43.08974773573406" lon="12.474437502769977"><ele>198.0</ele><time>2026-05-03T15:11:18.999Z</time></trkpt><trkpt lat="43.08998721175437" lon="12.474502997207457"><ele>197.0</ele><time>2026-05-03T15:11:19.999Z</time></trkpt><trkpt lat="43.09021513347214" lon="12.474559886934873"><ele>196.0</ele><time>2026-05-03T15:11:20.999Z</time></trkpt><trkpt lat="43.090443213154224" lon="12.47460302013674"><ele>197.0</ele><time>2026-05-03T15:11:21.999Z</time></trkpt><trkpt lat="43.09066668195306" lon="12.474641418924326"><ele>198.0</ele><time>2026-05-03T15:11:22.999Z</time></trkpt><trkpt lat="43.090886435269475" lon="12.47468280872108"><ele>199.0</ele><time>2026-05-03T15:11:23.999Z</time></trkpt><trkpt lat="43.09111638036077" lon="12.474726694278226"><ele>200.0</ele><time>2026-05-03T15:11:24.999Z</time></trkpt><trkpt lat="43.0913525623729" lon="12.474770238923082"><ele>201.0</ele><time>2026-05-03T15:11:25.999Z</time></trkpt><trkpt lat="43.09160433658039" lon="12.47481707981939"><ele>202.0</ele><time>2026-05-03T15:11:26.999Z</time></trkpt><trkpt lat="43.0918677557818" lon="12.474870356805683"><ele>203.0</ele><time>2026-05-03T15:11:27.999Z</time></trkpt><trkpt lat="43.09212170190132" lon="12.47493602122819"><ele>203.0</ele><time>2026-05-03T15:11:28.999Z</time></trkpt><trkpt lat="43.092369879856975" lon="12.475008564058028"><ele>203.0</ele><time>2026-05-03T15:11:29.999Z</time></trkpt><trkpt lat="43.09261965787062" lon="12.475074814219631"><ele>202.0</ele><time>2026-05-03T15:11:30.999Z</time></trkpt><trkpt lat="43.092864427185944" lon="12.475130772703393"><ele>201.0</ele><time>2026-05-03T15:11:31.999Z</time></trkpt><trkpt lat="43.09311246381861" lon="12.475183351223189"><ele>197.5</ele><time>2026-05-03T15:11:32.999Z</time></trkpt><trkpt lat="43.09335595632526" lon="12.475238430244998"><ele>194.0</ele><time>2026-05-03T15:11:33.999Z</time></trkpt><trkpt lat="43.09359536877164" lon="12.475295306568157"><ele>194.0</ele><time>2026-05-03T15:11:34.999Z</time></trkpt><trkpt lat="43.093832394801915" lon="12.475349576496992"><ele>194.0</ele><time>2026-05-03T15:11:35.999Z</time></trkpt><trkpt lat="43.09407009404761" lon="12.475404354400908"><ele>192.0</ele><time>2026-05-03T15:11:36.999Z</time></trkpt><trkpt lat="43.09430601672788" lon="12.475458805052021"><ele>190.0</ele><time>2026-05-03T15:11:37.999Z</time></trkpt><trkpt lat="43.094540635613264" lon="12.475511159829923"><ele>190.0</ele><time>2026-05-03T15:11:38.999Z</time></trkpt><trkpt lat="43.09477217438157" lon="12.475558377973249"><ele>190.0</ele><time>2026-05-03T15:11:39.999Z</time></trkpt><trkpt lat="43.095002161258144" lon="12.47560679098138"><ele>190.0</ele><time>2026-05-03T15:11:40.999Z</time></trkpt><trkpt lat="43.09523179912886" lon="12.47565254661831"><ele>190.0</ele><time>2026-05-03T15:11:41.999Z</time></trkpt><trkpt lat="43.095458515335665" lon="12.475700626975621"><ele>190.0</ele><time>2026-05-03T15:11:42.999Z</time></trkpt><trkpt lat="43.09568530005872" lon="12.475748411535099"><ele>190.0</ele><time>2026-05-03T15:11:43.999Z</time></trkpt><trkpt lat="43.09590992385398" lon="12.475796300798187"><ele>189.5</ele><time>2026-05-03T15:11:44.999Z</time></trkpt><trkpt lat="43.09613752920336" lon="12.47584006044279"><ele>189.0</ele><time>2026-05-03T15:11:45.999Z</time></trkpt><trkpt lat="43.096357597461086" lon="12.47588460398818"><ele>189.0</ele><time>2026-05-03T15:11:46.999Z</time></trkpt><trkpt lat="43.09657722612227" lon="12.475924821507007"><ele>189.0</ele><time>2026-05-03T15:11:47.999Z</time></trkpt><trkpt lat="43.09679548988416" lon="12.475955558812082"><ele>189.0</ele><time>2026-05-03T15:11:48.999Z</time></trkpt><trkpt lat="43.097009685518145" lon="12.47599228134197"><ele>189.66666666666666</ele><time>2026-05-03T15:11:49.999Z</time></trkpt><trkpt lat="43.09722525581668" lon="12.47603029647741"><ele>190.33333333333331</ele><time>2026-05-03T15:11:50.999Z</time></trkpt><trkpt lat="43.09743784489493" lon="12.476071469895166"><ele>191.0</ele><time>2026-05-03T15:11:51.999Z</time></trkpt><trkpt lat="43.09765027665307" lon="12.476103981720357"><ele>191.0</ele><time>2026-05-03T15:11:52.999Z</time></trkpt><trkpt lat="43.097862409440005" lon="12.4761370641915"><ele>191.0</ele><time>2026-05-03T15:11:53.999Z</time></trkpt><trkpt lat="43.09807340377233" lon="12.476170063154717"><ele>191.0</ele><time>2026-05-03T15:11:54.999Z</time></trkpt><trkpt lat="43.098277726282646" lon="12.476198893404202"><ele>190.66666666666666</ele><time>2026-05-03T15:11:55.999Z</time></trkpt><trkpt lat="43.098461131067076" lon="12.47622776211028"><ele>190.33333333333334</ele><time>2026-05-03T15:11:56.999Z</time></trkpt><trkpt lat="43.098649963476284" lon="12.476257246799937"><ele>190.0</ele><time>2026-05-03T15:11:57.999Z</time></trkpt><trkpt lat="43.098841961427496" lon="12.476300786326068"><ele>190.0</ele><time>2026-05-03T15:11:58.999Z</time></trkpt><trkpt lat="43.09901517052496" lon="12.47633471488058"><ele>190.0</ele><time>2026-05-03T15:11:59.999Z</time></trkpt><trkpt lat="43.09919485138634" lon="12.476377223831951"><ele>190.0</ele><time>2026-05-03T15:12:00.999Z</time></trkpt><trkpt lat="43.09936300347272" lon="12.476411276271465"><ele>190.0</ele><time>2026-05-03T15:12:01.999Z</time></trkpt><trkpt lat="43.099526055899254" lon="12.476442929878688"><ele>190.0</ele><time>2026-05-03T15:12:02.999Z</time></trkpt><trkpt lat="43.09968826426963" lon="12.476468601171778"><ele>190.0</ele><time>2026-05-03T15:12:03.999Z</time></trkpt><trkpt lat="43.099842044370426" lon="12.476492730915357"><ele>189.66666666666669</ele><time>2026-05-03T15:12:04.999Z</time></trkpt><trkpt lat="43.099994487030656" lon="12.476533007616839"><ele>189.33333333333334</ele><time>2026-05-03T15:12:05.999Z</time></trkpt><trkpt lat="43.10014588869608" lon="12.476597724812859"><ele>189.0</ele><time>2026-05-03T15:12:06.999Z</time></trkpt><trkpt lat="43.10029149934604" lon="12.476676246057217"><ele>189.0</ele><time>2026-05-03T15:12:07.999Z</time></trkpt><trkpt lat="43.10042928633267" lon="12.476771718932024"><ele>189.0</ele><time>2026-05-03T15:12:08.999Z</time></trkpt><trkpt lat="43.10057328312956" lon="12.4768558587747"><ele>189.0</ele><time>2026-05-03T15:12:09.999Z</time></trkpt><trkpt lat="43.100717791577516" lon="12.476929235086356"><ele>188.66666666666666</ele><time>2026-05-03T15:12:10.999Z</time></trkpt><trkpt lat="43.100862573406495" lon="12.477009773525706"><ele>188.33333333333331</ele><time>2026-05-03T15:12:11.999Z</time></trkpt><trkpt lat="43.10099885821394" lon="12.477103472021032"><ele>188.0</ele><time>2026-05-03T15:12:12.999Z</time></trkpt><trkpt lat="43.10113448430467" lon="12.47718244201053"><ele>189.0</ele><time>2026-05-03T15:12:13.999Z</time></trkpt><trkpt lat="43.10126943229525" lon="12.47726637605381"><ele>190.0</ele><time>2026-05-03T15:12:14.999Z</time></trkpt><trkpt lat="43.10140344625923" lon="12.477361334152281"><ele>191.0</ele><time>2026-05-03T15:12:15.999Z</time></trkpt><trkpt lat="43.10152443903519" lon="12.477464099157906"><ele>192.0</ele><time>2026-05-03T15:12:16.999Z</time></trkpt><trkpt lat="43.10162474625181" lon="12.477593041237384"><ele>192.5</ele><time>2026-05-03T15:12:17.999Z</time></trkpt><trkpt lat="43.10171600652882" lon="12.477739465777958"><ele>193.0</ele><time>2026-05-03T15:12:18.999Z</time></trkpt><trkpt lat="43.10180319633585" lon="12.477895854293825"><ele>193.5</ele><time>2026-05-03T15:12:19.999Z</time></trkpt><trkpt lat="43.10187200142485" lon="12.478077580842406"><ele>194.0</ele><time>2026-05-03T15:12:20.999Z</time></trkpt><trkpt lat="43.10192279303649" lon="12.478266279007848"><ele>194.0</ele><time>2026-05-03T15:12:21.999Z</time></trkpt><trkpt lat="43.10196658443266" lon="12.47845888009719"><ele>194.0</ele><time>2026-05-03T15:12:22.999Z</time></trkpt><trkpt lat="43.10199917793037" lon="12.478652512774056"><ele>194.0</ele><time>2026-05-03T15:12:23.999Z</time></trkpt><trkpt lat="43.1020379717385" lon="12.478848569527344"><ele>194.0</ele><time>2026-05-03T15:12:24.999Z</time></trkpt><trkpt lat="43.10207959957891" lon="12.479051742483334"><ele>194.66666666666669</ele><time>2026-05-03T15:12:25.999Z</time></trkpt><trkpt lat="43.102120212855056" lon="12.479259029055164"><ele>195.33333333333331</ele><time>2026-05-03T15:12:26.999Z</time></trkpt><trkpt lat="43.102158378981876" lon="12.479467722664024"><ele>196.0</ele><time>2026-05-03T15:12:27.999Z</time></trkpt><trkpt lat="43.102205057458015" lon="12.479683693878453"><ele>196.0</ele><time>2026-05-03T15:12:28.999Z</time></trkpt><trkpt lat="43.1022494044121" lon="12.479898082335152"><ele>196.0</ele><time>2026-05-03T15:12:29.999Z</time></trkpt><trkpt lat="43.10229323369361" lon="12.48011646884339"><ele>196.0</ele><time>2026-05-03T15:12:30.999Z</time></trkpt><trkpt lat="43.102335044024414" lon="12.480334201697081"><ele>196.33333333333331</ele><time>2026-05-03T15:12:31.999Z</time></trkpt><trkpt lat="43.10238198191226" lon="12.480556385178808"><ele>196.66666666666669</ele><time>2026-05-03T15:12:32.999Z</time></trkpt><trkpt lat="43.1024265531828" lon="12.480773413723158"><ele>197.0</ele><time>2026-05-03T15:12:33.999Z</time></trkpt><trkpt lat="43.10247566955835" lon="12.480997584227275"><ele>198.0</ele><time>2026-05-03T15:12:34.999Z</time></trkpt><trkpt lat="43.10252845152006" lon="12.481226677624669"><ele>199.0</ele><time>2026-05-03T15:12:35.999Z</time></trkpt><trkpt lat="43.10257922736625" lon="12.48146638733146"><ele>200.0</ele><time>2026-05-03T15:12:36.999Z</time></trkpt><trkpt lat="43.102636044566005" lon="12.48171346532899"><ele>200.33333333333334</ele><time>2026-05-03T15:12:37.999Z</time></trkpt><trkpt lat="43.10270038033601" lon="12.48196506371295"><ele>200.66666666666669</ele><time>2026-05-03T15:12:38.999Z</time></trkpt><trkpt lat="43.10277408937647" lon="12.482208459430963"><ele>201.0</ele><time>2026-05-03T15:12:39.999Z</time></trkpt><trkpt lat="43.102854376985114" lon="12.482449967614228"><ele>201.0</ele><time>2026-05-03T15:12:40.999Z</time></trkpt><trkpt lat="43.10294068313941" lon="12.48269739748693"><ele>201.0</ele><time>2026-05-03T15:12:41.999Z</time></trkpt><trkpt lat="43.103034975800426" lon="12.482946491011617"><ele>201.0</ele><time>2026-05-03T15:12:42.999Z</time></trkpt><trkpt lat="43.10314092239735" lon="12.483194371089528"><ele>201.33333333333331</ele><time>2026-05-03T15:12:43.999Z</time></trkpt><trkpt lat="43.10325612924048" lon="12.483442762397095"><ele>201.66666666666666</ele><time>2026-05-03T15:12:44.999Z</time></trkpt><trkpt lat="43.10337555130861" lon="12.483683116786642"><ele>202.0</ele><time>2026-05-03T15:12:45.999Z</time></trkpt><trkpt lat="43.103508639765046" lon="12.483922350255243"><ele>203.33333333333331</ele><time>2026-05-03T15:12:46.999Z</time></trkpt><trkpt lat="43.10364651510234" lon="12.48415342513097"><ele>204.66666666666669</ele><time>2026-05-03T15:12:47.999Z</time></trkpt><trkpt lat="43.103793702668916" lon="12.484381408891213"><ele>206.0</ele><time>2026-05-03T15:12:48.999Z</time></trkpt><trkpt lat="43.103951739250256" lon="12.484608060446526"><ele>205.5</ele><time>2026-05-03T15:12:49.999Z</time></trkpt><trkpt lat="43.104118743563824" lon="12.484825893101304"><ele>205.0</ele><time>2026-05-03T15:12:50.999Z</time></trkpt><trkpt lat="43.104290445073175" lon="12.48504023364655"><ele>205.0</ele><time>2026-05-03T15:12:51.999Z</time></trkpt><trkpt lat="43.104471225177726" lon="12.485253883086576"><ele>205.0</ele><time>2026-05-03T15:12:52.999Z</time></trkpt><trkpt lat="43.10465491356731" lon="12.48546782157795"><ele>205.5</ele><time>2026-05-03T15:12:53.999Z</time></trkpt><trkpt lat="43.10483467777565" lon="12.485669094854913"><ele>206.0</ele><time>2026-05-03T15:12:54.999Z</time></trkpt><trkpt lat="43.10501503540493" lon="12.48586949664113"><ele>206.0</ele><time>2026-05-03T15:12:55.999Z</time></trkpt><trkpt lat="43.105194052691" lon="12.486071268436072"><ele>206.0</ele><time>2026-05-03T15:12:56.999Z</time></trkpt><trkpt lat="43.10537014828946" lon="12.486274614654675"><ele>207.5</ele><time>2026-05-03T15:12:57.999Z</time></trkpt><trkpt lat="43.10554654918492" lon="12.486477712771455"><ele>209.0</ele><time>2026-05-03T15:12:58.999Z</time></trkpt><trkpt lat="43.10572604645015" lon="12.486677731375998"><ele>205.5</ele><time>2026-05-03T15:12:59.999Z</time></trkpt><trkpt lat="43.1059038808835" lon="12.486876709401129"><ele>202.0</ele><time>2026-05-03T15:13:00.999Z</time></trkpt><trkpt lat="43.106085855708706" lon="12.48707860417889"><ele>205.0</ele><time>2026-05-03T15:13:01.999Z</time></trkpt><trkpt lat="43.106260884059694" lon="12.48728272060057"><ele>208.0</ele><time>2026-05-03T15:13:02.999Z</time></trkpt><trkpt lat="43.10643737899756" lon="12.487480347991738"><ele>206.0</ele><time>2026-05-03T15:13:03.999Z</time></trkpt><trkpt lat="43.106615653121985" lon="12.48767701923173"><ele>204.0</ele><time>2026-05-03T15:13:04.999Z</time></trkpt><trkpt lat="43.10679178154448" lon="12.48787121845399"><ele>207.0</ele><time>2026-05-03T15:13:05.999Z</time></trkpt><trkpt lat="43.10696778066665" lon="12.488072220475493"><ele>210.0</ele><time>2026-05-03T15:13:06.999Z</time></trkpt><trkpt lat="43.10713553659228" lon="12.48827347156554"><ele>210.0</ele><time>2026-05-03T15:13:07.999Z</time></trkpt><trkpt lat="43.10730163546883" lon="12.488482203476872"><ele>210.0</ele><time>2026-05-03T15:13:08.999Z</time></trkpt><trkpt lat="43.107459393442724" lon="12.488689734909325"><ele>210.0</ele><time>2026-05-03T15:13:09.999Z</time></trkpt><trkpt lat="43.107609430363325" lon="12.488913148151822"><ele>210.0</ele><time>2026-05-03T15:13:10.999Z</time></trkpt><trkpt lat="43.10775233771959" lon="12.489144602927286"><ele>210.0</ele><time>2026-05-03T15:13:11.999Z</time></trkpt><trkpt lat="43.10788619329279" lon="12.489372660783863"><ele>210.0</ele><time>2026-05-03T15:13:12.999Z</time></trkpt><trkpt lat="43.108017903104034" lon="12.489611514632891"><ele>210.33333333333331</ele><time>2026-05-03T15:13:13.999Z</time></trkpt><trkpt lat="43.10813653678735" lon="12.489857440484855"><ele>210.66666666666666</ele><time>2026-05-03T15:13:14.999Z</time></trkpt><trkpt lat="43.10825459419045" lon="12.490114624942525"><ele>211.0</ele><time>2026-05-03T15:13:15.999Z</time></trkpt><trkpt lat="43.10836083443479" lon="12.490367087086153"><ele>212.33333333333331</ele><time>2026-05-03T15:13:16.999Z</time></trkpt><trkpt lat="43.10846345127929" lon="12.490630515868885"><ele>213.66666666666669</ele><time>2026-05-03T15:13:17.999Z</time></trkpt><trkpt lat="43.108555098195765" lon="12.490897578901805"><ele>215.0</ele><time>2026-05-03T15:13:18.999Z</time></trkpt><trkpt lat="43.108641392091364" lon="12.491162684443841"><ele>216.33333333333334</ele><time>2026-05-03T15:13:19.999Z</time></trkpt><trkpt lat="43.10871266258272" lon="12.491441251934285"><ele>217.66666666666669</ele><time>2026-05-03T15:13:20.999Z</time></trkpt><trkpt lat="43.108787167281434" lon="12.49171416677234"><ele>219.0</ele><time>2026-05-03T15:13:21.999Z</time></trkpt><trkpt lat="43.10884495090447" lon="12.491996007308224"><ele>222.66666666666669</ele><time>2026-05-03T15:13:22.999Z</time></trkpt><trkpt lat="43.10890026134144" lon="12.492270081583337"><ele>226.33333333333334</ele><time>2026-05-03T15:13:23.999Z</time></trkpt><trkpt lat="43.108948371455455" lon="12.49255516790069"><ele>230.0</ele><time>2026-05-03T15:13:24.999Z</time></trkpt><trkpt lat="43.10896884122506" lon="12.492862736113173"><ele>234.5</ele><time>2026-05-03T15:13:25.999Z</time></trkpt><trkpt lat="43.108993973229964" lon="12.493159494920882"><ele>239.0</ele><time>2026-05-03T15:13:26.999Z</time></trkpt><trkpt lat="43.10902034594" lon="12.493480926294168"><ele>241.0</ele><time>2026-05-03T15:13:27.999Z</time></trkpt><trkpt lat="43.109068651638175" lon="12.493785351954008"><ele>243.0</ele><time>2026-05-03T15:13:28.999Z</time></trkpt><trkpt lat="43.10911010322043" lon="12.494093134083592"><ele>243.0</ele><time>2026-05-03T15:13:29.999Z</time></trkpt><trkpt lat="43.10915376975673" lon="12.494417362237922"><ele>243.0</ele><time>2026-05-03T15:13:31.072Z</time></trkpt><trkpt lat="43.10919495917077" lon="12.494723197619042"><ele>246.5</ele><time>2026-05-03T15:13:32.065Z</time></trkpt><trkpt lat="43.109236822394436" lon="12.495034036292353"><ele>250.0</ele><time>2026-05-03T15:13:33.064Z</time></trkpt><trkpt lat="43.109278609242544" lon="12.495344308309026"><ele>249.0</ele><time>2026-05-03T15:13:34.064Z</time></trkpt><trkpt lat="43.109319863970676" lon="12.495650628877176"><ele>248.0</ele><time>2026-05-03T15:13:35.059Z</time></trkpt><trkpt lat="43.10975462457031" lon="12.498352363648873"><ele>245.0</ele><time>2026-05-03T15:13:38.411Z</time></trkpt><trkpt lat="43.10990173953546" lon="12.499439711274624"><ele>237.0</ele><time>2026-05-03T15:13:39.411Z</time></trkpt><trkpt lat="43.11004972143867" lon="12.500523912947685"><ele>233.0</ele><time>2026-05-03T15:13:40.408Z</time></trkpt><trkpt lat="43.11028575145562" lon="12.501963694183205"><ele>231.0</ele><time>2026-05-03T15:13:56.999Z</time></trkpt><trkpt lat="43.11031632708792" lon="12.502259259750156"><ele>229.0</ele><time>2026-05-03T15:13:57.999Z</time></trkpt><trkpt lat="43.11038400955276" lon="12.50254888996793"><ele>227.0</ele><time>2026-05-03T15:13:58.999Z</time></trkpt><trkpt lat="43.110468201320444" lon="12.502848704376934"><ele>224.5</ele><time>2026-05-03T15:13:59.999Z</time></trkpt><trkpt lat="43.1105622593421" lon="12.503150407125062"><ele>222.0</ele><time>2026-05-03T15:14:00.999Z</time></trkpt><trkpt lat="43.110660084903536" lon="12.503454464475091"><ele>222.5</ele><time>2026-05-03T15:14:01.999Z</time></trkpt><trkpt lat="43.11077464888418" lon="12.5037429623586"><ele>223.0</ele><time>2026-05-03T15:14:02.999Z</time></trkpt><trkpt lat="43.110894994145944" lon="12.504035106001282"><ele>221.5</ele><time>2026-05-03T15:14:03.999Z</time></trkpt><trkpt lat="43.11102163522569" lon="12.504325668281762"><ele>220.0</ele><time>2026-05-03T15:14:04.999Z</time></trkpt><trkpt lat="43.11115384005586" lon="12.504599287058499"><ele>218.0</ele><time>2026-05-03T15:14:06Z</time></trkpt><trkpt lat="43.11130223555846" lon="12.504871040492905"><ele>216.0</ele><time>2026-05-03T15:14:07Z</time></trkpt><trkpt lat="43.111459672110485" lon="12.505132195269523"><ele>216.0</ele><time>2026-05-03T15:14:08Z</time></trkpt><trkpt lat="43.111622860374716" lon="12.505386547155421"><ele>216.0</ele><time>2026-05-03T15:14:09Z</time></trkpt><trkpt lat="43.11179653043019" lon="12.50562864572661"><ele>216.0</ele><time>2026-05-03T15:14:10Z</time></trkpt><trkpt lat="43.111984348478444" lon="12.505855746129882"><ele>216.0</ele><time>2026-05-03T15:14:11Z</time></trkpt><trkpt lat="43.11217776428075" lon="12.5060761425936"><ele>215.0</ele><time>2026-05-03T15:14:12Z</time></trkpt><trkpt lat="43.11237801612374" lon="12.50628512179442"><ele>214.0</ele><time>2026-05-03T15:14:13Z</time></trkpt><trkpt lat="43.11257975102944" lon="12.506485645409846"><ele>214.0</ele><time>2026-05-03T15:14:14Z</time></trkpt><trkpt lat="43.11279145474061" lon="12.506677833981682"><ele>214.0</ele><time>2026-05-03T15:14:15Z</time></trkpt><trkpt lat="43.113005248112295" lon="12.506866869592296"><ele>214.0</ele><time>2026-05-03T15:14:16Z</time></trkpt><trkpt lat="43.1132214959415" lon="12.50704869399331"><ele>214.0</ele><time>2026-05-03T15:14:17Z</time></trkpt><trkpt lat="43.11343995030979" lon="12.507233395360121"><ele>215.0</ele><time>2026-05-03T15:14:18Z</time></trkpt><trkpt lat="43.113664707863656" lon="12.50741809848566"><ele>216.0</ele><time>2026-05-03T15:14:19Z</time></trkpt><trkpt lat="43.11387172027453" lon="12.507590630549153"><ele>216.5</ele><time>2026-05-03T15:14:20Z</time></trkpt><trkpt lat="43.114099188461175" lon="12.507778735471037"><ele>217.0</ele><time>2026-05-03T15:14:21Z</time></trkpt><trkpt lat="43.11432903326709" lon="12.507968203905454"><ele>217.5</ele><time>2026-05-03T15:14:22Z</time></trkpt><trkpt lat="43.114559426950585" lon="12.508158005554753"><ele>218.0</ele><time>2026-05-03T15:14:23Z</time></trkpt><trkpt lat="43.11479300372335" lon="12.50834715943141"><ele>217.5</ele><time>2026-05-03T15:14:24Z</time></trkpt><trkpt lat="43.11502829223853" lon="12.508540638569832"><ele>217.0</ele><time>2026-05-03T15:14:25Z</time></trkpt><trkpt lat="43.11526211139702" lon="12.508737702145028"><ele>217.5</ele><time>2026-05-03T15:14:26Z</time></trkpt><trkpt lat="43.11548595308207" lon="12.508934039224874"><ele>218.0</ele><time>2026-05-03T15:14:27Z</time></trkpt><trkpt lat="43.115713567566544" lon="12.509132105291197"><ele>218.5</ele><time>2026-05-03T15:14:28Z</time></trkpt><trkpt lat="43.11593779942754" lon="12.509325834096249"><ele>219.0</ele><time>2026-05-03T15:14:29Z</time></trkpt><trkpt lat="43.11616110335291" lon="12.509512779821438"><ele>219.0</ele><time>2026-05-03T15:14:30Z</time></trkpt><trkpt lat="43.11638394541587" lon="12.509693418405327"><ele>219.0</ele><time>2026-05-03T15:14:31Z</time></trkpt><trkpt lat="43.11660180705257" lon="12.509877504838519"><ele>219.0</ele><time>2026-05-03T15:14:32Z</time></trkpt><trkpt lat="43.11682108237749" lon="12.510062719344473"><ele>219.0</ele><time>2026-05-03T15:14:33Z</time></trkpt><trkpt lat="43.11703954450928" lon="12.51023970352144"><ele>218.5</ele><time>2026-05-03T15:14:34Z</time></trkpt><trkpt lat="43.11726360121686" lon="12.510418720125806"><ele>218.0</ele><time>2026-05-03T15:14:35Z</time></trkpt><trkpt lat="43.117495063917566" lon="12.510602405607251"><ele>218.0</ele><time>2026-05-03T15:14:36Z</time></trkpt><trkpt lat="43.11772733640277" lon="12.510788616136587"><ele>218.0</ele><time>2026-05-03T15:14:37Z</time></trkpt><trkpt lat="43.117961913443125" lon="12.510974444721683"><ele>218.0</ele><time>2026-05-03T15:14:38Z</time></trkpt><trkpt lat="43.11819998430479" lon="12.511163382512017"><ele>218.0</ele><time>2026-05-03T15:14:39Z</time></trkpt><trkpt lat="43.11843853611429" lon="12.511357612845318"><ele>218.0</ele><time>2026-05-03T15:14:40Z</time></trkpt><trkpt lat="43.11867909013008" lon="12.511559808989741"><ele>218.0</ele><time>2026-05-03T15:14:41Z</time></trkpt><trkpt lat="43.11891884415519" lon="12.511755799115221"><ele>218.5</ele><time>2026-05-03T15:14:42Z</time></trkpt><trkpt lat="43.11915389375204" lon="12.511946986208601"><ele>219.0</ele><time>2026-05-03T15:14:43Z</time></trkpt><trkpt lat="43.11938933818766" lon="12.512142900885397"><ele>217.5</ele><time>2026-05-03T15:14:44Z</time></trkpt><trkpt lat="43.119627185835746" lon="12.512337898130092"><ele>216.0</ele><time>2026-05-03T15:14:45Z</time></trkpt><trkpt lat="43.11986178299912" lon="12.512529259182735"><ele>216.5</ele><time>2026-05-03T15:14:46Z</time></trkpt><trkpt lat="43.12009600563591" lon="12.512723272710396"><ele>217.0</ele><time>2026-05-03T15:14:47Z</time></trkpt><trkpt lat="43.12033002519806" lon="12.512918245312074"><ele>217.0</ele><time>2026-05-03T15:14:48Z</time></trkpt><trkpt lat="43.120566595777895" lon="12.513113740332077"><ele>217.0</ele><time>2026-05-03T15:14:49Z</time></trkpt><trkpt lat="43.120802967966185" lon="12.513308342071705"><ele>217.0</ele><time>2026-05-03T15:14:50Z</time></trkpt><trkpt lat="43.12103707246362" lon="12.513498134628842"><ele>217.0</ele><time>2026-05-03T15:14:51Z</time></trkpt><trkpt lat="43.121270232068575" lon="12.513689549837077"><ele>217.0</ele><time>2026-05-03T15:14:52Z</time></trkpt><trkpt lat="43.12150216600423" lon="12.513882104330323"><ele>217.0</ele><time>2026-05-03T15:14:53Z</time></trkpt><trkpt lat="43.12173443710072" lon="12.514076867974552"><ele>217.0</ele><time>2026-05-03T15:14:54Z</time></trkpt><trkpt lat="43.12196673272952" lon="12.514272263773734"><ele>217.0</ele><time>2026-05-03T15:14:55Z</time></trkpt><trkpt lat="43.122198279584154" lon="12.514468168696261"><ele>217.5</ele><time>2026-05-03T15:14:56Z</time></trkpt><trkpt lat="43.12242939534548" lon="12.514665949726957"><ele>218.0</ele><time>2026-05-03T15:14:57Z</time></trkpt><trkpt lat="43.12265868215193" lon="12.514863154902862"><ele>218.0</ele><time>2026-05-03T15:14:58Z</time></trkpt><trkpt lat="43.122889165895714" lon="12.515058775312589"><ele>218.0</ele><time>2026-05-03T15:14:59Z</time></trkpt><trkpt lat="43.12311788747729" lon="12.51525051813165"><ele>219.5</ele><time>2026-05-03T15:15:00Z</time></trkpt><trkpt lat="43.123347675850695" lon="12.515444403792705"><ele>221.0</ele><time>2026-05-03T15:15:01Z</time></trkpt><trkpt lat="43.12357511462011" lon="12.515633384202442"><ele>221.0</ele><time>2026-05-03T15:15:02Z</time></trkpt><trkpt lat="43.123802663011624" lon="12.515823156735987"><ele>221.0</ele><time>2026-05-03T15:15:03Z</time></trkpt><trkpt lat="43.124032584687804" lon="12.51601942853674"><ele>221.0</ele><time>2026-05-03T15:15:04Z</time></trkpt><trkpt lat="43.12426393673087" lon="12.516208155186364"><ele>221.0</ele><time>2026-05-03T15:15:05Z</time></trkpt><trkpt lat="43.12449930602349" lon="12.51640925660135"><ele>221.0</ele><time>2026-05-03T15:15:06Z</time></trkpt><trkpt lat="43.12473454499916" lon="12.51660098473109"><ele>221.0</ele><time>2026-05-03T15:15:07Z</time></trkpt><trkpt lat="43.12497097760812" lon="12.51679297299338"><ele>221.0</ele><time>2026-05-03T15:15:08Z</time></trkpt><trkpt lat="43.12520693990774" lon="12.51698426412696"><ele>221.0</ele><time>2026-05-03T15:15:09Z</time></trkpt><trkpt lat="43.12544393554777" lon="12.517175304429715"><ele>221.0</ele><time>2026-05-03T15:15:10Z</time></trkpt><trkpt lat="43.12568270346942" lon="12.517365753357709"><ele>221.0</ele><time>2026-05-03T15:15:11Z</time></trkpt><trkpt lat="43.12592449070476" lon="12.51754209841223"><ele>220.0</ele><time>2026-05-03T15:15:12Z</time></trkpt><trkpt lat="43.12616669439128" lon="12.517708565339358"><ele>219.0</ele><time>2026-05-03T15:15:13Z</time></trkpt><trkpt lat="43.12640938453779" lon="12.517870175800295"><ele>219.5</ele><time>2026-05-03T15:15:14Z</time></trkpt><trkpt lat="43.126624275282595" lon="12.51816216207424"><ele>220.0</ele><time>2026-05-03T15:15:14.999Z</time></trkpt><trkpt lat="43.12685971304367" lon="12.518353444042134"><ele>220.0</ele><time>2026-05-03T15:15:15.999Z</time></trkpt><trkpt lat="43.127094486093036" lon="12.518546151479967"><ele>220.0</ele><time>2026-05-03T15:15:16.999Z</time></trkpt><trkpt lat="43.12732668432234" lon="12.518733411117497"><ele>220.0</ele><time>2026-05-03T15:15:17.999Z</time></trkpt><trkpt lat="43.12755778004142" lon="12.518916540163623"><ele>220.0</ele><time>2026-05-03T15:15:18.999Z</time></trkpt><trkpt lat="43.12778172798516" lon="12.519100610354363"><ele>220.0</ele><time>2026-05-03T15:15:19.999Z</time></trkpt><trkpt lat="43.12800264346675" lon="12.5192906644253"><ele>220.0</ele><time>2026-05-03T15:15:20.999Z</time></trkpt><trkpt lat="43.12823004202929" lon="12.519478095792829"><ele>220.0</ele><time>2026-05-03T15:15:21.999Z</time></trkpt><trkpt lat="43.12845831012323" lon="12.51966572509245"><ele>220.0</ele><time>2026-05-03T15:15:22.999Z</time></trkpt><trkpt lat="43.12868277814356" lon="12.519847605453972"><ele>220.0</ele><time>2026-05-03T15:15:23.999Z</time></trkpt><trkpt lat="43.12891039414879" lon="12.520034577884815"><ele>220.0</ele><time>2026-05-03T15:15:24.999Z</time></trkpt><trkpt lat="43.12913609055584" lon="12.520222642333003"><ele>220.5</ele><time>2026-05-03T15:15:25.999Z</time></trkpt><trkpt lat="43.12936128797091" lon="12.520408110825763"><ele>221.0</ele><time>2026-05-03T15:15:26.999Z</time></trkpt><trkpt lat="43.1295872825692" lon="12.520588830877669"><ele>221.0</ele><time>2026-05-03T15:15:27.999Z</time></trkpt><trkpt lat="43.12981042398559" lon="12.52077290489912"><ele>221.0</ele><time>2026-05-03T15:15:28.999Z</time></trkpt><trkpt lat="43.13003516889874" lon="12.520959061971784"><ele>221.5</ele><time>2026-05-03T15:15:29.999Z</time></trkpt><trkpt lat="43.130260007897824" lon="12.521147534505761"><ele>222.0</ele><time>2026-05-03T15:15:30.999Z</time></trkpt><trkpt lat="43.13048735838058" lon="12.521333059900392"><ele>222.0</ele><time>2026-05-03T15:15:31.999Z</time></trkpt><trkpt lat="43.130715263532956" lon="12.521524172002055"><ele>222.0</ele><time>2026-05-03T15:15:32.999Z</time></trkpt><trkpt lat="43.13094456524352" lon="12.521713733469307"><ele>222.0</ele><time>2026-05-03T15:15:33.999Z</time></trkpt><trkpt lat="43.13117143934981" lon="12.52190411532353"><ele>222.0</ele><time>2026-05-03T15:15:34.999Z</time></trkpt><trkpt lat="43.1313986688094" lon="12.522094806864805"><ele>222.5</ele><time>2026-05-03T15:15:35.999Z</time></trkpt><trkpt lat="43.13162784850823" lon="12.522285022437552"><ele>223.0</ele><time>2026-05-03T15:15:36.999Z</time></trkpt><trkpt lat="43.13185451316434" lon="12.522461151610358"><ele>223.0</ele><time>2026-05-03T15:15:37.999Z</time></trkpt><trkpt lat="43.1320882484955" lon="12.522646986353848"><ele>223.0</ele><time>2026-05-03T15:15:38.999Z</time></trkpt><trkpt lat="43.13232066907316" lon="12.522847675708583"><ele>224.5</ele><time>2026-05-03T15:15:39.999Z</time></trkpt><trkpt lat="43.13255227408679" lon="12.52304639624272"><ele>226.0</ele><time>2026-05-03T15:15:40.999Z</time></trkpt><trkpt lat="43.132783805893816" lon="12.523244458345918"><ele>226.0</ele><time>2026-05-03T15:15:41.999Z</time></trkpt><trkpt lat="43.1330136404203" lon="12.523446140340123"><ele>226.0</ele><time>2026-05-03T15:15:42.999Z</time></trkpt><trkpt lat="43.13324533727851" lon="12.523657007345221"><ele>226.5</ele><time>2026-05-03T15:15:43.999Z</time></trkpt><trkpt lat="43.133476728456024" lon="12.523873669441391"><ele>227.0</ele><time>2026-05-03T15:15:44.999Z</time></trkpt><trkpt lat="43.133697171091775" lon="12.52409887942866"><ele>227.0</ele><time>2026-05-03T15:15:45.999Z</time></trkpt><trkpt lat="43.13391586556998" lon="12.524351635616764"><ele>227.0</ele><time>2026-05-03T15:15:46.999Z</time></trkpt><trkpt lat="43.13413327805305" lon="12.52459339306269"><ele>227.0</ele><time>2026-05-03T15:15:47.999Z</time></trkpt><trkpt lat="43.13433557052742" lon="12.524851975547577"><ele>227.0</ele><time>2026-05-03T15:15:48.999Z</time></trkpt><trkpt lat="43.134531906901984" lon="12.525116266003714"><ele>227.0</ele><time>2026-05-03T15:15:49.999Z</time></trkpt><trkpt lat="43.134725161519064" lon="12.52538898654162"><ele>227.0</ele><time>2026-05-03T15:15:50.999Z</time></trkpt><trkpt lat="43.134901954261004" lon="12.525668662131688"><ele>226.5</ele><time>2026-05-03T15:15:51.999Z</time></trkpt><trkpt lat="43.13507144804463" lon="12.52596472199692"><ele>226.0</ele><time>2026-05-03T15:15:52.999Z</time></trkpt><trkpt lat="43.13523141007747" lon="12.526268497407441"><ele>226.0</ele><time>2026-05-03T15:15:53.999Z</time></trkpt><trkpt lat="43.1353848417821" lon="12.526581094526065"><ele>226.0</ele><time>2026-05-03T15:15:54.999Z</time></trkpt><trkpt lat="43.135534119504385" lon="12.52690743234141"><ele>225.5</ele><time>2026-05-03T15:15:55.999Z</time></trkpt><trkpt lat="43.13567599430934" lon="12.527235925102437"><ele>225.0</ele><time>2026-05-03T15:15:56.999Z</time></trkpt><trkpt lat="43.135809670370584" lon="12.527570127586879"><ele>225.5</ele><time>2026-05-03T15:15:57.999Z</time></trkpt><trkpt lat="43.1359334793737" lon="12.527908519039963"><ele>226.0</ele><time>2026-05-03T15:15:58.999Z</time></trkpt><trkpt lat="43.136045154028714" lon="12.528268165151513"><ele>226.0</ele><time>2026-05-03T15:15:59.999Z</time></trkpt><trkpt lat="43.13615028480574" lon="12.528628580256076"><ele>226.0</ele><time>2026-05-03T15:16:00.999Z</time></trkpt><trkpt lat="43.13624524884708" lon="12.529000359048958"><ele>225.5</ele><time>2026-05-03T15:16:01.999Z</time></trkpt><trkpt lat="43.13633392233288" lon="12.529378211254212"><ele>225.0</ele><time>2026-05-03T15:16:02.999Z</time></trkpt><trkpt lat="43.13641864422773" lon="12.529766162600994"><ele>225.0</ele><time>2026-05-03T15:16:03.999Z</time></trkpt><trkpt lat="43.136501234276295" lon="12.530165091087202"><ele>225.0</ele><time>2026-05-03T15:16:04.999Z</time></trkpt><trkpt lat="43.13658418142996" lon="12.530569441910327"><ele>225.5</ele><time>2026-05-03T15:16:05.999Z</time></trkpt><trkpt lat="43.13666682869634" lon="12.530982049293035"><ele>226.0</ele><time>2026-05-03T15:16:06.999Z</time></trkpt><trkpt lat="43.136746150923685" lon="12.531401450538821"><ele>225.0</ele><time>2026-05-03T15:16:08Z</time></trkpt><trkpt lat="43.136826125466975" lon="12.531820023655637"><ele>224.0</ele><time>2026-05-03T15:16:09Z</time></trkpt><trkpt lat="43.13691109440897" lon="12.532237538518345"><ele>224.0</ele><time>2026-05-03T15:16:10Z</time></trkpt><trkpt lat="43.13699833676501" lon="12.532640634911305"><ele>224.0</ele><time>2026-05-03T15:16:11Z</time></trkpt><trkpt lat="43.13708797377165" lon="12.53305104692346"><ele>224.0</ele><time>2026-05-03T15:16:12Z</time></trkpt><trkpt lat="43.13717672210326" lon="12.533460154232694"><ele>224.0</ele><time>2026-05-03T15:16:13Z</time></trkpt><trkpt lat="43.13726359760813" lon="12.533879664078837"><ele>223.5</ele><time>2026-05-03T15:16:14Z</time></trkpt><trkpt lat="43.13735005433371" lon="12.5342886451648"><ele>223.0</ele><time>2026-05-03T15:16:15Z</time></trkpt><trkpt lat="43.1374347925963" lon="12.53469668182477"><ele>223.5</ele><time>2026-05-03T15:16:16Z</time></trkpt><trkpt lat="43.13751932033505" lon="12.535102881279114"><ele>224.0</ele><time>2026-05-03T15:16:17Z</time></trkpt><trkpt lat="43.13760322359959" lon="12.535504117378478"><ele>224.0</ele><time>2026-05-03T15:16:18Z</time></trkpt><trkpt lat="43.137687226001624" lon="12.535904938477653"><ele>224.0</ele><time>2026-05-03T15:16:19Z</time></trkpt><trkpt lat="43.13777117231396" lon="12.536298048739216"><ele>224.0</ele><time>2026-05-03T15:16:20Z</time></trkpt><trkpt lat="43.1378561398068" lon="12.536697074442138"><ele>224.0</ele><time>2026-05-03T15:16:21Z</time></trkpt><trkpt lat="43.137940683351665" lon="12.537090630538826"><ele>223.0</ele><time>2026-05-03T15:16:22Z</time></trkpt><trkpt lat="43.138024224005775" lon="12.537479251694577"><ele>222.0</ele><time>2026-05-03T15:16:23Z</time></trkpt><trkpt lat="43.13810514956509" lon="12.53785570635745"><ele>222.0</ele><time>2026-05-03T15:16:24Z</time></trkpt><trkpt lat="43.138182799153334" lon="12.538234455610457"><ele>222.0</ele><time>2026-05-03T15:16:25Z</time></trkpt><trkpt lat="43.13824950762175" lon="12.53860664138241"><ele>223.0</ele><time>2026-05-03T15:16:26Z</time></trkpt><trkpt lat="43.13831136372737" lon="12.538989412151547"><ele>224.0</ele><time>2026-05-03T15:16:27Z</time></trkpt><trkpt lat="43.13836668046106" lon="12.539361874930767"><ele>225.5</ele><time>2026-05-03T15:16:28Z</time></trkpt><trkpt lat="43.13841652551457" lon="12.539731266906605"><ele>227.0</ele><time>2026-05-03T15:16:29Z</time></trkpt><trkpt lat="43.138454685745735" lon="12.540104314113984"><ele>228.0</ele><time>2026-05-03T15:16:30Z</time></trkpt><trkpt lat="43.13848073060216" lon="12.540472965790547"><ele>229.0</ele><time>2026-05-03T15:16:31Z</time></trkpt><trkpt lat="43.13849767982849" lon="12.540845354910015"><ele>231.0</ele><time>2026-05-03T15:16:32Z</time></trkpt><trkpt lat="43.13850941654302" lon="12.541217424329446"><ele>233.0</ele><time>2026-05-03T15:16:33Z</time></trkpt><trkpt lat="43.13851499934849" lon="12.541584363769255"><ele>233.0</ele><time>2026-05-03T15:16:34Z</time></trkpt><trkpt lat="43.13851419459155" lon="12.541955434017531"><ele>233.0</ele><time>2026-05-03T15:16:35Z</time></trkpt><trkpt lat="43.138514204377934" lon="12.542329736885751"><ele>234.0</ele><time>2026-05-03T15:16:36Z</time></trkpt><trkpt lat="43.138515110567546" lon="12.542693651292964"><ele>235.0</ele><time>2026-05-03T15:16:37Z</time></trkpt><trkpt lat="43.13851532906808" lon="12.54305162562366"><ele>239.0</ele><time>2026-05-03T15:16:38Z</time></trkpt><trkpt lat="43.1385157832712" lon="12.543405283913165"><ele>243.0</ele><time>2026-05-03T15:16:39Z</time></trkpt><trkpt lat="43.13852188524814" lon="12.543752389352768"><ele>245.5</ele><time>2026-05-03T15:16:40Z</time></trkpt><trkpt lat="43.13853648856493" lon="12.54409871244965"><ele>248.0</ele><time>2026-05-03T15:16:41Z</time></trkpt><trkpt lat="43.13855374586822" lon="12.544455798784272"><ele>250.0</ele><time>2026-05-03T15:16:42Z</time></trkpt><trkpt lat="43.138570047257325" lon="12.544822754262553"><ele>252.0</ele><time>2026-05-03T15:16:43Z</time></trkpt><trkpt lat="43.13858693511765" lon="12.545193918550838"><ele>254.5</ele><time>2026-05-03T15:16:44Z</time></trkpt><trkpt lat="43.13860207525428" lon="12.54556489295524"><ele>257.0</ele><time>2026-05-03T15:16:45Z</time></trkpt><trkpt lat="43.1386167718733" lon="12.545956068686266"><ele>260.0</ele><time>2026-05-03T15:16:46.07Z</time></trkpt><trkpt lat="43.13863884905547" lon="12.546332803040842"><ele>263.0</ele><time>2026-05-03T15:16:47.068Z</time></trkpt><trkpt lat="43.13868854549588" lon="12.546708350652603"><ele>263.0</ele><time>2026-05-03T15:16:48.064Z</time></trkpt><trkpt lat="43.1387194" lon="12.5463867"><ele>263.0</ele><time>2026-05-03T15:16:51.41Z</time></trkpt><trkpt lat="43.14238481478947" lon="12.557341368551223"><ele>248.0</ele><time>2026-05-03T15:17:15Z</time></trkpt><trkpt lat="43.1426196693473" lon="12.557744647510498"><ele>233.0</ele><time>2026-05-03T15:17:16Z</time></trkpt><trkpt lat="43.142808363568754" lon="12.558075526980621"><ele>232.5</ele><time>2026-05-03T15:17:17Z</time></trkpt><trkpt lat="43.14300054785333" lon="12.558453286258722"><ele>232.0</ele><time>2026-05-03T15:17:18Z</time></trkpt><trkpt lat="43.14317887427033" lon="12.558839354581863"><ele>232.5</ele><time>2026-05-03T15:17:19Z</time></trkpt><trkpt lat="43.1433563672062" lon="12.559223236903389"><ele>233.0</ele><time>2026-05-03T15:17:20Z</time></trkpt><trkpt lat="43.14352778317406" lon="12.559603180688368"><ele>234.5</ele><time>2026-05-03T15:17:21Z</time></trkpt><trkpt lat="43.14370000541424" lon="12.559962721860536"><ele>236.0</ele><time>2026-05-03T15:17:22Z</time></trkpt><trkpt lat="43.143859786442604" lon="12.56031347806898"><ele>236.5</ele><time>2026-05-03T15:17:23Z</time></trkpt><trkpt lat="43.14401509098426" lon="12.560649448584437"><ele>237.0</ele><time>2026-05-03T15:17:24Z</time></trkpt><trkpt lat="43.1441718696324" lon="12.560986094717782"><ele>240.5</ele><time>2026-05-03T15:17:25Z</time></trkpt><trkpt lat="43.14433997759911" lon="12.561335401299804"><ele>244.0</ele><time>2026-05-03T15:17:26Z</time></trkpt><trkpt lat="43.14609781662858" lon="12.565142339075704"><ele>241.5</ele><time>2026-05-03T15:17:38Z</time></trkpt><trkpt lat="43.146228830021215" lon="12.565457004799677"><ele>239.0</ele><time>2026-05-03T15:17:39Z</time></trkpt><trkpt lat="43.146352689441514" lon="12.565770442576955"><ele>239.0</ele><time>2026-05-03T15:17:40Z</time></trkpt><trkpt lat="43.14647242181295" lon="12.566099615263182"><ele>239.0</ele><time>2026-05-03T15:17:41Z</time></trkpt><trkpt lat="43.11004972143867" lon="12.500523912947685"><ele>233.0</ele><time>2026-05-03T15:13:40.408Z</time></trkpt><trkpt lat="43.11028575145562" lon="12.501963694183205"><ele>231.0</ele><time>2026-05-03T15:13:56.999Z</time></trkpt><trkpt lat="43.11031632708792" lon="12.502259259750156"><ele>229.0</ele><time>2026-05-03T15:13:57.999Z</time></trkpt><trkpt lat="43.11038400955276" lon="12.50254888996793"><ele>227.0</ele><time>2026-05-03T15:13:58.999Z</time></trkpt><trkpt lat="43.110468201320444" lon="12.502848704376934"><ele>224.5</ele><time>2026-05-03T15:13:59.999Z</time></trkpt><trkpt lat="43.1105622593421" lon="12.503150407125062"><ele>222.0</ele><time>2026-05-03T15:14:00.999Z</time></trkpt><trkpt lat="43.110660084903536" lon="12.503454464475091"><ele>222.5</ele><time>2026-05-03T15:14:01.999Z</time></trkpt><trkpt lat="43.11077464888418" lon="12.5037429623586"><ele>223.0</ele><time>2026-05-03T15:14:02.999Z</time></trkpt><trkpt lat="43.110894994145944" lon="12.504035106001282"><ele>221.5</ele><time>2026-05-03T15:14:03.999Z</time></trkpt><trkpt lat="43.11102163522569" lon="12.504325668281762"><ele>220.0</ele><time>2026-05-03T15:14:04.999Z</time></trkpt><trkpt lat="43.11115384005586" lon="12.504599287058499"><ele>218.0</ele><time>2026-05-03T15:14:06Z</time></trkpt><trkpt lat="43.11130223555846" lon="12.504871040492905"><ele>216.0</ele><time>2026-05-03T15:14:07Z</time></trkpt><trkpt lat="43.111459672110485" lon="12.505132195269523"><ele>216.0</ele><time>2026-05-03T15:14:08Z</time></trkpt><trkpt lat="43.111622860374716" lon="12.505386547155421"><ele>216.0</ele><time>2026-05-03T15:14:09Z</time></trkpt><trkpt lat="43.11179653043019" lon="12.50562864572661"><ele>216.0</ele><time>2026-05-03T15:14:10Z</time></trkpt><trkpt lat="43.111984348478444" lon="12.505855746129882"><ele>216.0</ele><time>2026-05-03T15:14:11Z</time></trkpt><trkpt lat="43.11217776428075" lon="12.5060761425936"><ele>215.0</ele><time>2026-05-03T15:14:12Z</time></trkpt><trkpt lat="43.11237801612374" lon="12.50628512179442"><ele>214.0</ele><time>2026-05-03T15:14:13Z</time></trkpt><trkpt lat="43.11257975102944" lon="12.506485645409846"><ele>214.0</ele><time>2026-05-03T15:14:14Z</time></trkpt><trkpt lat="43.11279145474061" lon="12.506677833981682"><ele>214.0</ele><time>2026-05-03T15:14:15Z</time></trkpt><trkpt lat="43.113005248112295" lon="12.506866869592296"><ele>214.0</ele><time>2026-05-03T15:14:16Z</time></trkpt><trkpt lat="43.1132214959415" lon="12.50704869399331"><ele>214.0</ele><time>2026-05-03T15:14:17Z</time></trkpt><trkpt lat="43.11343995030979" lon="12.507233395360121"><ele>215.0</ele><time>2026-05-03T15:14:18Z</time></trkpt><trkpt lat="43.113664707863656" lon="12.50741809848566"><ele>216.0</ele><time>2026-05-03T15:14:19Z</time></trkpt><trkpt lat="43.11387172027453" lon="12.507590630549153"><ele>216.5</ele><time>2026-05-03T15:14:20Z</time></trkpt><trkpt lat="43.114099188461175" lon="12.507778735471037"><ele>217.0</ele><time>2026-05-03T15:14:21Z</time></trkpt><trkpt lat="43.11432903326709" lon="12.507968203905454"><ele>217.5</ele><time>2026-05-03T15:14:22Z</time></trkpt><trkpt lat="43.114559426950585" lon="12.508158005554753"><ele>218.0</ele><time>2026-05-03T15:14:23Z</time></trkpt><trkpt lat="43.11479300372335" lon="12.50834715943141"><ele>217.5</ele><time>2026-05-03T15:14:24Z</time></trkpt><trkpt lat="43.11502829223853" lon="12.508540638569832"><ele>217.0</ele><time>2026-05-03T15:14:25Z</time></trkpt><trkpt lat="43.11526211139702" lon="12.508737702145028"><ele>217.5</ele><time>2026-05-03T15:14:26Z</time></trkpt><trkpt lat="43.11548595308207" lon="12.508934039224874"><ele>218.0</ele><time>2026-05-03T15:14:27Z</time></trkpt><trkpt lat="43.115713567566544" lon="12.509132105291197"><ele>218.5</ele><time>2026-05-03T15:14:28Z</time></trkpt><trkpt lat="43.11593779942754" lon="12.509325834096249"><ele>219.0</ele><time>2026-05-03T15:14:29Z</time></trkpt><trkpt lat="43.11616110335291" lon="12.509512779821438"><ele>219.0</ele><time>2026-05-03T15:14:30Z</time></trkpt><trkpt lat="43.11638394541587" lon="12.509693418405327"><ele>219.0</ele><time>2026-05-03T15:14:31Z</time></trkpt><trkpt lat="43.11660180705257" lon="12.509877504838519"><ele>219.0</ele><time>2026-05-03T15:14:32Z</time></trkpt><trkpt lat="43.11682108237749" lon="12.510062719344473"><ele>219.0</ele><time>2026-05-03T15:14:33Z</time></trkpt><trkpt lat="43.11703954450928" lon="12.51023970352144"><ele>218.5</ele><time>2026-05-03T15:14:34Z</time></trkpt><trkpt lat="43.11726360121686" lon="12.510418720125806"><ele>218.0</ele><time>2026-05-03T15:14:35Z</time></trkpt><trkpt lat="43.117495063917566" lon="12.510602405607251"><ele>218.0</ele><time>2026-05-03T15:14:36Z</time></trkpt><trkpt lat="43.11772733640277" lon="12.510788616136587"><ele>218.0</ele><time>2026-05-03T15:14:37Z</time></trkpt><trkpt lat="43.117961913443125" lon="12.510974444721683"><ele>218.0</ele><time>2026-05-03T15:14:38Z</time></trkpt><trkpt lat="43.11819998430479" lon="12.511163382512017"><ele>218.0</ele><time>2026-05-03T15:14:39Z</time></trkpt><trkpt lat="43.11843853611429" lon="12.511357612845318"><ele>218.0</ele><time>2026-05-03T15:14:40Z</time></trkpt><trkpt lat="43.11867909013008" lon="12.511559808989741"><ele>218.0</ele><time>2026-05-03T15:14:41Z</time></trkpt><trkpt lat="43.11891884415519" lon="12.511755799115221"><ele>218.5</ele><time>2026-05-03T15:14:42Z</time></trkpt><trkpt lat="43.11915389375204" lon="12.511946986208601"><ele>219.0</ele><time>2026-05-03T15:14:43Z</time></trkpt><trkpt lat="43.11938933818766" lon="12.512142900885397"><ele>217.5</ele><time>2026-05-03T15:14:44Z</time></trkpt><trkpt lat="43.119627185835746" lon="12.512337898130092"><ele>216.0</ele><time>2026-05-03T15:14:45Z</time></trkpt><trkpt lat="43.11986178299912" lon="12.512529259182735"><ele>216.5</ele><time>2026-05-03T15:14:46Z</time></trkpt><trkpt lat="43.12009600563591" lon="12.512723272710396"><ele>217.0</ele><time>2026-05-03T15:14:47Z</time></trkpt><trkpt lat="43.12033002519806" lon="12.512918245312074"><ele>217.0</ele><time>2026-05-03T15:14:48Z</time></trkpt><trkpt lat="43.120566595777895" lon="12.513113740332077"><ele>217.0</ele><time>2026-05-03T15:14:49Z</time></trkpt><trkpt lat="43.120802967966185" lon="12.513308342071705"><ele>217.0</ele><time>2026-05-03T15:14:50Z</time></trkpt><trkpt lat="43.12103707246362" lon="12.513498134628842"><ele>217.0</ele><time>2026-05-03T15:14:51Z</time></trkpt><trkpt lat="43.121270232068575" lon="12.513689549837077"><ele>217.0</ele><time>2026-05-03T15:14:52Z</time></trkpt><trkpt lat="43.12150216600423" lon="12.513882104330323"><ele>217.0</ele><time>2026-05-03T15:14:53Z</time></trkpt><trkpt lat="43.12173443710072" lon="12.514076867974552"><ele>217.0</ele><time>2026-05-03T15:14:54Z</time></trkpt><trkpt lat="43.12196673272952" lon="12.514272263773734"><ele>217.0</ele><time>2026-05-03T15:14:55Z</time></trkpt><trkpt lat="43.122198279584154" lon="12.514468168696261"><ele>217.5</ele><time>2026-05-03T15:14:56Z</time></trkpt><trkpt lat="43.12242939534548" lon="12.514665949726957"><ele>218.0</ele><time>2026-05-03T15:14:57Z</time></trkpt><trkpt lat="43.12265868215193" lon="12.514863154902862"><ele>218.0</ele><time>2026-05-03T15:14:58Z</time></trkpt><trkpt lat="43.122889165895714" lon="12.515058775312589"><ele>218.0</ele><time>2026-05-03T15:14:59Z</time></trkpt><trkpt lat="43.12311788747729" lon="12.51525051813165"><ele>219.5</ele><time>2026-05-03T15:15:00Z</time></trkpt><trkpt lat="43.123347675850695" lon="12.515444403792705"><ele>221.0</ele><time>2026-05-03T15:15:01Z</time></trkpt><trkpt lat="43.12357511462011" lon="12.515633384202442"><ele>221.0</ele><time>2026-05-03T15:15:02Z</time></trkpt><trkpt lat="43.123802663011624" lon="12.515823156735987"><ele>221.0</ele><time>2026-05-03T15:15:03Z</time></trkpt><trkpt lat="43.124032584687804" lon="12.51601942853674"><ele>221.0</ele><time>2026-05-03T15:15:04Z</time></trkpt><trkpt lat="43.12426393673087" lon="12.516208155186364"><ele>221.0</ele><time>2026-05-03T15:15:05Z</time></trkpt><trkpt lat="43.12449930602349" lon="12.51640925660135"><ele>221.0</ele><time>2026-05-03T15:15:06Z</time></trkpt><trkpt lat="43.12473454499916" lon="12.51660098473109"><ele>221.0</ele><time>2026-05-03T15:15:07Z</time></trkpt><trkpt lat="43.12497097760812" lon="12.51679297299338"><ele>221.0</ele><time>2026-05-03T15:15:08Z</time></trkpt><trkpt lat="43.12520693990774" lon="12.51698426412696"><ele>221.0</ele><time>2026-05-03T15:15:09Z</time></trkpt><trkpt lat="43.12544393554777" lon="12.517175304429715"><ele>221.0</ele><time>2026-05-03T15:15:10Z</time></trkpt><trkpt lat="43.12568270346942" lon="12.517365753357709"><ele>221.0</ele><time>2026-05-03T15:15:11Z</time></trkpt><trkpt lat="43.12592449070476" lon="12.51754209841223"><ele>220.0</ele><time>2026-05-03T15:15:12Z</time></trkpt><trkpt lat="43.12616669439128" lon="12.517708565339358"><ele>219.0</ele><time>2026-05-03T15:15:13Z</time></trkpt><trkpt lat="43.12640938453779" lon="12.517870175800295"><ele>219.5</ele><time>2026-05-03T15:15:14Z</time></trkpt><trkpt lat="43.126624275282595" lon="12.51816216207424"><ele>220.0</ele><time>2026-05-03T15:15:14.999Z</time></trkpt><trkpt lat="43.12685971304367" lon="12.518353444042134"><ele>220.0</ele><time>2026-05-03T15:15:15.999Z</time></trkpt><trkpt lat="43.127094486093036" lon="12.518546151479967"><ele>220.0</ele><time>2026-05-03T15:15:16.999Z</time></trkpt><trkpt lat="43.12732668432234" lon="12.518733411117497"><ele>220.0</ele><time>2026-05-03T15:15:17.999Z</time></trkpt><trkpt lat="43.12755778004142" lon="12.518916540163623"><ele>220.0</ele><time>2026-05-03T15:15:18.999Z</time></trkpt><trkpt lat="43.12778172798516" lon="12.519100610354363"><ele>220.0</ele><time>2026-05-03T15:15:19.999Z</time></trkpt><trkpt lat="43.12800264346675" lon="12.5192906644253"><ele>220.0</ele><time>2026-05-03T15:15:20.999Z</time></trkpt><trkpt lat="43.12823004202929" lon="12.519478095792829"><ele>220.0</ele><time>2026-05-03T15:15:21.999Z</time></trkpt><trkpt lat="43.12845831012323" lon="12.51966572509245"><ele>220.0</ele><time>2026-05-03T15:15:22.999Z</time></trkpt><trkpt lat="43.12868277814356" lon="12.519847605453972"><ele>220.0</ele><time>2026-05-03T15:15:23.999Z</time></trkpt><trkpt lat="43.12891039414879" lon="12.520034577884815"><ele>220.0</ele><time>2026-05-03T15:15:24.999Z</time></trkpt><trkpt lat="43.12913609055584" lon="12.520222642333003"><ele>220.5</ele><time>2026-05-03T15:15:25.999Z</time></trkpt><trkpt lat="43.12936128797091" lon="12.520408110825763"><ele>221.0</ele><time>2026-05-03T15:15:26.999Z</time></trkpt><trkpt lat="43.1295872825692" lon="12.520588830877669"><ele>221.0</ele><time>2026-05-03T15:15:27.999Z</time></trkpt><trkpt lat="43.12981042398559" lon="12.52077290489912"><ele>221.0</ele><time>2026-05-03T15:15:28.999Z</time></trkpt><trkpt lat="43.13003516889874" lon="12.520959061971784"><ele>221.5</ele><time>2026-05-03T15:15:29.999Z</time></trkpt><trkpt lat="43.130260007897824" lon="12.521147534505761"><ele>222.0</ele><time>2026-05-03T15:15:30.999Z</time></trkpt><trkpt lat="43.13048735838058" lon="12.521333059900392"><ele>222.0</ele><time>2026-05-03T15:15:31.999Z</time></trkpt><trkpt lat="43.130715263532956" lon="12.521524172002055"><ele>222.0</ele><time>2026-05-03T15:15:32.999Z</time></trkpt><trkpt lat="43.13094456524352" lon="12.521713733469307"><ele>222.0</ele><time>2026-05-03T15:15:33.999Z</time></trkpt><trkpt lat="43.13117143934981" lon="12.52190411532353"><ele>222.0</ele><time>2026-05-03T15:15:34.999Z</time></trkpt><trkpt lat="43.1313986688094" lon="12.522094806864805"><ele>222.5</ele><time>2026-05-03T15:15:35.999Z</time></trkpt><trkpt lat="43.13162784850823" lon="12.522285022437552"><ele>223.0</ele><time>2026-05-03T15:15:36.999Z</time></trkpt><trkpt lat="43.13185451316434" lon="12.522461151610358"><ele>223.0</ele><time>2026-05-03T15:15:37.999Z</time></trkpt><trkpt lat="43.1320882484955" lon="12.522646986353848"><ele>223.0</ele><time>2026-05-03T15:15:38.999Z</time></trkpt><trkpt lat="43.13232066907316" lon="12.522847675708583"><ele>224.5</ele><time>2026-05-03T15:15:39.999Z</time></trkpt><trkpt lat="43.13255227408679" lon="12.52304639624272"><ele>226.0</ele><time>2026-05-03T15:15:40.999Z</time></trkpt><trkpt lat="43.132783805893816" lon="12.523244458345918"><ele>226.0</ele><time>2026-05-03T15:15:41.999Z</time></trkpt><trkpt lat="43.1330136404203" lon="12.523446140340123"><ele>226.0</ele><time>2026-05-03T15:15:42.999Z</time></trkpt><trkpt lat="43.13324533727851" lon="12.523657007345221"><ele>226.5</ele><time>2026-05-03T15:15:43.999Z</time></trkpt><trkpt lat="43.133476728456024" lon="12.523873669441391"><ele>227.0</ele><time>2026-05-03T15:15:44.999Z</time></trkpt><trkpt lat="43.133697171091775" lon="12.52409887942866"><ele>227.0</ele><time>2026-05-03T15:15:45.999Z</time></trkpt><trkpt lat="43.13391586556998" lon="12.524351635616764"><ele>227.0</ele><time>2026-05-03T15:15:46.999Z</time></trkpt><trkpt lat="43.13413327805305" lon="12.52459339306269"><ele>227.0</ele><time>2026-05-03T15:15:47.999Z</time></trkpt><trkpt lat="43.13433557052742" lon="12.524851975547577"><ele>227.0</ele><time>2026-05-03T15:15:48.999Z</time></trkpt><trkpt lat="43.134531906901984" lon="12.525116266003714"><ele>227.0</ele><time>2026-05-03T15:15:49.999Z</time></trkpt><trkpt lat="43.134725161519064" lon="12.52538898654162"><ele>227.0</ele><time>2026-05-03T15:15:50.999Z</time></trkpt><trkpt lat="43.134901954261004" lon="12.525668662131688"><ele>226.5</ele><time>2026-05-03T15:15:51.999Z</time></trkpt><trkpt lat="43.13507144804463" lon="12.52596472199692"><ele>226.0</ele><time>2026-05-03T15:15:52.999Z</time></trkpt><trkpt lat="43.13523141007747" lon="12.526268497407441"><ele>226.0</ele><time>2026-05-03T15:15:53.999Z</time></trkpt><trkpt lat="43.1353848417821" lon="12.526581094526065"><ele>226.0</ele><time>2026-05-03T15:15:54.999Z</time></trkpt><trkpt lat="43.135534119504385" lon="12.52690743234141"><ele>225.5</ele><time>2026-05-03T15:15:55.999Z</time></trkpt><trkpt lat="43.13567599430934" lon="12.527235925102437"><ele>225.0</ele><time>2026-05-03T15:15:56.999Z</time></trkpt><trkpt lat="43.135809670370584" lon="12.527570127586879"><ele>225.5</ele><time>2026-05-03T15:15:57.999Z</time></trkpt><trkpt lat="43.1359334793737" lon="12.527908519039963"><ele>226.0</ele><time>2026-05-03T15:15:58.999Z</time></trkpt><trkpt lat="43.136045154028714" lon="12.528268165151513"><ele>226.0</ele><time>2026-05-03T15:15:59.999Z</time></trkpt><trkpt lat="43.13615028480574" lon="12.528628580256076"><ele>226.0</ele><time>2026-05-03T15:16:00.999Z</time></trkpt><trkpt lat="43.13624524884708" lon="12.529000359048958"><ele>225.5</ele><time>2026-05-03T15:16:01.999Z</time></trkpt><trkpt lat="43.13633392233288" lon="12.529378211254212"><ele>225.0</ele><time>2026-05-03T15:16:02.999Z</time></trkpt><trkpt lat="43.13641864422773" lon="12.529766162600994"><ele>225.0</ele><time>2026-05-03T15:16:03.999Z</time></trkpt><trkpt lat="43.136501234276295" lon="12.530165091087202"><ele>225.0</ele><time>2026-05-03T15:16:04.999Z</time></trkpt><trkpt lat="43.13658418142996" lon="12.530569441910327"><ele>225.5</ele><time>2026-05-03T15:16:05.999Z</time></trkpt><trkpt lat="43.13666682869634" lon="12.530982049293035"><ele>226.0</ele><time>2026-05-03T15:16:06.999Z</time></trkpt><trkpt lat="43.136746150923685" lon="12.531401450538821"><ele>225.0</ele><time>2026-05-03T15:16:08Z</time></trkpt><trkpt lat="43.136826125466975" lon="12.531820023655637"><ele>224.0</ele><time>2026-05-03T15:16:09Z</time></trkpt><trkpt lat="43.13691109440897" lon="12.532237538518345"><ele>224.0</ele><time>2026-05-03T15:16:10Z</time></trkpt><trkpt lat="43.13699833676501" lon="12.532640634911305"><ele>224.0</ele><time>2026-05-03T15:16:11Z</time></trkpt><trkpt lat="43.13708797377165" lon="12.53305104692346"><ele>224.0</ele><time>2026-05-03T15:16:12Z</time></trkpt><trkpt lat="43.13717672210326" lon="12.533460154232694"><ele>224.0</ele><time>2026-05-03T15:16:13Z</time></trkpt><trkpt lat="43.13726359760813" lon="12.533879664078837"><ele>223.5</ele><time>2026-05-03T15:16:14Z</time></trkpt><trkpt lat="43.13735005433371" lon="12.5342886451648"><ele>223.0</ele><time>2026-05-03T15:16:15Z</time></trkpt><trkpt lat="43.1374347925963" lon="12.53469668182477"><ele>223.5</ele><time>2026-05-03T15:16:16Z</time></trkpt><trkpt lat="43.13751932033505" lon="12.535102881279114"><ele>224.0</ele><time>2026-05-03T15:16:17Z</time></trkpt><trkpt lat="43.13760322359959" lon="12.535504117378478"><ele>224.0</ele><time>2026-05-03T15:16:18Z</time></trkpt><trkpt lat="43.137687226001624" lon="12.535904938477653"><ele>224.0</ele><time>2026-05-03T15:16:19Z</time></trkpt><trkpt lat="43.13777117231396" lon="12.536298048739216"><ele>224.0</ele><time>2026-05-03T15:16:20Z</time></trkpt><trkpt lat="43.1378561398068" lon="12.536697074442138"><ele>224.0</ele><time>2026-05-03T15:16:21Z</time></trkpt><trkpt lat="43.137940683351665" lon="12.537090630538826"><ele>223.0</ele><time>2026-05-03T15:16:22Z</time></trkpt><trkpt lat="43.138024224005775" lon="12.537479251694577"><ele>222.0</ele><time>2026-05-03T15:16:23Z</time></trkpt><trkpt lat="43.13810514956509" lon="12.53785570635745"><ele>222.0</ele><time>2026-05-03T15:16:24Z</time></trkpt><trkpt lat="43.138182799153334" lon="12.538234455610457"><ele>222.0</ele><time>2026-05-03T15:16:25Z</time></trkpt><trkpt lat="43.13824950762175" lon="12.53860664138241"><ele>223.0</ele><time>2026-05-03T15:16:26Z</time></trkpt><trkpt lat="43.13831136372737" lon="12.538989412151547"><ele>224.0</ele><time>2026-05-03T15:16:27Z</time></trkpt><trkpt lat="43.13836668046106" lon="12.539361874930767"><ele>225.5</ele><time>2026-05-03T15:16:28Z</time></trkpt><trkpt lat="43.13841652551457" lon="12.539731266906605"><ele>227.0</ele><time>2026-05-03T15:16:29Z</time></trkpt><trkpt lat="43.138454685745735" lon="12.540104314113984"><ele>228.0</ele><time>2026-05-03T15:16:30Z</time></trkpt><trkpt lat="43.13848073060216" lon="12.540472965790547"><ele>229.0</ele><time>2026-05-03T15:16:31Z</time></trkpt><trkpt lat="43.13849767982849" lon="12.540845354910015"><ele>231.0</ele><time>2026-05-03T15:16:32Z</time></trkpt><trkpt lat="43.13850941654302" lon="12.541217424329446"><ele>233.0</ele><time>2026-05-03T15:16:33Z</time></trkpt><trkpt lat="43.13851499934849" lon="12.541584363769255"><ele>233.0</ele><time>2026-05-03T15:16:34Z</time></trkpt><trkpt lat="43.13851419459155" lon="12.541955434017531"><ele>233.0</ele><time>2026-05-03T15:16:35Z</time></trkpt><trkpt lat="43.138514204377934" lon="12.542329736885751"><ele>234.0</ele><time>2026-05-03T15:16:36Z</time></trkpt><trkpt lat="43.138515110567546" lon="12.542693651292964"><ele>235.0</ele><time>2026-05-03T15:16:37Z</time></trkpt><trkpt lat="43.13851532906808" lon="12.54305162562366"><ele>239.0</ele><time>2026-05-03T15:16:38Z</time></trkpt><trkpt lat="43.1385157832712" lon="12.543405283913165"><ele>243.0</ele><time>2026-05-03T15:16:39Z</time></trkpt><trkpt lat="43.13852188524814" lon="12.543752389352768"><ele>245.5</ele><time>2026-05-03T15:16:40Z</time></trkpt><trkpt lat="43.13853648856493" lon="12.54409871244965"><ele>248.0</ele><time>2026-05-03T15:16:41Z</time></trkpt><trkpt lat="43.13855374586822" lon="12.544455798784272"><ele>250.0</ele><time>2026-05-03T15:16:42Z</time></trkpt><trkpt lat="43.138570047257325" lon="12.544822754262553"><ele>252.0</ele><time>2026-05-03T15:16:43Z</time></trkpt><trkpt lat="43.13858693511765" lon="12.545193918550838"><ele>254.5</ele><time>2026-05-03T15:16:44Z</time></trkpt><trkpt lat="43.13860207525428" lon="12.54556489295524"><ele>257.0</ele><time>2026-05-03T15:16:45Z</time></trkpt><trkpt lat="43.1386167718733" lon="12.545956068686266"><ele>260.0</ele><time>2026-05-03T15:16:46.07Z</time></trkpt><trkpt lat="43.13863884905547" lon="12.546332803040842"><ele>263.0</ele><time>2026-05-03T15:16:47.068Z</time></trkpt><trkpt lat="43.13868854549588" lon="12.546708350652603"><ele>263.0</ele><time>2026-05-03T15:16:48.064Z</time></trkpt><trkpt lat="43.1387194" lon="12.5463867"><ele>263.0</ele><time>2026-05-03T15:16:51.41Z</time></trkpt><trkpt lat="43.14238481478947" lon="12.557341368551223"><ele>248.0</ele><time>2026-05-03T15:17:15Z</time></trkpt><trkpt lat="43.1426196693473" lon="12.557744647510498"><ele>233.0</ele><time>2026-05-03T15:17:16Z</time></trkpt><trkpt lat="43.142808363568754" lon="12.558075526980621"><ele>232.5</ele><time>2026-05-03T15:17:17Z</time></trkpt><trkpt lat="43.14300054785333" lon="12.558453286258722"><ele>232.0</ele><time>2026-05-03T15:17:18Z</time></trkpt><trkpt lat="43.14317887427033" lon="12.558839354581863"><ele>232.5</ele><time>2026-05-03T15:17:19Z</time></trkpt><trkpt lat="43.1433563672062" lon="12.559223236903389"><ele>233.0</ele><time>2026-05-03T15:17:20Z</time></trkpt><trkpt lat="43.14352778317406" lon="12.559603180688368"><ele>234.5</ele><time>2026-05-03T15:17:21Z</time></trkpt><trkpt lat="43.14370000541424" lon="12.559962721860536"><ele>236.0</ele><time>2026-05-03T15:17:22Z</time></trkpt><trkpt lat="43.143859786442604" lon="12.56031347806898"><ele>236.5</ele><time>2026-05-03T15:17:23Z</time></trkpt><trkpt lat="43.14401509098426" lon="12.560649448584437"><ele>237.0</ele><time>2026-05-03T15:17:24Z</time></trkpt><trkpt lat="43.1441718696324" lon="12.560986094717782"><ele>240.5</ele><time>2026-05-03T15:17:25Z</time></trkpt><trkpt lat="43.14433997759911" lon="12.561335401299804"><ele>244.0</ele><time>2026-05-03T15:17:26Z</time></trkpt><trkpt lat="43.14609781662858" lon="12.565142339075704"><ele>241.5</ele><time>2026-05-03T15:17:38Z</time></trkpt><trkpt lat="43.146228830021215" lon="12.565457004799677"><ele>239.0</ele><time>2026-05-03T15:17:39Z</time></trkpt><trkpt lat="43.146352689441514" lon="12.565770442576955"><ele>239.0</ele><time>2026-05-03T15:17:40Z</time></trkpt><trkpt lat="43.14647242181295" lon="12.566099615263182"><ele>239.0</ele><time>2026-05-03T15:17:41Z</time></trkpt><trkpt lat="43.1465836688903" lon="12.566426527220305"><ele>245.0</ele><time>2026-05-03T15:17:42Z</time></trkpt><trkpt lat="43.14668665500584" lon="12.566745524895161"><ele>251.0</ele><time>2026-05-03T15:17:43Z</time></trkpt><trkpt lat="43.146787168230354" lon="12.567061705286712"><ele>251.0</ele><time>2026-05-03T15:17:44Z</time></trkpt><trkpt lat="43.14688612858444" lon="12.567381465209815"><ele>251.0</ele><time>2026-05-03T15:17:45Z</time></trkpt><trkpt lat="43.1469880938288" lon="12.56769503813584"><ele>251.5</ele><time>2026-05-03T15:17:46Z</time></trkpt><trkpt lat="43.14708918791872" lon="12.568009035688819"><ele>252.0</ele><time>2026-05-03T15:17:47Z</time></trkpt><trkpt lat="43.147317033722" lon="12.568630538570176"><ele>266.0</ele><time>2026-05-03T15:17:49Z</time></trkpt><trkpt lat="43.14742319916429" lon="12.568935869413089"><ele>280.0</ele><time>2026-05-03T15:17:50Z</time></trkpt><trkpt lat="43.14752832661239" lon="12.569239229917619"><ele>282.5</ele><time>2026-05-03T15:17:51Z</time></trkpt><trkpt lat="43.14763419182676" lon="12.569539566681016"><ele>285.0</ele><time>2026-05-03T15:17:52Z</time></trkpt><trkpt lat="43.14775312997143" lon="12.569853067770346"><ele>285.0</ele><time>2026-05-03T15:17:53.066Z</time></trkpt><trkpt lat="43.14786466718002" lon="12.570149660365145"><ele>285.0</ele><time>2026-05-03T15:17:54.056Z</time></trkpt><trkpt lat="43.147973815623494" lon="12.570451335317925"><ele>337.0</ele><time>2026-05-03T15:17:55.052Z</time></trkpt><trkpt lat="43.14892134000321" lon="12.573163807177222"><ele>248.0</ele><time>2026-05-03T15:18:05.393Z</time></trkpt><trkpt lat="43.14972172599004" lon="12.576751474747777"><ele>245.5</ele><time>2026-05-03T15:18:09.999Z</time></trkpt><trkpt lat="43.14982079829152" lon="12.577103906122366"><ele>243.0</ele><time>2026-05-03T15:18:10.999Z</time></trkpt><trkpt lat="43.149943558607305" lon="12.577468114600972"><ele>243.0</ele><time>2026-05-03T15:18:11.999Z</time></trkpt><trkpt lat="43.150045051281104" lon="12.57778799329225"><ele>243.0</ele><time>2026-05-03T15:18:12.999Z</time></trkpt><trkpt lat="43.15014156139449" lon="12.578109201052666"><ele>244.5</ele><time>2026-05-03T15:18:13.999Z</time></trkpt><trkpt lat="43.150234462964605" lon="12.578423757843655"><ele>246.0</ele><time>2026-05-03T15:18:14.999Z</time></trkpt><trkpt lat="43.15032420215645" lon="12.578721024539062"><ele>246.0</ele><time>2026-05-03T15:18:16.001Z</time></trkpt><trkpt lat="43.15041817521971" lon="12.579025367723842"><ele>246.0</ele><time>2026-05-03T15:18:17.001Z</time></trkpt><trkpt lat="43.150516751638776" lon="12.579304824277736"><ele>244.33333333333331</ele><time>2026-05-03T15:18:18.001Z</time></trkpt><trkpt lat="43.150623669462526" lon="12.57957337986578"><ele>242.66666666666666</ele><time>2026-05-03T15:18:19.001Z</time></trkpt><trkpt lat="43.15073304218941" lon="12.57983598496773"><ele>241.0</ele><time>2026-05-03T15:18:20.001Z</time></trkpt><trkpt lat="43.150847372116026" lon="12.580105584607315"><ele>242.0</ele><time>2026-05-03T15:18:21.001Z</time></trkpt><trkpt lat="43.15096835876298" lon="12.580360685984404"><ele>243.0</ele><time>2026-05-03T15:18:22.001Z</time></trkpt><trkpt lat="43.15109409141482" lon="12.58060085057495"><ele>244.0</ele><time>2026-05-03T15:18:23.001Z</time></trkpt><trkpt lat="43.15122261145726" lon="12.580833819341468"><ele>244.0</ele><time>2026-05-03T15:18:24.001Z</time></trkpt><trkpt lat="43.15134946557824" lon="12.581054889690703"><ele>244.0</ele><time>2026-05-03T15:18:25Z</time></trkpt><trkpt lat="43.15148438309244" lon="12.581269220357619"><ele>244.0</ele><time>2026-05-03T15:18:26Z</time></trkpt><trkpt lat="43.15162307916115" lon="12.5814754833755"><ele>244.33333333333331</ele><time>2026-05-03T15:18:27Z</time></trkpt><trkpt lat="43.15176401864755" lon="12.58167397421595"><ele>244.66666666666669</ele><time>2026-05-03T15:18:28Z</time></trkpt><trkpt lat="43.151903367808366" lon="12.58186883833427"><ele>245.0</ele><time>2026-05-03T15:18:29Z</time></trkpt><trkpt lat="43.152038517468476" lon="12.582042770309068"><ele>245.0</ele><time>2026-05-03T15:18:30Z</time></trkpt><trkpt lat="43.15217528080481" lon="12.582219916746512"><ele>245.0</ele><time>2026-05-03T15:18:31Z</time></trkpt><trkpt lat="43.152310126394944" lon="12.582391258569858"><ele>245.0</ele><time>2026-05-03T15:18:32Z</time></trkpt><trkpt lat="43.15244595599984" lon="12.582559040331446"><ele>245.0</ele><time>2026-05-03T15:18:33Z</time></trkpt><trkpt lat="43.15257422086947" lon="12.582724134686215"><ele>245.0</ele><time>2026-05-03T15:18:34Z</time></trkpt><trkpt lat="43.152699689029916" lon="12.58289441074404"><ele>245.0</ele><time>2026-05-03T15:18:35Z</time></trkpt><trkpt lat="43.15283055142709" lon="12.583051622794017"><ele>244.66666666666669</ele><time>2026-05-03T15:18:36Z</time></trkpt><trkpt lat="43.15295994515679" lon="12.583210224097169"><ele>244.33333333333331</ele><time>2026-05-03T15:18:37Z</time></trkpt><trkpt lat="43.15308677596592" lon="12.583368893226346"><ele>244.0</ele><time>2026-05-03T15:18:38Z</time></trkpt><trkpt lat="43.153209739230036" lon="12.583526130659687"><ele>244.0</ele><time>2026-05-03T15:18:39Z</time></trkpt><trkpt lat="43.15333627382268" lon="12.583674981203925"><ele>244.0</ele><time>2026-05-03T15:18:40Z</time></trkpt><trkpt lat="43.15345986930114" lon="12.583830116315786"><ele>244.0</ele><time>2026-05-03T15:18:41Z</time></trkpt><trkpt lat="43.1535839643272" lon="12.583989064664909"><ele>243.66666666666666</ele><time>2026-05-03T15:18:42Z</time></trkpt><trkpt lat="43.15370879722644" lon="12.584147706807322"><ele>243.33333333333331</ele><time>2026-05-03T15:18:43Z</time></trkpt><trkpt lat="43.153836344374554" lon="12.584311257699337"><ele>243.0</ele><time>2026-05-03T15:18:44Z</time></trkpt><trkpt lat="43.153958591988314" lon="12.58447911955972"><ele>243.33333333333331</ele><time>2026-05-03T15:18:45Z</time></trkpt><trkpt lat="43.15408875604927" lon="12.58465105843364"><ele>243.66666666666666</ele><time>2026-05-03T15:18:46Z</time></trkpt><trkpt lat="43.15421922984434" lon="12.584820879032051"><ele>244.0</ele><time>2026-05-03T15:18:47Z</time></trkpt><trkpt lat="43.15434822696305" lon="12.584995187846152"><ele>244.0</ele><time>2026-05-03T15:18:48Z</time></trkpt><trkpt lat="43.15447803548627" lon="12.58518458840917"><ele>244.0</ele><time>2026-05-03T15:18:49Z</time></trkpt><trkpt lat="43.15460826683813" lon="12.585367221501352"><ele>244.0</ele><time>2026-05-03T15:18:50Z</time></trkpt><trkpt lat="43.154738202515716" lon="12.585553496128934"><ele>244.66666666666666</ele><time>2026-05-03T15:18:51Z</time></trkpt><trkpt lat="43.15487052271943" lon="12.585748350469338"><ele>245.33333333333331</ele><time>2026-05-03T15:18:52Z</time></trkpt><trkpt lat="43.15500276538397" lon="12.58595096631449"><ele>246.0</ele><time>2026-05-03T15:18:53Z</time></trkpt><trkpt lat="43.155137879865684" lon="12.586158714271868"><ele>246.0</ele><time>2026-05-03T15:18:54Z</time></trkpt><trkpt lat="43.15526960546731" lon="12.58637220261915"><ele>246.0</ele><time>2026-05-03T15:18:55Z</time></trkpt><trkpt lat="43.155400498499965" lon="12.586593231578881"><ele>246.0</ele><time>2026-05-03T15:18:56Z</time></trkpt><trkpt lat="43.15552712338669" lon="12.586815895794052"><ele>246.33333333333331</ele><time>2026-05-03T15:18:57Z</time></trkpt><trkpt lat="43.15565379486222" lon="12.587030102914238"><ele>246.66666666666666</ele><time>2026-05-03T15:18:58Z</time></trkpt><trkpt lat="43.155783349141764" lon="12.587247963806242"><ele>247.0</ele><time>2026-05-03T15:18:59Z</time></trkpt><trkpt lat="43.155910658342854" lon="12.58746985672943"><ele>247.66666666666666</ele><time>2026-05-03T15:19:00Z</time></trkpt><trkpt lat="43.15603397129084" lon="12.58769450483599"><ele>248.33333333333331</ele><time>2026-05-03T15:19:01Z</time></trkpt><trkpt lat="43.1561532665357" lon="12.587906164096797"><ele>249.0</ele><time>2026-05-03T15:19:02Z</time></trkpt><trkpt lat="43.15627311092841" lon="12.588124462203305"><ele>249.0</ele><time>2026-05-03T15:19:03Z</time></trkpt><trkpt lat="43.15638960427727" lon="12.588344518525703"><ele>249.0</ele><time>2026-05-03T15:19:04Z</time></trkpt><trkpt lat="43.15650548058629" lon="12.588562115069841"><ele>249.0</ele><time>2026-05-03T15:19:05Z</time></trkpt><trkpt lat="43.15662109773161" lon="12.588781899746989"><ele>249.33333333333331</ele><time>2026-05-03T15:19:06Z</time></trkpt><trkpt lat="43.156738382960846" lon="12.589001685218191"><ele>249.66666666666666</ele><time>2026-05-03T15:19:07Z</time></trkpt><trkpt lat="43.15686113305914" lon="12.589227096233389"><ele>250.0</ele><time>2026-05-03T15:19:08Z</time></trkpt><trkpt lat="43.15698601220822" lon="12.589452411680908"><ele>249.66666666666666</ele><time>2026-05-03T15:19:09Z</time></trkpt><trkpt lat="43.157109343264864" lon="12.589675450186633"><ele>249.33333333333331</ele><time>2026-05-03T15:19:10Z</time></trkpt><trkpt lat="43.15723152873012" lon="12.589907382827953"><ele>249.0</ele><time>2026-05-03T15:19:11Z</time></trkpt><trkpt lat="43.157353898948976" lon="12.590139350247883"><ele>249.0</ele><time>2026-05-03T15:19:12Z</time></trkpt><trkpt lat="43.15747105842217" lon="12.590356914134126"><ele>249.0</ele><time>2026-05-03T15:19:13Z</time></trkpt><trkpt lat="43.157601941475235" lon="12.590585049444526"><ele>249.0</ele><time>2026-05-03T15:19:14Z</time></trkpt><trkpt lat="43.15772699789013" lon="12.590819093507795"><ele>249.0</ele><time>2026-05-03T15:19:15Z</time></trkpt><trkpt lat="43.15784935442358" lon="12.591051583123486"><ele>249.0</ele><time>2026-05-03T15:19:16Z</time></trkpt><trkpt lat="43.157974172991615" lon="12.591284900912033"><ele>249.0</ele><time>2026-05-03T15:19:17Z</time></trkpt><trkpt lat="43.15810224361064" lon="12.591517064260513"><ele>249.66666666666669</ele><time>2026-05-03T15:19:18Z</time></trkpt><trkpt lat="43.15822960135481" lon="12.591745070339732"><ele>250.33333333333334</ele><time>2026-05-03T15:19:19Z</time></trkpt><trkpt lat="43.15835840484436" lon="12.591974896132871"><ele>251.0</ele><time>2026-05-03T15:19:20Z</time></trkpt><trkpt lat="43.158489336510385" lon="12.592204663702404"><ele>251.0</ele><time>2026-05-03T15:19:21Z</time></trkpt><trkpt lat="43.15862509879655" lon="12.59244173392716"><ele>251.0</ele><time>2026-05-03T15:19:22Z</time></trkpt><trkpt lat="43.15876975568259" lon="12.592677416006433"><ele>251.0</ele><time>2026-05-03T15:19:23Z</time></trkpt><trkpt lat="43.15892542781087" lon="12.592914944866937"><ele>251.5</ele><time>2026-05-03T15:19:24Z</time></trkpt><trkpt lat="43.15909560915" lon="12.59314764037785"><ele>252.0</ele><time>2026-05-03T15:19:25Z</time></trkpt><trkpt lat="43.1592762689869" lon="12.593384783052112"><ele>252.0</ele><time>2026-05-03T15:19:26Z</time></trkpt><trkpt lat="43.159461517297686" lon="12.593610953921061"><ele>252.0</ele><time>2026-05-03T15:19:27Z</time></trkpt><trkpt lat="43.159651406802205" lon="12.593823734612323"><ele>251.5</ele><time>2026-05-03T15:19:28Z</time></trkpt><trkpt lat="43.159850128064726" lon="12.594030741536479"><ele>251.0</ele><time>2026-05-03T15:19:29Z</time></trkpt><trkpt lat="43.16006263863789" lon="12.594240580106586"><ele>250.5</ele><time>2026-05-03T15:19:30Z</time></trkpt><trkpt lat="43.1602808084297" lon="12.594449311965297"><ele>250.0</ele><time>2026-05-03T15:19:31Z</time></trkpt><trkpt lat="43.16050846049989" lon="12.59466560809725"><ele>250.5</ele><time>2026-05-03T15:19:32Z</time></trkpt><trkpt lat="43.16073622831919" lon="12.59488551829539"><ele>251.0</ele><time>2026-05-03T15:19:33Z</time></trkpt><trkpt lat="43.160963093215926" lon="12.59510562823242"><ele>251.0</ele><time>2026-05-03T15:19:34Z</time></trkpt><trkpt lat="43.16119209400833" lon="12.59532879974125"><ele>251.0</ele><time>2026-05-03T15:19:35Z</time></trkpt><trkpt lat="43.161416039790005" lon="12.595546150272947"><ele>251.5</ele><time>2026-05-03T15:19:36Z</time></trkpt><trkpt lat="43.16164285573472" lon="12.595768033734487"><ele>252.0</ele><time>2026-05-03T15:19:37Z</time></trkpt><trkpt lat="43.16187077657104" lon="12.595991973266456"><ele>252.0</ele><time>2026-05-03T15:19:38Z</time></trkpt><trkpt lat="43.16210094207049" lon="12.596223481316029"><ele>252.0</ele><time>2026-05-03T15:19:39Z</time></trkpt><trkpt lat="43.16232590601427" lon="12.596456334491936"><ele>253.0</ele><time>2026-05-03T15:19:40Z</time></trkpt><trkpt lat="43.16254703813521" lon="12.596685967906932"><ele>254.0</ele><time>2026-05-03T15:19:41Z</time></trkpt><trkpt lat="43.162765658188185" lon="12.596912763157901"><ele>254.0</ele><time>2026-05-03T15:19:42Z</time></trkpt><trkpt lat="43.16298431034438" lon="12.597127658262139"><ele>254.0</ele><time>2026-05-03T15:19:43Z</time></trkpt><trkpt lat="43.163203250831195" lon="12.597337295426662"><ele>254.5</ele><time>2026-05-03T15:19:44Z</time></trkpt><trkpt lat="43.16342640308941" lon="12.597534097293787"><ele>255.0</ele><time>2026-05-03T15:19:45Z</time></trkpt><trkpt lat="43.163654458887244" lon="12.597718371369854"><ele>256.0</ele><time>2026-05-03T15:19:46Z</time></trkpt><trkpt lat="43.163889576161964" lon="12.597893946826765"><ele>257.0</ele><time>2026-05-03T15:19:47Z</time></trkpt><trkpt lat="43.164128138111565" lon="12.598057162853955"><ele>257.0</ele><time>2026-05-03T15:19:48Z</time></trkpt><trkpt lat="43.16437107181122" lon="12.598207329760543"><ele>257.0</ele><time>2026-05-03T15:19:49Z</time></trkpt><trkpt lat="43.1646152949389" lon="12.598347240147849"><ele>256.5</ele><time>2026-05-03T15:19:50Z</time></trkpt><trkpt lat="43.164867394638854" lon="12.598478851653736"><ele>256.0</ele><time>2026-05-03T15:19:51Z</time></trkpt><trkpt lat="43.16511729004009" lon="12.59860295962182"><ele>257.5</ele><time>2026-05-03T15:19:52Z</time></trkpt><trkpt lat="43.1653666960373" lon="12.598726783082293"><ele>259.0</ele><time>2026-05-03T15:19:53Z</time></trkpt><trkpt lat="43.16561840805997" lon="12.598849675408653"><ele>258.0</ele><time>2026-05-03T15:19:54Z</time></trkpt><trkpt lat="43.16586669997631" lon="12.598970813944012"><ele>257.0</ele><time>2026-05-03T15:19:55Z</time></trkpt><trkpt lat="43.16611632736333" lon="12.599096411264131"><ele>257.0</ele><time>2026-05-03T15:19:56Z</time></trkpt><trkpt lat="43.1663649995129" lon="12.599220750316572"><ele>257.0</ele><time>2026-05-03T15:19:57Z</time></trkpt><trkpt lat="43.16660852132489" lon="12.599340586794138"><ele>257.0</ele><time>2026-05-03T15:19:58Z</time></trkpt><trkpt lat="43.16685512386411" lon="12.599461184487293"><ele>257.0</ele><time>2026-05-03T15:19:59Z</time></trkpt><trkpt lat="43.16710040919782" lon="12.59957727734429"><ele>260.0</ele><time>2026-05-03T15:20:00Z</time></trkpt><trkpt lat="43.1673431076813" lon="12.599695575376495"><ele>263.0</ele><time>2026-05-03T15:20:01Z</time></trkpt><trkpt lat="43.167583467667036" lon="12.599812927195677"><ele>266.0</ele><time>2026-05-03T15:20:02Z</time></trkpt><trkpt lat="43.167825304976304" lon="12.599930485483771"><ele>269.0</ele><time>2026-05-03T15:20:03Z</time></trkpt><trkpt lat="43.16806564829733" lon="12.600048408122419"><ele>271.0</ele><time>2026-05-03T15:20:04Z</time></trkpt><trkpt lat="43.16830276590757" lon="12.600169202365915"><ele>273.0</ele><time>2026-05-03T15:20:05Z</time></trkpt><trkpt lat="43.16853684416765" lon="12.600303370758317"><ele>281.0</ele><time>2026-05-03T15:20:06Z</time></trkpt><trkpt lat="43.16877788814498" lon="12.600457412762195"><ele>289.0</ele><time>2026-05-03T15:20:07Z</time></trkpt><trkpt lat="43.16901587130714" lon="12.600625623944198"><ele>287.5</ele><time>2026-05-03T15:20:08Z</time></trkpt><trkpt lat="43.16925439466101" lon="12.600802600955875"><ele>286.0</ele><time>2026-05-03T15:20:09Z</time></trkpt><trkpt lat="43.169493301217756" lon="12.600994354325277"><ele>285.0</ele><time>2026-05-03T15:20:10Z</time></trkpt><trkpt lat="43.16973089807429" lon="12.601192156855442"><ele>284.0</ele><time>2026-05-03T15:20:11Z</time></trkpt><trkpt lat="43.169964112664736" lon="12.601392995697646"><ele>284.0</ele><time>2026-05-03T15:20:12Z</time></trkpt><trkpt lat="43.17019693789369" lon="12.601603207821345"><ele>284.0</ele><time>2026-05-03T15:20:13Z</time></trkpt><trkpt lat="43.17043395442757" lon="12.601817063756407"><ele>284.0</ele><time>2026-05-03T15:20:14Z</time></trkpt><trkpt lat="43.170665306516554" lon="12.60201575137801"><ele>284.0</ele><time>2026-05-03T15:20:15Z</time></trkpt><trkpt lat="43.17089825606709" lon="12.60220704603031"><ele>284.0</ele><time>2026-05-03T15:20:16Z</time></trkpt><trkpt lat="43.17112579365677" lon="12.60237027991148"><ele>284.0</ele><time>2026-05-03T15:20:17Z</time></trkpt><trkpt lat="43.17135570282411" lon="12.60254263601268"><ele>285.5</ele><time>2026-05-03T15:20:18Z</time></trkpt><trkpt lat="43.171589458898076" lon="12.602695784075884"><ele>287.0</ele><time>2026-05-03T15:20:18.999Z</time></trkpt><trkpt lat="43.171830500289495" lon="12.602843459926289"><ele>287.0</ele><time>2026-05-03T15:20:19.999Z</time></trkpt><trkpt lat="43.172069799963715" lon="12.602980694619259"><ele>287.0</ele><time>2026-05-03T15:20:20.999Z</time></trkpt><trkpt lat="43.17231438284838" lon="12.603110456734159"><ele>289.5</ele><time>2026-05-03T15:20:22Z</time></trkpt><trkpt lat="43.172561336076846" lon="12.603237529519772"><ele>292.0</ele><time>2026-05-03T15:20:23Z</time></trkpt><trkpt lat="43.17280876844744" lon="12.60335699124775"><ele>292.0</ele><time>2026-05-03T15:20:24Z</time></trkpt><trkpt lat="43.17305004511562" lon="12.603471051387446"><ele>292.0</ele><time>2026-05-03T15:20:25Z</time></trkpt><trkpt lat="43.17328802698067" lon="12.603586625323347"><ele>301.0</ele><time>2026-05-03T15:20:26Z</time></trkpt><trkpt lat="43.17352803019548" lon="12.603710964281342"><ele>310.0</ele><time>2026-05-03T15:20:27Z</time></trkpt><trkpt lat="43.17376817079308" lon="12.60383916700206"><ele>310.0</ele><time>2026-05-03T15:20:28Z</time></trkpt><trkpt lat="43.1740017712236" lon="12.603964773378793"><ele>310.0</ele><time>2026-05-03T15:20:29Z</time></trkpt><trkpt lat="43.1742356385953" lon="12.604092351004006"><ele>309.5</ele><time>2026-05-03T15:20:30Z</time></trkpt><trkpt lat="43.1744655241839" lon="12.604225235661684"><ele>309.0</ele><time>2026-05-03T15:20:31Z</time></trkpt><trkpt lat="43.17468560301188" lon="12.604367047530866"><ele>314.5</ele><time>2026-05-03T15:20:32Z</time></trkpt><trkpt lat="43.17490443986456" lon="12.60452417280464"><ele>320.0</ele><time>2026-05-03T15:20:33Z</time></trkpt><trkpt lat="43.17512095566513" lon="12.604700140262329"><ele>320.0</ele><time>2026-05-03T15:20:34Z</time></trkpt><trkpt lat="43.17533305014982" lon="12.60489632302244"><ele>320.0</ele><time>2026-05-03T15:20:35Z</time></trkpt><trkpt lat="43.17554362017707" lon="12.605110078070856"><ele>320.5</ele><time>2026-05-03T15:20:36Z</time></trkpt><trkpt lat="43.17574636381664" lon="12.605332335287112"><ele>321.0</ele><time>2026-05-03T15:20:37Z</time></trkpt><trkpt lat="43.17594058913356" lon="12.605568078138639"><ele>321.0</ele><time>2026-05-03T15:20:38Z</time></trkpt><trkpt lat="43.17612236837444" lon="12.605811597025985"><ele>321.0</ele><time>2026-05-03T15:20:39Z</time></trkpt><trkpt lat="43.17629292151557" lon="12.606070925223158"><ele>315.0</ele><time>2026-05-03T15:20:40Z</time></trkpt><trkpt lat="43.1764553224562" lon="12.606336717267588"><ele>309.0</ele><time>2026-05-03T15:20:41Z</time></trkpt><trkpt lat="43.17661053589639" lon="12.606610999891515"><ele>309.0</ele><time>2026-05-03T15:20:42Z</time></trkpt><trkpt lat="43.17675756402866" lon="12.606895544936053"><ele>309.0</ele><time>2026-05-03T15:20:43Z</time></trkpt><trkpt lat="43.17689792127599" lon="12.607182740962905"><ele>313.5</ele><time>2026-05-03T15:20:44Z</time></trkpt><trkpt lat="43.17703427131709" lon="12.607466453458594"><ele>318.0</ele><time>2026-05-03T15:20:45Z</time></trkpt><trkpt lat="43.17717038287899" lon="12.607755676562707"><ele>324.5</ele><time>2026-05-03T15:20:46Z</time></trkpt><trkpt lat="43.17730514766898" lon="12.608040864401197"><ele>331.0</ele><time>2026-05-03T15:20:47Z</time></trkpt><trkpt lat="43.17743552950092" lon="12.60831860694719"><ele>333.0</ele><time>2026-05-03T15:20:48Z</time></trkpt><trkpt lat="43.177564189910804" lon="12.608591819510242"><ele>335.0</ele><time>2026-05-03T15:20:49Z</time></trkpt><trkpt lat="43.17769271706515" lon="12.608861069842787"><ele>344.0</ele><time>2026-05-03T15:20:50Z</time></trkpt><trkpt lat="43.177823784176354" lon="12.609133977480267"><ele>353.0</ele><time>2026-05-03T15:20:51Z</time></trkpt><trkpt lat="43.17795381464411" lon="12.60940792381729"><ele>358.5</ele><time>2026-05-03T15:20:52Z</time></trkpt><trkpt lat="43.17808617295225" lon="12.609684985775198"><ele>364.0</ele><time>2026-05-03T15:20:53Z</time></trkpt><trkpt lat="43.17821785268862" lon="12.60996317141001"><ele>364.0</ele><time>2026-05-03T15:20:54Z</time></trkpt><trkpt lat="43.17836363627049" lon="12.610271748768465"><ele>364.0</ele><time>2026-05-03T15:20:55.067Z</time></trkpt><trkpt lat="43.17849134372578" lon="12.6105480087353"><ele>337.0</ele><time>2026-05-03T15:20:56.057Z</time></trkpt><trkpt lat="43.179113936715" lon="12.611592086249026"><ele>337.0</ele><time>2026-05-03T15:21:00Z</time></trkpt><trkpt lat="43.17929555395421" lon="12.611853243154536"><ele>337.0</ele><time>2026-05-03T15:21:01Z</time></trkpt><trkpt lat="43.179423555290356" lon="12.61211281469475"><ele>343.0</ele><time>2026-05-03T15:21:02Z</time></trkpt><trkpt lat="43.17957956152238" lon="12.612377501930412"><ele>349.0</ele><time>2026-05-03T15:21:03Z</time></trkpt><trkpt lat="43.17973719328852" lon="12.61266381269026"><ele>341.0</ele><time>2026-05-03T15:21:04Z</time></trkpt><trkpt lat="43.17989694865313" lon="12.61294646053087"><ele>333.0</ele><time>2026-05-03T15:21:05Z</time></trkpt><trkpt lat="43.18005014738079" lon="12.613236021762608"><ele>333.0</ele><time>2026-05-03T15:21:06Z</time></trkpt><trkpt lat="43.180205289791836" lon="12.613536492973694"><ele>333.0</ele><time>2026-05-03T15:21:07Z</time></trkpt><trkpt lat="43.18035669470668" lon="12.613836785213831"><ele>337.5</ele><time>2026-05-03T15:21:08Z</time></trkpt><trkpt lat="43.18051406729265" lon="12.614141679547437"><ele>342.0</ele><time>2026-05-03T15:21:09Z</time></trkpt><trkpt lat="43.180673664925905" lon="12.61444861846534"><ele>339.5</ele><time>2026-05-03T15:21:10Z</time></trkpt><trkpt lat="43.180830766894644" lon="12.614745555429764"><ele>337.0</ele><time>2026-05-03T15:21:11Z</time></trkpt><trkpt lat="43.18098316965143" lon="12.615042772739885"><ele>343.0</ele><time>2026-05-03T15:21:12Z</time></trkpt><trkpt lat="43.181131549086196" lon="12.61533600949082"><ele>349.0</ele><time>2026-05-03T15:21:13Z</time></trkpt><trkpt lat="43.18127901383408" lon="12.615628271462016"><ele>349.0</ele><time>2026-05-03T15:21:14Z</time></trkpt><trkpt lat="43.18142453288041" lon="12.615926626891545"><ele>349.0</ele><time>2026-05-03T15:21:15Z</time></trkpt><trkpt lat="43.18156552792108" lon="12.61623258078548"><ele>346.0</ele><time>2026-05-03T15:21:16Z</time></trkpt><trkpt lat="43.18169789539103" lon="12.616547326688863"><ele>343.0</ele><time>2026-05-03T15:21:17Z</time></trkpt><trkpt lat="43.181820554282375" lon="12.616867911883283"><ele>348.0</ele><time>2026-05-03T15:21:18Z</time></trkpt><trkpt lat="43.18193197259626" lon="12.617187578395617"><ele>353.0</ele><time>2026-05-03T15:21:19Z</time></trkpt><trkpt lat="43.182034685448656" lon="12.61750860593934"><ele>357.5</ele><time>2026-05-03T15:21:20Z</time></trkpt><trkpt lat="43.18213198387166" lon="12.617836088026895"><ele>362.0</ele><time>2026-05-03T15:21:21Z</time></trkpt><trkpt lat="43.182222423752506" lon="12.61817089025474"><ele>362.0</ele><time>2026-05-03T15:21:22Z</time></trkpt><trkpt lat="43.18231051507481" lon="12.618512154416347"><ele>362.0</ele><time>2026-05-03T15:21:23Z</time></trkpt><trkpt lat="43.18240092171264" lon="12.618859819566612"><ele>349.0</ele><time>2026-05-03T15:21:24Z</time></trkpt><trkpt lat="43.18249074081289" lon="12.619212869699249"><ele>336.0</ele><time>2026-05-03T15:21:25Z</time></trkpt><trkpt lat="43.182580204333604" lon="12.619553679137756"><ele>335.5</ele><time>2026-05-03T15:21:26Z</time></trkpt><trkpt lat="43.182671001685" lon="12.619898022793759"><ele>335.0</ele><time>2026-05-03T15:21:27Z</time></trkpt><trkpt lat="43.18275872863827" lon="12.620252872020586"><ele>346.0</ele><time>2026-05-03T15:21:28Z</time></trkpt><trkpt lat="43.18284598963782" lon="12.620606788342938"><ele>357.0</ele><time>2026-05-03T15:21:29Z</time></trkpt><trkpt lat="43.18292988636534" lon="12.620962374503618"><ele>368.0</ele><time>2026-05-03T15:21:30Z</time></trkpt><trkpt lat="43.18300938043682" lon="12.621297414280715"><ele>379.0</ele><time>2026-05-03T15:21:31Z</time></trkpt><trkpt lat="43.183088994100004" lon="12.621627291076525"><ele>379.0</ele><time>2026-05-03T15:21:32Z</time></trkpt><trkpt lat="43.183177537640745" lon="12.621961868339602"><ele>379.0</ele><time>2026-05-03T15:21:33Z</time></trkpt><trkpt lat="43.18327031109659" lon="12.62229083846808"><ele>376.0</ele><time>2026-05-03T15:21:34Z</time></trkpt><trkpt lat="43.18336509090281" lon="12.622619400463279"><ele>373.0</ele><time>2026-05-03T15:21:35Z</time></trkpt><trkpt lat="43.183435361211565" lon="12.622859448400439"><ele>370.0</ele><time>2026-05-03T15:21:36Z</time></trkpt><trkpt lat="43.18353661560138" lon="12.623152354595549"><ele>369.0</ele><time>2026-05-03T15:21:37Z</time></trkpt><trkpt lat="43.18364301404231" lon="12.623430290394413"><ele>368.0</ele><time>2026-05-03T15:21:38Z</time></trkpt><trkpt lat="43.18375727901775" lon="12.623687130781649"><ele>367.0</ele><time>2026-05-03T15:21:39Z</time></trkpt><trkpt lat="43.18386350364821" lon="12.623930369680927"><ele>367.0</ele><time>2026-05-03T15:21:40Z</time></trkpt><trkpt lat="43.1839722294388" lon="12.624185017837162"><ele>367.0</ele><time>2026-05-03T15:21:41Z</time></trkpt><trkpt lat="43.18408408054638" lon="12.624429236882746"><ele>367.0</ele><time>2026-05-03T15:21:42Z</time></trkpt><trkpt lat="43.184194413788674" lon="12.624672120954418"><ele>369.0</ele><time>2026-05-03T15:21:43Z</time></trkpt><trkpt lat="43.184309932504775" lon="12.624913277142404"><ele>371.0</ele><time>2026-05-03T15:21:44Z</time></trkpt><trkpt lat="43.184424789422515" lon="12.625155338349238"><ele>373.0</ele><time>2026-05-03T15:21:45Z</time></trkpt><trkpt lat="43.18454330979209" lon="12.625401027940187"><ele>372.66666666666663</ele><time>2026-05-03T15:21:46Z</time></trkpt><trkpt lat="43.184660139004386" lon="12.625649623546135"><ele>372.3333333333333</ele><time>2026-05-03T15:21:47Z</time></trkpt><trkpt lat="43.184775327182294" lon="12.6258931784838"><ele>372.0</ele><time>2026-05-03T15:21:48Z</time></trkpt><trkpt lat="43.18489479766666" lon="12.626135650048296"><ele>375.6666666666667</ele><time>2026-05-03T15:21:49Z</time></trkpt><trkpt lat="43.185012730890406" lon="12.626384485675098"><ele>379.33333333333337</ele><time>2026-05-03T15:21:50Z</time></trkpt><trkpt lat="43.18513141782404" lon="12.62662710813983"><ele>383.0</ele><time>2026-05-03T15:21:51Z</time></trkpt><trkpt lat="43.18524827639949" lon="12.626868811991153"><ele>388.33333333333337</ele><time>2026-05-03T15:21:52Z</time></trkpt><trkpt lat="43.18536489825084" lon="12.62711101068224"><ele>393.6666666666667</ele><time>2026-05-03T15:21:53Z</time></trkpt><trkpt lat="43.18548107108342" lon="12.627353127222769"><ele>399.0</ele><time>2026-05-03T15:21:54Z</time></trkpt><trkpt lat="43.185597647161465" lon="12.62759807523464"><ele>399.33333333333337</ele><time>2026-05-03T15:21:55Z</time></trkpt><trkpt lat="43.18571026761468" lon="12.627837138223695"><ele>399.6666666666667</ele><time>2026-05-03T15:21:56Z</time></trkpt><trkpt lat="43.185817699855804" lon="12.628079967515166"><ele>400.0</ele><time>2026-05-03T15:21:57Z</time></trkpt><trkpt lat="43.185915537447094" lon="12.628316396379702"><ele>400.0</ele><time>2026-05-03T15:21:58Z</time></trkpt><trkpt lat="43.18600967671538" lon="12.628550012958119"><ele>400.0</ele><time>2026-05-03T15:21:59Z</time></trkpt><trkpt lat="43.1861044502438" lon="12.62878991550903"><ele>400.0</ele><time>2026-05-03T15:22:00Z</time></trkpt><trkpt lat="43.18618765544507" lon="12.629036858854155"><ele>400.0</ele><time>2026-05-03T15:22:01Z</time></trkpt><trkpt lat="43.18626337067886" lon="12.629293630788005"><ele>400.0</ele><time>2026-05-03T15:22:02Z</time></trkpt><trkpt lat="43.186339121908524" lon="12.629547404858137"><ele>400.0</ele><time>2026-05-03T15:22:03Z</time></trkpt><trkpt lat="43.18641308810072" lon="12.629818927096032"><ele>400.0</ele><time>2026-05-03T15:22:04Z</time></trkpt><trkpt lat="43.18647547882061" lon="12.630092869176117"><ele>400.0</ele><time>2026-05-03T15:22:05Z</time></trkpt><trkpt lat="43.186543790479725" lon="12.630361411903756"><ele>400.0</ele><time>2026-05-03T15:22:06Z</time></trkpt><trkpt lat="43.1866012791785" lon="12.630630104391724"><ele>399.33333333333337</ele><time>2026-05-03T15:22:07Z</time></trkpt><trkpt lat="43.18669464867045" lon="12.630900257756611"><ele>398.66666666666663</ele><time>2026-05-03T15:22:08Z</time></trkpt><trkpt lat="43.186767575481134" lon="12.631175854667777"><ele>398.0</ele><time>2026-05-03T15:22:09Z</time></trkpt><trkpt lat="43.186843537989056" lon="12.631454470449095"><ele>398.0</ele><time>2026-05-03T15:22:10Z</time></trkpt><trkpt lat="43.18691899990123" lon="12.63173123462888"><ele>398.0</ele><time>2026-05-03T15:22:11Z</time></trkpt><trkpt lat="43.186993621038646" lon="12.631986516796013"><ele>398.0</ele><time>2026-05-03T15:22:12Z</time></trkpt><trkpt lat="43.18707407045688" lon="12.632251609511036"><ele>404.66666666666663</ele><time>2026-05-03T15:22:13Z</time></trkpt><trkpt lat="43.1871709825795" lon="12.632533612742025"><ele>411.33333333333337</ele><time>2026-05-03T15:22:14Z</time></trkpt><trkpt lat="43.187259414178676" lon="12.632807517630775"><ele>418.0</ele><time>2026-05-03T15:22:14.999Z</time></trkpt><trkpt lat="43.187361849783194" lon="12.633078433207807"><ele>428.0</ele><time>2026-05-03T15:22:15.999Z</time></trkpt><trkpt lat="43.187550093313604" lon="12.633638169835946"><ele>438.0</ele><time>2026-05-03T15:22:18.063Z</time></trkpt><trkpt lat="43.18764121541114" lon="12.633907835519453"><ele>441.66666666666663</ele><time>2026-05-03T15:22:19.055Z</time></trkpt><trkpt lat="43.18773267556138" lon="12.6341788489063"><ele>445.3333333333333</ele><time>2026-05-03T15:22:20.053Z</time></trkpt><trkpt lat="43.187824705342486" lon="12.634451870528656"><ele>449.0</ele><time>2026-05-03T15:22:21.058Z</time></trkpt><trkpt lat="43.19169564220146" lon="12.640570695084248"><ele>435.0</ele><time>2026-05-03T15:22:52.999Z</time></trkpt><trkpt lat="43.19186391071372" lon="12.640852204590972"><ele>421.0</ele><time>2026-05-03T15:22:53.999Z</time></trkpt><trkpt lat="43.191979959190974" lon="12.641107725371848"><ele>424.33333333333337</ele><time>2026-05-03T15:22:54.999Z</time></trkpt><trkpt lat="43.19207000904842" lon="12.641341215663873"><ele>427.66666666666663</ele><time>2026-05-03T15:22:55.999Z</time></trkpt><trkpt lat="43.19214408910009" lon="12.641575779127251"><ele>431.0</ele><time>2026-05-03T15:22:56.999Z</time></trkpt><trkpt lat="43.19222919505708" lon="12.641808550104864"><ele>431.3333333333333</ele><time>2026-05-03T15:22:57.999Z</time></trkpt><trkpt lat="43.192303143401446" lon="12.642033978656798"><ele>431.66666666666663</ele><time>2026-05-03T15:22:59.001Z</time></trkpt><trkpt lat="43.1923879063805" lon="12.642298038116909"><ele>432.0</ele><time>2026-05-03T15:23:00.001Z</time></trkpt><trkpt lat="43.192469247831795" lon="12.64254430660397"><ele>428.0</ele><time>2026-05-03T15:23:01.001Z</time></trkpt><trkpt lat="43.1925485837063" lon="12.642799487212562"><ele>424.0</ele><time>2026-05-03T15:23:02.001Z</time></trkpt><trkpt lat="43.19263099188176" lon="12.643052224301705"><ele>420.0</ele><time>2026-05-03T15:23:03.001Z</time></trkpt><trkpt lat="43.19271226924738" lon="12.643316843056311"><ele>420.0</ele><time>2026-05-03T15:23:04.001Z</time></trkpt><trkpt lat="43.19279778529266" lon="12.643577611914049"><ele>420.0</ele><time>2026-05-03T15:23:05.001Z</time></trkpt><trkpt lat="43.19288482033884" lon="12.643848834225555"><ele>420.0</ele><time>2026-05-03T15:23:06.001Z</time></trkpt><trkpt lat="43.19296506604697" lon="12.644124919673361"><ele>421.66666666666663</ele><time>2026-05-03T15:23:07.001Z</time></trkpt><trkpt lat="43.19304930121947" lon="12.64440048211259"><ele>423.3333333333333</ele><time>2026-05-03T15:23:08.001Z</time></trkpt><trkpt lat="43.19313328688744" lon="12.644676206031882"><ele>425.0</ele><time>2026-05-03T15:23:09.001Z</time></trkpt><trkpt lat="43.193216475733045" lon="12.644957914877747"><ele>435.0</ele><time>2026-05-03T15:23:10Z</time></trkpt><trkpt lat="43.1933031857589" lon="12.645228932201412"><ele>445.0</ele><time>2026-05-03T15:23:11Z</time></trkpt><trkpt lat="43.193391234355865" lon="12.645502431702644"><ele>455.0</ele><time>2026-05-03T15:23:12Z</time></trkpt><trkpt lat="43.19349351255876" lon="12.645793234462054"><ele>455.5</ele><time>2026-05-03T15:23:13.067Z</time></trkpt><trkpt lat="43.1935837213204" lon="12.646079273756614"><ele>456.0</ele><time>2026-05-03T15:23:14.053Z</time></trkpt><trkpt lat="43.19366655339343" lon="12.646376742994402"><ele>456.33333333333337</ele><time>2026-05-03T15:23:15.05Z</time></trkpt><trkpt lat="43.193741011590504" lon="12.646662498153418"><ele>456.6666666666667</ele><time>2026-05-03T15:23:16.049Z</time></trkpt><trkpt lat="43.19382036495583" lon="12.646947500647698"><ele>457.0</ele><time>2026-05-03T15:23:17.042Z</time></trkpt><trkpt lat="43.194686940770275" lon="12.6494460156763"><ele>511.0</ele><time>2026-05-03T15:23:20.407Z</time></trkpt><trkpt lat="43.19493761586985" lon="12.650232313570335"><ele>517.0</ele><time>2026-05-03T15:23:21.403Z</time></trkpt><trkpt lat="43.195019" lon="12.6504866"><ele>523.0</ele><time>2026-05-03T15:23:22.407Z</time></trkpt><trkpt lat="43.19967413637753" lon="12.65985724995176"><ele>488.0</ele><time>2026-05-03T15:24:18Z</time></trkpt><trkpt lat="43.19987115814872" lon="12.660010405323119"><ele>453.0</ele><time>2026-05-03T15:24:19Z</time></trkpt><trkpt lat="43.20007328702454" lon="12.660128913529594"><ele>418.0</ele><time>2026-05-03T15:24:20Z</time></trkpt><trkpt lat="43.20026671429524" lon="12.66025515650706"><ele>419.0</ele><time>2026-05-03T15:24:21Z</time></trkpt><trkpt lat="43.20046453138499" lon="12.660385897432276"><ele>420.0</ele><time>2026-05-03T15:24:22Z</time></trkpt><trkpt lat="43.20066694786899" lon="12.660511852232297"><ele>421.0</ele><time>2026-05-03T15:24:23Z</time></trkpt><trkpt lat="43.20087212712217" lon="12.66064078149918"><ele>416.5</ele><time>2026-05-03T15:24:24Z</time></trkpt><trkpt lat="43.20108197372169" lon="12.66076474017523"><ele>412.0</ele><time>2026-05-03T15:24:25Z</time></trkpt><trkpt lat="43.20129500812492" lon="12.660884597517608"><ele>414.0</ele><time>2026-05-03T15:24:26Z</time></trkpt><trkpt lat="43.20150790601636" lon="12.661016253654417"><ele>416.0</ele><time>2026-05-03T15:24:27Z</time></trkpt><trkpt lat="43.201720727919344" lon="12.66115377486996"><ele>416.0</ele><time>2026-05-03T15:24:28Z</time></trkpt><trkpt lat="43.201937194476116" lon="12.661300712056311"><ele>416.0</ele><time>2026-05-03T15:24:29Z</time></trkpt><trkpt lat="43.202151114824055" lon="12.661453654311273"><ele>409.5</ele><time>2026-05-03T15:24:30Z</time></trkpt><trkpt lat="43.20236912144221" lon="12.661606418383728"><ele>403.0</ele><time>2026-05-03T15:24:31Z</time></trkpt><trkpt lat="43.20259077468602" lon="12.661759752936485"><ele>403.0</ele><time>2026-05-03T15:24:32Z</time></trkpt><trkpt lat="43.20281756268729" lon="12.661909248017075"><ele>403.0</ele><time>2026-05-03T15:24:33Z</time></trkpt><trkpt lat="43.203046475431925" lon="12.662060379452875"><ele>399.0</ele><time>2026-05-03T15:24:34Z</time></trkpt><trkpt lat="43.20327176122936" lon="12.662214298985004"><ele>395.0</ele><time>2026-05-03T15:24:35Z</time></trkpt><trkpt lat="43.20349969790374" lon="12.662367055819294"><ele>395.0</ele><time>2026-05-03T15:24:36Z</time></trkpt><trkpt lat="43.20372321331025" lon="12.662521092225855"><ele>395.0</ele><time>2026-05-03T15:24:37Z</time></trkpt><trkpt lat="43.20395362700981" lon="12.66267472977363"><ele>394.5</ele><time>2026-05-03T15:24:38Z</time></trkpt><trkpt lat="43.204179685268514" lon="12.662829299210388"><ele>394.0</ele><time>2026-05-03T15:24:39Z</time></trkpt><trkpt lat="43.204408953762155" lon="12.662981900931797"><ele>394.0</ele><time>2026-05-03T15:24:39.999Z</time></trkpt><trkpt lat="43.20463294919594" lon="12.663138791611969"><ele>394.0</ele><time>2026-05-03T15:24:40.999Z</time></trkpt><trkpt lat="43.20486160988892" lon="12.663291519166961"><ele>391.5</ele><time>2026-05-03T15:24:41.999Z</time></trkpt><trkpt lat="43.20509163979896" lon="12.663446250866755"><ele>389.0</ele><time>2026-05-03T15:24:42.999Z</time></trkpt><trkpt lat="43.20532020867664" lon="12.663600294826038"><ele>389.5</ele><time>2026-05-03T15:24:43.999Z</time></trkpt><trkpt lat="43.20555069903107" lon="12.66374728367609"><ele>390.0</ele><time>2026-05-03T15:24:44.999Z</time></trkpt><trkpt lat="43.20579085962618" lon="12.663888712731556"><ele>390.0</ele><time>2026-05-03T15:24:45.999Z</time></trkpt><trkpt lat="43.20604029799643" lon="12.664022937858396"><ele>390.0</ele><time>2026-05-03T15:24:46.999Z</time></trkpt><trkpt lat="43.20628365845844" lon="12.664208838862796"><ele>389.0</ele><time>2026-05-03T15:24:47.999Z</time></trkpt><trkpt lat="43.206544843807606" lon="12.664354895074242"><ele>388.0</ele><time>2026-05-03T15:24:48.999Z</time></trkpt><trkpt lat="43.206693569828225" lon="12.664541557174351"><ele>388.0</ele><time>2026-05-03T15:24:49.999Z</time></trkpt><trkpt lat="43.20692485624938" lon="12.664695848870968"><ele>388.0</ele><time>2026-05-03T15:24:50.999Z</time></trkpt><trkpt lat="43.20715878015876" lon="12.66485047602"><ele>389.5</ele><time>2026-05-03T15:24:51.999Z</time></trkpt><trkpt lat="43.20739058973612" lon="12.665011190675385"><ele>391.0</ele><time>2026-05-03T15:24:52.999Z</time></trkpt><trkpt lat="43.20762444055253" lon="12.665169331358355"><ele>394.0</ele><time>2026-05-03T15:24:53.999Z</time></trkpt><trkpt lat="43.20785907505147" lon="12.665325634937236"><ele>397.0</ele><time>2026-05-03T15:24:54.999Z</time></trkpt><trkpt lat="43.20809669563648" lon="12.665486401555581"><ele>398.5</ele><time>2026-05-03T15:24:55.999Z</time></trkpt><trkpt lat="43.20833183888965" lon="12.665654501984456"><ele>400.0</ele><time>2026-05-03T15:24:56.999Z</time></trkpt><trkpt lat="43.208572360252454" lon="12.665815275189052"><ele>400.0</ele><time>2026-05-03T15:24:57.999Z</time></trkpt><trkpt lat="43.208814714693695" lon="12.665981261567914"><ele>400.0</ele><time>2026-05-03T15:24:58.999Z</time></trkpt><trkpt lat="43.20905916910717" lon="12.666150147453868"><ele>397.5</ele><time>2026-05-03T15:24:59.999Z</time></trkpt><trkpt lat="43.20930919567506" lon="12.666323994491393"><ele>395.0</ele><time>2026-05-03T15:25:00.999Z</time></trkpt><trkpt lat="43.209561410270894" lon="12.666493537509112"><ele>395.0</ele><time>2026-05-03T15:25:01.999Z</time></trkpt><trkpt lat="43.20981645019047" lon="12.666666436631713"><ele>395.0</ele><time>2026-05-03T15:25:02.999Z</time></trkpt><trkpt lat="43.210069893827814" lon="12.666836948205816"><ele>393.5</ele><time>2026-05-03T15:25:03.999Z</time></trkpt><trkpt lat="43.21032001890741" lon="12.667018105573337"><ele>392.0</ele><time>2026-05-03T15:25:05.001Z</time></trkpt><trkpt lat="43.21057185294048" lon="12.667195452706602"><ele>386.0</ele><time>2026-05-03T15:25:06.001Z</time></trkpt><trkpt lat="43.21082292470153" lon="12.667365481047058"><ele>380.0</ele><time>2026-05-03T15:25:07.001Z</time></trkpt><trkpt lat="43.21107149795396" lon="12.667536011089785"><ele>380.0</ele><time>2026-05-03T15:25:08.001Z</time></trkpt><trkpt lat="43.211323564113286" lon="12.667703051700668"><ele>380.0</ele><time>2026-05-03T15:25:09.001Z</time></trkpt><trkpt lat="43.21155939099926" lon="12.667864226905206"><ele>374.5</ele><time>2026-05-03T15:25:10.001Z</time></trkpt><trkpt lat="43.21179278573082" lon="12.668019709238154"><ele>369.0</ele><time>2026-05-03T15:25:11.001Z</time></trkpt><trkpt lat="43.21201658416072" lon="12.668169358215064"><ele>369.0</ele><time>2026-05-03T15:25:12.001Z</time></trkpt><trkpt lat="43.21223953495327" lon="12.668306597795116"><ele>369.0</ele><time>2026-05-03T15:25:13.001Z</time></trkpt><trkpt lat="43.212466811532984" lon="12.668443692672557"><ele>368.0</ele><time>2026-05-03T15:25:14.001Z</time></trkpt><trkpt lat="43.21270020163643" lon="12.6685790732231"><ele>367.0</ele><time>2026-05-03T15:25:15.001Z</time></trkpt><trkpt lat="43.2129294023397" lon="12.668706543415862"><ele>369.0</ele><time>2026-05-03T15:25:16.001Z</time></trkpt><trkpt lat="43.21316088059532" lon="12.66882701331862"><ele>371.0</ele><time>2026-05-03T15:25:17.001Z</time></trkpt><trkpt lat="43.21338682973592" lon="12.668923813912592"><ele>371.0</ele><time>2026-05-03T15:25:18.001Z</time></trkpt><trkpt lat="43.2136247399066" lon="12.669022633410957"><ele>371.0</ele><time>2026-05-03T15:25:19.001Z</time></trkpt><trkpt lat="43.21386426663071" lon="12.66909132162229"><ele>369.0</ele><time>2026-05-03T15:25:20Z</time></trkpt><trkpt lat="43.21410775160096" lon="12.669149771562216"><ele>367.0</ele><time>2026-05-03T15:25:21Z</time></trkpt><trkpt lat="43.21435191839999" lon="12.669196448962188"><ele>367.0</ele><time>2026-05-03T15:25:22Z</time></trkpt><trkpt lat="43.214596927208795" lon="12.669228434194494"><ele>367.0</ele><time>2026-05-03T15:25:23Z</time></trkpt><trkpt lat="43.214848086867846" lon="12.66924923142077"><ele>365.5</ele><time>2026-05-03T15:25:24Z</time></trkpt><trkpt lat="43.21509109889091" lon="12.669255246336498"><ele>364.0</ele><time>2026-05-03T15:25:25Z</time></trkpt><trkpt lat="43.215344902685125" lon="12.66925062451264"><ele>364.0</ele><time>2026-05-03T15:25:26Z</time></trkpt><trkpt lat="43.215588301595744" lon="12.669227502471266"><ele>364.0</ele><time>2026-05-03T15:25:27Z</time></trkpt><trkpt lat="43.21583256444" lon="12.66918648734033"><ele>362.5</ele><time>2026-05-03T15:25:28Z</time></trkpt><trkpt lat="43.21607775269538" lon="12.669133044966708"><ele>361.0</ele><time>2026-05-03T15:25:29Z</time></trkpt><trkpt lat="43.21632252534382" lon="12.669066756276493"><ele>360.5</ele><time>2026-05-03T15:25:30Z</time></trkpt><trkpt lat="43.21656887332094" lon="12.668987762875114"><ele>360.0</ele><time>2026-05-03T15:25:31Z</time></trkpt><trkpt lat="43.216816395834435" lon="12.668896772807416"><ele>360.0</ele><time>2026-05-03T15:25:32Z</time></trkpt><trkpt lat="43.217053385070564" lon="12.668787438912998"><ele>360.0</ele><time>2026-05-03T15:25:33Z</time></trkpt><trkpt lat="43.217287328744085" lon="12.668658688301564"><ele>358.5</ele><time>2026-05-03T15:25:34Z</time></trkpt><trkpt lat="43.21751073423799" lon="12.668524193173266"><ele>357.0</ele><time>2026-05-03T15:25:35Z</time></trkpt><trkpt lat="43.21773991315798" lon="12.668378136716505"><ele>357.0</ele><time>2026-05-03T15:25:36Z</time></trkpt><trkpt lat="43.21796409508389" lon="12.668216732105119"><ele>357.0</ele><time>2026-05-03T15:25:37Z</time></trkpt><trkpt lat="43.21818089086025" lon="12.668046576428232"><ele>356.5</ele><time>2026-05-03T15:25:38Z</time></trkpt><trkpt lat="43.21839407892067" lon="12.667864158986921"><ele>356.0</ele><time>2026-05-03T15:25:39Z</time></trkpt><trkpt lat="43.21860434279711" lon="12.667670224033845"><ele>355.0</ele><time>2026-05-03T15:25:40Z</time></trkpt><trkpt lat="43.218812564613785" lon="12.667469324438965"><ele>354.0</ele><time>2026-05-03T15:25:41Z</time></trkpt><trkpt lat="43.21901731657599" lon="12.66726946386177"><ele>353.5</ele><time>2026-05-03T15:25:42Z</time></trkpt><trkpt lat="43.21922537947444" lon="12.667062737593328"><ele>353.0</ele><time>2026-05-03T15:25:43Z</time></trkpt><trkpt lat="43.219437762618796" lon="12.666847270029633"><ele>352.5</ele><time>2026-05-03T15:25:44Z</time></trkpt><trkpt lat="43.219638048345644" lon="12.666630773423865"><ele>352.0</ele><time>2026-05-03T15:25:45Z</time></trkpt><trkpt lat="43.21984203596315" lon="12.666410201036234"><ele>352.0</ele><time>2026-05-03T15:25:46Z</time></trkpt><trkpt lat="43.220052273339135" lon="12.666186739978674"><ele>352.0</ele><time>2026-05-03T15:25:47Z</time></trkpt><trkpt lat="43.220265023718326" lon="12.665962300463931"><ele>352.0</ele><time>2026-05-03T15:25:48Z</time></trkpt><trkpt lat="43.220480316928125" lon="12.665738468066849"><ele>352.0</ele><time>2026-05-03T15:25:49Z</time></trkpt><trkpt lat="43.220696324420025" lon="12.665513280739736"><ele>352.0</ele><time>2026-05-03T15:25:50Z</time></trkpt><trkpt lat="43.220910551838884" lon="12.665287615019903"><ele>352.0</ele><time>2026-05-03T15:25:51Z</time></trkpt><trkpt lat="43.2211206823806" lon="12.665065402206805"><ele>352.0</ele><time>2026-05-03T15:25:52Z</time></trkpt><trkpt lat="43.2213344162853" lon="12.664838829552941"><ele>352.0</ele><time>2026-05-03T15:25:53Z</time></trkpt><trkpt lat="43.221548434071984" lon="12.664614933399966"><ele>353.0</ele><time>2026-05-03T15:25:54Z</time></trkpt><trkpt lat="43.2217703702952" lon="12.664385528021896"><ele>354.0</ele><time>2026-05-03T15:25:55Z</time></trkpt><trkpt lat="43.22198517243261" lon="12.664157473994745"><ele>354.0</ele><time>2026-05-03T15:25:56Z</time></trkpt><trkpt lat="43.222203639119776" lon="12.663925397184107"><ele>354.0</ele><time>2026-05-03T15:25:57Z</time></trkpt><trkpt lat="43.22242117143919" lon="12.663690795356885"><ele>353.0</ele><time>2026-05-03T15:25:58Z</time></trkpt><trkpt lat="43.22263475559672" lon="12.663463003729328"><ele>352.0</ele><time>2026-05-03T15:25:59Z</time></trkpt><trkpt lat="43.222856200813915" lon="12.663228371370554"><ele>352.0</ele><time>2026-05-03T15:26:00Z</time></trkpt><trkpt lat="43.22307414933774" lon="12.662998641241595"><ele>352.0</ele><time>2026-05-03T15:26:01Z</time></trkpt><trkpt lat="43.223293505643746" lon="12.662771667463215"><ele>351.5</ele><time>2026-05-03T15:26:02Z</time></trkpt><trkpt lat="43.22351783230015" lon="12.662551425241976"><ele>351.0</ele><time>2026-05-03T15:26:03Z</time></trkpt><trkpt lat="43.223746423019456" lon="12.662329557718438"><ele>351.0</ele><time>2026-05-03T15:26:04Z</time></trkpt><trkpt lat="43.223976314625055" lon="12.66211034175648"><ele>351.0</ele><time>2026-05-03T15:26:05Z</time></trkpt><trkpt lat="43.22420831846288" lon="12.661902650020169"><ele>350.5</ele><time>2026-05-03T15:26:06Z</time></trkpt><trkpt lat="43.22444203379589" lon="12.661707895555107"><ele>350.0</ele><time>2026-05-03T15:26:07Z</time></trkpt><trkpt lat="43.224683706058315" lon="12.661524113395945"><ele>351.0</ele><time>2026-05-03T15:26:08Z</time></trkpt><trkpt lat="43.224927892370076" lon="12.661345398566862"><ele>352.0</ele><time>2026-05-03T15:26:09Z</time></trkpt><trkpt lat="43.225175106601725" lon="12.661189836327608"><ele>351.5</ele><time>2026-05-03T15:26:10Z</time></trkpt><trkpt lat="43.22543203842354" lon="12.66104876140793"><ele>351.0</ele><time>2026-05-03T15:26:11Z</time></trkpt><trkpt lat="43.22568750407932" lon="12.660920469037617"><ele>351.0</ele><time>2026-05-03T15:26:12Z</time></trkpt><trkpt lat="43.22594836888653" lon="12.660802578316924"><ele>351.0</ele><time>2026-05-03T15:26:13Z</time></trkpt><trkpt lat="43.226210433983816" lon="12.660695478039777"><ele>351.0</ele><time>2026-05-03T15:26:14Z</time></trkpt><trkpt lat="43.22647292160644" lon="12.660593426305764"><ele>351.0</ele><time>2026-05-03T15:26:15Z</time></trkpt><trkpt lat="43.226738806352" lon="12.66049149893562"><ele>351.5</ele><time>2026-05-03T15:26:16Z</time></trkpt><trkpt lat="43.22700472856113" lon="12.660385924613818"><ele>352.0</ele><time>2026-05-03T15:26:17Z</time></trkpt><trkpt lat="43.22727165028416" lon="12.660277327234784"><ele>350.0</ele><time>2026-05-03T15:26:18Z</time></trkpt><trkpt lat="43.227543625972714" lon="12.660168921129387"><ele>348.0</ele><time>2026-05-03T15:26:19Z</time></trkpt><trkpt lat="43.22781745019259" lon="12.660063605915255"><ele>348.0</ele><time>2026-05-03T15:26:20Z</time></trkpt><trkpt lat="43.228091047731155" lon="12.659963044564646"><ele>348.0</ele><time>2026-05-03T15:26:21Z</time></trkpt><trkpt lat="43.228357974454035" lon="12.659860331370817"><ele>351.5</ele><time>2026-05-03T15:26:22Z</time></trkpt><trkpt lat="43.22863092261773" lon="12.659756005420213"><ele>355.0</ele><time>2026-05-03T15:26:23Z</time></trkpt><trkpt lat="43.228901349957745" lon="12.659649765433116"><ele>355.5</ele><time>2026-05-03T15:26:24Z</time></trkpt><trkpt lat="43.229165039156634" lon="12.659536341210249"><ele>356.0</ele><time>2026-05-03T15:26:25Z</time></trkpt><trkpt lat="43.22942656255296" lon="12.659417970067674"><ele>351.0</ele><time>2026-05-03T15:26:26Z</time></trkpt><trkpt lat="43.22968368158174" lon="12.659291839049684"><ele>346.0</ele><time>2026-05-03T15:26:27Z</time></trkpt><trkpt lat="43.229934262073414" lon="12.659155569506108"><ele>346.0</ele><time>2026-05-03T15:26:28Z</time></trkpt><trkpt lat="43.23018190928948" lon="12.659007836219216"><ele>346.0</ele><time>2026-05-03T15:26:29Z</time></trkpt><trkpt lat="43.230426445839456" lon="12.65884639387624"><ele>347.5</ele><time>2026-05-03T15:26:30Z</time></trkpt><trkpt lat="43.23066529207408" lon="12.658678472330815"><ele>349.0</ele><time>2026-05-03T15:26:31Z</time></trkpt><trkpt lat="43.230900566048" lon="12.658502116240946"><ele>345.5</ele><time>2026-05-03T15:26:32Z</time></trkpt><trkpt lat="43.23113484418424" lon="12.658319975053665"><ele>342.0</ele><time>2026-05-03T15:26:33Z</time></trkpt><trkpt lat="43.23136721562185" lon="12.65813394108092"><ele>343.0</ele><time>2026-05-03T15:26:34Z</time></trkpt><trkpt lat="43.23160256132551" lon="12.657944472007873"><ele>344.0</ele><time>2026-05-03T15:26:35Z</time></trkpt><trkpt lat="43.2318380725313" lon="12.657761544666565"><ele>344.0</ele><time>2026-05-03T15:26:36Z</time></trkpt><trkpt lat="43.232074977923496" lon="12.657577128185778"><ele>344.0</ele><time>2026-05-03T15:26:37Z</time></trkpt><trkpt lat="43.232313606882585" lon="12.657396197422417"><ele>345.5</ele><time>2026-05-03T15:26:37.999Z</time></trkpt><trkpt lat="43.23254755091724" lon="12.657211494797767"><ele>347.0</ele><time>2026-05-03T15:26:38.999Z</time></trkpt><trkpt lat="43.23278235396483" lon="12.657026674770268"><ele>344.0</ele><time>2026-05-03T15:26:39.999Z</time></trkpt><trkpt lat="43.23301657422057" lon="12.656845486145855"><ele>341.0</ele><time>2026-05-03T15:26:40.999Z</time></trkpt><trkpt lat="43.23324387052836" lon="12.656656591186856"><ele>341.0</ele><time>2026-05-03T15:26:41.999Z</time></trkpt><trkpt lat="43.23347296826049" lon="12.65647219180166"><ele>341.0</ele><time>2026-05-03T15:26:42.999Z</time></trkpt><trkpt lat="43.23370308227908" lon="12.656293164135924"><ele>341.0</ele><time>2026-05-03T15:26:43.999Z</time></trkpt><trkpt lat="43.23392276569539" lon="12.656130824718138"><ele>341.0</ele><time>2026-05-03T15:26:44.999Z</time></trkpt><trkpt lat="43.23413650095273" lon="12.655979775447994"><ele>338.5</ele><time>2026-05-03T15:26:45.999Z</time></trkpt><trkpt lat="43.234357429154876" lon="12.655840223752651"><ele>336.0</ele><time>2026-05-03T15:26:46.999Z</time></trkpt><trkpt lat="43.234574583154085" lon="12.655724872847385"><ele>336.0</ele><time>2026-05-03T15:26:47.999Z</time></trkpt><trkpt lat="43.23479303577281" lon="12.655633662784277"><ele>336.0</ele><time>2026-05-03T15:26:48.999Z</time></trkpt><trkpt lat="43.23501878630956" lon="12.655563663881987"><ele>336.0</ele><time>2026-05-03T15:26:49.999Z</time></trkpt><trkpt lat="43.23524860940429" lon="12.655512253308808"><ele>336.0</ele><time>2026-05-03T15:26:50.999Z</time></trkpt><trkpt lat="43.235476773627305" lon="12.655479949064341"><ele>337.0</ele><time>2026-05-03T15:26:51.999Z</time></trkpt><trkpt lat="43.23570546800773" lon="12.655468628591395"><ele>338.0</ele><time>2026-05-03T15:26:52.999Z</time></trkpt><trkpt lat="43.23593515500827" lon="12.655477781543043"><ele>338.0</ele><time>2026-05-03T15:26:53.999Z</time></trkpt><trkpt lat="43.23616508664229" lon="12.655506871934158"><ele>338.0</ele><time>2026-05-03T15:26:54.999Z</time></trkpt><trkpt lat="43.236390046222226" lon="12.65555735743185"><ele>337.5</ele><time>2026-05-03T15:26:55.999Z</time></trkpt><trkpt lat="43.236616307963374" lon="12.655622917096316"><ele>337.0</ele><time>2026-05-03T15:26:56.999Z</time></trkpt><trkpt lat="43.23683769258012" lon="12.655703773657567"><ele>337.0</ele><time>2026-05-03T15:26:57.999Z</time></trkpt><trkpt lat="43.237058093020465" lon="12.655798074937644"><ele>337.0</ele><time>2026-05-03T15:26:58.999Z</time></trkpt><trkpt lat="43.23727873332489" lon="12.655907823904126"><ele>336.5</ele><time>2026-05-03T15:26:59.999Z</time></trkpt><trkpt lat="43.23750538574802" lon="12.656019873673461"><ele>336.0</ele><time>2026-05-03T15:27:00.999Z</time></trkpt><trkpt lat="43.23773240497282" lon="12.65612833687021"><ele>337.0</ele><time>2026-05-03T15:27:01.999Z</time></trkpt><trkpt lat="43.23796234282261" lon="12.656237085435732"><ele>338.0</ele><time>2026-05-03T15:27:02.999Z</time></trkpt><trkpt lat="43.23820118924412" lon="12.656346487622274"><ele>338.0</ele><time>2026-05-03T15:27:03.999Z</time></trkpt><trkpt lat="43.238437756100986" lon="12.656457165471936"><ele>338.0</ele><time>2026-05-03T15:27:04.999Z</time></trkpt><trkpt lat="43.23867842177908" lon="12.656566951074842"><ele>338.0</ele><time>2026-05-03T15:27:05.999Z</time></trkpt><trkpt lat="43.238916154967285" lon="12.656676170004733"><ele>338.0</ele><time>2026-05-03T15:27:06.999Z</time></trkpt><trkpt lat="43.23914566096962" lon="12.656791934643788"><ele>338.5</ele><time>2026-05-03T15:27:07.999Z</time></trkpt><trkpt lat="43.23936800617071" lon="12.656917163856745"><ele>339.0</ele><time>2026-05-03T15:27:08.999Z</time></trkpt><trkpt lat="43.23957527169821" lon="12.657059109635258"><ele>339.0</ele><time>2026-05-03T15:27:09.999Z</time></trkpt><trkpt lat="43.239777947272465" lon="12.657222235283085"><ele>339.0</ele><time>2026-05-03T15:27:11.001Z</time></trkpt><trkpt lat="43.23996891131256" lon="12.657404006584777"><ele>340.0</ele><time>2026-05-03T15:27:12.001Z</time></trkpt><trkpt lat="43.24014829829925" lon="12.657603127001243"><ele>341.0</ele><time>2026-05-03T15:27:13.001Z</time></trkpt><trkpt lat="43.240321073725354" lon="12.65781864847476"><ele>341.0</ele><time>2026-05-03T15:27:14.001Z</time></trkpt><trkpt lat="43.24048873358805" lon="12.658047340568462"><ele>341.0</ele><time>2026-05-03T15:27:15.001Z</time></trkpt><trkpt lat="43.240644062069876" lon="12.658288437402012"><ele>340.5</ele><time>2026-05-03T15:27:16.001Z</time></trkpt><trkpt lat="43.24079240949734" lon="12.658545378895985"><ele>340.0</ele><time>2026-05-03T15:27:17.001Z</time></trkpt><trkpt lat="43.240933865414455" lon="12.658815878739054"><ele>340.0</ele><time>2026-05-03T15:27:18.001Z</time></trkpt><trkpt lat="43.24107322168025" lon="12.659096403273812"><ele>340.0</ele><time>2026-05-03T15:27:19.001Z</time></trkpt><trkpt lat="43.241218032305824" lon="12.659377076686477"><ele>340.5</ele><time>2026-05-03T15:27:20.001Z</time></trkpt><trkpt lat="43.24137054957199" lon="12.659658963304333"><ele>341.0</ele><time>2026-05-03T15:27:21.001Z</time></trkpt><trkpt lat="43.2415239214025" lon="12.659938220187392"><ele>341.0</ele><time>2026-05-03T15:27:22Z</time></trkpt><trkpt lat="43.241668542887616" lon="12.660212838884307"><ele>341.0</ele><time>2026-05-03T15:27:23Z</time></trkpt><trkpt lat="43.24181716601867" lon="12.660490815694263"><ele>344.0</ele><time>2026-05-03T15:27:24Z</time></trkpt><trkpt lat="43.24196494934803" lon="12.66077545145157"><ele>347.0</ele><time>2026-05-03T15:27:25Z</time></trkpt><trkpt lat="43.24211433989772" lon="12.661059633671224"><ele>347.5</ele><time>2026-05-03T15:27:26Z</time></trkpt><trkpt lat="43.24226486863222" lon="12.661345993658921"><ele>348.0</ele><time>2026-05-03T15:27:27Z</time></trkpt><trkpt lat="43.24241362509272" lon="12.661628085905859"><ele>348.0</ele><time>2026-05-03T15:27:28Z</time></trkpt><trkpt lat="43.242565845427464" lon="12.661913721142676"><ele>348.0</ele><time>2026-05-03T15:27:29Z</time></trkpt><trkpt lat="43.242717797916455" lon="12.662197842683074"><ele>351.5</ele><time>2026-05-03T15:27:30Z</time></trkpt><trkpt lat="43.24286836630757" lon="12.662479240948917"><ele>355.0</ele><time>2026-05-03T15:27:31Z</time></trkpt><trkpt lat="43.24301955198626" lon="12.662756102920627"><ele>352.5</ele><time>2026-05-03T15:27:32Z</time></trkpt><trkpt lat="43.24317242392321" lon="12.663029410319265"><ele>350.0</ele><time>2026-05-03T15:27:33Z</time></trkpt><trkpt lat="43.243329982567104" lon="12.663293903418268"><ele>350.0</ele><time>2026-05-03T15:27:34Z</time></trkpt><trkpt lat="43.2434931649834" lon="12.663548994682326"><ele>350.0</ele><time>2026-05-03T15:27:35Z</time></trkpt><trkpt lat="43.243665531539136" lon="12.663788020330326"><ele>350.0</ele><time>2026-05-03T15:27:36Z</time></trkpt><trkpt lat="43.24384826778504" lon="12.664010756862803"><ele>350.0</ele><time>2026-05-03T15:27:37Z</time></trkpt><trkpt lat="43.244034660019246" lon="12.664214986744698"><ele>350.0</ele><time>2026-05-03T15:27:38Z</time></trkpt><trkpt lat="43.24423425903894" lon="12.664400261006179"><ele>350.0</ele><time>2026-05-03T15:27:39Z</time></trkpt><trkpt lat="43.244441821209186" lon="12.664575854425658"><ele>352.0</ele><time>2026-05-03T15:27:40Z</time></trkpt><trkpt lat="43.24465272608794" lon="12.664745173323054"><ele>354.0</ele><time>2026-05-03T15:27:41Z</time></trkpt><trkpt lat="43.24485899959478" lon="12.664904493285704"><ele>354.0</ele><time>2026-05-03T15:27:42Z</time></trkpt><trkpt lat="43.24506948348504" lon="12.6650738520502"><ele>354.0</ele><time>2026-05-03T15:27:43Z</time></trkpt><trkpt lat="43.24527835127686" lon="12.66524526244981"><ele>352.0</ele><time>2026-05-03T15:27:44Z</time></trkpt><trkpt lat="43.245488312173144" lon="12.665419229650386"><ele>350.0</ele><time>2026-05-03T15:27:45Z</time></trkpt><trkpt lat="43.24570049205645" lon="12.66559430737303"><ele>350.0</ele><time>2026-05-03T15:27:46Z</time></trkpt><trkpt lat="43.24591114867861" lon="12.665764141904502"><ele>350.0</ele><time>2026-05-03T15:27:47Z</time></trkpt><trkpt lat="43.24612268551531" lon="12.665932418478288"><ele>350.0</ele><time>2026-05-03T15:27:48Z</time></trkpt><trkpt lat="43.246333906939086" lon="12.66610032874635"><ele>350.0</ele><time>2026-05-03T15:27:49Z</time></trkpt><trkpt lat="43.24654290767391" lon="12.666267045111887"><ele>353.0</ele><time>2026-05-03T15:27:50Z</time></trkpt><trkpt lat="43.24674984352722" lon="12.666432749965928"><ele>356.0</ele><time>2026-05-03T15:27:51Z</time></trkpt><trkpt lat="43.2469558063929" lon="12.666598380191337"><ele>356.0</ele><time>2026-05-03T15:27:52Z</time></trkpt><trkpt lat="43.247162409076644" lon="12.66676530166503"><ele>356.0</ele><time>2026-05-03T15:27:53Z</time></trkpt><trkpt lat="43.24736922440676" lon="12.666933594191244"><ele>361.5</ele><time>2026-05-03T15:27:54Z</time></trkpt><trkpt lat="43.24757934765845" lon="12.667102707248633"><ele>367.0</ele><time>2026-05-03T15:27:55Z</time></trkpt><trkpt lat="43.24779352244065" lon="12.667273170848114"><ele>367.0</ele><time>2026-05-03T15:27:56Z</time></trkpt><trkpt lat="43.2480084536491" lon="12.667444867402297"><ele>367.0</ele><time>2026-05-03T15:27:57Z</time></trkpt><trkpt lat="43.24822418711027" lon="12.66761728184385"><ele>369.5</ele><time>2026-05-03T15:27:58Z</time></trkpt><trkpt lat="43.24843723643341" lon="12.667785696798648"><ele>372.0</ele><time>2026-05-03T15:27:59Z</time></trkpt><trkpt lat="43.24864974488214" lon="12.667952721683994"><ele>372.0</ele><time>2026-05-03T15:28:00Z</time></trkpt><trkpt lat="43.24885817775484" lon="12.668119178081795"><ele>372.0</ele><time>2026-05-03T15:28:01Z</time></trkpt><trkpt lat="43.24907400459005" lon="12.668291941626352"><ele>369.5</ele><time>2026-05-03T15:28:02Z</time></trkpt><trkpt lat="43.24929428691268" lon="12.668466111797018"><ele>367.0</ele><time>2026-05-03T15:28:03Z</time></trkpt><trkpt lat="43.2495133940599" lon="12.668640835305562"><ele>367.5</ele><time>2026-05-03T15:28:03.999Z</time></trkpt><trkpt lat="43.24973140877175" lon="12.668815125417863"><ele>368.0</ele><time>2026-05-03T15:28:04.999Z</time></trkpt><trkpt lat="43.249949839091784" lon="12.668987247706548"><ele>368.0</ele><time>2026-05-03T15:28:05.999Z</time></trkpt><trkpt lat="43.25016774189281" lon="12.669161958738876"><ele>368.0</ele><time>2026-05-03T15:28:06.999Z</time></trkpt><trkpt lat="43.250387674697656" lon="12.669339080057977"><ele>368.5</ele><time>2026-05-03T15:28:07.999Z</time></trkpt><trkpt lat="43.25060233073795" lon="12.669510265265796"><ele>369.0</ele><time>2026-05-03T15:28:08.999Z</time></trkpt><trkpt lat="43.250813200406334" lon="12.669681044331472"><ele>369.0</ele><time>2026-05-03T15:28:09.999Z</time></trkpt><trkpt lat="43.251023368952005" lon="12.66985131093877"><ele>369.0</ele><time>2026-05-03T15:28:10.999Z</time></trkpt><trkpt lat="43.25123670777007" lon="12.670023761745977"><ele>369.0</ele><time>2026-05-03T15:28:11.999Z</time></trkpt><trkpt lat="43.25144611843172" lon="12.670190754924244"><ele>369.0</ele><time>2026-05-03T15:28:12.999Z</time></trkpt><trkpt lat="43.25166115728893" lon="12.67036127530769"><ele>367.0</ele><time>2026-05-03T15:28:13.999Z</time></trkpt><trkpt lat="43.25187596346405" lon="12.670532889840311"><ele>365.0</ele><time>2026-05-03T15:28:14.999Z</time></trkpt><trkpt lat="43.252089249537406" lon="12.670700768291718"><ele>360.5</ele><time>2026-05-03T15:28:15.999Z</time></trkpt><trkpt lat="43.25230342243082" lon="12.670869984217155"><ele>356.0</ele><time>2026-05-03T15:28:16.999Z</time></trkpt><trkpt lat="43.2525111015185" lon="12.671035140863584"><ele>362.0</ele><time>2026-05-03T15:28:17.999Z</time></trkpt><trkpt lat="43.2527148008105" lon="12.671197872672046"><ele>368.0</ele><time>2026-05-03T15:28:18.999Z</time></trkpt><trkpt lat="43.25291777630018" lon="12.671361210085228"><ele>361.0</ele><time>2026-05-03T15:28:19.999Z</time></trkpt><trkpt lat="43.25320015030311" lon="12.671588311105632"><ele>354.0</ele><time>2026-05-03T15:28:20.999Z</time></trkpt><trkpt lat="43.25343400738745" lon="12.671784131868531"><ele>357.0</ele><time>2026-05-03T15:28:21.999Z</time></trkpt><trkpt lat="43.253664661917945" lon="12.671972896846617"><ele>360.0</ele><time>2026-05-03T15:28:22.999Z</time></trkpt><trkpt lat="43.253892954207814" lon="12.672162114471584"><ele>355.0</ele><time>2026-05-03T15:28:23.999Z</time></trkpt><trkpt lat="43.25411567576818" lon="12.672363632949203"><ele>350.0</ele><time>2026-05-03T15:28:24.999Z</time></trkpt><trkpt lat="43.25432560331795" lon="12.67257808192294"><ele>351.5</ele><time>2026-05-03T15:28:25.999Z</time></trkpt><trkpt lat="43.254527722614526" lon="12.672802691998724"><ele>353.0</ele><time>2026-05-03T15:28:26.999Z</time></trkpt><trkpt lat="43.25472135582772" lon="12.673031042141762"><ele>351.5</ele><time>2026-05-03T15:28:27.999Z</time></trkpt><trkpt lat="43.25491262807561" lon="12.673269810481923"><ele>350.0</ele><time>2026-05-03T15:28:28.999Z</time></trkpt><trkpt lat="43.255099019069604" lon="12.67350863075474"><ele>351.5</ele><time>2026-05-03T15:28:29.999Z</time></trkpt><trkpt lat="43.25528560818958" lon="12.673747628501905"><ele>353.0</ele><time>2026-05-03T15:28:30.999Z</time></trkpt><trkpt lat="43.25546140882049" lon="12.673987990749433"><ele>353.5</ele><time>2026-05-03T15:28:31.999Z</time></trkpt><trkpt lat="43.25563087662066" lon="12.674233283310073"><ele>354.0</ele><time>2026-05-03T15:28:32.999Z</time></trkpt><trkpt lat="43.255790010723345" lon="12.67448319147878"><ele>354.0</ele><time>2026-05-03T15:28:33.999Z</time></trkpt><trkpt lat="43.2559483513251" lon="12.67474518402286"><ele>354.0</ele><time>2026-05-03T15:28:34.999Z</time></trkpt><trkpt lat="43.256108409342396" lon="12.675013846221706"><ele>354.5</ele><time>2026-05-03T15:28:35.999Z</time></trkpt><trkpt lat="43.2562646055385" lon="12.675290938774461"><ele>355.0</ele><time>2026-05-03T15:28:36.999Z</time></trkpt><trkpt lat="43.25641335712131" lon="12.675569135155966"><ele>355.5</ele><time>2026-05-03T15:28:37.999Z</time></trkpt><trkpt lat="43.256549616992636" lon="12.675844864435186"><ele>356.0</ele><time>2026-05-03T15:28:38.999Z</time></trkpt><trkpt lat="43.2566738327749" lon="12.676112993233925"><ele>356.0</ele><time>2026-05-03T15:28:39.999Z</time></trkpt><trkpt lat="43.256784027943816" lon="12.676372518134691"><ele>356.0</ele><time>2026-05-03T15:28:40.999Z</time></trkpt><trkpt lat="43.256889541755136" lon="12.676630737927933"><ele>356.0</ele><time>2026-05-03T15:28:41.999Z</time></trkpt><trkpt lat="43.25697643010036" lon="12.676891788119443"><ele>359.0</ele><time>2026-05-03T15:28:42.999Z</time></trkpt><trkpt lat="43.257076599369576" lon="12.677152863979877"><ele>362.0</ele><time>2026-05-03T15:28:43.999Z</time></trkpt><trkpt lat="43.25717109942722" lon="12.677404596861036"><ele>365.0</ele><time>2026-05-03T15:28:44.999Z</time></trkpt><trkpt lat="43.25726620463703" lon="12.677661656384082"><ele>361.6666666666667</ele><time>2026-05-03T15:28:45.999Z</time></trkpt><trkpt lat="43.2573552071472" lon="12.677917191858334"><ele>358.3333333333333</ele><time>2026-05-03T15:28:46.999Z</time></trkpt><trkpt lat="43.257448272195504" lon="12.678159880336189"><ele>355.0</ele><time>2026-05-03T15:28:47.999Z</time></trkpt><trkpt lat="43.257545689391044" lon="12.678425368290064"><ele>356.3333333333333</ele><time>2026-05-03T15:28:48.999Z</time></trkpt><trkpt lat="43.257641464648046" lon="12.678683770061184"><ele>357.6666666666667</ele><time>2026-05-03T15:28:49.999Z</time></trkpt><trkpt lat="43.2577410714131" lon="12.678939319124131"><ele>359.0</ele><time>2026-05-03T15:28:50.999Z</time></trkpt><trkpt lat="43.25783636496141" lon="12.679199586916639"><ele>358.33333333333337</ele><time>2026-05-03T15:28:51.999Z</time></trkpt><trkpt lat="43.25793319016944" lon="12.679457118588367"><ele>357.6666666666667</ele><time>2026-05-03T15:28:52.999Z</time></trkpt><trkpt lat="43.258031900166586" lon="12.679714684975659"><ele>357.0</ele><time>2026-05-03T15:28:53.999Z</time></trkpt><trkpt lat="43.25812743734422" lon="12.679973612511711"><ele>357.0</ele><time>2026-05-03T15:28:54.999Z</time></trkpt><trkpt lat="43.25822315917804" lon="12.680230157219727"><ele>357.0</ele><time>2026-05-03T15:28:55.999Z</time></trkpt><trkpt lat="43.25831857312884" lon="12.680486066965686"><ele>357.0</ele><time>2026-05-03T15:28:56.999Z</time></trkpt><trkpt lat="43.25840829540411" lon="12.680726736304548"><ele>357.0</ele><time>2026-05-03T15:28:57.999Z</time></trkpt><trkpt lat="43.25849532312386" lon="12.680966244625559"><ele>357.0</ele><time>2026-05-03T15:28:58.999Z</time></trkpt><trkpt lat="43.258579966412746" lon="12.681195404163768"><ele>357.0</ele><time>2026-05-03T15:28:59.999Z</time></trkpt><trkpt lat="43.258659177390655" lon="12.681416820563735"><ele>357.3333333333333</ele><time>2026-05-03T15:29:00.999Z</time></trkpt><trkpt lat="43.25872700812147" lon="12.681634237720653"><ele>357.66666666666663</ele><time>2026-05-03T15:29:01.999Z</time></trkpt><trkpt lat="43.25879665576791" lon="12.681843721085473"><ele>358.0</ele><time>2026-05-03T15:29:02.999Z</time></trkpt><trkpt lat="43.25886079689612" lon="12.682047523575289"><ele>359.0</ele><time>2026-05-03T15:29:03.999Z</time></trkpt><trkpt lat="43.25892632075277" lon="12.68224710103141"><ele>360.0</ele><time>2026-05-03T15:29:04.999Z</time></trkpt><trkpt lat="43.258989979719814" lon="12.682441634679906"><ele>361.0</ele><time>2026-05-03T15:29:05.999Z</time></trkpt><trkpt lat="43.25905662191267" lon="12.682623603477369"><ele>359.25</ele><time>2026-05-03T15:29:06.999Z</time></trkpt><trkpt lat="43.25911486532039" lon="12.682783589150048"><ele>357.5</ele><time>2026-05-03T15:29:07.999Z</time></trkpt><trkpt lat="43.25917461722383" lon="12.682958282749704"><ele>355.75</ele><time>2026-05-03T15:29:08.999Z</time></trkpt><trkpt lat="43.25923175002736" lon="12.683123036231569"><ele>354.0</ele><time>2026-05-03T15:29:09.999Z</time></trkpt><trkpt lat="43.2592829413753" lon="12.683287441794977"><ele>354.0</ele><time>2026-05-03T15:29:10.999Z</time></trkpt><trkpt lat="43.25933132247486" lon="12.683435959974604"><ele>354.0</ele><time>2026-05-03T15:29:11.999Z</time></trkpt><trkpt lat="43.25938813338873" lon="12.68358630047323"><ele>354.0</ele><time>2026-05-03T15:29:12.999Z</time></trkpt><trkpt lat="43.259441972377324" lon="12.683734975899148"><ele>354.0</ele><time>2026-05-03T15:29:13.999Z</time></trkpt><trkpt lat="43.25949323252929" lon="12.683884301374205"><ele>354.75</ele><time>2026-05-03T15:29:14.999Z</time></trkpt><trkpt lat="43.25954515838343" lon="12.684037292761378"><ele>355.5</ele><time>2026-05-03T15:29:15.999Z</time></trkpt><trkpt lat="43.259599610482205" lon="12.684182911504891"><ele>356.25</ele><time>2026-05-03T15:29:17Z</time></trkpt><trkpt lat="43.259656225998135" lon="12.68432137117593"><ele>357.0</ele><time>2026-05-03T15:29:18Z</time></trkpt><trkpt lat="43.25970660126468" lon="12.68446187294707"><ele>358.40000000000003</ele><time>2026-05-03T15:29:19Z</time></trkpt><trkpt lat="43.259739194724844" lon="12.68460587610192"><ele>359.8</ele><time>2026-05-03T15:29:20Z</time></trkpt><trkpt lat="43.25974380401594" lon="12.684750027056745"><ele>361.2</ele><time>2026-05-03T15:29:21Z</time></trkpt><trkpt lat="43.259723214536656" lon="12.684880572060035"><ele>362.6</ele><time>2026-05-03T15:29:22Z</time></trkpt><trkpt lat="43.25968281411484" lon="12.684999037527211"><ele>364.0</ele><time>2026-05-03T15:29:23Z</time></trkpt><trkpt lat="43.25962573959382" lon="12.685089837437687"><ele>364.0</ele><time>2026-05-03T15:29:24Z</time></trkpt><trkpt lat="43.25955481543465" lon="12.685160961991818"><ele>364.0</ele><time>2026-05-03T15:29:25Z</time></trkpt><trkpt lat="43.25947340641921" lon="12.685212168681206"><ele>364.0</ele><time>2026-05-03T15:29:26Z</time></trkpt><trkpt lat="43.25938770190615" lon="12.68524407253088"><ele>364.0</ele><time>2026-05-03T15:29:27Z</time></trkpt><trkpt lat="43.25929312564044" lon="12.685246473602291"><ele>364.0</ele><time>2026-05-03T15:29:28Z</time></trkpt><trkpt lat="43.25919719544671" lon="12.685243179777629"><ele>364.0</ele><time>2026-05-03T15:29:29Z</time></trkpt><trkpt lat="43.25909936292304" lon="12.685234828508003"><ele>364.0</ele><time>2026-05-03T15:29:30Z</time></trkpt><trkpt lat="43.258993506268624" lon="12.685214766340925"><ele>364.0</ele><time>2026-05-03T15:29:31Z</time></trkpt><trkpt lat="43.25889107463086" lon="12.685186476364102"><ele>364.0</ele><time>2026-05-03T15:29:32Z</time></trkpt><trkpt lat="43.258787249669254" lon="12.685142872665477"><ele>364.0</ele><time>2026-05-03T15:29:33Z</time></trkpt><trkpt lat="43.25868528922458" lon="12.685074246520811"><ele>367.5</ele><time>2026-05-03T15:29:34Z</time></trkpt><trkpt lat="43.258589122471776" lon="12.68498511996771"><ele>371.0</ele><time>2026-05-03T15:29:35Z</time></trkpt><trkpt lat="43.258505959633155" lon="12.684877100582499"><ele>374.5</ele><time>2026-05-03T15:29:36Z</time></trkpt><trkpt lat="43.258429019557674" lon="12.684754169004101"><ele>378.0</ele><time>2026-05-03T15:29:37Z</time></trkpt><trkpt lat="43.258356759342554" lon="12.684622225220078"><ele>378.0</ele><time>2026-05-03T15:29:38Z</time></trkpt><trkpt lat="43.25830197030012" lon="12.684475390068501"><ele>378.0</ele><time>2026-05-03T15:29:39Z</time></trkpt><trkpt lat="43.258265789701575" lon="12.684317730874241"><ele>378.0</ele><time>2026-05-03T15:29:40Z</time></trkpt><trkpt lat="43.258241978112714" lon="12.68414924206534"><ele>378.0</ele><time>2026-05-03T15:29:41Z</time></trkpt><trkpt lat="43.25823632505187" lon="12.683982215898247"><ele>375.25</ele><time>2026-05-03T15:29:42Z</time></trkpt><trkpt lat="43.258243380269946" lon="12.683806672603394"><ele>372.5</ele><time>2026-05-03T15:29:43Z</time></trkpt><trkpt lat="43.25827940510354" lon="12.683635360143027"><ele>369.75</ele><time>2026-05-03T15:29:44Z</time></trkpt><trkpt lat="43.25833270555621" lon="12.683468172000275"><ele>367.0</ele><time>2026-05-03T15:29:45Z</time></trkpt><trkpt lat="43.25840431504855" lon="12.68331121369566"><ele>365.5</ele><time>2026-05-03T15:29:46Z</time></trkpt><trkpt lat="43.258484973166745" lon="12.683161626971794"><ele>364.0</ele><time>2026-05-03T15:29:47Z</time></trkpt><trkpt lat="43.25858679358538" lon="12.683024043790263"><ele>362.5</ele><time>2026-05-03T15:29:48Z</time></trkpt><trkpt lat="43.25870260139957" lon="12.682902453160091"><ele>361.0</ele><time>2026-05-03T15:29:49Z</time></trkpt><trkpt lat="43.25882553094583" lon="12.68277533519752"><ele>361.0</ele><time>2026-05-03T15:29:50Z</time></trkpt><trkpt lat="43.258949133456284" lon="12.682644893557347"><ele>361.0</ele><time>2026-05-03T15:29:51Z</time></trkpt><trkpt lat="43.259073495158354" lon="12.682511851603596"><ele>361.0</ele><time>2026-05-03T15:29:52Z</time></trkpt><trkpt lat="43.2591982874499" lon="12.682369943960166"><ele>358.0</ele><time>2026-05-03T15:29:53Z</time></trkpt><trkpt lat="43.259325991760065" lon="12.682228206102973"><ele>355.0</ele><time>2026-05-03T15:29:54Z</time></trkpt><trkpt lat="43.259459112364134" lon="12.682080499581746"><ele>352.0</ele><time>2026-05-03T15:29:55Z</time></trkpt><trkpt lat="43.25959668885286" lon="12.681928722240595"><ele>352.0</ele><time>2026-05-03T15:29:56Z</time></trkpt><trkpt lat="43.259741443053954" lon="12.681774789882182"><ele>352.0</ele><time>2026-05-03T15:29:57Z</time></trkpt><trkpt lat="43.25989315472126" lon="12.68161218708983"><ele>352.0</ele><time>2026-05-03T15:29:58Z</time></trkpt><trkpt lat="43.260045606586566" lon="12.681446832384346"><ele>351.66666666666663</ele><time>2026-05-03T15:29:59Z</time></trkpt><trkpt lat="43.260200638000406" lon="12.681279768490612"><ele>351.3333333333333</ele><time>2026-05-03T15:30:00Z</time></trkpt><trkpt lat="43.26035507019334" lon="12.681109640912343"><ele>351.0</ele><time>2026-05-03T15:30:01Z</time></trkpt><trkpt lat="43.26051586198006" lon="12.680937026234746"><ele>350.3333333333333</ele><time>2026-05-03T15:30:02Z</time></trkpt><trkpt lat="43.26068191198035" lon="12.680756005543243"><ele>349.66666666666663</ele><time>2026-05-03T15:30:03Z</time></trkpt><trkpt lat="43.260846267750935" lon="12.680576988982157"><ele>349.0</ele><time>2026-05-03T15:30:04Z</time></trkpt><trkpt lat="43.26100601782782" lon="12.680389610130122"><ele>349.0</ele><time>2026-05-03T15:30:05Z</time></trkpt><trkpt lat="43.26116216977888" lon="12.680192665173472"><ele>349.0</ele><time>2026-05-03T15:30:06Z</time></trkpt><trkpt lat="43.26133584605453" lon="12.680030094625295"><ele>349.0</ele><time>2026-05-03T15:30:07Z</time></trkpt><trkpt lat="43.26150209388287" lon="12.679847645170035"><ele>349.0</ele><time>2026-05-03T15:30:08Z</time></trkpt><trkpt lat="43.26166698961591" lon="12.679664681261118"><ele>349.0</ele><time>2026-05-03T15:30:09Z</time></trkpt><trkpt lat="43.26183073042888" lon="12.679492985803645"><ele>349.0</ele><time>2026-05-03T15:30:10Z</time></trkpt><trkpt lat="43.26198945881013" lon="12.67930597321592"><ele>349.0</ele><time>2026-05-03T15:30:11Z</time></trkpt><trkpt lat="43.26215369963881" lon="12.679127320735148"><ele>349.0</ele><time>2026-05-03T15:30:12Z</time></trkpt><trkpt lat="43.26231604161084" lon="12.678949123461155"><ele>349.0</ele><time>2026-05-03T15:30:13Z</time></trkpt><trkpt lat="43.26247706941811" lon="12.67877407527024"><ele>348.66666666666663</ele><time>2026-05-03T15:30:14Z</time></trkpt><trkpt lat="43.2626421626093" lon="12.678593732664476"><ele>348.3333333333333</ele><time>2026-05-03T15:30:15Z</time></trkpt><trkpt lat="43.2628036200962" lon="12.678415282248512"><ele>348.0</ele><time>2026-05-03T15:30:16Z</time></trkpt><trkpt lat="43.262967832467844" lon="12.678231324293664"><ele>348.0</ele><time>2026-05-03T15:30:17Z</time></trkpt><trkpt lat="43.26313057657321" lon="12.678045137061915"><ele>348.0</ele><time>2026-05-03T15:30:18Z</time></trkpt><trkpt lat="43.263296702706526" lon="12.677867410327979"><ele>348.0</ele><time>2026-05-03T15:30:19Z</time></trkpt><trkpt lat="43.26345797433963" lon="12.677688675303763"><ele>348.3333333333333</ele><time>2026-05-03T15:30:20Z</time></trkpt><trkpt lat="43.26362048746513" lon="12.67751550811814"><ele>348.66666666666663</ele><time>2026-05-03T15:30:21Z</time></trkpt><trkpt lat="43.26378162984254" lon="12.677332756726006"><ele>349.0</ele><time>2026-05-03T15:30:22Z</time></trkpt><trkpt lat="43.26394477055787" lon="12.67714956287084"><ele>350.66666666666663</ele><time>2026-05-03T15:30:23Z</time></trkpt><trkpt lat="43.26411645542276" lon="12.676966747365835"><ele>352.3333333333333</ele><time>2026-05-03T15:30:24Z</time></trkpt><trkpt lat="43.264278651384124" lon="12.676788829967338"><ele>354.0</ele><time>2026-05-03T15:30:25Z</time></trkpt><trkpt lat="43.26444134635717" lon="12.676612039024377"><ele>354.0</ele><time>2026-05-03T15:30:26Z</time></trkpt><trkpt lat="43.26460527126148" lon="12.67643615311878"><ele>354.0</ele><time>2026-05-03T15:30:27Z</time></trkpt><trkpt lat="43.26476856697517" lon="12.67625679165285"><ele>354.0</ele><time>2026-05-03T15:30:28Z</time></trkpt><trkpt lat="43.26492652651851" lon="12.676080596581663"><ele>353.3333333333333</ele><time>2026-05-03T15:30:29Z</time></trkpt><trkpt lat="43.26509179759221" lon="12.675887177379575"><ele>352.66666666666663</ele><time>2026-05-03T15:30:30Z</time></trkpt><trkpt lat="43.265257553531896" lon="12.675702412860474"><ele>352.0</ele><time>2026-05-03T15:30:31Z</time></trkpt><trkpt lat="43.26543089231429" lon="12.675511460352071"><ele>352.0</ele><time>2026-05-03T15:30:32Z</time></trkpt><trkpt lat="43.265602168991215" lon="12.67532280342617"><ele>352.0</ele><time>2026-05-03T15:30:32.999Z</time></trkpt><trkpt lat="43.2657717036648" lon="12.675127841785748"><ele>352.0</ele><time>2026-05-03T15:30:33.999Z</time></trkpt><trkpt lat="43.265941686877625" lon="12.674933454638676"><ele>352.0</ele><time>2026-05-03T15:30:34.999Z</time></trkpt><trkpt lat="43.26611367577164" lon="12.674745991860213"><ele>352.0</ele><time>2026-05-03T15:30:35.999Z</time></trkpt><trkpt lat="43.26627941411469" lon="12.674568005535276"><ele>352.0</ele><time>2026-05-03T15:30:36.999Z</time></trkpt><trkpt lat="43.26644928554946" lon="12.674379999456576"><ele>352.3333333333333</ele><time>2026-05-03T15:30:37.999Z</time></trkpt><trkpt lat="43.266616258260946" lon="12.674192873900502"><ele>352.6666666666667</ele><time>2026-05-03T15:30:38.999Z</time></trkpt><trkpt lat="43.2667859253851" lon="12.674010779225318"><ele>353.0</ele><time>2026-05-03T15:30:39.999Z</time></trkpt><trkpt lat="43.26695129405862" lon="12.673823789611314"><ele>353.0</ele><time>2026-05-03T15:30:40.999Z</time></trkpt><trkpt lat="43.26712482489063" lon="12.673637405876267"><ele>353.0</ele><time>2026-05-03T15:30:41.999Z</time></trkpt><trkpt lat="43.26729220048263" lon="12.673454628837089"><ele>353.0</ele><time>2026-05-03T15:30:42.999Z</time></trkpt><trkpt lat="43.267460116196226" lon="12.673268332282964"><ele>353.6666666666667</ele><time>2026-05-03T15:30:43.999Z</time></trkpt><trkpt lat="43.26763089496589" lon="12.673081662352287"><ele>354.3333333333333</ele><time>2026-05-03T15:30:44.999Z</time></trkpt><trkpt lat="43.267804871694096" lon="12.672901266246418"><ele>355.0</ele><time>2026-05-03T15:30:45.999Z</time></trkpt><trkpt lat="43.26797855872727" lon="12.672729109535064"><ele>355.3333333333333</ele><time>2026-05-03T15:30:46.999Z</time></trkpt><trkpt lat="43.268156277427735" lon="12.67255170736833"><ele>355.6666666666667</ele><time>2026-05-03T15:30:47.999Z</time></trkpt><trkpt lat="43.26832333317029" lon="12.672366427240387"><ele>356.0</ele><time>2026-05-03T15:30:48.999Z</time></trkpt><trkpt lat="43.26850013879034" lon="12.672195233826654"><ele>356.0</ele><time>2026-05-03T15:30:49.999Z</time></trkpt><trkpt lat="43.268678780614074" lon="12.672028951456928"><ele>356.0</ele><time>2026-05-03T15:30:50.999Z</time></trkpt><trkpt lat="43.26885616446438" lon="12.671859961394729"><ele>356.0</ele><time>2026-05-03T15:30:51.999Z</time></trkpt><trkpt lat="43.269033211176215" lon="12.671691874803772"><ele>356.33333333333337</ele><time>2026-05-03T15:30:52.999Z</time></trkpt><trkpt lat="43.26921367388211" lon="12.671528811311449"><ele>356.6666666666667</ele><time>2026-05-03T15:30:53.999Z</time></trkpt><trkpt lat="43.26939881541468" lon="12.671373359495766"><ele>357.0</ele><time>2026-05-03T15:30:54.999Z</time></trkpt><trkpt lat="43.26958134572801" lon="12.67121931824779"><ele>357.0</ele><time>2026-05-03T15:30:55.999Z</time></trkpt><trkpt lat="43.269762785187844" lon="12.671060426455401"><ele>357.0</ele><time>2026-05-03T15:30:56.999Z</time></trkpt><trkpt lat="43.26993895128257" lon="12.670887898424695"><ele>357.0</ele><time>2026-05-03T15:30:57.999Z</time></trkpt><trkpt lat="43.270142177536044" lon="12.670759407081823"><ele>357.0</ele><time>2026-05-03T15:30:58.999Z</time></trkpt><trkpt lat="43.27032093460367" lon="12.670608546165381"><ele>357.0</ele><time>2026-05-03T15:30:59.999Z</time></trkpt><trkpt lat="43.27050732891765" lon="12.670458327324365"><ele>357.0</ele><time>2026-05-03T15:31:00.999Z</time></trkpt><trkpt lat="43.27070465684826" lon="12.670319651714383"><ele>357.6666666666667</ele><time>2026-05-03T15:31:01.999Z</time></trkpt><trkpt lat="43.27089900269955" lon="12.670186331120215"><ele>358.33333333333337</ele><time>2026-05-03T15:31:02.999Z</time></trkpt><trkpt lat="43.27109263985367" lon="12.670058519550784"><ele>359.0</ele><time>2026-05-03T15:31:03.999Z</time></trkpt><trkpt lat="43.27128536559055" lon="12.66993154439001"><ele>359.6666666666667</ele><time>2026-05-03T15:31:04.999Z</time></trkpt><trkpt lat="43.27148366504764" lon="12.669807929679711"><ele>360.3333333333333</ele><time>2026-05-03T15:31:05.999Z</time></trkpt><trkpt lat="43.271681876364426" lon="12.669686368249467"><ele>361.0</ele><time>2026-05-03T15:31:06.999Z</time></trkpt><trkpt lat="43.27188142902723" lon="12.669566065857133"><ele>361.0</ele><time>2026-05-03T15:31:07.999Z</time></trkpt><trkpt lat="43.27207275798993" lon="12.669447664075248"><ele>361.0</ele><time>2026-05-03T15:31:08.999Z</time></trkpt><trkpt lat="43.27227324492061" lon="12.669332271635898"><ele>361.0</ele><time>2026-05-03T15:31:09.999Z</time></trkpt><trkpt lat="43.272476657765765" lon="12.669218850864013"><ele>361.0</ele><time>2026-05-03T15:31:10.999Z</time></trkpt><trkpt lat="43.27267307869792" lon="12.669107387220922"><ele>361.0</ele><time>2026-05-03T15:31:11.999Z</time></trkpt><trkpt lat="43.27287460590024" lon="12.6689955119049"><ele>361.0</ele><time>2026-05-03T15:31:12.999Z</time></trkpt><trkpt lat="43.27307812143233" lon="12.668893965861002"><ele>361.3333333333333</ele><time>2026-05-03T15:31:13.999Z</time></trkpt><trkpt lat="43.2732807182899" lon="12.668790745550725"><ele>361.6666666666667</ele><time>2026-05-03T15:31:14.999Z</time></trkpt><trkpt lat="43.27348255747799" lon="12.668690397900788"><ele>362.0</ele><time>2026-05-03T15:31:15.999Z</time></trkpt><trkpt lat="43.273684044016484" lon="12.668585792066695"><ele>362.0</ele><time>2026-05-03T15:31:16.999Z</time></trkpt><trkpt lat="43.273888294524255" lon="12.668485144404286"><ele>362.0</ele><time>2026-05-03T15:31:17.999Z</time></trkpt><trkpt lat="43.274088793796345" lon="12.668380925887003"><ele>362.0</ele><time>2026-05-03T15:31:18.999Z</time></trkpt><trkpt lat="43.27429370252319" lon="12.668277983638738"><ele>362.33333333333337</ele><time>2026-05-03T15:31:19.999Z</time></trkpt><trkpt lat="43.27449497378637" lon="12.668172347558029"><ele>362.6666666666667</ele><time>2026-05-03T15:31:20.999Z</time></trkpt><trkpt lat="43.27469823571284" lon="12.668064712026302"><ele>363.0</ele><time>2026-05-03T15:31:21.999Z</time></trkpt><trkpt lat="43.27490340803624" lon="12.667963895823863"><ele>364.0</ele><time>2026-05-03T15:31:23Z</time></trkpt><trkpt lat="43.27510798640659" lon="12.667862309046253"><ele>365.0</ele><time>2026-05-03T15:31:24Z</time></trkpt><trkpt lat="43.27530833000378" lon="12.667763720065945"><ele>366.0</ele><time>2026-05-03T15:31:25Z</time></trkpt><trkpt lat="43.275511926374286" lon="12.667660482992442"><ele>367.0</ele><time>2026-05-03T15:31:26Z</time></trkpt><trkpt lat="43.27571418615762" lon="12.667557710701974"><ele>368.0</ele><time>2026-05-03T15:31:27Z</time></trkpt><trkpt lat="43.27591838134879" lon="12.667453838844178"><ele>369.0</ele><time>2026-05-03T15:31:28Z</time></trkpt><trkpt lat="43.27612075880666" lon="12.667351469928786"><ele>369.0</ele><time>2026-05-03T15:31:29Z</time></trkpt><trkpt lat="43.27632445842249" lon="12.667250476390896"><ele>369.0</ele><time>2026-05-03T15:31:30Z</time></trkpt><trkpt lat="43.276526148984594" lon="12.667150461966902"><ele>369.0</ele><time>2026-05-03T15:31:31Z</time></trkpt><trkpt lat="43.27673227099876" lon="12.667043720724037"><ele>369.6666666666667</ele><time>2026-05-03T15:31:32Z</time></trkpt><trkpt lat="43.27693448240765" lon="12.666940050618944"><ele>370.33333333333337</ele><time>2026-05-03T15:31:33Z</time></trkpt><trkpt lat="43.27713347926786" lon="12.666825762043574"><ele>371.0</ele><time>2026-05-03T15:31:34Z</time></trkpt><trkpt lat="43.277337348868016" lon="12.666727746493125"><ele>371.0</ele><time>2026-05-03T15:31:35Z</time></trkpt><trkpt lat="43.27753867518476" lon="12.666618692582741"><ele>371.0</ele><time>2026-05-03T15:31:36Z</time></trkpt><trkpt lat="43.277739414824474" lon="12.666504812704625"><ele>371.0</ele><time>2026-05-03T15:31:37Z</time></trkpt><trkpt lat="43.277937759568545" lon="12.666393761854906"><ele>371.33333333333337</ele><time>2026-05-03T15:31:38Z</time></trkpt><trkpt lat="43.278137389241685" lon="12.666277907950931"><ele>371.6666666666667</ele><time>2026-05-03T15:31:39Z</time></trkpt><trkpt lat="43.27833636419814" lon="12.666164100541176"><ele>372.0</ele><time>2026-05-03T15:31:40Z</time></trkpt><trkpt lat="43.278537971295755" lon="12.66604923699238"><ele>372.0</ele><time>2026-05-03T15:31:41Z</time></trkpt><trkpt lat="43.278735281271985" lon="12.665937662828089"><ele>372.0</ele><time>2026-05-03T15:31:42Z</time></trkpt><trkpt lat="43.27893439137051" lon="12.665826054782936"><ele>372.0</ele><time>2026-05-03T15:31:43Z</time></trkpt><trkpt lat="43.27913700930569" lon="12.665710068151288"><ele>373.0</ele><time>2026-05-03T15:31:44Z</time></trkpt><trkpt lat="43.2793349616714" lon="12.665592971475137"><ele>374.0</ele><time>2026-05-03T15:31:45Z</time></trkpt><trkpt lat="43.27953154059672" lon="12.665477230104274"><ele>375.0</ele><time>2026-05-03T15:31:46Z</time></trkpt><trkpt lat="43.27973414709779" lon="12.665364427581487"><ele>376.6666666666667</ele><time>2026-05-03T15:31:47Z</time></trkpt><trkpt lat="43.27992823424545" lon="12.665246281179137"><ele>378.33333333333337</ele><time>2026-05-03T15:31:48Z</time></trkpt><trkpt lat="43.28012913687883" lon="12.66513219227954"><ele>380.0</ele><time>2026-05-03T15:31:49Z</time></trkpt><trkpt lat="43.280327983223835" lon="12.665017042535473"><ele>380.0</ele><time>2026-05-03T15:31:50Z</time></trkpt><trkpt lat="43.280526656646984" lon="12.66490311248707"><ele>380.0</ele><time>2026-05-03T15:31:51Z</time></trkpt><trkpt lat="43.28073081358601" lon="12.664788045199357"><ele>380.0</ele><time>2026-05-03T15:31:52Z</time></trkpt><trkpt lat="43.28092569841908" lon="12.664671081678106"><ele>380.33333333333337</ele><time>2026-05-03T15:31:53Z</time></trkpt><trkpt lat="43.28112380068752" lon="12.664557177241221"><ele>380.6666666666667</ele><time>2026-05-03T15:31:54Z</time></trkpt><trkpt lat="43.28132572958245" lon="12.664442140334094"><ele>381.0</ele><time>2026-05-03T15:31:55Z</time></trkpt><trkpt lat="43.28152726356989" lon="12.664328412791624"><ele>381.3333333333333</ele><time>2026-05-03T15:31:56Z</time></trkpt><trkpt lat="43.281727157443875" lon="12.664213918680918"><ele>381.66666666666663</ele><time>2026-05-03T15:31:57Z</time></trkpt><trkpt lat="43.28192574902119" lon="12.664097445604243"><ele>382.0</ele><time>2026-05-03T15:31:58Z</time></trkpt><trkpt lat="43.282127415759" lon="12.663983389715325"><ele>382.66666666666663</ele><time>2026-05-03T15:31:59Z</time></trkpt><trkpt lat="43.28232713180844" lon="12.663867401847162"><ele>383.3333333333333</ele><time>2026-05-03T15:32:00Z</time></trkpt><trkpt lat="43.282526384210136" lon="12.663751229477269"><ele>384.0</ele><time>2026-05-03T15:32:01Z</time></trkpt><trkpt lat="43.28272596784628" lon="12.663634743452794"><ele>384.0</ele><time>2026-05-03T15:32:02Z</time></trkpt><trkpt lat="43.28292238787034" lon="12.66351611737918"><ele>384.0</ele><time>2026-05-03T15:32:03Z</time></trkpt><trkpt lat="43.283119632963704" lon="12.66339882957322"><ele>384.0</ele><time>2026-05-03T15:32:04Z</time></trkpt><trkpt lat="43.28332012433392" lon="12.663282253358954"><ele>384.33333333333337</ele><time>2026-05-03T15:32:05Z</time></trkpt><trkpt lat="43.28351363130726" lon="12.663166474255265"><ele>384.6666666666667</ele><time>2026-05-03T15:32:06Z</time></trkpt><trkpt lat="43.283717805001885" lon="12.66305040787279"><ele>385.0</ele><time>2026-05-03T15:32:07Z</time></trkpt><trkpt lat="43.28392043504804" lon="12.662936982886395"><ele>385.6666666666667</ele><time>2026-05-03T15:32:08Z</time></trkpt><trkpt lat="43.284121651134086" lon="12.662824618063684"><ele>386.33333333333337</ele><time>2026-05-03T15:32:09Z</time></trkpt><trkpt lat="43.28432174697306" lon="12.662713217816613"><ele>387.0</ele><time>2026-05-03T15:32:10Z</time></trkpt><trkpt lat="43.28452372113752" lon="12.662602575015182"><ele>387.33333333333337</ele><time>2026-05-03T15:32:11Z</time></trkpt><trkpt lat="43.28472082702634" lon="12.662489068528755"><ele>387.6666666666667</ele><time>2026-05-03T15:32:12Z</time></trkpt><trkpt lat="43.2849223508639" lon="12.662376873642549"><ele>388.0</ele><time>2026-05-03T15:32:13Z</time></trkpt><trkpt lat="43.28512298155496" lon="12.662261739568399"><ele>388.0</ele><time>2026-05-03T15:32:14Z</time></trkpt><trkpt lat="43.28532154892807" lon="12.662150327063625"><ele>388.0</ele><time>2026-05-03T15:32:15Z</time></trkpt><trkpt lat="43.28552178819426" lon="12.662032097181939"><ele>388.0</ele><time>2026-05-03T15:32:16Z</time></trkpt><trkpt lat="43.28572142888814" lon="12.661916818378751"><ele>388.6666666666667</ele><time>2026-05-03T15:32:17Z</time></trkpt><trkpt lat="43.28591695833599" lon="12.661800740435519"><ele>389.33333333333337</ele><time>2026-05-03T15:32:18Z</time></trkpt><trkpt lat="43.286115977134756" lon="12.66168074370612"><ele>390.0</ele><time>2026-05-03T15:32:19Z</time></trkpt><trkpt lat="43.28631421424691" lon="12.66155657851186"><ele>390.66666666666663</ele><time>2026-05-03T15:32:20Z</time></trkpt><trkpt lat="43.28650354177194" lon="12.661430528344878"><ele>391.3333333333333</ele><time>2026-05-03T15:32:21Z</time></trkpt><trkpt lat="43.286699930590125" lon="12.661300441599316"><ele>392.0</ele><time>2026-05-03T15:32:22Z</time></trkpt><trkpt lat="43.286896399960646" lon="12.661168037582092"><ele>391.66666666666663</ele><time>2026-05-03T15:32:23Z</time></trkpt><trkpt lat="43.28708716872003" lon="12.661032215810035"><ele>391.33333333333337</ele><time>2026-05-03T15:32:23.999Z</time></trkpt><trkpt lat="43.28728068781393" lon="12.660892435677697"><ele>391.0</ele><time>2026-05-03T15:32:24.999Z</time></trkpt><trkpt lat="43.28747276643285" lon="12.660751272484497"><ele>391.0</ele><time>2026-05-03T15:32:25.999Z</time></trkpt><trkpt lat="43.287662464445994" lon="12.660603798486775"><ele>391.0</ele><time>2026-05-03T15:32:26.999Z</time></trkpt><trkpt lat="43.2878471525186" lon="12.660455728990343"><ele>391.0</ele><time>2026-05-03T15:32:27.999Z</time></trkpt><trkpt lat="43.28803275804369" lon="12.660302638183817"><ele>391.0</ele><time>2026-05-03T15:32:28.999Z</time></trkpt><trkpt lat="43.2882147694819" lon="12.6601479563472"><ele>391.0</ele><time>2026-05-03T15:32:29.999Z</time></trkpt><trkpt lat="43.28840001433227" lon="12.659982209753505"><ele>391.0</ele><time>2026-05-03T15:32:30.999Z</time></trkpt><trkpt lat="43.28857560624593" lon="12.65982328052945"><ele>391.0</ele><time>2026-05-03T15:32:31.999Z</time></trkpt><trkpt lat="43.288757068754215" lon="12.65965721518274"><ele>391.0</ele><time>2026-05-03T15:32:32.999Z</time></trkpt><trkpt lat="43.28893240503684" lon="12.659490710480167"><ele>391.0</ele><time>2026-05-03T15:32:33.999Z</time></trkpt><trkpt lat="43.28911636981697" lon="12.659314966693223"><ele>392.33333333333337</ele><time>2026-05-03T15:32:34.999Z</time></trkpt><trkpt lat="43.28928787280753" lon="12.659140782221803"><ele>393.66666666666663</ele><time>2026-05-03T15:32:35.999Z</time></trkpt><trkpt lat="43.28946333164377" lon="12.658959952546617"><ele>395.0</ele><time>2026-05-03T15:32:36.999Z</time></trkpt><trkpt lat="43.2896335042677" lon="12.6587811148838"><ele>396.0</ele><time>2026-05-03T15:32:37.999Z</time></trkpt><trkpt lat="43.289801973181596" lon="12.658597906938553"><ele>397.0</ele><time>2026-05-03T15:32:38.999Z</time></trkpt><trkpt lat="43.28997035247937" lon="12.658405481334238"><ele>398.0</ele><time>2026-05-03T15:32:39.999Z</time></trkpt><trkpt lat="43.2901277161939" lon="12.658217078141911"><ele>398.0</ele><time>2026-05-03T15:32:40.999Z</time></trkpt><trkpt lat="43.290293724121106" lon="12.658019521993534"><ele>398.0</ele><time>2026-05-03T15:32:41.999Z</time></trkpt><trkpt lat="43.290451860287746" lon="12.65782357490774"><ele>398.0</ele><time>2026-05-03T15:32:42.999Z</time></trkpt><trkpt lat="43.29061631498941" lon="12.657619851868786"><ele>399.0</ele><time>2026-05-03T15:32:43.999Z</time></trkpt><trkpt lat="43.29077654187075" lon="12.65741631992509"><ele>400.0</ele><time>2026-05-03T15:32:44.999Z</time></trkpt><trkpt lat="43.29093210464521" lon="12.657210811811815"><ele>401.0</ele><time>2026-05-03T15:32:45.999Z</time></trkpt><trkpt lat="43.291085203749574" lon="12.657001762823644"><ele>400.3333333333333</ele><time>2026-05-03T15:32:46.999Z</time></trkpt><trkpt lat="43.29123744169224" lon="12.656792372523075"><ele>399.66666666666663</ele><time>2026-05-03T15:32:47.999Z</time></trkpt><trkpt lat="43.29138887812831" lon="12.656580611768351"><ele>399.0</ele><time>2026-05-03T15:32:48.999Z</time></trkpt><trkpt lat="43.29153997344341" lon="12.656369024505565"><ele>399.0</ele><time>2026-05-03T15:32:49.999Z</time></trkpt><trkpt lat="43.29169401297619" lon="12.656152652108604"><ele>399.0</ele><time>2026-05-03T15:32:50.999Z</time></trkpt><trkpt lat="43.291845435304914" lon="12.655937403552306"><ele>399.0</ele><time>2026-05-03T15:32:51.999Z</time></trkpt><trkpt lat="43.291994631058195" lon="12.65572863639042"><ele>399.0</ele><time>2026-05-03T15:32:52.999Z</time></trkpt><trkpt lat="43.29214568154992" lon="12.655517660276754"><ele>399.0</ele><time>2026-05-03T15:32:53.999Z</time></trkpt><trkpt lat="43.29229753556789" lon="12.65530266668509"><ele>399.0</ele><time>2026-05-03T15:32:54.999Z</time></trkpt><trkpt lat="43.29244882251165" lon="12.655091241002438"><ele>398.0</ele><time>2026-05-03T15:32:55.999Z</time></trkpt><trkpt lat="43.29259951450989" lon="12.654881525897913"><ele>397.0</ele><time>2026-05-03T15:32:56.999Z</time></trkpt><trkpt lat="43.29275085385194" lon="12.654665262739156"><ele>396.0</ele><time>2026-05-03T15:32:57.999Z</time></trkpt><trkpt lat="43.29290224028494" lon="12.654446511052347"><ele>395.66666666666663</ele><time>2026-05-03T15:32:58.999Z</time></trkpt><trkpt lat="43.293053600820876" lon="12.654245259406814"><ele>395.3333333333333</ele><time>2026-05-03T15:32:59.999Z</time></trkpt><trkpt lat="43.29319109616777" lon="12.654047955208435"><ele>395.0</ele><time>2026-05-03T15:33:00.999Z</time></trkpt><trkpt lat="43.29332474739415" lon="12.653848411475842"><ele>395.66666666666663</ele><time>2026-05-03T15:33:01.999Z</time></trkpt><trkpt lat="43.29346658652566" lon="12.653684400914639"><ele>396.33333333333337</ele><time>2026-05-03T15:33:02.999Z</time></trkpt><trkpt lat="43.2935955928382" lon="12.653510089547"><ele>397.0</ele><time>2026-05-03T15:33:03.999Z</time></trkpt><trkpt lat="43.29373084431978" lon="12.653337158417699"><ele>397.33333333333337</ele><time>2026-05-03T15:33:04.999Z</time></trkpt><trkpt lat="43.293867784509004" lon="12.653169116990478"><ele>397.66666666666663</ele><time>2026-05-03T15:33:05.999Z</time></trkpt><trkpt lat="43.294007048364605" lon="12.653008977026087"><ele>398.0</ele><time>2026-05-03T15:33:06.999Z</time></trkpt><trkpt lat="43.29414687904648" lon="12.652841926629902"><ele>400.66666666666663</ele><time>2026-05-03T15:33:07.999Z</time></trkpt><trkpt lat="43.29428962128396" lon="12.652676573282184"><ele>403.33333333333337</ele><time>2026-05-03T15:33:08.999Z</time></trkpt><trkpt lat="43.29443121420807" lon="12.652513650385576"><ele>406.0</ele><time>2026-05-03T15:33:09.999Z</time></trkpt><trkpt lat="43.2945728293177" lon="12.65235287361935"><ele>406.0</ele><time>2026-05-03T15:33:10.999Z</time></trkpt><trkpt lat="43.29471856175562" lon="12.65219659266691"><ele>406.0</ele><time>2026-05-03T15:33:11.999Z</time></trkpt><trkpt lat="43.29486531260008" lon="12.652040337037079"><ele>406.0</ele><time>2026-05-03T15:33:12.999Z</time></trkpt><trkpt lat="43.29501174614833" lon="12.651886460874657"><ele>407.0</ele><time>2026-05-03T15:33:13.999Z</time></trkpt><trkpt lat="43.29516065173382" lon="12.651731793277962"><ele>408.0</ele><time>2026-05-03T15:33:14.999Z</time></trkpt><trkpt lat="43.29530927465484" lon="12.651584725696864"><ele>409.0</ele><time>2026-05-03T15:33:15.999Z</time></trkpt><trkpt lat="43.29545961351006" lon="12.651430119114195"><ele>408.6666666666667</ele><time>2026-05-03T15:33:16.999Z</time></trkpt><trkpt lat="43.29560735451521" lon="12.651271429255571"><ele>408.33333333333337</ele><time>2026-05-03T15:33:17.999Z</time></trkpt><trkpt lat="43.29575287057366" lon="12.651114407560055"><ele>408.0</ele><time>2026-05-03T15:33:18.999Z</time></trkpt><trkpt lat="43.295899890296305" lon="12.650967165326138"><ele>408.0</ele><time>2026-05-03T15:33:19.999Z</time></trkpt><trkpt lat="43.29604687556544" lon="12.650808080971164"><ele>408.0</ele><time>2026-05-03T15:33:20.999Z</time></trkpt><trkpt lat="43.29619229840415" lon="12.650652905937633"><ele>408.0</ele><time>2026-05-03T15:33:21.999Z</time></trkpt><trkpt lat="43.296337625984805" lon="12.650498399546438"><ele>408.66666666666663</ele><time>2026-05-03T15:33:22.999Z</time></trkpt><trkpt lat="43.29648574592005" lon="12.65033980525737"><ele>409.3333333333333</ele><time>2026-05-03T15:33:23.999Z</time></trkpt><trkpt lat="43.2966312793186" lon="12.650184051384446"><ele>410.0</ele><time>2026-05-03T15:33:24.999Z</time></trkpt><trkpt lat="43.296777655454854" lon="12.650027769047652"><ele>410.0</ele><time>2026-05-03T15:33:25.999Z</time></trkpt><trkpt lat="43.296932567110645" lon="12.649880551691576"><ele>410.0</ele><time>2026-05-03T15:33:26.999Z</time></trkpt><trkpt lat="43.297084183971016" lon="12.649734086032582"><ele>410.0</ele><time>2026-05-03T15:33:27.999Z</time></trkpt><trkpt lat="43.29723205022581" lon="12.649577414382481"><ele>412.3333333333333</ele><time>2026-05-03T15:33:29Z</time></trkpt><trkpt lat="43.29737906775099" lon="12.64941384053861"><ele>414.66666666666663</ele><time>2026-05-03T15:33:30Z</time></trkpt><trkpt lat="43.29752574170899" lon="12.649265143215967"><ele>417.0</ele><time>2026-05-03T15:33:31Z</time></trkpt><trkpt lat="43.2976774591714" lon="12.649115034330253"><ele>417.0</ele><time>2026-05-03T15:33:32Z</time></trkpt><trkpt lat="43.297827344928976" lon="12.648949796184308"><ele>417.0</ele><time>2026-05-03T15:33:33Z</time></trkpt><trkpt lat="43.297973541770425" lon="12.64880173605092"><ele>417.0</ele><time>2026-05-03T15:33:34Z</time></trkpt><trkpt lat="43.29813475937158" lon="12.648646850669678"><ele>419.0</ele><time>2026-05-03T15:33:35Z</time></trkpt><trkpt lat="43.2982970431806" lon="12.648480101365696"><ele>421.0</ele><time>2026-05-03T15:33:36Z</time></trkpt><trkpt lat="43.298449114295636" lon="12.648306095462111"><ele>423.0</ele><time>2026-05-03T15:33:37Z</time></trkpt><trkpt lat="43.29860200027847" lon="12.648125299365695"><ele>423.0</ele><time>2026-05-03T15:33:38Z</time></trkpt><trkpt lat="43.29875562367338" lon="12.647950494253047"><ele>423.0</ele><time>2026-05-03T15:33:39Z</time></trkpt><trkpt lat="43.298918153980324" lon="12.647769513906406"><ele>423.0</ele><time>2026-05-03T15:33:40Z</time></trkpt><trkpt lat="43.29906718970314" lon="12.647589551933963"><ele>422.66666666666663</ele><time>2026-05-03T15:33:41Z</time></trkpt><trkpt lat="43.29922354669762" lon="12.64739204188222"><ele>422.3333333333333</ele><time>2026-05-03T15:33:42Z</time></trkpt><trkpt lat="43.29938101873743" lon="12.647191456173521"><ele>422.0</ele><time>2026-05-03T15:33:43Z</time></trkpt><trkpt lat="43.29952934529778" lon="12.646984983651679"><ele>422.3333333333333</ele><time>2026-05-03T15:33:44Z</time></trkpt><trkpt lat="43.299687894042435" lon="12.646771616902287"><ele>422.66666666666663</ele><time>2026-05-03T15:33:45Z</time></trkpt><trkpt lat="43.29983485513512" lon="12.646558635223025"><ele>423.0</ele><time>2026-05-03T15:33:46Z</time></trkpt><trkpt lat="43.29997756658102" lon="12.646352374440665"><ele>423.66666666666663</ele><time>2026-05-03T15:33:47Z</time></trkpt><trkpt lat="43.30011144762527" lon="12.646155896980678"><ele>424.3333333333333</ele><time>2026-05-03T15:33:48Z</time></trkpt><trkpt lat="43.30023465628192" lon="12.6459697931037"><ele>425.0</ele><time>2026-05-03T15:33:49Z</time></trkpt><trkpt lat="43.300354603433505" lon="12.645784293015518"><ele>422.66666666666663</ele><time>2026-05-03T15:33:50Z</time></trkpt><trkpt lat="43.30046556048347" lon="12.645601977984391"><ele>420.33333333333337</ele><time>2026-05-03T15:33:51Z</time></trkpt><trkpt lat="43.30057008225044" lon="12.645421044432585"><ele>418.0</ele><time>2026-05-03T15:33:52Z</time></trkpt><trkpt lat="43.300683473911945" lon="12.645233136596545"><ele>418.0</ele><time>2026-05-03T15:33:53Z</time></trkpt><trkpt lat="43.30079791386618" lon="12.645044971670023"><ele>418.0</ele><time>2026-05-03T15:33:54Z</time></trkpt><trkpt lat="43.30091182955595" lon="12.644854384022626"><ele>418.0</ele><time>2026-05-03T15:33:55Z</time></trkpt><trkpt lat="43.301017853405995" lon="12.6446540632266"><ele>416.33333333333337</ele><time>2026-05-03T15:33:56Z</time></trkpt><trkpt lat="43.3011224792509" lon="12.644452403518658"><ele>414.66666666666663</ele><time>2026-05-03T15:33:57Z</time></trkpt><trkpt lat="43.30122936840891" lon="12.644258148704028"><ele>413.0</ele><time>2026-05-03T15:33:58Z</time></trkpt><trkpt lat="43.30133618347593" lon="12.644052494215142"><ele>412.3333333333333</ele><time>2026-05-03T15:33:59Z</time></trkpt><trkpt lat="43.301439871413756" lon="12.643843703299332"><ele>411.66666666666663</ele><time>2026-05-03T15:34:00Z</time></trkpt><trkpt lat="43.30153838660093" lon="12.643637831563042"><ele>411.0</ele><time>2026-05-03T15:34:01Z</time></trkpt><trkpt lat="43.30162895994769" lon="12.643441148522582"><ele>410.0</ele><time>2026-05-03T15:34:02Z</time></trkpt><trkpt lat="43.301722083886254" lon="12.643257007782799"><ele>409.0</ele><time>2026-05-03T15:34:03Z</time></trkpt><trkpt lat="43.301811315005004" lon="12.643070096348925"><ele>408.0</ele><time>2026-05-03T15:34:04Z</time></trkpt><trkpt lat="43.30189853644532" lon="12.642884888319037"><ele>407.66666666666663</ele><time>2026-05-03T15:34:05Z</time></trkpt><trkpt lat="43.301980653391475" lon="12.642688373220095"><ele>407.3333333333333</ele><time>2026-05-03T15:34:06Z</time></trkpt><trkpt lat="43.30207255922494" lon="12.642494624072556"><ele>407.0</ele><time>2026-05-03T15:34:07Z</time></trkpt><trkpt lat="43.3021611081422" lon="12.642301033507604"><ele>407.66666666666663</ele><time>2026-05-03T15:34:08Z</time></trkpt><trkpt lat="43.30225582605796" lon="12.642109098499231"><ele>408.33333333333337</ele><time>2026-05-03T15:34:09Z</time></trkpt><trkpt lat="43.302347504661405" lon="12.641915877192776"><ele>409.0</ele><time>2026-05-03T15:34:10Z</time></trkpt><trkpt lat="43.30243775132" lon="12.641725693748239"><ele>409.0</ele><time>2026-05-03T15:34:11Z</time></trkpt><trkpt lat="43.30252936495433" lon="12.641532064498938"><ele>409.0</ele><time>2026-05-03T15:34:12Z</time></trkpt><trkpt lat="43.302616282109454" lon="12.641333356208632"><ele>409.0</ele><time>2026-05-03T15:34:13Z</time></trkpt><trkpt lat="43.30270744914329" lon="12.641128932211096"><ele>409.33333333333337</ele><time>2026-05-03T15:34:14Z</time></trkpt><trkpt lat="43.30279740342506" lon="12.640923294865047"><ele>409.66666666666663</ele><time>2026-05-03T15:34:15Z</time></trkpt><trkpt lat="43.302892530347435" lon="12.64071938076301"><ele>410.0</ele><time>2026-05-03T15:34:16Z</time></trkpt><trkpt lat="43.30299383755572" lon="12.640508536557943"><ele>411.0</ele><time>2026-05-03T15:34:17Z</time></trkpt><trkpt lat="43.303096177595975" lon="12.640298729811537"><ele>412.0</ele><time>2026-05-03T15:34:18Z</time></trkpt><trkpt lat="43.30318751832471" lon="12.640090467361093"><ele>413.0</ele><time>2026-05-03T15:34:19Z</time></trkpt><trkpt lat="43.30329244473107" lon="12.639881662280425"><ele>413.0</ele><time>2026-05-03T15:34:20Z</time></trkpt><trkpt lat="43.30338961368203" lon="12.639675528341135"><ele>413.0</ele><time>2026-05-03T15:34:21Z</time></trkpt><trkpt lat="43.30348181990112" lon="12.639470106701099"><ele>413.0</ele><time>2026-05-03T15:34:22Z</time></trkpt><trkpt lat="43.30358272898733" lon="12.639260842538857"><ele>413.0</ele><time>2026-05-03T15:34:23Z</time></trkpt><trkpt lat="43.30367669224894" lon="12.63905353715652"><ele>413.0</ele><time>2026-05-03T15:34:24Z</time></trkpt><trkpt lat="43.303766642086394" lon="12.638849224405465"><ele>413.0</ele><time>2026-05-03T15:34:24.999Z</time></trkpt><trkpt lat="43.30385920392273" lon="12.6386633424581"><ele>414.0</ele><time>2026-05-03T15:34:25.999Z</time></trkpt><trkpt lat="43.30394332264946" lon="12.638482322739783"><ele>415.0</ele><time>2026-05-03T15:34:26.999Z</time></trkpt><trkpt lat="43.30403522990183" lon="12.638291217706625"><ele>416.0</ele><time>2026-05-03T15:34:27.999Z</time></trkpt><trkpt lat="43.304118084107984" lon="12.638098262397806"><ele>416.0</ele><time>2026-05-03T15:34:28.999Z</time></trkpt><trkpt lat="43.304201845254404" lon="12.63791104483598"><ele>416.0</ele><time>2026-05-03T15:34:29.999Z</time></trkpt><trkpt lat="43.30428823010206" lon="12.637718892668744"><ele>416.0</ele><time>2026-05-03T15:34:30.999Z</time></trkpt><trkpt lat="43.30437363400549" lon="12.637530015516994"><ele>416.0</ele><time>2026-05-03T15:34:31.999Z</time></trkpt><trkpt lat="43.30446595451615" lon="12.63732950963369"><ele>416.0</ele><time>2026-05-03T15:34:32.999Z</time></trkpt><trkpt lat="43.304552616653524" lon="12.63713930647732"><ele>416.0</ele><time>2026-05-03T15:34:33.999Z</time></trkpt><trkpt lat="43.3046457795587" lon="12.636943462872665"><ele>416.0</ele><time>2026-05-03T15:34:34.999Z</time></trkpt><trkpt lat="43.30474286246799" lon="12.636741976302647"><ele>416.0</ele><time>2026-05-03T15:34:35.999Z</time></trkpt><trkpt lat="43.30483545501089" lon="12.63654436655681"><ele>416.0</ele><time>2026-05-03T15:34:36.999Z</time></trkpt><trkpt lat="43.304931311369835" lon="12.636340256255842"><ele>416.3333333333333</ele><time>2026-05-03T15:34:37.999Z</time></trkpt><trkpt lat="43.305021531970645" lon="12.63614043522965"><ele>416.66666666666663</ele><time>2026-05-03T15:34:38.999Z</time></trkpt><trkpt lat="43.30511135767764" lon="12.635950051092454"><ele>417.0</ele><time>2026-05-03T15:34:39.999Z</time></trkpt><trkpt lat="43.305198734596374" lon="12.635764322038055"><ele>417.0</ele><time>2026-05-03T15:34:40.999Z</time></trkpt><trkpt lat="43.305288172657335" lon="12.635576529721105"><ele>417.0</ele><time>2026-05-03T15:34:41.999Z</time></trkpt><trkpt lat="43.305372603974185" lon="12.635397938246648"><ele>417.0</ele><time>2026-05-03T15:34:42.999Z</time></trkpt><trkpt lat="43.30545849305329" lon="12.635212301951249"><ele>416.75</ele><time>2026-05-03T15:34:43.999Z</time></trkpt><trkpt lat="43.305539461122045" lon="12.635037014650944"><ele>416.5</ele><time>2026-05-03T15:34:44.999Z</time></trkpt><trkpt lat="43.3056183193964" lon="12.634866615566567"><ele>416.25</ele><time>2026-05-03T15:34:45.999Z</time></trkpt><trkpt lat="43.30569996670089" lon="12.634692016424083"><ele>416.0</ele><time>2026-05-03T15:34:46.999Z</time></trkpt><trkpt lat="43.30578636429612" lon="12.634517151137386"><ele>417.0</ele><time>2026-05-03T15:34:47.999Z</time></trkpt><trkpt lat="43.30586886887271" lon="12.634344435419289"><ele>418.0</ele><time>2026-05-03T15:34:48.999Z</time></trkpt><trkpt lat="43.30594902641976" lon="12.634164555641968"><ele>419.0</ele><time>2026-05-03T15:34:49.999Z</time></trkpt><trkpt lat="43.306035741257816" lon="12.633980038124426"><ele>419.0</ele><time>2026-05-03T15:34:50.999Z</time></trkpt><trkpt lat="43.30612049694693" lon="12.633800482534465"><ele>419.0</ele><time>2026-05-03T15:34:51.999Z</time></trkpt><trkpt lat="43.30620749713392" lon="12.63361297378967"><ele>419.0</ele><time>2026-05-03T15:34:52.999Z</time></trkpt><trkpt lat="43.30629284733458" lon="12.633426794137712"><ele>419.66666666666663</ele><time>2026-05-03T15:34:53.999Z</time></trkpt><trkpt lat="43.30637935803645" lon="12.633239303971797"><ele>420.33333333333337</ele><time>2026-05-03T15:34:54.999Z</time></trkpt><trkpt lat="43.30646860802475" lon="12.633039991064742"><ele>421.0</ele><time>2026-05-03T15:34:55.999Z</time></trkpt><trkpt lat="43.30655775655855" lon="12.6328453852191"><ele>421.0</ele><time>2026-05-03T15:34:56.999Z</time></trkpt><trkpt lat="43.306648894680464" lon="12.632635284901381"><ele>421.0</ele><time>2026-05-03T15:34:57.999Z</time></trkpt><trkpt lat="43.306738105805785" lon="12.632429184460479"><ele>421.0</ele><time>2026-05-03T15:34:58.999Z</time></trkpt><trkpt lat="43.306832406422195" lon="12.632216454505153"><ele>421.0</ele><time>2026-05-03T15:34:59.999Z</time></trkpt><trkpt lat="43.306929333946265" lon="12.63200560253627"><ele>421.0</ele><time>2026-05-03T15:35:00.999Z</time></trkpt><trkpt lat="43.307040652357045" lon="12.631803163196471"><ele>421.0</ele><time>2026-05-03T15:35:01.999Z</time></trkpt><trkpt lat="43.3071488152308" lon="12.631569306972715"><ele>421.5</ele><time>2026-05-03T15:35:02.999Z</time></trkpt><trkpt lat="43.307265637604196" lon="12.631316468577824"><ele>422.0</ele><time>2026-05-03T15:35:03.999Z</time></trkpt><trkpt lat="43.30739617429092" lon="12.631034397046648"><ele>422.0</ele><time>2026-05-03T15:35:04.999Z</time></trkpt><trkpt lat="43.307533672421414" lon="12.630737510087314"><ele>422.0</ele><time>2026-05-03T15:35:05.999Z</time></trkpt><trkpt lat="43.30768211610349" lon="12.630417296162873"><ele>421.0</ele><time>2026-05-03T15:35:06.999Z</time></trkpt><trkpt lat="43.307837778456914" lon="12.630081568854212"><ele>420.0</ele><time>2026-05-03T15:35:07.999Z</time></trkpt><trkpt lat="43.30799922575584" lon="12.629733364679481"><ele>418.0</ele><time>2026-05-03T15:35:08.999Z</time></trkpt><trkpt lat="43.30816730141069" lon="12.629370864734167"><ele>416.0</ele><time>2026-05-03T15:35:09.999Z</time></trkpt><trkpt lat="43.3083405480874" lon="12.628997758936913"><ele>415.0</ele><time>2026-05-03T15:35:10.999Z</time></trkpt><trkpt lat="43.30851839747313" lon="12.628614121599329"><ele>414.0</ele><time>2026-05-03T15:35:11.999Z</time></trkpt><trkpt lat="43.308694695454946" lon="12.628233830744342"><ele>414.0</ele><time>2026-05-03T15:35:12.999Z</time></trkpt><trkpt lat="43.308875125760714" lon="12.62784462621322"><ele>414.0</ele><time>2026-05-03T15:35:13.999Z</time></trkpt><trkpt lat="43.30905729266945" lon="12.627451675682643"><ele>415.0</ele><time>2026-05-03T15:35:14.999Z</time></trkpt><trkpt lat="43.30922203826165" lon="12.627057735855704"><ele>416.0</ele><time>2026-05-03T15:35:15.999Z</time></trkpt><trkpt lat="43.30940500262735" lon="12.626689447186298"><ele>417.5</ele><time>2026-05-03T15:35:16.999Z</time></trkpt><trkpt lat="43.3095789815804" lon="12.626319157110633"><ele>419.0</ele><time>2026-05-03T15:35:17.999Z</time></trkpt><trkpt lat="43.30974847196445" lon="12.62595113859815"><ele>419.5</ele><time>2026-05-03T15:35:18.999Z</time></trkpt><trkpt lat="43.3099163918426" lon="12.625592116719716"><ele>420.0</ele><time>2026-05-03T15:35:19.999Z</time></trkpt><trkpt lat="43.31008031889486" lon="12.625238085544165"><ele>420.0</ele><time>2026-05-03T15:35:20.999Z</time></trkpt><trkpt lat="43.31024057486514" lon="12.62489281008785"><ele>420.0</ele><time>2026-05-03T15:35:21.999Z</time></trkpt><trkpt lat="43.310397471852596" lon="12.62455281256973"><ele>420.0</ele><time>2026-05-03T15:35:22.999Z</time></trkpt><trkpt lat="43.31055162604859" lon="12.624220173444288"><ele>420.0</ele><time>2026-05-03T15:35:23.999Z</time></trkpt><trkpt lat="43.31070254898597" lon="12.623890331245315"><ele>422.0</ele><time>2026-05-03T15:35:24.999Z</time></trkpt><trkpt lat="43.31085075431146" lon="12.623567927813337"><ele>424.0</ele><time>2026-05-03T15:35:25.999Z</time></trkpt><trkpt lat="43.3109922743754" lon="12.623266034108102"><ele>424.0</ele><time>2026-05-03T15:35:26.999Z</time></trkpt><trkpt lat="43.31113151248309" lon="12.62297965558336"><ele>424.0</ele><time>2026-05-03T15:35:27.999Z</time></trkpt><trkpt lat="43.31127327604935" lon="12.622691958433279"><ele>426.0</ele><time>2026-05-03T15:35:28.999Z</time></trkpt><trkpt lat="43.31141376657135" lon="12.622396399741168"><ele>428.0</ele><time>2026-05-03T15:35:29.999Z</time></trkpt><trkpt lat="43.31155072836471" lon="12.622090632111368"><ele>427.5</ele><time>2026-05-03T15:35:30.999Z</time></trkpt><trkpt lat="43.31168625510134" lon="12.621785608859861"><ele>427.0</ele><time>2026-05-03T15:35:31.999Z</time></trkpt><trkpt lat="43.311825551907454" lon="12.621479180688636"><ele>427.0</ele><time>2026-05-03T15:35:32.999Z</time></trkpt><trkpt lat="43.31196465348047" lon="12.62117350806666"><ele>427.0</ele><time>2026-05-03T15:35:34Z</time></trkpt><trkpt lat="43.31210537010953" lon="12.620860082911143"><ele>427.0</ele><time>2026-05-03T15:35:35Z</time></trkpt><trkpt lat="43.31224799744293" lon="12.620550437906557"><ele>427.0</ele><time>2026-05-03T15:35:36Z</time></trkpt><trkpt lat="43.31239207368291" lon="12.620242464256297"><ele>427.0</ele><time>2026-05-03T15:35:37Z</time></trkpt><trkpt lat="43.31253671065541" lon="12.619940992194495"><ele>427.0</ele><time>2026-05-03T15:35:38Z</time></trkpt><trkpt lat="43.31268629876173" lon="12.619644817133274"><ele>426.0</ele><time>2026-05-03T15:35:39Z</time></trkpt><trkpt lat="43.31283492457154" lon="12.61936341540736"><ele>425.0</ele><time>2026-05-03T15:35:40Z</time></trkpt><trkpt lat="43.31298307413255" lon="12.619095175994152"><ele>425.5</ele><time>2026-05-03T15:35:41Z</time></trkpt><trkpt lat="43.313128382138785" lon="12.618833623956869"><ele>426.0</ele><time>2026-05-03T15:35:42Z</time></trkpt><trkpt lat="43.31327517287574" lon="12.618571389370034"><ele>426.0</ele><time>2026-05-03T15:35:43Z</time></trkpt><trkpt lat="43.31342522236625" lon="12.61830905504084"><ele>426.0</ele><time>2026-05-03T15:35:44Z</time></trkpt><trkpt lat="43.31357770551925" lon="12.618049838511462"><ele>426.0</ele><time>2026-05-03T15:35:45Z</time></trkpt><trkpt lat="43.313732367627445" lon="12.617790443468905"><ele>426.0</ele><time>2026-05-03T15:35:46Z</time></trkpt><trkpt lat="43.313891847463175" lon="12.617532808623755"><ele>427.0</ele><time>2026-05-03T15:35:47Z</time></trkpt><trkpt lat="43.31405924836252" lon="12.617264857776293"><ele>428.0</ele><time>2026-05-03T15:35:48Z</time></trkpt><trkpt lat="43.314233991223055" lon="12.61698784353904"><ele>427.5</ele><time>2026-05-03T15:35:49Z</time></trkpt><trkpt lat="43.314415815656275" lon="12.61670807797456"><ele>427.0</ele><time>2026-05-03T15:35:50Z</time></trkpt><trkpt lat="43.31459815187352" lon="12.616426372986272"><ele>425.5</ele><time>2026-05-03T15:35:51Z</time></trkpt><trkpt lat="43.31478076128337" lon="12.61614519093437"><ele>424.0</ele><time>2026-05-03T15:35:52Z</time></trkpt><trkpt lat="43.3149627828141" lon="12.615859629456814"><ele>424.0</ele><time>2026-05-03T15:35:53Z</time></trkpt><trkpt lat="43.31514634332522" lon="12.615580621582675"><ele>424.0</ele><time>2026-05-03T15:35:54Z</time></trkpt><trkpt lat="43.31533001407478" lon="12.615304653732672"><ele>424.0</ele><time>2026-05-03T15:35:55Z</time></trkpt><trkpt lat="43.31551225370423" lon="12.615027968078799"><ele>424.0</ele><time>2026-05-03T15:35:56Z</time></trkpt><trkpt lat="43.315696151289195" lon="12.614740789655084"><ele>423.5</ele><time>2026-05-03T15:35:57Z</time></trkpt><trkpt lat="43.315881715522686" lon="12.614453649324645"><ele>423.0</ele><time>2026-05-03T15:35:58Z</time></trkpt><trkpt lat="43.31606810810412" lon="12.614165577285375"><ele>423.0</ele><time>2026-05-03T15:35:59Z</time></trkpt><trkpt lat="43.31625509487769" lon="12.613875843913965"><ele>423.0</ele><time>2026-05-03T15:36:00Z</time></trkpt><trkpt lat="43.31644769423568" lon="12.613585701444165"><ele>423.5</ele><time>2026-05-03T15:36:01Z</time></trkpt><trkpt lat="43.31664205268487" lon="12.613294944732214"><ele>424.0</ele><time>2026-05-03T15:36:02Z</time></trkpt><trkpt lat="43.31683964363909" lon="12.613009408923576"><ele>423.0</ele><time>2026-05-03T15:36:03Z</time></trkpt><trkpt lat="43.31703371872272" lon="12.612732442405493"><ele>422.0</ele><time>2026-05-03T15:36:04Z</time></trkpt><trkpt lat="43.31723184470185" lon="12.612457192156294"><ele>421.5</ele><time>2026-05-03T15:36:05Z</time></trkpt><trkpt lat="43.317434787935596" lon="12.61218926917866"><ele>421.0</ele><time>2026-05-03T15:36:06Z</time></trkpt><trkpt lat="43.317645405503384" lon="12.611929997601663"><ele>421.0</ele><time>2026-05-03T15:36:07Z</time></trkpt><trkpt lat="43.3178595391582" lon="12.611674046379708"><ele>421.0</ele><time>2026-05-03T15:36:08Z</time></trkpt><trkpt lat="43.31807597112062" lon="12.61141782189234"><ele>420.5</ele><time>2026-05-03T15:36:09Z</time></trkpt><trkpt lat="43.31829314142138" lon="12.611165125787554"><ele>420.0</ele><time>2026-05-03T15:36:10Z</time></trkpt><trkpt lat="43.318510816741544" lon="12.610912917516819"><ele>420.0</ele><time>2026-05-03T15:36:11Z</time></trkpt><trkpt lat="43.318726052530124" lon="12.610660795814065"><ele>420.0</ele><time>2026-05-03T15:36:12Z</time></trkpt><trkpt lat="43.318943320030236" lon="12.610405907796551"><ele>422.0</ele><time>2026-05-03T15:36:13Z</time></trkpt><trkpt lat="43.31916152903883" lon="12.610148542454864"><ele>424.0</ele><time>2026-05-03T15:36:14Z</time></trkpt><trkpt lat="43.31938522354092" lon="12.609888946721826"><ele>424.0</ele><time>2026-05-03T15:36:15Z</time></trkpt><trkpt lat="43.31960914205509" lon="12.609634805952705"><ele>424.0</ele><time>2026-05-03T15:36:16Z</time></trkpt><trkpt lat="43.319835108281644" lon="12.609376247218902"><ele>424.5</ele><time>2026-05-03T15:36:17Z</time></trkpt><trkpt lat="43.32006319193475" lon="12.609115942304431"><ele>425.0</ele><time>2026-05-03T15:36:18Z</time></trkpt><trkpt lat="43.320287695837386" lon="12.608862939014008"><ele>423.5</ele><time>2026-05-03T15:36:19Z</time></trkpt><trkpt lat="43.32050260189778" lon="12.60861654799584"><ele>422.0</ele><time>2026-05-03T15:36:20Z</time></trkpt><trkpt lat="43.32071398541262" lon="12.608374411140439"><ele>421.5</ele><time>2026-05-03T15:36:21Z</time></trkpt><trkpt lat="43.3209292195739" lon="12.608126901857695"><ele>421.0</ele><time>2026-05-03T15:36:22Z</time></trkpt><trkpt lat="43.321143953400835" lon="12.607876325251453"><ele>421.5</ele><time>2026-05-03T15:36:23Z</time></trkpt><trkpt lat="43.321360531275836" lon="12.607617703834007"><ele>422.0</ele><time>2026-05-03T15:36:24Z</time></trkpt><trkpt lat="43.32157534159269" lon="12.607363103176432"><ele>423.5</ele><time>2026-05-03T15:36:25Z</time></trkpt><trkpt lat="43.321791269625564" lon="12.607106598914509"><ele>425.0</ele><time>2026-05-03T15:36:26Z</time></trkpt><trkpt lat="43.32200465127998" lon="12.606851363000734"><ele>425.0</ele><time>2026-05-03T15:36:27Z</time></trkpt><trkpt lat="43.32221732000931" lon="12.6065897506799"><ele>425.0</ele><time>2026-05-03T15:36:28Z</time></trkpt><trkpt lat="43.32242834599229" lon="12.606322064384115"><ele>427.0</ele><time>2026-05-03T15:36:29Z</time></trkpt><trkpt lat="43.32263464013376" lon="12.606050671364999"><ele>429.0</ele><time>2026-05-03T15:36:30Z</time></trkpt><trkpt lat="43.32283817546516" lon="12.605771807534738"><ele>429.0</ele><time>2026-05-03T15:36:31Z</time></trkpt><trkpt lat="43.3230366215215" lon="12.605489496896075"><ele>429.0</ele><time>2026-05-03T15:36:32Z</time></trkpt><trkpt lat="43.323234223825615" lon="12.605197611956548"><ele>429.0</ele><time>2026-05-03T15:36:32.999Z</time></trkpt><trkpt lat="43.32342882170379" lon="12.604902060449811"><ele>429.0</ele><time>2026-05-03T15:36:33.999Z</time></trkpt><trkpt lat="43.32362124079888" lon="12.604606373697626"><ele>429.5</ele><time>2026-05-03T15:36:34.999Z</time></trkpt><trkpt lat="43.32381373964435" lon="12.604305308887026"><ele>430.0</ele><time>2026-05-03T15:36:35.999Z</time></trkpt><trkpt lat="43.3240073734004" lon="12.604009755139034"><ele>430.5</ele><time>2026-05-03T15:36:36.999Z</time></trkpt><trkpt lat="43.32420202664662" lon="12.603716743036857"><ele>431.0</ele><time>2026-05-03T15:36:37.999Z</time></trkpt><trkpt lat="43.324395660001514" lon="12.603421054814579"><ele>431.0</ele><time>2026-05-03T15:36:38.999Z</time></trkpt><trkpt lat="43.32458919338419" lon="12.603125936750438"><ele>431.0</ele><time>2026-05-03T15:36:39.999Z</time></trkpt><trkpt lat="43.32478247846924" lon="12.602833306078836"><ele>433.0</ele><time>2026-05-03T15:36:40.999Z</time></trkpt><trkpt lat="43.324977498620484" lon="12.602538147354487"><ele>435.0</ele><time>2026-05-03T15:36:41.999Z</time></trkpt><trkpt lat="43.32517102049312" lon="12.602243606203858"><ele>435.5</ele><time>2026-05-03T15:36:42.999Z</time></trkpt><trkpt lat="43.32535955131321" lon="12.601952058658757"><ele>436.0</ele><time>2026-05-03T15:36:43.999Z</time></trkpt><trkpt lat="43.32554913059695" lon="12.601662866078609"><ele>437.5</ele><time>2026-05-03T15:36:44.999Z</time></trkpt><trkpt lat="43.325735426043394" lon="12.601380693006531"><ele>439.0</ele><time>2026-05-03T15:36:45.999Z</time></trkpt><trkpt lat="43.325919555431135" lon="12.601095961598944"><ele>439.0</ele><time>2026-05-03T15:36:46.999Z</time></trkpt><trkpt lat="43.32610101783226" lon="12.60081534619185"><ele>439.0</ele><time>2026-05-03T15:36:47.999Z</time></trkpt><trkpt lat="43.32627983907816" lon="12.600539640089174"><ele>439.5</ele><time>2026-05-03T15:36:48.999Z</time></trkpt><trkpt lat="43.32645778243906" lon="12.600269684135766"><ele>440.0</ele><time>2026-05-03T15:36:49.999Z</time></trkpt><trkpt lat="43.32663515900522" lon="12.600004308638159"><ele>440.0</ele><time>2026-05-03T15:36:50.999Z</time></trkpt><trkpt lat="43.326811327569686" lon="12.599740384252451"><ele>440.0</ele><time>2026-05-03T15:36:51.999Z</time></trkpt><trkpt lat="43.32698861599741" lon="12.599477098652239"><ele>440.5</ele><time>2026-05-03T15:36:52.999Z</time></trkpt><trkpt lat="43.327169188458214" lon="12.599212272085575"><ele>441.0</ele><time>2026-05-03T15:36:53.999Z</time></trkpt><trkpt lat="43.32735074166221" lon="12.598950784108373"><ele>441.0</ele><time>2026-05-03T15:36:54.999Z</time></trkpt><trkpt lat="43.32753148418104" lon="12.598697012023543"><ele>441.0</ele><time>2026-05-03T15:36:55.999Z</time></trkpt><trkpt lat="43.32771344551929" lon="12.598452722258708"><ele>442.0</ele><time>2026-05-03T15:36:56.999Z</time></trkpt><trkpt lat="43.32789648037521" lon="12.59821359185017"><ele>443.0</ele><time>2026-05-03T15:36:57.999Z</time></trkpt><trkpt lat="43.3280813725894" lon="12.597976641426737"><ele>443.0</ele><time>2026-05-03T15:36:58.999Z</time></trkpt><trkpt lat="43.328268096004116" lon="12.597744962767"><ele>443.0</ele><time>2026-05-03T15:36:59.999Z</time></trkpt><trkpt lat="43.32845438243984" lon="12.597515847394087"><ele>443.0</ele><time>2026-05-03T15:37:00.999Z</time></trkpt><trkpt lat="43.32864095909123" lon="12.597286749233499"><ele>443.0</ele><time>2026-05-03T15:37:01.999Z</time></trkpt><trkpt lat="43.328820783159514" lon="12.59706954123267"><ele>444.5</ele><time>2026-05-03T15:37:02.999Z</time></trkpt><trkpt lat="43.328997769528044" lon="12.596858237674038"><ele>446.0</ele><time>2026-05-03T15:37:03.999Z</time></trkpt><trkpt lat="43.32918558583208" lon="12.596675445808286"><ele>446.0</ele><time>2026-05-03T15:37:04.999Z</time></trkpt><trkpt lat="43.329359949144916" lon="12.59648024038311"><ele>446.0</ele><time>2026-05-03T15:37:05.999Z</time></trkpt><trkpt lat="43.32953339915521" lon="12.596286387124884"><ele>446.0</ele><time>2026-05-03T15:37:06.999Z</time></trkpt><trkpt lat="43.32979060976396" lon="12.59598252032398"><ele>447.0</ele><time>2026-05-03T15:37:07.999Z</time></trkpt><trkpt lat="43.32998277258946" lon="12.595765299848871"><ele>448.0</ele><time>2026-05-03T15:37:08.999Z</time></trkpt><trkpt lat="43.33017876987152" lon="12.595550208350614"><ele>447.5</ele><time>2026-05-03T15:37:09.999Z</time></trkpt><trkpt lat="43.330373288447866" lon="12.59533613759529"><ele>447.0</ele><time>2026-05-03T15:37:10.999Z</time></trkpt><trkpt lat="43.33056633065097" lon="12.595120178209896"><ele>448.0</ele><time>2026-05-03T15:37:11.999Z</time></trkpt><trkpt lat="43.33077369618672" lon="12.594889587317631"><ele>449.0</ele><time>2026-05-03T15:37:12.999Z</time></trkpt><trkpt lat="43.330976938066286" lon="12.594661579527868"><ele>448.0</ele><time>2026-05-03T15:37:13.999Z</time></trkpt><trkpt lat="43.33118745648273" lon="12.59442885493016"><ele>447.0</ele><time>2026-05-03T15:37:14.999Z</time></trkpt><trkpt lat="43.33140082171133" lon="12.594187881825205"><ele>450.0</ele><time>2026-05-03T15:37:15.999Z</time></trkpt><trkpt lat="43.331609782186" lon="12.59395209005819"><ele>453.0</ele><time>2026-05-03T15:37:16.999Z</time></trkpt><trkpt lat="43.33182440278593" lon="12.593709148291316"><ele>453.0</ele><time>2026-05-03T15:37:17.999Z</time></trkpt><trkpt lat="43.332033086667515" lon="12.593472613096493"><ele>453.0</ele><time>2026-05-03T15:37:18.999Z</time></trkpt><trkpt lat="43.332243743170714" lon="12.593234908280595"><ele>455.0</ele><time>2026-05-03T15:37:19.999Z</time></trkpt><trkpt lat="43.332457671862265" lon="12.592996503322123"><ele>457.0</ele><time>2026-05-03T15:37:20.999Z</time></trkpt><trkpt lat="43.33267689957041" lon="12.592755862863074"><ele>457.5</ele><time>2026-05-03T15:37:21.999Z</time></trkpt><trkpt lat="43.33288844746848" lon="12.592516827762623"><ele>458.0</ele><time>2026-05-03T15:37:22.999Z</time></trkpt><trkpt lat="43.333091865011596" lon="12.59228473324357"><ele>459.5</ele><time>2026-05-03T15:37:23.999Z</time></trkpt><trkpt lat="43.333289656800225" lon="12.592057393343651"><ele>461.0</ele><time>2026-05-03T15:37:24.999Z</time></trkpt><trkpt lat="43.33348110087658" lon="12.591828210119164"><ele>461.0</ele><time>2026-05-03T15:37:25.999Z</time></trkpt><trkpt lat="43.333680713151864" lon="12.59160956417896"><ele>461.0</ele><time>2026-05-03T15:37:26.999Z</time></trkpt><trkpt lat="43.33387769366052" lon="12.591382855205493"><ele>461.0</ele><time>2026-05-03T15:37:27.999Z</time></trkpt><trkpt lat="43.334079711514434" lon="12.591161752004146"><ele>461.0</ele><time>2026-05-03T15:37:28.999Z</time></trkpt><trkpt lat="43.33427980409823" lon="12.59094581299492"><ele>461.0</ele><time>2026-05-03T15:37:29.999Z</time></trkpt><trkpt lat="43.33448552947259" lon="12.5907273008601"><ele>461.0</ele><time>2026-05-03T15:37:30.999Z</time></trkpt><trkpt lat="43.33467964816789" lon="12.590502209778029"><ele>461.0</ele><time>2026-05-03T15:37:31.999Z</time></trkpt><trkpt lat="43.334870554749706" lon="12.590284519649385"><ele>461.0</ele><time>2026-05-03T15:37:32.999Z</time></trkpt><trkpt lat="43.33506332819412" lon="12.59006814448707"><ele>461.0</ele><time>2026-05-03T15:37:33.999Z</time></trkpt><trkpt lat="43.33525285280075" lon="12.58985062186165"><ele>461.0</ele><time>2026-05-03T15:37:34.999Z</time></trkpt><trkpt lat="43.335449289411564" lon="12.589629800173293"><ele>462.5</ele><time>2026-05-03T15:37:35.999Z</time></trkpt><trkpt lat="43.33564220549128" lon="12.589405764352621"><ele>464.0</ele><time>2026-05-03T15:37:36.999Z</time></trkpt><trkpt lat="43.33583262145694" lon="12.58918330726306"><ele>464.0</ele><time>2026-05-03T15:37:37.999Z</time></trkpt><trkpt lat="43.336025426324106" lon="12.588967851630963"><ele>464.0</ele><time>2026-05-03T15:37:38.999Z</time></trkpt><trkpt lat="43.33620893448062" lon="12.588764518773859"><ele>464.5</ele><time>2026-05-03T15:37:40Z</time></trkpt><trkpt lat="43.33639537914301" lon="12.588561398707517"><ele>465.0</ele><time>2026-05-03T15:37:41Z</time></trkpt><trkpt lat="43.33658369001016" lon="12.588353797409738"><ele>465.0</ele><time>2026-05-03T15:37:42Z</time></trkpt><trkpt lat="43.33677103011352" lon="12.588150354492385"><ele>465.0</ele><time>2026-05-03T15:37:43Z</time></trkpt><trkpt lat="43.33694456730557" lon="12.587949772660428"><ele>465.0</ele><time>2026-05-03T15:37:44Z</time></trkpt><trkpt lat="43.337121975843644" lon="12.58774304315986"><ele>465.0</ele><time>2026-05-03T15:37:45Z</time></trkpt><trkpt lat="43.33728240321324" lon="12.587537328551537"><ele>465.0</ele><time>2026-05-03T15:37:46Z</time></trkpt><trkpt lat="43.337440565946274" lon="12.58731755896646"><ele>465.0</ele><time>2026-05-03T15:37:47Z</time></trkpt><trkpt lat="43.33758763498179" lon="12.587089070038683"><ele>465.0</ele><time>2026-05-03T15:37:48Z</time></trkpt><trkpt lat="43.33772279838791" lon="12.586854278194254"><ele>465.0</ele><time>2026-05-03T15:37:49Z</time></trkpt><trkpt lat="43.33785071983249" lon="12.586607712746362"><ele>465.0</ele><time>2026-05-03T15:37:50Z</time></trkpt><trkpt lat="43.337970403120956" lon="12.586350896269236"><ele>465.0</ele><time>2026-05-03T15:37:51Z</time></trkpt><trkpt lat="43.33808376238852" lon="12.586076385925574"><ele>466.5</ele><time>2026-05-03T15:37:52Z</time></trkpt><trkpt lat="43.33819242315271" lon="12.585790663676423"><ele>468.0</ele><time>2026-05-03T15:37:53Z</time></trkpt><trkpt lat="43.338289692810086" lon="12.585500465589314"><ele>468.5</ele><time>2026-05-03T15:37:54Z</time></trkpt><trkpt lat="43.338374222469255" lon="12.58520703460257"><ele>469.0</ele><time>2026-05-03T15:37:55Z</time></trkpt><trkpt lat="43.33844553399067" lon="12.584903547607736"><ele>469.0</ele><time>2026-05-03T15:37:56Z</time></trkpt><trkpt lat="43.338504749109696" lon="12.584596506650305"><ele>469.0</ele><time>2026-05-03T15:37:57Z</time></trkpt><trkpt lat="43.3385565232407" lon="12.584274646489476"><ele>467.5</ele><time>2026-05-03T15:37:58Z</time></trkpt><trkpt lat="43.338605689847824" lon="12.583954913453827"><ele>466.0</ele><time>2026-05-03T15:37:59Z</time></trkpt><trkpt lat="43.33863672277154" lon="12.583617028926765"><ele>463.0</ele><time>2026-05-03T15:38:00Z</time></trkpt><trkpt lat="43.338666155942285" lon="12.583277125289356"><ele>460.0</ele><time>2026-05-03T15:38:01Z</time></trkpt><trkpt lat="43.33869547739705" lon="12.582937519269182"><ele>459.0</ele><time>2026-05-03T15:38:02Z</time></trkpt><trkpt lat="43.338727904570526" lon="12.582599821753368"><ele>458.0</ele><time>2026-05-03T15:38:03Z</time></trkpt><trkpt lat="43.3387632108892" lon="12.582258449326607"><ele>457.5</ele><time>2026-05-03T15:38:04Z</time></trkpt><trkpt lat="43.33879694351812" lon="12.581914744445962"><ele>457.0</ele><time>2026-05-03T15:38:05Z</time></trkpt><trkpt lat="43.338828473810345" lon="12.581566833344077"><ele>457.0</ele><time>2026-05-03T15:38:06Z</time></trkpt><trkpt lat="43.338861539384204" lon="12.581217890174102"><ele>457.0</ele><time>2026-05-03T15:38:07Z</time></trkpt><trkpt lat="43.3388940000726" lon="12.580870901750261"><ele>457.5</ele><time>2026-05-03T15:38:08Z</time></trkpt><trkpt lat="43.33892731972557" lon="12.580525269815078"><ele>458.0</ele><time>2026-05-03T15:38:09Z</time></trkpt><trkpt lat="43.33895820333647" lon="12.580187055740517"><ele>458.0</ele><time>2026-05-03T15:38:10Z</time></trkpt><trkpt lat="43.33898976882564" lon="12.57985471823369"><ele>458.0</ele><time>2026-05-03T15:38:11Z</time></trkpt><trkpt lat="43.33902403105634" lon="12.579528113520142"><ele>458.0</ele><time>2026-05-03T15:38:12Z</time></trkpt><trkpt lat="43.33905566942674" lon="12.579195463855736"><ele>458.0</ele><time>2026-05-03T15:38:13Z</time></trkpt><trkpt lat="43.339087717767754" lon="12.57886386539305"><ele>459.0</ele><time>2026-05-03T15:38:14Z</time></trkpt><trkpt lat="43.33911864496531" lon="12.578539474001257"><ele>460.0</ele><time>2026-05-03T15:38:15Z</time></trkpt><trkpt lat="43.33915019697662" lon="12.578222066509687"><ele>460.0</ele><time>2026-05-03T15:38:16Z</time></trkpt><trkpt lat="43.339183662687326" lon="12.577912016148849"><ele>460.0</ele><time>2026-05-03T15:38:17Z</time></trkpt><trkpt lat="43.33921732357714" lon="12.577608728987704"><ele>460.0</ele><time>2026-05-03T15:38:18Z</time></trkpt><trkpt lat="43.33925227628643" lon="12.57730888241962"><ele>460.0</ele><time>2026-05-03T15:38:19Z</time></trkpt><trkpt lat="43.33929241119465" lon="12.577012631956675"><ele>460.0</ele><time>2026-05-03T15:38:20Z</time></trkpt><trkpt lat="43.339335310485744" lon="12.57671762986774"><ele>459.0</ele><time>2026-05-03T15:38:21Z</time></trkpt><trkpt lat="43.33938139779683" lon="12.576430330973306"><ele>458.0</ele><time>2026-05-03T15:38:22Z</time></trkpt><trkpt lat="43.33943403359746" lon="12.576144513224822"><ele>457.0</ele><time>2026-05-03T15:38:23Z</time></trkpt><trkpt lat="43.33949204214628" lon="12.575864064793834"><ele>456.6666666666667</ele><time>2026-05-03T15:38:24Z</time></trkpt><trkpt lat="43.33955381481149" lon="12.575583988894095"><ele>456.33333333333337</ele><time>2026-05-03T15:38:25Z</time></trkpt><trkpt lat="43.33961637619635" lon="12.575305235250738"><ele>456.0</ele><time>2026-05-03T15:38:26Z</time></trkpt><trkpt lat="43.33967939435678" lon="12.575024509177007"><ele>457.33333333333337</ele><time>2026-05-03T15:38:27Z</time></trkpt><trkpt lat="43.33975348895141" lon="12.574729318152588"><ele>458.6666666666667</ele><time>2026-05-03T15:38:28Z</time></trkpt><trkpt lat="43.33981371719089" lon="12.57447432663987"><ele>460.0</ele><time>2026-05-03T15:38:29Z</time></trkpt><trkpt lat="43.33988784084456" lon="12.574193191612865"><ele>460.0</ele><time>2026-05-03T15:38:30Z</time></trkpt><trkpt lat="43.33996301821017" lon="12.573927556933542"><ele>460.0</ele><time>2026-05-03T15:38:31Z</time></trkpt><trkpt lat="43.34003938152079" lon="12.573652603793953"><ele>460.0</ele><time>2026-05-03T15:38:32Z</time></trkpt><trkpt lat="43.34011904409144" lon="12.573388814653915"><ele>460.0</ele><time>2026-05-03T15:38:33Z</time></trkpt><trkpt lat="43.34020132496734" lon="12.573115781960542"><ele>460.0</ele><time>2026-05-03T15:38:34Z</time></trkpt><trkpt lat="43.34029135281601" lon="12.572846706586976"><ele>460.0</ele><time>2026-05-03T15:38:35Z</time></trkpt><trkpt lat="43.34038515339402" lon="12.57256747410486"><ele>460.0</ele><time>2026-05-03T15:38:36Z</time></trkpt><trkpt lat="43.340486086802514" lon="12.572277273940225"><ele>460.0</ele><time>2026-05-03T15:38:36.999Z</time></trkpt><trkpt lat="43.34059236330056" lon="12.57198937671029"><ele>460.0</ele><time>2026-05-03T15:38:37.999Z</time></trkpt><trkpt lat="43.34070436685846" lon="12.571686953709694"><ele>460.0</ele><time>2026-05-03T15:38:38.999Z</time></trkpt><trkpt lat="43.34081512130771" lon="12.571395587082927"><ele>459.5</ele><time>2026-05-03T15:38:39.999Z</time></trkpt><trkpt lat="43.340931548721606" lon="12.57110804922617"><ele>459.0</ele><time>2026-05-03T15:38:40.999Z</time></trkpt><trkpt lat="43.34104984126738" lon="12.57082304888435"><ele>459.0</ele><time>2026-05-03T15:38:41.999Z</time></trkpt><trkpt lat="43.34117350541136" lon="12.57054432259289"><ele>459.0</ele><time>2026-05-03T15:38:42.999Z</time></trkpt><trkpt lat="43.341300401123014" lon="12.570287692100614"><ele>457.5</ele><time>2026-05-03T15:38:43.999Z</time></trkpt><trkpt lat="43.341433732787415" lon="12.570014210631724"><ele>456.0</ele><time>2026-05-03T15:38:44.999Z</time></trkpt><trkpt lat="43.341575957044085" lon="12.569741679701107"><ele>457.5</ele><time>2026-05-03T15:38:45.999Z</time></trkpt><trkpt lat="43.34172435692607" lon="12.56946169708043"><ele>459.0</ele><time>2026-05-03T15:38:46.999Z</time></trkpt><trkpt lat="43.34188114908662" lon="12.56917479440218"><ele>459.0</ele><time>2026-05-03T15:38:47.999Z</time></trkpt><trkpt lat="43.34203736696456" lon="12.568896894290225"><ele>459.0</ele><time>2026-05-03T15:38:48.999Z</time></trkpt><trkpt lat="43.342197739623636" lon="12.568627546192856"><ele>459.5</ele><time>2026-05-03T15:38:49.999Z</time></trkpt><trkpt lat="43.34236293570183" lon="12.568357603357041"><ele>460.0</ele><time>2026-05-03T15:38:50.999Z</time></trkpt><trkpt lat="43.34252958100204" lon="12.568097772390303"><ele>460.0</ele><time>2026-05-03T15:38:51.999Z</time></trkpt><trkpt lat="43.34269002910236" lon="12.56786150380697"><ele>460.0</ele><time>2026-05-03T15:38:52.999Z</time></trkpt><trkpt lat="43.34285278478736" lon="12.56762818566718"><ele>460.33333333333337</ele><time>2026-05-03T15:38:53.999Z</time></trkpt><trkpt lat="43.34301015161753" lon="12.567403213564901"><ele>460.66666666666663</ele><time>2026-05-03T15:38:54.999Z</time></trkpt><trkpt lat="43.343163666909575" lon="12.567188439532993"><ele>461.0</ele><time>2026-05-03T15:38:55.999Z</time></trkpt><trkpt lat="43.34331986306218" lon="12.566977982321527"><ele>461.0</ele><time>2026-05-03T15:38:56.999Z</time></trkpt><trkpt lat="43.34347190255283" lon="12.566781221196637"><ele>461.0</ele><time>2026-05-03T15:38:57.999Z</time></trkpt><trkpt lat="43.34362470341703" lon="12.566593290397412"><ele>461.0</ele><time>2026-05-03T15:38:58.999Z</time></trkpt><trkpt lat="43.34377991178513" lon="12.56640565477856"><ele>461.3333333333333</ele><time>2026-05-03T15:38:59.999Z</time></trkpt><trkpt lat="43.34392833467194" lon="12.566234633398025"><ele>461.66666666666663</ele><time>2026-05-03T15:39:00.999Z</time></trkpt><trkpt lat="43.34407999060643" lon="12.566066886581469"><ele>462.0</ele><time>2026-05-03T15:39:01.999Z</time></trkpt><trkpt lat="43.34422468668996" lon="12.565905669933487"><ele>462.0</ele><time>2026-05-03T15:39:02.999Z</time></trkpt><trkpt lat="43.3443660114343" lon="12.565749811658119"><ele>462.0</ele><time>2026-05-03T15:39:03.999Z</time></trkpt><trkpt lat="43.34450956165361" lon="12.565595860438979"><ele>462.0</ele><time>2026-05-03T15:39:04.999Z</time></trkpt><trkpt lat="43.344650371554835" lon="12.565448306419755"><ele>462.66666666666663</ele><time>2026-05-03T15:39:05.999Z</time></trkpt><trkpt lat="43.34478968791427" lon="12.565297417560897"><ele>463.3333333333333</ele><time>2026-05-03T15:39:06.999Z</time></trkpt><trkpt lat="43.344933016271355" lon="12.56514332140907"><ele>464.0</ele><time>2026-05-03T15:39:07.999Z</time></trkpt><trkpt lat="43.34507106908769" lon="12.564995287075968"><ele>464.0</ele><time>2026-05-03T15:39:08.999Z</time></trkpt><trkpt lat="43.3452121586541" lon="12.564842863464536"><ele>464.0</ele><time>2026-05-03T15:39:09.999Z</time></trkpt><trkpt lat="43.34535636030035" lon="12.56469162279983"><ele>464.0</ele><time>2026-05-03T15:39:10.999Z</time></trkpt><trkpt lat="43.34549926304553" lon="12.564543908978175"><ele>464.0</ele><time>2026-05-03T15:39:11.999Z</time></trkpt><trkpt lat="43.34564225861823" lon="12.564396366535785"><ele>464.0</ele><time>2026-05-03T15:39:12.999Z</time></trkpt><trkpt lat="43.34578672619374" lon="12.564244442558257"><ele>464.0</ele><time>2026-05-03T15:39:13.999Z</time></trkpt><trkpt lat="43.34592691360499" lon="12.564094455369819"><ele>464.0</ele><time>2026-05-03T15:39:14.999Z</time></trkpt><trkpt lat="43.34606843630499" lon="12.563947267086627"><ele>464.0</ele><time>2026-05-03T15:39:15.999Z</time></trkpt><trkpt lat="43.34621430205724" lon="12.563796465025936"><ele>464.0</ele><time>2026-05-03T15:39:16.999Z</time></trkpt><trkpt lat="43.34635929224389" lon="12.563646996452842"><ele>464.3333333333333</ele><time>2026-05-03T15:39:17.999Z</time></trkpt><trkpt lat="43.34649713001487" lon="12.56350239678015"><ele>464.66666666666663</ele><time>2026-05-03T15:39:18.999Z</time></trkpt><trkpt lat="43.346635503814525" lon="12.563351192217263"><ele>465.0</ele><time>2026-05-03T15:39:19.999Z</time></trkpt><trkpt lat="43.3467795519684" lon="12.563196580814516"><ele>465.0</ele><time>2026-05-03T15:39:20.999Z</time></trkpt><trkpt lat="43.34692451281176" lon="12.563042429392777"><ele>465.0</ele><time>2026-05-03T15:39:21.999Z</time></trkpt><trkpt lat="43.34707330146895" lon="12.56288259140597"><ele>465.0</ele><time>2026-05-03T15:39:22.999Z</time></trkpt><trkpt lat="43.347218990752594" lon="12.562729898595542"><ele>465.0</ele><time>2026-05-03T15:39:23.999Z</time></trkpt><trkpt lat="43.34736766426365" lon="12.562569121059559"><ele>465.0</ele><time>2026-05-03T15:39:24.999Z</time></trkpt><trkpt lat="43.34751167902551" lon="12.56241468797579"><ele>465.0</ele><time>2026-05-03T15:39:25.999Z</time></trkpt><trkpt lat="43.34765733387938" lon="12.56225671995271"><ele>465.0</ele><time>2026-05-03T15:39:26.999Z</time></trkpt><trkpt lat="43.347800289131534" lon="12.562105458317578"><ele>465.0</ele><time>2026-05-03T15:39:27.999Z</time></trkpt><trkpt lat="43.34794337956823" lon="12.561953908725387"><ele>465.0</ele><time>2026-05-03T15:39:28.999Z</time></trkpt><trkpt lat="43.34807863023111" lon="12.561809667377004"><ele>465.33333333333337</ele><time>2026-05-03T15:39:29.999Z</time></trkpt><trkpt lat="43.34820905327909" lon="12.561668267447864"><ele>465.6666666666667</ele><time>2026-05-03T15:39:30.999Z</time></trkpt><trkpt lat="43.34833648064177" lon="12.56152747235884"><ele>466.0</ele><time>2026-05-03T15:39:31.999Z</time></trkpt><trkpt lat="43.348455917040795" lon="12.561403182462003"><ele>466.0</ele><time>2026-05-03T15:39:32.999Z</time></trkpt><trkpt lat="43.34857173576626" lon="12.561285427115742"><ele>466.0</ele><time>2026-05-03T15:39:33.999Z</time></trkpt><trkpt lat="43.348689078802565" lon="12.561170329336399"><ele>466.0</ele><time>2026-05-03T15:39:34.999Z</time></trkpt><trkpt lat="43.34880298375079" lon="12.561062580841838"><ele>466.0</ele><time>2026-05-03T15:39:35.999Z</time></trkpt><trkpt lat="43.348914885310755" lon="12.560957369342583"><ele>465.0</ele><time>2026-05-03T15:39:36.999Z</time></trkpt><trkpt lat="43.349019055066044" lon="12.560849333962485"><ele>464.0</ele><time>2026-05-03T15:39:37.999Z</time></trkpt><trkpt lat="43.349120791684236" lon="12.560744941047563"><ele>463.0</ele><time>2026-05-03T15:39:38.999Z</time></trkpt><trkpt lat="43.34922018430095" lon="12.560654834235606"><ele>462.0</ele><time>2026-05-03T15:39:39.999Z</time></trkpt><trkpt lat="43.34931769823983" lon="12.560581848202798"><ele>462.0</ele><time>2026-05-03T15:39:40.999Z</time></trkpt><trkpt lat="43.34941161534412" lon="12.560524282043366"><ele>462.0</ele><time>2026-05-03T15:39:41.999Z</time></trkpt><trkpt lat="43.349502555608744" lon="12.560475643246335"><ele>462.0</ele><time>2026-05-03T15:39:42.999Z</time></trkpt><trkpt lat="43.34958182188445" lon="12.560434975216952"><ele>462.0</ele><time>2026-05-03T15:39:43.999Z</time></trkpt><trkpt lat="43.34965809359199" lon="12.560400237096195"><ele>462.0</ele><time>2026-05-03T15:39:44.999Z</time></trkpt><trkpt lat="43.34972929209877" lon="12.560372354243663"><ele>462.0</ele><time>2026-05-03T15:39:46Z</time></trkpt><trkpt lat="43.34979199484101" lon="12.560351730380841"><ele>461.75</ele><time>2026-05-03T15:39:47Z</time></trkpt><trkpt lat="43.34987464766818" lon="12.560344365302322"><ele>461.5</ele><time>2026-05-03T15:39:49Z</time></trkpt><trkpt lat="43.3498468129913" lon="12.560213107186286"><ele>461.25</ele><time>2026-05-03T15:40:00Z</time></trkpt><trkpt lat="43.35003180350297" lon="12.560361113740068"><ele>461.0</ele><time>2026-05-03T15:45:36.999Z</time></trkpt><trkpt lat="43.350094310742385" lon="12.560301001269734"><ele>461.0</ele><time>2026-05-03T15:45:38.999Z</time></trkpt><trkpt lat="43.35016654336818" lon="12.56022666199759"><ele>461.0</ele><time>2026-05-03T15:45:40.999Z</time></trkpt><trkpt lat="43.35023496407847" lon="12.560141584961322"><ele>461.0</ele><time>2026-05-03T15:45:42.999Z</time></trkpt><trkpt lat="43.35031848236799" lon="12.560056317873503"><ele>461.0</ele><time>2026-05-03T15:45:44.999Z</time></trkpt><trkpt lat="43.35037758597927" lon="12.559938317475275"><ele>461.0</ele><time>2026-05-03T15:45:46.999Z</time></trkpt><trkpt lat="43.35035403178948" lon="12.559773271909314"><ele>460.99999999999994</ele><time>2026-05-03T15:45:48.999Z</time></trkpt><trkpt lat="43.35033387228565" lon="12.559646779578038"><ele>461.0</ele><time>2026-05-03T15:45:50.999Z</time></trkpt><trkpt lat="43.35033549828527" lon="12.55954167876951"><ele>461.0</ele><time>2026-05-03T15:45:52.999Z</time></trkpt><trkpt lat="43.35035614244795" lon="12.55944985958959"><ele>461.0</ele><time>2026-05-03T15:45:54.999Z</time></trkpt><trkpt lat="43.3503838149445" lon="12.55935210603429"><ele>460.99999999999994</ele><time>2026-05-03T15:45:56.999Z</time></trkpt><trkpt lat="43.35040643729486" lon="12.559248356377644"><ele>461.0</ele><time>2026-05-03T15:45:58.999Z</time></trkpt><trkpt lat="43.35043345035972" lon="12.559107475302666"><ele>460.8333333333333</ele><time>2026-05-03T15:46:00.999Z</time></trkpt><trkpt lat="43.350462208332196" lon="12.559029761884823"><ele>460.66666666666663</ele><time>2026-05-03T15:46:01.999Z</time></trkpt><trkpt lat="43.35052907047829" lon="12.558963986327607"><ele>460.5</ele><time>2026-05-03T15:46:02.999Z</time></trkpt><trkpt lat="43.350583625197665" lon="12.55888324275799"><ele>460.33333333333337</ele><time>2026-05-03T15:46:04Z</time></trkpt><trkpt lat="43.35064673219251" lon="12.55879978833497"><ele>460.1666666666667</ele><time>2026-05-03T15:46:05Z</time></trkpt><trkpt lat="43.35071336094596" lon="12.558706632027421"><ele>460.0</ele><time>2026-05-03T15:46:06Z</time></trkpt><trkpt lat="43.350783466047844" lon="12.558606476738735"><ele>460.4</ele><time>2026-05-03T15:46:07Z</time></trkpt><trkpt lat="43.350854623040995" lon="12.558502486545695"><ele>460.8</ele><time>2026-05-03T15:46:08Z</time></trkpt><trkpt lat="43.35092478348937" lon="12.558391123993589"><ele>461.20000000000005</ele><time>2026-05-03T15:46:09Z</time></trkpt><trkpt lat="43.35099784602273" lon="12.558282548370315"><ele>461.6</ele><time>2026-05-03T15:46:10Z</time></trkpt><trkpt lat="43.35107234496866" lon="12.558170678109056"><ele>462.0</ele><time>2026-05-03T15:46:11Z</time></trkpt><trkpt lat="43.351149197957504" lon="12.558055222579826"><ele>462.0</ele><time>2026-05-03T15:46:12Z</time></trkpt><trkpt lat="43.35122544105555" lon="12.557933455897142"><ele>462.0</ele><time>2026-05-03T15:46:13Z</time></trkpt><trkpt lat="43.351302717783476" lon="12.55780648130046"><ele>462.0</ele><time>2026-05-03T15:46:14Z</time></trkpt><trkpt lat="43.35138210570804" lon="12.557675575173864"><ele>462.0</ele><time>2026-05-03T15:46:15Z</time></trkpt><trkpt lat="43.35146404383154" lon="12.55754105823637"><ele>461.0</ele><time>2026-05-03T15:46:16Z</time></trkpt><trkpt lat="43.35155047089876" lon="12.557402512524934"><ele>460.0</ele><time>2026-05-03T15:46:17Z</time></trkpt><trkpt lat="43.35163604476206" lon="12.557257893820688"><ele>459.0</ele><time>2026-05-03T15:46:18Z</time></trkpt><trkpt lat="43.35172595524765" lon="12.557119565533085"><ele>458.0</ele><time>2026-05-03T15:46:19Z</time></trkpt><trkpt lat="43.35181309527607" lon="12.556973808698663"><ele>457.5</ele><time>2026-05-03T15:46:20Z</time></trkpt><trkpt lat="43.351903826761436" lon="12.556823586435002"><ele>457.0</ele><time>2026-05-03T15:46:21Z</time></trkpt><trkpt lat="43.35199170197385" lon="12.556668560078474"><ele>456.5</ele><time>2026-05-03T15:46:22Z</time></trkpt><trkpt lat="43.352079877047" lon="12.556512426910537"><ele>456.0</ele><time>2026-05-03T15:46:23Z</time></trkpt><trkpt lat="43.35216546128764" lon="12.556355803311348"><ele>457.0</ele><time>2026-05-03T15:46:24Z</time></trkpt><trkpt lat="43.35225127822426" lon="12.556195652681662"><ele>458.0</ele><time>2026-05-03T15:46:25Z</time></trkpt><trkpt lat="43.35233788051407" lon="12.556035320433098"><ele>459.0</ele><time>2026-05-03T15:46:26Z</time></trkpt><trkpt lat="43.35242656117048" lon="12.555877001604541"><ele>460.0</ele><time>2026-05-03T15:46:27Z</time></trkpt><trkpt lat="43.35250896871431" lon="12.55571340313336"><ele>460.0</ele><time>2026-05-03T15:46:28Z</time></trkpt><trkpt lat="43.35259417912404" lon="12.555551350123142"><ele>460.0</ele><time>2026-05-03T15:46:29Z</time></trkpt><trkpt lat="43.352685330519655" lon="12.555386799779225"><ele>460.0</ele><time>2026-05-03T15:46:30Z</time></trkpt><trkpt lat="43.3527765476077" lon="12.55522293040988"><ele>460.0</ele><time>2026-05-03T15:46:31Z</time></trkpt><trkpt lat="43.352871336752855" lon="12.555058860890796"><ele>460.0</ele><time>2026-05-03T15:46:32Z</time></trkpt><trkpt lat="43.352967708367586" lon="12.554893953061482"><ele>460.0</ele><time>2026-05-03T15:46:33Z</time></trkpt><trkpt lat="43.353060901784936" lon="12.554727381395354"><ele>460.0</ele><time>2026-05-03T15:46:34Z</time></trkpt><trkpt lat="43.353152840919115" lon="12.554562345320207"><ele>459.33333333333337</ele><time>2026-05-03T15:46:35Z</time></trkpt><trkpt lat="43.35324458854905" lon="12.554395592591433"><ele>458.66666666666663</ele><time>2026-05-03T15:46:36Z</time></trkpt><trkpt lat="43.353333129583085" lon="12.554228567534233"><ele>458.0</ele><time>2026-05-03T15:46:37Z</time></trkpt><trkpt lat="43.35342308659478" lon="12.55406245620453"><ele>458.0</ele><time>2026-05-03T15:46:38Z</time></trkpt><trkpt lat="43.35351537136048" lon="12.553898179676397"><ele>458.0</ele><time>2026-05-03T15:46:39Z</time></trkpt><trkpt lat="43.3536065828688" lon="12.55373202688864"><ele>458.0</ele><time>2026-05-03T15:46:40Z</time></trkpt><trkpt lat="43.353697799922884" lon="12.55356684450385"><ele>458.0</ele><time>2026-05-03T15:46:41Z</time></trkpt><trkpt lat="43.353788035392206" lon="12.55340499812042"><ele>458.0</ele><time>2026-05-03T15:46:42Z</time></trkpt><trkpt lat="43.353879312460286" lon="12.553240468021183"><ele>458.0</ele><time>2026-05-03T15:46:43Z</time></trkpt><trkpt lat="43.35397380887705" lon="12.553081375692468"><ele>458.0</ele><time>2026-05-03T15:46:44Z</time></trkpt><trkpt lat="43.354066698238135" lon="12.552923073892238"><ele>458.5</ele><time>2026-05-03T15:46:45Z</time></trkpt><trkpt lat="43.35415446221196" lon="12.552763134829346"><ele>459.0</ele><time>2026-05-03T15:46:46Z</time></trkpt><trkpt lat="43.354242544775076" lon="12.552605637963886"><ele>459.5</ele><time>2026-05-03T15:46:47Z</time></trkpt><trkpt lat="43.3543268044973" lon="12.552451958725554"><ele>460.0</ele><time>2026-05-03T15:46:48Z</time></trkpt><trkpt lat="43.354408073592495" lon="12.552304865274063"><ele>460.0</ele><time>2026-05-03T15:46:49Z</time></trkpt><trkpt lat="43.35449070445658" lon="12.55216563927669"><ele>460.0</ele><time>2026-05-03T15:46:50Z</time></trkpt><trkpt lat="43.354582054598" lon="12.552029703997938"><ele>460.0</ele><time>2026-05-03T15:46:51Z</time></trkpt><trkpt lat="43.35467837320242" lon="12.551903978483256"><ele>460.0</ele><time>2026-05-03T15:46:52Z</time></trkpt><trkpt lat="43.35477783387379" lon="12.551788394917738"><ele>460.0</ele><time>2026-05-03T15:46:53Z</time></trkpt><trkpt lat="43.35487639196715" lon="12.55168241521073"><ele>460.0</ele><time>2026-05-03T15:46:54Z</time></trkpt><trkpt lat="43.35497815108054" lon="12.551580483284726"><ele>460.0</ele><time>2026-05-03T15:46:55Z</time></trkpt><trkpt lat="43.35508260712719" lon="12.551493214082974"><ele>460.0</ele><time>2026-05-03T15:46:56Z</time></trkpt><trkpt lat="43.35519223296231" lon="12.551412021215366"><ele>460.0</ele><time>2026-05-03T15:46:57Z</time></trkpt><trkpt lat="43.35529791270611" lon="12.551338718929028"><ele>460.0</ele><time>2026-05-03T15:46:58Z</time></trkpt><trkpt lat="43.355396763489864" lon="12.551278778879306"><ele>460.0</ele><time>2026-05-03T15:46:59Z</time></trkpt><trkpt lat="43.35550024237462" lon="12.551232283978894"><ele>460.0</ele><time>2026-05-03T15:47:00Z</time></trkpt><trkpt lat="43.35560625940813" lon="12.551192052406904"><ele>460.0</ele><time>2026-05-03T15:47:01Z</time></trkpt><trkpt lat="43.355715024426054" lon="12.551159356049386"><ele>460.0</ele><time>2026-05-03T15:47:02Z</time></trkpt><trkpt lat="43.3558245887097" lon="12.551131725133983"><ele>460.0</ele><time>2026-05-03T15:47:03Z</time></trkpt><trkpt lat="43.35593703117804" lon="12.551113173790373"><ele>460.0</ele><time>2026-05-03T15:47:04Z</time></trkpt><trkpt lat="43.35605173201421" lon="12.55110174767279"><ele>460.0</ele><time>2026-05-03T15:47:05Z</time></trkpt><trkpt lat="43.356165484738916" lon="12.551100715310083"><ele>460.0</ele><time>2026-05-03T15:47:06Z</time></trkpt><trkpt lat="43.35627925366708" lon="12.551106185988655"><ele>460.0</ele><time>2026-05-03T15:47:06.999Z</time></trkpt><trkpt lat="43.3563929743319" lon="12.551110551145019"><ele>460.0</ele><time>2026-05-03T15:47:07.999Z</time></trkpt><trkpt lat="43.35650390795527" lon="12.55111808613566"><ele>460.0</ele><time>2026-05-03T15:47:08.999Z</time></trkpt><trkpt lat="43.356618912439366" lon="12.551126173587207"><ele>461.0</ele><time>2026-05-03T15:47:09.999Z</time></trkpt><trkpt lat="43.35673482562782" lon="12.551135812878924"><ele>462.0</ele><time>2026-05-03T15:47:10.999Z</time></trkpt><trkpt lat="43.356848901526156" lon="12.551145069568276"><ele>463.0</ele><time>2026-05-03T15:47:11.999Z</time></trkpt><trkpt lat="43.35696329116626" lon="12.551153226483727"><ele>464.0</ele><time>2026-05-03T15:47:12.999Z</time></trkpt><trkpt lat="43.35707952238001" lon="12.551163455698406"><ele>464.0</ele><time>2026-05-03T15:47:13.999Z</time></trkpt><trkpt lat="43.35719440554572" lon="12.551177040912883"><ele>464.0</ele><time>2026-05-03T15:47:14.999Z</time></trkpt><trkpt lat="43.35731148363447" lon="12.551191925698614"><ele>464.0</ele><time>2026-05-03T15:47:15.999Z</time></trkpt><trkpt lat="43.35743039775154" lon="12.55120689315669"><ele>464.0</ele><time>2026-05-03T15:47:16.999Z</time></trkpt><trkpt lat="43.35755015415837" lon="12.551222588814817"><ele>464.5</ele><time>2026-05-03T15:47:17.999Z</time></trkpt><trkpt lat="43.35767208536773" lon="12.551240918918952"><ele>465.0</ele><time>2026-05-03T15:47:18.999Z</time></trkpt><trkpt lat="43.357794691894526" lon="12.551264098941143"><ele>465.5</ele><time>2026-05-03T15:47:19.999Z</time></trkpt><trkpt lat="43.35792523397807" lon="12.551289303128877"><ele>466.0</ele><time>2026-05-03T15:47:20.999Z</time></trkpt><trkpt lat="43.35805931150647" lon="12.551328278019033"><ele>466.25</ele><time>2026-05-03T15:47:21.999Z</time></trkpt><trkpt lat="43.35820231196509" lon="12.551326535024078"><ele>466.5</ele><time>2026-05-03T15:47:22.999Z</time></trkpt><trkpt lat="43.35833820549888" lon="12.551367488658975"><ele>466.75</ele><time>2026-05-03T15:47:23.999Z</time></trkpt><trkpt lat="43.358481386592885" lon="12.551399749630686"><ele>467.0</ele><time>2026-05-03T15:47:24.999Z</time></trkpt><trkpt lat="43.35862765687666" lon="12.551439014253354"><ele>467.0</ele><time>2026-05-03T15:47:25.999Z</time></trkpt><trkpt lat="43.358770781998295" lon="12.55147610239214"><ele>467.0</ele><time>2026-05-03T15:47:26.999Z</time></trkpt><trkpt lat="43.358913952534905" lon="12.55152191799981"><ele>467.0</ele><time>2026-05-03T15:47:27.999Z</time></trkpt><trkpt lat="43.35905076880193" lon="12.551581367401768"><ele>467.0</ele><time>2026-05-03T15:47:28.999Z</time></trkpt><trkpt lat="43.35918887175167" lon="12.551659637172541"><ele>467.25</ele><time>2026-05-03T15:47:29.999Z</time></trkpt><trkpt lat="43.359325851484684" lon="12.551738342918442"><ele>467.5</ele><time>2026-05-03T15:47:30.999Z</time></trkpt><trkpt lat="43.35946441517999" lon="12.551817784459677"><ele>467.75</ele><time>2026-05-03T15:47:31.999Z</time></trkpt><trkpt lat="43.35960163773234" lon="12.551898993384427"><ele>468.0</ele><time>2026-05-03T15:47:32.999Z</time></trkpt><trkpt lat="43.359740744455806" lon="12.551988078380052"><ele>468.5</ele><time>2026-05-03T15:47:33.999Z</time></trkpt><trkpt lat="43.359878664814445" lon="12.552081412419556"><ele>469.0</ele><time>2026-05-03T15:47:34.999Z</time></trkpt><trkpt lat="43.360015182152445" lon="12.552177967607445"><ele>469.5</ele><time>2026-05-03T15:47:35.999Z</time></trkpt><trkpt lat="43.360136957850536" lon="12.552277452014454"><ele>470.0</ele><time>2026-05-03T15:47:36.999Z</time></trkpt><trkpt lat="43.36026134239027" lon="12.552376287727581"><ele>470.0</ele><time>2026-05-03T15:47:37.999Z</time></trkpt><trkpt lat="43.360384532812716" lon="12.552478783178795"><ele>470.0</ele><time>2026-05-03T15:47:38.999Z</time></trkpt><trkpt lat="43.36050963733282" lon="12.552582122207548"><ele>470.0</ele><time>2026-05-03T15:47:39.999Z</time></trkpt><trkpt lat="43.360632744252975" lon="12.552684244436225"><ele>470.0</ele><time>2026-05-03T15:47:40.999Z</time></trkpt><trkpt lat="43.36075461837126" lon="12.552784118972694"><ele>471.0</ele><time>2026-05-03T15:47:41.999Z</time></trkpt><trkpt lat="43.36087230865008" lon="12.552878934398297"><ele>472.0</ele><time>2026-05-03T15:47:42.999Z</time></trkpt><trkpt lat="43.36098313656522" lon="12.552975435458062"><ele>473.0</ele><time>2026-05-03T15:47:43.999Z</time></trkpt><trkpt lat="43.36107106773651" lon="12.553060021633689"><ele>474.0</ele><time>2026-05-03T15:47:44.999Z</time></trkpt><trkpt lat="43.36113798851393" lon="12.553130931338387"><ele>474.0</ele><time>2026-05-03T15:47:45.999Z</time></trkpt><trkpt lat="43.36118836765249" lon="12.553204319064882"><ele>474.0</ele><time>2026-05-03T15:47:46.999Z</time></trkpt><trkpt lat="43.36122875021313" lon="12.553299482822727"><ele>474.0</ele><time>2026-05-03T15:47:47.999Z</time></trkpt><trkpt lat="43.36125693897317" lon="12.553409037340847"><ele>474.0</ele><time>2026-05-03T15:47:48.999Z</time></trkpt><trkpt lat="43.36128218433135" lon="12.553510252748222"><ele>474.0</ele><time>2026-05-03T15:47:49.999Z</time></trkpt><trkpt lat="43.361321115269234" lon="12.553611136126152"><ele>474.0</ele><time>2026-05-03T15:47:50.999Z</time></trkpt><trkpt lat="43.361379163628776" lon="12.553700694513944"><ele>474.8333333333333</ele><time>2026-05-03T15:47:51.999Z</time></trkpt><trkpt lat="43.36144607332219" lon="12.553776051287846"><ele>475.66666666666663</ele><time>2026-05-03T15:47:52.999Z</time></trkpt><trkpt lat="43.36151845618186" lon="12.553829900572802"><ele>476.5</ele><time>2026-05-03T15:47:53.999Z</time></trkpt><trkpt lat="43.36160137177604" lon="12.553862568991073"><ele>477.3333333333333</ele><time>2026-05-03T15:47:54.999Z</time></trkpt><trkpt lat="43.361684442876346" lon="12.553869219351231"><ele>478.16666666666663</ele><time>2026-05-03T15:47:55.999Z</time></trkpt><trkpt lat="43.36177144081771" lon="12.553858334102868"><ele>479.0</ele><time>2026-05-03T15:47:56.999Z</time></trkpt><trkpt lat="43.361859232291856" lon="12.553829213223588"><ele>479.0</ele><time>2026-05-03T15:47:57.999Z</time></trkpt><trkpt lat="43.36194686554265" lon="12.553781066108023"><ele>479.0</ele><time>2026-05-03T15:47:58.999Z</time></trkpt><trkpt lat="43.362036765918134" lon="12.553726181658092"><ele>479.0</ele><time>2026-05-03T15:47:59.999Z</time></trkpt><trkpt lat="43.362129556459884" lon="12.55369460455137"><ele>479.0</ele><time>2026-05-03T15:48:00.999Z</time></trkpt><trkpt lat="43.36222305053298" lon="12.55369499876108"><ele>479.0</ele><time>2026-05-03T15:48:01.999Z</time></trkpt><trkpt lat="43.362306880154115" lon="12.553729733577763"><ele>479.2</ele><time>2026-05-03T15:48:02.999Z</time></trkpt><trkpt lat="43.362388154716236" lon="12.553776950770382"><ele>479.4</ele><time>2026-05-03T15:48:03.999Z</time></trkpt><trkpt lat="43.36247031518605" lon="12.553847112575657"><ele>479.6</ele><time>2026-05-03T15:48:04.999Z</time></trkpt><trkpt lat="43.36255407467975" lon="12.553918084258601"><ele>479.8</ele><time>2026-05-03T15:48:05.999Z</time></trkpt><trkpt lat="43.36264160950004" lon="12.553991649636083"><ele>480.0</ele><time>2026-05-03T15:48:06.999Z</time></trkpt><trkpt lat="43.36273178739186" lon="12.55406663886493"><ele>480.0</ele><time>2026-05-03T15:48:07.999Z</time></trkpt><trkpt lat="43.36283476234576" lon="12.554146300457186"><ele>480.0</ele><time>2026-05-03T15:48:08.999Z</time></trkpt><trkpt lat="43.3629342714639" lon="12.55421686260108"><ele>480.0</ele><time>2026-05-03T15:48:10Z</time></trkpt><trkpt lat="43.363036667877914" lon="12.554293166520527"><ele>480.0</ele><time>2026-05-03T15:48:11Z</time></trkpt><trkpt lat="43.36314144792372" lon="12.554373625313973"><ele>480.5</ele><time>2026-05-03T15:48:12Z</time></trkpt><trkpt lat="43.36324906075397" lon="12.554455734343652"><ele>481.0</ele><time>2026-05-03T15:48:13Z</time></trkpt><trkpt lat="43.36335803930115" lon="12.554541249288887"><ele>481.5</ele><time>2026-05-03T15:48:14Z</time></trkpt><trkpt lat="43.36346692539014" lon="12.554628220038033"><ele>482.0</ele><time>2026-05-03T15:48:15Z</time></trkpt><trkpt lat="43.363575111277704" lon="12.55471327265091"><ele>482.5</ele><time>2026-05-03T15:48:16Z</time></trkpt><trkpt lat="43.36367805185688" lon="12.554797549220499"><ele>483.0</ele><time>2026-05-03T15:48:17Z</time></trkpt><trkpt lat="43.36377223856825" lon="12.554890564335269"><ele>483.5</ele><time>2026-05-03T15:48:18Z</time></trkpt><trkpt lat="43.363854808549114" lon="12.55500337805222"><ele>484.0</ele><time>2026-05-03T15:48:19Z</time></trkpt><trkpt lat="43.36392354047336" lon="12.555136737709825"><ele>486.5</ele><time>2026-05-03T15:48:20Z</time></trkpt><trkpt lat="43.36398257302191" lon="12.555284574491955"><ele>489.0</ele><time>2026-05-03T15:48:21Z</time></trkpt><trkpt lat="43.36403763769721" lon="12.555435553344454"><ele>491.5</ele><time>2026-05-03T15:48:22Z</time></trkpt><trkpt lat="43.36409374962886" lon="12.555586411095591"><ele>494.0</ele><time>2026-05-03T15:48:23Z</time></trkpt><trkpt lat="43.36415061660408" lon="12.55573687680009"><ele>494.0</ele><time>2026-05-03T15:48:24Z</time></trkpt><trkpt lat="43.36421309863598" lon="12.555877892077596"><ele>494.0</ele><time>2026-05-03T15:48:25Z</time></trkpt><trkpt lat="43.36428556333715" lon="12.55600751511652"><ele>494.0</ele><time>2026-05-03T15:48:26Z</time></trkpt><trkpt lat="43.36437589913611" lon="12.556126009701595"><ele>494.0</ele><time>2026-05-03T15:48:27Z</time></trkpt><trkpt lat="43.36448405160284" lon="12.556232547642361"><ele>493.0</ele><time>2026-05-03T15:48:28Z</time></trkpt><trkpt lat="43.36460090036842" lon="12.5563338835214"><ele>492.0</ele><time>2026-05-03T15:48:29Z</time></trkpt><trkpt lat="43.364720177214046" lon="12.55643445319565"><ele>491.0</ele><time>2026-05-03T15:48:30Z</time></trkpt><trkpt lat="43.364837290605955" lon="12.556546112230333"><ele>490.0</ele><time>2026-05-03T15:48:31Z</time></trkpt><trkpt lat="43.36494132000321" lon="12.556668219082944"><ele>491.25</ele><time>2026-05-03T15:48:32Z</time></trkpt><trkpt lat="43.36502878851695" lon="12.55681332505319"><ele>492.5</ele><time>2026-05-03T15:48:33Z</time></trkpt><trkpt lat="43.365116810924384" lon="12.556944579648125"><ele>493.75</ele><time>2026-05-03T15:48:34Z</time></trkpt><trkpt lat="43.365207118915066" lon="12.55708111591057"><ele>495.0</ele><time>2026-05-03T15:48:35Z</time></trkpt><trkpt lat="43.3653023164581" lon="12.557202319522744"><ele>495.0</ele><time>2026-05-03T15:48:36Z</time></trkpt><trkpt lat="43.36542860991607" lon="12.557324120832233"><ele>495.0</ele><time>2026-05-03T15:48:37Z</time></trkpt><trkpt lat="43.365538684608886" lon="12.557412522792532"><ele>495.0</ele><time>2026-05-03T15:48:38Z</time></trkpt><trkpt lat="43.365659988052876" lon="12.55750926306409"><ele>495.0</ele><time>2026-05-03T15:48:39Z</time></trkpt><trkpt lat="43.36578563261325" lon="12.557603746370846"><ele>497.33333333333337</ele><time>2026-05-03T15:48:40Z</time></trkpt><trkpt lat="43.365921647322764" lon="12.557696096487344"><ele>499.6666666666667</ele><time>2026-05-03T15:48:41Z</time></trkpt><trkpt lat="43.36605598429709" lon="12.55779267488739"><ele>502.0</ele><time>2026-05-03T15:48:42Z</time></trkpt><trkpt lat="43.3661807650868" lon="12.557900510941844"><ele>502.0</ele><time>2026-05-03T15:48:43Z</time></trkpt><trkpt lat="43.36630381787562" lon="12.558007702211073"><ele>502.0</ele><time>2026-05-03T15:48:44Z</time></trkpt><trkpt lat="43.36642891191429" lon="12.558087920739153"><ele>502.0</ele><time>2026-05-03T15:48:45Z</time></trkpt><trkpt lat="43.36656378023611" lon="12.558142930260937"><ele>502.0</ele><time>2026-05-03T15:48:46Z</time></trkpt><trkpt lat="43.366710581794386" lon="12.558178985479584"><ele>506.33333333333337</ele><time>2026-05-03T15:48:47Z</time></trkpt><trkpt lat="43.36686592290512" lon="12.558194350059557"><ele>510.66666666666663</ele><time>2026-05-03T15:48:48Z</time></trkpt><trkpt lat="43.367022984621684" lon="12.558181805329506"><ele>515.0</ele><time>2026-05-03T15:48:49Z</time></trkpt><trkpt lat="43.36718317186085" lon="12.558141448277578"><ele>514.3333333333333</ele><time>2026-05-03T15:48:50Z</time></trkpt><trkpt lat="43.3673528117038" lon="12.558093211555889"><ele>513.6666666666666</ele><time>2026-05-03T15:48:51Z</time></trkpt><trkpt lat="43.36753012763228" lon="12.558033868285433"><ele>513.0</ele><time>2026-05-03T15:48:52Z</time></trkpt><trkpt lat="43.36771929060954" lon="12.557968168988182"><ele>513.0</ele><time>2026-05-03T15:48:53Z</time></trkpt><trkpt lat="43.36785378440238" lon="12.557919147527745"><ele>513.0</ele><time>2026-05-03T15:48:54Z</time></trkpt><trkpt lat="43.368077054505065" lon="12.557849120750056"><ele>513.0</ele><time>2026-05-03T15:48:55Z</time></trkpt><trkpt lat="43.36826105975946" lon="12.557839740560373"><ele>513.0</ele><time>2026-05-03T15:48:56Z</time></trkpt><trkpt lat="43.36843678689234" lon="12.55783738381244"><ele>513.0</ele><time>2026-05-03T15:48:57Z</time></trkpt><trkpt lat="43.36860772972183" lon="12.557870115127312"><ele>513.0</ele><time>2026-05-03T15:48:58Z</time></trkpt><trkpt lat="43.36878592395877" lon="12.557915376388456"><ele>518.0</ele><time>2026-05-03T15:48:59Z</time></trkpt><trkpt lat="43.36897210429159" lon="12.557945555660991"><ele>523.0</ele><time>2026-05-03T15:49:00Z</time></trkpt><trkpt lat="43.36914845373931" lon="12.558014471432951"><ele>528.0</ele><time>2026-05-03T15:49:01Z</time></trkpt><trkpt lat="43.369324875413376" lon="12.5580329221596"><ele>528.0</ele><time>2026-05-03T15:49:02Z</time></trkpt><trkpt lat="43.36949670162143" lon="12.558018395336187"><ele>528.0</ele><time>2026-05-03T15:49:03Z</time></trkpt><trkpt lat="43.3696700462244" lon="12.557955008805772"><ele>528.0</ele><time>2026-05-03T15:49:04Z</time></trkpt><trkpt lat="43.36985091599662" lon="12.557926379590867"><ele>526.6666666666666</ele><time>2026-05-03T15:49:05Z</time></trkpt><trkpt lat="43.37002500237107" lon="12.557880256158523"><ele>525.3333333333333</ele><time>2026-05-03T15:49:06Z</time></trkpt><trkpt lat="43.37018793135506" lon="12.557845247078868"><ele>524.0</ele><time>2026-05-03T15:49:07Z</time></trkpt><trkpt lat="43.37034438380505" lon="12.557835934593689"><ele>521.3333333333333</ele><time>2026-05-03T15:49:08Z</time></trkpt><trkpt lat="43.37050666576917" lon="12.557846547503091"><ele>518.6666666666666</ele><time>2026-05-03T15:49:09Z</time></trkpt><trkpt lat="43.370680733396775" lon="12.55788640715466"><ele>516.0</ele><time>2026-05-03T15:49:09.999Z</time></trkpt><trkpt lat="43.37085724752521" lon="12.557929523036208"><ele>516.0</ele><time>2026-05-03T15:49:10.999Z</time></trkpt><trkpt lat="43.3710376765143" lon="12.557974741566952"><ele>516.0</ele><time>2026-05-03T15:49:11.999Z</time></trkpt><trkpt lat="43.37121617038165" lon="12.558021559306882"><ele>516.0</ele><time>2026-05-03T15:49:12.999Z</time></trkpt><trkpt lat="43.37138637157239" lon="12.558051918364855"><ele>518.3333333333334</ele><time>2026-05-03T15:49:13.999Z</time></trkpt><trkpt lat="43.37155621762844" lon="12.558052335854633"><ele>520.6666666666667</ele><time>2026-05-03T15:49:14.999Z</time></trkpt><trkpt lat="43.37172510229034" lon="12.558027969586607"><ele>523.0</ele><time>2026-05-03T15:49:15.999Z</time></trkpt><trkpt lat="43.37189450507792" lon="12.557996643763222"><ele>523.0</ele><time>2026-05-03T15:49:16.999Z</time></trkpt><trkpt lat="43.37206280289685" lon="12.557969710158707"><ele>523.0</ele><time>2026-05-03T15:49:17.999Z</time></trkpt><trkpt lat="43.37222013486485" lon="12.55795782279329"><ele>523.0</ele><time>2026-05-03T15:49:18.999Z</time></trkpt><trkpt lat="43.37237741732079" lon="12.55798564874192"><ele>527.6666666666667</ele><time>2026-05-03T15:49:19.999Z</time></trkpt><trkpt lat="43.37253297449951" lon="12.55803276838492"><ele>532.3333333333334</ele><time>2026-05-03T15:49:20.999Z</time></trkpt><trkpt lat="43.372689593685074" lon="12.558086424015006"><ele>537.0</ele><time>2026-05-03T15:49:21.999Z</time></trkpt><trkpt lat="43.372839059178354" lon="12.558139928567236"><ele>537.0</ele><time>2026-05-03T15:49:22.999Z</time></trkpt><trkpt lat="43.37299118501823" lon="12.55819693188073"><ele>537.0</ele><time>2026-05-03T15:49:23.999Z</time></trkpt><trkpt lat="43.373135250406676" lon="12.558251804014972"><ele>537.0</ele><time>2026-05-03T15:49:24.999Z</time></trkpt><trkpt lat="43.373287085563504" lon="12.55830864350647"><ele>544.3333333333334</ele><time>2026-05-03T15:49:25.999Z</time></trkpt><trkpt lat="43.37343341659755" lon="12.558361297519172"><ele>551.6666666666667</ele><time>2026-05-03T15:49:26.999Z</time></trkpt><trkpt lat="43.3735811703874" lon="12.558419547586267"><ele>559.0</ele><time>2026-05-03T15:49:27.999Z</time></trkpt><trkpt lat="43.373721621583016" lon="12.558487929420366"><ele>549.6666666666667</ele><time>2026-05-03T15:49:28.999Z</time></trkpt><trkpt lat="43.37385686391578" lon="12.558565540163471"><ele>540.3333333333334</ele><time>2026-05-03T15:49:29.999Z</time></trkpt><trkpt lat="43.373996660238056" lon="12.558650633369988"><ele>531.0</ele><time>2026-05-03T15:49:30.999Z</time></trkpt><trkpt lat="43.37414471527571" lon="12.558741640364154"><ele>531.0</ele><time>2026-05-03T15:49:31.999Z</time></trkpt><trkpt lat="43.374292511678796" lon="12.558832250791964"><ele>531.0</ele><time>2026-05-03T15:49:32.999Z</time></trkpt><trkpt lat="43.37444816262849" lon="12.558924869620162"><ele>531.0</ele><time>2026-05-03T15:49:33.999Z</time></trkpt><trkpt lat="43.374602753032825" lon="12.559009814838456"><ele>543.6666666666666</ele><time>2026-05-03T15:49:34.999Z</time></trkpt><trkpt lat="43.374761664984774" lon="12.559077810332933"><ele>556.3333333333333</ele><time>2026-05-03T15:49:35.999Z</time></trkpt><trkpt lat="43.37491593911017" lon="12.559122282593455"><ele>569.0</ele><time>2026-05-03T15:49:36.999Z</time></trkpt><trkpt lat="43.37506736645783" lon="12.559152793510945"><ele>569.0</ele><time>2026-05-03T15:49:37.999Z</time></trkpt><trkpt lat="43.37523548776499" lon="12.559196307279437"><ele>569.0</ele><time>2026-05-03T15:49:38.999Z</time></trkpt><trkpt lat="43.375385321053116" lon="12.5592543635651"><ele>569.0</ele><time>2026-05-03T15:49:39.999Z</time></trkpt><trkpt lat="43.37552347832202" lon="12.559320688216596"><ele>573.25</ele><time>2026-05-03T15:49:40.999Z</time></trkpt><trkpt lat="43.37565849987334" lon="12.55939047036001"><ele>577.5</ele><time>2026-05-03T15:49:41.999Z</time></trkpt><trkpt lat="43.37579168858201" lon="12.559469747558481"><ele>581.75</ele><time>2026-05-03T15:49:42.999Z</time></trkpt><trkpt lat="43.37592183602231" lon="12.559553604970587"><ele>586.0</ele><time>2026-05-03T15:49:43.999Z</time></trkpt><trkpt lat="43.37605749963148" lon="12.559646202494802"><ele>581.0</ele><time>2026-05-03T15:49:44.999Z</time></trkpt><trkpt lat="43.37618952876263" lon="12.559736319321336"><ele>576.0</ele><time>2026-05-03T15:49:45.999Z</time></trkpt><trkpt lat="43.376329021903125" lon="12.5598286387191"><ele>571.0</ele><time>2026-05-03T15:49:46.999Z</time></trkpt><trkpt lat="43.37647282300047" lon="12.559918920485702"><ele>571.0</ele><time>2026-05-03T15:49:47.999Z</time></trkpt><trkpt lat="43.37661898848773" lon="12.560008439946197"><ele>571.0</ele><time>2026-05-03T15:49:48.999Z</time></trkpt><trkpt lat="43.37676821433942" lon="12.560074751612985"><ele>571.0</ele><time>2026-05-03T15:49:49.999Z</time></trkpt><trkpt lat="43.376912038031186" lon="12.560156000550469"><ele>571.0</ele><time>2026-05-03T15:49:50.999Z</time></trkpt><trkpt lat="43.37705315878234" lon="12.560242065775961"><ele>571.0</ele><time>2026-05-03T15:49:51.999Z</time></trkpt><trkpt lat="43.37719769573909" lon="12.560301180659415"><ele>571.0</ele><time>2026-05-03T15:49:52.999Z</time></trkpt><trkpt lat="43.37734208791004" lon="12.560353894025496"><ele>567.25</ele><time>2026-05-03T15:49:53.999Z</time></trkpt><trkpt lat="43.37749196968684" lon="12.560382334037202"><ele>563.5</ele><time>2026-05-03T15:49:54.999Z</time></trkpt><trkpt lat="43.37763001431718" lon="12.560430984912635"><ele>559.75</ele><time>2026-05-03T15:49:55.999Z</time></trkpt><trkpt lat="43.37776680325605" lon="12.560469880016159"><ele>556.0</ele><time>2026-05-03T15:49:56.999Z</time></trkpt><trkpt lat="43.37789378729014" lon="12.560537171892461"><ele>563.25</ele><time>2026-05-03T15:49:57.999Z</time></trkpt><trkpt lat="43.378018990535054" lon="12.560595169572872"><ele>570.5</ele><time>2026-05-03T15:49:58.999Z</time></trkpt><trkpt lat="43.378138150834026" lon="12.560675459280485"><ele>577.75</ele><time>2026-05-03T15:49:59.999Z</time></trkpt><trkpt lat="43.37825348327314" lon="12.560772760651636"><ele>585.0</ele><time>2026-05-03T15:50:00.999Z</time></trkpt><trkpt lat="43.37836372419065" lon="12.560876067924543"><ele>585.0</ele><time>2026-05-03T15:50:01.999Z</time></trkpt><trkpt lat="43.378469730820264" lon="12.560982626012564"><ele>585.0</ele><time>2026-05-03T15:50:02.999Z</time></trkpt><trkpt lat="43.37858814913238" lon="12.561085117075525"><ele>585.0</ele><time>2026-05-03T15:50:03.999Z</time></trkpt><trkpt lat="43.378699999519725" lon="12.561217794905646"><ele>585.0</ele><time>2026-05-03T15:50:04.999Z</time></trkpt><trkpt lat="43.37882039473131" lon="12.561351444973976"><ele>585.0</ele><time>2026-05-03T15:50:05.999Z</time></trkpt><trkpt lat="43.378946569005755" lon="12.56148787571552"><ele>585.0</ele><time>2026-05-03T15:50:06.999Z</time></trkpt><trkpt lat="43.379089857408815" lon="12.561617264829984"><ele>585.0</ele><time>2026-05-03T15:50:07.999Z</time></trkpt><trkpt lat="43.37924098203222" lon="12.56174587311285"><ele>585.0</ele><time>2026-05-03T15:50:08.999Z</time></trkpt><trkpt lat="43.3793884426769" lon="12.561896021818711"><ele>585.0</ele><time>2026-05-03T15:50:09.999Z</time></trkpt><trkpt lat="43.379549814260926" lon="12.56202672594014"><ele>585.0</ele><time>2026-05-03T15:50:10.999Z</time></trkpt><trkpt lat="43.37972287759927" lon="12.56215572248258"><ele>581.0</ele><time>2026-05-03T15:50:11.999Z</time></trkpt><trkpt lat="43.37989016790586" lon="12.562274897903864"><ele>577.0</ele><time>2026-05-03T15:50:12.999Z</time></trkpt><trkpt lat="43.38006407075361" lon="12.562390940388502"><ele>573.0</ele><time>2026-05-03T15:50:13.999Z</time></trkpt><trkpt lat="43.38023159075394" lon="12.562512392694988"><ele>573.0</ele><time>2026-05-03T15:50:14.999Z</time></trkpt><trkpt lat="43.380380524674024" lon="12.56262331860693"><ele>573.0</ele><time>2026-05-03T15:50:16Z</time></trkpt><trkpt lat="43.380526624735474" lon="12.56270731087031"><ele>573.0</ele><time>2026-05-03T15:50:17Z</time></trkpt><trkpt lat="43.38067957254567" lon="12.562769648986105"><ele>573.0</ele><time>2026-05-03T15:50:18Z</time></trkpt><trkpt lat="43.38083108063936" lon="12.562805157022638"><ele>573.0</ele><time>2026-05-03T15:50:19Z</time></trkpt><trkpt lat="43.38098140820956" lon="12.56283555349593"><ele>573.0</ele><time>2026-05-03T15:50:20Z</time></trkpt><trkpt lat="43.38112919345077" lon="12.562866648825834"><ele>573.0</ele><time>2026-05-03T15:50:21Z</time></trkpt><trkpt lat="43.38126155550766" lon="12.562900989909172"><ele>573.0</ele><time>2026-05-03T15:50:22Z</time></trkpt><trkpt lat="43.38141874621546" lon="12.562927230029263"><ele>573.0</ele><time>2026-05-03T15:50:23Z</time></trkpt><trkpt lat="43.381560074628204" lon="12.562949112487004"><ele>573.0</ele><time>2026-05-03T15:50:24Z</time></trkpt><trkpt lat="43.38170003749471" lon="12.562973293970131"><ele>575.5</ele><time>2026-05-03T15:50:25Z</time></trkpt><trkpt lat="43.38183397782618" lon="12.562999069399195"><ele>578.0</ele><time>2026-05-03T15:50:26Z</time></trkpt><trkpt lat="43.38196760368146" lon="12.563024084703162"><ele>580.5</ele><time>2026-05-03T15:50:27Z</time></trkpt><trkpt lat="43.382097526654185" lon="12.563052131486765"><ele>583.0</ele><time>2026-05-03T15:50:28Z</time></trkpt><trkpt lat="43.38222444121017" lon="12.563090585108357"><ele>587.0</ele><time>2026-05-03T15:50:29Z</time></trkpt><trkpt lat="43.382345758584435" lon="12.56314776946846"><ele>591.0</ele><time>2026-05-03T15:50:30Z</time></trkpt><trkpt lat="43.38246797083958" lon="12.563221205423025"><ele>595.0</ele><time>2026-05-03T15:50:31Z</time></trkpt><trkpt lat="43.382586574346604" lon="12.56330823600199"><ele>599.0</ele><time>2026-05-03T15:50:32Z</time></trkpt><trkpt lat="43.382701811560274" lon="12.563409376715509"><ele>599.0</ele><time>2026-05-03T15:50:33Z</time></trkpt><trkpt lat="43.38281718597632" lon="12.563526607736955"><ele>599.0</ele><time>2026-05-03T15:50:34Z</time></trkpt><trkpt lat="43.38292465314491" lon="12.563654654714137"><ele>599.0</ele><time>2026-05-03T15:50:35Z</time></trkpt><trkpt lat="43.383020153858894" lon="12.563786570872818"><ele>599.0</ele><time>2026-05-03T15:50:36Z</time></trkpt><trkpt lat="43.38310391758478" lon="12.563915935565868"><ele>602.8</ele><time>2026-05-03T15:50:37Z</time></trkpt><trkpt lat="43.38317883188735" lon="12.564039070373193"><ele>606.5999999999999</ele><time>2026-05-03T15:50:38Z</time></trkpt><trkpt lat="43.383240581571066" lon="12.564146025657866"><ele>610.4</ele><time>2026-05-03T15:50:39Z</time></trkpt><trkpt lat="43.38328676369391" lon="12.564224153944735"><ele>614.1999999999999</ele><time>2026-05-03T15:50:40Z</time></trkpt><trkpt lat="43.38332977876256" lon="12.564320470022565"><ele>618.0</ele><time>2026-05-03T15:50:42Z</time></trkpt><trkpt lat="43.38334333661558" lon="12.564433692212564"><ele>618.0</ele><time>2026-05-03T15:50:45Z</time></trkpt><trkpt lat="43.38335666447942" lon="12.56455398174941"><ele>618.0</ele><time>2026-05-03T15:55:00Z</time></trkpt><trkpt lat="43.38337173875662" lon="12.564649777682986"><ele>618.0</ele><time>2026-05-03T15:55:02Z</time></trkpt><trkpt lat="43.38341175495327" lon="12.564721214770383"><ele>618.0</ele><time>2026-05-03T15:55:04Z</time></trkpt><trkpt lat="43.38347608388887" lon="12.56473015235444"><ele>618.0</ele><time>2026-05-03T15:55:06Z</time></trkpt><trkpt lat="43.383535752131195" lon="12.564645343450893"><ele>618.0</ele><time>2026-05-03T15:55:44.999Z</time></trkpt><trkpt lat="43.38337089273665" lon="12.56447260734438"><ele>618.0</ele><time>2026-05-03T15:55:48.999Z</time></trkpt><trkpt lat="43.38332720305682" lon="12.564392640933772"><ele>618.0</ele><time>2026-05-03T15:55:49.999Z</time></trkpt><trkpt lat="43.38328886253432" lon="12.564300231942976"><ele>618.0</ele><time>2026-05-03T15:55:50.999Z</time></trkpt><trkpt lat="43.38330947099194" lon="12.564152208537479"><ele>618.0</ele><time>2026-05-03T15:55:51.999Z</time></trkpt><trkpt lat="43.38324558468064" lon="12.564053354095812"><ele>618.0</ele><time>2026-05-03T15:55:52.999Z</time></trkpt><trkpt lat="43.38317859751654" lon="12.563947282627622"><ele>618.0</ele><time>2026-05-03T15:55:53.999Z</time></trkpt><trkpt lat="43.38311088088049" lon="12.563834544453835"><ele>618.0</ele><time>2026-05-03T15:55:54.999Z</time></trkpt><trkpt lat="43.383030962441914" lon="12.56371336218745"><ele>618.0</ele><time>2026-05-03T15:55:55.999Z</time></trkpt><trkpt lat="43.382939877654216" lon="12.563596015150626"><ele>618.0</ele><time>2026-05-03T15:55:56.999Z</time></trkpt><trkpt lat="43.38284158203667" lon="12.563483506849346"><ele>613.25</ele><time>2026-05-03T15:55:57.999Z</time></trkpt><trkpt lat="43.382737302855" lon="12.563377886388428"><ele>608.5</ele><time>2026-05-03T15:55:58.999Z</time></trkpt><trkpt lat="43.38262625453982" lon="12.563278499395405"><ele>603.75</ele><time>2026-05-03T15:55:59.999Z</time></trkpt><trkpt lat="43.38250935742384" lon="12.5631887592927"><ele>599.0</ele><time>2026-05-03T15:56:00.999Z</time></trkpt><trkpt lat="43.38238407745402" lon="12.563112440171682"><ele>599.0</ele><time>2026-05-03T15:56:01.999Z</time></trkpt><trkpt lat="43.382250817809854" lon="12.563048701560767"><ele>599.0</ele><time>2026-05-03T15:56:02.999Z</time></trkpt><trkpt lat="43.382114781949916" lon="12.562998409373549"><ele>599.0</ele><time>2026-05-03T15:56:03.999Z</time></trkpt><trkpt lat="43.381974656712565" lon="12.562961847290074"><ele>599.0</ele><time>2026-05-03T15:56:04.999Z</time></trkpt><trkpt lat="43.38183513425259" lon="12.562940640954382"><ele>596.0</ele><time>2026-05-03T15:56:05.999Z</time></trkpt><trkpt lat="43.38169538859506" lon="12.562920641328427"><ele>593.0</ele><time>2026-05-03T15:56:06.999Z</time></trkpt><trkpt lat="43.381561823472126" lon="12.562894811812576"><ele>590.0</ele><time>2026-05-03T15:56:07.999Z</time></trkpt><trkpt lat="43.38142071929103" lon="12.562869425161733"><ele>587.0</ele><time>2026-05-03T15:56:08.999Z</time></trkpt><trkpt lat="43.381280085767" lon="12.56284200745555"><ele>587.0</ele><time>2026-05-03T15:56:09.999Z</time></trkpt><trkpt lat="43.38113923580134" lon="12.562816813176804"><ele>587.0</ele><time>2026-05-03T15:56:10.999Z</time></trkpt><trkpt lat="43.380997226699144" lon="12.562783486567088"><ele>587.0</ele><time>2026-05-03T15:56:11.999Z</time></trkpt><trkpt lat="43.38085522051999" lon="12.562741417285082"><ele>587.0</ele><time>2026-05-03T15:56:12.999Z</time></trkpt><trkpt lat="43.38071237107408" lon="12.562691502029919"><ele>587.0</ele><time>2026-05-03T15:56:13.999Z</time></trkpt><trkpt lat="43.380571823132875" lon="12.562640646903857"><ele>587.0</ele><time>2026-05-03T15:56:14.999Z</time></trkpt><trkpt lat="43.3804374011704" lon="12.562578364964615"><ele>587.0</ele><time>2026-05-03T15:56:15.999Z</time></trkpt><trkpt lat="43.38030416349424" lon="12.562505076983017"><ele>587.0</ele><time>2026-05-03T15:56:16.999Z</time></trkpt><trkpt lat="43.38017161198766" lon="12.562413829572563"><ele>582.3333333333333</ele><time>2026-05-03T15:56:17.999Z</time></trkpt><trkpt lat="43.38004305457526" lon="12.56231070629372"><ele>577.6666666666666</ele><time>2026-05-03T15:56:18.999Z</time></trkpt><trkpt lat="43.37990927866617" lon="12.562208444421833"><ele>573.0</ele><time>2026-05-03T15:56:19.999Z</time></trkpt><trkpt lat="43.379779192070934" lon="12.562108928004196"><ele>577.0</ele><time>2026-05-03T15:56:20.999Z</time></trkpt><trkpt lat="43.379642121485354" lon="12.562012597958685"><ele>581.0</ele><time>2026-05-03T15:56:21.999Z</time></trkpt><trkpt lat="43.379503037393924" lon="12.561911401826533"><ele>585.0</ele><time>2026-05-03T15:56:22.999Z</time></trkpt><trkpt lat="43.379363158877965" lon="12.561804067963543"><ele>585.0</ele><time>2026-05-03T15:56:23.999Z</time></trkpt><trkpt lat="43.37921986215769" lon="12.561686539655547"><ele>585.0</ele><time>2026-05-03T15:56:24.999Z</time></trkpt><trkpt lat="43.3790888207688" lon="12.561556659185749"><ele>585.0</ele><time>2026-05-03T15:56:25.999Z</time></trkpt><trkpt lat="43.378970198461005" lon="12.561390526239732"><ele>585.0</ele><time>2026-05-03T15:56:26.999Z</time></trkpt><trkpt lat="43.37881223139795" lon="12.56130527158511"><ele>585.0</ele><time>2026-05-03T15:56:27.999Z</time></trkpt><trkpt lat="43.378674432741214" lon="12.561156903961729"><ele>585.0</ele><time>2026-05-03T15:56:28.999Z</time></trkpt><trkpt lat="43.3785420310421" lon="12.561011661690902"><ele>585.0</ele><time>2026-05-03T15:56:29.999Z</time></trkpt><trkpt lat="43.3784086035071" lon="12.560861422013973"><ele>585.0</ele><time>2026-05-03T15:56:30.999Z</time></trkpt><trkpt lat="43.37827631250515" lon="12.560724738312318"><ele>585.0</ele><time>2026-05-03T15:56:31.998Z</time></trkpt><trkpt lat="43.37814021087099" lon="12.56061054432559"><ele>589.0</ele><time>2026-05-03T15:56:33Z</time></trkpt><trkpt lat="43.37799694500855" lon="12.560507780843839"><ele>593.0</ele><time>2026-05-03T15:56:34Z</time></trkpt><trkpt lat="43.377839942329416" lon="12.560427923032597"><ele>597.0</ele><time>2026-05-03T15:56:35Z</time></trkpt><trkpt lat="43.37768395228456" lon="12.560365357948728"><ele>597.0</ele><time>2026-05-03T15:56:36Z</time></trkpt><trkpt lat="43.37751840502625" lon="12.560316087247834"><ele>597.0</ele><time>2026-05-03T15:56:37Z</time></trkpt><trkpt lat="43.37735173106797" lon="12.560277719121668"><ele>597.0</ele><time>2026-05-03T15:56:38Z</time></trkpt><trkpt lat="43.37718953485228" lon="12.560226172998705"><ele>588.3333333333334</ele><time>2026-05-03T15:56:39Z</time></trkpt><trkpt lat="43.377033558492364" lon="12.560162405502911"><ele>579.6666666666667</ele><time>2026-05-03T15:56:40Z</time></trkpt><trkpt lat="43.37688781696805" lon="12.560082019801264"><ele>571.0</ele><time>2026-05-03T15:56:41Z</time></trkpt><trkpt lat="43.37673815429479" lon="12.560001707495939"><ele>571.0</ele><time>2026-05-03T15:56:42Z</time></trkpt><trkpt lat="43.37658308605386" lon="12.559916036223427"><ele>571.0</ele><time>2026-05-03T15:56:43Z</time></trkpt><trkpt lat="43.37642779542936" lon="12.559818017317877"><ele>571.0</ele><time>2026-05-03T15:56:44Z</time></trkpt><trkpt lat="43.37627960800835" lon="12.559725006740459"><ele>576.0</ele><time>2026-05-03T15:56:45Z</time></trkpt><trkpt lat="43.376127363426406" lon="12.559624911082352"><ele>581.0</ele><time>2026-05-03T15:56:46Z</time></trkpt><trkpt lat="43.37597822939372" lon="12.559524213641048"><ele>586.0</ele><time>2026-05-03T15:56:47Z</time></trkpt><trkpt lat="43.37582573380743" lon="12.559435300801352"><ele>586.0</ele><time>2026-05-03T15:56:48Z</time></trkpt><trkpt lat="43.37567402327096" lon="12.559334959752903"><ele>586.0</ele><time>2026-05-03T15:56:49Z</time></trkpt><trkpt lat="43.37552073079244" lon="12.559252379328173"><ele>586.0</ele><time>2026-05-03T15:56:50Z</time></trkpt><trkpt lat="43.375363198770685" lon="12.559180595616036"><ele>580.3333333333334</ele><time>2026-05-03T15:56:51Z</time></trkpt><trkpt lat="43.37519842407012" lon="12.559127726337763"><ele>574.6666666666666</ele><time>2026-05-03T15:56:52Z</time></trkpt><trkpt lat="43.375035504386496" lon="12.559078855680255"><ele>569.0</ele><time>2026-05-03T15:56:53Z</time></trkpt><trkpt lat="43.374872679245556" lon="12.559046532563238"><ele>569.0</ele><time>2026-05-03T15:56:54Z</time></trkpt><trkpt lat="43.37471306812009" lon="12.558996640140965"><ele>569.0</ele><time>2026-05-03T15:56:55Z</time></trkpt><trkpt lat="43.374558041847244" lon="12.558932640876877"><ele>569.0</ele><time>2026-05-03T15:56:56Z</time></trkpt><trkpt lat="43.374413405822565" lon="12.55883309265631"><ele>575.3333333333333</ele><time>2026-05-03T15:56:57Z</time></trkpt><trkpt lat="43.374256033989454" lon="12.558713283080715"><ele>581.6666666666666</ele><time>2026-05-03T15:56:58Z</time></trkpt><trkpt lat="43.37406989928311" lon="12.558554958339506"><ele>588.0</ele><time>2026-05-03T15:56:59Z</time></trkpt><trkpt lat="43.37393241520914" lon="12.558525734063"><ele>578.3333333333334</ele><time>2026-05-03T15:57:00Z</time></trkpt><trkpt lat="43.373769344583" lon="12.558436163657024"><ele>568.6666666666667</ele><time>2026-05-03T15:57:01Z</time></trkpt><trkpt lat="43.373602958022644" lon="12.558353662109193"><ele>559.0</ele><time>2026-05-03T15:57:02Z</time></trkpt><trkpt lat="43.3734402701702" lon="12.558274687667703"><ele>559.0</ele><time>2026-05-03T15:57:03Z</time></trkpt><trkpt lat="43.37327320532658" lon="12.558211276713578"><ele>559.0</ele><time>2026-05-03T15:57:04Z</time></trkpt><trkpt lat="43.373100264522414" lon="12.558164931998869"><ele>559.0</ele><time>2026-05-03T15:57:05Z</time></trkpt><trkpt lat="43.37293218396442" lon="12.558113980223451"><ele>551.6666666666667</ele><time>2026-05-03T15:57:06Z</time></trkpt><trkpt lat="43.37277223322972" lon="12.558056706169305"><ele>544.3333333333334</ele><time>2026-05-03T15:57:07Z</time></trkpt><trkpt lat="43.37261916714105" lon="12.557990338636033"><ele>537.0</ele><time>2026-05-03T15:57:08Z</time></trkpt><trkpt lat="43.37246214525056" lon="12.557938586279876"><ele>537.0</ele><time>2026-05-03T15:57:09Z</time></trkpt><trkpt lat="43.37230252396318" lon="12.55789180891211"><ele>537.0</ele><time>2026-05-03T15:57:10Z</time></trkpt><trkpt lat="43.372137871913175" lon="12.557879014758878"><ele>537.0</ele><time>2026-05-03T15:57:11Z</time></trkpt><trkpt lat="43.37197722781618" lon="12.557892271847496"><ele>532.3333333333334</ele><time>2026-05-03T15:57:12Z</time></trkpt><trkpt lat="43.371814193139166" lon="12.557932693618238"><ele>527.6666666666667</ele><time>2026-05-03T15:57:13Z</time></trkpt><trkpt lat="43.37164917686542" lon="12.557967071151591"><ele>523.0</ele><time>2026-05-03T15:57:14Z</time></trkpt><trkpt lat="43.37149056953407" lon="12.557979257925163"><ele>520.6666666666667</ele><time>2026-05-03T15:57:15Z</time></trkpt><trkpt lat="43.371332227036476" lon="12.557978691868486"><ele>518.3333333333334</ele><time>2026-05-03T15:57:16Z</time></trkpt><trkpt lat="43.371169376493334" lon="12.557950443612551"><ele>516.0</ele><time>2026-05-03T15:57:17Z</time></trkpt><trkpt lat="43.37100322546816" lon="12.557898728774918"><ele>534.6666666666666</ele><time>2026-05-03T15:57:18Z</time></trkpt><trkpt lat="43.37083478304804" lon="12.557842346935695"><ele>553.3333333333333</ele><time>2026-05-03T15:57:19Z</time></trkpt><trkpt lat="43.37067536080513" lon="12.557800182671375"><ele>572.0</ele><time>2026-05-03T15:57:20Z</time></trkpt><trkpt lat="43.37051649226859" lon="12.557771430395103"><ele>573.0</ele><time>2026-05-03T15:57:21Z</time></trkpt><trkpt lat="43.370360904507415" lon="12.557754994096982"><ele>574.0</ele><time>2026-05-03T15:57:22Z</time></trkpt><trkpt lat="43.37021296980522" lon="12.557768729454368"><ele>575.0</ele><time>2026-05-03T15:57:23Z</time></trkpt><trkpt lat="43.370066875179894" lon="12.557802732135528"><ele>575.0</ele><time>2026-05-03T15:57:23.999Z</time></trkpt><trkpt lat="43.3699219034141" lon="12.557844332797035"><ele>575.0</ele><time>2026-05-03T15:57:24.999Z</time></trkpt><trkpt lat="43.36978135863019" lon="12.557901422534057"><ele>575.0</ele><time>2026-05-03T15:57:25.999Z</time></trkpt><trkpt lat="43.369623833396545" lon="12.557896795476099"><ele>563.25</ele><time>2026-05-03T15:57:26.999Z</time></trkpt><trkpt lat="43.36947669643897" lon="12.557936182881352"><ele>551.5</ele><time>2026-05-03T15:57:27.999Z</time></trkpt><trkpt lat="43.36933529483215" lon="12.557964167854724"><ele>539.75</ele><time>2026-05-03T15:57:28.999Z</time></trkpt><trkpt lat="43.36918574406865" lon="12.5579701756768"><ele>528.0</ele><time>2026-05-03T15:57:29.999Z</time></trkpt><trkpt lat="43.36902826572212" lon="12.557938540009824"><ele>528.0</ele><time>2026-05-03T15:57:30.999Z</time></trkpt><trkpt lat="43.368876172935444" lon="12.557884509399495"><ele>528.0</ele><time>2026-05-03T15:57:31.999Z</time></trkpt><trkpt lat="43.36871416034335" lon="12.557832904396658"><ele>528.0</ele><time>2026-05-03T15:57:32.999Z</time></trkpt><trkpt lat="43.368554169853674" lon="12.557791570192144"><ele>539.0</ele><time>2026-05-03T15:57:33.999Z</time></trkpt><trkpt lat="43.36839269811293" lon="12.557768310225768"><ele>550.0</ele><time>2026-05-03T15:57:34.999Z</time></trkpt><trkpt lat="43.368224037914146" lon="12.557773627369167"><ele>561.0</ele><time>2026-05-03T15:57:35.999Z</time></trkpt><trkpt lat="43.36805962778668" lon="12.557797992312523"><ele>565.0</ele><time>2026-05-03T15:57:36.999Z</time></trkpt><trkpt lat="43.36790085781296" lon="12.557840231355044"><ele>569.0</ele><time>2026-05-03T15:57:37.999Z</time></trkpt><trkpt lat="43.36774257422315" lon="12.557898028340512"><ele>573.0</ele><time>2026-05-03T15:57:38.999Z</time></trkpt><trkpt lat="43.36758964859538" lon="12.557952023062878"><ele>553.6666666666666</ele><time>2026-05-03T15:57:39.999Z</time></trkpt><trkpt lat="43.36743073077246" lon="12.558006507040378"><ele>534.3333333333333</ele><time>2026-05-03T15:57:40.999Z</time></trkpt><trkpt lat="43.367281914512084" lon="12.558048542008265"><ele>515.0</ele><time>2026-05-03T15:57:41.999Z</time></trkpt><trkpt lat="43.36713530783223" lon="12.558081670114595"><ele>515.0</ele><time>2026-05-03T15:57:42.999Z</time></trkpt><trkpt lat="43.366995657222745" lon="12.55811448014624"><ele>515.0</ele><time>2026-05-03T15:57:43.999Z</time></trkpt><trkpt lat="43.36685247807739" lon="12.558139010472816"><ele>515.0</ele><time>2026-05-03T15:57:44.999Z</time></trkpt><trkpt lat="43.36671015966515" lon="12.558131933736428"><ele>515.0</ele><time>2026-05-03T15:57:45.999Z</time></trkpt><trkpt lat="43.36656196587534" lon="12.558096345757168"><ele>515.0</ele><time>2026-05-03T15:57:46.999Z</time></trkpt><trkpt lat="43.36641616509161" lon="12.558031408409121"><ele>515.0</ele><time>2026-05-03T15:57:47.999Z</time></trkpt><trkpt lat="43.36628166539744" lon="12.557921902401063"><ele>515.0</ele><time>2026-05-03T15:57:48.999Z</time></trkpt><trkpt lat="43.3661396589115" lon="12.557825309566532"><ele>516.0</ele><time>2026-05-03T15:57:49.999Z</time></trkpt><trkpt lat="43.36600086270757" lon="12.557721655521473"><ele>517.0</ele><time>2026-05-03T15:57:50.999Z</time></trkpt><trkpt lat="43.36587829114104" lon="12.557620368091394"><ele>518.0</ele><time>2026-05-03T15:57:51.999Z</time></trkpt><trkpt lat="43.36575402900394" lon="12.557527303709827"><ele>519.0</ele><time>2026-05-03T15:57:52.999Z</time></trkpt><trkpt lat="43.365635034397904" lon="12.55743577921164"><ele>513.0</ele><time>2026-05-03T15:57:53.999Z</time></trkpt><trkpt lat="43.365523293442" lon="12.557350050767845"><ele>507.0</ele><time>2026-05-03T15:57:54.999Z</time></trkpt><trkpt lat="43.365419234174404" lon="12.5572517048729"><ele>501.0</ele><time>2026-05-03T15:57:55.999Z</time></trkpt><trkpt lat="43.3653121091276" lon="12.557151568874824"><ele>495.0</ele><time>2026-05-03T15:57:56.999Z</time></trkpt><trkpt lat="43.36521086120233" lon="12.557041544098066"><ele>498.5</ele><time>2026-05-03T15:57:57.999Z</time></trkpt><trkpt lat="43.3651193086213" lon="12.556908228183602"><ele>502.0</ele><time>2026-05-03T15:57:58.999Z</time></trkpt><trkpt lat="43.36503991912346" lon="12.556760216825268"><ele>505.5</ele><time>2026-05-03T15:57:59.999Z</time></trkpt><trkpt lat="43.364962835188265" lon="12.556611540373572"><ele>509.0</ele><time>2026-05-03T15:58:00.999Z</time></trkpt><trkpt lat="43.36486996043012" lon="12.55648854656408"><ele>509.0</ele><time>2026-05-03T15:58:01.999Z</time></trkpt><trkpt lat="43.364761560016824" lon="12.556398867591804"><ele>509.0</ele><time>2026-05-03T15:58:02.999Z</time></trkpt><trkpt lat="43.3646491908536" lon="12.556321836615572"><ele>509.0</ele><time>2026-05-03T15:58:03.999Z</time></trkpt><trkpt lat="43.36453910277279" lon="12.556239476418849"><ele>509.0</ele><time>2026-05-03T15:58:04.999Z</time></trkpt><trkpt lat="43.36443482542263" lon="12.556137801684827"><ele>505.25</ele><time>2026-05-03T15:58:05.999Z</time></trkpt><trkpt lat="43.36433389477445" lon="12.556019222811372"><ele>501.5</ele><time>2026-05-03T15:58:06.999Z</time></trkpt><trkpt lat="43.36424845853739" lon="12.555884965589948"><ele>497.75</ele><time>2026-05-03T15:58:07.999Z</time></trkpt><trkpt lat="43.36418210324147" lon="12.55573241773445"><ele>494.0</ele><time>2026-05-03T15:58:08.999Z</time></trkpt><trkpt lat="43.36412061945347" lon="12.555569916759257"><ele>494.0</ele><time>2026-05-03T15:58:09.999Z</time></trkpt><trkpt lat="43.364062600415494" lon="12.555404324930448"><ele>494.0</ele><time>2026-05-03T15:58:10.999Z</time></trkpt><trkpt lat="43.364001865826374" lon="12.555240244230246"><ele>494.0</ele><time>2026-05-03T15:58:11.999Z</time></trkpt><trkpt lat="43.363936138637975" lon="12.555081324899751"><ele>494.0</ele><time>2026-05-03T15:58:12.999Z</time></trkpt><trkpt lat="43.363862927750425" lon="12.554941326326"><ele>491.5</ele><time>2026-05-03T15:58:13.999Z</time></trkpt><trkpt lat="43.36377421205327" lon="12.554816972998555"><ele>489.0</ele><time>2026-05-03T15:58:14.999Z</time></trkpt><trkpt lat="43.3636747502915" lon="12.55471299538251"><ele>486.5</ele><time>2026-05-03T15:58:15.999Z</time></trkpt><trkpt lat="43.36356683900568" lon="12.554624838440228"><ele>484.0</ele><time>2026-05-03T15:58:16.999Z</time></trkpt><trkpt lat="43.36345653255647" lon="12.5545440891747"><ele>483.5</ele><time>2026-05-03T15:58:17.999Z</time></trkpt><trkpt lat="43.363346978600205" lon="12.554464285330386"><ele>483.0</ele><time>2026-05-03T15:58:18.999Z</time></trkpt><trkpt lat="43.36323992387848" lon="12.554383091403487"><ele>482.5</ele><time>2026-05-03T15:58:19.999Z</time></trkpt><trkpt lat="43.36313265900798" lon="12.554300758812328"><ele>482.0</ele><time>2026-05-03T15:58:20.999Z</time></trkpt><trkpt lat="43.3630256943872" lon="12.554215995801071"><ele>481.6</ele><time>2026-05-03T15:58:21.999Z</time></trkpt><trkpt lat="43.36292475370327" lon="12.5541345546238"><ele>481.20000000000005</ele><time>2026-05-03T15:58:22.999Z</time></trkpt><trkpt lat="43.36282942771612" lon="12.55405855299998"><ele>480.8</ele><time>2026-05-03T15:58:23.999Z</time></trkpt><trkpt lat="43.362735926861255" lon="12.553990319656986"><ele>480.4</ele><time>2026-05-03T15:58:24.999Z</time></trkpt><trkpt lat="43.3626436398358" lon="12.55393026646826"><ele>480.0</ele><time>2026-05-03T15:58:25.999Z</time></trkpt><trkpt lat="43.3625532763203" lon="12.553872431872652"><ele>480.0</ele><time>2026-05-03T15:58:26.999Z</time></trkpt><trkpt lat="43.362467087477285" lon="12.553815877401684"><ele>480.0</ele><time>2026-05-03T15:58:27.999Z</time></trkpt><trkpt lat="43.36239676068675" lon="12.553756912665008"><ele>480.0</ele><time>2026-05-03T15:58:28.999Z</time></trkpt><trkpt lat="43.36233542704456" lon="12.55369513189312"><ele>480.0</ele><time>2026-05-03T15:58:29.999Z</time></trkpt><trkpt lat="43.36227301441129" lon="12.553627029704831"><ele>480.0</ele><time>2026-05-03T15:58:30.999Z</time></trkpt><trkpt lat="43.36220597632197" lon="12.553552781437467"><ele>480.0</ele><time>2026-05-03T15:58:31.999Z</time></trkpt><trkpt lat="43.3621494964518" lon="12.553461808227043"><ele>479.2</ele><time>2026-05-03T15:58:32.999Z</time></trkpt><trkpt lat="43.36210095679537" lon="12.553348306956135"><ele>478.4</ele><time>2026-05-03T15:58:33.999Z</time></trkpt><trkpt lat="43.362057676571" lon="12.553230428726536"><ele>477.6</ele><time>2026-05-03T15:58:34.999Z</time></trkpt><trkpt lat="43.36200619283967" lon="12.553113752755303"><ele>476.8</ele><time>2026-05-03T15:58:35.999Z</time></trkpt><trkpt lat="43.361941244061285" lon="12.553012789378904"><ele>476.0</ele><time>2026-05-03T15:58:36.999Z</time></trkpt><trkpt lat="43.361863162929836" lon="12.55293155419173"><ele>476.0</ele><time>2026-05-03T15:58:38Z</time></trkpt><trkpt lat="43.36177291968563" lon="12.552882628689368"><ele>476.0</ele><time>2026-05-03T15:58:39Z</time></trkpt><trkpt lat="43.361681960848045" lon="12.552863635664615"><ele>476.0</ele><time>2026-05-03T15:58:40Z</time></trkpt><trkpt lat="43.36158526171842" lon="12.552879738009143"><ele>476.0</ele><time>2026-05-03T15:58:41Z</time></trkpt><trkpt lat="43.36149094346952" lon="12.552915379650054"><ele>476.0</ele><time>2026-05-03T15:58:42Z</time></trkpt><trkpt lat="43.36139514620024" lon="12.552975009858919"><ele>475.6</ele><time>2026-05-03T15:58:43Z</time></trkpt><trkpt lat="43.36130252598599" lon="12.553019355014115"><ele>475.20000000000005</ele><time>2026-05-03T15:58:44Z</time></trkpt><trkpt lat="43.36120387483436" lon="12.553044952106118"><ele>474.79999999999995</ele><time>2026-05-03T15:58:45Z</time></trkpt><trkpt lat="43.36111053713038" lon="12.553025776770058"><ele>474.4</ele><time>2026-05-03T15:58:46Z</time></trkpt><trkpt lat="43.361007994173356" lon="12.552966471648352"><ele>474.0</ele><time>2026-05-03T15:58:47Z</time></trkpt><trkpt lat="43.36091293565836" lon="12.552883810821603"><ele>474.0</ele><time>2026-05-03T15:58:48Z</time></trkpt><trkpt lat="43.36081672492854" lon="12.552792092154982"><ele>474.0</ele><time>2026-05-03T15:58:49Z</time></trkpt><trkpt lat="43.36071652838992" lon="12.552701155156807"><ele>474.0</ele><time>2026-05-03T15:58:50Z</time></trkpt><trkpt lat="43.3606147178116" lon="12.552612477866173"><ele>474.0</ele><time>2026-05-03T15:58:51Z</time></trkpt><trkpt lat="43.36050567946294" lon="12.552521235385903"><ele>473.0</ele><time>2026-05-03T15:58:52Z</time></trkpt><trkpt lat="43.36039680398121" lon="12.552428840858589"><ele>472.0</ele><time>2026-05-03T15:58:53Z</time></trkpt><trkpt lat="43.36028710084682" lon="12.552338846396022"><ele>471.0</ele><time>2026-05-03T15:58:54Z</time></trkpt><trkpt lat="43.36017742225375" lon="12.552250241308121"><ele>470.0</ele><time>2026-05-03T15:58:55Z</time></trkpt><trkpt lat="43.36006292968242" lon="12.552161286783345"><ele>470.0</ele><time>2026-05-03T15:58:56Z</time></trkpt><trkpt lat="43.35994619581388" lon="12.552072481862384"><ele>470.0</ele><time>2026-05-03T15:58:57Z</time></trkpt><trkpt lat="43.359821641075996" lon="12.551983805569426"><ele>470.0</ele><time>2026-05-03T15:58:58Z</time></trkpt><trkpt lat="43.35970399212873" lon="12.551900487670354"><ele>470.0</ele><time>2026-05-03T15:58:59Z</time></trkpt><trkpt lat="43.35957724044499" lon="12.551824179610065"><ele>469.5</ele><time>2026-05-03T15:59:00Z</time></trkpt><trkpt lat="43.35944841902955" lon="12.551748931704164"><ele>469.0</ele><time>2026-05-03T15:59:01Z</time></trkpt><trkpt lat="43.359316062600286" lon="12.55167575538791"><ele>468.5</ele><time>2026-05-03T15:59:02Z</time></trkpt><trkpt lat="43.35918234912588" lon="12.551601473438751"><ele>468.0</ele><time>2026-05-03T15:59:03Z</time></trkpt><trkpt lat="43.35904819817099" lon="12.551533517406163"><ele>468.0</ele><time>2026-05-03T15:59:04Z</time></trkpt><trkpt lat="43.35890953838435" lon="12.551472876478028"><ele>468.0</ele><time>2026-05-03T15:59:05Z</time></trkpt><trkpt lat="43.35876402987347" lon="12.551419229423397"><ele>468.0</ele><time>2026-05-03T15:59:06Z</time></trkpt><trkpt lat="43.358619472632085" lon="12.551373611202207"><ele>468.0</ele><time>2026-05-03T15:59:07Z</time></trkpt><trkpt lat="43.3584719347379" lon="12.551336140361832"><ele>467.66666666666663</ele><time>2026-05-03T15:59:08Z</time></trkpt><trkpt lat="43.358320602137496" lon="12.551316066252376"><ele>467.3333333333333</ele><time>2026-05-03T15:59:09Z</time></trkpt><trkpt lat="43.358170931028276" lon="12.551292907162384"><ele>467.0</ele><time>2026-05-03T15:59:10Z</time></trkpt><trkpt lat="43.35802057193967" lon="12.551262492474589"><ele>466.66666666666663</ele><time>2026-05-03T15:59:11Z</time></trkpt><trkpt lat="43.357866175216635" lon="12.551236460520718"><ele>466.33333333333337</ele><time>2026-05-03T15:59:12Z</time></trkpt><trkpt lat="43.357712582594964" lon="12.551209101464067"><ele>466.0</ele><time>2026-05-03T15:59:13Z</time></trkpt><trkpt lat="43.35755608677678" lon="12.551181254448938"><ele>465.6666666666667</ele><time>2026-05-03T15:59:14Z</time></trkpt><trkpt lat="43.35739980321461" lon="12.551155259883803"><ele>465.33333333333337</ele><time>2026-05-03T15:59:15Z</time></trkpt><trkpt lat="43.35724446318837" lon="12.551128902132914"><ele>465.0</ele><time>2026-05-03T15:59:16Z</time></trkpt><trkpt lat="43.357083942412565" lon="12.551104172103383"><ele>464.66666666666663</ele><time>2026-05-03T15:59:17Z</time></trkpt><trkpt lat="43.3569307424396" lon="12.551081910293334"><ele>464.3333333333333</ele><time>2026-05-03T15:59:18Z</time></trkpt><trkpt lat="43.35677511526731" lon="12.55105659049073"><ele>464.0</ele><time>2026-05-03T15:59:19Z</time></trkpt><trkpt lat="43.35662269874159" lon="12.551041140115695"><ele>464.0</ele><time>2026-05-03T15:59:20Z</time></trkpt><trkpt lat="43.35647014575603" lon="12.551018872761668"><ele>464.0</ele><time>2026-05-03T15:59:21Z</time></trkpt><trkpt lat="43.356316256908" lon="12.550998482187474"><ele>464.0</ele><time>2026-05-03T15:59:22Z</time></trkpt><trkpt lat="43.356162794413265" lon="12.550975227391433"><ele>462.66666666666663</ele><time>2026-05-03T15:59:23Z</time></trkpt><trkpt lat="43.356009209398216" lon="12.550951378707307"><ele>461.33333333333337</ele><time>2026-05-03T15:59:24Z</time></trkpt><trkpt lat="43.35586129260069" lon="12.550924905954068"><ele>460.0</ele><time>2026-05-03T15:59:25Z</time></trkpt><trkpt lat="43.35571237657856" lon="12.550908856542835"><ele>460.0</ele><time>2026-05-03T15:59:26Z</time></trkpt><trkpt lat="43.355568700642536" lon="12.550884901624618"><ele>460.0</ele><time>2026-05-03T15:59:27Z</time></trkpt><trkpt lat="43.35542560838643" lon="12.5508641009972"><ele>460.0</ele><time>2026-05-03T15:59:28Z</time></trkpt><trkpt lat="43.355284648022206" lon="12.55084229129508"><ele>460.0</ele><time>2026-05-03T15:59:29Z</time></trkpt><trkpt lat="43.35514613120353" lon="12.550823008462862"><ele>459.5</ele><time>2026-05-03T15:59:30Z</time></trkpt><trkpt lat="43.35501176077616" lon="12.550802973310828"><ele>459.0</ele><time>2026-05-03T15:59:31Z</time></trkpt><trkpt lat="43.354879118743995" lon="12.550781959793937"><ele>458.5</ele><time>2026-05-03T15:59:32Z</time></trkpt><trkpt lat="43.35475347222836" lon="12.55075226381587"><ele>458.0</ele><time>2026-05-03T15:59:33Z</time></trkpt><trkpt lat="43.354636872959084" lon="12.550722209707617"><ele>458.0</ele><time>2026-05-03T15:59:33.999Z</time></trkpt><trkpt lat="43.354537952069386" lon="12.550655686524664"><ele>457.99999999999994</ele><time>2026-05-03T15:59:34.999Z</time></trkpt><trkpt lat="43.35445322982748" lon="12.55055871350837"><ele>457.99999999999994</ele><time>2026-05-03T15:59:35.999Z</time></trkpt><trkpt lat="43.354384793787865" lon="12.550443425602658"><ele>458.0</ele><time>2026-05-03T15:59:36.999Z</time></trkpt><trkpt lat="43.35434299722666" lon="12.550319411686056"><ele>458.0</ele><time>2026-05-03T15:59:37.999Z</time></trkpt><trkpt lat="43.354324721686844" lon="12.550184197921798"><ele>457.79999999999995</ele><time>2026-05-03T15:59:38.999Z</time></trkpt><trkpt lat="43.35432865225601" lon="12.550043303858507"><ele>457.59999999999997</ele><time>2026-05-03T15:59:39.999Z</time></trkpt><trkpt lat="43.35435501013012" lon="12.549905320099928"><ele>457.40000000000003</ele><time>2026-05-03T15:59:40.999Z</time></trkpt><trkpt lat="43.35439614387221" lon="12.549770914895555"><ele>457.20000000000005</ele><time>2026-05-03T15:59:41.999Z</time></trkpt><trkpt lat="43.354455387426704" lon="12.549663831990316"><ele>457.0</ele><time>2026-05-03T15:59:42.999Z</time></trkpt><trkpt lat="43.354534362666634" lon="12.549579511474075"><ele>457.0</ele><time>2026-05-03T15:59:43.999Z</time></trkpt><trkpt lat="43.35462425797468" lon="12.549514103599124"><ele>457.00000000000006</ele><time>2026-05-03T15:59:44.999Z</time></trkpt><trkpt lat="43.354718808984586" lon="12.549476243486067"><ele>457.00000000000006</ele><time>2026-05-03T15:59:45.999Z</time></trkpt><trkpt lat="43.354815749739046" lon="12.549469940350447"><ele>457.0</ele><time>2026-05-03T15:59:46.999Z</time></trkpt><trkpt lat="43.35491318783809" lon="12.549496736909898"><ele>457.0</ele><time>2026-05-03T15:59:47.999Z</time></trkpt><trkpt lat="43.355008403486394" lon="12.549548884499348"><ele>457.40000000000003</ele><time>2026-05-03T15:59:48.999Z</time></trkpt><trkpt lat="43.35509205535612" lon="12.549624135128138"><ele>457.80000000000007</ele><time>2026-05-03T15:59:49.999Z</time></trkpt><trkpt lat="43.355161408057334" lon="12.54971471498099"><ele>458.2</ele><time>2026-05-03T15:59:50.999Z</time></trkpt><trkpt lat="43.35521628208869" lon="12.549824552468468"><ele>458.6</ele><time>2026-05-03T15:59:51.999Z</time></trkpt><trkpt lat="43.35525129735105" lon="12.549944949097014"><ele>459.0</ele><time>2026-05-03T15:59:52.999Z</time></trkpt><trkpt lat="43.35526611793983" lon="12.550078144587907"><ele>459.0</ele><time>2026-05-03T15:59:53.999Z</time></trkpt><trkpt lat="43.35525930972532" lon="12.550217865115384"><ele>459.0</ele><time>2026-05-03T15:59:54.999Z</time></trkpt><trkpt lat="43.35523700999479" lon="12.550355862579098"><ele>459.0</ele><time>2026-05-03T15:59:55.999Z</time></trkpt><trkpt lat="43.35519799677535" lon="12.550488762089596"><ele>459.0</ele><time>2026-05-03T15:59:56.999Z</time></trkpt><trkpt lat="43.35514175020029" lon="12.550625713790922"><ele>459.0</ele><time>2026-05-03T15:59:57.999Z</time></trkpt><trkpt lat="43.3550774336098" lon="12.550765104795978"><ele>458.75</ele><time>2026-05-03T15:59:58.999Z</time></trkpt><trkpt lat="43.35501737202482" lon="12.550899785931083"><ele>458.5</ele><time>2026-05-03T15:59:59.999Z</time></trkpt><trkpt lat="43.35494859732801" lon="12.551047275030198"><ele>458.25</ele><time>2026-05-03T16:00:00.999Z</time></trkpt><trkpt lat="43.3548730055763" lon="12.55121154333462"><ele>458.0</ele><time>2026-05-03T16:00:01.999Z</time></trkpt><trkpt lat="43.35479049269478" lon="12.55137892305792"><ele>458.3333333333333</ele><time>2026-05-03T16:00:02.999Z</time></trkpt><trkpt lat="43.35471069416482" lon="12.551540373782844"><ele>458.66666666666663</ele><time>2026-05-03T16:00:03.999Z</time></trkpt><trkpt lat="43.354626296318735" lon="12.551704771584241"><ele>459.0</ele><time>2026-05-03T16:00:04.999Z</time></trkpt><trkpt lat="43.3545391915279" lon="12.55190800731109"><ele>459.33333333333337</ele><time>2026-05-03T16:00:05.999Z</time></trkpt><trkpt lat="43.35443418472677" lon="12.552102592132249"><ele>459.6666666666667</ele><time>2026-05-03T16:00:06.999Z</time></trkpt><trkpt lat="43.35432158603347" lon="12.552306917496592"><ele>460.0</ele><time>2026-05-03T16:00:07.999Z</time></trkpt><trkpt lat="43.354210325931824" lon="12.552498993230277"><ele>460.0</ele><time>2026-05-03T16:00:08.999Z</time></trkpt><trkpt lat="43.35410305445601" lon="12.552693868690923"><ele>460.0</ele><time>2026-05-03T16:00:09.999Z</time></trkpt><trkpt lat="43.35398662843421" lon="12.552922229281062"><ele>460.0</ele><time>2026-05-03T16:00:10.999Z</time></trkpt><trkpt lat="43.35386334378129" lon="12.553152072365982"><ele>459.33333333333337</ele><time>2026-05-03T16:00:11.999Z</time></trkpt><trkpt lat="43.353740806935136" lon="12.553380676301844"><ele>458.66666666666663</ele><time>2026-05-03T16:00:12.999Z</time></trkpt><trkpt lat="43.353610394466386" lon="12.553605525790658"><ele>458.0</ele><time>2026-05-03T16:00:13.999Z</time></trkpt><trkpt lat="43.353480297772215" lon="12.553829840259239"><ele>458.0</ele><time>2026-05-03T16:00:14.999Z</time></trkpt><trkpt lat="43.3533570597516" lon="12.554057335728183"><ele>458.0</ele><time>2026-05-03T16:00:15.999Z</time></trkpt><trkpt lat="43.35323031190341" lon="12.55429051408304"><ele>458.0</ele><time>2026-05-03T16:00:16.999Z</time></trkpt><trkpt lat="43.35310284819098" lon="12.554520865739892"><ele>458.3333333333333</ele><time>2026-05-03T16:00:17.999Z</time></trkpt><trkpt lat="43.3529763441042" lon="12.554751223040721"><ele>458.66666666666663</ele><time>2026-05-03T16:00:18.999Z</time></trkpt><trkpt lat="43.35285028161089" lon="12.554983468405325"><ele>459.0</ele><time>2026-05-03T16:00:19.999Z</time></trkpt><trkpt lat="43.35272400799759" lon="12.555221094307653"><ele>459.33333333333337</ele><time>2026-05-03T16:00:20.999Z</time></trkpt><trkpt lat="43.35259483910558" lon="12.555454585370967"><ele>459.6666666666667</ele><time>2026-05-03T16:00:21.999Z</time></trkpt><trkpt lat="43.3524648319947" lon="12.55568687972583"><ele>460.0</ele><time>2026-05-03T16:00:22.999Z</time></trkpt><trkpt lat="43.3523387149581" lon="12.5559195557085"><ele>460.0</ele><time>2026-05-03T16:00:23.999Z</time></trkpt><trkpt lat="43.35221546969169" lon="12.556150250040847"><ele>460.0</ele><time>2026-05-03T16:00:24.999Z</time></trkpt><trkpt lat="43.35208868842022" lon="12.556377015679086"><ele>460.0</ele><time>2026-05-03T16:00:25.999Z</time></trkpt><trkpt lat="43.35195612624827" lon="12.556607282443176"><ele>459.33333333333337</ele><time>2026-05-03T16:00:26.999Z</time></trkpt><trkpt lat="43.35183048807279" lon="12.556831566613107"><ele>458.66666666666663</ele><time>2026-05-03T16:00:27.999Z</time></trkpt><trkpt lat="43.351697500662446" lon="12.557054861232627"><ele>458.0</ele><time>2026-05-03T16:00:28.999Z</time></trkpt><trkpt lat="43.35156266407714" lon="12.557278055014324"><ele>458.0</ele><time>2026-05-03T16:00:29.999Z</time></trkpt><trkpt lat="43.35142558078604" lon="12.557502055078519"><ele>458.0</ele><time>2026-05-03T16:00:30.999Z</time></trkpt><trkpt lat="43.3512894944219" lon="12.557723718324286"><ele>458.0</ele><time>2026-05-03T16:00:31.999Z</time></trkpt><trkpt lat="43.35114825592443" lon="12.557943898774166"><ele>459.3333333333333</ele><time>2026-05-03T16:00:32.999Z</time></trkpt><trkpt lat="43.35100760155887" lon="12.55816195182709"><ele>460.66666666666663</ele><time>2026-05-03T16:00:33.999Z</time></trkpt><trkpt lat="43.350866164115395" lon="12.558376819628561"><ele>462.0</ele><time>2026-05-03T16:00:34.999Z</time></trkpt><trkpt lat="43.35072512564678" lon="12.5585900319694"><ele>462.33333333333337</ele><time>2026-05-03T16:00:35.999Z</time></trkpt><trkpt lat="43.35057778971437" lon="12.55880461548689"><ele>462.6666666666667</ele><time>2026-05-03T16:00:36.999Z</time></trkpt><trkpt lat="43.35042957833252" lon="12.559011103272677"><ele>463.0</ele><time>2026-05-03T16:00:37.999Z</time></trkpt><trkpt lat="43.35027577621391" lon="12.559216641244843"><ele>463.0</ele><time>2026-05-03T16:00:38.999Z</time></trkpt><trkpt lat="43.35012273190741" lon="12.559415544102457"><ele>463.0</ele><time>2026-05-03T16:00:39.999Z</time></trkpt><trkpt lat="43.349968021282024" lon="12.559612820045794"><ele>463.0</ele><time>2026-05-03T16:00:40.999Z</time></trkpt><trkpt lat="43.34981306514572" lon="12.559809107246501"><ele>462.6666666666667</ele><time>2026-05-03T16:00:41.999Z</time></trkpt><trkpt lat="43.349656818775514" lon="12.56000228429078"><ele>462.33333333333337</ele><time>2026-05-03T16:00:43Z</time></trkpt><trkpt lat="43.34949640097593" lon="12.560193816581707"><ele>462.0</ele><time>2026-05-03T16:00:44Z</time></trkpt><trkpt lat="43.34933397262175" lon="12.560381467958736"><ele>462.0</ele><time>2026-05-03T16:00:45Z</time></trkpt><trkpt lat="43.349169095941576" lon="12.560568973001319"><ele>462.0</ele><time>2026-05-03T16:00:46Z</time></trkpt><trkpt lat="43.34900278357142" lon="12.560753050603003"><ele>462.0</ele><time>2026-05-03T16:00:47Z</time></trkpt><trkpt lat="43.34883695521588" lon="12.560932616273533"><ele>462.33333333333337</ele><time>2026-05-03T16:00:48Z</time></trkpt><trkpt lat="43.34866926119705" lon="12.561112644176854"><ele>462.6666666666667</ele><time>2026-05-03T16:00:49Z</time></trkpt><trkpt lat="43.34850264699659" lon="12.561292769085455"><ele>463.0</ele><time>2026-05-03T16:00:50Z</time></trkpt><trkpt lat="43.34833507744618" lon="12.561471056649257"><ele>463.33333333333337</ele><time>2026-05-03T16:00:51Z</time></trkpt><trkpt lat="43.3481656934274" lon="12.561651306444316"><ele>463.66666666666663</ele><time>2026-05-03T16:00:52Z</time></trkpt><trkpt lat="43.34800166455827" lon="12.561825502070946"><ele>464.0</ele><time>2026-05-03T16:00:53Z</time></trkpt><trkpt lat="43.34783381910187" lon="12.562004774510672"><ele>464.3333333333333</ele><time>2026-05-03T16:00:54Z</time></trkpt><trkpt lat="43.347664240983036" lon="12.562187325761816"><ele>464.66666666666663</ele><time>2026-05-03T16:00:55Z</time></trkpt><trkpt lat="43.347498254892145" lon="12.56236658380465"><ele>465.0</ele><time>2026-05-03T16:00:56Z</time></trkpt><trkpt lat="43.34733228709907" lon="12.56254597791516"><ele>465.0</ele><time>2026-05-03T16:00:57Z</time></trkpt><trkpt lat="43.34716683799256" lon="12.562722205875207"><ele>465.0</ele><time>2026-05-03T16:00:58Z</time></trkpt><trkpt lat="43.34699809182294" lon="12.562900302872839"><ele>465.0</ele><time>2026-05-03T16:00:59Z</time></trkpt><trkpt lat="43.34682883583721" lon="12.563079209065675"><ele>465.0</ele><time>2026-05-03T16:01:00Z</time></trkpt><trkpt lat="43.34666304197477" lon="12.563256496840896"><ele>465.0</ele><time>2026-05-03T16:01:01Z</time></trkpt><trkpt lat="43.34649666999043" lon="12.563433497102077"><ele>465.0</ele><time>2026-05-03T16:01:02Z</time></trkpt><trkpt lat="43.346330413056286" lon="12.563612753110982"><ele>464.66666666666663</ele><time>2026-05-03T16:01:03Z</time></trkpt><trkpt lat="43.346165236380415" lon="12.563791349939596"><ele>464.3333333333333</ele><time>2026-05-03T16:01:04Z</time></trkpt><trkpt lat="43.34599934821596" lon="12.56397079745967"><ele>464.0</ele><time>2026-05-03T16:01:05Z</time></trkpt><trkpt lat="43.34583215964655" lon="12.564148771099537"><ele>464.0</ele><time>2026-05-03T16:01:06Z</time></trkpt><trkpt lat="43.34566507657239" lon="12.564327808421321"><ele>464.0</ele><time>2026-05-03T16:01:07Z</time></trkpt><trkpt lat="43.345497305569175" lon="12.564505879427836"><ele>464.0</ele><time>2026-05-03T16:01:08Z</time></trkpt><trkpt lat="43.34532756048803" lon="12.56468074152758"><ele>464.0</ele><time>2026-05-03T16:01:09Z</time></trkpt><trkpt lat="43.34515569718142" lon="12.564857788498543"><ele>464.0</ele><time>2026-05-03T16:01:10Z</time></trkpt><trkpt lat="43.34498661032329" lon="12.56503310730818"><ele>464.0</ele><time>2026-05-03T16:01:11Z</time></trkpt><trkpt lat="43.34482014186672" lon="12.565208460015695"><ele>464.3333333333333</ele><time>2026-05-03T16:01:12Z</time></trkpt><trkpt lat="43.344760619944466" lon="12.56550796984956"><ele>464.66666666666663</ele><time>2026-05-03T16:01:13Z</time></trkpt><trkpt lat="43.3446315662345" lon="12.565720212252343"><ele>465.0</ele><time>2026-05-03T16:01:14Z</time></trkpt><trkpt lat="43.34429657329959" lon="12.565730674521085"><ele>464.0</ele><time>2026-05-03T16:01:15Z</time></trkpt><trkpt lat="43.34414685646503" lon="12.565908083374667"><ele>463.0</ele><time>2026-05-03T16:01:16Z</time></trkpt><trkpt lat="43.34397968143773" lon="12.566100806832825"><ele>462.0</ele><time>2026-05-03T16:01:17Z</time></trkpt><trkpt lat="43.34381873270619" lon="12.56628775320798"><ele>461.66666666666663</ele><time>2026-05-03T16:01:18Z</time></trkpt><trkpt lat="43.343660664247444" lon="12.566478734948328"><ele>461.3333333333333</ele><time>2026-05-03T16:01:19Z</time></trkpt><trkpt lat="43.343499345519476" lon="12.566674406955352"><ele>461.0</ele><time>2026-05-03T16:01:20Z</time></trkpt><trkpt lat="43.34334546639853" lon="12.566873018411327"><ele>461.0</ele><time>2026-05-03T16:01:21Z</time></trkpt><trkpt lat="43.34319002667754" lon="12.567073677955095"><ele>461.0</ele><time>2026-05-03T16:01:22Z</time></trkpt><trkpt lat="43.34303599285612" lon="12.56727544844576"><ele>461.0</ele><time>2026-05-03T16:01:23Z</time></trkpt><trkpt lat="43.3428891556732" lon="12.567479131083005"><ele>461.0</ele><time>2026-05-03T16:01:24Z</time></trkpt><trkpt lat="43.3427408499501" lon="12.56768712402884"><ele>461.0</ele><time>2026-05-03T16:01:25Z</time></trkpt><trkpt lat="43.34259566166045" lon="12.567899128385035"><ele>461.0</ele><time>2026-05-03T16:01:26Z</time></trkpt><trkpt lat="43.3424522531289" lon="12.568115626055555"><ele>460.66666666666663</ele><time>2026-05-03T16:01:27Z</time></trkpt><trkpt lat="43.34231460813018" lon="12.568338045506897"><ele>460.33333333333337</ele><time>2026-05-03T16:01:28Z</time></trkpt><trkpt lat="43.342181613578646" lon="12.568559458402342"><ele>460.0</ele><time>2026-05-03T16:01:29Z</time></trkpt><trkpt lat="43.34204426439511" lon="12.568785445386812"><ele>459.6666666666667</ele><time>2026-05-03T16:01:30Z</time></trkpt><trkpt lat="43.341912184521796" lon="12.569012589492147"><ele>459.33333333333337</ele><time>2026-05-03T16:01:31Z</time></trkpt><trkpt lat="43.34178629979714" lon="12.569244120060887"><ele>459.0</ele><time>2026-05-03T16:01:32Z</time></trkpt><trkpt lat="43.34166335396918" lon="12.569478690543889"><ele>458.0</ele><time>2026-05-03T16:01:33Z</time></trkpt><trkpt lat="43.3415398463241" lon="12.569715890336457"><ele>457.0</ele><time>2026-05-03T16:01:34Z</time></trkpt><trkpt lat="43.34142163407172" lon="12.56995548538531"><ele>456.0</ele><time>2026-05-03T16:01:35Z</time></trkpt><trkpt lat="43.34130094653872" lon="12.570194790855421"><ele>457.0</ele><time>2026-05-03T16:01:36Z</time></trkpt><trkpt lat="43.34118594808405" lon="12.57043748056142"><ele>458.0</ele><time>2026-05-03T16:01:37Z</time></trkpt><trkpt lat="43.34107174747005" lon="12.570683247579003"><ele>459.0</ele><time>2026-05-03T16:01:38Z</time></trkpt><trkpt lat="43.34096006951338" lon="12.570929752628988"><ele>459.0</ele><time>2026-05-03T16:01:38.999Z</time></trkpt><trkpt lat="43.340852744231796" lon="12.571180175322107"><ele>459.0</ele><time>2026-05-03T16:01:39.999Z</time></trkpt><trkpt lat="43.34074805840691" lon="12.57143370479672"><ele>459.0</ele><time>2026-05-03T16:01:40.999Z</time></trkpt><trkpt lat="43.34065061081053" lon="12.5716913810644"><ele>459.33333333333337</ele><time>2026-05-03T16:01:41.999Z</time></trkpt><trkpt lat="43.34055492821115" lon="12.571949176629959"><ele>459.6666666666667</ele><time>2026-05-03T16:01:42.999Z</time></trkpt><trkpt lat="43.34046171788775" lon="12.572209114710146"><ele>460.0</ele><time>2026-05-03T16:01:43.999Z</time></trkpt><trkpt lat="43.3403732720849" lon="12.572472019017981"><ele>460.0</ele><time>2026-05-03T16:01:44.999Z</time></trkpt><trkpt lat="43.34028641535982" lon="12.572735989625844"><ele>460.0</ele><time>2026-05-03T16:01:45.999Z</time></trkpt><trkpt lat="43.3402013383136" lon="12.573001884059837"><ele>460.0</ele><time>2026-05-03T16:01:46.999Z</time></trkpt><trkpt lat="43.340117533198445" lon="12.573268322363111"><ele>460.0</ele><time>2026-05-03T16:01:47.999Z</time></trkpt><trkpt lat="43.34003493747219" lon="12.573537064307343"><ele>460.0</ele><time>2026-05-03T16:01:48.999Z</time></trkpt><trkpt lat="43.33995686647737" lon="12.573805516866623"><ele>460.0</ele><time>2026-05-03T16:01:49.999Z</time></trkpt><trkpt lat="43.339883648917" lon="12.574077193176853"><ele>460.0</ele><time>2026-05-03T16:01:50.999Z</time></trkpt><trkpt lat="43.3398099917908" lon="12.574349189774441"><ele>460.0</ele><time>2026-05-03T16:01:51.999Z</time></trkpt><trkpt lat="43.33973729927046" lon="12.574624266166277"><ele>460.0</ele><time>2026-05-03T16:01:52.999Z</time></trkpt><trkpt lat="43.33966331392327" lon="12.574901385278784"><ele>459.33333333333337</ele><time>2026-05-03T16:01:53.999Z</time></trkpt><trkpt lat="43.33959758269525" lon="12.57517749839783"><ele>458.66666666666663</ele><time>2026-05-03T16:01:54.999Z</time></trkpt><trkpt lat="43.339535976743086" lon="12.575455713491385"><ele>458.0</ele><time>2026-05-03T16:01:55.999Z</time></trkpt><trkpt lat="43.33948052024537" lon="12.575735680688023"><ele>457.66666666666663</ele><time>2026-05-03T16:01:56.999Z</time></trkpt><trkpt lat="43.33942674034812" lon="12.576013055168055"><ele>457.33333333333337</ele><time>2026-05-03T16:01:57.999Z</time></trkpt><trkpt lat="43.33937150635206" lon="12.57629854108362"><ele>457.0</ele><time>2026-05-03T16:01:58.999Z</time></trkpt><trkpt lat="43.33932069477451" lon="12.576577262406055"><ele>457.0</ele><time>2026-05-03T16:01:59.999Z</time></trkpt><trkpt lat="43.33927439700945" lon="12.576860108877293"><ele>457.0</ele><time>2026-05-03T16:02:00.999Z</time></trkpt><trkpt lat="43.33923240185195" lon="12.577145962678955"><ele>457.0</ele><time>2026-05-03T16:02:01.999Z</time></trkpt><trkpt lat="43.33919718923086" lon="12.577428846730033"><ele>458.0</ele><time>2026-05-03T16:02:02.999Z</time></trkpt><trkpt lat="43.33916394294069" lon="12.577714417496068"><ele>459.0</ele><time>2026-05-03T16:02:03.999Z</time></trkpt><trkpt lat="43.33913237515335" lon="12.578003610534534"><ele>460.0</ele><time>2026-05-03T16:02:04.999Z</time></trkpt><trkpt lat="43.339105415789774" lon="12.578291375304133"><ele>460.0</ele><time>2026-05-03T16:02:05.999Z</time></trkpt><trkpt lat="43.339079667183206" lon="12.57858019907097"><ele>460.0</ele><time>2026-05-03T16:02:06.999Z</time></trkpt><trkpt lat="43.33905415555772" lon="12.578867582545657"><ele>460.0</ele><time>2026-05-03T16:02:07.999Z</time></trkpt><trkpt lat="43.339024298019616" lon="12.579157864688376"><ele>459.33333333333337</ele><time>2026-05-03T16:02:08.999Z</time></trkpt><trkpt lat="43.33899252997568" lon="12.579446365482783"><ele>458.66666666666663</ele><time>2026-05-03T16:02:09.999Z</time></trkpt><trkpt lat="43.33896372754693" lon="12.57973199521255"><ele>458.0</ele><time>2026-05-03T16:02:10.999Z</time></trkpt><trkpt lat="43.33893423377686" lon="12.580019000680085"><ele>458.0</ele><time>2026-05-03T16:02:11.999Z</time></trkpt><trkpt lat="43.338907106793734" lon="12.580303860196938"><ele>458.0</ele><time>2026-05-03T16:02:12.999Z</time></trkpt><trkpt lat="43.33888091592812" lon="12.580590776502058"><ele>458.0</ele><time>2026-05-03T16:02:13.999Z</time></trkpt><trkpt lat="43.33885471654551" lon="12.580877508933659"><ele>457.66666666666663</ele><time>2026-05-03T16:02:14.999Z</time></trkpt><trkpt lat="43.338826194576136" lon="12.581165836563796"><ele>457.33333333333337</ele><time>2026-05-03T16:02:15.999Z</time></trkpt><trkpt lat="43.33879762651973" lon="12.581455274274317"><ele>457.0</ele><time>2026-05-03T16:02:16.999Z</time></trkpt><trkpt lat="43.33877026129885" lon="12.581754506044085"><ele>457.33333333333337</ele><time>2026-05-03T16:02:17.999Z</time></trkpt><trkpt lat="43.33874634873063" lon="12.582050706437155"><ele>457.66666666666663</ele><time>2026-05-03T16:02:18.999Z</time></trkpt><trkpt lat="43.33871882289595" lon="12.582349733645286"><ele>458.0</ele><time>2026-05-03T16:02:19.999Z</time></trkpt><trkpt lat="43.33868891703024" lon="12.582648514281159"><ele>458.66666666666663</ele><time>2026-05-03T16:02:20.999Z</time></trkpt><trkpt lat="43.33865710448933" lon="12.58294723568731"><ele>459.33333333333337</ele><time>2026-05-03T16:02:21.999Z</time></trkpt><trkpt lat="43.3386268329156" lon="12.583243042370453"><ele>460.0</ele><time>2026-05-03T16:02:22.999Z</time></trkpt><trkpt lat="43.33859822728229" lon="12.583537094972925"><ele>462.0</ele><time>2026-05-03T16:02:23.999Z</time></trkpt><trkpt lat="43.33857058547242" lon="12.583831655819143"><ele>464.0</ele><time>2026-05-03T16:02:24.999Z</time></trkpt><trkpt lat="43.338542275066104" lon="12.584115775969032"><ele>466.0</ele><time>2026-05-03T16:02:25.999Z</time></trkpt><trkpt lat="43.338506312048764" lon="12.58439798580268"><ele>467.0</ele><time>2026-05-03T16:02:26.999Z</time></trkpt><trkpt lat="43.33846219534818" lon="12.584670352211669"><ele>468.0</ele><time>2026-05-03T16:02:27.999Z</time></trkpt><trkpt lat="43.338412150534566" lon="12.584942471816749"><ele>469.0</ele><time>2026-05-03T16:02:28.999Z</time></trkpt><trkpt lat="43.338344794697434" lon="12.585206197379778"><ele>468.6666666666667</ele><time>2026-05-03T16:02:29.999Z</time></trkpt><trkpt lat="43.33827018508241" lon="12.58546468843097"><ele>468.33333333333337</ele><time>2026-05-03T16:02:30.999Z</time></trkpt><trkpt lat="43.33818873234229" lon="12.58572233353418"><ele>468.0</ele><time>2026-05-03T16:02:31.999Z</time></trkpt><trkpt lat="43.338097087322815" lon="12.585976092094294"><ele>467.0</ele><time>2026-05-03T16:02:32.999Z</time></trkpt><trkpt lat="43.33799817177042" lon="12.586222279450283"><ele>466.0</ele><time>2026-05-03T16:02:33.999Z</time></trkpt><trkpt lat="43.33789219546103" lon="12.586461291947618"><ele>465.0</ele><time>2026-05-03T16:02:34.999Z</time></trkpt><trkpt lat="43.33777283217945" lon="12.586706714173516"><ele>465.0</ele><time>2026-05-03T16:02:35.999Z</time></trkpt><trkpt lat="43.33764938302138" lon="12.586944726359647"><ele>465.0</ele><time>2026-05-03T16:02:36.999Z</time></trkpt><trkpt lat="43.337515503704935" lon="12.587163508776435"><ele>465.0</ele><time>2026-05-03T16:02:37.999Z</time></trkpt><trkpt lat="43.33737129398872" lon="12.58735996833219"><ele>465.0</ele><time>2026-05-03T16:02:38.999Z</time></trkpt><trkpt lat="43.33722690436129" lon="12.587558009536211"><ele>465.0</ele><time>2026-05-03T16:02:39.999Z</time></trkpt><trkpt lat="43.33707616105998" lon="12.587747843368307"><ele>465.0</ele><time>2026-05-03T16:02:40.999Z</time></trkpt><trkpt lat="43.33690583117502" lon="12.587942596227744"><ele>465.0</ele><time>2026-05-03T16:02:41.999Z</time></trkpt><trkpt lat="43.33671971975395" lon="12.588150334153406"><ele>465.0</ele><time>2026-05-03T16:02:42.999Z</time></trkpt><trkpt lat="43.33652111864326" lon="12.588374149507993"><ele>464.5</ele><time>2026-05-03T16:02:43.999Z</time></trkpt><trkpt lat="43.33631335404751" lon="12.588607676840699"><ele>464.0</ele><time>2026-05-03T16:02:44.999Z</time></trkpt><trkpt lat="43.33610536296086" lon="12.588840866530436"><ele>464.0</ele><time>2026-05-03T16:02:45.999Z</time></trkpt><trkpt lat="43.33589949199075" lon="12.589073271722732"><ele>464.0</ele><time>2026-05-03T16:02:46.999Z</time></trkpt><trkpt lat="43.33570083812448" lon="12.589316501028032"><ele>462.5</ele><time>2026-05-03T16:02:47.999Z</time></trkpt><trkpt lat="43.33548903200315" lon="12.58954759798924"><ele>461.0</ele><time>2026-05-03T16:02:49Z</time></trkpt><trkpt lat="43.33528312391505" lon="12.589796040960154"><ele>461.0</ele><time>2026-05-03T16:02:50Z</time></trkpt><trkpt lat="43.33505289287232" lon="12.590026377271277"><ele>461.0</ele><time>2026-05-03T16:02:51Z</time></trkpt><trkpt lat="43.334824367121904" lon="12.590279638244171"><ele>461.0</ele><time>2026-05-03T16:02:52Z</time></trkpt><trkpt lat="43.33459107927869" lon="12.590542372620025"><ele>461.0</ele><time>2026-05-03T16:02:53Z</time></trkpt><trkpt lat="43.33435378071691" lon="12.590809510250116"><ele>461.0</ele><time>2026-05-03T16:02:54Z</time></trkpt><trkpt lat="43.3341275949657" lon="12.591080427664316"><ele>461.0</ele><time>2026-05-03T16:02:55Z</time></trkpt><trkpt lat="43.333899318615835" lon="12.591321689748899"><ele>461.0</ele><time>2026-05-03T16:02:56Z</time></trkpt><trkpt lat="43.333682601121176" lon="12.59155196460702"><ele>461.0</ele><time>2026-05-03T16:02:57Z</time></trkpt><trkpt lat="43.3334653580057" lon="12.591791524965037"><ele>461.0</ele><time>2026-05-03T16:02:58Z</time></trkpt><trkpt lat="43.33324711839576" lon="12.5920372767775"><ele>461.0</ele><time>2026-05-03T16:02:59Z</time></trkpt><trkpt lat="43.33303302585951" lon="12.592281309166976"><ele>459.5</ele><time>2026-05-03T16:03:00Z</time></trkpt><trkpt lat="43.33282126374445" lon="12.592533950623963"><ele>458.0</ele><time>2026-05-03T16:03:01Z</time></trkpt><trkpt lat="43.33261113610807" lon="12.592772865952702"><ele>457.5</ele><time>2026-05-03T16:03:02Z</time></trkpt><trkpt lat="43.332401162841215" lon="12.593003810705923"><ele>457.0</ele><time>2026-05-03T16:03:03Z</time></trkpt><trkpt lat="43.33219096529121" lon="12.593238122536691"><ele>455.0</ele><time>2026-05-03T16:03:04Z</time></trkpt><trkpt lat="43.331983683963955" lon="12.593466344987624"><ele>453.0</ele><time>2026-05-03T16:03:05Z</time></trkpt><trkpt lat="43.33177795614708" lon="12.593697813763303"><ele>453.0</ele><time>2026-05-03T16:03:06Z</time></trkpt><trkpt lat="43.33156753461929" lon="12.593928468944565"><ele>453.0</ele><time>2026-05-03T16:03:07Z</time></trkpt><trkpt lat="43.33135935688214" lon="12.594165786099609"><ele>451.0</ele><time>2026-05-03T16:03:08Z</time></trkpt><trkpt lat="43.3311520832078" lon="12.594400608094224"><ele>449.0</ele><time>2026-05-03T16:03:09Z</time></trkpt><trkpt lat="43.33094419214072" lon="12.594630437031968"><ele>449.0</ele><time>2026-05-03T16:03:10Z</time></trkpt><trkpt lat="43.330739968614616" lon="12.594857051502524"><ele>449.0</ele><time>2026-05-03T16:03:11Z</time></trkpt><trkpt lat="43.330537965184476" lon="12.595086335750048"><ele>448.5</ele><time>2026-05-03T16:03:12Z</time></trkpt><trkpt lat="43.33032736041499" lon="12.595333089109648"><ele>448.0</ele><time>2026-05-03T16:03:13Z</time></trkpt><trkpt lat="43.33011419039483" lon="12.595572863016422"><ele>448.0</ele><time>2026-05-03T16:03:14Z</time></trkpt><trkpt lat="43.32990947822935" lon="12.595807121377383"><ele>448.0</ele><time>2026-05-03T16:03:15Z</time></trkpt><trkpt lat="43.32970547384407" lon="12.596038908587122"><ele>447.0</ele><time>2026-05-03T16:03:16Z</time></trkpt><trkpt lat="43.329497642343696" lon="12.596274102561086"><ele>446.0</ele><time>2026-05-03T16:03:17Z</time></trkpt><trkpt lat="43.32928714224079" lon="12.59650524395556"><ele>446.0</ele><time>2026-05-03T16:03:18Z</time></trkpt><trkpt lat="43.32907812648681" lon="12.596742433955962"><ele>446.0</ele><time>2026-05-03T16:03:19Z</time></trkpt><trkpt lat="43.328876622294906" lon="12.596970508420805"><ele>444.5</ele><time>2026-05-03T16:03:20Z</time></trkpt><trkpt lat="43.32868079260627" lon="12.597192904827669"><ele>443.0</ele><time>2026-05-03T16:03:21Z</time></trkpt><trkpt lat="43.328484595338054" lon="12.597425271356734"><ele>443.0</ele><time>2026-05-03T16:03:22Z</time></trkpt><trkpt lat="43.328290971279515" lon="12.597663086352592"><ele>443.0</ele><time>2026-05-03T16:03:23Z</time></trkpt><trkpt lat="43.32809217416333" lon="12.597914811464651"><ele>443.0</ele><time>2026-05-03T16:03:24Z</time></trkpt><trkpt lat="43.327889910804316" lon="12.598184030862763"><ele>443.0</ele><time>2026-05-03T16:03:25Z</time></trkpt><trkpt lat="43.32766679090068" lon="12.598443333372838"><ele>442.0</ele><time>2026-05-03T16:03:26Z</time></trkpt><trkpt lat="43.32744232031715" lon="12.598730014365856"><ele>441.0</ele><time>2026-05-03T16:03:27Z</time></trkpt><trkpt lat="43.32724328208298" lon="12.599051322635763"><ele>440.5</ele><time>2026-05-03T16:03:28Z</time></trkpt><trkpt lat="43.327020604103325" lon="12.59936090811054"><ele>440.0</ele><time>2026-05-03T16:03:29Z</time></trkpt><trkpt lat="43.32680469559684" lon="12.599674697599621"><ele>440.0</ele><time>2026-05-03T16:03:30Z</time></trkpt><trkpt lat="43.32659910591512" lon="12.59998371372059"><ele>440.0</ele><time>2026-05-03T16:03:31Z</time></trkpt><trkpt lat="43.326398862125835" lon="12.600293186896197"><ele>439.5</ele><time>2026-05-03T16:03:32Z</time></trkpt><trkpt lat="43.326204545637694" lon="12.60059073008709"><ele>439.0</ele><time>2026-05-03T16:03:33Z</time></trkpt><trkpt lat="43.32601440476546" lon="12.600882381303794"><ele>439.5</ele><time>2026-05-03T16:03:34Z</time></trkpt><trkpt lat="43.32583166860379" lon="12.601167004944418"><ele>440.0</ele><time>2026-05-03T16:03:35Z</time></trkpt><trkpt lat="43.32564037052491" lon="12.601465429004655"><ele>438.0</ele><time>2026-05-03T16:03:36Z</time></trkpt><trkpt lat="43.32545134978276" lon="12.601758219378228"><ele>436.0</ele><time>2026-05-03T16:03:37Z</time></trkpt><trkpt lat="43.32525265767514" lon="12.602063849576348"><ele>435.5</ele><time>2026-05-03T16:03:38Z</time></trkpt><trkpt lat="43.32504740173571" lon="12.6023806581326"><ele>435.0</ele><time>2026-05-03T16:03:39Z</time></trkpt><trkpt lat="43.32484233741515" lon="12.602707155915219"><ele>433.0</ele><time>2026-05-03T16:03:40Z</time></trkpt><trkpt lat="43.324637917419096" lon="12.603029693772484"><ele>431.0</ele><time>2026-05-03T16:03:41Z</time></trkpt><trkpt lat="43.32442001272584" lon="12.603365318296918"><ele>431.5</ele><time>2026-05-03T16:03:42Z</time></trkpt><trkpt lat="43.32419760848529" lon="12.603694951890716"><ele>432.0</ele><time>2026-05-03T16:03:42.999Z</time></trkpt><trkpt lat="43.32397472095623" lon="12.604014568079856"><ele>431.0</ele><time>2026-05-03T16:03:43.999Z</time></trkpt><trkpt lat="43.32375814867048" lon="12.604330345255612"><ele>430.0</ele><time>2026-05-03T16:03:44.999Z</time></trkpt><trkpt lat="43.323546353596015" lon="12.604645687458522"><ele>429.5</ele><time>2026-05-03T16:03:45.999Z</time></trkpt><trkpt lat="43.32333826714944" lon="12.604953827189672"><ele>429.0</ele><time>2026-05-03T16:03:46.999Z</time></trkpt><trkpt lat="43.32313399711099" lon="12.605263090518966"><ele>429.0</ele><time>2026-05-03T16:03:47.999Z</time></trkpt><trkpt lat="43.32293074497459" lon="12.605567120361725"><ele>429.0</ele><time>2026-05-03T16:03:48.999Z</time></trkpt><trkpt lat="43.32272559522429" lon="12.605862692607227"><ele>429.0</ele><time>2026-05-03T16:03:49.999Z</time></trkpt><trkpt lat="43.32252228829228" lon="12.606144907348787"><ele>429.0</ele><time>2026-05-03T16:03:50.999Z</time></trkpt><trkpt lat="43.32231871759916" lon="12.606413182680495"><ele>427.0</ele><time>2026-05-03T16:03:51.999Z</time></trkpt><trkpt lat="43.32211841195315" lon="12.606664873484862"><ele>425.0</ele><time>2026-05-03T16:03:52.999Z</time></trkpt><trkpt lat="43.32191754982667" lon="12.60690644144919"><ele>425.5</ele><time>2026-05-03T16:03:53.999Z</time></trkpt><trkpt lat="43.32171599388125" lon="12.607143483551896"><ele>426.0</ele><time>2026-05-03T16:03:54.999Z</time></trkpt><trkpt lat="43.32151080740696" lon="12.607380993341799"><ele>424.0</ele><time>2026-05-03T16:03:55.999Z</time></trkpt><trkpt lat="43.32130595229986" lon="12.607613669207373"><ele>422.0</ele><time>2026-05-03T16:03:56.999Z</time></trkpt><trkpt lat="43.32110469984286" lon="12.60784703997334"><ele>421.5</ele><time>2026-05-03T16:03:57.999Z</time></trkpt><trkpt lat="43.320904624133405" lon="12.608078613046008"><ele>421.0</ele><time>2026-05-03T16:03:58.999Z</time></trkpt><trkpt lat="43.32070455698093" lon="12.608311316913632"><ele>421.5</ele><time>2026-05-03T16:03:59.999Z</time></trkpt><trkpt lat="43.320508974011524" lon="12.6085406063654"><ele>422.0</ele><time>2026-05-03T16:04:00.999Z</time></trkpt><trkpt lat="43.32031001538283" lon="12.608771644230202"><ele>423.5</ele><time>2026-05-03T16:04:01.999Z</time></trkpt><trkpt lat="43.32011066966729" lon="12.609003256556385"><ele>425.0</ele><time>2026-05-03T16:04:02.999Z</time></trkpt><trkpt lat="43.31991298128952" lon="12.609232218558798"><ele>424.5</ele><time>2026-05-03T16:04:03.999Z</time></trkpt><trkpt lat="43.31971208710765" lon="12.60946256193783"><ele>424.0</ele><time>2026-05-03T16:04:04.999Z</time></trkpt><trkpt lat="43.31951631865049" lon="12.60969072215672"><ele>424.0</ele><time>2026-05-03T16:04:05.999Z</time></trkpt><trkpt lat="43.31931857920308" lon="12.609921033252478"><ele>424.0</ele><time>2026-05-03T16:04:06.999Z</time></trkpt><trkpt lat="43.31912760059702" lon="12.610141754723788"><ele>423.5</ele><time>2026-05-03T16:04:07.999Z</time></trkpt><trkpt lat="43.31893989941056" lon="12.610358458635433"><ele>423.0</ele><time>2026-05-03T16:04:08.999Z</time></trkpt><trkpt lat="43.318752085043364" lon="12.610575047755196"><ele>421.5</ele><time>2026-05-03T16:04:09.999Z</time></trkpt><trkpt lat="43.3185647748953" lon="12.610791128630622"><ele>420.0</ele><time>2026-05-03T16:04:10.999Z</time></trkpt><trkpt lat="43.31837998221071" lon="12.611003635294585"><ele>420.5</ele><time>2026-05-03T16:04:11.999Z</time></trkpt><trkpt lat="43.31819661508706" lon="12.611217428114601"><ele>421.0</ele><time>2026-05-03T16:04:12.999Z</time></trkpt><trkpt lat="43.318009958151904" lon="12.611439822524797"><ele>421.0</ele><time>2026-05-03T16:04:13.999Z</time></trkpt><trkpt lat="43.31781897114857" lon="12.611667230185805"><ele>421.0</ele><time>2026-05-03T16:04:14.999Z</time></trkpt><trkpt lat="43.31763944822566" lon="12.611887070715111"><ele>422.5</ele><time>2026-05-03T16:04:15.999Z</time></trkpt><trkpt lat="43.317463052019484" lon="12.612109941946887"><ele>424.0</ele><time>2026-05-03T16:04:16.999Z</time></trkpt><trkpt lat="43.31729656451648" lon="12.612324829523118"><ele>424.0</ele><time>2026-05-03T16:04:17.999Z</time></trkpt><trkpt lat="43.31714376328293" lon="12.612530562762014"><ele>424.0</ele><time>2026-05-03T16:04:18.999Z</time></trkpt><trkpt lat="43.31698898618653" lon="12.61274014992539"><ele>424.0</ele><time>2026-05-03T16:04:19.999Z</time></trkpt><trkpt lat="43.31683638830079" lon="12.61294669017716"><ele>424.0</ele><time>2026-05-03T16:04:20.999Z</time></trkpt><trkpt lat="43.316681582185716" lon="12.613167089402733"><ele>424.0</ele><time>2026-05-03T16:04:21.999Z</time></trkpt><trkpt lat="43.316533674789284" lon="12.613385336825553"><ele>424.0</ele><time>2026-05-03T16:04:22.999Z</time></trkpt><trkpt lat="43.31638615798132" lon="12.613609868945591"><ele>423.6666666666667</ele><time>2026-05-03T16:04:23.999Z</time></trkpt><trkpt lat="43.3162420686613" lon="12.613834507643386"><ele>423.33333333333337</ele><time>2026-05-03T16:04:24.999Z</time></trkpt><trkpt lat="43.316100263149345" lon="12.614057289564043"><ele>423.0</ele><time>2026-05-03T16:04:25.999Z</time></trkpt><trkpt lat="43.31595986291802" lon="12.614269962929948"><ele>423.0</ele><time>2026-05-03T16:04:26.999Z</time></trkpt><trkpt lat="43.31581696189765" lon="12.614495903388523"><ele>423.0</ele><time>2026-05-03T16:04:27.999Z</time></trkpt><trkpt lat="43.31567927538001" lon="12.61470500801536"><ele>423.0</ele><time>2026-05-03T16:04:28.999Z</time></trkpt><trkpt lat="43.31553960920497" lon="12.61491673499203"><ele>423.0</ele><time>2026-05-03T16:04:29.999Z</time></trkpt><trkpt lat="43.31540326885469" lon="12.615131013070517"><ele>423.0</ele><time>2026-05-03T16:04:30.999Z</time></trkpt><trkpt lat="43.31526817260919" lon="12.6153524048233"><ele>423.0</ele><time>2026-05-03T16:04:31.999Z</time></trkpt><trkpt lat="43.31511497436049" lon="12.61556669375806"><ele>423.33333333333337</ele><time>2026-05-03T16:04:32.999Z</time></trkpt><trkpt lat="43.314963845234615" lon="12.615799821629986"><ele>423.6666666666667</ele><time>2026-05-03T16:04:33.999Z</time></trkpt><trkpt lat="43.3148585019952" lon="12.615979000718871"><ele>424.0</ele><time>2026-05-03T16:04:34.999Z</time></trkpt><trkpt lat="43.31471553657279" lon="12.616203190198245"><ele>425.0</ele><time>2026-05-03T16:04:35.999Z</time></trkpt><trkpt lat="43.31457002575748" lon="12.616422991122926"><ele>426.0</ele><time>2026-05-03T16:04:36.999Z</time></trkpt><trkpt lat="43.31441813196965" lon="12.616651672668365"><ele>427.0</ele><time>2026-05-03T16:04:37.999Z</time></trkpt><trkpt lat="43.314266136007724" lon="12.61688255594997"><ele>427.33333333333337</ele><time>2026-05-03T16:04:38.999Z</time></trkpt><trkpt lat="43.31411735609095" lon="12.617111664571832"><ele>427.66666666666663</ele><time>2026-05-03T16:04:39.999Z</time></trkpt><trkpt lat="43.31396694171652" lon="12.617340072918372"><ele>428.0</ele><time>2026-05-03T16:04:40.999Z</time></trkpt><trkpt lat="43.31382042633181" lon="12.617569651131388"><ele>427.3333333333333</ele><time>2026-05-03T16:04:41.999Z</time></trkpt><trkpt lat="43.31367553671195" lon="12.617797845614323"><ele>426.66666666666663</ele><time>2026-05-03T16:04:42.999Z</time></trkpt><trkpt lat="43.31353387701033" lon="12.618031314325236"><ele>426.0</ele><time>2026-05-03T16:04:43.999Z</time></trkpt><trkpt lat="43.31339114603689" lon="12.618278345427077"><ele>426.0</ele><time>2026-05-03T16:04:44.999Z</time></trkpt><trkpt lat="43.31325221224371" lon="12.618524911992672"><ele>426.0</ele><time>2026-05-03T16:04:45.999Z</time></trkpt><trkpt lat="43.31311963518693" lon="12.618768794530572"><ele>426.0</ele><time>2026-05-03T16:04:46.999Z</time></trkpt><trkpt lat="43.31298339775262" lon="12.619019604064357"><ele>425.5</ele><time>2026-05-03T16:04:47.999Z</time></trkpt><trkpt lat="43.312844418531384" lon="12.619279814195675"><ele>425.0</ele><time>2026-05-03T16:04:48.999Z</time></trkpt><trkpt lat="43.31270460504671" lon="12.619549983501175"><ele>426.0</ele><time>2026-05-03T16:04:49.999Z</time></trkpt><trkpt lat="43.31256602980268" lon="12.619830611134578"><ele>427.0</ele><time>2026-05-03T16:04:50.999Z</time></trkpt><trkpt lat="43.31242465177432" lon="12.620129052838973"><ele>427.0</ele><time>2026-05-03T16:04:51.999Z</time></trkpt><trkpt lat="43.31228058884163" lon="12.620447235575135"><ele>427.0</ele><time>2026-05-03T16:04:52.999Z</time></trkpt><trkpt lat="43.312120640636955" lon="12.620763318456838"><ele>427.0</ele><time>2026-05-03T16:04:53.999Z</time></trkpt><trkpt lat="43.31196713431777" lon="12.621093964359659"><ele>427.0</ele><time>2026-05-03T16:04:55Z</time></trkpt><trkpt lat="43.31180843570341" lon="12.62143579431301"><ele>427.0</ele><time>2026-05-03T16:04:56Z</time></trkpt><trkpt lat="43.31164433368111" lon="12.62178995088985"><ele>427.0</ele><time>2026-05-03T16:04:57Z</time></trkpt><trkpt lat="43.311476093218516" lon="12.622152970210756"><ele>425.5</ele><time>2026-05-03T16:04:58Z</time></trkpt><trkpt lat="43.311299594414386" lon="12.622530913258856"><ele>424.0</ele><time>2026-05-03T16:04:59Z</time></trkpt><trkpt lat="43.31111937718254" lon="12.62291681869503"><ele>424.0</ele><time>2026-05-03T16:05:00Z</time></trkpt><trkpt lat="43.31094363108194" lon="12.623312598432245"><ele>424.0</ele><time>2026-05-03T16:05:01Z</time></trkpt><trkpt lat="43.31076334690226" lon="12.623681684480687"><ele>423.5</ele><time>2026-05-03T16:05:02Z</time></trkpt><trkpt lat="43.31058967776071" lon="12.624048544548158"><ele>423.0</ele><time>2026-05-03T16:05:03Z</time></trkpt><trkpt lat="43.31042402588732" lon="12.624409187624272"><ele>421.5</ele><time>2026-05-03T16:05:04Z</time></trkpt><trkpt lat="43.31025580884925" lon="12.624770923380076"><ele>420.0</ele><time>2026-05-03T16:05:05Z</time></trkpt><trkpt lat="43.3100873247279" lon="12.625132340235039"><ele>420.5</ele><time>2026-05-03T16:05:06Z</time></trkpt><trkpt lat="43.30992342015729" lon="12.625490272666124"><ele>421.0</ele><time>2026-05-03T16:05:07Z</time></trkpt><trkpt lat="43.30976272781554" lon="12.625843318962747"><ele>420.0</ele><time>2026-05-03T16:05:08Z</time></trkpt><trkpt lat="43.30960123487662" lon="12.626193728825049"><ele>419.0</ele><time>2026-05-03T16:05:09Z</time></trkpt><trkpt lat="43.309441490064664" lon="12.62653629779421"><ele>419.0</ele><time>2026-05-03T16:05:10Z</time></trkpt><trkpt lat="43.30928324403484" lon="12.626873539910541"><ele>419.0</ele><time>2026-05-03T16:05:11Z</time></trkpt><trkpt lat="43.30912471016434" lon="12.627214495372032"><ele>417.5</ele><time>2026-05-03T16:05:12Z</time></trkpt><trkpt lat="43.30896867038301" lon="12.627552641177832"><ele>416.0</ele><time>2026-05-03T16:05:13Z</time></trkpt><trkpt lat="43.30880968160729" lon="12.627898337673328"><ele>415.0</ele><time>2026-05-03T16:05:14Z</time></trkpt><trkpt lat="43.30865355068897" lon="12.628237304631307"><ele>414.0</ele><time>2026-05-03T16:05:15Z</time></trkpt><trkpt lat="43.30849341210667" lon="12.628584094381278"><ele>415.0</ele><time>2026-05-03T16:05:16Z</time></trkpt><trkpt lat="43.30833051454117" lon="12.628937075731283"><ele>416.0</ele><time>2026-05-03T16:05:17Z</time></trkpt><trkpt lat="43.3081647212215" lon="12.629290069686244"><ele>418.0</ele><time>2026-05-03T16:05:18Z</time></trkpt><trkpt lat="43.30799788614402" lon="12.629645406491312"><ele>420.0</ele><time>2026-05-03T16:05:19Z</time></trkpt><trkpt lat="43.307833906032" lon="12.630000226028981"><ele>421.0</ele><time>2026-05-03T16:05:20Z</time></trkpt><trkpt lat="43.30767202073413" lon="12.630352295277216"><ele>422.0</ele><time>2026-05-03T16:05:21Z</time></trkpt><trkpt lat="43.30751202676099" lon="12.630702840456435"><ele>422.0</ele><time>2026-05-03T16:05:22Z</time></trkpt><trkpt lat="43.30735180551572" lon="12.63104840271232"><ele>422.0</ele><time>2026-05-03T16:05:23Z</time></trkpt><trkpt lat="43.30719292265177" lon="12.631388664865712"><ele>421.5</ele><time>2026-05-03T16:05:24Z</time></trkpt><trkpt lat="43.30704103157407" lon="12.631717592874802"><ele>421.0</ele><time>2026-05-03T16:05:25Z</time></trkpt><trkpt lat="43.306890604455354" lon="12.632045777049543"><ele>421.0</ele><time>2026-05-03T16:05:26Z</time></trkpt><trkpt lat="43.30674753296035" lon="12.632358450369622"><ele>421.0</ele><time>2026-05-03T16:05:27Z</time></trkpt><trkpt lat="43.30660726277233" lon="12.632655687361087"><ele>421.0</ele><time>2026-05-03T16:05:28Z</time></trkpt><trkpt lat="43.30647612343785" lon="12.632939872323075"><ele>421.0</ele><time>2026-05-03T16:05:29Z</time></trkpt><trkpt lat="43.306344573239045" lon="12.633224543509048"><ele>421.5</ele><time>2026-05-03T16:05:30Z</time></trkpt><trkpt lat="43.30621213805971" lon="12.633509650977103"><ele>422.0</ele><time>2026-05-03T16:05:31Z</time></trkpt><trkpt lat="43.30607697561442" lon="12.633799879661362"><ele>420.5</ele><time>2026-05-03T16:05:32Z</time></trkpt><trkpt lat="43.30594319380008" lon="12.634088445139591"><ele>419.0</ele><time>2026-05-03T16:05:33Z</time></trkpt><trkpt lat="43.30580702608843" lon="12.634378879968057"><ele>419.0</ele><time>2026-05-03T16:05:34Z</time></trkpt><trkpt lat="43.30566647142073" lon="12.634680015285012"><ele>419.0</ele><time>2026-05-03T16:05:35Z</time></trkpt><trkpt lat="43.305526876228505" lon="12.63497965092318"><ele>418.0</ele><time>2026-05-03T16:05:36Z</time></trkpt><trkpt lat="43.305391814176495" lon="12.635276587282952"><ele>417.0</ele><time>2026-05-03T16:05:37Z</time></trkpt><trkpt lat="43.30525247908525" lon="12.635579195278948"><ele>417.0</ele><time>2026-05-03T16:05:38Z</time></trkpt><trkpt lat="43.30511826081043" lon="12.635881187665127"><ele>417.0</ele><time>2026-05-03T16:05:39Z</time></trkpt><trkpt lat="43.30497124573699" lon="12.636202958951676"><ele>417.0</ele><time>2026-05-03T16:05:40Z</time></trkpt><trkpt lat="43.30482727551285" lon="12.636533996742399"><ele>417.0</ele><time>2026-05-03T16:05:41Z</time></trkpt><trkpt lat="43.30467887535391" lon="12.636867855095073"><ele>416.0</ele><time>2026-05-03T16:05:42Z</time></trkpt><trkpt lat="43.304526244670214" lon="12.637208666010116"><ele>415.0</ele><time>2026-05-03T16:05:43Z</time></trkpt><trkpt lat="43.30437173887293" lon="12.637538298128987"><ele>415.5</ele><time>2026-05-03T16:05:44Z</time></trkpt><trkpt lat="43.304217557355194" lon="12.63785332479854"><ele>416.0</ele><time>2026-05-03T16:05:45Z</time></trkpt><trkpt lat="43.304064136021005" lon="12.638164938939589"><ele>414.5</ele><time>2026-05-03T16:05:46Z</time></trkpt><trkpt lat="43.30391255082512" lon="12.638475156594259"><ele>413.0</ele><time>2026-05-03T16:05:46.999Z</time></trkpt><trkpt lat="43.30376507927986" lon="12.638779034924607"><ele>413.0</ele><time>2026-05-03T16:05:47.999Z</time></trkpt><trkpt lat="43.30362367451995" lon="12.639082962966414"><ele>413.0</ele><time>2026-05-03T16:05:48.999Z</time></trkpt><trkpt lat="43.30348436195379" lon="12.639385390061841"><ele>413.0</ele><time>2026-05-03T16:05:49.999Z</time></trkpt><trkpt lat="43.30334422386126" lon="12.639686352153214"><ele>413.0</ele><time>2026-05-03T16:05:50.999Z</time></trkpt><trkpt lat="43.303201992696096" lon="12.639987187029865"><ele>412.5</ele><time>2026-05-03T16:05:51.999Z</time></trkpt><trkpt lat="43.30306273890105" lon="12.640288040532404"><ele>412.0</ele><time>2026-05-03T16:05:52.999Z</time></trkpt><trkpt lat="43.30292020724287" lon="12.64058935194552"><ele>411.0</ele><time>2026-05-03T16:05:53.999Z</time></trkpt><trkpt lat="43.30278260707577" lon="12.640884294446913"><ele>410.0</ele><time>2026-05-03T16:05:54.999Z</time></trkpt><trkpt lat="43.30264652056374" lon="12.641182754285865"><ele>409.5</ele><time>2026-05-03T16:05:55.999Z</time></trkpt><trkpt lat="43.30251150061917" lon="12.641472473404463"><ele>409.0</ele><time>2026-05-03T16:05:56.999Z</time></trkpt><trkpt lat="43.302375562598804" lon="12.641768481667453"><ele>408.0</ele><time>2026-05-03T16:05:57.999Z</time></trkpt><trkpt lat="43.30224247309568" lon="12.642056968907335"><ele>407.0</ele><time>2026-05-03T16:05:58.999Z</time></trkpt><trkpt lat="43.302111984985224" lon="12.642347482365176"><ele>407.0</ele><time>2026-05-03T16:05:59.999Z</time></trkpt><trkpt lat="43.301984205898016" lon="12.642629391935934"><ele>407.0</ele><time>2026-05-03T16:06:00.999Z</time></trkpt><trkpt lat="43.30186378684177" lon="12.642892951947694"><ele>407.5</ele><time>2026-05-03T16:06:01.999Z</time></trkpt><trkpt lat="43.30173562509463" lon="12.643170135063256"><ele>408.0</ele><time>2026-05-03T16:06:02.999Z</time></trkpt><trkpt lat="43.301611332390486" lon="12.64343435095545"><ele>409.0</ele><time>2026-05-03T16:06:03.999Z</time></trkpt><trkpt lat="43.301491850853296" lon="12.643683607328358"><ele>410.0</ele><time>2026-05-03T16:06:04.999Z</time></trkpt><trkpt lat="43.30136998096472" lon="12.643925607626572"><ele>411.0</ele><time>2026-05-03T16:06:05.999Z</time></trkpt><trkpt lat="43.301247455633" lon="12.644161784358294"><ele>411.66666666666663</ele><time>2026-05-03T16:06:06.999Z</time></trkpt><trkpt lat="43.30112193641251" lon="12.644393211375894"><ele>412.3333333333333</ele><time>2026-05-03T16:06:07.999Z</time></trkpt><trkpt lat="43.301005572345375" lon="12.64460317996345"><ele>413.0</ele><time>2026-05-03T16:06:08.999Z</time></trkpt><trkpt lat="43.30088399976919" lon="12.644814984486276"><ele>414.66666666666663</ele><time>2026-05-03T16:06:09.999Z</time></trkpt><trkpt lat="43.30075949466284" lon="12.645029346601385"><ele>416.33333333333337</ele><time>2026-05-03T16:06:10.999Z</time></trkpt><trkpt lat="43.30063156112306" lon="12.645253272006517"><ele>418.0</ele><time>2026-05-03T16:06:11.999Z</time></trkpt><trkpt lat="43.30049682321345" lon="12.645483961390449"><ele>418.0</ele><time>2026-05-03T16:06:12.999Z</time></trkpt><trkpt lat="43.30035955037848" lon="12.645710939283338"><ele>418.0</ele><time>2026-05-03T16:06:13.999Z</time></trkpt><trkpt lat="43.300215786913675" lon="12.645941639582727"><ele>418.0</ele><time>2026-05-03T16:06:14.999Z</time></trkpt><trkpt lat="43.30006229333049" lon="12.646174338005046"><ele>420.5</ele><time>2026-05-03T16:06:15.999Z</time></trkpt><trkpt lat="43.29990474074423" lon="12.646404327322532"><ele>423.0</ele><time>2026-05-03T16:06:16.999Z</time></trkpt><trkpt lat="43.299747078395235" lon="12.646629082459414"><ele>423.0</ele><time>2026-05-03T16:06:17.999Z</time></trkpt><trkpt lat="43.29958349946063" lon="12.646853318059893"><ele>423.0</ele><time>2026-05-03T16:06:18.999Z</time></trkpt><trkpt lat="43.299417997283975" lon="12.647071412590703"><ele>422.66666666666663</ele><time>2026-05-03T16:06:19.999Z</time></trkpt><trkpt lat="43.29925384583198" lon="12.64727971743038"><ele>422.3333333333333</ele><time>2026-05-03T16:06:20.999Z</time></trkpt><trkpt lat="43.29908864447612" lon="12.647486207198074"><ele>422.0</ele><time>2026-05-03T16:06:21.999Z</time></trkpt><trkpt lat="43.298923363340535" lon="12.647691306610456"><ele>422.5</ele><time>2026-05-03T16:06:22.999Z</time></trkpt><trkpt lat="43.298751891867326" lon="12.647895864739441"><ele>423.0</ele><time>2026-05-03T16:06:23.999Z</time></trkpt><trkpt lat="43.2985768902386" lon="12.648100355178697"><ele>423.0</ele><time>2026-05-03T16:06:24.999Z</time></trkpt><trkpt lat="43.29839762086504" lon="12.648307403760318"><ele>423.0</ele><time>2026-05-03T16:06:25.999Z</time></trkpt><trkpt lat="43.298210325866336" lon="12.648511389563245"><ele>420.0</ele><time>2026-05-03T16:06:26.999Z</time></trkpt><trkpt lat="43.29802255551143" lon="12.648708843693989"><ele>417.0</ele><time>2026-05-03T16:06:27.999Z</time></trkpt><trkpt lat="43.29783323264447" lon="12.648904831588041"><ele>417.0</ele><time>2026-05-03T16:06:28.999Z</time></trkpt><trkpt lat="43.297645096808495" lon="12.649101336464645"><ele>417.0</ele><time>2026-05-03T16:06:29.999Z</time></trkpt><trkpt lat="43.29746063334966" lon="12.64929653768283"><ele>415.5</ele><time>2026-05-03T16:06:30.999Z</time></trkpt><trkpt lat="43.29727646427877" lon="12.649490983875141"><ele>414.0</ele><time>2026-05-03T16:06:31.999Z</time></trkpt><trkpt lat="43.29709147070866" lon="12.649675396705693"><ele>412.0</ele><time>2026-05-03T16:06:32.999Z</time></trkpt><trkpt lat="43.2969113100098" lon="12.64986107922284"><ele>410.0</ele><time>2026-05-03T16:06:33.999Z</time></trkpt><trkpt lat="43.29673028255668" lon="12.650050982587157"><ele>410.0</ele><time>2026-05-03T16:06:34.999Z</time></trkpt><trkpt lat="43.296552066717766" lon="12.650241959159304"><ele>410.0</ele><time>2026-05-03T16:06:35.999Z</time></trkpt><trkpt lat="43.29637460692891" lon="12.650431111458987"><ele>409.3333333333333</ele><time>2026-05-03T16:06:36.999Z</time></trkpt><trkpt lat="43.29619725450302" lon="12.650616901292365"><ele>408.66666666666663</ele><time>2026-05-03T16:06:37.999Z</time></trkpt><trkpt lat="43.29601711455519" lon="12.65080282394788"><ele>408.0</ele><time>2026-05-03T16:06:38.999Z</time></trkpt><trkpt lat="43.29583679239302" lon="12.650984622113745"><ele>408.33333333333337</ele><time>2026-05-03T16:06:39.999Z</time></trkpt><trkpt lat="43.295655087505445" lon="12.651164133723023"><ele>408.6666666666667</ele><time>2026-05-03T16:06:40.999Z</time></trkpt><trkpt lat="43.2954804500163" lon="12.651341863604124"><ele>409.0</ele><time>2026-05-03T16:06:41.999Z</time></trkpt><trkpt lat="43.29530987230823" lon="12.651516725094806"><ele>409.0</ele><time>2026-05-03T16:06:42.999Z</time></trkpt><trkpt lat="43.295143297223646" lon="12.651692465955458"><ele>409.0</ele><time>2026-05-03T16:06:43.999Z</time></trkpt><trkpt lat="43.29497881690752" lon="12.65186496913672"><ele>409.0</ele><time>2026-05-03T16:06:44.999Z</time></trkpt><trkpt lat="43.29481578062179" lon="12.652040143681376"><ele>408.0</ele><time>2026-05-03T16:06:45.999Z</time></trkpt><trkpt lat="43.29465531022211" lon="12.652211576695093"><ele>407.0</ele><time>2026-05-03T16:06:46.999Z</time></trkpt><trkpt lat="43.294500746926246" lon="12.652388014154626"><ele>406.0</ele><time>2026-05-03T16:06:47.999Z</time></trkpt><trkpt lat="43.294344237314064" lon="12.652563877088472"><ele>406.0</ele><time>2026-05-03T16:06:48.999Z</time></trkpt><trkpt lat="43.294187695730706" lon="12.652740787897432"><ele>406.0</ele><time>2026-05-03T16:06:49.999Z</time></trkpt><trkpt lat="43.29403149379445" lon="12.652920256774868"><ele>406.0</ele><time>2026-05-03T16:06:50.999Z</time></trkpt><trkpt lat="43.293877785978246" lon="12.653104760996708"><ele>403.33333333333337</ele><time>2026-05-03T16:06:51.999Z</time></trkpt><trkpt lat="43.29372795703941" lon="12.653294784510061"><ele>400.66666666666663</ele><time>2026-05-03T16:06:52.999Z</time></trkpt><trkpt lat="43.29357631299398" lon="12.65349347432834"><ele>398.0</ele><time>2026-05-03T16:06:53.999Z</time></trkpt><trkpt lat="43.29342619291333" lon="12.653701951623193"><ele>397.66666666666663</ele><time>2026-05-03T16:06:54.999Z</time></trkpt><trkpt lat="43.293272211051786" lon="12.653913035156823"><ele>397.33333333333337</ele><time>2026-05-03T16:06:55.999Z</time></trkpt><trkpt lat="43.2931181732612" lon="12.65412119562051"><ele>397.0</ele><time>2026-05-03T16:06:56.999Z</time></trkpt><trkpt lat="43.29296659949351" lon="12.654327571471905"><ele>396.6666666666667</ele><time>2026-05-03T16:06:57.999Z</time></trkpt><trkpt lat="43.29281493872942" lon="12.654533438955546"><ele>396.33333333333337</ele><time>2026-05-03T16:06:58.999Z</time></trkpt><trkpt lat="43.29266430497463" lon="12.654741278788125"><ele>396.0</ele><time>2026-05-03T16:06:59.998Z</time></trkpt><trkpt lat="43.29251284392425" lon="12.65495107366176"><ele>396.0</ele><time>2026-05-03T16:07:01Z</time></trkpt><trkpt lat="43.29235650971731" lon="12.655167429686069"><ele>396.0</ele><time>2026-05-03T16:07:02Z</time></trkpt><trkpt lat="43.292200221195415" lon="12.655388064545233"><ele>396.0</ele><time>2026-05-03T16:07:03Z</time></trkpt><trkpt lat="43.29204384187175" lon="12.65561055273794"><ele>397.0</ele><time>2026-05-03T16:07:04Z</time></trkpt><trkpt lat="43.29188926915233" lon="12.65582765166134"><ele>398.0</ele><time>2026-05-03T16:07:05Z</time></trkpt><trkpt lat="43.29173532049166" lon="12.656043463939387"><ele>399.0</ele><time>2026-05-03T16:07:06Z</time></trkpt><trkpt lat="43.29158033632055" lon="12.656259802763405"><ele>399.0</ele><time>2026-05-03T16:07:07Z</time></trkpt><trkpt lat="43.29142451331381" lon="12.65647223265937"><ele>399.0</ele><time>2026-05-03T16:07:08Z</time></trkpt><trkpt lat="43.29127121215504" lon="12.656683368977244"><ele>399.0</ele><time>2026-05-03T16:07:09Z</time></trkpt><trkpt lat="43.29111724895421" lon="12.65689566650122"><ele>399.66666666666663</ele><time>2026-05-03T16:07:10Z</time></trkpt><trkpt lat="43.290964250352644" lon="12.657106357063606"><ele>400.3333333333333</ele><time>2026-05-03T16:07:11Z</time></trkpt><trkpt lat="43.29080776416191" lon="12.657317326839364"><ele>401.0</ele><time>2026-05-03T16:07:12Z</time></trkpt><trkpt lat="43.2906486442555" lon="12.657524799432437"><ele>400.3333333333333</ele><time>2026-05-03T16:07:13Z</time></trkpt><trkpt lat="43.29048684046301" lon="12.65773168212545"><ele>399.66666666666663</ele><time>2026-05-03T16:07:14Z</time></trkpt><trkpt lat="43.29032212948222" lon="12.657937997483725"><ele>399.0</ele><time>2026-05-03T16:07:15Z</time></trkpt><trkpt lat="43.29015498973491" lon="12.65813912769253"><ele>398.66666666666663</ele><time>2026-05-03T16:07:16Z</time></trkpt><trkpt lat="43.289984476641166" lon="12.658335408286991"><ele>398.3333333333333</ele><time>2026-05-03T16:07:17Z</time></trkpt><trkpt lat="43.28980866239911" lon="12.658529270792013"><ele>398.0</ele><time>2026-05-03T16:07:18Z</time></trkpt><trkpt lat="43.289631097473595" lon="12.65872158368903"><ele>396.5</ele><time>2026-05-03T16:07:19Z</time></trkpt><trkpt lat="43.28944886911186" lon="12.6589166060826"><ele>395.0</ele><time>2026-05-03T16:07:20Z</time></trkpt><trkpt lat="43.28926635766994" lon="12.659107802285058"><ele>395.0</ele><time>2026-05-03T16:07:21Z</time></trkpt><trkpt lat="43.289081436242064" lon="12.659295964694948"><ele>395.0</ele><time>2026-05-03T16:07:22Z</time></trkpt><trkpt lat="43.288895392080754" lon="12.659480547614807"><ele>393.0</ele><time>2026-05-03T16:07:23Z</time></trkpt><trkpt lat="43.28870789963442" lon="12.659658501434494"><ele>391.0</ele><time>2026-05-03T16:07:24Z</time></trkpt><trkpt lat="43.288516395919984" lon="12.659828630641952"><ele>391.0</ele><time>2026-05-03T16:07:25Z</time></trkpt><trkpt lat="43.2883266962654" lon="12.659990740145743"><ele>391.0</ele><time>2026-05-03T16:07:26Z</time></trkpt><trkpt lat="43.288139211665204" lon="12.660153080544948"><ele>391.0</ele><time>2026-05-03T16:07:27Z</time></trkpt><trkpt lat="43.287946780198276" lon="12.660314508492913"><ele>391.0</ele><time>2026-05-03T16:07:28Z</time></trkpt><trkpt lat="43.28775878120938" lon="12.660464960403068"><ele>391.0</ele><time>2026-05-03T16:07:29Z</time></trkpt><trkpt lat="43.287572084540535" lon="12.660609294438787"><ele>391.0</ele><time>2026-05-03T16:07:30Z</time></trkpt><trkpt lat="43.287389503913296" lon="12.660747962441727"><ele>390.6666666666667</ele><time>2026-05-03T16:07:31Z</time></trkpt><trkpt lat="43.287202727911435" lon="12.660889139630308"><ele>390.33333333333337</ele><time>2026-05-03T16:07:32Z</time></trkpt><trkpt lat="43.28702276039737" lon="12.661023204131833"><ele>390.0</ele><time>2026-05-03T16:07:33Z</time></trkpt><trkpt lat="43.28684179391775" lon="12.66114421834064"><ele>390.0</ele><time>2026-05-03T16:07:34Z</time></trkpt><trkpt lat="43.28666114935326" lon="12.661267030375944"><ele>390.0</ele><time>2026-05-03T16:07:35Z</time></trkpt><trkpt lat="43.28647986900815" lon="12.661389799816336"><ele>390.0</ele><time>2026-05-03T16:07:36Z</time></trkpt><trkpt lat="43.28629507468667" lon="12.661513352596847"><ele>390.0</ele><time>2026-05-03T16:07:37Z</time></trkpt><trkpt lat="43.28610815259482" lon="12.661633124325485"><ele>390.0</ele><time>2026-05-03T16:07:38Z</time></trkpt><trkpt lat="43.2859162137211" lon="12.661751009368974"><ele>390.0</ele><time>2026-05-03T16:07:39Z</time></trkpt><trkpt lat="43.28572109232974" lon="12.661861553562705"><ele>389.33333333333337</ele><time>2026-05-03T16:07:40Z</time></trkpt><trkpt lat="43.2855211384821" lon="12.661972432685124"><ele>388.6666666666667</ele><time>2026-05-03T16:07:41Z</time></trkpt><trkpt lat="43.285315820181424" lon="12.662086477084568"><ele>388.0</ele><time>2026-05-03T16:07:42Z</time></trkpt><trkpt lat="43.285109282895164" lon="12.66220193029959"><ele>388.0</ele><time>2026-05-03T16:07:43Z</time></trkpt><trkpt lat="43.28490617144362" lon="12.662320392067144"><ele>388.0</ele><time>2026-05-03T16:07:44Z</time></trkpt><trkpt lat="43.28470111613866" lon="12.662440130226242"><ele>388.0</ele><time>2026-05-03T16:07:45Z</time></trkpt><trkpt lat="43.28449745158192" lon="12.662560519057099"><ele>388.0</ele><time>2026-05-03T16:07:46Z</time></trkpt><trkpt lat="43.284291790539704" lon="12.662681241874331"><ele>388.0</ele><time>2026-05-03T16:07:47Z</time></trkpt><trkpt lat="43.28408433877553" lon="12.662802030393927"><ele>388.0</ele><time>2026-05-03T16:07:48Z</time></trkpt><trkpt lat="43.283874603695146" lon="12.662918839103472"><ele>386.5</ele><time>2026-05-03T16:07:49Z</time></trkpt><trkpt lat="43.28366292580631" lon="12.663041423363472"><ele>385.0</ele><time>2026-05-03T16:07:49.999Z</time></trkpt><trkpt lat="43.28345252735121" lon="12.663164495060052"><ele>385.0</ele><time>2026-05-03T16:07:50.999Z</time></trkpt><trkpt lat="43.28323908463521" lon="12.663289520311736"><ele>385.0</ele><time>2026-05-03T16:07:51.999Z</time></trkpt><trkpt lat="43.28302539085649" lon="12.66341433289447"><ele>384.5</ele><time>2026-05-03T16:07:52.999Z</time></trkpt><trkpt lat="43.28281073404063" lon="12.663538590341561"><ele>384.0</ele><time>2026-05-03T16:07:53.999Z</time></trkpt><trkpt lat="43.28259496265721" lon="12.66366445102961"><ele>384.0</ele><time>2026-05-03T16:07:54.999Z</time></trkpt><trkpt lat="43.28237638153331" lon="12.663790734803035"><ele>384.0</ele><time>2026-05-03T16:07:55.999Z</time></trkpt><trkpt lat="43.28215622537076" lon="12.663914632332746"><ele>383.0</ele><time>2026-05-03T16:07:56.999Z</time></trkpt><trkpt lat="43.28193619981027" lon="12.664040215649829"><ele>382.0</ele><time>2026-05-03T16:07:57.999Z</time></trkpt><trkpt lat="43.2817156302819" lon="12.664164177134184"><ele>382.0</ele><time>2026-05-03T16:07:58.999Z</time></trkpt><trkpt lat="43.28149383968463" lon="12.664289032775399"><ele>382.0</ele><time>2026-05-03T16:07:59.999Z</time></trkpt><trkpt lat="43.28127262594373" lon="12.66441643626083"><ele>381.5</ele><time>2026-05-03T16:08:00.999Z</time></trkpt><trkpt lat="43.281051425649274" lon="12.664544877760576"><ele>381.0</ele><time>2026-05-03T16:08:01.999Z</time></trkpt><trkpt lat="43.280827572479026" lon="12.664673593042862"><ele>381.0</ele><time>2026-05-03T16:08:02.999Z</time></trkpt><trkpt lat="43.28060459036604" lon="12.664801995852494"><ele>381.0</ele><time>2026-05-03T16:08:03.999Z</time></trkpt><trkpt lat="43.28037991519523" lon="12.6649307099564"><ele>380.5</ele><time>2026-05-03T16:08:04.999Z</time></trkpt><trkpt lat="43.28015514365332" lon="12.665059335936997"><ele>380.0</ele><time>2026-05-03T16:08:05.999Z</time></trkpt><trkpt lat="43.27993048851836" lon="12.665188225276474"><ele>377.5</ele><time>2026-05-03T16:08:06.999Z</time></trkpt><trkpt lat="43.27970773185749" lon="12.665316937501293"><ele>375.0</ele><time>2026-05-03T16:08:07.999Z</time></trkpt><trkpt lat="43.27948285670378" lon="12.665446500918874"><ele>375.0</ele><time>2026-05-03T16:08:08.999Z</time></trkpt><trkpt lat="43.27925696305097" lon="12.665582645732872"><ele>375.0</ele><time>2026-05-03T16:08:09.999Z</time></trkpt><trkpt lat="43.27903067937478" lon="12.665714466082719"><ele>373.5</ele><time>2026-05-03T16:08:10.999Z</time></trkpt><trkpt lat="43.278808940737584" lon="12.665848980091335"><ele>372.0</ele><time>2026-05-03T16:08:11.999Z</time></trkpt><trkpt lat="43.27858299782716" lon="12.665981348367804"><ele>373.0</ele><time>2026-05-03T16:08:12.999Z</time></trkpt><trkpt lat="43.27835412342418" lon="12.666115518979439"><ele>374.0</ele><time>2026-05-03T16:08:13.999Z</time></trkpt><trkpt lat="43.27812743977303" lon="12.666244464837916"><ele>372.5</ele><time>2026-05-03T16:08:14.999Z</time></trkpt><trkpt lat="43.27789947385516" lon="12.666372105595338"><ele>371.0</ele><time>2026-05-03T16:08:15.999Z</time></trkpt><trkpt lat="43.277668574196134" lon="12.66649803317921"><ele>371.0</ele><time>2026-05-03T16:08:16.999Z</time></trkpt><trkpt lat="43.277435021640414" lon="12.666622377696182"><ele>371.0</ele><time>2026-05-03T16:08:17.999Z</time></trkpt><trkpt lat="43.27720252174301" lon="12.666745952317765"><ele>371.0</ele><time>2026-05-03T16:08:18.999Z</time></trkpt><trkpt lat="43.27696601896179" lon="12.666868891987686"><ele>371.0</ele><time>2026-05-03T16:08:19.999Z</time></trkpt><trkpt lat="43.276729427378434" lon="12.666993616095418"><ele>371.0</ele><time>2026-05-03T16:08:20.999Z</time></trkpt><trkpt lat="43.27649007229467" lon="12.667114865904463"><ele>371.0</ele><time>2026-05-03T16:08:21.999Z</time></trkpt><trkpt lat="43.27624910857343" lon="12.667234728322422"><ele>370.0</ele><time>2026-05-03T16:08:22.999Z</time></trkpt><trkpt lat="43.276010154388345" lon="12.667357256893743"><ele>369.0</ele><time>2026-05-03T16:08:23.999Z</time></trkpt><trkpt lat="43.27576942343231" lon="12.66747918188926"><ele>367.5</ele><time>2026-05-03T16:08:24.999Z</time></trkpt><trkpt lat="43.275529575675904" lon="12.667603932535656"><ele>366.0</ele><time>2026-05-03T16:08:25.999Z</time></trkpt><trkpt lat="43.27528806129469" lon="12.667726390706902"><ele>366.0</ele><time>2026-05-03T16:08:26.999Z</time></trkpt><trkpt lat="43.27504668691299" lon="12.66784518674179"><ele>366.0</ele><time>2026-05-03T16:08:27.999Z</time></trkpt><trkpt lat="43.27480733518333" lon="12.66796330102934"><ele>364.5</ele><time>2026-05-03T16:08:28.999Z</time></trkpt><trkpt lat="43.274567486567456" lon="12.668085399579804"><ele>363.0</ele><time>2026-05-03T16:08:29.999Z</time></trkpt><trkpt lat="43.27432938398418" lon="12.668207160111258"><ele>363.0</ele><time>2026-05-03T16:08:30.999Z</time></trkpt><trkpt lat="43.27409265419001" lon="12.668328240397425"><ele>363.0</ele><time>2026-05-03T16:08:31.999Z</time></trkpt><trkpt lat="43.27385559432007" lon="12.668450524131947"><ele>362.5</ele><time>2026-05-03T16:08:32.999Z</time></trkpt><trkpt lat="43.27361986816018" lon="12.668572713486054"><ele>362.0</ele><time>2026-05-03T16:08:33.999Z</time></trkpt><trkpt lat="43.27338755710341" lon="12.668694234100075"><ele>362.0</ele><time>2026-05-03T16:08:34.999Z</time></trkpt><trkpt lat="43.27316014425671" lon="12.668811588446548"><ele>362.0</ele><time>2026-05-03T16:08:35.999Z</time></trkpt><trkpt lat="43.2729312894924" lon="12.66893191828656"><ele>361.5</ele><time>2026-05-03T16:08:36.999Z</time></trkpt><trkpt lat="43.27270438537642" lon="12.669051964438264"><ele>361.0</ele><time>2026-05-03T16:08:37.999Z</time></trkpt><trkpt lat="43.27247924538835" lon="12.669173542310116"><ele>361.5</ele><time>2026-05-03T16:08:38.999Z</time></trkpt><trkpt lat="43.27225766057539" lon="12.66929755553336"><ele>362.0</ele><time>2026-05-03T16:08:39.999Z</time></trkpt><trkpt lat="43.27203658904358" lon="12.669425148738434"><ele>361.5</ele><time>2026-05-03T16:08:40.999Z</time></trkpt><trkpt lat="43.271815271529434" lon="12.669554991220778"><ele>361.0</ele><time>2026-05-03T16:08:41.999Z</time></trkpt><trkpt lat="43.2715949450405" lon="12.669687522987665"><ele>360.0</ele><time>2026-05-03T16:08:42.999Z</time></trkpt><trkpt lat="43.27137843049987" lon="12.669823591303972"><ele>359.0</ele><time>2026-05-03T16:08:43.999Z</time></trkpt><trkpt lat="43.27116428545432" lon="12.669962843183312"><ele>359.0</ele><time>2026-05-03T16:08:44.999Z</time></trkpt><trkpt lat="43.270952879017436" lon="12.670106419926922"><ele>359.0</ele><time>2026-05-03T16:08:45.999Z</time></trkpt><trkpt lat="43.270744113305206" lon="12.670252965948551"><ele>358.0</ele><time>2026-05-03T16:08:46.999Z</time></trkpt><trkpt lat="43.27053508887349" lon="12.670400418563696"><ele>357.0</ele><time>2026-05-03T16:08:47.999Z</time></trkpt><trkpt lat="43.27032744345442" lon="12.670550881874917"><ele>357.0</ele><time>2026-05-03T16:08:48.999Z</time></trkpt><trkpt lat="43.27012171937209" lon="12.670706079187253"><ele>357.0</ele><time>2026-05-03T16:08:49.999Z</time></trkpt><trkpt lat="43.26991840775216" lon="12.670866684205638"><ele>357.0</ele><time>2026-05-03T16:08:50.999Z</time></trkpt><trkpt lat="43.26971585398024" lon="12.671035480260917"><ele>357.0</ele><time>2026-05-03T16:08:51.999Z</time></trkpt><trkpt lat="43.269514141874915" lon="12.671210012591372"><ele>357.0</ele><time>2026-05-03T16:08:52.999Z</time></trkpt><trkpt lat="43.26930822576133" lon="12.67139234045151"><ele>357.0</ele><time>2026-05-03T16:08:53.999Z</time></trkpt><trkpt lat="43.26910443230485" lon="12.67157650485295"><ele>357.0</ele><time>2026-05-03T16:08:54.999Z</time></trkpt><trkpt lat="43.268906659617834" lon="12.67175658278096"><ele>357.0</ele><time>2026-05-03T16:08:55.999Z</time></trkpt><trkpt lat="43.268709886598714" lon="12.671937881709741"><ele>356.5</ele><time>2026-05-03T16:08:56.999Z</time></trkpt><trkpt lat="43.268522029600526" lon="12.672116012672632"><ele>356.0</ele><time>2026-05-03T16:08:57.999Z</time></trkpt><trkpt lat="43.26833724424451" lon="12.672296121603097"><ele>356.0</ele><time>2026-05-03T16:08:58.999Z</time></trkpt><trkpt lat="43.26815670014313" lon="12.67247678655005"><ele>356.0</ele><time>2026-05-03T16:08:59.999Z</time></trkpt><trkpt lat="43.26798093383643" lon="12.6726580295299"><ele>356.0</ele><time>2026-05-03T16:09:00.999Z</time></trkpt><trkpt lat="43.26780864169866" lon="12.67284060586627"><ele>355.6666666666667</ele><time>2026-05-03T16:09:01.999Z</time></trkpt><trkpt lat="43.26764024767418" lon="12.673019871956008"><ele>355.3333333333333</ele><time>2026-05-03T16:09:02.998Z</time></trkpt><trkpt lat="43.267477665765576" lon="12.673195078923682"><ele>355.0</ele><time>2026-05-03T16:09:03.998Z</time></trkpt><trkpt lat="43.26731738312523" lon="12.673371997614176"><ele>355.0</ele><time>2026-05-03T16:09:04.998Z</time></trkpt><trkpt lat="43.26715338123738" lon="12.673555667841645"><ele>355.0</ele><time>2026-05-03T16:09:06Z</time></trkpt><trkpt lat="43.26699000237659" lon="12.67374766803475"><ele>355.0</ele><time>2026-05-03T16:09:07Z</time></trkpt><trkpt lat="43.266814011125675" lon="12.673905811475116"><ele>354.3333333333333</ele><time>2026-05-03T16:09:08Z</time></trkpt><trkpt lat="43.26665052098881" lon="12.674086155404897"><ele>353.6666666666667</ele><time>2026-05-03T16:09:09Z</time></trkpt><trkpt lat="43.2664893131701" lon="12.674273438328699"><ele>353.0</ele><time>2026-05-03T16:09:10Z</time></trkpt><trkpt lat="43.26632894400811" lon="12.674453553678196"><ele>352.6666666666667</ele><time>2026-05-03T16:09:11Z</time></trkpt><trkpt lat="43.26616974039255" lon="12.674636247481867"><ele>352.3333333333333</ele><time>2026-05-03T16:09:12Z</time></trkpt><trkpt lat="43.2660111309496" lon="12.674812827550571"><ele>352.0</ele><time>2026-05-03T16:09:13Z</time></trkpt><trkpt lat="43.26585376456955" lon="12.67498527375229"><ele>352.0</ele><time>2026-05-03T16:09:14Z</time></trkpt><trkpt lat="43.26569480020775" lon="12.675151314428275"><ele>352.0</ele><time>2026-05-03T16:09:15Z</time></trkpt><trkpt lat="43.265535181787534" lon="12.675323650009402"><ele>352.0</ele><time>2026-05-03T16:09:16Z</time></trkpt><trkpt lat="43.26537805717296" lon="12.675494094830531"><ele>352.0</ele><time>2026-05-03T16:09:17Z</time></trkpt><trkpt lat="43.265223483776225" lon="12.675671902929349"><ele>352.0</ele><time>2026-05-03T16:09:18Z</time></trkpt><trkpt lat="43.265067702989114" lon="12.675842125055746"><ele>352.0</ele><time>2026-05-03T16:09:19Z</time></trkpt><trkpt lat="43.26490822675376" lon="12.67601935877526"><ele>352.66666666666663</ele><time>2026-05-03T16:09:20Z</time></trkpt><trkpt lat="43.26475099929532" lon="12.676187654750155"><ele>353.3333333333333</ele><time>2026-05-03T16:09:21Z</time></trkpt><trkpt lat="43.26459936866288" lon="12.676363718660422"><ele>354.0</ele><time>2026-05-03T16:09:22Z</time></trkpt><trkpt lat="43.26444618623923" lon="12.676541787303734"><ele>354.0</ele><time>2026-05-03T16:09:23Z</time></trkpt><trkpt lat="43.26428909406663" lon="12.676715931716458"><ele>354.0</ele><time>2026-05-03T16:09:24Z</time></trkpt><trkpt lat="43.26413252876188" lon="12.676890803030215"><ele>354.0</ele><time>2026-05-03T16:09:25Z</time></trkpt><trkpt lat="43.263973792947276" lon="12.677071717210499"><ele>352.3333333333333</ele><time>2026-05-03T16:09:26Z</time></trkpt><trkpt lat="43.26381522562625" lon="12.677254041966542"><ele>350.66666666666663</ele><time>2026-05-03T16:09:27Z</time></trkpt><trkpt lat="43.26365376017464" lon="12.677427209287174"><ele>349.0</ele><time>2026-05-03T16:09:28Z</time></trkpt><trkpt lat="43.26349326117183" lon="12.67759983439661"><ele>349.0</ele><time>2026-05-03T16:09:29Z</time></trkpt><trkpt lat="43.263335557165135" lon="12.677760838630219"><ele>349.0</ele><time>2026-05-03T16:09:30Z</time></trkpt><trkpt lat="43.26318246935205" lon="12.677929867701547"><ele>349.0</ele><time>2026-05-03T16:09:31Z</time></trkpt><trkpt lat="43.26303259457674" lon="12.678097664459365"><ele>348.66666666666663</ele><time>2026-05-03T16:09:32Z</time></trkpt><trkpt lat="43.26288308653262" lon="12.67826494401011"><ele>348.3333333333333</ele><time>2026-05-03T16:09:33Z</time></trkpt><trkpt lat="43.26273215022325" lon="12.67843178495957"><ele>348.0</ele><time>2026-05-03T16:09:34Z</time></trkpt><trkpt lat="43.26258069226734" lon="12.678596052337662"><ele>348.3333333333333</ele><time>2026-05-03T16:09:35Z</time></trkpt><trkpt lat="43.262425352411064" lon="12.678764575251524"><ele>348.66666666666663</ele><time>2026-05-03T16:09:36Z</time></trkpt><trkpt lat="43.262316351734356" lon="12.67898150244251"><ele>349.0</ele><time>2026-05-03T16:09:37Z</time></trkpt><trkpt lat="43.26220403585081" lon="12.679195451632296"><ele>349.0</ele><time>2026-05-03T16:09:38Z</time></trkpt><trkpt lat="43.26209225208022" lon="12.679408387206982"><ele>349.0</ele><time>2026-05-03T16:09:39Z</time></trkpt><trkpt lat="43.26180642831888" lon="12.679453566920321"><ele>349.0</ele><time>2026-05-03T16:09:40Z</time></trkpt><trkpt lat="43.261651105120485" lon="12.67962258221241"><ele>349.0</ele><time>2026-05-03T16:09:41Z</time></trkpt><trkpt lat="43.261497513732735" lon="12.679790548157683"><ele>349.0</ele><time>2026-05-03T16:09:42Z</time></trkpt><trkpt lat="43.2613473567943" lon="12.679957557099657"><ele>349.0</ele><time>2026-05-03T16:09:43Z</time></trkpt><trkpt lat="43.261196497736485" lon="12.680125854633559"><ele>349.0</ele><time>2026-05-03T16:09:44Z</time></trkpt><trkpt lat="43.26104617970397" lon="12.680292074355382"><ele>349.0</ele><time>2026-05-03T16:09:45Z</time></trkpt><trkpt lat="43.260896649500275" lon="12.680453873835651"><ele>349.0</ele><time>2026-05-03T16:09:46Z</time></trkpt><trkpt lat="43.26074571508162" lon="12.680618835016778"><ele>349.0</ele><time>2026-05-03T16:09:47Z</time></trkpt><trkpt lat="43.26059645566646" lon="12.680782921500255"><ele>349.0</ele><time>2026-05-03T16:09:48Z</time></trkpt><trkpt lat="43.26044640269919" lon="12.680950336892606"><ele>349.66666666666663</ele><time>2026-05-03T16:09:49Z</time></trkpt><trkpt lat="43.26029439624704" lon="12.681119270166295"><ele>350.3333333333333</ele><time>2026-05-03T16:09:49.999Z</time></trkpt><trkpt lat="43.26014127288168" lon="12.681288541104825"><ele>351.0</ele><time>2026-05-03T16:09:50.999Z</time></trkpt><trkpt lat="43.25998466191605" lon="12.68145742263837"><ele>351.0</ele><time>2026-05-03T16:09:51.999Z</time></trkpt><trkpt lat="43.2598282892437" lon="12.681628186746568"><ele>351.0</ele><time>2026-05-03T16:09:52.999Z</time></trkpt><trkpt lat="43.25967279633936" lon="12.681800677572795"><ele>351.0</ele><time>2026-05-03T16:09:53.999Z</time></trkpt><trkpt lat="43.25951493588944" lon="12.681973283732944"><ele>351.3333333333333</ele><time>2026-05-03T16:09:54.999Z</time></trkpt><trkpt lat="43.25936213369274" lon="12.682140338529365"><ele>351.66666666666663</ele><time>2026-05-03T16:09:55.999Z</time></trkpt><trkpt lat="43.25921644857387" lon="12.682298225491433"><ele>352.0</ele><time>2026-05-03T16:09:56.999Z</time></trkpt><trkpt lat="43.25908091261645" lon="12.682445807441187"><ele>355.0</ele><time>2026-05-03T16:09:57.999Z</time></trkpt><trkpt lat="43.258948053747154" lon="12.68259037221206"><ele>358.0</ele><time>2026-05-03T16:09:58.999Z</time></trkpt><trkpt lat="43.25881889579539" lon="12.682730307917627"><ele>361.0</ele><time>2026-05-03T16:09:59.999Z</time></trkpt><trkpt lat="43.25869304517651" lon="12.682864972768549"><ele>361.0</ele><time>2026-05-03T16:10:00.999Z</time></trkpt><trkpt lat="43.25857501138319" lon="12.68300414628279"><ele>361.0</ele><time>2026-05-03T16:10:01.999Z</time></trkpt><trkpt lat="43.258469765983776" lon="12.683149830891418"><ele>361.0</ele><time>2026-05-03T16:10:02.999Z</time></trkpt><trkpt lat="43.25837489295823" lon="12.68330192220089"><ele>361.0</ele><time>2026-05-03T16:10:03.999Z</time></trkpt><trkpt lat="43.25829508229617" lon="12.68346536789117"><ele>361.0</ele><time>2026-05-03T16:10:04.999Z</time></trkpt><trkpt lat="43.25823970153005" lon="12.683633289761737"><ele>361.0</ele><time>2026-05-03T16:10:05.999Z</time></trkpt><trkpt lat="43.258203687578096" lon="12.683814612433114"><ele>361.0</ele><time>2026-05-03T16:10:06.999Z</time></trkpt><trkpt lat="43.258190624074174" lon="12.683999065775435"><ele>362.5</ele><time>2026-05-03T16:10:07.999Z</time></trkpt><trkpt lat="43.25819811303593" lon="12.684182097512556"><ele>364.0</ele><time>2026-05-03T16:10:08.999Z</time></trkpt><trkpt lat="43.2582240349345" lon="12.684366049345071"><ele>365.5</ele><time>2026-05-03T16:10:09.999Z</time></trkpt><trkpt lat="43.258269049907604" lon="12.684539903543117"><ele>367.0</ele><time>2026-05-03T16:10:10.999Z</time></trkpt><trkpt lat="43.258335528803784" lon="12.68470369154777"><ele>369.75</ele><time>2026-05-03T16:10:11.999Z</time></trkpt><trkpt lat="43.25841763446792" lon="12.684858255690893"><ele>372.5</ele><time>2026-05-03T16:10:12.999Z</time></trkpt><trkpt lat="43.25851302386368" lon="12.684996911035977"><ele>375.25</ele><time>2026-05-03T16:10:13.999Z</time></trkpt><trkpt lat="43.258627562606236" lon="12.685110632376047"><ele>378.0</ele><time>2026-05-03T16:10:14.999Z</time></trkpt><trkpt lat="43.25875779229368" lon="12.685201140995208"><ele>378.0</ele><time>2026-05-03T16:10:15.999Z</time></trkpt><trkpt lat="43.258893331254654" lon="12.68525994989018"><ele>378.0</ele><time>2026-05-03T16:10:16.999Z</time></trkpt><trkpt lat="43.25903407215305" lon="12.685292578914705"><ele>378.0</ele><time>2026-05-03T16:10:17.999Z</time></trkpt><trkpt lat="43.25917869195742" lon="12.685305621952766"><ele>378.0</ele><time>2026-05-03T16:10:18.999Z</time></trkpt><trkpt lat="43.25932161706829" lon="12.685306472332083"><ele>377.25</ele><time>2026-05-03T16:10:19.999Z</time></trkpt><trkpt lat="43.25946693368419" lon="12.685318123491147"><ele>376.5</ele><time>2026-05-03T16:10:20.999Z</time></trkpt><trkpt lat="43.25960732790442" lon="12.685355500457915"><ele>375.75</ele><time>2026-05-03T16:10:21.999Z</time></trkpt><trkpt lat="43.25974795281788" lon="12.685417617600152"><ele>375.0</ele><time>2026-05-03T16:10:22.999Z</time></trkpt><trkpt lat="43.25987940808438" lon="12.685504669260471"><ele>369.0</ele><time>2026-05-03T16:10:23.999Z</time></trkpt><trkpt lat="43.260003167068334" lon="12.685617585387693"><ele>363.0</ele><time>2026-05-03T16:10:24.999Z</time></trkpt><trkpt lat="43.260116336149935" lon="12.685755887891895"><ele>357.0</ele><time>2026-05-03T16:10:25.999Z</time></trkpt><trkpt lat="43.26021198751672" lon="12.685914014348038"><ele>357.0</ele><time>2026-05-03T16:10:26.999Z</time></trkpt><trkpt lat="43.26030073254738" lon="12.686085265176212"><ele>357.0</ele><time>2026-05-03T16:10:27.999Z</time></trkpt><trkpt lat="43.26037823787594" lon="12.686265695561893"><ele>357.0</ele><time>2026-05-03T16:10:28.999Z</time></trkpt><trkpt lat="43.26045193366667" lon="12.686453465981783"><ele>357.6666666666667</ele><time>2026-05-03T16:10:29.999Z</time></trkpt><trkpt lat="43.26053189743155" lon="12.686643365711928"><ele>358.33333333333337</ele><time>2026-05-03T16:10:30.999Z</time></trkpt><trkpt lat="43.26061483001785" lon="12.686835480437365"><ele>359.0</ele><time>2026-05-03T16:10:31.999Z</time></trkpt><trkpt lat="43.26069971974605" lon="12.687032919573168"><ele>359.0</ele><time>2026-05-03T16:10:32.999Z</time></trkpt><trkpt lat="43.26078803223798" lon="12.687241946393993"><ele>359.0</ele><time>2026-05-03T16:10:33.999Z</time></trkpt><trkpt lat="43.260870493957285" lon="12.687447872087164"><ele>359.0</ele><time>2026-05-03T16:10:34.999Z</time></trkpt><trkpt lat="43.26095244279038" lon="12.687665656390113"><ele>362.33333333333337</ele><time>2026-05-03T16:10:35.999Z</time></trkpt><trkpt lat="43.26104201552639" lon="12.687882931484793"><ele>365.6666666666667</ele><time>2026-05-03T16:10:36.999Z</time></trkpt><trkpt lat="43.26113001337518" lon="12.688098334898026"><ele>369.0</ele><time>2026-05-03T16:10:37.999Z</time></trkpt><trkpt lat="43.26122014136321" lon="12.688326661688913"><ele>369.0</ele><time>2026-05-03T16:10:38.999Z</time></trkpt><trkpt lat="43.2613032746567" lon="12.688560886314642"><ele>369.0</ele><time>2026-05-03T16:10:39.999Z</time></trkpt><trkpt lat="43.261396419052474" lon="12.688801830302737"><ele>369.0</ele><time>2026-05-03T16:10:40.999Z</time></trkpt><trkpt lat="43.2614864832967" lon="12.689049748220851"><ele>366.0</ele><time>2026-05-03T16:10:41.999Z</time></trkpt><trkpt lat="43.2615789628933" lon="12.689295602496816"><ele>363.0</ele><time>2026-05-03T16:10:42.999Z</time></trkpt><trkpt lat="43.26166345070879" lon="12.68953740192543"><ele>360.0</ele><time>2026-05-03T16:10:43.999Z</time></trkpt><trkpt lat="43.26175126105447" lon="12.689779362534159"><ele>360.0</ele><time>2026-05-03T16:10:44.999Z</time></trkpt><trkpt lat="43.261842301737424" lon="12.690031081893315"><ele>360.0</ele><time>2026-05-03T16:10:45.999Z</time></trkpt><trkpt lat="43.26193580352775" lon="12.690284657190736"><ele>360.0</ele><time>2026-05-03T16:10:46.999Z</time></trkpt><trkpt lat="43.26203303333433" lon="12.690544745571154"><ele>360.3333333333333</ele><time>2026-05-03T16:10:47.999Z</time></trkpt><trkpt lat="43.26213005945256" lon="12.690803305479447"><ele>360.66666666666663</ele><time>2026-05-03T16:10:48.999Z</time></trkpt><trkpt lat="43.26222216907219" lon="12.691057496055413"><ele>361.0</ele><time>2026-05-03T16:10:49.999Z</time></trkpt><trkpt lat="43.26232424695064" lon="12.691313136147022"><ele>359.3333333333333</ele><time>2026-05-03T16:10:50.999Z</time></trkpt><trkpt lat="43.26241403656223" lon="12.691563827912763"><ele>357.6666666666667</ele><time>2026-05-03T16:10:51.999Z</time></trkpt><trkpt lat="43.26250597483678" lon="12.691814862804735"><ele>356.0</ele><time>2026-05-03T16:10:52.999Z</time></trkpt><trkpt lat="43.26259645063606" lon="12.692063095682043"><ele>356.0</ele><time>2026-05-03T16:10:53.999Z</time></trkpt><trkpt lat="43.26268895542038" lon="12.692318253544617"><ele>356.0</ele><time>2026-05-03T16:10:54.999Z</time></trkpt><trkpt lat="43.262783021189485" lon="12.692568653139514"><ele>356.0</ele><time>2026-05-03T16:10:55.999Z</time></trkpt><trkpt lat="43.26288200107287" lon="12.692819922406676"><ele>356.6666666666667</ele><time>2026-05-03T16:10:56.999Z</time></trkpt><trkpt lat="43.26297683942429" lon="12.69306966739013"><ele>357.3333333333333</ele><time>2026-05-03T16:10:57.999Z</time></trkpt><trkpt lat="43.26306209352309" lon="12.693322618432243"><ele>358.0</ele><time>2026-05-03T16:10:58.999Z</time></trkpt><trkpt lat="43.26319858243626" lon="12.693566935131848"><ele>359.3333333333333</ele><time>2026-05-03T16:10:59.999Z</time></trkpt><trkpt lat="43.26331068375699" lon="12.693806988896101"><ele>360.6666666666667</ele><time>2026-05-03T16:11:00.999Z</time></trkpt><trkpt lat="43.26343268765231" lon="12.694038385047325"><ele>362.0</ele><time>2026-05-03T16:11:01.999Z</time></trkpt><trkpt lat="43.26355616981875" lon="12.694262069758288"><ele>361.33333333333337</ele><time>2026-05-03T16:11:02.999Z</time></trkpt><trkpt lat="43.26368945867161" lon="12.69447492696928"><ele>360.6666666666667</ele><time>2026-05-03T16:11:03.998Z</time></trkpt><trkpt lat="43.26382756081608" lon="12.694682066685191"><ele>360.0</ele><time>2026-05-03T16:11:04.998Z</time></trkpt><trkpt lat="43.26396776713639" lon="12.69488236039866"><ele>360.0</ele><time>2026-05-03T16:11:05.998Z</time></trkpt><trkpt lat="43.26411902438709" lon="12.695079460785655"><ele>360.0</ele><time>2026-05-03T16:11:06.998Z</time></trkpt><trkpt lat="43.26426096190554" lon="12.695294608220147"><ele>360.0</ele><time>2026-05-03T16:11:07.998Z</time></trkpt><trkpt lat="43.264413163845546" lon="12.695495888779119"><ele>362.3333333333333</ele><time>2026-05-03T16:11:08.998Z</time></trkpt><trkpt lat="43.26461819676219" lon="12.695620772963622"><ele>364.66666666666663</ele><time>2026-05-03T16:11:09.998Z</time></trkpt><trkpt lat="43.26479323148356" lon="12.695779841452833"><ele>367.0</ele><time>2026-05-03T16:11:10.998Z</time></trkpt><trkpt lat="43.264969370670336" lon="12.695931185905533"><ele>367.0</ele><time>2026-05-03T16:11:12Z</time></trkpt><trkpt lat="43.26515451406971" lon="12.696080646460741"><ele>367.0</ele><time>2026-05-03T16:11:13Z</time></trkpt><trkpt lat="43.265344545390754" lon="12.696217995302776"><ele>367.0</ele><time>2026-05-03T16:11:14Z</time></trkpt><trkpt lat="43.26553464001331" lon="12.69635965338663"><ele>366.3333333333333</ele><time>2026-05-03T16:11:15Z</time></trkpt><trkpt lat="43.26572318976402" lon="12.69650159731026"><ele>365.6666666666667</ele><time>2026-05-03T16:11:16Z</time></trkpt><trkpt lat="43.26591648736266" lon="12.69665445977956"><ele>365.0</ele><time>2026-05-03T16:11:17Z</time></trkpt><trkpt lat="43.26610864509297" lon="12.696808120949132"><ele>365.0</ele><time>2026-05-03T16:11:18Z</time></trkpt><trkpt lat="43.26630281055677" lon="12.69695941512179"><ele>365.0</ele><time>2026-05-03T16:11:19Z</time></trkpt><trkpt lat="43.26648710182207" lon="12.697112670043863"><ele>365.0</ele><time>2026-05-03T16:11:20Z</time></trkpt><trkpt lat="43.2666678497033" lon="12.69724836366455"><ele>365.0</ele><time>2026-05-03T16:11:21Z</time></trkpt><trkpt lat="43.2668460032826" lon="12.697374737032675"><ele>365.0</ele><time>2026-05-03T16:11:22Z</time></trkpt><trkpt lat="43.267029271119625" lon="12.69751919203712"><ele>365.0</ele><time>2026-05-03T16:11:23Z</time></trkpt><trkpt lat="43.2672095234906" lon="12.697671403935784"><ele>364.0</ele><time>2026-05-03T16:11:24Z</time></trkpt><trkpt lat="43.26738776284223" lon="12.697830402920072"><ele>363.0</ele><time>2026-05-03T16:11:25Z</time></trkpt><trkpt lat="43.26756190318302" lon="12.698001243120261"><ele>362.0</ele><time>2026-05-03T16:11:26Z</time></trkpt><trkpt lat="43.26773136454507" lon="12.698182616847712"><ele>362.0</ele><time>2026-05-03T16:11:27Z</time></trkpt><trkpt lat="43.26789538044987" lon="12.698371664011447"><ele>362.0</ele><time>2026-05-03T16:11:28Z</time></trkpt><trkpt lat="43.26805484782087" lon="12.698570632641236"><ele>362.0</ele><time>2026-05-03T16:11:29Z</time></trkpt><trkpt lat="43.26821132229091" lon="12.69877615115928"><ele>362.0</ele><time>2026-05-03T16:11:30Z</time></trkpt><trkpt lat="43.268361077454145" lon="12.698989862660142"><ele>362.0</ele><time>2026-05-03T16:11:31Z</time></trkpt><trkpt lat="43.26849986903848" lon="12.699211454729017"><ele>362.0</ele><time>2026-05-03T16:11:32Z</time></trkpt><trkpt lat="43.26863365319409" lon="12.699440612594232"><ele>362.0</ele><time>2026-05-03T16:11:33Z</time></trkpt><trkpt lat="43.26876112516524" lon="12.699676244225428"><ele>362.0</ele><time>2026-05-03T16:11:34Z</time></trkpt><trkpt lat="43.26887952872594" lon="12.699918928544664"><ele>362.0</ele><time>2026-05-03T16:11:35Z</time></trkpt><trkpt lat="43.26898948650215" lon="12.700171149578951"><ele>363.6666666666667</ele><time>2026-05-03T16:11:36Z</time></trkpt><trkpt lat="43.26909393050492" lon="12.700428056517929"><ele>365.3333333333333</ele><time>2026-05-03T16:11:37Z</time></trkpt><trkpt lat="43.2691921197156" lon="12.700689649643678"><ele>367.0</ele><time>2026-05-03T16:11:38Z</time></trkpt><trkpt lat="43.26928191424079" lon="12.700955943316592"><ele>368.3333333333333</ele><time>2026-05-03T16:11:39Z</time></trkpt><trkpt lat="43.269366119843596" lon="12.70122447848628"><ele>369.6666666666667</ele><time>2026-05-03T16:11:40Z</time></trkpt><trkpt lat="43.269446454641006" lon="12.701496580072787"><ele>371.0</ele><time>2026-05-03T16:11:41Z</time></trkpt><trkpt lat="43.26952484136648" lon="12.701769492904672"><ele>372.6666666666667</ele><time>2026-05-03T16:11:42Z</time></trkpt><trkpt lat="43.26960491256207" lon="12.702045509221838"><ele>374.3333333333333</ele><time>2026-05-03T16:11:43Z</time></trkpt><trkpt lat="43.26968358564559" lon="12.702319280738836"><ele>376.0</ele><time>2026-05-03T16:11:44Z</time></trkpt><trkpt lat="43.26976371157686" lon="12.702591899800238"><ele>372.66666666666663</ele><time>2026-05-03T16:11:45Z</time></trkpt><trkpt lat="43.26984995079395" lon="12.702876311786646"><ele>369.3333333333333</ele><time>2026-05-03T16:11:46Z</time></trkpt><trkpt lat="43.26993202278204" lon="12.703162146253575"><ele>366.0</ele><time>2026-05-03T16:11:47Z</time></trkpt><trkpt lat="43.27001305399521" lon="12.703451073008761"><ele>367.5</ele><time>2026-05-03T16:11:48Z</time></trkpt><trkpt lat="43.27009571406175" lon="12.70374452530268"><ele>369.0</ele><time>2026-05-03T16:11:49Z</time></trkpt><trkpt lat="43.27017295229849" lon="12.704034947193035"><ele>369.0</ele><time>2026-05-03T16:11:50Z</time></trkpt><trkpt lat="43.270252161280006" lon="12.70432675865953"><ele>369.0</ele><time>2026-05-03T16:11:51Z</time></trkpt><trkpt lat="43.27033316324095" lon="12.704615050795304"><ele>372.0</ele><time>2026-05-03T16:11:52Z</time></trkpt><trkpt lat="43.270414360003535" lon="12.70490204922824"><ele>375.0</ele><time>2026-05-03T16:11:53Z</time></trkpt><trkpt lat="43.270491827560825" lon="12.705186840872246"><ele>378.0</ele><time>2026-05-03T16:11:54Z</time></trkpt><trkpt lat="43.27057017861704" lon="12.705474034544094"><ele>375.0</ele><time>2026-05-03T16:11:55Z</time></trkpt><trkpt lat="43.27064709610551" lon="12.705756699393614"><ele>372.0</ele><time>2026-05-03T16:11:56Z</time></trkpt><trkpt lat="43.27072691361429" lon="12.706037666558208"><ele>369.0</ele><time>2026-05-03T16:11:57Z</time></trkpt><trkpt lat="43.270813078182016" lon="12.706311644721447"><ele>369.0</ele><time>2026-05-03T16:11:58Z</time></trkpt><trkpt lat="43.270909053105775" lon="12.706581449620028"><ele>369.0</ele><time>2026-05-03T16:11:59Z</time></trkpt><trkpt lat="43.27101238432989" lon="12.706845707051265"><ele>369.0</ele><time>2026-05-03T16:12:00Z</time></trkpt><trkpt lat="43.271122307797086" lon="12.707105547701284"><ele>370.6666666666667</ele><time>2026-05-03T16:12:01Z</time></trkpt><trkpt lat="43.27124236030198" lon="12.707358033261084"><ele>372.33333333333337</ele><time>2026-05-03T16:12:01.999Z</time></trkpt><trkpt lat="43.27137029252098" lon="12.707605860567664"><ele>374.0</ele><time>2026-05-03T16:12:02.999Z</time></trkpt><trkpt lat="43.27150419649663" lon="12.707846454840602"><ele>374.0</ele><time>2026-05-03T16:12:03.999Z</time></trkpt><trkpt lat="43.2716465160554" lon="12.708077035409278"><ele>374.0</ele><time>2026-05-03T16:12:04.999Z</time></trkpt><trkpt lat="43.271796208430125" lon="12.708301723977923"><ele>374.0</ele><time>2026-05-03T16:12:05.999Z</time></trkpt><trkpt lat="43.271952025517955" lon="12.708519922561889"><ele>373.33333333333337</ele><time>2026-05-03T16:12:06.999Z</time></trkpt><trkpt lat="43.27211052928288" lon="12.708724726997673"><ele>372.6666666666667</ele><time>2026-05-03T16:12:07.999Z</time></trkpt><trkpt lat="43.272271243833316" lon="12.70891407848493"><ele>372.0</ele><time>2026-05-03T16:12:08.999Z</time></trkpt><trkpt lat="43.27243233461488" lon="12.709087446812719"><ele>372.0</ele><time>2026-05-03T16:12:09.999Z</time></trkpt><trkpt lat="43.272592114589926" lon="12.709249565905514"><ele>372.0</ele><time>2026-05-03T16:12:10.999Z</time></trkpt><trkpt lat="43.27274383958051" lon="12.70940038806803"><ele>372.0</ele><time>2026-05-03T16:12:11.999Z</time></trkpt><trkpt lat="43.272891646595774" lon="12.709538193429312"><ele>372.0</ele><time>2026-05-03T16:12:12.999Z</time></trkpt><trkpt lat="43.27303396945237" lon="12.709665333583182"><ele>372.0</ele><time>2026-05-03T16:12:13.999Z</time></trkpt><trkpt lat="43.273167847488914" lon="12.709785917877063"><ele>372.0</ele><time>2026-05-03T16:12:14.999Z</time></trkpt><trkpt lat="43.27329726907904" lon="12.709901107468122"><ele>372.0</ele><time>2026-05-03T16:12:15.999Z</time></trkpt><trkpt lat="43.27342455736687" lon="12.710009604898046"><ele>372.0</ele><time>2026-05-03T16:12:16.999Z</time></trkpt><trkpt lat="43.273549203368944" lon="12.71011217541049"><ele>372.0</ele><time>2026-05-03T16:12:17.999Z</time></trkpt><trkpt lat="43.27367580903086" lon="12.710202728340118"><ele>372.0</ele><time>2026-05-03T16:12:18.999Z</time></trkpt><trkpt lat="43.27380249431576" lon="12.710288744876937"><ele>373.25</ele><time>2026-05-03T16:12:19.999Z</time></trkpt><trkpt lat="43.273925907545035" lon="12.710392804469134"><ele>374.5</ele><time>2026-05-03T16:12:20.999Z</time></trkpt><trkpt lat="43.27404434886505" lon="12.710517756500916"><ele>375.75</ele><time>2026-05-03T16:12:21.999Z</time></trkpt><trkpt lat="43.27416374555611" lon="12.710651233118607"><ele>377.0</ele><time>2026-05-03T16:12:22.999Z</time></trkpt><trkpt lat="43.2742887681742" lon="12.710787087717172"><ele>377.0</ele><time>2026-05-03T16:12:23.999Z</time></trkpt><trkpt lat="43.27441748984724" lon="12.710925648804098"><ele>377.0</ele><time>2026-05-03T16:12:24.999Z</time></trkpt><trkpt lat="43.27454222618884" lon="12.711073192223507"><ele>377.0</ele><time>2026-05-03T16:12:25.999Z</time></trkpt><trkpt lat="43.2746688064308" lon="12.711230891509356"><ele>377.33333333333337</ele><time>2026-05-03T16:12:26.999Z</time></trkpt><trkpt lat="43.274797533076736" lon="12.711404223471355"><ele>377.6666666666667</ele><time>2026-05-03T16:12:27.999Z</time></trkpt><trkpt lat="43.27492552790612" lon="12.711591197832643"><ele>378.0</ele><time>2026-05-03T16:12:28.999Z</time></trkpt><trkpt lat="43.27505489140815" lon="12.711790365927955"><ele>382.66666666666663</ele><time>2026-05-03T16:12:29.999Z</time></trkpt><trkpt lat="43.27518605319365" lon="12.712005497575776"><ele>387.3333333333333</ele><time>2026-05-03T16:12:30.999Z</time></trkpt><trkpt lat="43.275308011468354" lon="12.712237557468189"><ele>392.0</ele><time>2026-05-03T16:12:31.999Z</time></trkpt><trkpt lat="43.27541242912482" lon="12.712481224381259"><ele>393.0</ele><time>2026-05-03T16:12:32.999Z</time></trkpt><trkpt lat="43.27551070090402" lon="12.712740957486554"><ele>394.0</ele><time>2026-05-03T16:12:33.999Z</time></trkpt><trkpt lat="43.27560367547203" lon="12.712991619908452"><ele>395.0</ele><time>2026-05-03T16:12:34.999Z</time></trkpt><trkpt lat="43.27570579156295" lon="12.713209584901454"><ele>392.0</ele><time>2026-05-03T16:12:35.999Z</time></trkpt><trkpt lat="43.275864689536725" lon="12.71349937945408"><ele>389.0</ele><time>2026-05-03T16:12:36.999Z</time></trkpt><trkpt lat="43.27606314041523" lon="12.713732415857658"><ele>388.5</ele><time>2026-05-03T16:12:37.999Z</time></trkpt><trkpt lat="43.27621534213383" lon="12.713991253444943"><ele>388.0</ele><time>2026-05-03T16:12:38.999Z</time></trkpt><trkpt lat="43.27621635399202" lon="12.714456497364774"><ele>387.0</ele><time>2026-05-03T16:12:39.999Z</time></trkpt><trkpt lat="43.276267334241155" lon="12.714799698015744"><ele>386.0</ele><time>2026-05-03T16:12:40.999Z</time></trkpt><trkpt lat="43.27628415347445" lon="12.715163404488482"><ele>385.5</ele><time>2026-05-03T16:12:41.999Z</time></trkpt><trkpt lat="43.276364898010556" lon="12.71549095611187"><ele>385.0</ele><time>2026-05-03T16:12:42.999Z</time></trkpt><trkpt lat="43.27644496595807" lon="12.715815763051838"><ele>386.0</ele><time>2026-05-03T16:12:43.999Z</time></trkpt><trkpt lat="43.27653891345384" lon="12.71613446869905"><ele>387.0</ele><time>2026-05-03T16:12:44.999Z</time></trkpt><trkpt lat="43.2766159880239" lon="12.716459006087613"><ele>387.0</ele><time>2026-05-03T16:12:45.999Z</time></trkpt><trkpt lat="43.27669316648665" lon="12.716775707260824"><ele>387.0</ele><time>2026-05-03T16:12:46.999Z</time></trkpt><trkpt lat="43.27676767820725" lon="12.717085190022768"><ele>388.5</ele><time>2026-05-03T16:12:47.999Z</time></trkpt><trkpt lat="43.276840414108776" lon="12.717392479053258"><ele>390.0</ele><time>2026-05-03T16:12:48.999Z</time></trkpt><trkpt lat="43.27691510594165" lon="12.717694628630696"><ele>391.66666666666663</ele><time>2026-05-03T16:12:49.999Z</time></trkpt><trkpt lat="43.276990002489306" lon="12.717990632311706"><ele>393.3333333333333</ele><time>2026-05-03T16:12:50.999Z</time></trkpt><trkpt lat="43.277065776142884" lon="12.718275384259274"><ele>395.0</ele><time>2026-05-03T16:12:51.999Z</time></trkpt><trkpt lat="43.277142899021804" lon="12.718556396115877"><ele>396.66666666666663</ele><time>2026-05-03T16:12:52.999Z</time></trkpt><trkpt lat="43.27722873125652" lon="12.718833803897642"><ele>398.33333333333337</ele><time>2026-05-03T16:12:53.999Z</time></trkpt><trkpt lat="43.27731371580101" lon="12.719117533181171"><ele>400.0</ele><time>2026-05-03T16:12:54.999Z</time></trkpt><trkpt lat="43.27743810517745" lon="12.719374421474004"><ele>403.0</ele><time>2026-05-03T16:12:55.999Z</time></trkpt><trkpt lat="43.277555919212475" lon="12.71964451602188"><ele>406.0</ele><time>2026-05-03T16:12:56.999Z</time></trkpt><trkpt lat="43.277687695499566" lon="12.7199142092753"><ele>406.0</ele><time>2026-05-03T16:12:57.999Z</time></trkpt><trkpt lat="43.27782405127023" lon="12.72017825806101"><ele>406.0</ele><time>2026-05-03T16:12:58.999Z</time></trkpt><trkpt lat="43.27797285063976" lon="12.72042472641762"><ele>404.5</ele><time>2026-05-03T16:12:59.999Z</time></trkpt><trkpt lat="43.278124945352424" lon="12.72066936880182"><ele>403.0</ele><time>2026-05-03T16:13:00.999Z</time></trkpt><trkpt lat="43.27828938213955" lon="12.720905661841531"><ele>400.0</ele><time>2026-05-03T16:13:01.999Z</time></trkpt><trkpt lat="43.2784715375347" lon="12.721116390837883"><ele>397.0</ele><time>2026-05-03T16:13:02.999Z</time></trkpt><trkpt lat="43.27864709148315" lon="12.721330790867865"><ele>397.0</ele><time>2026-05-03T16:13:03.999Z</time></trkpt><trkpt lat="43.278816895893584" lon="12.721546872102305"><ele>397.0</ele><time>2026-05-03T16:13:04.999Z</time></trkpt><trkpt lat="43.279004812701544" lon="12.72173494799371"><ele>396.0</ele><time>2026-05-03T16:13:05.999Z</time></trkpt><trkpt lat="43.27919858667881" lon="12.721911541889405"><ele>395.0</ele><time>2026-05-03T16:13:06.999Z</time></trkpt><trkpt lat="43.27940001194804" lon="12.722078102842714"><ele>395.0</ele><time>2026-05-03T16:13:07.999Z</time></trkpt><trkpt lat="43.27960188838687" lon="12.722235601024236"><ele>395.0</ele><time>2026-05-03T16:13:08.999Z</time></trkpt><trkpt lat="43.27981532399146" lon="12.722373947824405"><ele>394.5</ele><time>2026-05-03T16:13:09.999Z</time></trkpt><trkpt lat="43.28003066382862" lon="12.722523962899565"><ele>394.0</ele><time>2026-05-03T16:13:10.999Z</time></trkpt><trkpt lat="43.28025013263958" lon="12.72266572296026"><ele>392.5</ele><time>2026-05-03T16:13:11.999Z</time></trkpt><trkpt lat="43.280466446865894" lon="12.722804616086362"><ele>391.0</ele><time>2026-05-03T16:13:12.999Z</time></trkpt><trkpt lat="43.280680912579214" lon="12.722948921393554"><ele>389.5</ele><time>2026-05-03T16:13:13.999Z</time></trkpt><trkpt lat="43.28088122279691" lon="12.72309884693691"><ele>388.0</ele><time>2026-05-03T16:13:14.999Z</time></trkpt><trkpt lat="43.281083611330914" lon="12.723228116408006"><ele>388.0</ele><time>2026-05-03T16:13:15.999Z</time></trkpt><trkpt lat="43.2812758845346" lon="12.723357938200403"><ele>388.0</ele><time>2026-05-03T16:13:16.998Z</time></trkpt><trkpt lat="43.28145777806194" lon="12.72348733876159"><ele>388.0</ele><time>2026-05-03T16:13:18Z</time></trkpt><trkpt lat="43.281649971050065" lon="12.723611697476121"><ele>385.33333333333337</ele><time>2026-05-03T16:13:19Z</time></trkpt><trkpt lat="43.28183907756572" lon="12.723732395684165"><ele>382.6666666666667</ele><time>2026-05-03T16:13:20Z</time></trkpt><trkpt lat="43.28202641985409" lon="12.723857522341413"><ele>380.0</ele><time>2026-05-03T16:13:21Z</time></trkpt><trkpt lat="43.28221450375113" lon="12.723984465272498"><ele>380.6666666666667</ele><time>2026-05-03T16:13:22Z</time></trkpt><trkpt lat="43.28240056378756" lon="12.724108158594202"><ele>381.3333333333333</ele><time>2026-05-03T16:13:23Z</time></trkpt><trkpt lat="43.28259043057781" lon="12.724229347465739"><ele>382.0</ele><time>2026-05-03T16:13:24Z</time></trkpt><trkpt lat="43.28277637599994" lon="12.72435223610664"><ele>382.3333333333333</ele><time>2026-05-03T16:13:25Z</time></trkpt><trkpt lat="43.282961114836205" lon="12.724476930869994"><ele>382.6666666666667</ele><time>2026-05-03T16:13:26Z</time></trkpt><trkpt lat="43.28313892921692" lon="12.724608528062687"><ele>383.0</ele><time>2026-05-03T16:13:27Z</time></trkpt><trkpt lat="43.28334080733479" lon="12.724728044785243"><ele>382.6666666666667</ele><time>2026-05-03T16:13:28Z</time></trkpt><trkpt lat="43.28353647096341" lon="12.724857461635908"><ele>382.3333333333333</ele><time>2026-05-03T16:13:29Z</time></trkpt><trkpt lat="43.28373603633096" lon="12.724988067648235"><ele>382.0</ele><time>2026-05-03T16:13:30Z</time></trkpt><trkpt lat="43.28393482779825" lon="12.725124570030813"><ele>383.66666666666663</ele><time>2026-05-03T16:13:31Z</time></trkpt><trkpt lat="43.28413147638444" lon="12.725262272590339"><ele>385.3333333333333</ele><time>2026-05-03T16:13:32Z</time></trkpt><trkpt lat="43.28432664312648" lon="12.725402012334087"><ele>387.0</ele><time>2026-05-03T16:13:33Z</time></trkpt><trkpt lat="43.284507176508825" lon="12.725535591619629"><ele>387.0</ele><time>2026-05-03T16:13:34Z</time></trkpt><trkpt lat="43.284677338862124" lon="12.725683746543265"><ele>387.0</ele><time>2026-05-03T16:13:35Z</time></trkpt><trkpt lat="43.284847351414925" lon="12.725832013747457"><ele>387.0</ele><time>2026-05-03T16:13:36Z</time></trkpt><trkpt lat="43.28500812773607" lon="12.725989805835669"><ele>387.33333333333337</ele><time>2026-05-03T16:13:37Z</time></trkpt><trkpt lat="43.285162467202326" lon="12.72614157647095"><ele>387.6666666666667</ele><time>2026-05-03T16:13:38Z</time></trkpt><trkpt lat="43.28531395561181" lon="12.726300220626909"><ele>388.0</ele><time>2026-05-03T16:13:39Z</time></trkpt><trkpt lat="43.28546486533123" lon="12.726463883762445"><ele>387.6666666666667</ele><time>2026-05-03T16:13:40Z</time></trkpt><trkpt lat="43.28560329334843" lon="12.726637226108744"><ele>387.33333333333337</ele><time>2026-05-03T16:13:41Z</time></trkpt><trkpt lat="43.285738360219256" lon="12.72682042613947"><ele>387.0</ele><time>2026-05-03T16:13:42Z</time></trkpt><trkpt lat="43.28587044524359" lon="12.727002867244234"><ele>387.0</ele><time>2026-05-03T16:13:43Z</time></trkpt><trkpt lat="43.28601112608334" lon="12.727183515350795"><ele>387.0</ele><time>2026-05-03T16:13:44Z</time></trkpt><trkpt lat="43.28614316918788" lon="12.727370997518161"><ele>387.0</ele><time>2026-05-03T16:13:45Z</time></trkpt><trkpt lat="43.28627275952254" lon="12.727561279328663"><ele>387.66666666666663</ele><time>2026-05-03T16:13:46Z</time></trkpt><trkpt lat="43.286396571692684" lon="12.727772994323082"><ele>388.3333333333333</ele><time>2026-05-03T16:13:47Z</time></trkpt><trkpt lat="43.28652432776962" lon="12.727993024430837"><ele>389.0</ele><time>2026-05-03T16:13:48Z</time></trkpt><trkpt lat="43.286646584421426" lon="12.728215415444607"><ele>389.66666666666663</ele><time>2026-05-03T16:13:49Z</time></trkpt><trkpt lat="43.286756180883" lon="12.728448519477693"><ele>390.33333333333337</ele><time>2026-05-03T16:13:50Z</time></trkpt><trkpt lat="43.28686946331971" lon="12.72868415385656"><ele>391.0</ele><time>2026-05-03T16:13:51Z</time></trkpt><trkpt lat="43.28697782737627" lon="12.728921561087397"><ele>391.6666666666667</ele><time>2026-05-03T16:13:52Z</time></trkpt><trkpt lat="43.28707938779383" lon="12.729159273925593"><ele>392.33333333333337</ele><time>2026-05-03T16:13:53Z</time></trkpt><trkpt lat="43.287178582501255" lon="12.729398673447378"><ele>393.0</ele><time>2026-05-03T16:13:54Z</time></trkpt><trkpt lat="43.28727554182363" lon="12.729639344377572"><ele>393.0</ele><time>2026-05-03T16:13:55Z</time></trkpt><trkpt lat="43.28737062487686" lon="12.729880165273311"><ele>393.0</ele><time>2026-05-03T16:13:56Z</time></trkpt><trkpt lat="43.28746569302943" lon="12.730120309185862"><ele>393.0</ele><time>2026-05-03T16:13:57Z</time></trkpt><trkpt lat="43.28756062562167" lon="12.730362205803923"><ele>393.0</ele><time>2026-05-03T16:13:58Z</time></trkpt><trkpt lat="43.28765424205118" lon="12.73060386963453"><ele>393.0</ele><time>2026-05-03T16:13:59Z</time></trkpt><trkpt lat="43.28774697023483" lon="12.730844227348962"><ele>393.0</ele><time>2026-05-03T16:14:00Z</time></trkpt><trkpt lat="43.28783995948643" lon="12.731082485546496"><ele>393.33333333333337</ele><time>2026-05-03T16:14:01Z</time></trkpt><trkpt lat="43.28793258329781" lon="12.731316761316691"><ele>393.6666666666667</ele><time>2026-05-03T16:14:02Z</time></trkpt><trkpt lat="43.28802789879374" lon="12.731545508476604"><ele>394.0</ele><time>2026-05-03T16:14:03Z</time></trkpt><trkpt lat="43.288118612702476" lon="12.731772928640398"><ele>395.33333333333337</ele><time>2026-05-03T16:14:04Z</time></trkpt><trkpt lat="43.28820473768401" lon="12.731995967667759"><ele>396.66666666666663</ele><time>2026-05-03T16:14:05Z</time></trkpt><trkpt lat="43.288294370177866" lon="12.732221215409137"><ele>398.0</ele><time>2026-05-03T16:14:06Z</time></trkpt><trkpt lat="43.28838208279542" lon="12.732440318681572"><ele>398.0</ele><time>2026-05-03T16:14:07Z</time></trkpt><trkpt lat="43.288468171264064" lon="12.732658295512138"><ele>398.0</ele><time>2026-05-03T16:14:07.999Z</time></trkpt><trkpt lat="43.28855290808327" lon="12.732871400202333"><ele>398.0</ele><time>2026-05-03T16:14:08.999Z</time></trkpt><trkpt lat="43.288638370422156" lon="12.733083492539391"><ele>398.0</ele><time>2026-05-03T16:14:09.999Z</time></trkpt><trkpt lat="43.28871718625642" lon="12.733292118642629"><ele>398.0</ele><time>2026-05-03T16:14:10.999Z</time></trkpt><trkpt lat="43.288786187651894" lon="12.733504407324409"><ele>398.0</ele><time>2026-05-03T16:14:11.999Z</time></trkpt><trkpt lat="43.28884416843256" lon="12.733727403008592"><ele>398.0</ele><time>2026-05-03T16:14:12.999Z</time></trkpt><trkpt lat="43.28890264911564" lon="12.733946640993873"><ele>398.0</ele><time>2026-05-03T16:14:13.999Z</time></trkpt><trkpt lat="43.288971078550716" lon="12.73416355149755"><ele>398.0</ele><time>2026-05-03T16:14:14.999Z</time></trkpt><trkpt lat="43.28905643832896" lon="12.734378727211855"><ele>398.3333333333333</ele><time>2026-05-03T16:14:15.999Z</time></trkpt><trkpt lat="43.289149650199995" lon="12.734594370775415"><ele>398.66666666666663</ele><time>2026-05-03T16:14:16.999Z</time></trkpt><trkpt lat="43.28923909858515" lon="12.734812821640698"><ele>399.0</ele><time>2026-05-03T16:14:17.999Z</time></trkpt><trkpt lat="43.28933035119014" lon="12.735036760637835"><ele>398.66666666666663</ele><time>2026-05-03T16:14:18.999Z</time></trkpt><trkpt lat="43.289425525395544" lon="12.735256345371754"><ele>398.3333333333333</ele><time>2026-05-03T16:14:19.999Z</time></trkpt><trkpt lat="43.28952860212815" lon="12.735472096881328"><ele>398.0</ele><time>2026-05-03T16:14:20.999Z</time></trkpt><trkpt lat="43.28963923758523" lon="12.735688254105954"><ele>398.0</ele><time>2026-05-03T16:14:21.999Z</time></trkpt><trkpt lat="43.2897531763366" lon="12.73589677811877"><ele>398.0</ele><time>2026-05-03T16:14:22.999Z</time></trkpt><trkpt lat="43.28987666043544" lon="12.736105742938156"><ele>398.0</ele><time>2026-05-03T16:14:23.999Z</time></trkpt><trkpt lat="43.28999878510569" lon="12.736303483708479"><ele>399.3333333333333</ele><time>2026-05-03T16:14:24.999Z</time></trkpt><trkpt lat="43.29013368549287" lon="12.736505163399345"><ele>400.66666666666663</ele><time>2026-05-03T16:14:25.999Z</time></trkpt><trkpt lat="43.290285183301854" lon="12.736706708268457"><ele>402.0</ele><time>2026-05-03T16:14:26.999Z</time></trkpt><trkpt lat="43.290452193276245" lon="12.736904549842926"><ele>404.0</ele><time>2026-05-03T16:14:27.999Z</time></trkpt><trkpt lat="43.29062872809026" lon="12.737109291481891"><ele>406.0</ele><time>2026-05-03T16:14:28.999Z</time></trkpt><trkpt lat="43.29081112751073" lon="12.737318621931783"><ele>406.0</ele><time>2026-05-03T16:14:29.999Z</time></trkpt><trkpt lat="43.29100403512975" lon="12.737531938671388"><ele>406.0</ele><time>2026-05-03T16:14:30.999Z</time></trkpt><trkpt lat="43.29120499885597" lon="12.73774335240367"><ele>407.5</ele><time>2026-05-03T16:14:31.999Z</time></trkpt><trkpt lat="43.29140969957976" lon="12.73794842633266"><ele>409.0</ele><time>2026-05-03T16:14:32.999Z</time></trkpt><trkpt lat="43.29161858236987" lon="12.738155215310751"><ele>410.5</ele><time>2026-05-03T16:14:33.999Z</time></trkpt><trkpt lat="43.29182847660671" lon="12.73836006668705"><ele>412.0</ele><time>2026-05-03T16:14:34.999Z</time></trkpt><trkpt lat="43.292035966120274" lon="12.73855947033834"><ele>413.0</ele><time>2026-05-03T16:14:35.999Z</time></trkpt><trkpt lat="43.2922414617903" lon="12.738762470078488"><ele>414.0</ele><time>2026-05-03T16:14:36.999Z</time></trkpt><trkpt lat="43.29244612186505" lon="12.73896736091586"><ele>416.0</ele><time>2026-05-03T16:14:37.999Z</time></trkpt><trkpt lat="43.29265407286911" lon="12.7391750271669"><ele>418.0</ele><time>2026-05-03T16:14:38.999Z</time></trkpt><trkpt lat="43.29287136231909" lon="12.739388350071586"><ele>422.0</ele><time>2026-05-03T16:14:39.999Z</time></trkpt><trkpt lat="43.29309636817646" lon="12.73960818310481"><ele>426.0</ele><time>2026-05-03T16:14:40.999Z</time></trkpt><trkpt lat="43.29332512364294" lon="12.739833684495219"><ele>426.0</ele><time>2026-05-03T16:14:41.999Z</time></trkpt><trkpt lat="43.293551559447124" lon="12.740060279502547"><ele>426.0</ele><time>2026-05-03T16:14:42.999Z</time></trkpt><trkpt lat="43.293775877729395" lon="12.740283681850405"><ele>433.0</ele><time>2026-05-03T16:14:43.999Z</time></trkpt><trkpt lat="43.29400052206708" lon="12.740508821708433"><ele>440.0</ele><time>2026-05-03T16:14:44.999Z</time></trkpt><trkpt lat="43.29422499076845" lon="12.740732046050242"><ele>440.0</ele><time>2026-05-03T16:14:45.999Z</time></trkpt><trkpt lat="43.29443537197544" lon="12.740935230367327"><ele>440.0</ele><time>2026-05-03T16:14:46.999Z</time></trkpt><trkpt lat="43.29465247562965" lon="12.741144823924932"><ele>439.5</ele><time>2026-05-03T16:14:47.999Z</time></trkpt><trkpt lat="43.29486763539367" lon="12.741352256846216"><ele>439.0</ele><time>2026-05-03T16:14:48.999Z</time></trkpt><trkpt lat="43.29512170499804" lon="12.741621861688717"><ele>439.0</ele><time>2026-05-03T16:14:49.999Z</time></trkpt><trkpt lat="43.29532710058815" lon="12.741854245722287"><ele>439.0</ele><time>2026-05-03T16:14:50.999Z</time></trkpt><trkpt lat="43.2955334748183" lon="12.742110562766271"><ele>438.5</ele><time>2026-05-03T16:14:51.999Z</time></trkpt><trkpt lat="43.295731353686804" lon="12.742380777067323"><ele>438.0</ele><time>2026-05-03T16:14:52.999Z</time></trkpt><trkpt lat="43.2959225136993" lon="12.742663060987567"><ele>440.0</ele><time>2026-05-03T16:14:53.999Z</time></trkpt><trkpt lat="43.296110226045926" lon="12.742964114761744"><ele>442.0</ele><time>2026-05-03T16:14:54.999Z</time></trkpt><trkpt lat="43.296286936420174" lon="12.743275983578895"><ele>441.5</ele><time>2026-05-03T16:14:55.999Z</time></trkpt><trkpt lat="43.296454341183484" lon="12.743594832577479"><ele>441.0</ele><time>2026-05-03T16:14:56.999Z</time></trkpt><trkpt lat="43.296612577930546" lon="12.74392940641308"><ele>441.0</ele><time>2026-05-03T16:14:57.999Z</time></trkpt><trkpt lat="43.29676819726306" lon="12.74425592320455"><ele>441.0</ele><time>2026-05-03T16:14:58.999Z</time></trkpt><trkpt lat="43.29692889661873" lon="12.744599898955565"><ele>444.0</ele><time>2026-05-03T16:14:59.999Z</time></trkpt><trkpt lat="43.29708754082151" lon="12.74493445672"><ele>447.0</ele><time>2026-05-03T16:15:00.999Z</time></trkpt><trkpt lat="43.29724099888606" lon="12.745272170501009"><ele>447.0</ele><time>2026-05-03T16:15:01.999Z</time></trkpt><trkpt lat="43.297394821352505" lon="12.745608853611772"><ele>447.0</ele><time>2026-05-03T16:15:02.999Z</time></trkpt><trkpt lat="43.297550553165486" lon="12.745942412653507"><ele>451.5</ele><time>2026-05-03T16:15:03.999Z</time></trkpt><trkpt lat="43.29770894808265" lon="12.746275178868139"><ele>456.0</ele><time>2026-05-03T16:15:04.999Z</time></trkpt><trkpt lat="43.297868638398086" lon="12.746617821591022"><ele>456.5</ele><time>2026-05-03T16:15:05.999Z</time></trkpt><trkpt lat="43.29802569649553" lon="12.74696228807754"><ele>457.0</ele><time>2026-05-03T16:15:06.999Z</time></trkpt><trkpt lat="43.29818304556229" lon="12.747312208334536"><ele>457.0</ele><time>2026-05-03T16:15:07.999Z</time></trkpt><trkpt lat="43.29834031505162" lon="12.747666928606709"><ele>457.0</ele><time>2026-05-03T16:15:08.999Z</time></trkpt><trkpt lat="43.29850038045342" lon="12.748030575388507"><ele>458.5</ele><time>2026-05-03T16:15:09.999Z</time></trkpt><trkpt lat="43.29866158530012" lon="12.748390404158597"><ele>460.0</ele><time>2026-05-03T16:15:10.999Z</time></trkpt><trkpt lat="43.29882577481786" lon="12.74875244060324"><ele>459.0</ele><time>2026-05-03T16:15:11.999Z</time></trkpt><trkpt lat="43.298990209969055" lon="12.749101522443878"><ele>458.0</ele><time>2026-05-03T16:15:12.999Z</time></trkpt><trkpt lat="43.29915672341476" lon="12.749459011738828"><ele>461.0</ele><time>2026-05-03T16:15:13.999Z</time></trkpt><trkpt lat="43.299318005477595" lon="12.749815522865179"><ele>464.0</ele><time>2026-05-03T16:15:14.999Z</time></trkpt><trkpt lat="43.299465287243414" lon="12.750179149964554"><ele>467.0</ele><time>2026-05-03T16:15:15.999Z</time></trkpt><trkpt lat="43.29960981335533" lon="12.750541458945095"><ele>470.0</ele><time>2026-05-03T16:15:16.999Z</time></trkpt><trkpt lat="43.299731253008815" lon="12.750905990406391"><ele>465.0</ele><time>2026-05-03T16:15:17.999Z</time></trkpt><trkpt lat="43.29983511489444" lon="12.751276289373507"><ele>460.0</ele><time>2026-05-03T16:15:18.999Z</time></trkpt><trkpt lat="43.29992579047412" lon="12.751649135004122"><ele>462.0</ele><time>2026-05-03T16:15:19.999Z</time></trkpt><trkpt lat="43.30000071754132" lon="12.752022945481144"><ele>464.0</ele><time>2026-05-03T16:15:20.999Z</time></trkpt><trkpt lat="43.30005589414041" lon="12.752397650292684"><ele>465.0</ele><time>2026-05-03T16:15:21.999Z</time></trkpt><trkpt lat="43.30009439612609" lon="12.752773235601014"><ele>466.0</ele><time>2026-05-03T16:15:22.998Z</time></trkpt><trkpt lat="43.30012410014288" lon="12.753150162776894"><ele>466.0</ele><time>2026-05-03T16:15:24Z</time></trkpt><trkpt lat="43.300146262350985" lon="12.753523943478429"><ele>466.0</ele><time>2026-05-03T16:15:25Z</time></trkpt><trkpt lat="43.30015703528976" lon="12.753893478558547"><ele>469.0</ele><time>2026-05-03T16:15:26Z</time></trkpt><trkpt lat="43.300155592683964" lon="12.754262640210518"><ele>472.0</ele><time>2026-05-03T16:15:27Z</time></trkpt><trkpt lat="43.30014658485396" lon="12.754634923983993"><ele>472.0</ele><time>2026-05-03T16:15:28Z</time></trkpt><trkpt lat="43.30013742157332" lon="12.75500606980629"><ele>472.0</ele><time>2026-05-03T16:15:29Z</time></trkpt><trkpt lat="43.30012848307354" lon="12.75537170017145"><ele>469.0</ele><time>2026-05-03T16:15:30Z</time></trkpt><trkpt lat="43.30012386614387" lon="12.755743543986924"><ele>466.0</ele><time>2026-05-03T16:15:31Z</time></trkpt><trkpt lat="43.300124504147554" lon="12.756118086565525"><ele>465.0</ele><time>2026-05-03T16:15:32Z</time></trkpt><trkpt lat="43.300135039321496" lon="12.756492564372978"><ele>464.0</ele><time>2026-05-03T16:15:33Z</time></trkpt><trkpt lat="43.3001524406545" lon="12.756889982496828"><ele>462.0</ele><time>2026-05-03T16:15:34Z</time></trkpt><trkpt lat="43.30017233439741" lon="12.757286148332762"><ele>460.0</ele><time>2026-05-03T16:15:35Z</time></trkpt><trkpt lat="43.30018997188736" lon="12.757684444598423"><ele>459.5</ele><time>2026-05-03T16:15:36Z</time></trkpt><trkpt lat="43.30020741073138" lon="12.75808899547711"><ele>459.0</ele><time>2026-05-03T16:15:37Z</time></trkpt><trkpt lat="43.30022324058043" lon="12.758506301915624"><ele>463.5</ele><time>2026-05-03T16:15:38Z</time></trkpt><trkpt lat="43.30024257569987" lon="12.758913912925077"><ele>468.0</ele><time>2026-05-03T16:15:39Z</time></trkpt><trkpt lat="43.30025983210338" lon="12.75934144597991"><ele>474.0</ele><time>2026-05-03T16:15:40Z</time></trkpt><trkpt lat="43.300279984639054" lon="12.759765510633365"><ele>480.0</ele><time>2026-05-03T16:15:41Z</time></trkpt><trkpt lat="43.3002979363731" lon="12.760198047867163"><ele>483.0</ele><time>2026-05-03T16:15:42Z</time></trkpt><trkpt lat="43.300318977195865" lon="12.760636674075544"><ele>486.0</ele><time>2026-05-03T16:15:43Z</time></trkpt><trkpt lat="43.30033924795283" lon="12.761069899903786"><ele>486.5</ele><time>2026-05-03T16:15:44Z</time></trkpt><trkpt lat="43.30035906771391" lon="12.761503978055783"><ele>487.0</ele><time>2026-05-03T16:15:45Z</time></trkpt><trkpt lat="43.30037281520355" lon="12.761936688993796"><ele>487.0</ele><time>2026-05-03T16:15:46Z</time></trkpt><trkpt lat="43.30039052256211" lon="12.762360513665962"><ele>487.0</ele><time>2026-05-03T16:15:47Z</time></trkpt><trkpt lat="43.30040839221554" lon="12.762777343295062"><ele>486.5</ele><time>2026-05-03T16:15:48Z</time></trkpt><trkpt lat="43.300426524745596" lon="12.763181424565804"><ele>486.0</ele><time>2026-05-03T16:15:49Z</time></trkpt><trkpt lat="43.30044567632241" lon="12.763578787322212"><ele>485.5</ele><time>2026-05-03T16:15:50Z</time></trkpt><trkpt lat="43.30046544814" lon="12.763967853168744"><ele>485.0</ele><time>2026-05-03T16:15:51Z</time></trkpt><trkpt lat="43.30048338473537" lon="12.76434184429158"><ele>488.0</ele><time>2026-05-03T16:15:52Z</time></trkpt><trkpt lat="43.30050982002565" lon="12.764697938921355"><ele>491.0</ele><time>2026-05-03T16:15:53Z</time></trkpt><trkpt lat="43.30055667765227" lon="12.7650270987159"><ele>493.5</ele><time>2026-05-03T16:15:54Z</time></trkpt><trkpt lat="43.300627611415436" lon="12.765340421609991"><ele>496.0</ele><time>2026-05-03T16:15:55Z</time></trkpt><trkpt lat="43.300721238533946" lon="12.765636395951487"><ele>496.0</ele><time>2026-05-03T16:15:56Z</time></trkpt><trkpt lat="43.30083608025073" lon="12.765927385108343"><ele>496.0</ele><time>2026-05-03T16:15:57Z</time></trkpt><trkpt lat="43.300972112855" lon="12.766209774452264"><ele>493.0</ele><time>2026-05-03T16:15:58Z</time></trkpt><trkpt lat="43.30112269351219" lon="12.766479049670004"><ele>490.0</ele><time>2026-05-03T16:15:59Z</time></trkpt><trkpt lat="43.30129295392581" lon="12.766724530916179"><ele>488.5</ele><time>2026-05-03T16:16:00Z</time></trkpt><trkpt lat="43.30146426441056" lon="12.766963449975206"><ele>487.0</ele><time>2026-05-03T16:16:01Z</time></trkpt><trkpt lat="43.30162580612724" lon="12.767214829189976"><ele>487.0</ele><time>2026-05-03T16:16:02Z</time></trkpt><trkpt lat="43.301788609028584" lon="12.767467740266449"><ele>487.0</ele><time>2026-05-03T16:16:03Z</time></trkpt><trkpt lat="43.30193832204729" lon="12.767734232002145"><ele>488.0</ele><time>2026-05-03T16:16:04Z</time></trkpt><trkpt lat="43.302074275042564" lon="12.768014286819296"><ele>489.0</ele><time>2026-05-03T16:16:05Z</time></trkpt><trkpt lat="43.302196003972846" lon="12.768301596781058"><ele>493.5</ele><time>2026-05-03T16:16:06Z</time></trkpt><trkpt lat="43.302306496696396" lon="12.768595801397387"><ele>498.0</ele><time>2026-05-03T16:16:07Z</time></trkpt><trkpt lat="43.30240172990132" lon="12.768898160457203"><ele>498.0</ele><time>2026-05-03T16:16:08Z</time></trkpt><trkpt lat="43.302481591915" lon="12.76921184767402"><ele>498.0</ele><time>2026-05-03T16:16:09Z</time></trkpt><trkpt lat="43.30254784973977" lon="12.76954211785948"><ele>498.0</ele><time>2026-05-03T16:16:10Z</time></trkpt><trkpt lat="43.30260198893792" lon="12.769887838629666"><ele>498.0</ele><time>2026-05-03T16:16:11Z</time></trkpt><trkpt lat="43.30264629406129" lon="12.770245852463615"><ele>498.5</ele><time>2026-05-03T16:16:12Z</time></trkpt><trkpt lat="43.30268560483834" lon="12.770612179997887"><ele>499.0</ele><time>2026-05-03T16:16:13Z</time></trkpt><trkpt lat="43.30272683642083" lon="12.770974411060967"><ele>499.0</ele><time>2026-05-03T16:16:14Z</time></trkpt><trkpt lat="43.302771182130506" lon="12.771335904529813"><ele>499.0</ele><time>2026-05-03T16:16:15Z</time></trkpt><trkpt lat="43.30281283542591" lon="12.771691737560543"><ele>501.0</ele><time>2026-05-03T16:16:16Z</time></trkpt><trkpt lat="43.30284475320435" lon="12.772043761228145"><ele>503.0</ele><time>2026-05-03T16:16:17Z</time></trkpt><trkpt lat="43.30286163888035" lon="12.772399610845717"><ele>505.5</ele><time>2026-05-03T16:16:17.999Z</time></trkpt><trkpt lat="43.3028582037732" lon="12.77275299023302"><ele>508.0</ele><time>2026-05-03T16:16:18.999Z</time></trkpt><trkpt lat="43.3028341262388" lon="12.773108401412898"><ele>508.0</ele><time>2026-05-03T16:16:19.999Z</time></trkpt><trkpt lat="43.30279209345698" lon="12.773473332873458"><ele>508.0</ele><time>2026-05-03T16:16:20.999Z</time></trkpt><trkpt lat="43.30273103751465" lon="12.773835806580953"><ele>513.0</ele><time>2026-05-03T16:16:21.999Z</time></trkpt><trkpt lat="43.30265287416012" lon="12.774195426454252"><ele>518.0</ele><time>2026-05-03T16:16:22.999Z</time></trkpt><trkpt lat="43.30256195951121" lon="12.774544638228258"><ele>520.5</ele><time>2026-05-03T16:16:23.999Z</time></trkpt><trkpt lat="43.30246984550937" lon="12.774901203299558"><ele>523.0</ele><time>2026-05-03T16:16:24.999Z</time></trkpt><trkpt lat="43.302385832731545" lon="12.775257449083968"><ele>524.5</ele><time>2026-05-03T16:16:25.999Z</time></trkpt><trkpt lat="43.30230500345679" lon="12.775604637807996"><ele>526.0</ele><time>2026-05-03T16:16:26.999Z</time></trkpt><trkpt lat="43.30222338823251" lon="12.775950328705132"><ele>526.0</ele><time>2026-05-03T16:16:27.999Z</time></trkpt><trkpt lat="43.3021444408216" lon="12.776295358291526"><ele>526.0</ele><time>2026-05-03T16:16:28.999Z</time></trkpt><trkpt lat="43.30207475214242" lon="12.776642833014824"><ele>526.0</ele><time>2026-05-03T16:16:29.999Z</time></trkpt><trkpt lat="43.30201831140242" lon="12.77699215171647"><ele>526.0</ele><time>2026-05-03T16:16:30.999Z</time></trkpt><trkpt lat="43.301977040484026" lon="12.77733860341648"><ele>528.5</ele><time>2026-05-03T16:16:31.999Z</time></trkpt><trkpt lat="43.30194876049484" lon="12.777685326539334"><ele>531.0</ele><time>2026-05-03T16:16:32.999Z</time></trkpt><trkpt lat="43.301932325022825" lon="12.778033946172517"><ele>531.0</ele><time>2026-05-03T16:16:33.999Z</time></trkpt><trkpt lat="43.30193049314934" lon="12.77837977858556"><ele>531.0</ele><time>2026-05-03T16:16:34.999Z</time></trkpt><trkpt lat="43.30194180010351" lon="12.77872161972457"><ele>534.5</ele><time>2026-05-03T16:16:35.999Z</time></trkpt><trkpt lat="43.3019646211363" lon="12.779061003405403"><ele>538.0</ele><time>2026-05-03T16:16:36.999Z</time></trkpt><trkpt lat="43.30200209834766" lon="12.779397428270283"><ele>538.0</ele><time>2026-05-03T16:16:37.999Z</time></trkpt><trkpt lat="43.30205101183754" lon="12.779734358628287"><ele>538.0</ele><time>2026-05-03T16:16:38.999Z</time></trkpt><trkpt lat="43.30209115118891" lon="12.78008939474542"><ele>546.0</ele><time>2026-05-03T16:16:39.999Z</time></trkpt><trkpt lat="43.30213723011515" lon="12.78047120499358"><ele>554.0</ele><time>2026-05-03T16:16:40.999Z</time></trkpt><trkpt lat="43.30218594700361" lon="12.780833348015948"><ele>561.0</ele><time>2026-05-03T16:16:41.999Z</time></trkpt><trkpt lat="43.30223737126767" lon="12.781203401894823"><ele>568.0</ele><time>2026-05-03T16:16:42.999Z</time></trkpt><trkpt lat="43.30229152490679" lon="12.781572314699904"><ele>587.5</ele><time>2026-05-03T16:16:43.999Z</time></trkpt><trkpt lat="43.30234772661058" lon="12.781939948968375"><ele>607.0</ele><time>2026-05-03T16:16:44.999Z</time></trkpt><trkpt lat="43.3024015156136" lon="12.782300791307833"><ele>607.0</ele><time>2026-05-03T16:16:45.999Z</time></trkpt><trkpt lat="43.30243438955799" lon="12.782657831388088"><ele>607.0</ele><time>2026-05-03T16:16:46.999Z</time></trkpt><trkpt lat="43.30247999551726" lon="12.78309874959017"><ele>606.0</ele><time>2026-05-03T16:16:47.999Z</time></trkpt><trkpt lat="43.30250512017397" lon="12.783471818807284"><ele>605.0</ele><time>2026-05-03T16:16:48.999Z</time></trkpt><trkpt lat="43.30249233638184" lon="12.783815835606905"><ele>605.0</ele><time>2026-05-03T16:16:49.999Z</time></trkpt><trkpt lat="43.30247476945233" lon="12.784147742713415"><ele>605.0</ele><time>2026-05-03T16:16:50.999Z</time></trkpt><trkpt lat="43.3024515141927" lon="12.784495113371069"><ele>615.0</ele><time>2026-05-03T16:16:51.999Z</time></trkpt><trkpt lat="43.302406278231246" lon="12.784831280533417"><ele>625.0</ele><time>2026-05-03T16:16:52.999Z</time></trkpt><trkpt lat="43.302349837830555" lon="12.785184739832314"><ele>639.0</ele><time>2026-05-03T16:16:53.999Z</time></trkpt><trkpt lat="43.302287047641336" lon="12.78554393994165"><ele>653.0</ele><time>2026-05-03T16:16:54.999Z</time></trkpt><trkpt lat="43.302201108275106" lon="12.785900151592628"><ele>564.0</ele><time>2026-05-03T16:16:56.025Z</time></trkpt><trkpt lat="43.3015301" lon="12.7879143"><ele>618.0</ele><time>2026-05-03T16:16:59.365Z</time></trkpt><trkpt lat="43.30123156446058" lon="12.788778118596229"><ele>618.0</ele><time>2026-05-03T16:17:03.999Z</time></trkpt><trkpt lat="43.30108997706085" lon="12.789138618331096"><ele>618.0</ele><time>2026-05-03T16:17:04.999Z</time></trkpt><trkpt lat="43.29957296630468" lon="12.794425891023032"><ele>605.0</ele><time>2026-05-03T16:17:19.999Z</time></trkpt><trkpt lat="43.29954426150915" lon="12.794759736345021"><ele>592.0</ele><time>2026-05-03T16:17:20.999Z</time></trkpt><trkpt lat="43.29953645874534" lon="12.795091327454564"><ele>602.0</ele><time>2026-05-03T16:17:21.999Z</time></trkpt><trkpt lat="43.29952606250283" lon="12.795434867198844"><ele>612.0</ele><time>2026-05-03T16:17:22.999Z</time></trkpt><trkpt lat="43.29952304533201" lon="12.795780760052542"><ele>629.5</ele><time>2026-05-03T16:17:23.999Z</time></trkpt><trkpt lat="43.29949944687269" lon="12.796134583302651"><ele>647.0</ele><time>2026-05-03T16:17:24.999Z</time></trkpt><trkpt lat="43.2991426863583" lon="12.806869533659754"><ele>609.5</ele><time>2026-05-03T16:17:53Z</time></trkpt><trkpt lat="43.29912943190187" lon="12.80724145014686"><ele>572.0</ele><time>2026-05-03T16:17:54Z</time></trkpt><trkpt lat="43.29924769278262" lon="12.807808140230774"><ele>571.5</ele><time>2026-05-03T16:17:55Z</time></trkpt><trkpt lat="43.29919389956905" lon="12.80813798363328"><ele>571.0</ele><time>2026-05-03T16:17:56Z</time></trkpt><trkpt lat="43.29917773444094" lon="12.808515972633563"><ele>574.0</ele><time>2026-05-03T16:17:57Z</time></trkpt><trkpt lat="43.29915565269987" lon="12.808867995592705"><ele>577.0</ele><time>2026-05-03T16:17:58Z</time></trkpt><trkpt lat="43.29917378203683" lon="12.809232773929143"><ele>591.5</ele><time>2026-05-03T16:17:59Z</time></trkpt><trkpt lat="43.29918822373562" lon="12.809601055945308"><ele>606.0</ele><time>2026-05-03T16:18:00Z</time></trkpt><trkpt lat="43.299215579677416" lon="12.809981325051691"><ele>620.0</ele><time>2026-05-03T16:18:01Z</time></trkpt><trkpt lat="43.29926738012288" lon="12.810376009153941"><ele>634.0</ele><time>2026-05-03T16:18:02Z</time></trkpt><trkpt lat="43.29933186227998" lon="12.810774096950045"><ele>633.5</ele><time>2026-05-03T16:18:03Z</time></trkpt><trkpt lat="43.29939589086748" lon="12.81116796908915"><ele>633.0</ele><time>2026-05-03T16:18:04Z</time></trkpt><trkpt lat="43.29945714680726" lon="12.811561396704919"><ele>623.5</ele><time>2026-05-03T16:18:05Z</time></trkpt><trkpt lat="43.299522009049255" lon="12.811980789927684"><ele>614.0</ele><time>2026-05-03T16:18:06.051Z</time></trkpt><trkpt lat="43.29958637278346" lon="12.812382844666896"><ele>592.0</ele><time>2026-05-03T16:18:07.048Z</time></trkpt><trkpt lat="43.300451523665835" lon="12.814881494591491"><ele>624.0</ele><time>2026-05-03T16:18:10.364Z</time></trkpt><trkpt lat="43.3008333517916" lon="12.815859646102462"><ele>602.0</ele><time>2026-05-03T16:18:11.364Z</time></trkpt><trkpt lat="43.3011406" lon="12.8166067"><ele>622.0</ele><time>2026-05-03T16:18:12.364Z</time></trkpt><trkpt lat="43.30148489359553" lon="12.817610342948305"><ele>604.0</ele><time>2026-05-03T16:18:24.364Z</time></trkpt><trkpt lat="43.30177584304221" lon="12.818645069019956"><ele>601.0</ele><time>2026-05-03T16:18:25.364Z</time></trkpt><trkpt lat="43.302040352288024" lon="12.819693406763742"><ele>577.0</ele><time>2026-05-03T16:18:26.364Z</time></trkpt><trkpt lat="43.302359289263435" lon="12.820712601468083"><ele>547.0</ele><time>2026-05-03T16:18:27.364Z</time></trkpt><trkpt lat="43.30270948806641" lon="12.821712746152604"><ele>501.0</ele><time>2026-05-03T16:18:28.364Z</time></trkpt><trkpt lat="43.30324828245361" lon="12.823889604089105"><ele>495.0</ele><time>2026-05-03T16:18:34.999Z</time></trkpt><trkpt lat="43.30335620719265" lon="12.824322664441274"><ele>489.0</ele><time>2026-05-03T16:18:35.999Z</time></trkpt><trkpt lat="43.30342401998274" lon="12.824665643532166"><ele>489.0</ele><time>2026-05-03T16:18:36.999Z</time></trkpt><trkpt lat="43.3034921465054" lon="12.825046939762625"><ele>489.0</ele><time>2026-05-03T16:18:37.999Z</time></trkpt><trkpt lat="43.3035357096045" lon="12.825425873315691"><ele>490.0</ele><time>2026-05-03T16:18:38.999Z</time></trkpt><trkpt lat="43.303552611419995" lon="12.825785414476956"><ele>491.0</ele><time>2026-05-03T16:18:39.999Z</time></trkpt><trkpt lat="43.30355274700614" lon="12.826140142144514"><ele>493.5</ele><time>2026-05-03T16:18:40.999Z</time></trkpt><trkpt lat="43.303536167368854" lon="12.826496483741165"><ele>496.0</ele><time>2026-05-03T16:18:41.999Z</time></trkpt><trkpt lat="43.30350633248714" lon="12.826853932900805"><ele>501.5</ele><time>2026-05-03T16:18:42.999Z</time></trkpt><trkpt lat="43.303460744712446" lon="12.827223501977556"><ele>507.0</ele><time>2026-05-03T16:18:43.999Z</time></trkpt><trkpt lat="43.30342105262609" lon="12.827592997085059"><ele>517.5</ele><time>2026-05-03T16:18:44.999Z</time></trkpt><trkpt lat="43.303379004517986" lon="12.827969629746168"><ele>528.0</ele><time>2026-05-03T16:18:45.999Z</time></trkpt><trkpt lat="43.303340072406215" lon="12.828343079776012"><ele>521.0</ele><time>2026-05-03T16:18:46.999Z</time></trkpt><trkpt lat="43.30329709057427" lon="12.828721870505989"><ele>514.0</ele><time>2026-05-03T16:18:47.999Z</time></trkpt><trkpt lat="43.30326301839045" lon="12.829107930448352"><ele>505.0</ele><time>2026-05-03T16:18:48.999Z</time></trkpt><trkpt lat="43.30322414157265" lon="12.829502019701739"><ele>496.0</ele><time>2026-05-03T16:18:49.999Z</time></trkpt><trkpt lat="43.30318456475849" lon="12.829889843605818"><ele>484.0</ele><time>2026-05-03T16:18:50.999Z</time></trkpt><trkpt lat="43.3031260464047" lon="12.830504491805446"><ele>480.0</ele><time>2026-05-03T16:18:51.999Z</time></trkpt><trkpt lat="43.30307731577301" lon="12.830899517481011"><ele>476.0</ele><time>2026-05-03T16:18:52.999Z</time></trkpt><trkpt lat="43.30302635130431" lon="12.831286522590934"><ele>473.0</ele><time>2026-05-03T16:18:53.999Z</time></trkpt><trkpt lat="43.30299368998577" lon="12.831645251829201"><ele>470.0</ele><time>2026-05-03T16:18:54.999Z</time></trkpt><trkpt lat="43.30296280501531" lon="12.832064050221717"><ele>465.0</ele><time>2026-05-03T16:18:55.999Z</time></trkpt><trkpt lat="43.30293973434662" lon="12.832441572425196"><ele>460.0</ele><time>2026-05-03T16:18:56.999Z</time></trkpt><trkpt lat="43.30290861097565" lon="12.832815994136562"><ele>456.5</ele><time>2026-05-03T16:18:57.999Z</time></trkpt><trkpt lat="43.302867056051504" lon="12.833199468840636"><ele>453.0</ele><time>2026-05-03T16:18:58.999Z</time></trkpt><trkpt lat="43.302818822144005" lon="12.83358902612307"><ele>450.5</ele><time>2026-05-03T16:18:59.999Z</time></trkpt><trkpt lat="43.302776945985265" lon="12.833977191988392"><ele>448.0</ele><time>2026-05-03T16:19:00.999Z</time></trkpt><trkpt lat="43.30273497734996" lon="12.834367232824087"><ele>447.0</ele><time>2026-05-03T16:19:01.999Z</time></trkpt><trkpt lat="43.30269487116332" lon="12.834759809767492"><ele>446.0</ele><time>2026-05-03T16:19:02.999Z</time></trkpt><trkpt lat="43.30265440980019" lon="12.835147366816745"><ele>444.5</ele><time>2026-05-03T16:19:03.999Z</time></trkpt><trkpt lat="43.30261785213524" lon="12.835534221831855"><ele>443.0</ele><time>2026-05-03T16:19:04.999Z</time></trkpt><trkpt lat="43.30258244558165" lon="12.83590672858639"><ele>441.0</ele><time>2026-05-03T16:19:05.999Z</time></trkpt><trkpt lat="43.302549652728516" lon="12.836267446874327"><ele>439.0</ele><time>2026-05-03T16:19:06.999Z</time></trkpt><trkpt lat="43.302518150224394" lon="12.836618044589633"><ele>437.5</ele><time>2026-05-03T16:19:07.999Z</time></trkpt><trkpt lat="43.302496972167454" lon="12.836964578848562"><ele>436.0</ele><time>2026-05-03T16:19:08.999Z</time></trkpt><trkpt lat="43.302488621607715" lon="12.837306760568328"><ele>434.0</ele><time>2026-05-03T16:19:09.999Z</time></trkpt><trkpt lat="43.30249463124181" lon="12.83764603102722"><ele>432.0</ele><time>2026-05-03T16:19:10.999Z</time></trkpt><trkpt lat="43.302519039554326" lon="12.837979172226571"><ele>432.0</ele><time>2026-05-03T16:19:11.999Z</time></trkpt><trkpt lat="43.30256336346878" lon="12.838305984079254"><ele>432.0</ele><time>2026-05-03T16:19:12.999Z</time></trkpt><trkpt lat="43.30262365350215" lon="12.838626052623408"><ele>429.0</ele><time>2026-05-03T16:19:13.999Z</time></trkpt><trkpt lat="43.302703158305995" lon="12.838939920795015"><ele>426.0</ele><time>2026-05-03T16:19:14.999Z</time></trkpt><trkpt lat="43.30279557770755" lon="12.839245222022207"><ele>422.5</ele><time>2026-05-03T16:19:15.999Z</time></trkpt><trkpt lat="43.302901366945996" lon="12.839547143718757"><ele>419.0</ele><time>2026-05-03T16:19:16.999Z</time></trkpt><trkpt lat="43.30301994167529" lon="12.839844512013405"><ele>420.5</ele><time>2026-05-03T16:19:17.999Z</time></trkpt><trkpt lat="43.303152302672494" lon="12.84012964646025"><ele>422.0</ele><time>2026-05-03T16:19:18.999Z</time></trkpt><trkpt lat="43.303302943491495" lon="12.840401905722294"><ele>422.0</ele><time>2026-05-03T16:19:19.999Z</time></trkpt><trkpt lat="43.3034687946351" lon="12.840660716839624"><ele>422.0</ele><time>2026-05-03T16:19:20.999Z</time></trkpt><trkpt lat="43.303646961912165" lon="12.840913084962937"><ele>421.5</ele><time>2026-05-03T16:19:21.999Z</time></trkpt><trkpt lat="43.30383613613175" lon="12.841157397391735"><ele>421.0</ele><time>2026-05-03T16:19:22.999Z</time></trkpt><trkpt lat="43.30403645057801" lon="12.841376267487151"><ele>421.0</ele><time>2026-05-03T16:19:23.999Z</time></trkpt><trkpt lat="43.304247921788686" lon="12.841576955991924"><ele>421.0</ele><time>2026-05-03T16:19:24.999Z</time></trkpt><trkpt lat="43.304464939482834" lon="12.841777913082415"><ele>420.0</ele><time>2026-05-03T16:19:25.999Z</time></trkpt><trkpt lat="43.30466610333393" lon="12.841995322631437"><ele>419.0</ele><time>2026-05-03T16:19:26.999Z</time></trkpt><trkpt lat="43.304857173138586" lon="12.842240609397116"><ele>419.0</ele><time>2026-05-03T16:19:27.999Z</time></trkpt><trkpt lat="43.30504788372658" lon="12.842499082746166"><ele>419.0</ele><time>2026-05-03T16:19:28.999Z</time></trkpt><trkpt lat="43.30523955757556" lon="12.842757317386406"><ele>418.0</ele><time>2026-05-03T16:19:29.998Z</time></trkpt><trkpt lat="43.3054361001666" lon="12.843018126344855"><ele>417.0</ele><time>2026-05-03T16:19:30.998Z</time></trkpt><trkpt lat="43.305634460083354" lon="12.843282383891395"><ele>410.0</ele><time>2026-05-03T16:19:31.998Z</time></trkpt><trkpt lat="43.30583222626976" lon="12.843550600116888"><ele>403.0</ele><time>2026-05-03T16:19:32.998Z</time></trkpt><trkpt lat="43.30602923881988" lon="12.84381680706321"><ele>403.0</ele><time>2026-05-03T16:19:33.998Z</time></trkpt><trkpt lat="43.30622193898186" lon="12.844090903814351"><ele>403.0</ele><time>2026-05-03T16:19:35Z</time></trkpt><trkpt lat="43.306412746753495" lon="12.844368771640845"><ele>406.5</ele><time>2026-05-03T16:19:36Z</time></trkpt><trkpt lat="43.3066012952867" lon="12.844649769029335"><ele>410.0</ele><time>2026-05-03T16:19:37Z</time></trkpt><trkpt lat="43.30678482414327" lon="12.844935010687328"><ele>405.5</ele><time>2026-05-03T16:19:38Z</time></trkpt><trkpt lat="43.30696646637517" lon="12.845225708803023"><ele>401.0</ele><time>2026-05-03T16:19:39Z</time></trkpt><trkpt lat="43.30714430082474" lon="12.845519543372735"><ele>401.5</ele><time>2026-05-03T16:19:40Z</time></trkpt><trkpt lat="43.307316289412555" lon="12.845814190613384"><ele>402.0</ele><time>2026-05-03T16:19:41Z</time></trkpt><trkpt lat="43.30748693231492" lon="12.846115504658142"><ele>402.0</ele><time>2026-05-03T16:19:42Z</time></trkpt><trkpt lat="43.30765877700749" lon="12.846423720260077"><ele>402.0</ele><time>2026-05-03T16:19:43Z</time></trkpt><trkpt lat="43.30783090794534" lon="12.84673658219835"><ele>399.5</ele><time>2026-05-03T16:19:44Z</time></trkpt><trkpt lat="43.30800231012526" lon="12.847043868522592"><ele>397.0</ele><time>2026-05-03T16:19:45Z</time></trkpt><trkpt lat="43.30817745376278" lon="12.847350684481528"><ele>398.5</ele><time>2026-05-03T16:19:46Z</time></trkpt><trkpt lat="43.30834060971941" lon="12.847661413969824"><ele>400.0</ele><time>2026-05-03T16:19:47Z</time></trkpt><trkpt lat="43.30849772517209" lon="12.847977639827015"><ele>400.0</ele><time>2026-05-03T16:19:48Z</time></trkpt><trkpt lat="43.30864018539959" lon="12.84829284608425"><ele>400.0</ele><time>2026-05-03T16:19:49Z</time></trkpt><trkpt lat="43.30877367824763" lon="12.848612055328111"><ele>397.0</ele><time>2026-05-03T16:19:50Z</time></trkpt><trkpt lat="43.3088970617295" lon="12.848931617337632"><ele>394.0</ele><time>2026-05-03T16:19:51Z</time></trkpt><trkpt lat="43.309011694150385" lon="12.849263016335653"><ele>396.5</ele><time>2026-05-03T16:19:52Z</time></trkpt><trkpt lat="43.30912209605473" lon="12.849612825241824"><ele>399.0</ele><time>2026-05-03T16:19:53Z</time></trkpt><trkpt lat="43.30922848787022" lon="12.849976505826456"><ele>396.0</ele><time>2026-05-03T16:19:54Z</time></trkpt><trkpt lat="43.309328051991365" lon="12.850340770550332"><ele>393.0</ele><time>2026-05-03T16:19:55Z</time></trkpt><trkpt lat="43.309417156018604" lon="12.850697261743834"><ele>392.0</ele><time>2026-05-03T16:19:56Z</time></trkpt><trkpt lat="43.30950073572991" lon="12.851052847790394"><ele>391.0</ele><time>2026-05-03T16:19:57Z</time></trkpt><trkpt lat="43.30957642767294" lon="12.851408374325086"><ele>391.0</ele><time>2026-05-03T16:19:58Z</time></trkpt><trkpt lat="43.309647991266644" lon="12.851769421886852"><ele>391.0</ele><time>2026-05-03T16:19:59Z</time></trkpt><trkpt lat="43.309719373773824" lon="12.852124469151248"><ele>393.0</ele><time>2026-05-03T16:20:00Z</time></trkpt><trkpt lat="43.30978807721708" lon="12.852476183025425"><ele>395.0</ele><time>2026-05-03T16:20:01Z</time></trkpt><trkpt lat="43.309855838275155" lon="12.852827462016466"><ele>395.0</ele><time>2026-05-03T16:20:02Z</time></trkpt><trkpt lat="43.309925769757356" lon="12.853174919249625"><ele>395.0</ele><time>2026-05-03T16:20:03Z</time></trkpt><trkpt lat="43.309989749848356" lon="12.85351589653303"><ele>393.5</ele><time>2026-05-03T16:20:04Z</time></trkpt><trkpt lat="43.31005125999928" lon="12.85383835257773"><ele>392.0</ele><time>2026-05-03T16:20:05Z</time></trkpt><trkpt lat="43.31011020974855" lon="12.854146255576637"><ele>391.0</ele><time>2026-05-03T16:20:06Z</time></trkpt><trkpt lat="43.31016348114427" lon="12.854443538620844"><ele>390.0</ele><time>2026-05-03T16:20:07Z</time></trkpt><trkpt lat="43.31021068147214" lon="12.854725705189399"><ele>389.0</ele><time>2026-05-03T16:20:08Z</time></trkpt><trkpt lat="43.31025524872886" lon="12.854980460768086"><ele>389.3333333333333</ele><time>2026-05-03T16:20:09Z</time></trkpt><trkpt lat="43.31029921722081" lon="12.855214782504072"><ele>389.66666666666663</ele><time>2026-05-03T16:20:10Z</time></trkpt><trkpt lat="43.310343448238285" lon="12.85544194820018"><ele>390.0</ele><time>2026-05-03T16:20:11Z</time></trkpt><trkpt lat="43.31038954206378" lon="12.855657801095916"><ele>390.0</ele><time>2026-05-03T16:20:12Z</time></trkpt><trkpt lat="43.31041715010279" lon="12.855844333057355"><ele>390.0</ele><time>2026-05-03T16:20:13Z</time></trkpt><trkpt lat="43.310449402369656" lon="12.856028331470206"><ele>390.0</ele><time>2026-05-03T16:20:14Z</time></trkpt><trkpt lat="43.31046757998079" lon="12.85621308728066"><ele>390.0</ele><time>2026-05-03T16:20:15Z</time></trkpt><trkpt lat="43.310471787996285" lon="12.856398478990398"><ele>389.0</ele><time>2026-05-03T16:20:16Z</time></trkpt><trkpt lat="43.31046442800639" lon="12.85657931550024"><ele>388.0</ele><time>2026-05-03T16:20:17Z</time></trkpt><trkpt lat="43.31045456012928" lon="12.856762024254538"><ele>387.0</ele><time>2026-05-03T16:20:18Z</time></trkpt><trkpt lat="43.310432602389795" lon="12.856945526990451"><ele>386.0</ele><time>2026-05-03T16:20:19Z</time></trkpt><trkpt lat="43.31039341065886" lon="12.857125729048258"><ele>386.0</ele><time>2026-05-03T16:20:20Z</time></trkpt><trkpt lat="43.310353873049245" lon="12.857305304422297"><ele>386.0</ele><time>2026-05-03T16:20:21Z</time></trkpt><trkpt lat="43.31031085034171" lon="12.857484782375568"><ele>386.0</ele><time>2026-05-03T16:20:22Z</time></trkpt><trkpt lat="43.31026935899685" lon="12.857667921991286"><ele>386.0</ele><time>2026-05-03T16:20:23Z</time></trkpt><trkpt lat="43.31022647493569" lon="12.85785248544052"><ele>388.25</ele><time>2026-05-03T16:20:24Z</time></trkpt><trkpt lat="43.310186991607054" lon="12.858033583897152"><ele>390.5</ele><time>2026-05-03T16:20:25Z</time></trkpt><trkpt lat="43.310152824747966" lon="12.85821151690444"><ele>392.75</ele><time>2026-05-03T16:20:26Z</time></trkpt><trkpt lat="43.31013024157014" lon="12.858384227654637"><ele>395.0</ele><time>2026-05-03T16:20:27Z</time></trkpt><trkpt lat="43.310124098860584" lon="12.85854766966442"><ele>395.5</ele><time>2026-05-03T16:20:27.999Z</time></trkpt><trkpt lat="43.31014188571792" lon="12.85870476208718"><ele>396.0</ele><time>2026-05-03T16:20:28.999Z</time></trkpt><trkpt lat="43.31018458306527" lon="12.858847432961712"><ele>396.5</ele><time>2026-05-03T16:20:29.999Z</time></trkpt><trkpt lat="43.31025141141913" lon="12.858979792661076"><ele>397.0</ele><time>2026-05-03T16:20:30.999Z</time></trkpt><trkpt lat="43.31033962947893" lon="12.859100625644913"><ele>397.0</ele><time>2026-05-03T16:20:31.999Z</time></trkpt><trkpt lat="43.31044209314315" lon="12.859204912599202"><ele>397.0</ele><time>2026-05-03T16:20:32.999Z</time></trkpt><trkpt lat="43.31055916176676" lon="12.859287391954359"><ele>397.0</ele><time>2026-05-03T16:20:33.999Z</time></trkpt><trkpt lat="43.31068792944036" lon="12.859344804483513"><ele>397.0</ele><time>2026-05-03T16:20:34.999Z</time></trkpt><trkpt lat="43.31082675886085" lon="12.859379211512156"><ele>391.0</ele><time>2026-05-03T16:20:35.999Z</time></trkpt><trkpt lat="43.310973823062" lon="12.859406963426443"><ele>385.0</ele><time>2026-05-03T16:20:36.999Z</time></trkpt><trkpt lat="43.311127076016234" lon="12.859441288600268"><ele>379.0</ele><time>2026-05-03T16:20:37.999Z</time></trkpt><trkpt lat="43.31128140886974" lon="12.859483103167264"><ele>378.3333333333333</ele><time>2026-05-03T16:20:38.999Z</time></trkpt><trkpt lat="43.311440176539875" lon="12.859522986963245"><ele>377.6666666666667</ele><time>2026-05-03T16:20:39.999Z</time></trkpt><trkpt lat="43.31159532801789" lon="12.859559613353227"><ele>377.0</ele><time>2026-05-03T16:20:40.999Z</time></trkpt><trkpt lat="43.311748897266504" lon="12.85959894230072"><ele>377.0</ele><time>2026-05-03T16:20:41.999Z</time></trkpt><trkpt lat="43.31188734343013" lon="12.859625953010134"><ele>377.0</ele><time>2026-05-03T16:20:42.999Z</time></trkpt><trkpt lat="43.31202479955069" lon="12.859665742369657"><ele>377.0</ele><time>2026-05-03T16:20:43.999Z</time></trkpt><trkpt lat="43.31215390653905" lon="12.85969620409765"><ele>377.0</ele><time>2026-05-03T16:20:44.999Z</time></trkpt><trkpt lat="43.31226142998292" lon="12.859723311090077"><ele>377.0</ele><time>2026-05-03T16:20:45.999Z</time></trkpt><trkpt lat="43.31235069863843" lon="12.859746468151084"><ele>377.0</ele><time>2026-05-03T16:20:46.999Z</time></trkpt><trkpt lat="43.31242858935798" lon="12.859784102184685"><ele>377.0</ele><time>2026-05-03T16:20:47.999Z</time></trkpt><trkpt lat="43.312506049383494" lon="12.85982834473271"><ele>377.0</ele><time>2026-05-03T16:20:48.999Z</time></trkpt><trkpt lat="43.31255785260051" lon="12.859944361010337"><ele>377.0</ele><time>2026-05-03T16:20:49.999Z</time></trkpt><trkpt lat="43.31261016700363" lon="12.86003673356895"><ele>377.0</ele><time>2026-05-03T16:20:50.999Z</time></trkpt><trkpt lat="43.31267551860947" lon="12.86012031300786"><ele>377.0</ele><time>2026-05-03T16:20:51.999Z</time></trkpt><trkpt lat="43.31275289428057" lon="12.860190985719154"><ele>377.0</ele><time>2026-05-03T16:20:52.999Z</time></trkpt><trkpt lat="43.312841486504134" lon="12.860236574871008"><ele>377.0</ele><time>2026-05-03T16:20:53.999Z</time></trkpt><trkpt lat="43.31294269724162" lon="12.860260643686281"><ele>377.0</ele><time>2026-05-03T16:20:54.999Z</time></trkpt><trkpt lat="43.31304417827051" lon="12.860299505641857"><ele>377.0</ele><time>2026-05-03T16:20:55.999Z</time></trkpt><trkpt lat="43.3131386515165" lon="12.860366528559119"><ele>377.0</ele><time>2026-05-03T16:20:56.999Z</time></trkpt><trkpt lat="43.31321598975111" lon="12.86046397901656"><ele>377.0</ele><time>2026-05-03T16:20:57.999Z</time></trkpt><trkpt lat="43.313278798720084" lon="12.86058923728443"><ele>377.0</ele><time>2026-05-03T16:20:58.999Z</time></trkpt><trkpt lat="43.3133459495677" lon="12.860716244974732"><ele>377.0</ele><time>2026-05-03T16:20:59.999Z</time></trkpt><trkpt lat="43.31341364717117" lon="12.860837251410336"><ele>377.0</ele><time>2026-05-03T16:21:00.999Z</time></trkpt><trkpt lat="43.313517366888156" lon="12.860958723223028"><ele>376.75</ele><time>2026-05-03T16:21:01.999Z</time></trkpt><trkpt lat="43.31359469677635" lon="12.861098841774211"><ele>376.5</ele><time>2026-05-03T16:21:02.999Z</time></trkpt><trkpt lat="43.31366675940424" lon="12.861259693626533"><ele>376.25</ele><time>2026-05-03T16:21:03.999Z</time></trkpt><trkpt lat="43.313732734047605" lon="12.861426616816058"><ele>376.0</ele><time>2026-05-03T16:21:04.999Z</time></trkpt><trkpt lat="43.31379797249489" lon="12.861592003594444"><ele>376.0</ele><time>2026-05-03T16:21:05.999Z</time></trkpt><trkpt lat="43.313835584947626" lon="12.861774039929244"><ele>376.0</ele><time>2026-05-03T16:21:06.999Z</time></trkpt><trkpt lat="43.313871285011835" lon="12.86195572388795"><ele>376.0</ele><time>2026-05-03T16:21:07.999Z</time></trkpt><trkpt lat="43.313918668768714" lon="12.862137255158354"><ele>376.0</ele><time>2026-05-03T16:21:08.999Z</time></trkpt><trkpt lat="43.313944942658964" lon="12.8623290559767"><ele>376.0</ele><time>2026-05-03T16:21:09.999Z</time></trkpt><trkpt lat="43.31396101988175" lon="12.86252601557931"><ele>376.0</ele><time>2026-05-03T16:21:10.999Z</time></trkpt><trkpt lat="43.313991496509935" lon="12.862720089385105"><ele>376.0</ele><time>2026-05-03T16:21:11.999Z</time></trkpt><trkpt lat="43.31402635330814" lon="12.86290592682076"><ele>376.0</ele><time>2026-05-03T16:21:12.999Z</time></trkpt><trkpt lat="43.31406292417539" lon="12.863068502841768"><ele>376.0</ele><time>2026-05-03T16:21:13.999Z</time></trkpt><trkpt lat="43.31412082990451" lon="12.863217034451113"><ele>376.0</ele><time>2026-05-03T16:21:14.999Z</time></trkpt><trkpt lat="43.31419870419669" lon="12.863358287328449"><ele>376.0</ele><time>2026-05-03T16:21:15.999Z</time></trkpt><trkpt lat="43.31429599279102" lon="12.863482508795725"><ele>376.0</ele><time>2026-05-03T16:21:16.999Z</time></trkpt><trkpt lat="43.31441150258725" lon="12.863582903229865"><ele>376.25</ele><time>2026-05-03T16:21:17.999Z</time></trkpt><trkpt lat="43.31454126662703" lon="12.86365862484809"><ele>376.5</ele><time>2026-05-03T16:21:18.999Z</time></trkpt><trkpt lat="43.314680425585955" lon="12.86370931550284"><ele>376.75</ele><time>2026-05-03T16:21:19.999Z</time></trkpt><trkpt lat="43.31481735986581" lon="12.863734375095618"><ele>377.0</ele><time>2026-05-03T16:21:20.999Z</time></trkpt><trkpt lat="43.314959652894544" lon="12.863722648795301"><ele>376.33333333333337</ele><time>2026-05-03T16:21:21.999Z</time></trkpt><trkpt lat="43.31510316372616" lon="12.863688955485589"><ele>375.6666666666667</ele><time>2026-05-03T16:21:22.999Z</time></trkpt><trkpt lat="43.31529066023823" lon="12.863610994268761"><ele>375.0</ele><time>2026-05-03T16:21:23.999Z</time></trkpt><trkpt lat="43.315455944032095" lon="12.863577977750838"><ele>375.6666666666667</ele><time>2026-05-03T16:21:24.999Z</time></trkpt><trkpt lat="43.31562606855987" lon="12.863549296318755"><ele>376.33333333333337</ele><time>2026-05-03T16:21:25.999Z</time></trkpt><trkpt lat="43.31579979703061" lon="12.863528276073998"><ele>377.0</ele><time>2026-05-03T16:21:26.999Z</time></trkpt><trkpt lat="43.3159606143786" lon="12.863511572595243"><ele>377.0</ele><time>2026-05-03T16:21:27.999Z</time></trkpt><trkpt lat="43.31610632418299" lon="12.863516321270282"><ele>377.0</ele><time>2026-05-03T16:21:28.999Z</time></trkpt><trkpt lat="43.31624428659134" lon="12.863553180203692"><ele>377.0</ele><time>2026-05-03T16:21:29.999Z</time></trkpt><trkpt lat="43.31637404525486" lon="12.863627882007306"><ele>377.0</ele><time>2026-05-03T16:21:30.999Z</time></trkpt><trkpt lat="43.31648903327502" lon="12.863729187391566"><ele>376.25</ele><time>2026-05-03T16:21:31.999Z</time></trkpt><trkpt lat="43.316590514576866" lon="12.863851253459094"><ele>375.5</ele><time>2026-05-03T16:21:32.999Z</time></trkpt><trkpt lat="43.31666619698605" lon="12.864022667270058"><ele>374.75</ele><time>2026-05-03T16:21:33.999Z</time></trkpt><trkpt lat="43.316753236253795" lon="12.864201367922574"><ele>374.0</ele><time>2026-05-03T16:21:34.999Z</time></trkpt><trkpt lat="43.31683273246643" lon="12.864402678215558"><ele>374.0</ele><time>2026-05-03T16:21:35.999Z</time></trkpt><trkpt lat="43.31692282134914" lon="12.864603242880557"><ele>374.0</ele><time>2026-05-03T16:21:36.999Z</time></trkpt><trkpt lat="43.31701702771083" lon="12.864801315115416"><ele>374.0</ele><time>2026-05-03T16:21:37.999Z</time></trkpt><trkpt lat="43.31711508120134" lon="12.865003164880662"><ele>373.33333333333337</ele><time>2026-05-03T16:21:38.999Z</time></trkpt><trkpt lat="43.317209722384185" lon="12.865207990487992"><ele>372.6666666666667</ele><time>2026-05-03T16:21:39.999Z</time></trkpt><trkpt lat="43.317299376722865" lon="12.865411347413401"><ele>372.0</ele><time>2026-05-03T16:21:41Z</time></trkpt><trkpt lat="43.317385598567576" lon="12.865621031426615"><ele>370.0</ele><time>2026-05-03T16:21:42Z</time></trkpt><trkpt lat="43.317469932973616" lon="12.86582718685917"><ele>368.0</ele><time>2026-05-03T16:21:43Z</time></trkpt><trkpt lat="43.31755043345907" lon="12.866027677021693"><ele>366.0</ele><time>2026-05-03T16:21:44Z</time></trkpt><trkpt lat="43.317628945086625" lon="12.866235980554448"><ele>365.6666666666667</ele><time>2026-05-03T16:21:45Z</time></trkpt><trkpt lat="43.31769456304064" lon="12.86644780047136"><ele>365.33333333333337</ele><time>2026-05-03T16:21:46Z</time></trkpt><trkpt lat="43.31773230948662" lon="12.866668135794217"><ele>365.0</ele><time>2026-05-03T16:21:47Z</time></trkpt><trkpt lat="43.31774940485846" lon="12.866896768160318"><ele>364.6666666666667</ele><time>2026-05-03T16:21:48Z</time></trkpt><trkpt lat="43.3177551346417" lon="12.867125291752215"><ele>364.3333333333333</ele><time>2026-05-03T16:21:49Z</time></trkpt><trkpt lat="43.31775920264623" lon="12.867341246858766"><ele>364.0</ele><time>2026-05-03T16:21:50Z</time></trkpt><trkpt lat="43.31777237305681" lon="12.867547912109075"><ele>363.5</ele><time>2026-05-03T16:21:51Z</time></trkpt><trkpt lat="43.31780256625132" lon="12.86773900175426"><ele>363.0</ele><time>2026-05-03T16:21:52Z</time></trkpt><trkpt lat="43.317844914856025" lon="12.867923141585306"><ele>362.5</ele><time>2026-05-03T16:21:53Z</time></trkpt><trkpt lat="43.31789071859836" lon="12.868106774052027"><ele>362.0</ele><time>2026-05-03T16:21:54Z</time></trkpt><trkpt lat="43.31793019024002" lon="12.868295805190083"><ele>362.0</ele><time>2026-05-03T16:21:55Z</time></trkpt><trkpt lat="43.317955465623385" lon="12.868481685225877"><ele>362.0</ele><time>2026-05-03T16:21:56Z</time></trkpt><trkpt lat="43.317963760993884" lon="12.868665993372849"><ele>362.0</ele><time>2026-05-03T16:21:57Z</time></trkpt><trkpt lat="43.31794741208635" lon="12.868851008426592"><ele>362.0</ele><time>2026-05-03T16:21:58Z</time></trkpt><trkpt lat="43.3179130123798" lon="12.86903256689517"><ele>362.0</ele><time>2026-05-03T16:21:59Z</time></trkpt><trkpt lat="43.31787202939373" lon="12.869207273801054"><ele>362.0</ele><time>2026-05-03T16:22:00Z</time></trkpt><trkpt lat="43.31783470321351" lon="12.86938935318183"><ele>362.0</ele><time>2026-05-03T16:22:01Z</time></trkpt><trkpt lat="43.31779792239909" lon="12.869568409313777"><ele>362.0</ele><time>2026-05-03T16:22:02Z</time></trkpt><trkpt lat="43.317765578299976" lon="12.86974297345357"><ele>362.5</ele><time>2026-05-03T16:22:03Z</time></trkpt><trkpt lat="43.31774291312963" lon="12.869923363474504"><ele>363.0</ele><time>2026-05-03T16:22:04Z</time></trkpt><trkpt lat="43.31773413246459" lon="12.87011404296798"><ele>363.5</ele><time>2026-05-03T16:22:05Z</time></trkpt><trkpt lat="43.3177357017973" lon="12.870307679071926"><ele>364.0</ele><time>2026-05-03T16:22:06Z</time></trkpt><trkpt lat="43.31773451539153" lon="12.870500337384058"><ele>364.0</ele><time>2026-05-03T16:22:07Z</time></trkpt><trkpt lat="43.31773061888638" lon="12.870692390908719"><ele>364.0</ele><time>2026-05-03T16:22:08Z</time></trkpt><trkpt lat="43.317728442094655" lon="12.870877389524258"><ele>364.0</ele><time>2026-05-03T16:22:09Z</time></trkpt><trkpt lat="43.31771996695819" lon="12.871057624255561"><ele>364.0</ele><time>2026-05-03T16:22:10Z</time></trkpt><trkpt lat="43.31769079916606" lon="12.8712323223124"><ele>363.75</ele><time>2026-05-03T16:22:11Z</time></trkpt><trkpt lat="43.31764057478241" lon="12.871399293852114"><ele>363.5</ele><time>2026-05-03T16:22:12Z</time></trkpt><trkpt lat="43.317580518257934" lon="12.871558593760449"><ele>363.25</ele><time>2026-05-03T16:22:13Z</time></trkpt><trkpt lat="43.31752417708108" lon="12.871714978115854"><ele>363.0</ele><time>2026-05-03T16:22:14Z</time></trkpt><trkpt lat="43.31748593937421" lon="12.871872482377618"><ele>362.25</ele><time>2026-05-03T16:22:15Z</time></trkpt><trkpt lat="43.317468194164206" lon="12.872041258840985"><ele>361.5</ele><time>2026-05-03T16:22:16Z</time></trkpt><trkpt lat="43.31746934926371" lon="12.872217671487943"><ele>360.75</ele><time>2026-05-03T16:22:17Z</time></trkpt><trkpt lat="43.31748483412055" lon="12.872391554677147"><ele>360.0</ele><time>2026-05-03T16:22:18Z</time></trkpt><trkpt lat="43.317521545587425" lon="12.872559303864186"><ele>359.75</ele><time>2026-05-03T16:22:19Z</time></trkpt><trkpt lat="43.317583208520425" lon="12.872716698592052"><ele>359.5</ele><time>2026-05-03T16:22:20Z</time></trkpt><trkpt lat="43.31765897712548" lon="12.872870313171765"><ele>359.25</ele><time>2026-05-03T16:22:21Z</time></trkpt><trkpt lat="43.31772996393624" lon="12.873026907226752"><ele>359.0</ele><time>2026-05-03T16:22:22Z</time></trkpt><trkpt lat="43.31778902360242" lon="12.873195602786858"><ele>359.0</ele><time>2026-05-03T16:22:23Z</time></trkpt><trkpt lat="43.317833229291224" lon="12.873372832239907"><ele>359.0</ele><time>2026-05-03T16:22:24Z</time></trkpt><trkpt lat="43.31787789366363" lon="12.873555822492976"><ele>359.0</ele><time>2026-05-03T16:22:25Z</time></trkpt><trkpt lat="43.31792123519907" lon="12.87374612214404"><ele>359.0</ele><time>2026-05-03T16:22:26Z</time></trkpt><trkpt lat="43.31795099992738" lon="12.873937817240565"><ele>359.25</ele><time>2026-05-03T16:22:27Z</time></trkpt><trkpt lat="43.3179669324144" lon="12.87414133356793"><ele>359.5</ele><time>2026-05-03T16:22:28Z</time></trkpt><trkpt lat="43.31798779588475" lon="12.874347703224274"><ele>359.75</ele><time>2026-05-03T16:22:29Z</time></trkpt><trkpt lat="43.31800025325488" lon="12.87455102022234"><ele>360.0</ele><time>2026-05-03T16:22:30Z</time></trkpt><trkpt lat="43.31800992424862" lon="12.874755215528767"><ele>360.0</ele><time>2026-05-03T16:22:31Z</time></trkpt><trkpt lat="43.31801640418199" lon="12.874955730308294"><ele>360.0</ele><time>2026-05-03T16:22:32Z</time></trkpt><trkpt lat="43.31801489968734" lon="12.875156803600635"><ele>360.0</ele><time>2026-05-03T16:22:32.999Z</time></trkpt><trkpt lat="43.31800331875404" lon="12.875352825339316"><ele>360.0</ele><time>2026-05-03T16:22:33.999Z</time></trkpt><trkpt lat="43.31799393417806" lon="12.875553713055847"><ele>359.0</ele><time>2026-05-03T16:22:34.999Z</time></trkpt><trkpt lat="43.317975944995105" lon="12.875739480208908"><ele>358.0</ele><time>2026-05-03T16:22:35.999Z</time></trkpt><trkpt lat="43.317965762801286" lon="12.875925411328131"><ele>357.0</ele><time>2026-05-03T16:22:36.999Z</time></trkpt><trkpt lat="43.317968969810835" lon="12.876110810606496"><ele>356.0</ele><time>2026-05-03T16:22:37.999Z</time></trkpt><trkpt lat="43.31799086456008" lon="12.876298700860566"><ele>356.0</ele><time>2026-05-03T16:22:38.999Z</time></trkpt><trkpt lat="43.31802630157931" lon="12.876486837275339"><ele>356.0</ele><time>2026-05-03T16:22:39.999Z</time></trkpt><trkpt lat="43.31806108547394" lon="12.876676551124564"><ele>356.0</ele><time>2026-05-03T16:22:40.999Z</time></trkpt><trkpt lat="43.31809212584182" lon="12.876874786459089"><ele>356.0</ele><time>2026-05-03T16:22:41.999Z</time></trkpt><trkpt lat="43.318124149624445" lon="12.87707381267089"><ele>356.0</ele><time>2026-05-03T16:22:42.999Z</time></trkpt><trkpt lat="43.318159828194055" lon="12.877279212691798"><ele>356.0</ele><time>2026-05-03T16:22:43.999Z</time></trkpt><trkpt lat="43.31819549597882" lon="12.877483784678088"><ele>356.0</ele><time>2026-05-03T16:22:44.999Z</time></trkpt><trkpt lat="43.31823574238176" lon="12.87769409106746"><ele>356.0</ele><time>2026-05-03T16:22:45.999Z</time></trkpt><trkpt lat="43.31828006303844" lon="12.87790368130097"><ele>356.0</ele><time>2026-05-03T16:22:46.999Z</time></trkpt><trkpt lat="43.31832334919216" lon="12.878119022025711"><ele>356.0</ele><time>2026-05-03T16:22:47.999Z</time></trkpt><trkpt lat="43.31836317028064" lon="12.878334342957501"><ele>355.75</ele><time>2026-05-03T16:22:48.999Z</time></trkpt><trkpt lat="43.318402813185934" lon="12.878539042854468"><ele>355.5</ele><time>2026-05-03T16:22:49.999Z</time></trkpt><trkpt lat="43.31844248411403" lon="12.878726132877064"><ele>355.25</ele><time>2026-05-03T16:22:50.999Z</time></trkpt><trkpt lat="43.318491484486565" lon="12.878897209047034"><ele>355.0</ele><time>2026-05-03T16:22:51.999Z</time></trkpt><trkpt lat="43.31856060924332" lon="12.87905241675848"><ele>355.0</ele><time>2026-05-03T16:22:52.999Z</time></trkpt><trkpt lat="43.31865612782866" lon="12.879190163863614"><ele>355.0</ele><time>2026-05-03T16:22:53.999Z</time></trkpt><trkpt lat="43.31876947590773" lon="12.879313629376872"><ele>355.0</ele><time>2026-05-03T16:22:54.999Z</time></trkpt><trkpt lat="43.318891368483236" lon="12.879431206508489"><ele>355.0</ele><time>2026-05-03T16:22:55.999Z</time></trkpt><trkpt lat="43.31900612851422" lon="12.87956750095703"><ele>354.75</ele><time>2026-05-03T16:22:56.999Z</time></trkpt><trkpt lat="43.31910311432737" lon="12.879715058302882"><ele>354.5</ele><time>2026-05-03T16:22:57.999Z</time></trkpt><trkpt lat="43.319187865285144" lon="12.879882216680208"><ele>354.25</ele><time>2026-05-03T16:22:58.999Z</time></trkpt><trkpt lat="43.319248235229324" lon="12.880070494290823"><ele>354.0</ele><time>2026-05-03T16:22:59.999Z</time></trkpt><trkpt lat="43.31928958621255" lon="12.880277488207007"><ele>352.3333333333333</ele><time>2026-05-03T16:23:00.999Z</time></trkpt><trkpt lat="43.31932775024212" lon="12.880491934287194"><ele>350.66666666666663</ele><time>2026-05-03T16:23:01.999Z</time></trkpt><trkpt lat="43.31936615327656" lon="12.880699805368982"><ele>349.0</ele><time>2026-05-03T16:23:02.999Z</time></trkpt><trkpt lat="43.31940824491358" lon="12.880911638042706"><ele>349.0</ele><time>2026-05-03T16:23:03.999Z</time></trkpt><trkpt lat="43.31945095472002" lon="12.881120973494992"><ele>349.0</ele><time>2026-05-03T16:23:04.999Z</time></trkpt><trkpt lat="43.319494807294035" lon="12.881330208567796"><ele>349.0</ele><time>2026-05-03T16:23:05.999Z</time></trkpt><trkpt lat="43.31953648244312" lon="12.881538383906298"><ele>349.0</ele><time>2026-05-03T16:23:06.999Z</time></trkpt><trkpt lat="43.31958106969546" lon="12.881739681801777"><ele>349.0</ele><time>2026-05-03T16:23:07.999Z</time></trkpt><trkpt lat="43.31963373461993" lon="12.88193955699037"><ele>349.0</ele><time>2026-05-03T16:23:08.999Z</time></trkpt><trkpt lat="43.319695028560254" lon="12.882139568730796"><ele>349.66666666666663</ele><time>2026-05-03T16:23:09.999Z</time></trkpt><trkpt lat="43.31976154048431" lon="12.882342786369296"><ele>350.3333333333333</ele><time>2026-05-03T16:23:10.999Z</time></trkpt><trkpt lat="43.31982425072146" lon="12.882550293182826"><ele>351.0</ele><time>2026-05-03T16:23:11.999Z</time></trkpt><trkpt lat="43.31988867278685" lon="12.882754105587436"><ele>351.0</ele><time>2026-05-03T16:23:12.999Z</time></trkpt><trkpt lat="43.3199503618509" lon="12.882953009430018"><ele>351.0</ele><time>2026-05-03T16:23:13.999Z</time></trkpt><trkpt lat="43.320014421013774" lon="12.88315505964681"><ele>351.0</ele><time>2026-05-03T16:23:14.999Z</time></trkpt><trkpt lat="43.32007743830504" lon="12.883352075987158"><ele>348.6666666666667</ele><time>2026-05-03T16:23:15.999Z</time></trkpt><trkpt lat="43.32015406651042" lon="12.883559297371265"><ele>346.33333333333337</ele><time>2026-05-03T16:23:16.999Z</time></trkpt><trkpt lat="43.32022865114675" lon="12.883759346547732"><ele>344.0</ele><time>2026-05-03T16:23:17.999Z</time></trkpt><trkpt lat="43.320305118967696" lon="12.883964043751709"><ele>344.0</ele><time>2026-05-03T16:23:18.999Z</time></trkpt><trkpt lat="43.32037281450177" lon="12.884170368515774"><ele>344.0</ele><time>2026-05-03T16:23:19.999Z</time></trkpt><trkpt lat="43.32044077032786" lon="12.884381130521993"><ele>344.0</ele><time>2026-05-03T16:23:20.999Z</time></trkpt><trkpt lat="43.32050621172117" lon="12.884586927984708"><ele>345.0</ele><time>2026-05-03T16:23:21.999Z</time></trkpt><trkpt lat="43.32057507403202" lon="12.884796336302204"><ele>346.0</ele><time>2026-05-03T16:23:22.999Z</time></trkpt><trkpt lat="43.3206438497936" lon="12.885001873472802"><ele>347.0</ele><time>2026-05-03T16:23:23.999Z</time></trkpt><trkpt lat="43.320712836844415" lon="12.885205664805678"><ele>347.0</ele><time>2026-05-03T16:23:24.999Z</time></trkpt><trkpt lat="43.32077789924426" lon="12.885408332353023"><ele>347.0</ele><time>2026-05-03T16:23:25.999Z</time></trkpt><trkpt lat="43.32084105705823" lon="12.885607433288108"><ele>347.0</ele><time>2026-05-03T16:23:26.999Z</time></trkpt><trkpt lat="43.32090245531553" lon="12.885800184696642"><ele>346.0</ele><time>2026-05-03T16:23:27.999Z</time></trkpt><trkpt lat="43.32095906243668" lon="12.88599324867926"><ele>345.0</ele><time>2026-05-03T16:23:28.999Z</time></trkpt><trkpt lat="43.321011819840926" lon="12.88618594234643"><ele>344.0</ele><time>2026-05-03T16:23:29.999Z</time></trkpt><trkpt lat="43.32106197226695" lon="12.886378115094203"><ele>344.0</ele><time>2026-05-03T16:23:30.999Z</time></trkpt><trkpt lat="43.321106669574874" lon="12.886570823460582"><ele>344.0</ele><time>2026-05-03T16:23:31.999Z</time></trkpt><trkpt lat="43.321152967611766" lon="12.88676308665289"><ele>344.0</ele><time>2026-05-03T16:23:32.999Z</time></trkpt><trkpt lat="43.321200494914784" lon="12.88695167469415"><ele>344.0</ele><time>2026-05-03T16:23:33.999Z</time></trkpt><trkpt lat="43.321249589828696" lon="12.887137473023802"><ele>344.75</ele><time>2026-05-03T16:23:34.999Z</time></trkpt><trkpt lat="43.321304351233245" lon="12.887324046303007"><ele>345.5</ele><time>2026-05-03T16:23:35.999Z</time></trkpt><trkpt lat="43.32136149947399" lon="12.887503905787732"><ele>346.25</ele><time>2026-05-03T16:23:36.999Z</time></trkpt><trkpt lat="43.32142768431433" lon="12.887676795959932"><ele>347.0</ele><time>2026-05-03T16:23:37.999Z</time></trkpt><trkpt lat="43.32148669885185" lon="12.887854418774582"><ele>345.0</ele><time>2026-05-03T16:23:38.999Z</time></trkpt><trkpt lat="43.32154699278489" lon="12.888034295997505"><ele>343.0</ele><time>2026-05-03T16:23:39.999Z</time></trkpt><trkpt lat="43.321609548363256" lon="12.888199959409947"><ele>341.0</ele><time>2026-05-03T16:23:40.999Z</time></trkpt><trkpt lat="43.32167119696828" lon="12.888364008103594"><ele>339.0</ele><time>2026-05-03T16:23:41.999Z</time></trkpt><trkpt lat="43.32172804385161" lon="12.88852431059141"><ele>338.5</ele><time>2026-05-03T16:23:42.999Z</time></trkpt><trkpt lat="43.321781988754765" lon="12.888686280430326"><ele>338.0</ele><time>2026-05-03T16:23:43.999Z</time></trkpt><trkpt lat="43.32183544175079" lon="12.888848156121114"><ele>337.5</ele><time>2026-05-03T16:23:44.998Z</time></trkpt><trkpt lat="43.32188667114407" lon="12.889010007431965"><ele>337.0</ele><time>2026-05-03T16:23:45.998Z</time></trkpt><trkpt lat="43.32193385104674" lon="12.889167943626708"><ele>339.25</ele><time>2026-05-03T16:23:47Z</time></trkpt><trkpt lat="43.321979384858075" lon="12.889320130145428"><ele>341.5</ele><time>2026-05-03T16:23:48Z</time></trkpt><trkpt lat="43.32202622691238" lon="12.889472659008947"><ele>343.75</ele><time>2026-05-03T16:23:49Z</time></trkpt><trkpt lat="43.32207535234" lon="12.889623687055506"><ele>346.0</ele><time>2026-05-03T16:23:50Z</time></trkpt><trkpt lat="43.322126491897976" lon="12.889772555782994"><ele>346.0</ele><time>2026-05-03T16:23:51Z</time></trkpt><trkpt lat="43.32217844810448" lon="12.889921276297873"><ele>346.0</ele><time>2026-05-03T16:23:52Z</time></trkpt><trkpt lat="43.322233927752265" lon="12.890065998675208"><ele>346.0</ele><time>2026-05-03T16:23:53Z</time></trkpt><trkpt lat="43.32229469485219" lon="12.890208809203065"><ele>346.0</ele><time>2026-05-03T16:23:54Z</time></trkpt><trkpt lat="43.322358429898394" lon="12.890350955220471"><ele>344.5</ele><time>2026-05-03T16:23:55Z</time></trkpt><trkpt lat="43.32242157646796" lon="12.89049740045341"><ele>343.0</ele><time>2026-05-03T16:23:56Z</time></trkpt><trkpt lat="43.322480068880516" lon="12.8906469952774"><ele>341.5</ele><time>2026-05-03T16:23:57Z</time></trkpt><trkpt lat="43.32254073489103" lon="12.890799583537802"><ele>340.0</ele><time>2026-05-03T16:23:58Z</time></trkpt><trkpt lat="43.3225992151974" lon="12.890955148197381"><ele>339.75</ele><time>2026-05-03T16:23:59Z</time></trkpt><trkpt lat="43.32266021871583" lon="12.891110229407552"><ele>339.5</ele><time>2026-05-03T16:24:00Z</time></trkpt><trkpt lat="43.32273089306217" lon="12.891255112324245"><ele>339.25</ele><time>2026-05-03T16:24:01Z</time></trkpt><trkpt lat="43.32281800744767" lon="12.891389830964112"><ele>339.0</ele><time>2026-05-03T16:24:02Z</time></trkpt><trkpt lat="43.32291365316265" lon="12.89151706202374"><ele>339.0</ele><time>2026-05-03T16:24:03Z</time></trkpt><trkpt lat="43.32301769119242" lon="12.89163736765298"><ele>339.0</ele><time>2026-05-03T16:24:04Z</time></trkpt><trkpt lat="43.32312483989066" lon="12.891750846286712"><ele>339.0</ele><time>2026-05-03T16:24:05Z</time></trkpt><trkpt lat="43.32323360878012" lon="12.891865460710163"><ele>339.0</ele><time>2026-05-03T16:24:06Z</time></trkpt><trkpt lat="43.323342316340884" lon="12.891979885840428"><ele>339.0</ele><time>2026-05-03T16:24:07Z</time></trkpt><trkpt lat="43.323454433126564" lon="12.89209415484826"><ele>339.0</ele><time>2026-05-03T16:24:08Z</time></trkpt><trkpt lat="43.32356690524985" lon="12.892204027841613"><ele>339.0</ele><time>2026-05-03T16:24:09Z</time></trkpt><trkpt lat="43.32367613206027" lon="12.89231740020648"><ele>339.0</ele><time>2026-05-03T16:24:10Z</time></trkpt><trkpt lat="43.323783512354794" lon="12.8924320967732"><ele>339.0</ele><time>2026-05-03T16:24:11Z</time></trkpt><trkpt lat="43.323887001073714" lon="12.892545740193787"><ele>339.0</ele><time>2026-05-03T16:24:12Z</time></trkpt><trkpt lat="43.32399195270786" lon="12.892659024396128"><ele>339.0</ele><time>2026-05-03T16:24:13Z</time></trkpt><trkpt lat="43.32409439542752" lon="12.892772587681236"><ele>339.0</ele><time>2026-05-03T16:24:14Z</time></trkpt><trkpt lat="43.32420033381682" lon="12.89288463612582"><ele>339.5</ele><time>2026-05-03T16:24:15Z</time></trkpt><trkpt lat="43.32430699596877" lon="12.892999508831531"><ele>340.0</ele><time>2026-05-03T16:24:16Z</time></trkpt><trkpt lat="43.32441330322779" lon="12.893121240295274"><ele>340.5</ele><time>2026-05-03T16:24:17Z</time></trkpt><trkpt lat="43.32452206908804" lon="12.893238224907833"><ele>341.0</ele><time>2026-05-03T16:24:18Z</time></trkpt><trkpt lat="43.32463108914274" lon="12.893355720734366"><ele>341.0</ele><time>2026-05-03T16:24:19Z</time></trkpt><trkpt lat="43.32474126813502" lon="12.893477890518643"><ele>341.0</ele><time>2026-05-03T16:24:20Z</time></trkpt><trkpt lat="43.32485126136776" lon="12.893601734698809"><ele>341.0</ele><time>2026-05-03T16:24:21Z</time></trkpt><trkpt lat="43.32496329200644" lon="12.893726448943635"><ele>341.0</ele><time>2026-05-03T16:24:22Z</time></trkpt><trkpt lat="43.32507575409064" lon="12.893848626919487"><ele>341.0</ele><time>2026-05-03T16:24:23Z</time></trkpt><trkpt lat="43.32518875718196" lon="12.893968979224882"><ele>341.0</ele><time>2026-05-03T16:24:24Z</time></trkpt><trkpt lat="43.32529997297474" lon="12.89408902848484"><ele>341.0</ele><time>2026-05-03T16:24:25Z</time></trkpt><trkpt lat="43.32541221321881" lon="12.894210334730031"><ele>341.0</ele><time>2026-05-03T16:24:26Z</time></trkpt><trkpt lat="43.32552497620917" lon="12.894330957401538"><ele>341.0</ele><time>2026-05-03T16:24:27Z</time></trkpt><trkpt lat="43.32563647456528" lon="12.894454039310277"><ele>341.0</ele><time>2026-05-03T16:24:28Z</time></trkpt><trkpt lat="43.325747267489426" lon="12.894578954149619"><ele>341.0</ele><time>2026-05-03T16:24:29Z</time></trkpt><trkpt lat="43.325856492619465" lon="12.894701319113043"><ele>341.0</ele><time>2026-05-03T16:24:30Z</time></trkpt><trkpt lat="43.3259678216908" lon="12.89482198333221"><ele>341.0</ele><time>2026-05-03T16:24:31Z</time></trkpt><trkpt lat="43.32607852580406" lon="12.894942925216089"><ele>341.0</ele><time>2026-05-03T16:24:32Z</time></trkpt><trkpt lat="43.326188029030796" lon="12.895061934649537"><ele>341.0</ele><time>2026-05-03T16:24:33Z</time></trkpt><trkpt lat="43.3262962445353" lon="12.895179200631791"><ele>341.0</ele><time>2026-05-03T16:24:34Z</time></trkpt><trkpt lat="43.3264004604002" lon="12.895295202134562"><ele>342.0</ele><time>2026-05-03T16:24:35Z</time></trkpt><trkpt lat="43.326500562233825" lon="12.895409987971766"><ele>343.0</ele><time>2026-05-03T16:24:36Z</time></trkpt><trkpt lat="43.32660050276591" lon="12.8955216702572"><ele>344.0</ele><time>2026-05-03T16:24:37Z</time></trkpt><trkpt lat="43.32670253521344" lon="12.895624878300271"><ele>345.0</ele><time>2026-05-03T16:24:38Z</time></trkpt><trkpt lat="43.32680682316793" lon="12.895727692697275"><ele>345.0</ele><time>2026-05-03T16:24:38.999Z</time></trkpt><trkpt lat="43.32691284896382" lon="12.895828129100243"><ele>345.0</ele><time>2026-05-03T16:24:39.999Z</time></trkpt><trkpt lat="43.32701869731989" lon="12.895929386504326"><ele>345.0</ele><time>2026-05-03T16:24:40.999Z</time></trkpt><trkpt lat="43.32712204299486" lon="12.896034150970392"><ele>345.0</ele><time>2026-05-03T16:24:41.999Z</time></trkpt><trkpt lat="43.3272242750402" lon="12.896146877898792"><ele>345.0</ele><time>2026-05-03T16:24:42.999Z</time></trkpt><trkpt lat="43.327318915395196" lon="12.896267704723424"><ele>345.0</ele><time>2026-05-03T16:24:43.999Z</time></trkpt><trkpt lat="43.327411941664636" lon="12.896393469854596"><ele>345.0</ele><time>2026-05-03T16:24:44.999Z</time></trkpt><trkpt lat="43.32750481538223" lon="12.896520230151921"><ele>345.0</ele><time>2026-05-03T16:24:45.999Z</time></trkpt><trkpt lat="43.32759879514873" lon="12.896646168323613"><ele>348.0</ele><time>2026-05-03T16:24:46.999Z</time></trkpt><trkpt lat="43.32769415480887" lon="12.896764316344774"><ele>351.0</ele><time>2026-05-03T16:24:47.999Z</time></trkpt><trkpt lat="43.327791838779305" lon="12.896870298047624"><ele>354.0</ele><time>2026-05-03T16:24:48.999Z</time></trkpt><trkpt lat="43.32789561037806" lon="12.896972290000141"><ele>357.0</ele><time>2026-05-03T16:24:49.999Z</time></trkpt><trkpt lat="43.32799665472982" lon="12.897066953565966"><ele>353.75</ele><time>2026-05-03T16:24:50.999Z</time></trkpt><trkpt lat="43.32809606600938" lon="12.8971605936151"><ele>350.5</ele><time>2026-05-03T16:24:51.999Z</time></trkpt><trkpt lat="43.32819440117528" lon="12.897247187358147"><ele>347.25</ele><time>2026-05-03T16:24:52.999Z</time></trkpt><trkpt lat="43.32829207504384" lon="12.897332327036631"><ele>344.0</ele><time>2026-05-03T16:24:53.999Z</time></trkpt><trkpt lat="43.3283880591367" lon="12.897411971078181"><ele>344.0</ele><time>2026-05-03T16:24:54.999Z</time></trkpt><trkpt lat="43.32848171839206" lon="12.897484023532721"><ele>344.0</ele><time>2026-05-03T16:24:55.999Z</time></trkpt><trkpt lat="43.328571537087505" lon="12.897558460512476"><ele>344.0</ele><time>2026-05-03T16:24:56.999Z</time></trkpt><trkpt lat="43.32866048444229" lon="12.897629628229456"><ele>344.0</ele><time>2026-05-03T16:24:57.999Z</time></trkpt><trkpt lat="43.32874761288501" lon="12.897699248238364"><ele>344.0</ele><time>2026-05-03T16:24:58.999Z</time></trkpt><trkpt lat="43.32883230160991" lon="12.897769446151035"><ele>343.2</ele><time>2026-05-03T16:24:59.999Z</time></trkpt><trkpt lat="43.32890748586552" lon="12.89785831598711"><ele>342.4</ele><time>2026-05-03T16:25:00.999Z</time></trkpt><trkpt lat="43.32899139943705" lon="12.897928754251122"><ele>341.6</ele><time>2026-05-03T16:25:01.999Z</time></trkpt><trkpt lat="43.329083633758195" lon="12.897980167250445"><ele>340.8</ele><time>2026-05-03T16:25:02.999Z</time></trkpt><trkpt lat="43.32916096863265" lon="12.898069483235117"><ele>340.0</ele><time>2026-05-03T16:25:03.999Z</time></trkpt><trkpt lat="43.329245556325766" lon="12.898140895945243"><ele>340.0</ele><time>2026-05-03T16:25:04.999Z</time></trkpt><trkpt lat="43.329330592660625" lon="12.898212687410485"><ele>340.0</ele><time>2026-05-03T16:25:05.999Z</time></trkpt><trkpt lat="43.32942150556182" lon="12.898265557650143"><ele>340.0</ele><time>2026-05-03T16:25:06.999Z</time></trkpt><trkpt lat="43.32950148878773" lon="12.89833730617169"><ele>340.0</ele><time>2026-05-03T16:25:07.999Z</time></trkpt><trkpt lat="43.32957905933058" lon="12.898409916730511"><ele>340.0</ele><time>2026-05-03T16:25:08.999Z</time></trkpt><trkpt lat="43.3296561679843" lon="12.898479172213207"><ele>340.2</ele><time>2026-05-03T16:25:09.999Z</time></trkpt><trkpt lat="43.32972851555881" lon="12.898557456737082"><ele>340.4</ele><time>2026-05-03T16:25:10.999Z</time></trkpt><trkpt lat="43.32979951381013" lon="12.898637437149677"><ele>340.6</ele><time>2026-05-03T16:25:11.999Z</time></trkpt><trkpt lat="43.32986308716134" lon="12.898721041243405"><ele>340.8</ele><time>2026-05-03T16:25:12.999Z</time></trkpt><trkpt lat="43.32992830551429" lon="12.898805589680045"><ele>341.0</ele><time>2026-05-03T16:25:13.999Z</time></trkpt><trkpt lat="43.32999164283159" lon="12.89889955028078"><ele>341.0</ele><time>2026-05-03T16:25:14.999Z</time></trkpt><trkpt lat="43.33005726984112" lon="12.898994911132585"><ele>341.0</ele><time>2026-05-03T16:25:15.999Z</time></trkpt><trkpt lat="43.330120947246044" lon="12.899099570172055"><ele>341.0</ele><time>2026-05-03T16:25:16.999Z</time></trkpt><trkpt lat="43.330179570349515" lon="12.899207727165741"><ele>341.0</ele><time>2026-05-03T16:25:17.999Z</time></trkpt><trkpt lat="43.33023466247669" lon="12.899315672429996"><ele>341.0</ele><time>2026-05-03T16:25:18.999Z</time></trkpt><trkpt lat="43.33028687869619" lon="12.899425507289441"><ele>341.4</ele><time>2026-05-03T16:25:19.999Z</time></trkpt><trkpt lat="43.33033780601292" lon="12.899540051910682"><ele>341.8</ele><time>2026-05-03T16:25:20.999Z</time></trkpt><trkpt lat="43.33038770698882" lon="12.899653208604734"><ele>342.2</ele><time>2026-05-03T16:25:21.999Z</time></trkpt><trkpt lat="43.33044130807021" lon="12.899770125250365"><ele>342.59999999999997</ele><time>2026-05-03T16:25:22.999Z</time></trkpt><trkpt lat="43.33049467155188" lon="12.899890043573883"><ele>343.0</ele><time>2026-05-03T16:25:23.999Z</time></trkpt><trkpt lat="43.33054767423774" lon="12.90001044470993"><ele>343.0</ele><time>2026-05-03T16:25:24.999Z</time></trkpt><trkpt lat="43.33060252457587" lon="12.900130654071047"><ele>343.0</ele><time>2026-05-03T16:25:25.999Z</time></trkpt><trkpt lat="43.33065676904104" lon="12.900251886390041"><ele>343.0</ele><time>2026-05-03T16:25:26.999Z</time></trkpt><trkpt lat="43.330711473657075" lon="12.900373486669213"><ele>343.0</ele><time>2026-05-03T16:25:27.999Z</time></trkpt><trkpt lat="43.33076759024964" lon="12.900498376462018"><ele>343.0</ele><time>2026-05-03T16:25:28.999Z</time></trkpt><trkpt lat="43.33082235230824" lon="12.900624212421"><ele>343.0</ele><time>2026-05-03T16:25:29.999Z</time></trkpt><trkpt lat="43.33087636072298" lon="12.900751110883615"><ele>343.0</ele><time>2026-05-03T16:25:30.999Z</time></trkpt><trkpt lat="43.330932672321715" lon="12.900878693102893"><ele>343.0</ele><time>2026-05-03T16:25:31.999Z</time></trkpt><trkpt lat="43.33098706055" lon="12.901007435747651"><ele>343.0</ele><time>2026-05-03T16:25:32.999Z</time></trkpt><trkpt lat="43.331042996494276" lon="12.901136412428782"><ele>343.0</ele><time>2026-05-03T16:25:33.999Z</time></trkpt><trkpt lat="43.33110070957213" lon="12.901262934155046"><ele>343.0</ele><time>2026-05-03T16:25:34.999Z</time></trkpt><trkpt lat="43.33115745892485" lon="12.901392514003417"><ele>343.0</ele><time>2026-05-03T16:25:35.999Z</time></trkpt><trkpt lat="43.33121422743871" lon="12.9015225923222"><ele>343.0</ele><time>2026-05-03T16:25:36.999Z</time></trkpt><trkpt lat="43.331268979638516" lon="12.901653599984911"><ele>343.0</ele><time>2026-05-03T16:25:37.999Z</time></trkpt><trkpt lat="43.331320708560106" lon="12.901780890904446"><ele>343.0</ele><time>2026-05-03T16:25:38.999Z</time></trkpt><trkpt lat="43.33136909011119" lon="12.90189847824421"><ele>342.3333333333333</ele><time>2026-05-03T16:25:39.999Z</time></trkpt><trkpt lat="43.33140920444737" lon="12.901990962989773"><ele>341.66666666666663</ele><time>2026-05-03T16:25:40.999Z</time></trkpt><trkpt lat="43.33146594394465" lon="12.902111795584082"><ele>341.0</ele><time>2026-05-03T16:25:42.999Z</time></trkpt><trkpt lat="43.331500794225725" lon="12.902191628924903"><ele>340.3333333333333</ele><time>2026-05-03T16:25:45.999Z</time></trkpt><trkpt lat="43.33154408521719" lon="12.902292338917128"><ele>339.6666666666667</ele><time>2026-05-03T16:25:49.999Z</time></trkpt><trkpt lat="43.33157772583414" lon="12.902373126893869"><ele>339.0</ele><time>2026-05-03T16:25:51.998Z</time></trkpt><trkpt lat="43.33159569084085" lon="12.902469062205748"><ele>339.0</ele><time>2026-05-03T16:25:54Z</time></trkpt><trkpt lat="43.331662526808294" lon="12.902500918791969"><ele>339.0</ele><time>2026-05-03T16:25:56Z</time></trkpt><trkpt lat="43.33171875493587" lon="12.902435904047945"><ele>339.0</ele><time>2026-05-03T16:25:59Z</time></trkpt><trkpt lat="43.33175518493102" lon="12.902320564473122"><ele>339.0</ele><time>2026-05-03T16:26:06Z</time></trkpt><trkpt lat="43.33180450709957" lon="12.902236498704404"><ele>339.0</ele><time>2026-05-03T16:26:08Z</time></trkpt><trkpt lat="43.33187445228792" lon="12.902148514975735"><ele>339.0</ele><time>2026-05-03T16:26:10Z</time></trkpt><trkpt lat="43.331958616595756" lon="12.902042518470111"><ele>339.0</ele><time>2026-05-03T16:26:12Z</time></trkpt><trkpt lat="43.33203575434937" lon="12.901954791658987"><ele>339.0</ele><time>2026-05-03T16:26:14Z</time></trkpt><trkpt lat="43.332111031830586" lon="12.901864154035808"><ele>339.0</ele><time>2026-05-03T16:26:16Z</time></trkpt><trkpt lat="43.33219345807513" lon="12.901775918247388"><ele>339.0</ele><time>2026-05-03T16:26:18Z</time></trkpt><trkpt lat="43.3322801238187" lon="12.901681428351056"><ele>339.0</ele><time>2026-05-03T16:26:20Z</time></trkpt><trkpt lat="43.33234856092609" lon="12.90160936040138"><ele>339.1666666666667</ele><time>2026-05-03T16:26:22Z</time></trkpt><trkpt lat="43.33239124180276" lon="12.901544744200129"><ele>339.3333333333333</ele><time>2026-05-03T16:26:24Z</time></trkpt><trkpt lat="43.332444759159024" lon="12.901454445485967"><ele>339.5</ele><time>2026-05-03T16:26:27Z</time></trkpt><trkpt lat="43.33249898787658" lon="12.901403161471835"><ele>339.66666666666663</ele><time>2026-05-03T16:26:29Z</time></trkpt><trkpt lat="43.33254698130489" lon="12.901331863791096"><ele>339.8333333333333</ele><time>2026-05-03T16:26:31Z</time></trkpt><trkpt lat="43.33258951699271" lon="12.901218811181804"><ele>340.0</ele><time>2026-05-03T16:26:33Z</time></trkpt><trkpt lat="43.33266081833013" lon="12.90112749156468"><ele>340.0</ele><time>2026-05-03T16:26:35Z</time></trkpt><trkpt lat="43.332659092496876" lon="12.90100194170213"><ele>340.0</ele><time>2026-05-03T16:26:36Z</time></trkpt><trkpt lat="43.33268455554477" lon="12.900920356516608"><ele>340.0</ele><time>2026-05-03T16:26:37Z</time></trkpt><trkpt lat="43.33268995279143" lon="12.900831030730872"><ele>340.0</ele><time>2026-05-03T16:26:38Z</time></trkpt><trkpt lat="43.3327326356751" lon="12.900667173384285"><ele>340.0</ele><time>2026-05-03T16:26:40Z</time></trkpt><trkpt lat="43.332755368809785" lon="12.900578309882746"><ele>340.0</ele><time>2026-05-03T16:26:41Z</time></trkpt><trkpt lat="43.33279867508148" lon="12.900408390848458"><ele>339.8571428571429</ele><time>2026-05-03T16:26:43Z</time></trkpt><trkpt lat="43.33282686256269" lon="12.900326791624057"><ele>339.71428571428567</ele><time>2026-05-03T16:26:43.999Z</time></trkpt><trkpt lat="43.332842046901966" lon="12.9002341221534"><ele>339.57142857142856</ele><time>2026-05-03T16:26:44.999Z</time></trkpt><trkpt lat="43.33284845090921" lon="12.9001335643652"><ele>339.42857142857144</ele><time>2026-05-03T16:26:45.999Z</time></trkpt><trkpt lat="43.33284543498066" lon="12.90004663459581"><ele>339.28571428571433</ele><time>2026-05-03T16:26:46.999Z</time></trkpt><trkpt lat="43.332805571823" lon="12.899953804230565"><ele>339.1428571428571</ele><time>2026-05-03T16:26:47.999Z</time></trkpt><trkpt lat="43.33278921269705" lon="12.899856589495815"><ele>339.0</ele><time>2026-05-03T16:26:48.999Z</time></trkpt><trkpt lat="43.332778357404244" lon="12.89976204801946"><ele>338.85714285714283</ele><time>2026-05-03T16:26:49.999Z</time></trkpt><trkpt lat="43.332765890714704" lon="12.899662896130936"><ele>338.7142857142857</ele><time>2026-05-03T16:26:50.999Z</time></trkpt><trkpt lat="43.33278746554105" lon="12.899558896630003"><ele>338.57142857142856</ele><time>2026-05-03T16:26:51.999Z</time></trkpt><trkpt lat="43.33277010639752" lon="12.899464937585334"><ele>338.42857142857144</ele><time>2026-05-03T16:26:52.999Z</time></trkpt><trkpt lat="43.33275330858622" lon="12.899377463086777"><ele>338.2857142857143</ele><time>2026-05-03T16:26:53.999Z</time></trkpt><trkpt lat="43.33273580406335" lon="12.899291609925557"><ele>338.14285714285717</ele><time>2026-05-03T16:26:54.999Z</time></trkpt><trkpt lat="43.33271669027634" lon="12.89919786401358"><ele>338.0</ele><time>2026-05-03T16:26:55.999Z</time></trkpt><trkpt lat="43.33268533791202" lon="12.899038228816952"><ele>337.5</ele><time>2026-05-03T16:26:57.999Z</time></trkpt><trkpt lat="43.33267057971046" lon="12.898950399525411"><ele>337.0</ele><time>2026-05-03T16:26:58.999Z</time></trkpt><trkpt lat="43.33263864961074" lon="12.89879621171011"><ele>336.5</ele><time>2026-05-03T16:27:00.999Z</time></trkpt><trkpt lat="43.33262172871238" lon="12.89871069057079"><ele>336.0</ele><time>2026-05-03T16:27:01.999Z</time></trkpt><trkpt lat="43.332559290194084" lon="12.898565114900608"><ele>335.5</ele><time>2026-05-03T16:27:03.999Z</time></trkpt><trkpt lat="43.33251168918287" lon="12.89849591230561"><ele>335.0</ele><time>2026-05-03T16:27:04.999Z</time></trkpt><trkpt lat="43.332477839706975" lon="12.898406561309072"><ele>334.33333333333337</ele><time>2026-05-03T16:27:05.999Z</time></trkpt><trkpt lat="43.332434790388525" lon="12.898335356461276"><ele>333.6666666666667</ele><time>2026-05-03T16:27:06.999Z</time></trkpt><trkpt lat="43.332390383623036" lon="12.898267867763188"><ele>333.0</ele><time>2026-05-03T16:27:07.999Z</time></trkpt><trkpt lat="43.332336625314305" lon="12.898215396050245"><ele>332.3333333333333</ele><time>2026-05-03T16:27:08.999Z</time></trkpt><trkpt lat="43.33230648229638" lon="12.898135917095592"><ele>331.66666666666663</ele><time>2026-05-03T16:27:09.999Z</time></trkpt><trkpt lat="43.33222315307311" lon="12.89801263538944"><ele>331.0</ele><time>2026-05-03T16:27:11.999Z</time></trkpt><trkpt lat="43.332120998171206" lon="12.89796428908513"><ele>331.0</ele><time>2026-05-03T16:27:13.999Z</time></trkpt><trkpt lat="43.33200905488942" lon="12.898024843266361"><ele>331.0</ele><time>2026-05-03T16:27:15.999Z</time></trkpt><trkpt lat="43.33191446008957" lon="12.898078903687589"><ele>331.0</ele><time>2026-05-03T16:27:17.999Z</time></trkpt><trkpt lat="43.331798401485266" lon="12.89814256857392"><ele>331.0</ele><time>2026-05-03T16:27:19.999Z</time></trkpt><trkpt lat="43.33167400822607" lon="12.898175710147957"><ele>331.0</ele><time>2026-05-03T16:27:21.999Z</time></trkpt><trkpt lat="43.33159999283014" lon="12.898177473556498"><ele>331.0</ele><time>2026-05-03T16:27:22.999Z</time></trkpt><trkpt lat="43.331521009620225" lon="12.898168150366839"><ele>331.0</ele><time>2026-05-03T16:27:23.999Z</time></trkpt><trkpt lat="43.331436798982715" lon="12.898150299678255"><ele>331.0</ele><time>2026-05-03T16:27:24.999Z</time></trkpt><trkpt lat="43.33135629193469" lon="12.898118461143103"><ele>331.0</ele><time>2026-05-03T16:27:25.999Z</time></trkpt><trkpt lat="43.33127704512702" lon="12.898073874025506"><ele>331.0</ele><time>2026-05-03T16:27:26.999Z</time></trkpt><trkpt lat="43.33120415837711" lon="12.898016416368966"><ele>331.0</ele><time>2026-05-03T16:27:27.999Z</time></trkpt><trkpt lat="43.33114044162796" lon="12.897938983121598"><ele>331.0</ele><time>2026-05-03T16:27:28.999Z</time></trkpt><trkpt lat="43.33108811784862" lon="12.89784881448855"><ele>331.0</ele><time>2026-05-03T16:27:29.999Z</time></trkpt><trkpt lat="43.331049735349524" lon="12.897752106405004"><ele>331.0</ele><time>2026-05-03T16:27:30.999Z</time></trkpt><trkpt lat="43.33104198070385" lon="12.897639805650035"><ele>331.0</ele><time>2026-05-03T16:27:31.999Z</time></trkpt><trkpt lat="43.33104422195252" lon="12.897519421086418"><ele>331.0</ele><time>2026-05-03T16:27:32.999Z</time></trkpt><trkpt lat="43.3310542907363" lon="12.897398203368846"><ele>330.5</ele><time>2026-05-03T16:27:33.999Z</time></trkpt><trkpt lat="43.33107236947862" lon="12.897286738335554"><ele>330.0</ele><time>2026-05-03T16:27:34.999Z</time></trkpt><trkpt lat="43.33108923291925" lon="12.897177572491536"><ele>329.5</ele><time>2026-05-03T16:27:35.999Z</time></trkpt><trkpt lat="43.33110970699366" lon="12.897075982481603"><ele>329.0</ele><time>2026-05-03T16:27:36.999Z</time></trkpt><trkpt lat="43.3311185467101" lon="12.896980870781913"><ele>328.5</ele><time>2026-05-03T16:27:37.999Z</time></trkpt><trkpt lat="43.331113513329015" lon="12.896890831462873"><ele>328.0</ele><time>2026-05-03T16:27:38.999Z</time></trkpt><trkpt lat="43.33104756037485" lon="12.896742160556554"><ele>328.0</ele><time>2026-05-03T16:27:40.999Z</time></trkpt><trkpt lat="43.33097536910509" lon="12.896710136761453"><ele>328.0</ele><time>2026-05-03T16:27:41.999Z</time></trkpt><trkpt lat="43.33088785770273" lon="12.896718957956258"><ele>328.0</ele><time>2026-05-03T16:27:42.999Z</time></trkpt><trkpt lat="43.330808027471875" lon="12.89672436735248"><ele>328.0</ele><time>2026-05-03T16:27:43.999Z</time></trkpt><trkpt lat="43.33072685230108" lon="12.896728397940445"><ele>328.0</ele><time>2026-05-03T16:27:44.999Z</time></trkpt><trkpt lat="43.33064488565495" lon="12.896731290423933"><ele>328.0</ele><time>2026-05-03T16:27:45.999Z</time></trkpt><trkpt lat="43.330562743281945" lon="12.896724213152632"><ele>328.0</ele><time>2026-05-03T16:27:46.999Z</time></trkpt><trkpt lat="43.33047630714103" lon="12.896705526956081"><ele>328.0</ele><time>2026-05-03T16:27:47.999Z</time></trkpt><trkpt lat="43.33039640808988" lon="12.896662443162194"><ele>328.0</ele><time>2026-05-03T16:27:48.999Z</time></trkpt><trkpt lat="43.33032190709824" lon="12.896601032274228"><ele>328.0</ele><time>2026-05-03T16:27:49.999Z</time></trkpt><trkpt lat="43.330275265839646" lon="12.896505475251303"><ele>328.0</ele><time>2026-05-03T16:27:50.999Z</time></trkpt><trkpt lat="43.330223682262876" lon="12.896413151362086"><ele>328.0</ele><time>2026-05-03T16:27:51.999Z</time></trkpt><trkpt lat="43.33015952976726" lon="12.89632928367782"><ele>328.0</ele><time>2026-05-03T16:27:52.999Z</time></trkpt><trkpt lat="43.33009216893609" lon="12.896266909623881"><ele>328.0</ele><time>2026-05-03T16:27:53.999Z</time></trkpt><trkpt lat="43.330013212179246" lon="12.896214640226756"><ele>328.0</ele><time>2026-05-03T16:27:54.999Z</time></trkpt><trkpt lat="43.32993428356103" lon="12.896168189069266"><ele>328.0</ele><time>2026-05-03T16:27:55.998Z</time></trkpt><trkpt lat="43.3298624141185" lon="12.896129610698056"><ele>328.0</ele><time>2026-05-03T16:27:56.998Z</time></trkpt><trkpt lat="43.329794107140984" lon="12.896086069828819"><ele>328.0</ele><time>2026-05-03T16:27:57.998Z</time></trkpt><trkpt lat="43.329727011686245" lon="12.896040896795665"><ele>328.2</ele><time>2026-05-03T16:27:59Z</time></trkpt><trkpt lat="43.32966298246164" lon="12.895996655250729"><ele>328.4</ele><time>2026-05-03T16:28:00Z</time></trkpt><trkpt lat="43.329573416126685" lon="12.895956927777364"><ele>328.59999999999997</ele><time>2026-05-03T16:28:02Z</time></trkpt><trkpt lat="43.3296377297558" lon="12.895793146387534"><ele>328.79999999999995</ele><time>2026-05-03T16:28:05Z</time></trkpt><trkpt lat="43.32968194663923" lon="12.895676680920515"><ele>329.0</ele><time>2026-05-03T16:28:07Z</time></trkpt><trkpt lat="43.32973814382377" lon="12.895574155746232"><ele>329.0</ele><time>2026-05-03T16:28:09Z</time></trkpt><trkpt lat="43.32983368571591" lon="12.895597240621973"><ele>329.0</ele><time>2026-05-03T16:28:11Z</time></trkpt><trkpt lat="43.32990526553174" lon="12.89565792040071"><ele>329.0</ele><time>2026-05-03T16:28:13Z</time></trkpt><trkpt lat="43.32983968683005" lon="12.895605085882538"><ele>329.0</ele><time>2026-05-03T16:29:11.999Z</time></trkpt><trkpt lat="43.32991111857715" lon="12.895646750101383"><ele>329.0</ele><time>2026-05-03T16:30:42Z</time></trkpt><trkpt lat="43.32990186151409" lon="12.895736265550463"><ele>329.0</ele><time>2026-05-03T16:30:51Z</time></trkpt><trkpt lat="43.32990199181896" lon="12.8958504910396"><ele>329.0</ele><time>2026-05-03T16:31:46.999Z</time></trkpt><trkpt lat="43.329926530043764" lon="12.895934906228337"><ele>329.0</ele><time>2026-05-03T16:31:54.999Z</time></trkpt><trkpt lat="43.32996173277644" lon="12.895860720711195"><ele>329.0</ele><time>2026-05-03T16:32:13Z</time></trkpt><trkpt lat="43.3299797081343" lon="12.895747747737452"><ele>329.0</ele><time>2026-05-03T16:32:16Z</time></trkpt><trkpt lat="43.33002445544604" lon="12.89565971681636"><ele>329.0</ele><time>2026-05-03T16:32:42Z</time></trkpt><trkpt lat="43.330000275356056" lon="12.895558522293015"><ele>329.0</ele><time>2026-05-03T16:32:47Z</time></trkpt><trkpt lat="43.32999332108283" lon="12.895424002518565"><ele>329.0</ele><time>2026-05-03T16:32:48Z</time></trkpt><trkpt lat="43.33001892999631" lon="12.895331034215294"><ele>329.0</ele><time>2026-05-03T16:33:12.999Z</time></trkpt><trkpt lat="43.33006970426403" lon="12.895258650940235"><ele>329.0</ele><time>2026-05-03T16:33:14.999Z</time></trkpt><trkpt lat="43.330085229485896" lon="12.895166314277406"><ele>329.0</ele><time>2026-05-03T16:33:17.999Z</time></trkpt><trkpt lat="43.33008944600103" lon="12.895284678915317"><ele>329.0</ele><time>2026-05-03T16:33:38.999Z</time></trkpt><trkpt lat="43.33009586837608" lon="12.89537158980608"><ele>329.0</ele><time>2026-05-03T16:33:42.999Z</time></trkpt><trkpt lat="43.330079893733696" lon="12.89546601674995"><ele>329.0</ele><time>2026-05-03T16:33:43.999Z</time></trkpt><trkpt lat="43.33007223530959" lon="12.895582057188966"><ele>329.0</ele><time>2026-05-03T16:33:44.999Z</time></trkpt><trkpt lat="43.330062319751455" lon="12.895681893163347"><ele>329.0</ele><time>2026-05-03T16:33:45.999Z</time></trkpt><trkpt lat="43.33005913253788" lon="12.895810171109332"><ele>329.0</ele><time>2026-05-03T16:33:48.999Z</time></trkpt><trkpt lat="43.329936751048706" lon="12.895809830193205"><ele>329.0</ele><time>2026-05-03T16:34:05.999Z</time></trkpt><trkpt lat="43.329865170760975" lon="12.895829134681513"><ele>329.0</ele><time>2026-05-03T16:34:07.999Z</time></trkpt><trkpt lat="43.329907427697414" lon="12.895923948631122"><ele>329.0</ele><time>2026-05-03T16:34:34Z</time></trkpt><trkpt lat="43.329920162614876" lon="12.89601864119478"><ele>329.0</ele><time>2026-05-03T16:34:35Z</time></trkpt><trkpt lat="43.32994290584747" lon="12.895930634417965"><ele>329.0</ele><time>2026-05-03T16:34:41Z</time></trkpt><trkpt lat="43.32999182005065" lon="12.895844931372942"><ele>329.0</ele><time>2026-05-03T16:35:33.999Z</time></trkpt><trkpt lat="43.3299555009379" lon="12.895582811057455"><ele>329.0</ele><time>2026-05-03T16:35:40.999Z</time></trkpt><trkpt lat="43.32988554482194" lon="12.895626468677888"><ele>329.0</ele><time>2026-05-03T16:37:10Z</time></trkpt><trkpt lat="43.329820848022806" lon="12.895701093724352"><ele>329.0</ele><time>2026-05-03T16:37:13.999Z</time></trkpt><trkpt lat="43.32973080373157" lon="12.895720167166115"><ele>329.0</ele><time>2026-05-03T16:37:16.999Z</time></trkpt><trkpt lat="43.32970983906308" lon="12.89580191235033"><ele>329.0</ele><time>2026-05-03T16:37:20.999Z</time></trkpt><trkpt lat="43.32991473942583" lon="12.895788438434595"><ele>329.0</ele><time>2026-05-03T16:37:33.999Z</time></trkpt><trkpt lat="43.329985418426816" lon="12.895751121702695"><ele>329.0</ele><time>2026-05-03T16:37:40.999Z</time></trkpt><trkpt lat="43.329868141294085" lon="12.895759849223271"><ele>329.0</ele><time>2026-05-03T16:38:07.999Z</time></trkpt><trkpt lat="43.32985060491128" lon="12.895659385742542"><ele>329.0</ele><time>2026-05-03T16:38:08.999Z</time></trkpt><trkpt lat="43.32978155521583" lon="12.895700770696306"><ele>329.0</ele><time>2026-05-03T16:38:10.999Z</time></trkpt><trkpt lat="43.329719690386426" lon="12.89567417376891"><ele>329.0</ele><time>2026-05-03T16:38:14.999Z</time></trkpt><trkpt lat="43.32969311833572" lon="12.89576820564797"><ele>329.0</ele><time>2026-05-03T16:38:28Z</time></trkpt><trkpt lat="43.32976644412975" lon="12.895785567945003"><ele>329.0</ele><time>2026-05-03T16:39:59.999Z</time></trkpt><trkpt lat="43.329835400470635" lon="12.89573470649169"><ele>329.0</ele><time>2026-05-03T16:43:53.999Z</time></trkpt><trkpt lat="43.329916948790256" lon="12.895666684519766"><ele>329.0</ele><time>2026-05-03T16:44:05.999Z</time></trkpt><trkpt lat="43.32984470345342" lon="12.895628670402363"><ele>329.0</ele><time>2026-05-03T16:47:18Z</time></trkpt><trkpt lat="43.32975961545516" lon="12.895576191559627"><ele>329.0</ele><time>2026-05-03T16:47:20Z</time></trkpt><trkpt lat="43.32967215384182" lon="12.895609850616832"><ele>329.0</ele><time>2026-05-03T16:47:22Z</time></trkpt><trkpt lat="43.3296279731423" lon="12.895748425204545"><ele>329.0</ele><time>2026-05-03T16:47:24Z</time></trkpt><trkpt lat="43.32960047232873" lon="12.895861999408176"><ele>329.1666666666667</ele><time>2026-05-03T16:47:26Z</time></trkpt><trkpt lat="43.32959193292713" lon="12.89596334952037"><ele>329.33333333333337</ele><time>2026-05-03T16:47:29Z</time></trkpt><trkpt lat="43.32964352034694" lon="12.89602119135067"><ele>329.5</ele><time>2026-05-03T16:47:31Z</time></trkpt><trkpt lat="43.329736222036594" lon="12.896092796976454"><ele>329.6666666666667</ele><time>2026-05-03T16:47:33Z</time></trkpt><trkpt lat="43.32979257891512" lon="12.896135109015498"><ele>329.8333333333333</ele><time>2026-05-03T16:47:34Z</time></trkpt><trkpt lat="43.32985405082712" lon="12.896178015787482"><ele>330.0</ele><time>2026-05-03T16:47:35Z</time></trkpt><trkpt lat="43.32992054337603" lon="12.896217580255604"><ele>329.7142857142857</ele><time>2026-05-03T16:47:36Z</time></trkpt><trkpt lat="43.32998667163339" lon="12.896254005321211"><ele>329.42857142857144</ele><time>2026-05-03T16:47:37Z</time></trkpt><trkpt lat="43.33005208776256" lon="12.896300559285123"><ele>329.1428571428571</ele><time>2026-05-03T16:47:38Z</time></trkpt><trkpt lat="43.33011625373804" lon="12.89635532051936"><ele>328.8571428571429</ele><time>2026-05-03T16:47:38.999Z</time></trkpt><trkpt lat="43.330178255589686" lon="12.896414358087503"><ele>328.57142857142856</ele><time>2026-05-03T16:47:39.999Z</time></trkpt><trkpt lat="43.330234348531995" lon="12.89647931571882"><ele>328.2857142857143</ele><time>2026-05-03T16:47:40.999Z</time></trkpt><trkpt lat="43.33027977556507" lon="12.896556212307274"><ele>328.0</ele><time>2026-05-03T16:47:41.999Z</time></trkpt><trkpt lat="43.330329122943745" lon="12.896631604611764"><ele>328.0</ele><time>2026-05-03T16:47:42.999Z</time></trkpt><trkpt lat="43.33039581827639" lon="12.89669967364027"><ele>328.0</ele><time>2026-05-03T16:47:43.999Z</time></trkpt><trkpt lat="43.33046279987659" lon="12.896737946715085"><ele>328.0</ele><time>2026-05-03T16:47:44.999Z</time></trkpt><trkpt lat="43.33053972487996" lon="12.896764699025836"><ele>328.0</ele><time>2026-05-03T16:47:45.999Z</time></trkpt><trkpt lat="43.330623781434426" lon="12.896777486213688"><ele>328.0</ele><time>2026-05-03T16:47:46.999Z</time></trkpt><trkpt lat="43.330704694951905" lon="12.896781335447473"><ele>328.0</ele><time>2026-05-03T16:47:47.999Z</time></trkpt><trkpt lat="43.33078548488348" lon="12.896778663451242"><ele>327.8333333333333</ele><time>2026-05-03T16:47:48.999Z</time></trkpt><trkpt lat="43.330866941216144" lon="12.89677209160016"><ele>327.66666666666663</ele><time>2026-05-03T16:47:49.999Z</time></trkpt><trkpt lat="43.33094594516174" lon="12.896770643768631"><ele>327.5</ele><time>2026-05-03T16:47:50.999Z</time></trkpt><trkpt lat="43.331015064429074" lon="12.896795705165355"><ele>327.3333333333333</ele><time>2026-05-03T16:47:51.999Z</time></trkpt><trkpt lat="43.331092941887555" lon="12.896891253881757"><ele>327.1666666666667</ele><time>2026-05-03T16:47:53.999Z</time></trkpt><trkpt lat="43.33109013889345" lon="12.897021136338816"><ele>327.0</ele><time>2026-05-03T16:47:55.999Z</time></trkpt><trkpt lat="43.331051660467615" lon="12.89719339962275"><ele>327.0</ele><time>2026-05-03T16:47:57.999Z</time></trkpt><trkpt lat="43.33103842924671" lon="12.897286168079562"><ele>327.0</ele><time>2026-05-03T16:47:58.999Z</time></trkpt><trkpt lat="43.331024163018746" lon="12.897390884967827"><ele>327.0</ele><time>2026-05-03T16:47:59.999Z</time></trkpt><trkpt lat="43.331013345926344" lon="12.897505032939948"><ele>327.0</ele><time>2026-05-03T16:48:00.999Z</time></trkpt><trkpt lat="43.33100525229584" lon="12.897633687570584"><ele>327.0</ele><time>2026-05-03T16:48:01.999Z</time></trkpt><trkpt lat="43.33102135516507" lon="12.897761729934697"><ele>327.0</ele><time>2026-05-03T16:48:02.999Z</time></trkpt><trkpt lat="43.33105798837387" lon="12.897888388607974"><ele>327.8</ele><time>2026-05-03T16:48:03.999Z</time></trkpt><trkpt lat="43.33111353547148" lon="12.898003636631575"><ele>328.6</ele><time>2026-05-03T16:48:04.999Z</time></trkpt><trkpt lat="43.331187913084634" lon="12.898094215056949"><ele>329.40000000000003</ele><time>2026-05-03T16:48:05.999Z</time></trkpt><trkpt lat="43.331279668348735" lon="12.898150399016496"><ele>330.20000000000005</ele><time>2026-05-03T16:48:06.999Z</time></trkpt><trkpt lat="43.33137456429076" lon="12.89818665625311"><ele>331.0</ele><time>2026-05-03T16:48:07.999Z</time></trkpt><trkpt lat="43.331465707199975" lon="12.898210208262915"><ele>331.0</ele><time>2026-05-03T16:48:08.999Z</time></trkpt><trkpt lat="43.331553404999035" lon="12.898230400659576"><ele>331.0</ele><time>2026-05-03T16:48:09.999Z</time></trkpt><trkpt lat="43.33163980159604" lon="12.898231198247792"><ele>331.0</ele><time>2026-05-03T16:48:10.999Z</time></trkpt><trkpt lat="43.33172245737727" lon="12.898209410362343"><ele>331.0</ele><time>2026-05-03T16:48:11.999Z</time></trkpt><trkpt lat="43.33180047135007" lon="12.898176200444286"><ele>331.0</ele><time>2026-05-03T16:48:12.999Z</time></trkpt><trkpt lat="43.331869438923725" lon="12.898140193452317"><ele>331.0</ele><time>2026-05-03T16:48:13.999Z</time></trkpt><trkpt lat="43.33193687447785" lon="12.898103441034788"><ele>331.0</ele><time>2026-05-03T16:48:14.999Z</time></trkpt><trkpt lat="43.33200170901236" lon="12.898065824691706"><ele>331.0</ele><time>2026-05-03T16:48:15.999Z</time></trkpt><trkpt lat="43.33206017735" lon="12.898032902353867"><ele>331.0</ele><time>2026-05-03T16:48:16.999Z</time></trkpt><trkpt lat="43.33214937025693" lon="12.89801667142765"><ele>331.0</ele><time>2026-05-03T16:48:18.999Z</time></trkpt><trkpt lat="43.332232011194165" lon="12.89806930716623"><ele>331.0</ele><time>2026-05-03T16:48:20.999Z</time></trkpt><trkpt lat="43.332300661421165" lon="12.898199646504716"><ele>331.0</ele><time>2026-05-03T16:48:22.999Z</time></trkpt><trkpt lat="43.332382720036684" lon="12.898324357749896"><ele>330.7142857142857</ele><time>2026-05-03T16:48:24.999Z</time></trkpt><trkpt lat="43.33242718773011" lon="12.898391938934475"><ele>330.42857142857144</ele><time>2026-05-03T16:48:25.999Z</time></trkpt><trkpt lat="43.33246825235544" lon="12.898462941677044"><ele>330.1428571428571</ele><time>2026-05-03T16:48:26.999Z</time></trkpt><trkpt lat="43.33250765262178" lon="12.898533359319593"><ele>329.8571428571429</ele><time>2026-05-03T16:48:27.999Z</time></trkpt><trkpt lat="43.3325541791804" lon="12.898594830190323"><ele>329.57142857142856</ele><time>2026-05-03T16:48:28.999Z</time></trkpt><trkpt lat="43.3325836515939" lon="12.898672131622986"><ele>329.2857142857143</ele><time>2026-05-03T16:48:29.999Z</time></trkpt><trkpt lat="43.33262656953726" lon="12.898831173194193"><ele>329.0</ele><time>2026-05-03T16:48:31.999Z</time></trkpt><trkpt lat="43.33265111055323" lon="12.898995266307658"><ele>330.0</ele><time>2026-05-03T16:48:33.999Z</time></trkpt><trkpt lat="43.33266676696927" lon="12.899080527541484"><ele>331.0</ele><time>2026-05-03T16:48:34.999Z</time></trkpt><trkpt lat="43.33269805437019" lon="12.899247237982163"><ele>332.0</ele><time>2026-05-03T16:48:36.999Z</time></trkpt><trkpt lat="43.33271501697758" lon="12.89933471878268"><ele>333.0</ele><time>2026-05-03T16:48:37.999Z</time></trkpt><trkpt lat="43.332732197250095" lon="12.899419367498732"><ele>334.0</ele><time>2026-05-03T16:48:38.999Z</time></trkpt><trkpt lat="43.332745570041574" lon="12.899509413183425"><ele>335.0</ele><time>2026-05-03T16:48:39.999Z</time></trkpt><trkpt lat="43.33275972552399" lon="12.89959812476351"><ele>335.6</ele><time>2026-05-03T16:48:40.999Z</time></trkpt><trkpt lat="43.33277553127256" lon="12.899682235575575"><ele>336.2</ele><time>2026-05-03T16:48:41.999Z</time></trkpt><trkpt lat="43.33280150125207" lon="12.899835511513754"><ele>336.79999999999995</ele><time>2026-05-03T16:48:43.999Z</time></trkpt><trkpt lat="43.332813986044826" lon="12.899982670278424"><ele>337.4</ele><time>2026-05-03T16:48:45.999Z</time></trkpt><trkpt lat="43.332816408297425" lon="12.900130048399548"><ele>338.0</ele><time>2026-05-03T16:48:47.999Z</time></trkpt><trkpt lat="43.33281562306324" lon="12.900283963070287"><ele>338.2</ele><time>2026-05-03T16:48:49.998Z</time></trkpt><trkpt lat="43.33277136458691" lon="12.900428300894438"><ele>338.4</ele><time>2026-05-03T16:48:51.998Z</time></trkpt><trkpt lat="43.33273967871185" lon="12.900574580524873"><ele>338.59999999999997</ele><time>2026-05-03T16:48:53.998Z</time></trkpt><trkpt lat="43.332717331787535" lon="12.900719042274915"><ele>338.79999999999995</ele><time>2026-05-03T16:48:55.998Z</time></trkpt><trkpt lat="43.33267051107948" lon="12.900844046627709"><ele>339.0</ele><time>2026-05-03T16:48:58Z</time></trkpt><trkpt lat="43.332625256555154" lon="12.900973663662011"><ele>339.2</ele><time>2026-05-03T16:49:00Z</time></trkpt><trkpt lat="43.33257007508369" lon="12.901077209129534"><ele>339.4</ele><time>2026-05-03T16:49:02Z</time></trkpt><trkpt lat="43.3325448997946" lon="12.901193756173573"><ele>339.6</ele><time>2026-05-03T16:49:04Z</time></trkpt><trkpt lat="43.33249992109083" lon="12.901324724926996"><ele>339.8</ele><time>2026-05-03T16:49:06Z</time></trkpt><trkpt lat="43.3324084825836" lon="12.901435728893743"><ele>340.0</ele><time>2026-05-03T16:49:08Z</time></trkpt><trkpt lat="43.33235850944457" lon="12.901503456883407"><ele>340.0</ele><time>2026-05-03T16:49:09Z</time></trkpt><trkpt lat="43.33230877380567" lon="12.901567447634994"><ele>340.0</ele><time>2026-05-03T16:49:10Z</time></trkpt><trkpt lat="43.33225715177717" lon="12.901631763553471"><ele>340.0</ele><time>2026-05-03T16:49:11Z</time></trkpt><trkpt lat="43.33220345396834" lon="12.901695678180227"><ele>340.0</ele><time>2026-05-03T16:49:12Z</time></trkpt><trkpt lat="43.332149278235995" lon="12.901760398207367"><ele>340.0</ele><time>2026-05-03T16:49:13Z</time></trkpt><trkpt lat="43.33209537428759" lon="12.901824793414429"><ele>340.0</ele><time>2026-05-03T16:49:14Z</time></trkpt><trkpt lat="43.332047046293944" lon="12.901884557719983"><ele>340.0</ele><time>2026-05-03T16:49:15Z</time></trkpt><trkpt lat="43.33200907597998" lon="12.901959996549525"><ele>339.8</ele><time>2026-05-03T16:49:16Z</time></trkpt><trkpt lat="43.331955381096556" lon="12.902011573420713"><ele>339.6</ele><time>2026-05-03T16:49:17Z</time></trkpt><trkpt lat="43.33186444105115" lon="12.902113769915706"><ele>339.4</ele><time>2026-05-03T16:49:19Z</time></trkpt><trkpt lat="43.331783362675566" lon="12.902218455718737"><ele>339.2</ele><time>2026-05-03T16:49:21Z</time></trkpt><trkpt lat="43.33171654065048" lon="12.902293625008614"><ele>339.0</ele><time>2026-05-03T16:49:23Z</time></trkpt><trkpt lat="43.33165586901362" lon="12.902357813569179"><ele>339.0</ele><time>2026-05-03T16:49:25Z</time></trkpt><trkpt lat="43.33161195803927" lon="12.902431336039697"><ele>339.0</ele><time>2026-05-03T16:49:27Z</time></trkpt><trkpt lat="43.331653979797935" lon="12.902559498096446"><ele>339.0</ele><time>2026-05-03T16:49:29Z</time></trkpt><trkpt lat="43.331724470365266" lon="12.90268552357088"><ele>339.0</ele><time>2026-05-03T16:49:31Z</time></trkpt><trkpt lat="43.33176204962367" lon="12.902758514130662"><ele>339.0</ele><time>2026-05-03T16:49:32Z</time></trkpt><trkpt lat="43.33179690435997" lon="12.90284371610729"><ele>339.0</ele><time>2026-05-03T16:49:33Z</time></trkpt><trkpt lat="43.331837728378275" lon="12.902934678807835"><ele>338.6666666666667</ele><time>2026-05-03T16:49:34Z</time></trkpt><trkpt lat="43.33188099900112" lon="12.90302754144122"><ele>338.3333333333333</ele><time>2026-05-03T16:49:35Z</time></trkpt><trkpt lat="43.33192914881815" lon="12.90312268346644"><ele>338.0</ele><time>2026-05-03T16:49:36Z</time></trkpt><trkpt lat="43.331978937101006" lon="12.90322432122851"><ele>337.66666666666663</ele><time>2026-05-03T16:49:37Z</time></trkpt><trkpt lat="43.33202982302249" lon="12.903333943220339"><ele>337.3333333333333</ele><time>2026-05-03T16:49:38Z</time></trkpt><trkpt lat="43.33208189242162" lon="12.903448725556352"><ele>337.0</ele><time>2026-05-03T16:49:39Z</time></trkpt><trkpt lat="43.33213657624498" lon="12.90356518319254"><ele>336.6</ele><time>2026-05-03T16:49:40Z</time></trkpt><trkpt lat="43.33218921631279" lon="12.903682278359149"><ele>336.20000000000005</ele><time>2026-05-03T16:49:41Z</time></trkpt><trkpt lat="43.332242444551824" lon="12.903797151806593"><ele>335.8</ele><time>2026-05-03T16:49:42Z</time></trkpt><trkpt lat="43.33229625016571" lon="12.9039117174173"><ele>335.4</ele><time>2026-05-03T16:49:42.999Z</time></trkpt><trkpt lat="43.33234963263812" lon="12.904019330660182"><ele>335.0</ele><time>2026-05-03T16:49:43.999Z</time></trkpt><trkpt lat="43.33239655691621" lon="12.90411246069959"><ele>335.0</ele><time>2026-05-03T16:49:44.999Z</time></trkpt><trkpt lat="43.3324411006248" lon="12.904191250866377"><ele>335.0</ele><time>2026-05-03T16:49:45.999Z</time></trkpt><trkpt lat="43.33247948327273" lon="12.904267878384115"><ele>335.0</ele><time>2026-05-03T16:49:46.999Z</time></trkpt><trkpt lat="43.33253421874878" lon="12.90439573804406"><ele>335.0</ele><time>2026-05-03T16:49:48.999Z</time></trkpt><trkpt lat="43.33259293162179" lon="12.904522133745354"><ele>335.0</ele><time>2026-05-03T16:49:50.999Z</time></trkpt><trkpt lat="43.33265176320001" lon="12.90464917474644"><ele>335.0</ele><time>2026-05-03T16:49:52.999Z</time></trkpt><trkpt lat="43.332711425552844" lon="12.904789428533784"><ele>335.0</ele><time>2026-05-03T16:49:54.999Z</time></trkpt><trkpt lat="43.33277976229719" lon="12.904935618265228"><ele>335.0</ele><time>2026-05-03T16:49:56.999Z</time></trkpt><trkpt lat="43.33281624520449" lon="12.905013394865039"><ele>335.0</ele><time>2026-05-03T16:49:57.999Z</time></trkpt><trkpt lat="43.332856607864024" lon="12.905095172564204"><ele>335.0</ele><time>2026-05-03T16:49:58.999Z</time></trkpt><trkpt lat="43.33289665216551" lon="12.905184671126554"><ele>334.99999999999994</ele><time>2026-05-03T16:49:59.999Z</time></trkpt><trkpt lat="43.33293743404464" lon="12.905272721978402"><ele>335.0</ele><time>2026-05-03T16:50:00.999Z</time></trkpt><trkpt lat="43.33297788813269" lon="12.905354794575363"><ele>335.0</ele><time>2026-05-03T16:50:01.999Z</time></trkpt><trkpt lat="43.333016707637846" lon="12.90543651532369"><ele>335.0</ele><time>2026-05-03T16:50:02.999Z</time></trkpt><trkpt lat="43.3330534561764" lon="12.905516987069193"><ele>335.0</ele><time>2026-05-03T16:50:03.999Z</time></trkpt><trkpt lat="43.33308918578416" lon="12.905592134596008"><ele>334.99999999999994</ele><time>2026-05-03T16:50:04.999Z</time></trkpt><trkpt lat="43.33312262455453" lon="12.90566592534852"><ele>335.0</ele><time>2026-05-03T16:50:05.999Z</time></trkpt><trkpt lat="43.333183349151454" lon="12.905807909676046"><ele>334.4</ele><time>2026-05-03T16:50:07.999Z</time></trkpt><trkpt lat="43.333241562207064" lon="12.905943637066025"><ele>333.8</ele><time>2026-05-03T16:50:09.999Z</time></trkpt><trkpt lat="43.33330334555473" lon="12.90607106476511"><ele>333.20000000000005</ele><time>2026-05-03T16:50:11.999Z</time></trkpt><trkpt lat="43.33336192926906" lon="12.906197018630904"><ele>332.6</ele><time>2026-05-03T16:50:13.999Z</time></trkpt><trkpt lat="43.333416923628754" lon="12.906317880672876"><ele>332.0</ele><time>2026-05-03T16:50:15.999Z</time></trkpt><trkpt lat="43.33347487767143" lon="12.906438225526612"><ele>332.0</ele><time>2026-05-03T16:50:17.999Z</time></trkpt><trkpt lat="43.33353657936064" lon="12.906564720998174"><ele>332.0</ele><time>2026-05-03T16:50:19.999Z</time></trkpt><trkpt lat="43.33360012984331" lon="12.906689557935135"><ele>332.0</ele><time>2026-05-03T16:50:21.999Z</time></trkpt><trkpt lat="43.33365962156562" lon="12.906847053189141"><ele>332.0</ele><time>2026-05-03T16:50:23.999Z</time></trkpt><trkpt lat="43.33368215851882" lon="12.906929675908067"><ele>332.0</ele><time>2026-05-03T16:50:24.999Z</time></trkpt><trkpt lat="43.3337151467525" lon="12.907067368421046"><ele>331.83333333333337</ele><time>2026-05-03T16:50:26.999Z</time></trkpt><trkpt lat="43.33377271654462" lon="12.90717204764851"><ele>331.6666666666667</ele><time>2026-05-03T16:50:28.999Z</time></trkpt><trkpt lat="43.333847653028755" lon="12.907296032964732"><ele>331.5</ele><time>2026-05-03T16:50:30.999Z</time></trkpt><trkpt lat="43.333886123276955" lon="12.907368913862912"><ele>331.3333333333333</ele><time>2026-05-03T16:50:31.999Z</time></trkpt><trkpt lat="43.33392377088029" lon="12.90744236421324"><ele>331.16666666666663</ele><time>2026-05-03T16:50:32.999Z</time></trkpt><trkpt lat="43.333957634388256" lon="12.907524933070812"><ele>331.0</ele><time>2026-05-03T16:50:33.999Z</time></trkpt><trkpt lat="43.33399572639382" lon="12.907612855147079"><ele>331.3333333333333</ele><time>2026-05-03T16:50:34.999Z</time></trkpt><trkpt lat="43.33403922563018" lon="12.907702693963577"><ele>331.66666666666663</ele><time>2026-05-03T16:50:35.999Z</time></trkpt><trkpt lat="43.33408227567649" lon="12.907798838574982"><ele>332.0</ele><time>2026-05-03T16:50:36.999Z</time></trkpt><trkpt lat="43.334128373266395" lon="12.907895826508174"><ele>332.3333333333333</ele><time>2026-05-03T16:50:37.999Z</time></trkpt><trkpt lat="43.33417533272751" lon="12.90799400539039"><ele>332.6666666666667</ele><time>2026-05-03T16:50:38.999Z</time></trkpt><trkpt lat="43.33422406505441" lon="12.908096837714718"><ele>333.0</ele><time>2026-05-03T16:50:39.999Z</time></trkpt><trkpt lat="43.33427644386958" lon="12.90819825272344"><ele>333.0</ele><time>2026-05-03T16:50:40.999Z</time></trkpt><trkpt lat="43.334326880034155" lon="12.908306646998177"><ele>333.0</ele><time>2026-05-03T16:50:41.999Z</time></trkpt><trkpt lat="43.334386461426675" lon="12.908406425563973"><ele>333.0</ele><time>2026-05-03T16:50:42.999Z</time></trkpt><trkpt lat="43.334453158647605" lon="12.908501464219276"><ele>333.0</ele><time>2026-05-03T16:50:43.999Z</time></trkpt><trkpt lat="43.33452318475559" lon="12.908597157085614"><ele>333.0</ele><time>2026-05-03T16:50:44.999Z</time></trkpt><trkpt lat="43.3345950026178" lon="12.908682943268069"><ele>333.59999999999997</ele><time>2026-05-03T16:50:45.999Z</time></trkpt><trkpt lat="43.33467189783734" lon="12.90876187568373"><ele>334.2</ele><time>2026-05-03T16:50:46.999Z</time></trkpt><trkpt lat="43.33475239283164" lon="12.90882989868935"><ele>334.8</ele><time>2026-05-03T16:50:47.999Z</time></trkpt><trkpt lat="43.33483325793076" lon="12.908895722589838"><ele>335.4</ele><time>2026-05-03T16:50:48.999Z</time></trkpt><trkpt lat="43.33490960605283" lon="12.908950529500945"><ele>336.0</ele><time>2026-05-03T16:50:49.999Z</time></trkpt><trkpt lat="43.33498346717314" lon="12.90900197995461"><ele>334.5</ele><time>2026-05-03T16:50:50.999Z</time></trkpt><trkpt lat="43.335054176508955" lon="12.909044402406211"><ele>333.0</ele><time>2026-05-03T16:50:51.999Z</time></trkpt><trkpt lat="43.335123798395095" lon="12.909078869307594"><ele>331.5</ele><time>2026-05-03T16:50:52.999Z</time></trkpt><trkpt lat="43.33519243574894" lon="12.90911575771731"><ele>330.0</ele><time>2026-05-03T16:50:53.998Z</time></trkpt><trkpt lat="43.33526710061548" lon="12.909156026100895"><ele>328.5</ele><time>2026-05-03T16:50:54.998Z</time></trkpt><trkpt lat="43.335348589237626" lon="12.90918777498958"><ele>327.0</ele><time>2026-05-03T16:50:55.998Z</time></trkpt><trkpt lat="43.33543607386509" lon="12.90921238455391"><ele>327.0</ele><time>2026-05-03T16:50:56.998Z</time></trkpt><trkpt lat="43.335526649902214" lon="12.909231087357027"><ele>327.0</ele><time>2026-05-03T16:50:57.998Z</time></trkpt><trkpt lat="43.33562058112641" lon="12.909239337047842"><ele>327.0</ele><time>2026-05-03T16:50:58.998Z</time></trkpt><trkpt lat="43.33571785773611" lon="12.909244732797829"><ele>327.0</ele><time>2026-05-03T16:50:59.998Z</time></trkpt><trkpt lat="43.33581510528935" lon="12.909241313310398"><ele>327.0</ele><time>2026-05-03T16:51:00.998Z</time></trkpt><trkpt lat="43.335909128189996" lon="12.909226977568911"><ele>326.8</ele><time>2026-05-03T16:51:02Z</time></trkpt><trkpt lat="43.33600328100094" lon="12.909209037518536"><ele>326.6</ele><time>2026-05-03T16:51:03Z</time></trkpt><trkpt lat="43.33609384621312" lon="12.909181869637266"><ele>326.40000000000003</ele><time>2026-05-03T16:51:04Z</time></trkpt><trkpt lat="43.336185097964865" lon="12.909156540424107"><ele>326.20000000000005</ele><time>2026-05-03T16:51:05Z</time></trkpt><trkpt lat="43.336273433217826" lon="12.90913316139726"><ele>326.0</ele><time>2026-05-03T16:51:06Z</time></trkpt><trkpt lat="43.336362020961595" lon="12.909107215837102"><ele>326.33333333333337</ele><time>2026-05-03T16:51:07Z</time></trkpt><trkpt lat="43.33645166251291" lon="12.909080058278132"><ele>326.6666666666667</ele><time>2026-05-03T16:51:08Z</time></trkpt><trkpt lat="43.3365366749018" lon="12.909051814654124"><ele>327.0</ele><time>2026-05-03T16:51:09Z</time></trkpt><trkpt lat="43.33662600477429" lon="12.909022703523592"><ele>327.3333333333333</ele><time>2026-05-03T16:51:10Z</time></trkpt><trkpt lat="43.3367132722819" lon="12.908995049004789"><ele>327.66666666666663</ele><time>2026-05-03T16:51:11Z</time></trkpt><trkpt lat="43.33679901739067" lon="12.908965408084072"><ele>328.0</ele><time>2026-05-03T16:51:12Z</time></trkpt><trkpt lat="43.33688337370774" lon="12.908938530350484"><ele>328.0</ele><time>2026-05-03T16:51:13Z</time></trkpt><trkpt lat="43.336972204900995" lon="12.908910595387313"><ele>328.0</ele><time>2026-05-03T16:51:14Z</time></trkpt><trkpt lat="43.337066105398556" lon="12.908883640857042"><ele>328.0</ele><time>2026-05-03T16:51:15Z</time></trkpt><trkpt lat="43.337163163678426" lon="12.908851133626754"><ele>328.0</ele><time>2026-05-03T16:51:16Z</time></trkpt><trkpt lat="43.33726176011614" lon="12.908819772615281"><ele>328.0</ele><time>2026-05-03T16:51:17Z</time></trkpt><trkpt lat="43.33736248819467" lon="12.908791003682051"><ele>327.4</ele><time>2026-05-03T16:51:18Z</time></trkpt><trkpt lat="43.33746001294277" lon="12.9087603114285"><ele>326.79999999999995</ele><time>2026-05-03T16:51:19Z</time></trkpt><trkpt lat="43.33755700550184" lon="12.908728626117641"><ele>326.2</ele><time>2026-05-03T16:51:20Z</time></trkpt><trkpt lat="43.33765198301927" lon="12.90869466952095"><ele>325.6</ele><time>2026-05-03T16:51:21Z</time></trkpt><trkpt lat="43.33773952820424" lon="12.908659819708447"><ele>325.0</ele><time>2026-05-03T16:51:22Z</time></trkpt><trkpt lat="43.33782271195461" lon="12.908627322896598"><ele>325.0</ele><time>2026-05-03T16:51:23Z</time></trkpt><trkpt lat="43.33789108708853" lon="12.908604030755603"><ele>325.0</ele><time>2026-05-03T16:51:24Z</time></trkpt><trkpt lat="43.33800288963686" lon="12.90856939501768"><ele>325.0</ele><time>2026-05-03T16:51:26Z</time></trkpt><trkpt lat="43.33810356602206" lon="12.908541776587011"><ele>325.0</ele><time>2026-05-03T16:51:28Z</time></trkpt><trkpt lat="43.33816976510536" lon="12.908513016590996"><ele>325.0</ele><time>2026-05-03T16:51:30Z</time></trkpt><trkpt lat="43.33823822504706" lon="12.908483934332397"><ele>325.0</ele><time>2026-05-03T16:51:33Z</time></trkpt><trkpt lat="43.33832782921113" lon="12.908458780113193"><ele>325.16666666666663</ele><time>2026-05-03T16:51:37Z</time></trkpt><trkpt lat="43.33842671454977" lon="12.908450285776022"><ele>325.3333333333333</ele><time>2026-05-03T16:51:39Z</time></trkpt><trkpt lat="43.338545556044494" lon="12.908486074827067"><ele>325.5</ele><time>2026-05-03T16:51:41Z</time></trkpt><trkpt lat="43.33860055563971" lon="12.908535179752585"><ele>325.6666666666667</ele><time>2026-05-03T16:51:42Z</time></trkpt><trkpt lat="43.33865015312492" lon="12.908602611264625"><ele>325.83333333333337</ele><time>2026-05-03T16:51:43Z</time></trkpt><trkpt lat="43.33870124398909" lon="12.908677144931342"><ele>326.0</ele><time>2026-05-03T16:51:44Z</time></trkpt><trkpt lat="43.3387542867884" lon="12.908760109137061"><ele>326.0</ele><time>2026-05-03T16:51:45Z</time></trkpt><trkpt lat="43.33880953547635" lon="12.908848511703573"><ele>326.0</ele><time>2026-05-03T16:51:46Z</time></trkpt><trkpt lat="43.33886391108997" lon="12.908939471319517"><ele>326.0</ele><time>2026-05-03T16:51:47Z</time></trkpt><trkpt lat="43.338919709476386" lon="12.909034932243364"><ele>326.0</ele><time>2026-05-03T16:51:48Z</time></trkpt><trkpt lat="43.33897839182701" lon="12.909128944732434"><ele>326.0</ele><time>2026-05-03T16:51:49Z</time></trkpt><trkpt lat="43.33903739236842" lon="12.909227851390362"><ele>326.0</ele><time>2026-05-03T16:51:49.999Z</time></trkpt><trkpt lat="43.33909654859833" lon="12.909328774335535"><ele>325.8</ele><time>2026-05-03T16:51:50.999Z</time></trkpt><trkpt lat="43.33915554671649" lon="12.909430403364594"><ele>325.6</ele><time>2026-05-03T16:51:51.999Z</time></trkpt><trkpt lat="43.339215293440645" lon="12.909538134068214"><ele>325.4</ele><time>2026-05-03T16:51:52.999Z</time></trkpt><trkpt lat="43.33927598194467" lon="12.90964676990512"><ele>325.2</ele><time>2026-05-03T16:51:53.999Z</time></trkpt><trkpt lat="43.339337813426184" lon="12.909756174306782"><ele>325.0</ele><time>2026-05-03T16:51:54.999Z</time></trkpt><trkpt lat="43.33940186687412" lon="12.909861751426847"><ele>325.0</ele><time>2026-05-03T16:51:55.999Z</time></trkpt><trkpt lat="43.33946589387811" lon="12.909970278441543"><ele>325.0</ele><time>2026-05-03T16:51:56.999Z</time></trkpt><trkpt lat="43.33952767641518" lon="12.91008497896086"><ele>325.0</ele><time>2026-05-03T16:51:57.999Z</time></trkpt><trkpt lat="43.33959186369934" lon="12.91019695593676"><ele>325.0</ele><time>2026-05-03T16:51:58.999Z</time></trkpt><trkpt lat="43.339659779482346" lon="12.910305413535255"><ele>325.0</ele><time>2026-05-03T16:51:59.999Z</time></trkpt><trkpt lat="43.33972855574705" lon="12.910418392299666"><ele>324.2</ele><time>2026-05-03T16:52:00.999Z</time></trkpt><trkpt lat="43.33979611182395" lon="12.91053100291632"><ele>323.4</ele><time>2026-05-03T16:52:01.999Z</time></trkpt><trkpt lat="43.33986841647076" lon="12.91064154191541"><ele>322.6</ele><time>2026-05-03T16:52:02.999Z</time></trkpt><trkpt lat="43.339939378766545" lon="12.910754608859714"><ele>321.8</ele><time>2026-05-03T16:52:03.999Z</time></trkpt><trkpt lat="43.34000818326032" lon="12.910869041752576"><ele>321.0</ele><time>2026-05-03T16:52:04.999Z</time></trkpt><trkpt lat="43.34007577142442" lon="12.910987880871334"><ele>320.8</ele><time>2026-05-03T16:52:05.999Z</time></trkpt><trkpt lat="43.340144630644595" lon="12.91110425889146"><ele>320.6</ele><time>2026-05-03T16:52:06.999Z</time></trkpt><trkpt lat="43.34021021173445" lon="12.911219115487036"><ele>320.4</ele><time>2026-05-03T16:52:07.999Z</time></trkpt><trkpt lat="43.340280482211355" lon="12.911338925227104"><ele>320.2</ele><time>2026-05-03T16:52:08.999Z</time></trkpt><trkpt lat="43.34035119078998" lon="12.911459770946177"><ele>320.0</ele><time>2026-05-03T16:52:09.999Z</time></trkpt><trkpt lat="43.340422398581616" lon="12.911579015265369"><ele>320.0</ele><time>2026-05-03T16:52:10.999Z</time></trkpt><trkpt lat="43.34049518164567" lon="12.91170188413259"><ele>320.0</ele><time>2026-05-03T16:52:11.999Z</time></trkpt><trkpt lat="43.34056951123285" lon="12.911823511859659"><ele>320.0</ele><time>2026-05-03T16:52:12.999Z</time></trkpt><trkpt lat="43.34064436646042" lon="12.911948133314313"><ele>320.0</ele><time>2026-05-03T16:52:13.999Z</time></trkpt><trkpt lat="43.34072679623535" lon="12.912064048037424"><ele>319.25</ele><time>2026-05-03T16:52:14.999Z</time></trkpt><trkpt lat="43.34080390286829" lon="12.912183841608499"><ele>318.5</ele><time>2026-05-03T16:52:15.999Z</time></trkpt><trkpt lat="43.34087255585138" lon="12.912309166077872"><ele>317.75</ele><time>2026-05-03T16:52:16.999Z</time></trkpt><trkpt lat="43.34093623288997" lon="12.912434717931072"><ele>317.0</ele><time>2026-05-03T16:52:17.999Z</time></trkpt><trkpt lat="43.3410048067145" lon="12.91255874697642"><ele>316.8</ele><time>2026-05-03T16:52:18.999Z</time></trkpt><trkpt lat="43.341074921997915" lon="12.912677451063782"><ele>316.6</ele><time>2026-05-03T16:52:19.999Z</time></trkpt><trkpt lat="43.341146600295176" lon="12.91279562981075"><ele>316.40000000000003</ele><time>2026-05-03T16:52:20.999Z</time></trkpt><trkpt lat="43.34121756058403" lon="12.91291250755911"><ele>316.2</ele><time>2026-05-03T16:52:21.999Z</time></trkpt><trkpt lat="43.34129030475279" lon="12.913028828205226"><ele>316.0</ele><time>2026-05-03T16:52:22.999Z</time></trkpt><trkpt lat="43.34136442549351" lon="12.913148814645536"><ele>316.2</ele><time>2026-05-03T16:52:23.999Z</time></trkpt><trkpt lat="43.34143696436116" lon="12.913269067327848"><ele>316.40000000000003</ele><time>2026-05-03T16:52:24.999Z</time></trkpt><trkpt lat="43.34150716471642" lon="12.913388818754417"><ele>316.6</ele><time>2026-05-03T16:52:25.999Z</time></trkpt><trkpt lat="43.341578783243285" lon="12.91350409041045"><ele>316.8</ele><time>2026-05-03T16:52:26.999Z</time></trkpt><trkpt lat="43.34165049462603" lon="12.913617587484767"><ele>317.0</ele><time>2026-05-03T16:52:27.999Z</time></trkpt><trkpt lat="43.341722980175206" lon="12.913739051623281"><ele>317.0</ele><time>2026-05-03T16:52:28.999Z</time></trkpt><trkpt lat="43.341797843619744" lon="12.913865319691993"><ele>317.0</ele><time>2026-05-03T16:52:29.999Z</time></trkpt><trkpt lat="43.34187768311115" lon="12.913994713083206"><ele>317.0</ele><time>2026-05-03T16:52:30.999Z</time></trkpt><trkpt lat="43.34195843740817" lon="12.914128893065758"><ele>317.0</ele><time>2026-05-03T16:52:31.999Z</time></trkpt><trkpt lat="43.34203762169041" lon="12.914263132874032"><ele>317.25</ele><time>2026-05-03T16:52:32.999Z</time></trkpt><trkpt lat="43.342118072934674" lon="12.914399745636793"><ele>317.5</ele><time>2026-05-03T16:52:33.999Z</time></trkpt><trkpt lat="43.34219908012564" lon="12.914536023047486"><ele>317.75</ele><time>2026-05-03T16:52:34.999Z</time></trkpt><trkpt lat="43.34227964889107" lon="12.91467100016924"><ele>318.0</ele><time>2026-05-03T16:52:35.999Z</time></trkpt><trkpt lat="43.3423638814986" lon="12.914809947100442"><ele>317.0</ele><time>2026-05-03T16:52:36.999Z</time></trkpt><trkpt lat="43.34244741978144" lon="12.914946350272855"><ele>316.0</ele><time>2026-05-03T16:52:37.999Z</time></trkpt><trkpt lat="43.34252804420609" lon="12.915085744172547"><ele>315.0</ele><time>2026-05-03T16:52:38.999Z</time></trkpt><trkpt lat="43.34260979820132" lon="12.915225608161338"><ele>314.0</ele><time>2026-05-03T16:52:39.999Z</time></trkpt><trkpt lat="43.34269181811132" lon="12.915365994923704"><ele>314.0</ele><time>2026-05-03T16:52:40.999Z</time></trkpt><trkpt lat="43.342772673154336" lon="12.915501270485503"><ele>314.0</ele><time>2026-05-03T16:52:41.999Z</time></trkpt><trkpt lat="43.34285496861773" lon="12.915631276673327"><ele>314.0</ele><time>2026-05-03T16:52:42.999Z</time></trkpt><trkpt lat="43.34293894893109" lon="12.91576416551666"><ele>314.0</ele><time>2026-05-03T16:52:43.999Z</time></trkpt><trkpt lat="43.34301954619613" lon="12.91589312635894"><ele>313.75</ele><time>2026-05-03T16:52:44.999Z</time></trkpt><trkpt lat="43.34309767353862" lon="12.916023281216283"><ele>313.5</ele><time>2026-05-03T16:52:45.999Z</time></trkpt><trkpt lat="43.34317333136851" lon="12.916154137478063"><ele>313.25</ele><time>2026-05-03T16:52:46.999Z</time></trkpt><trkpt lat="43.34325030764442" lon="12.916286609574158"><ele>313.0</ele><time>2026-05-03T16:52:47.999Z</time></trkpt><trkpt lat="43.34332390802162" lon="12.916415043655787"><ele>313.0</ele><time>2026-05-03T16:52:48.999Z</time></trkpt><trkpt lat="43.34339830882302" lon="12.916540511791085"><ele>313.0</ele><time>2026-05-03T16:52:49.999Z</time></trkpt><trkpt lat="43.34347328159683" lon="12.916661474134134"><ele>313.0</ele><time>2026-05-03T16:52:50.999Z</time></trkpt><trkpt lat="43.343549469964216" lon="12.916783558025356"><ele>313.0</ele><time>2026-05-03T16:52:51.999Z</time></trkpt><trkpt lat="43.343623958056384" lon="12.916906551266823"><ele>313.25</ele><time>2026-05-03T16:52:52.999Z</time></trkpt><trkpt lat="43.34369413884042" lon="12.917029788838327"><ele>313.5</ele><time>2026-05-03T16:52:53.999Z</time></trkpt><trkpt lat="43.34376400949263" lon="12.91714916873772"><ele>313.75</ele><time>2026-05-03T16:52:54.999Z</time></trkpt><trkpt lat="43.34383616814154" lon="12.917268575726316"><ele>314.0</ele><time>2026-05-03T16:52:55.999Z</time></trkpt><trkpt lat="43.34390991008087" lon="12.91738328073743"><ele>313.0</ele><time>2026-05-03T16:52:56.999Z</time></trkpt><trkpt lat="43.34398043819902" lon="12.917498497736105"><ele>312.0</ele><time>2026-05-03T16:52:57.999Z</time></trkpt><trkpt lat="43.34404738767411" lon="12.917615363471235"><ele>311.0</ele><time>2026-05-03T16:52:58.999Z</time></trkpt><trkpt lat="43.34411212781583" lon="12.91773328786193"><ele>310.0</ele><time>2026-05-03T16:52:59.999Z</time></trkpt><trkpt lat="43.34418067738907" lon="12.917846127943653"><ele>309.0</ele><time>2026-05-03T16:53:00.999Z</time></trkpt><trkpt lat="43.344250040534746" lon="12.917954188387093"><ele>309.0</ele><time>2026-05-03T16:53:01.999Z</time></trkpt><trkpt lat="43.34431734803494" lon="12.918065644466926"><ele>309.0</ele><time>2026-05-03T16:53:02.998Z</time></trkpt><trkpt lat="43.344380049455744" lon="12.918178075002157"><ele>309.0</ele><time>2026-05-03T16:53:03.998Z</time></trkpt><trkpt lat="43.344443405846974" lon="12.918289058425566"><ele>309.0</ele><time>2026-05-03T16:53:04.998Z</time></trkpt><trkpt lat="43.34450773870656" lon="12.918395030432528"><ele>309.0</ele><time>2026-05-03T16:53:05.998Z</time></trkpt><trkpt lat="43.34457187675665" lon="12.918499943912838"><ele>309.0</ele><time>2026-05-03T16:53:07Z</time></trkpt><trkpt lat="43.34463747319945" lon="12.918602792917474"><ele>309.0</ele><time>2026-05-03T16:53:08Z</time></trkpt><trkpt lat="43.34469970745193" lon="12.918705086966845"><ele>309.0</ele><time>2026-05-03T16:53:09Z</time></trkpt><trkpt lat="43.34476102580883" lon="12.918810026402577"><ele>309.0</ele><time>2026-05-03T16:53:10Z</time></trkpt><trkpt lat="43.34482358466392" lon="12.918917508727919"><ele>309.0</ele><time>2026-05-03T16:53:11Z</time></trkpt><trkpt lat="43.34488691782907" lon="12.919025677395737"><ele>309.0</ele><time>2026-05-03T16:53:12Z</time></trkpt><trkpt lat="43.34495257001372" lon="12.919134303731674"><ele>309.0</ele><time>2026-05-03T16:53:13Z</time></trkpt><trkpt lat="43.34501733301942" lon="12.91924473801875"><ele>309.0</ele><time>2026-05-03T16:53:14Z</time></trkpt><trkpt lat="43.3450816184151" lon="12.919353520916841"><ele>309.0</ele><time>2026-05-03T16:53:15Z</time></trkpt><trkpt lat="43.345144767766655" lon="12.919459361983929"><ele>309.0</ele><time>2026-05-03T16:53:16Z</time></trkpt><trkpt lat="43.34520916349178" lon="12.919567346013604"><ele>309.0</ele><time>2026-05-03T16:53:17Z</time></trkpt><trkpt lat="43.34527564605274" lon="12.919675241446972"><ele>309.0</ele><time>2026-05-03T16:53:18Z</time></trkpt><trkpt lat="43.34534253120663" lon="12.919784991379723"><ele>309.0</ele><time>2026-05-03T16:53:19Z</time></trkpt><trkpt lat="43.34540942544459" lon="12.91989677501968"><ele>309.0</ele><time>2026-05-03T16:53:20Z</time></trkpt><trkpt lat="43.34547455965232" lon="12.92000491069266"><ele>309.0</ele><time>2026-05-03T16:53:21Z</time></trkpt><trkpt lat="43.34554002236572" lon="12.920112108408375"><ele>308.2</ele><time>2026-05-03T16:53:22Z</time></trkpt><trkpt lat="43.34560407937141" lon="12.920221685338849"><ele>307.4</ele><time>2026-05-03T16:53:23Z</time></trkpt><trkpt lat="43.345667553326784" lon="12.920330465105858"><ele>306.6</ele><time>2026-05-03T16:53:24Z</time></trkpt><trkpt lat="43.34573386959554" lon="12.920439663177511"><ele>305.8</ele><time>2026-05-03T16:53:25Z</time></trkpt><trkpt lat="43.345797925310364" lon="12.920548299965077"><ele>305.0</ele><time>2026-05-03T16:53:26Z</time></trkpt><trkpt lat="43.345863370574946" lon="12.92065666086213"><ele>305.0</ele><time>2026-05-03T16:53:27Z</time></trkpt><trkpt lat="43.345927605204864" lon="12.920762305926877"><ele>305.0</ele><time>2026-05-03T16:53:28Z</time></trkpt><trkpt lat="43.34598875978667" lon="12.920865447944433"><ele>305.0</ele><time>2026-05-03T16:53:29Z</time></trkpt><trkpt lat="43.3460479736547" lon="12.920969146354226"><ele>305.0</ele><time>2026-05-03T16:53:30Z</time></trkpt><trkpt lat="43.34610460780178" lon="12.92106712987657"><ele>305.0</ele><time>2026-05-03T16:53:31Z</time></trkpt><trkpt lat="43.34615911694802" lon="12.921158346792817"><ele>305.1666666666667</ele><time>2026-05-03T16:53:32Z</time></trkpt><trkpt lat="43.34621046720572" lon="12.921241355457564"><ele>305.33333333333337</ele><time>2026-05-03T16:53:33Z</time></trkpt><trkpt lat="43.346253358897364" lon="12.921317686085168"><ele>305.5</ele><time>2026-05-03T16:53:34Z</time></trkpt><trkpt lat="43.34629007770676" lon="12.921401309499686"><ele>305.6666666666667</ele><time>2026-05-03T16:53:35Z</time></trkpt><trkpt lat="43.3463134207759" lon="12.92149867914787"><ele>305.8333333333333</ele><time>2026-05-03T16:53:36Z</time></trkpt><trkpt lat="43.346336696586114" lon="12.92160356645767"><ele>306.0</ele><time>2026-05-03T16:53:37Z</time></trkpt><trkpt lat="43.34637492167994" lon="12.921706106236977"><ele>306.2</ele><time>2026-05-03T16:53:38Z</time></trkpt><trkpt lat="43.346432342929745" lon="12.921793198621465"><ele>306.40000000000003</ele><time>2026-05-03T16:53:39Z</time></trkpt><trkpt lat="43.346502452415336" lon="12.921864329124377"><ele>306.6</ele><time>2026-05-03T16:53:40Z</time></trkpt><trkpt lat="43.34658587342158" lon="12.92184989488516"><ele>306.8</ele><time>2026-05-03T16:53:41Z</time></trkpt><trkpt lat="43.346654158743455" lon="12.921999196464048"><ele>307.0</ele><time>2026-05-03T16:53:42Z</time></trkpt><trkpt lat="43.34671817273186" lon="12.92210108689031"><ele>307.0</ele><time>2026-05-03T16:53:43Z</time></trkpt><trkpt lat="43.346775733454216" lon="12.922198483081361"><ele>307.0</ele><time>2026-05-03T16:53:44Z</time></trkpt><trkpt lat="43.34683217449028" lon="12.922292254736432"><ele>307.0</ele><time>2026-05-03T16:53:45Z</time></trkpt><trkpt lat="43.346889839869824" lon="12.922385323216167"><ele>307.0</ele><time>2026-05-03T16:53:46Z</time></trkpt><trkpt lat="43.34694737581882" lon="12.922480929110534"><ele>307.0</ele><time>2026-05-03T16:53:47Z</time></trkpt><trkpt lat="43.34700524581319" lon="12.922576523269605"><ele>307.0</ele><time>2026-05-03T16:53:48Z</time></trkpt><trkpt lat="43.3470656081272" lon="12.922672290591722"><ele>307.8</ele><time>2026-05-03T16:53:49Z</time></trkpt><trkpt lat="43.34712597534763" lon="12.922769681476092"><ele>308.6</ele><time>2026-05-03T16:53:50Z</time></trkpt><trkpt lat="43.34718578890426" lon="12.9228688759671"><ele>309.40000000000003</ele><time>2026-05-03T16:53:51Z</time></trkpt><trkpt lat="43.347246229513594" lon="12.92297342258938"><ele>310.2</ele><time>2026-05-03T16:53:52Z</time></trkpt><trkpt lat="43.34730839124146" lon="12.92308183042376"><ele>311.0</ele><time>2026-05-03T16:53:53Z</time></trkpt><trkpt lat="43.34737277462514" lon="12.923194605673984"><ele>309.6</ele><time>2026-05-03T16:53:54Z</time></trkpt><trkpt lat="43.34743892707934" lon="12.923307746295778"><ele>308.20000000000005</ele><time>2026-05-03T16:53:54.999Z</time></trkpt><trkpt lat="43.34751007411998" lon="12.923421724507598"><ele>306.79999999999995</ele><time>2026-05-03T16:53:55.999Z</time></trkpt><trkpt lat="43.347582030187844" lon="12.923537319788442"><ele>305.4</ele><time>2026-05-03T16:53:56.999Z</time></trkpt><trkpt lat="43.34765360038457" lon="12.92365198533375"><ele>304.0</ele><time>2026-05-03T16:53:57.999Z</time></trkpt><trkpt lat="43.34772388828459" lon="12.92376400790951"><ele>304.0</ele><time>2026-05-03T16:53:58.999Z</time></trkpt><trkpt lat="43.34779071989301" lon="12.923877828710996"><ele>304.0</ele><time>2026-05-03T16:53:59.999Z</time></trkpt><trkpt lat="43.347858110716146" lon="12.923992310598909"><ele>304.0</ele><time>2026-05-03T16:54:00.999Z</time></trkpt><trkpt lat="43.347926336709655" lon="12.924102286607424"><ele>304.0</ele><time>2026-05-03T16:54:01.999Z</time></trkpt><trkpt lat="43.34799433009877" lon="12.924213044262654"><ele>304.0</ele><time>2026-05-03T16:54:02.999Z</time></trkpt><trkpt lat="43.3480622993785" lon="12.924326337678734"><ele>303.4</ele><time>2026-05-03T16:54:03.999Z</time></trkpt><trkpt lat="43.348126802888295" lon="12.92443549690585"><ele>302.79999999999995</ele><time>2026-05-03T16:54:04.999Z</time></trkpt><trkpt lat="43.34819101258675" lon="12.924544396376197"><ele>302.20000000000005</ele><time>2026-05-03T16:54:05.999Z</time></trkpt><trkpt lat="43.34825343794406" lon="12.924652523030632"><ele>301.6</ele><time>2026-05-03T16:54:06.999Z</time></trkpt><trkpt lat="43.34831448661401" lon="12.92475535064591"><ele>301.0</ele><time>2026-05-03T16:54:07.999Z</time></trkpt><trkpt lat="43.3483706084969" lon="12.924853850445006"><ele>301.0</ele><time>2026-05-03T16:54:08.999Z</time></trkpt><trkpt lat="43.348427633746326" lon="12.924957673922156"><ele>301.0</ele><time>2026-05-03T16:54:09.999Z</time></trkpt><trkpt lat="43.34848387126814" lon="12.92506328284359"><ele>301.0</ele><time>2026-05-03T16:54:10.999Z</time></trkpt><trkpt lat="43.348546823751605" lon="12.925164140924801"><ele>301.0</ele><time>2026-05-03T16:54:11.999Z</time></trkpt><trkpt lat="43.34861215932178" lon="12.925262069748456"><ele>301.0</ele><time>2026-05-03T16:54:12.999Z</time></trkpt><trkpt lat="43.34867552025728" lon="12.92535905139509"><ele>301.0</ele><time>2026-05-03T16:54:13.999Z</time></trkpt><trkpt lat="43.3487360419344" lon="12.925459096980076"><ele>301.0</ele><time>2026-05-03T16:54:14.999Z</time></trkpt><trkpt lat="43.34880083313197" lon="12.925566608014655"><ele>301.0</ele><time>2026-05-03T16:54:15.999Z</time></trkpt><trkpt lat="43.34886794742226" lon="12.92568390873136"><ele>301.0</ele><time>2026-05-03T16:54:16.999Z</time></trkpt><trkpt lat="43.34893901248514" lon="12.925806259233443"><ele>301.0</ele><time>2026-05-03T16:54:17.999Z</time></trkpt><trkpt lat="43.34901352957771" lon="12.92593054125277"><ele>301.5</ele><time>2026-05-03T16:54:18.999Z</time></trkpt><trkpt lat="43.3490916670525" lon="12.926061644337013"><ele>302.0</ele><time>2026-05-03T16:54:19.999Z</time></trkpt><trkpt lat="43.349170665204056" lon="12.926196011182286"><ele>302.5</ele><time>2026-05-03T16:54:20.999Z</time></trkpt><trkpt lat="43.349249607635976" lon="12.926332362257241"><ele>303.0</ele><time>2026-05-03T16:54:21.999Z</time></trkpt><trkpt lat="43.34933105727618" lon="12.926467534756382"><ele>303.0</ele><time>2026-05-03T16:54:22.999Z</time></trkpt><trkpt lat="43.34941422376992" lon="12.926606461571943"><ele>303.0</ele><time>2026-05-03T16:54:23.999Z</time></trkpt><trkpt lat="43.34949844391727" lon="12.926747583063673"><ele>303.0</ele><time>2026-05-03T16:54:24.999Z</time></trkpt><trkpt lat="43.34958404850897" lon="12.926889112703188"><ele>303.0</ele><time>2026-05-03T16:54:25.999Z</time></trkpt><trkpt lat="43.34966977589605" lon="12.927030945717034"><ele>303.0</ele><time>2026-05-03T16:54:26.999Z</time></trkpt><trkpt lat="43.34975616163642" lon="12.927173298326672"><ele>303.0</ele><time>2026-05-03T16:54:27.999Z</time></trkpt><trkpt lat="43.34984369242301" lon="12.927314721469497"><ele>303.0</ele><time>2026-05-03T16:54:28.999Z</time></trkpt><trkpt lat="43.34993267481048" lon="12.927458102530554"><ele>303.0</ele><time>2026-05-03T16:54:29.999Z</time></trkpt><trkpt lat="43.350017585134076" lon="12.92760487956178"><ele>303.0</ele><time>2026-05-03T16:54:30.999Z</time></trkpt><trkpt lat="43.3501040899327" lon="12.927753090120753"><ele>303.0</ele><time>2026-05-03T16:54:31.999Z</time></trkpt><trkpt lat="43.35019136428153" lon="12.927903987632764"><ele>303.0</ele><time>2026-05-03T16:54:32.999Z</time></trkpt><trkpt lat="43.35028027532984" lon="12.928054396252772"><ele>303.0</ele><time>2026-05-03T16:54:33.999Z</time></trkpt><trkpt lat="43.350367340538924" lon="12.928204711773056"><ele>303.0</ele><time>2026-05-03T16:54:34.999Z</time></trkpt><trkpt lat="43.350458949300766" lon="12.928353388792049"><ele>303.0</ele><time>2026-05-03T16:54:35.999Z</time></trkpt><trkpt lat="43.350552852339014" lon="12.928504306626646"><ele>303.0</ele><time>2026-05-03T16:54:36.999Z</time></trkpt><trkpt lat="43.350643788330636" lon="12.928656593799115"><ele>303.0</ele><time>2026-05-03T16:54:37.999Z</time></trkpt><trkpt lat="43.35073936705426" lon="12.928812000823743"><ele>302.5</ele><time>2026-05-03T16:54:38.999Z</time></trkpt><trkpt lat="43.35082963136237" lon="12.928968302851887"><ele>302.0</ele><time>2026-05-03T16:54:39.999Z</time></trkpt><trkpt lat="43.35092650051493" lon="12.929125871324402"><ele>301.5</ele><time>2026-05-03T16:54:40.999Z</time></trkpt><trkpt lat="43.35102220615103" lon="12.929290909391652"><ele>301.0</ele><time>2026-05-03T16:54:41.999Z</time></trkpt><trkpt lat="43.35111150855698" lon="12.929459945827317"><ele>301.0</ele><time>2026-05-03T16:54:42.999Z</time></trkpt><trkpt lat="43.351194282026896" lon="12.92963778966284"><ele>301.0</ele><time>2026-05-03T16:54:43.999Z</time></trkpt><trkpt lat="43.35127332459267" lon="12.929819316098543"><ele>301.0</ele><time>2026-05-03T16:54:44.999Z</time></trkpt><trkpt lat="43.351352509817495" lon="12.930003906632814"><ele>299.3333333333333</ele><time>2026-05-03T16:54:45.999Z</time></trkpt><trkpt lat="43.351426989535" lon="12.930192335352494"><ele>297.6666666666667</ele><time>2026-05-03T16:54:46.999Z</time></trkpt><trkpt lat="43.35149591378445" lon="12.930388413715878"><ele>296.0</ele><time>2026-05-03T16:54:47.999Z</time></trkpt><trkpt lat="43.35156470606817" lon="12.930588001782539"><ele>296.0</ele><time>2026-05-03T16:54:48.999Z</time></trkpt><trkpt lat="43.35161949212734" lon="12.930791416597245"><ele>296.0</ele><time>2026-05-03T16:54:49.999Z</time></trkpt><trkpt lat="43.351671237973434" lon="12.931000931676149"><ele>296.0</ele><time>2026-05-03T16:54:50.999Z</time></trkpt><trkpt lat="43.351713458097585" lon="12.931216866433884"><ele>296.0</ele><time>2026-05-03T16:54:51.999Z</time></trkpt><trkpt lat="43.35174469976452" lon="12.93143145863876"><ele>296.0</ele><time>2026-05-03T16:54:52.999Z</time></trkpt><trkpt lat="43.351762893791516" lon="12.931657422511806"><ele>296.0</ele><time>2026-05-03T16:54:53.999Z</time></trkpt><trkpt lat="43.35176807359483" lon="12.931882566653742"><ele>293.6666666666667</ele><time>2026-05-03T16:54:54.999Z</time></trkpt><trkpt lat="43.35175336775694" lon="12.932106331157886"><ele>291.3333333333333</ele><time>2026-05-03T16:54:55.999Z</time></trkpt><trkpt lat="43.351727811078895" lon="12.932329324290706"><ele>289.0</ele><time>2026-05-03T16:54:56.999Z</time></trkpt><trkpt lat="43.351692228854894" lon="12.932554862958554"><ele>287.66666666666663</ele><time>2026-05-03T16:54:57.999Z</time></trkpt><trkpt lat="43.35164831149704" lon="12.932776351198031"><ele>286.3333333333333</ele><time>2026-05-03T16:54:58.999Z</time></trkpt><trkpt lat="43.351597436260064" lon="12.932992074471489"><ele>285.0</ele><time>2026-05-03T16:54:59.999Z</time></trkpt><trkpt lat="43.35153603092351" lon="12.933202574748233"><ele>283.3333333333333</ele><time>2026-05-03T16:55:00.999Z</time></trkpt><trkpt lat="43.35147106185769" lon="12.933410729842993"><ele>281.66666666666663</ele><time>2026-05-03T16:55:01.999Z</time></trkpt><trkpt lat="43.35139715816223" lon="12.933611401287976"><ele>280.0</ele><time>2026-05-03T16:55:02.999Z</time></trkpt><trkpt lat="43.35131244978385" lon="12.933807308669229"><ele>281.3333333333333</ele><time>2026-05-03T16:55:03.999Z</time></trkpt><trkpt lat="43.351220489320404" lon="12.93399230210633"><ele>282.6666666666667</ele><time>2026-05-03T16:55:04.999Z</time></trkpt><trkpt lat="43.35112233145721" lon="12.934176063902125"><ele>284.0</ele><time>2026-05-03T16:55:05.999Z</time></trkpt><trkpt lat="43.35101754690122" lon="12.934353770617836"><ele>284.0</ele><time>2026-05-03T16:55:06.998Z</time></trkpt><trkpt lat="43.350913807218" lon="12.934540374557354"><ele>284.0</ele><time>2026-05-03T16:55:07.998Z</time></trkpt><trkpt lat="43.35080594542248" lon="12.934725126288043"><ele>284.0</ele><time>2026-05-03T16:55:08.998Z</time></trkpt><trkpt lat="43.35070521156623" lon="12.93491450118061"><ele>284.0</ele><time>2026-05-03T16:55:09.998Z</time></trkpt><trkpt lat="43.35060194175161" lon="12.935103184536088"><ele>284.0</ele><time>2026-05-03T16:55:10.998Z</time></trkpt><trkpt lat="43.35049476308252" lon="12.935291850764287"><ele>284.0</ele><time>2026-05-03T16:55:11.998Z</time></trkpt><trkpt lat="43.350384641757294" lon="12.93548400274298"><ele>284.0</ele><time>2026-05-03T16:55:13Z</time></trkpt><trkpt lat="43.35027302707516" lon="12.935675829774683"><ele>284.0</ele><time>2026-05-03T16:55:14Z</time></trkpt><trkpt lat="43.350158084424706" lon="12.935862009564346"><ele>284.0</ele><time>2026-05-03T16:55:15Z</time></trkpt><trkpt lat="43.35004797505311" lon="12.936051128277029"><ele>282.6666666666667</ele><time>2026-05-03T16:55:16Z</time></trkpt><trkpt lat="43.34993611427994" lon="12.936246626674235"><ele>281.3333333333333</ele><time>2026-05-03T16:55:17Z</time></trkpt><trkpt lat="43.349825093987505" lon="12.9364420203733"><ele>280.0</ele><time>2026-05-03T16:55:18Z</time></trkpt><trkpt lat="43.349713477204034" lon="12.936637303834546"><ele>280.0</ele><time>2026-05-03T16:55:19Z</time></trkpt><trkpt lat="43.349605190760485" lon="12.93682745086911"><ele>280.0</ele><time>2026-05-03T16:55:20Z</time></trkpt><trkpt lat="43.34949835199178" lon="12.937018342218902"><ele>280.0</ele><time>2026-05-03T16:55:21Z</time></trkpt><trkpt lat="43.34939440043599" lon="12.937207037883201"><ele>280.0</ele><time>2026-05-03T16:55:22Z</time></trkpt><trkpt lat="43.34928714467343" lon="12.937394369997003"><ele>280.0</ele><time>2026-05-03T16:55:23Z</time></trkpt><trkpt lat="43.349179939824026" lon="12.93758457182596"><ele>280.0</ele><time>2026-05-03T16:55:24Z</time></trkpt><trkpt lat="43.34907345149741" lon="12.937772723700014"><ele>280.0</ele><time>2026-05-03T16:55:25Z</time></trkpt><trkpt lat="43.348965021265684" lon="12.937962836894162"><ele>280.0</ele><time>2026-05-03T16:55:26Z</time></trkpt><trkpt lat="43.348858723769624" lon="12.938151914593396"><ele>280.0</ele><time>2026-05-03T16:55:27Z</time></trkpt><trkpt lat="43.3487518135271" lon="12.938342459217136"><ele>280.0</ele><time>2026-05-03T16:55:28Z</time></trkpt><trkpt lat="43.34864260633351" lon="12.938531198855125"><ele>280.0</ele><time>2026-05-03T16:55:29Z</time></trkpt><trkpt lat="43.34853808578438" lon="12.938721750145941"><ele>280.0</ele><time>2026-05-03T16:55:30Z</time></trkpt><trkpt lat="43.34842269772812" lon="12.938895772870302"><ele>280.0</ele><time>2026-05-03T16:55:31Z</time></trkpt><trkpt lat="43.34831266074125" lon="12.93908793281967"><ele>280.0</ele><time>2026-05-03T16:55:32Z</time></trkpt><trkpt lat="43.34820937452192" lon="12.93926830183333"><ele>280.0</ele><time>2026-05-03T16:55:33Z</time></trkpt><trkpt lat="43.34811482346954" lon="12.939434758912448"><ele>283.0</ele><time>2026-05-03T16:55:34Z</time></trkpt><trkpt lat="43.34801727302843" lon="12.939606115984752"><ele>286.0</ele><time>2026-05-03T16:55:35Z</time></trkpt><trkpt lat="43.3479202104293" lon="12.939776616028153"><ele>289.0</ele><time>2026-05-03T16:55:36Z</time></trkpt><trkpt lat="43.347837060020225" lon="12.939955625886634"><ele>287.0</ele><time>2026-05-03T16:55:37Z</time></trkpt><trkpt lat="43.34774795856393" lon="12.940111144241781"><ele>285.0</ele><time>2026-05-03T16:55:38Z</time></trkpt><trkpt lat="43.3476622595145" lon="12.940253281948326"><ele>283.0</ele><time>2026-05-03T16:55:39Z</time></trkpt><trkpt lat="43.34757419577903" lon="12.940384424969071"><ele>281.0</ele><time>2026-05-03T16:55:40Z</time></trkpt><trkpt lat="43.34751071748102" lon="12.94052678946809"><ele>281.0</ele><time>2026-05-03T16:55:41Z</time></trkpt><trkpt lat="43.34743294420157" lon="12.940655811881687"><ele>281.0</ele><time>2026-05-03T16:55:42Z</time></trkpt><trkpt lat="43.347359907481064" lon="12.940781803822853"><ele>281.0</ele><time>2026-05-03T16:55:43Z</time></trkpt><trkpt lat="43.34728873554708" lon="12.940912492888925"><ele>281.0</ele><time>2026-05-03T16:55:44Z</time></trkpt><trkpt lat="43.34721145600315" lon="12.94104668542403"><ele>279.75</ele><time>2026-05-03T16:55:45Z</time></trkpt><trkpt lat="43.34713656515385" lon="12.941179830649908"><ele>278.5</ele><time>2026-05-03T16:55:46Z</time></trkpt><trkpt lat="43.347056271404874" lon="12.941314546239441"><ele>277.25</ele><time>2026-05-03T16:55:47Z</time></trkpt><trkpt lat="43.346975225486474" lon="12.941455306839043"><ele>276.0</ele><time>2026-05-03T16:55:48Z</time></trkpt><trkpt lat="43.3469015039227" lon="12.941585547343939"><ele>276.0</ele><time>2026-05-03T16:55:49Z</time></trkpt><trkpt lat="43.34682606838236" lon="12.941713933989377"><ele>276.0</ele><time>2026-05-03T16:55:50Z</time></trkpt><trkpt lat="43.346755343426345" lon="12.941842300204678"><ele>276.0</ele><time>2026-05-03T16:55:51Z</time></trkpt><trkpt lat="43.346683869788784" lon="12.941958216614"><ele>276.0</ele><time>2026-05-03T16:55:52Z</time></trkpt><trkpt lat="43.346614052789675" lon="12.942079796963903"><ele>276.0</ele><time>2026-05-03T16:55:53Z</time></trkpt><trkpt lat="43.346543981656914" lon="12.94221087505191"><ele>276.0</ele><time>2026-05-03T16:55:54Z</time></trkpt><trkpt lat="43.34647725022658" lon="12.942323533384192"><ele>276.0</ele><time>2026-05-03T16:55:55Z</time></trkpt><trkpt lat="43.34640597281659" lon="12.942439840138887"><ele>276.0</ele><time>2026-05-03T16:55:56Z</time></trkpt><trkpt lat="43.34633652332685" lon="12.94256505068357"><ele>276.0</ele><time>2026-05-03T16:55:57Z</time></trkpt><trkpt lat="43.3462644133905" lon="12.942692477670793"><ele>276.25</ele><time>2026-05-03T16:55:58Z</time></trkpt><trkpt lat="43.346188661873306" lon="12.942818516001868"><ele>276.5</ele><time>2026-05-03T16:55:59Z</time></trkpt><trkpt lat="43.346117002878415" lon="12.942956655793928"><ele>276.75</ele><time>2026-05-03T16:56:00Z</time></trkpt><trkpt lat="43.346034633957544" lon="12.94309832889299"><ele>277.0</ele><time>2026-05-03T16:56:01Z</time></trkpt><trkpt lat="43.345954520365865" lon="12.943240562253028"><ele>276.75</ele><time>2026-05-03T16:56:02Z</time></trkpt><trkpt lat="43.34587128657563" lon="12.943383542861412"><ele>276.5</ele><time>2026-05-03T16:56:02.999Z</time></trkpt><trkpt lat="43.3457866738279" lon="12.943531284599533"><ele>276.25</ele><time>2026-05-03T16:56:03.999Z</time></trkpt><trkpt lat="43.34569514051317" lon="12.94368726777724"><ele>276.0</ele><time>2026-05-03T16:56:04.999Z</time></trkpt><trkpt lat="43.34560286762863" lon="12.943844439955646"><ele>275.6666666666667</ele><time>2026-05-03T16:56:05.999Z</time></trkpt><trkpt lat="43.345510846943704" lon="12.943998826174528"><ele>275.33333333333337</ele><time>2026-05-03T16:56:06.999Z</time></trkpt><trkpt lat="43.3454185215461" lon="12.944161824214508"><ele>275.0</ele><time>2026-05-03T16:56:07.999Z</time></trkpt><trkpt lat="43.34532004638921" lon="12.944333625629213"><ele>274.0</ele><time>2026-05-03T16:56:08.999Z</time></trkpt><trkpt lat="43.34522438290641" lon="12.94450149930271"><ele>273.0</ele><time>2026-05-03T16:56:09.999Z</time></trkpt><trkpt lat="43.34512364290265" lon="12.944666693796863"><ele>272.0</ele><time>2026-05-03T16:56:10.999Z</time></trkpt><trkpt lat="43.34502331324529" lon="12.944846417028081"><ele>272.0</ele><time>2026-05-03T16:56:11.999Z</time></trkpt><trkpt lat="43.344924145594725" lon="12.945017074574588"><ele>272.0</ele><time>2026-05-03T16:56:12.999Z</time></trkpt><trkpt lat="43.34482324371738" lon="12.945197456122385"><ele>272.0</ele><time>2026-05-03T16:56:13.999Z</time></trkpt><trkpt lat="43.344722402912105" lon="12.94536692541794"><ele>272.33333333333337</ele><time>2026-05-03T16:56:14.999Z</time></trkpt><trkpt lat="43.34462003844274" lon="12.945544472242455"><ele>272.6666666666667</ele><time>2026-05-03T16:56:15.999Z</time></trkpt><trkpt lat="43.34452590426413" lon="12.945729550693972"><ele>273.0</ele><time>2026-05-03T16:56:16.999Z</time></trkpt><trkpt lat="43.34444675940953" lon="12.945915560416644"><ele>273.0</ele><time>2026-05-03T16:56:17.999Z</time></trkpt><trkpt lat="43.34438522460664" lon="12.946106302752506"><ele>273.0</ele><time>2026-05-03T16:56:18.999Z</time></trkpt><trkpt lat="43.34433992146237" lon="12.946294067465448"><ele>273.0</ele><time>2026-05-03T16:56:19.999Z</time></trkpt><trkpt lat="43.34430681734963" lon="12.946481112442605"><ele>273.0</ele><time>2026-05-03T16:56:20.999Z</time></trkpt><trkpt lat="43.344285132917015" lon="12.946672230827984"><ele>272.0</ele><time>2026-05-03T16:56:21.999Z</time></trkpt><trkpt lat="43.34426875460717" lon="12.946862440076327"><ele>271.0</ele><time>2026-05-03T16:56:22.999Z</time></trkpt><trkpt lat="43.34426158711849" lon="12.947054750968807"><ele>270.0</ele><time>2026-05-03T16:56:23.999Z</time></trkpt><trkpt lat="43.344255214100855" lon="12.947243238793211"><ele>269.0</ele><time>2026-05-03T16:56:24.999Z</time></trkpt><trkpt lat="43.34425252050755" lon="12.947423034352243"><ele>269.25</ele><time>2026-05-03T16:56:25.999Z</time></trkpt><trkpt lat="43.34424999389215" lon="12.947603995878152"><ele>269.5</ele><time>2026-05-03T16:56:26.999Z</time></trkpt><trkpt lat="43.34425398075008" lon="12.947776795745712"><ele>269.75</ele><time>2026-05-03T16:56:27.999Z</time></trkpt><trkpt lat="43.34426619792277" lon="12.947951611059084"><ele>270.0</ele><time>2026-05-03T16:56:28.999Z</time></trkpt><trkpt lat="43.344283849213994" lon="12.948119408056376"><ele>270.0</ele><time>2026-05-03T16:56:29.999Z</time></trkpt><trkpt lat="43.34430025910265" lon="12.948286474156879"><ele>270.0</ele><time>2026-05-03T16:56:30.999Z</time></trkpt><trkpt lat="43.34430275107068" lon="12.948455593617634"><ele>270.0</ele><time>2026-05-03T16:56:31.999Z</time></trkpt><trkpt lat="43.34428153999576" lon="12.948615096213215"><ele>270.0</ele><time>2026-05-03T16:56:32.999Z</time></trkpt><trkpt lat="43.34424463283388" lon="12.948776130622084"><ele>269.75</ele><time>2026-05-03T16:56:33.999Z</time></trkpt><trkpt lat="43.34419741095449" lon="12.948930235680777"><ele>269.5</ele><time>2026-05-03T16:56:34.999Z</time></trkpt><trkpt lat="43.34414017260277" lon="12.949080230154983"><ele>269.25</ele><time>2026-05-03T16:56:35.999Z</time></trkpt><trkpt lat="43.344092156504125" lon="12.94923998993032"><ele>269.0</ele><time>2026-05-03T16:56:36.999Z</time></trkpt><trkpt lat="43.344059374060365" lon="12.94941012388956"><ele>269.0</ele><time>2026-05-03T16:56:37.999Z</time></trkpt><trkpt lat="43.34404288338719" lon="12.94958812569845"><ele>269.0</ele><time>2026-05-03T16:56:38.999Z</time></trkpt><trkpt lat="43.344037200767076" lon="12.94976881371366"><ele>269.0</ele><time>2026-05-03T16:56:39.999Z</time></trkpt><trkpt lat="43.344038723028554" lon="12.949954453091"><ele>269.0</ele><time>2026-05-03T16:56:40.999Z</time></trkpt><trkpt lat="43.34403781420564" lon="12.9501469189925"><ele>268.75</ele><time>2026-05-03T16:56:41.999Z</time></trkpt><trkpt lat="43.34403488333497" lon="12.950344995961139"><ele>268.5</ele><time>2026-05-03T16:56:42.999Z</time></trkpt><trkpt lat="43.344028507854105" lon="12.950548352813158"><ele>268.25</ele><time>2026-05-03T16:56:43.999Z</time></trkpt><trkpt lat="43.34402580419773" lon="12.950748411128219"><ele>268.0</ele><time>2026-05-03T16:56:44.999Z</time></trkpt><trkpt lat="43.3440246645291" lon="12.950952607262433"><ele>268.0</ele><time>2026-05-03T16:56:45.999Z</time></trkpt><trkpt lat="43.3440224215319" lon="12.951164736985929"><ele>268.0</ele><time>2026-05-03T16:56:46.999Z</time></trkpt><trkpt lat="43.344020118776264" lon="12.951379075063905"><ele>268.0</ele><time>2026-05-03T16:56:47.999Z</time></trkpt><trkpt lat="43.34401363283374" lon="12.951597716274154"><ele>266.66666666666663</ele><time>2026-05-03T16:56:48.999Z</time></trkpt><trkpt lat="43.34400841495112" lon="12.951819509096836"><ele>265.3333333333333</ele><time>2026-05-03T16:56:49.999Z</time></trkpt><trkpt lat="43.34400171740321" lon="12.952042343425859"><ele>264.0</ele><time>2026-05-03T16:56:50.999Z</time></trkpt><trkpt lat="43.34399425590519" lon="12.952269323724586"><ele>264.0</ele><time>2026-05-03T16:56:51.999Z</time></trkpt><trkpt lat="43.343986630212555" lon="12.952496839926951"><ele>264.0</ele><time>2026-05-03T16:56:52.999Z</time></trkpt><trkpt lat="43.343984571650545" lon="12.952718924930714"><ele>264.0</ele><time>2026-05-03T16:56:53.999Z</time></trkpt><trkpt lat="43.34398301242253" lon="12.952942244852924"><ele>264.0</ele><time>2026-05-03T16:56:54.999Z</time></trkpt><trkpt lat="43.343978924518446" lon="12.953156796640537"><ele>264.0</ele><time>2026-05-03T16:56:55.999Z</time></trkpt><trkpt lat="43.34397193784245" lon="12.953368634555043"><ele>264.0</ele><time>2026-05-03T16:56:56.999Z</time></trkpt><trkpt lat="43.34396688110503" lon="12.95357469364573"><ele>264.0</ele><time>2026-05-03T16:56:57.999Z</time></trkpt><trkpt lat="43.3439689439311" lon="12.953769198157394"><ele>264.0</ele><time>2026-05-03T16:56:58.999Z</time></trkpt><trkpt lat="43.343980249420795" lon="12.953951195006837"><ele>264.0</ele><time>2026-05-03T16:56:59.999Z</time></trkpt><trkpt lat="43.34400948249015" lon="12.954116833219905"><ele>264.0</ele><time>2026-05-03T16:57:00.999Z</time></trkpt><trkpt lat="43.34405934377198" lon="12.95426346308435"><ele>262.0</ele><time>2026-05-03T16:57:01.999Z</time></trkpt><trkpt lat="43.344125220926685" lon="12.95439277333372"><ele>260.0</ele><time>2026-05-03T16:57:02.999Z</time></trkpt><trkpt lat="43.34421114942425" lon="12.954507648503702"><ele>258.0</ele><time>2026-05-03T16:57:03.999Z</time></trkpt><trkpt lat="43.344310376289705" lon="12.954600497246965"><ele>256.0</ele><time>2026-05-03T16:57:04.999Z</time></trkpt><trkpt lat="43.34441560878711" lon="12.954667450293998"><ele>256.0</ele><time>2026-05-03T16:57:05.999Z</time></trkpt><trkpt lat="43.34453226555055" lon="12.954667995421676"><ele>256.0</ele><time>2026-05-03T16:57:06.999Z</time></trkpt><trkpt lat="43.34464361977919" lon="12.95467739728114"><ele>256.0</ele><time>2026-05-03T16:57:07.999Z</time></trkpt><trkpt lat="43.34475857309139" lon="12.954661249754539"><ele>256.0</ele><time>2026-05-03T16:57:08.999Z</time></trkpt><trkpt lat="43.344859633147664" lon="12.954606487045414"><ele>255.83333333333331</ele><time>2026-05-03T16:57:09.999Z</time></trkpt><trkpt lat="43.34494880220088" lon="12.954550246890735"><ele>255.66666666666666</ele><time>2026-05-03T16:57:10.999Z</time></trkpt><trkpt lat="43.345051696582495" lon="12.95457162336329"><ele>255.5</ele><time>2026-05-03T16:57:11.999Z</time></trkpt><trkpt lat="43.3451220823475" lon="12.954585926342988"><ele>255.33333333333331</ele><time>2026-05-03T16:57:12.999Z</time></trkpt><trkpt lat="43.34518849240725" lon="12.954629860451178"><ele>255.16666666666666</ele><time>2026-05-03T16:57:13.999Z</time></trkpt><trkpt lat="43.34525122973325" lon="12.954660406566155"><ele>255.0</ele><time>2026-05-03T16:57:14.999Z</time></trkpt><trkpt lat="43.345271973181994" lon="12.954820922339241"><ele>255.0</ele><time>2026-05-03T16:57:15.998Z</time></trkpt><trkpt lat="43.3452965685633" lon="12.9549305721707"><ele>255.0</ele><time>2026-05-03T16:57:16.998Z</time></trkpt><trkpt lat="43.34531122231037" lon="12.955047845844817"><ele>255.0</ele><time>2026-05-03T16:57:17.998Z</time></trkpt><trkpt lat="43.345305252146936" lon="12.955169981000935"><ele>255.0</ele><time>2026-05-03T16:57:19Z</time></trkpt><trkpt lat="43.3452725092735" lon="12.955288472011896"><ele>255.0</ele><time>2026-05-03T16:57:20Z</time></trkpt><trkpt lat="43.345210022553644" lon="12.955381605130478"><ele>255.0</ele><time>2026-05-03T16:57:21Z</time></trkpt><trkpt lat="43.34515603432633" lon="12.955481590512665"><ele>254.83333333333334</ele><time>2026-05-03T16:57:22Z</time></trkpt><trkpt lat="43.34510136785248" lon="12.955582255583177"><ele>254.66666666666669</ele><time>2026-05-03T16:57:23Z</time></trkpt><trkpt lat="43.34503685008439" lon="12.95565872698729"><ele>254.5</ele><time>2026-05-03T16:57:24Z</time></trkpt><trkpt lat="43.34495059935719" lon="12.955685538756436"><ele>254.33333333333334</ele><time>2026-05-03T16:57:25Z</time></trkpt><trkpt lat="43.34486203859044" lon="12.95567734777446"><ele>254.16666666666669</ele><time>2026-05-03T16:57:26Z</time></trkpt><trkpt lat="43.34477252300142" lon="12.955641582767466"><ele>254.0</ele><time>2026-05-03T16:57:27Z</time></trkpt><trkpt lat="43.34468719351474" lon="12.955574543974164"><ele>253.79999999999998</ele><time>2026-05-03T16:57:28Z</time></trkpt><trkpt lat="43.34458402480242" lon="12.95556071522768"><ele>253.59999999999997</ele><time>2026-05-03T16:57:29Z</time></trkpt><trkpt lat="43.34448737195498" lon="12.955560715224628"><ele>253.4</ele><time>2026-05-03T16:57:30Z</time></trkpt><trkpt lat="43.344404336502585" lon="12.95565693224277"><ele>253.2</ele><time>2026-05-03T16:57:31Z</time></trkpt><trkpt lat="43.344337059736425" lon="12.95574328860978"><ele>253.0</ele><time>2026-05-03T16:57:32Z</time></trkpt><trkpt lat="43.34428620214678" lon="12.955848677463257"><ele>252.60000000000002</ele><time>2026-05-03T16:57:33Z</time></trkpt><trkpt lat="43.34425714702537" lon="12.955980733020759"><ele>252.20000000000002</ele><time>2026-05-03T16:57:34Z</time></trkpt><trkpt lat="43.344232471674594" lon="12.956112024116406"><ele>251.8</ele><time>2026-05-03T16:57:35Z</time></trkpt><trkpt lat="43.3441980349683" lon="12.95624822918408"><ele>251.4</ele><time>2026-05-03T16:57:36Z</time></trkpt><trkpt lat="43.34414658514725" lon="12.956379221009833"><ele>251.0</ele><time>2026-05-03T16:57:37Z</time></trkpt><trkpt lat="43.344074812955824" lon="12.956499862767386"><ele>251.0</ele><time>2026-05-03T16:57:38Z</time></trkpt><trkpt lat="43.343984629682346" lon="12.956612202280875"><ele>251.0</ele><time>2026-05-03T16:57:39Z</time></trkpt><trkpt lat="43.34385394293707" lon="12.956685577362528"><ele>251.0</ele><time>2026-05-03T16:57:40Z</time></trkpt><trkpt lat="43.343735949664186" lon="12.956792617687755"><ele>251.0</ele><time>2026-05-03T16:57:41Z</time></trkpt><trkpt lat="43.343625287926734" lon="12.956918463946225"><ele>251.0</ele><time>2026-05-03T16:57:42Z</time></trkpt><trkpt lat="43.343498503901984" lon="12.95702289857019"><ele>251.0</ele><time>2026-05-03T16:57:43Z</time></trkpt><trkpt lat="43.343371883634816" lon="12.957133716280532"><ele>251.0</ele><time>2026-05-03T16:57:44Z</time></trkpt><trkpt lat="43.34324377448485" lon="12.957248162917612"><ele>251.0</ele><time>2026-05-03T16:57:45Z</time></trkpt><trkpt lat="43.34310896208785" lon="12.95736947849386"><ele>251.0</ele><time>2026-05-03T16:57:46Z</time></trkpt><trkpt lat="43.34297512426093" lon="12.957488599230974"><ele>251.0</ele><time>2026-05-03T16:57:47Z</time></trkpt><trkpt lat="43.3428384016907" lon="12.957613578426448"><ele>250.66666666666669</ele><time>2026-05-03T16:57:48Z</time></trkpt><trkpt lat="43.34269811227407" lon="12.95774699517909"><ele>250.33333333333331</ele><time>2026-05-03T16:57:49Z</time></trkpt><trkpt lat="43.34255977724505" lon="12.957879154483521"><ele>250.0</ele><time>2026-05-03T16:57:50Z</time></trkpt><trkpt lat="43.34241975886453" lon="12.958005854142296"><ele>250.0</ele><time>2026-05-03T16:57:51Z</time></trkpt><trkpt lat="43.342271912278626" lon="12.95813142776344"><ele>250.0</ele><time>2026-05-03T16:57:52Z</time></trkpt><trkpt lat="43.342123062195775" lon="12.958265223583966"><ele>250.0</ele><time>2026-05-03T16:57:53Z</time></trkpt><trkpt lat="43.3419746338007" lon="12.95840096459802"><ele>250.0</ele><time>2026-05-03T16:57:54Z</time></trkpt><trkpt lat="43.34181949800442" lon="12.958549365865712"><ele>250.0</ele><time>2026-05-03T16:57:55Z</time></trkpt><trkpt lat="43.34166478013026" lon="12.958691339363101"><ele>250.0</ele><time>2026-05-03T16:57:56Z</time></trkpt><trkpt lat="43.3414984194248" lon="12.958840785391056"><ele>250.66666666666666</ele><time>2026-05-03T16:57:57Z</time></trkpt><trkpt lat="43.34133770807053" lon="12.958989581025806"><ele>251.33333333333331</ele><time>2026-05-03T16:57:58Z</time></trkpt><trkpt lat="43.341180738971914" lon="12.959141955024204"><ele>252.0</ele><time>2026-05-03T16:57:59Z</time></trkpt><trkpt lat="43.34101916187992" lon="12.959294095191403"><ele>252.0</ele><time>2026-05-03T16:58:00Z</time></trkpt><trkpt lat="43.34085519717785" lon="12.959436037223004"><ele>252.0</ele><time>2026-05-03T16:58:01Z</time></trkpt><trkpt lat="43.340709169754426" lon="12.959618198521937"><ele>252.0</ele><time>2026-05-03T16:58:02Z</time></trkpt><trkpt lat="43.34056085512834" lon="12.959792443775415"><ele>252.0</ele><time>2026-05-03T16:58:03Z</time></trkpt><trkpt lat="43.340420859615534" lon="12.959977324869664"><ele>252.0</ele><time>2026-05-03T16:58:04Z</time></trkpt><trkpt lat="43.3402749272117" lon="12.960159231697018"><ele>252.0</ele><time>2026-05-03T16:58:05Z</time></trkpt><trkpt lat="43.3401509725369" lon="12.960361063993851"><ele>251.66666666666669</ele><time>2026-05-03T16:58:06Z</time></trkpt><trkpt lat="43.340040235700656" lon="12.960590346154792"><ele>251.33333333333334</ele><time>2026-05-03T16:58:07Z</time></trkpt><trkpt lat="43.33992379436714" lon="12.96079474435421"><ele>251.0</ele><time>2026-05-03T16:58:08Z</time></trkpt><trkpt lat="43.33981010687377" lon="12.961004995499145"><ele>249.66666666666669</ele><time>2026-05-03T16:58:09Z</time></trkpt><trkpt lat="43.339697757074404" lon="12.961221207263554"><ele>248.33333333333331</ele><time>2026-05-03T16:58:10Z</time></trkpt><trkpt lat="43.33958890729504" lon="12.96144092834694"><ele>247.0</ele><time>2026-05-03T16:58:11Z</time></trkpt><trkpt lat="43.3394801295479" lon="12.961656898781772"><ele>247.33333333333331</ele><time>2026-05-03T16:58:11.999Z</time></trkpt><trkpt lat="43.33937091559216" lon="12.961865585231852"><ele>247.66666666666669</ele><time>2026-05-03T16:58:12.999Z</time></trkpt><trkpt lat="43.339252890176446" lon="12.962071514564744"><ele>248.0</ele><time>2026-05-03T16:58:13.999Z</time></trkpt><trkpt lat="43.33912861717524" lon="12.962267697292443"><ele>248.0</ele><time>2026-05-03T16:58:14.999Z</time></trkpt><trkpt lat="43.33899836618875" lon="12.962456168652615"><ele>248.0</ele><time>2026-05-03T16:58:15.999Z</time></trkpt><trkpt lat="43.3388640574448" lon="12.962633347499601"><ele>248.0</ele><time>2026-05-03T16:58:16.999Z</time></trkpt><trkpt lat="43.3387230812952" lon="12.96279398757509"><ele>248.66666666666669</ele><time>2026-05-03T16:58:17.999Z</time></trkpt><trkpt lat="43.33857508942744" lon="12.96294781051349"><ele>249.33333333333331</ele><time>2026-05-03T16:58:18.999Z</time></trkpt><trkpt lat="43.33841796291701" lon="12.96309925052431"><ele>250.0</ele><time>2026-05-03T16:58:19.999Z</time></trkpt><trkpt lat="43.338248870785094" lon="12.963237027557833"><ele>250.0</ele><time>2026-05-03T16:58:20.999Z</time></trkpt><trkpt lat="43.33807598066012" lon="12.963367048324567"><ele>250.0</ele><time>2026-05-03T16:58:21.999Z</time></trkpt><trkpt lat="43.337895324681334" lon="12.963471048816206"><ele>250.0</ele><time>2026-05-03T16:58:22.999Z</time></trkpt><trkpt lat="43.33770804221489" lon="12.963548615067022"><ele>249.66666666666666</ele><time>2026-05-03T16:58:23.999Z</time></trkpt><trkpt lat="43.33752520346261" lon="12.963633199494486"><ele>249.33333333333331</ele><time>2026-05-03T16:58:24.999Z</time></trkpt><trkpt lat="43.33734016841236" lon="12.96370457458858"><ele>249.0</ele><time>2026-05-03T16:58:25.999Z</time></trkpt><trkpt lat="43.337154170276825" lon="12.963776866001531"><ele>253.33333333333331</ele><time>2026-05-03T16:58:26.999Z</time></trkpt><trkpt lat="43.33696731589781" lon="12.963819005697808"><ele>257.66666666666663</ele><time>2026-05-03T16:58:27.999Z</time></trkpt><trkpt lat="43.33677862449688" lon="12.963854372171612"><ele>262.0</ele><time>2026-05-03T16:58:28.999Z</time></trkpt><trkpt lat="43.3365830371804" lon="12.96388363527489"><ele>262.0</ele><time>2026-05-03T16:58:29.999Z</time></trkpt><trkpt lat="43.33639096002741" lon="12.963905064517592"><ele>262.0</ele><time>2026-05-03T16:58:30.999Z</time></trkpt><trkpt lat="43.33620002649466" lon="12.963911985439932"><ele>262.0</ele><time>2026-05-03T16:58:31.999Z</time></trkpt><trkpt lat="43.33600728980301" lon="12.963917952784213"><ele>263.0</ele><time>2026-05-03T16:58:32.999Z</time></trkpt><trkpt lat="43.33581039983397" lon="12.963932541068145"><ele>264.0</ele><time>2026-05-03T16:58:33.999Z</time></trkpt><trkpt lat="43.335616064915946" lon="12.963942321971516"><ele>265.0</ele><time>2026-05-03T16:58:34.999Z</time></trkpt><trkpt lat="43.33542351749934" lon="12.963951638358767"><ele>263.0</ele><time>2026-05-03T16:58:35.999Z</time></trkpt><trkpt lat="43.33522903102733" lon="12.963966621033878"><ele>261.0</ele><time>2026-05-03T16:58:36.999Z</time></trkpt><trkpt lat="43.33502829783049" lon="12.963989442178585"><ele>259.0</ele><time>2026-05-03T16:58:37.999Z</time></trkpt><trkpt lat="43.33482387068006" lon="12.964013354823669"><ele>258.0</ele><time>2026-05-03T16:58:38.999Z</time></trkpt><trkpt lat="43.334614144122156" lon="12.96403971784506"><ele>257.0</ele><time>2026-05-03T16:58:39.999Z</time></trkpt><trkpt lat="43.334405185114534" lon="12.96407359543164"><ele>256.0</ele><time>2026-05-03T16:58:40.999Z</time></trkpt><trkpt lat="43.33419915066394" lon="12.964120300597571"><ele>256.0</ele><time>2026-05-03T16:58:41.999Z</time></trkpt><trkpt lat="43.33398573420902" lon="12.96418025074176"><ele>256.0</ele><time>2026-05-03T16:58:42.999Z</time></trkpt><trkpt lat="43.3337738541284" lon="12.964238212148055"><ele>256.0</ele><time>2026-05-03T16:58:43.999Z</time></trkpt><trkpt lat="43.33356838790109" lon="12.964315959525965"><ele>259.0</ele><time>2026-05-03T16:58:44.999Z</time></trkpt><trkpt lat="43.33335777097142" lon="12.964394417720388"><ele>262.0</ele><time>2026-05-03T16:58:45.999Z</time></trkpt><trkpt lat="43.333155038680054" lon="12.964483206712199"><ele>265.0</ele><time>2026-05-03T16:58:46.999Z</time></trkpt><trkpt lat="43.332951394819716" lon="12.964572081422011"><ele>268.66666666666663</ele><time>2026-05-03T16:58:47.999Z</time></trkpt><trkpt lat="43.332749800769875" lon="12.964665226463547"><ele>272.3333333333333</ele><time>2026-05-03T16:58:48.999Z</time></trkpt><trkpt lat="43.33255125126708" lon="12.964776694183756"><ele>276.0</ele><time>2026-05-03T16:58:49.999Z</time></trkpt><trkpt lat="43.33234497826865" lon="12.964897668418743"><ele>279.6666666666667</ele><time>2026-05-03T16:58:50.999Z</time></trkpt><trkpt lat="43.33214802191727" lon="12.965007806548126"><ele>283.33333333333337</ele><time>2026-05-03T16:58:51.999Z</time></trkpt><trkpt lat="43.331948316663265" lon="12.965120886038159"><ele>287.0</ele><time>2026-05-03T16:58:52.999Z</time></trkpt><trkpt lat="43.33176378934764" lon="12.965268488773226"><ele>291.33333333333337</ele><time>2026-05-03T16:58:53.999Z</time></trkpt><trkpt lat="43.33157521903269" lon="12.965406863366288"><ele>295.6666666666667</ele><time>2026-05-03T16:58:54.999Z</time></trkpt><trkpt lat="43.33139018214046" lon="12.965548855988343"><ele>300.0</ele><time>2026-05-03T16:58:55.999Z</time></trkpt><trkpt lat="43.33121204948745" lon="12.965695463665648"><ele>304.0</ele><time>2026-05-03T16:58:56.999Z</time></trkpt><trkpt lat="43.3310256757969" lon="12.965862394793659"><ele>308.0</ele><time>2026-05-03T16:58:58.067Z</time></trkpt><trkpt lat="43.33086252035867" lon="12.966023612543859"><ele>312.0</ele><time>2026-05-03T16:58:59.068Z</time></trkpt><trkpt lat="43.330370419135946" lon="12.966713607705435"><ele>317.0</ele><time>2026-05-03T16:59:02.33Z</time></trkpt><trkpt lat="43.3302192017944" lon="12.966923242379126"><ele>322.0</ele><time>2026-05-03T16:59:03.33Z</time></trkpt><trkpt lat="43.33005659397901" lon="12.967117779187664"><ele>327.0</ele><time>2026-05-03T16:59:04.33Z</time></trkpt><trkpt lat="43.32990696499128" lon="12.967329539824302"><ele>329.3333333333333</ele><time>2026-05-03T16:59:05.33Z</time></trkpt><trkpt lat="43.32977016917158" lon="12.967556588353863"><ele>331.66666666666663</ele><time>2026-05-03T16:59:06.325Z</time></trkpt><trkpt lat="43.32962042131794" lon="12.96776990861878"><ele>334.0</ele><time>2026-05-03T16:59:07.33Z</time></trkpt><trkpt lat="43.329471596246464" lon="12.9679819143531"><ele>336.66666666666663</ele><time>2026-05-03T16:59:08.328Z</time></trkpt><trkpt lat="43.329322178847995" lon="12.968194763874807"><ele>339.3333333333333</ele><time>2026-05-03T16:59:09.33Z</time></trkpt><trkpt lat="43.329173670667906" lon="12.968406318187938"><ele>342.0</ele><time>2026-05-03T16:59:10.325Z</time></trkpt><trkpt lat="43.32902458361831" lon="12.968618437086054"><ele>340.3333333333333</ele><time>2026-05-03T16:59:11.325Z</time></trkpt><trkpt lat="43.32887357860608" lon="12.968829173231343"><ele>338.66666666666663</ele><time>2026-05-03T16:59:12.327Z</time></trkpt><trkpt lat="43.32872218873556" lon="12.969039774233625"><ele>337.0</ele><time>2026-05-03T16:59:13.329Z</time></trkpt><trkpt lat="43.328571364800474" lon="12.96924810555534"><ele>335.0</ele><time>2026-05-03T16:59:14.325Z</time></trkpt><trkpt lat="43.32840569258228" lon="12.969438828149425"><ele>333.0</ele><time>2026-05-03T16:59:15.33Z</time></trkpt><trkpt lat="43.3282498331154" lon="12.9696402666959"><ele>331.0</ele><time>2026-05-03T16:59:16.326Z</time></trkpt><trkpt lat="43.328103240578045" lon="12.969856810622831"><ele>326.0</ele><time>2026-05-03T16:59:17.325Z</time></trkpt><trkpt lat="43.32794233496769" lon="12.970054155703764"><ele>321.0</ele><time>2026-05-03T16:59:18.329Z</time></trkpt><trkpt lat="43.32776847816599" lon="12.970228974319992"><ele>316.0</ele><time>2026-05-03T16:59:19.329Z</time></trkpt><trkpt lat="43.3276140459571" lon="12.97043470251034"><ele>316.0</ele><time>2026-05-03T16:59:20.329Z</time></trkpt><trkpt lat="43.32744572544624" lon="12.970618624196485"><ele>316.0</ele><time>2026-05-03T16:59:21.329Z</time></trkpt><trkpt lat="43.32726549551311" lon="12.970779611969531"><ele>316.0</ele><time>2026-05-03T16:59:22.327Z</time></trkpt><trkpt lat="43.325386418323895" lon="12.972138954347201"><ele>303.0</ele><time>2026-05-03T16:59:23.999Z</time></trkpt><trkpt lat="43.325215453296295" lon="12.972251239097108"><ele>290.0</ele><time>2026-05-03T16:59:24.999Z</time></trkpt><trkpt lat="43.32499601372777" lon="12.972346713169241"><ele>277.0</ele><time>2026-05-03T16:59:25.998Z</time></trkpt><trkpt lat="43.324751032099506" lon="12.972440911833072"><ele>275.5</ele><time>2026-05-03T16:59:26.998Z</time></trkpt><trkpt lat="43.32452964302053" lon="12.972531677797525"><ele>274.0</ele><time>2026-05-03T16:59:27.998Z</time></trkpt><trkpt lat="43.3242951947236" lon="12.97259727485275"><ele>274.0</ele><time>2026-05-03T16:59:29Z</time></trkpt><trkpt lat="43.324060892075885" lon="12.972655453160668"><ele>274.0</ele><time>2026-05-03T16:59:30Z</time></trkpt><trkpt lat="43.32382741230737" lon="12.972706821507153"><ele>277.5</ele><time>2026-05-03T16:59:31Z</time></trkpt><trkpt lat="43.32364844587819" lon="12.972896841756624"><ele>281.0</ele><time>2026-05-03T16:59:32Z</time></trkpt><trkpt lat="43.32337142715642" lon="12.972906226031693"><ele>281.0</ele><time>2026-05-03T16:59:33Z</time></trkpt><trkpt lat="43.32306925908493" lon="12.972849140044277"><ele>281.0</ele><time>2026-05-03T16:59:34Z</time></trkpt><trkpt lat="43.32281573819627" lon="12.9728879541239"><ele>281.5</ele><time>2026-05-03T16:59:35Z</time></trkpt><trkpt lat="43.32256428788033" lon="12.972930871866742"><ele>282.0</ele><time>2026-05-03T16:59:36Z</time></trkpt><trkpt lat="43.32230640271856" lon="12.972974941779718"><ele>283.0</ele><time>2026-05-03T16:59:37Z</time></trkpt><trkpt lat="43.32205411753277" lon="12.973017140556648"><ele>284.0</ele><time>2026-05-03T16:59:38Z</time></trkpt><trkpt lat="43.32180627370071" lon="12.97305031757341"><ele>284.0</ele><time>2026-05-03T16:59:39Z</time></trkpt><trkpt lat="43.321560539072514" lon="12.973082428880854"><ele>284.0</ele><time>2026-05-03T16:59:40Z</time></trkpt><trkpt lat="43.32131369197932" lon="12.973127734338174"><ele>284.5</ele><time>2026-05-03T16:59:41Z</time></trkpt><trkpt lat="43.32107002359031" lon="12.973162918933738"><ele>285.0</ele><time>2026-05-03T16:59:42Z</time></trkpt><trkpt lat="43.32082699112223" lon="12.973201091553609"><ele>285.0</ele><time>2026-05-03T16:59:43Z</time></trkpt><trkpt lat="43.320582367032976" lon="12.973244259146789"><ele>285.0</ele><time>2026-05-03T16:59:44Z</time></trkpt><trkpt lat="43.32033880056468" lon="12.97328136977576"><ele>284.5</ele><time>2026-05-03T16:59:45Z</time></trkpt><trkpt lat="43.3200868241778" lon="12.973310028474371"><ele>284.0</ele><time>2026-05-03T16:59:46Z</time></trkpt><trkpt lat="43.31983945690075" lon="12.973346750298987"><ele>280.0</ele><time>2026-05-03T16:59:47Z</time></trkpt><trkpt lat="43.319595449202104" lon="12.973389812660315"><ele>276.0</ele><time>2026-05-03T16:59:48Z</time></trkpt><trkpt lat="43.319347312449956" lon="12.973428371745808"><ele>276.0</ele><time>2026-05-03T16:59:49Z</time></trkpt><trkpt lat="43.3191019608795" lon="12.973469564531584"><ele>276.0</ele><time>2026-05-03T16:59:50Z</time></trkpt><trkpt lat="43.31885257934184" lon="12.973503855637292"><ele>275.5</ele><time>2026-05-03T16:59:51Z</time></trkpt><trkpt lat="43.31860505566565" lon="12.973533981569922"><ele>275.0</ele><time>2026-05-03T16:59:52Z</time></trkpt><trkpt lat="43.31835606195015" lon="12.973567404464951"><ele>275.0</ele><time>2026-05-03T16:59:53Z</time></trkpt><trkpt lat="43.31810921500557" lon="12.973605743397583"><ele>275.0</ele><time>2026-05-03T16:59:54Z</time></trkpt><trkpt lat="43.317860397941374" lon="12.973644556569074"><ele>275.5</ele><time>2026-05-03T16:59:55Z</time></trkpt><trkpt lat="43.31761354305188" lon="12.973691908520264"><ele>276.0</ele><time>2026-05-03T16:59:56Z</time></trkpt><trkpt lat="43.31736992583378" lon="12.973728306117401"><ele>274.0</ele><time>2026-05-03T16:59:57Z</time></trkpt><trkpt lat="43.317122252184376" lon="12.973764704363619"><ele>272.0</ele><time>2026-05-03T16:59:58Z</time></trkpt><trkpt lat="43.31687186676035" lon="12.97380791431826"><ele>272.0</ele><time>2026-05-03T16:59:59Z</time></trkpt><trkpt lat="43.3166255067972" lon="12.97384272736432"><ele>272.0</ele><time>2026-05-03T17:00:00Z</time></trkpt><trkpt lat="43.316377704237304" lon="12.973885834303928"><ele>271.0</ele><time>2026-05-03T17:00:01Z</time></trkpt><trkpt lat="43.3161295666222" lon="12.973923774231295"><ele>270.0</ele><time>2026-05-03T17:00:02Z</time></trkpt><trkpt lat="43.31587895653194" lon="12.973962929572439"><ele>270.0</ele><time>2026-05-03T17:00:03Z</time></trkpt><trkpt lat="43.315630837717656" lon="12.974001504758212"><ele>270.0</ele><time>2026-05-03T17:00:04Z</time></trkpt><trkpt lat="43.31538386258022" lon="12.974036165976068"><ele>271.0</ele><time>2026-05-03T17:00:05Z</time></trkpt><trkpt lat="43.315136656436195" lon="12.974075127829998"><ele>272.0</ele><time>2026-05-03T17:00:06Z</time></trkpt><trkpt lat="43.314888632877896" lon="12.974108961222353"><ele>272.0</ele><time>2026-05-03T17:00:07Z</time></trkpt><trkpt lat="43.314636349369884" lon="12.97414790777644"><ele>272.0</ele><time>2026-05-03T17:00:08Z</time></trkpt><trkpt lat="43.3143801407725" lon="12.974194053542972"><ele>273.5</ele><time>2026-05-03T17:00:09Z</time></trkpt><trkpt lat="43.31412147078976" lon="12.974231084616894"><ele>275.0</ele><time>2026-05-03T17:00:10Z</time></trkpt><trkpt lat="43.31386553795712" lon="12.974264442414265"><ele>275.5</ele><time>2026-05-03T17:00:11Z</time></trkpt><trkpt lat="43.31361002149929" lon="12.974304236799838"><ele>276.0</ele><time>2026-05-03T17:00:12Z</time></trkpt><trkpt lat="43.31334932198469" lon="12.974342010481795"><ele>276.0</ele><time>2026-05-03T17:00:13Z</time></trkpt><trkpt lat="43.31308841037652" lon="12.974382667542638"><ele>276.0</ele><time>2026-05-03T17:00:14Z</time></trkpt><trkpt lat="43.312824821719715" lon="12.974427232787946"><ele>275.5</ele><time>2026-05-03T17:00:15Z</time></trkpt><trkpt lat="43.31256230724056" lon="12.974469299971508"><ele>275.0</ele><time>2026-05-03T17:00:16Z</time></trkpt><trkpt lat="43.312297645580216" lon="12.974519547488278"><ele>275.0</ele><time>2026-05-03T17:00:17Z</time></trkpt><trkpt lat="43.3120322309964" lon="12.974539712313666"><ele>275.0</ele><time>2026-05-03T17:00:18Z</time></trkpt><trkpt lat="43.31177511384422" lon="12.974588162032337"><ele>275.0</ele><time>2026-05-03T17:00:19Z</time></trkpt><trkpt lat="43.31151310805987" lon="12.974639942180616"><ele>275.0</ele><time>2026-05-03T17:00:20Z</time></trkpt><trkpt lat="43.311249930739876" lon="12.97469545406927"><ele>275.0</ele><time>2026-05-03T17:00:21Z</time></trkpt><trkpt lat="43.31099945281758" lon="12.97474916574589"><ele>275.0</ele><time>2026-05-03T17:00:22Z</time></trkpt><trkpt lat="43.31074460199576" lon="12.97482792568894"><ele>275.5</ele><time>2026-05-03T17:00:22.999Z</time></trkpt><trkpt lat="43.31049405961853" lon="12.97487701312276"><ele>276.0</ele><time>2026-05-03T17:00:23.999Z</time></trkpt><trkpt lat="43.31024122738013" lon="12.97493626949065"><ele>276.0</ele><time>2026-05-03T17:00:24.999Z</time></trkpt><trkpt lat="43.30997857755015" lon="12.974982591496868"><ele>276.0</ele><time>2026-05-03T17:00:25.999Z</time></trkpt><trkpt lat="43.309724808245896" lon="12.975071759806868"><ele>275.0</ele><time>2026-05-03T17:00:26.999Z</time></trkpt><trkpt lat="43.30946654483491" lon="12.975150436593037"><ele>274.0</ele><time>2026-05-03T17:00:27.999Z</time></trkpt><trkpt lat="43.30920834666393" lon="12.975230974003454"><ele>274.0</ele><time>2026-05-03T17:00:28.999Z</time></trkpt><trkpt lat="43.30894939981358" lon="12.975311962175358"><ele>274.0</ele><time>2026-05-03T17:00:29.999Z</time></trkpt><trkpt lat="43.30868760454318" lon="12.975404526153316"><ele>276.0</ele><time>2026-05-03T17:00:30.999Z</time></trkpt><trkpt lat="43.30843256411948" lon="12.975484949023478"><ele>278.0</ele><time>2026-05-03T17:00:31.999Z</time></trkpt><trkpt lat="43.30816229411668" lon="12.975580751680797"><ele>279.0</ele><time>2026-05-03T17:00:32.999Z</time></trkpt><trkpt lat="43.30790087954589" lon="12.975673805841048"><ele>280.0</ele><time>2026-05-03T17:00:33.999Z</time></trkpt><trkpt lat="43.30763146368232" lon="12.97577404003807"><ele>276.5</ele><time>2026-05-03T17:00:34.999Z</time></trkpt><trkpt lat="43.30736550478699" lon="12.97587333366381"><ele>273.0</ele><time>2026-05-03T17:00:35.999Z</time></trkpt><trkpt lat="43.307100532966786" lon="12.97597504730325"><ele>273.0</ele><time>2026-05-03T17:00:36.999Z</time></trkpt><trkpt lat="43.30683810896292" lon="12.976073434558433"><ele>273.0</ele><time>2026-05-03T17:00:37.999Z</time></trkpt><trkpt lat="43.30656133714755" lon="12.976169825377793"><ele>275.5</ele><time>2026-05-03T17:00:38.999Z</time></trkpt><trkpt lat="43.30629173593388" lon="12.976266405833162"><ele>278.0</ele><time>2026-05-03T17:00:39.999Z</time></trkpt><trkpt lat="43.30602042816707" lon="12.976369181117066"><ele>278.0</ele><time>2026-05-03T17:00:40.999Z</time></trkpt><trkpt lat="43.3057476256777" lon="12.976473537521938"><ele>278.0</ele><time>2026-05-03T17:00:41.999Z</time></trkpt><trkpt lat="43.30547532859338" lon="12.976576620363778"><ele>280.0</ele><time>2026-05-03T17:00:42.999Z</time></trkpt><trkpt lat="43.30520458227601" lon="12.976675777429872"><ele>282.0</ele><time>2026-05-03T17:00:43.999Z</time></trkpt><trkpt lat="43.30493435232526" lon="12.976774317112724"><ele>282.5</ele><time>2026-05-03T17:00:44.999Z</time></trkpt><trkpt lat="43.304665120512105" lon="12.976870481258633"><ele>283.0</ele><time>2026-05-03T17:00:45.999Z</time></trkpt><trkpt lat="43.304401143824066" lon="12.976966256901187"><ele>283.0</ele><time>2026-05-03T17:00:46.999Z</time></trkpt><trkpt lat="43.30413591951433" lon="12.977067286019508"><ele>283.0</ele><time>2026-05-03T17:00:47.999Z</time></trkpt><trkpt lat="43.303865976210226" lon="12.977165211589382"><ele>284.5</ele><time>2026-05-03T17:00:48.999Z</time></trkpt><trkpt lat="43.303601963102196" lon="12.977263645871622"><ele>286.0</ele><time>2026-05-03T17:00:49.999Z</time></trkpt><trkpt lat="43.30333263229702" lon="12.977366259369399"><ele>287.5</ele><time>2026-05-03T17:00:50.999Z</time></trkpt><trkpt lat="43.30306220701959" lon="12.977468123224668"><ele>289.0</ele><time>2026-05-03T17:00:51.999Z</time></trkpt><trkpt lat="43.302793644396736" lon="12.977571492227588"><ele>284.5</ele><time>2026-05-03T17:00:52.999Z</time></trkpt><trkpt lat="43.30252107638966" lon="12.977673875571279"><ele>280.0</ele><time>2026-05-03T17:00:53.999Z</time></trkpt><trkpt lat="43.302249406805366" lon="12.977774004997661"><ele>281.5</ele><time>2026-05-03T17:00:54.999Z</time></trkpt><trkpt lat="43.3019777254625" lon="12.977874187203467"><ele>283.0</ele><time>2026-05-03T17:00:55.999Z</time></trkpt><trkpt lat="43.30170687345035" lon="12.977970654112596"><ele>283.0</ele><time>2026-05-03T17:00:56.999Z</time></trkpt><trkpt lat="43.30143214607169" lon="12.978067039409304"><ele>283.0</ele><time>2026-05-03T17:00:57.999Z</time></trkpt><trkpt lat="43.30115754645876" lon="12.978168770927311"><ele>283.0</ele><time>2026-05-03T17:00:58.999Z</time></trkpt><trkpt lat="43.300885668407425" lon="12.978270282142391"><ele>283.0</ele><time>2026-05-03T17:00:59.999Z</time></trkpt><trkpt lat="43.300613125947535" lon="12.978369185465093"><ele>284.0</ele><time>2026-05-03T17:01:00.999Z</time></trkpt><trkpt lat="43.30033799558983" lon="12.978473306841021"><ele>285.0</ele><time>2026-05-03T17:01:01.999Z</time></trkpt><trkpt lat="43.30006074811757" lon="12.978574887668827"><ele>285.0</ele><time>2026-05-03T17:01:02.999Z</time></trkpt><trkpt lat="43.299786260356036" lon="12.978679853969226"><ele>285.0</ele><time>2026-05-03T17:01:03.999Z</time></trkpt><trkpt lat="43.299511401820936" lon="12.978781665536097"><ele>286.0</ele><time>2026-05-03T17:01:04.999Z</time></trkpt><trkpt lat="43.299232689063174" lon="12.97888482864421"><ele>287.0</ele><time>2026-05-03T17:01:05.999Z</time></trkpt><trkpt lat="43.29895366497396" lon="12.978986765282311"><ele>286.5</ele><time>2026-05-03T17:01:06.999Z</time></trkpt><trkpt lat="43.29867825456105" lon="12.979088671192535"><ele>286.0</ele><time>2026-05-03T17:01:07.999Z</time></trkpt><trkpt lat="43.298401272733926" lon="12.979189700948945"><ele>286.0</ele><time>2026-05-03T17:01:08.999Z</time></trkpt><trkpt lat="43.29812144285848" lon="12.97928949061557"><ele>286.0</ele><time>2026-05-03T17:01:09.999Z</time></trkpt><trkpt lat="43.297845007881094" lon="12.979391313398702"><ele>288.0</ele><time>2026-05-03T17:01:10.999Z</time></trkpt><trkpt lat="43.297568368214144" lon="12.97949550654598"><ele>290.0</ele><time>2026-05-03T17:01:11.999Z</time></trkpt><trkpt lat="43.297292646370465" lon="12.979602090701098"><ele>291.0</ele><time>2026-05-03T17:01:12.999Z</time></trkpt><trkpt lat="43.29701537059326" lon="12.9797068976374"><ele>292.0</ele><time>2026-05-03T17:01:13.999Z</time></trkpt><trkpt lat="43.29673841457634" lon="12.979814044614178"><ele>292.0</ele><time>2026-05-03T17:01:14.999Z</time></trkpt><trkpt lat="43.29646459580794" lon="12.979922098234306"><ele>292.0</ele><time>2026-05-03T17:01:15.999Z</time></trkpt><trkpt lat="43.29618823181703" lon="12.980027071444827"><ele>291.0</ele><time>2026-05-03T17:01:16.999Z</time></trkpt><trkpt lat="43.29590761008207" lon="12.980127988820541"><ele>290.0</ele><time>2026-05-03T17:01:17.999Z</time></trkpt><trkpt lat="43.29562748598204" lon="12.980229507145603"><ele>290.0</ele><time>2026-05-03T17:01:18.999Z</time></trkpt><trkpt lat="43.29534308036345" lon="12.980334078896083"><ele>290.0</ele><time>2026-05-03T17:01:19.999Z</time></trkpt><trkpt lat="43.29506013070839" lon="12.980439836411332"><ele>290.0</ele><time>2026-05-03T17:01:20.999Z</time></trkpt><trkpt lat="43.29477163755503" lon="12.98054799198079"><ele>290.0</ele><time>2026-05-03T17:01:21.999Z</time></trkpt><trkpt lat="43.294478781045235" lon="12.980655805633447"><ele>292.0</ele><time>2026-05-03T17:01:22.999Z</time></trkpt><trkpt lat="43.294184830895915" lon="12.980761955761418"><ele>294.0</ele><time>2026-05-03T17:01:23.999Z</time></trkpt><trkpt lat="43.293891792579544" lon="12.980872311347635"><ele>289.5</ele><time>2026-05-03T17:01:24.999Z</time></trkpt><trkpt lat="43.29359505536572" lon="12.98098465875868"><ele>285.0</ele><time>2026-05-03T17:01:25.999Z</time></trkpt><trkpt lat="43.293303832992976" lon="12.981104034576598"><ele>285.0</ele><time>2026-05-03T17:01:26.999Z</time></trkpt><trkpt lat="43.29301851939925" lon="12.981231952528939"><ele>285.0</ele><time>2026-05-03T17:01:27.999Z</time></trkpt><trkpt lat="43.292725022284706" lon="12.981355845267554"><ele>285.0</ele><time>2026-05-03T17:01:28.999Z</time></trkpt><trkpt lat="43.29244722263995" lon="12.981498919465135"><ele>285.0</ele><time>2026-05-03T17:01:29.999Z</time></trkpt><trkpt lat="43.29216514460113" lon="12.981639354210895"><ele>288.5</ele><time>2026-05-03T17:01:30.999Z</time></trkpt><trkpt lat="43.29188665135902" lon="12.981785890616125"><ele>292.0</ele><time>2026-05-03T17:01:31.999Z</time></trkpt><trkpt lat="43.291610569670645" lon="12.981937412039944"><ele>293.5</ele><time>2026-05-03T17:01:32.999Z</time></trkpt><trkpt lat="43.29133100945558" lon="12.982074396881382"><ele>295.0</ele><time>2026-05-03T17:01:34Z</time></trkpt><trkpt lat="43.29105827343439" lon="12.982230404996079"><ele>295.0</ele><time>2026-05-03T17:01:35Z</time></trkpt><trkpt lat="43.290791038930344" lon="12.982384885367294"><ele>295.0</ele><time>2026-05-03T17:01:36Z</time></trkpt><trkpt lat="43.290520365777255" lon="12.982539653922203"><ele>295.5</ele><time>2026-05-03T17:01:37Z</time></trkpt><trkpt lat="43.29024723150963" lon="12.982689951655308"><ele>296.0</ele><time>2026-05-03T17:01:38Z</time></trkpt><trkpt lat="43.28997487279088" lon="12.982831066773132"><ele>297.5</ele><time>2026-05-03T17:01:39Z</time></trkpt><trkpt lat="43.28970145578686" lon="12.98296508223283"><ele>299.0</ele><time>2026-05-03T17:01:40Z</time></trkpt><trkpt lat="43.289432178685516" lon="12.983096931498423"><ele>299.0</ele><time>2026-05-03T17:01:41Z</time></trkpt><trkpt lat="43.289165142605015" lon="12.98321212068445"><ele>299.0</ele><time>2026-05-03T17:01:42Z</time></trkpt><trkpt lat="43.28889598935913" lon="12.983324322880359"><ele>300.5</ele><time>2026-05-03T17:01:43Z</time></trkpt><trkpt lat="43.2886340046177" lon="12.983431342473912"><ele>302.0</ele><time>2026-05-03T17:01:44Z</time></trkpt><trkpt lat="43.28837479999243" lon="12.983543037305754"><ele>302.0</ele><time>2026-05-03T17:01:45Z</time></trkpt><trkpt lat="43.288113000386865" lon="12.98362466294021"><ele>302.0</ele><time>2026-05-03T17:01:46Z</time></trkpt><trkpt lat="43.28784734784653" lon="12.983701267108541"><ele>305.0</ele><time>2026-05-03T17:01:47Z</time></trkpt><trkpt lat="43.28757703902152" lon="12.98377079041625"><ele>308.0</ele><time>2026-05-03T17:01:48Z</time></trkpt><trkpt lat="43.28730928536732" lon="12.983834080132384"><ele>311.5</ele><time>2026-05-03T17:01:49Z</time></trkpt><trkpt lat="43.28704530322666" lon="12.983889356779189"><ele>315.0</ele><time>2026-05-03T17:01:50Z</time></trkpt><trkpt lat="43.286787202075594" lon="12.983942608540238"><ele>315.0</ele><time>2026-05-03T17:01:51Z</time></trkpt><trkpt lat="43.28652469041649" lon="12.98399424632136"><ele>315.0</ele><time>2026-05-03T17:01:52Z</time></trkpt><trkpt lat="43.286262058430786" lon="12.984019416992878"><ele>320.5</ele><time>2026-05-03T17:01:53Z</time></trkpt><trkpt lat="43.28600177746991" lon="12.984087258127943"><ele>326.0</ele><time>2026-05-03T17:01:54Z</time></trkpt><trkpt lat="43.2857416078765" lon="12.984137901409163"><ele>322.5</ele><time>2026-05-03T17:01:55Z</time></trkpt><trkpt lat="43.28548973673332" lon="12.984187014340748"><ele>319.0</ele><time>2026-05-03T17:01:56Z</time></trkpt><trkpt lat="43.285237873821224" lon="12.984241410883538"><ele>319.0</ele><time>2026-05-03T17:01:57Z</time></trkpt><trkpt lat="43.284989563774225" lon="12.984296854709322"><ele>319.0</ele><time>2026-05-03T17:01:58Z</time></trkpt><trkpt lat="43.28474388842651" lon="12.98435813286132"><ele>320.5</ele><time>2026-05-03T17:01:59Z</time></trkpt><trkpt lat="43.284505624227485" lon="12.984430788171359"><ele>322.0</ele><time>2026-05-03T17:02:00Z</time></trkpt><trkpt lat="43.28426161524847" lon="12.984513142566337"><ele>322.0</ele><time>2026-05-03T17:02:01Z</time></trkpt><trkpt lat="43.284018227060194" lon="12.984600096910613"><ele>322.0</ele><time>2026-05-03T17:02:02Z</time></trkpt><trkpt lat="43.28377921984541" lon="12.984689706268854"><ele>324.0</ele><time>2026-05-03T17:02:03Z</time></trkpt><trkpt lat="43.28353455897946" lon="12.98475743916024"><ele>326.0</ele><time>2026-05-03T17:02:04Z</time></trkpt><trkpt lat="43.28330142700699" lon="12.984853298023348"><ele>326.0</ele><time>2026-05-03T17:02:05Z</time></trkpt><trkpt lat="43.283069155249756" lon="12.984957219324821"><ele>326.0</ele><time>2026-05-03T17:02:06Z</time></trkpt><trkpt lat="43.282845281118185" lon="12.985065510585182"><ele>326.0</ele><time>2026-05-03T17:02:07Z</time></trkpt><trkpt lat="43.28261575227115" lon="12.985182738176809"><ele>326.0</ele><time>2026-05-03T17:02:08Z</time></trkpt><trkpt lat="43.28237892652611" lon="12.98530861228962"><ele>329.0</ele><time>2026-05-03T17:02:09Z</time></trkpt><trkpt lat="43.28213809061542" lon="12.985440763602833"><ele>332.0</ele><time>2026-05-03T17:02:10Z</time></trkpt><trkpt lat="43.2818837783892" lon="12.985583869582769"><ele>332.0</ele><time>2026-05-03T17:02:11Z</time></trkpt><trkpt lat="43.28162074647408" lon="12.985733909626333"><ele>332.0</ele><time>2026-05-03T17:02:12Z</time></trkpt><trkpt lat="43.28135139755369" lon="12.985889537227315"><ele>331.5</ele><time>2026-05-03T17:02:13Z</time></trkpt><trkpt lat="43.28107782564171" lon="12.986053700481566"><ele>331.0</ele><time>2026-05-03T17:02:14Z</time></trkpt><trkpt lat="43.280809068675396" lon="12.986219880735177"><ele>333.5</ele><time>2026-05-03T17:02:15Z</time></trkpt><trkpt lat="43.2805508904052" lon="12.986405478162483"><ele>336.0</ele><time>2026-05-03T17:02:16Z</time></trkpt><trkpt lat="43.28027619245579" lon="12.986563228901343"><ele>333.0</ele><time>2026-05-03T17:02:17Z</time></trkpt><trkpt lat="43.28000912266193" lon="12.986719958859197"><ele>330.0</ele><time>2026-05-03T17:02:18Z</time></trkpt><trkpt lat="43.279748058537685" lon="12.98687824678719"><ele>329.0</ele><time>2026-05-03T17:02:19Z</time></trkpt><trkpt lat="43.27948040261115" lon="12.987044574614524"><ele>328.0</ele><time>2026-05-03T17:02:20Z</time></trkpt><trkpt lat="43.27922069449475" lon="12.987201639808877"><ele>328.0</ele><time>2026-05-03T17:02:21Z</time></trkpt><trkpt lat="43.27895718183137" lon="12.987358517460267"><ele>328.0</ele><time>2026-05-03T17:02:22Z</time></trkpt><trkpt lat="43.27869522624851" lon="12.987517417617466"><ele>324.0</ele><time>2026-05-03T17:02:23Z</time></trkpt><trkpt lat="43.27843253981626" lon="12.98767658369998"><ele>320.0</ele><time>2026-05-03T17:02:24Z</time></trkpt><trkpt lat="43.27816796311384" lon="12.987835781438122"><ele>320.5</ele><time>2026-05-03T17:02:25Z</time></trkpt><trkpt lat="43.27790424050399" lon="12.987993401862454"><ele>321.0</ele><time>2026-05-03T17:02:26Z</time></trkpt><trkpt lat="43.277638270040335" lon="12.988146630380546"><ele>321.0</ele><time>2026-05-03T17:02:26.999Z</time></trkpt><trkpt lat="43.27737018459506" lon="12.988300074149123"><ele>321.0</ele><time>2026-05-03T17:02:27.999Z</time></trkpt><trkpt lat="43.2771058563208" lon="12.988445048838276"><ele>320.0</ele><time>2026-05-03T17:02:28.999Z</time></trkpt><trkpt lat="43.27683967551856" lon="12.988585996227766"><ele>319.0</ele><time>2026-05-03T17:02:29.999Z</time></trkpt><trkpt lat="43.27657205446074" lon="12.98872194240709"><ele>320.0</ele><time>2026-05-03T17:02:30.999Z</time></trkpt><trkpt lat="43.27630588537987" lon="12.988850882791231"><ele>321.0</ele><time>2026-05-03T17:02:31.999Z</time></trkpt><trkpt lat="43.27603795410649" lon="12.98896988957909"><ele>321.0</ele><time>2026-05-03T17:02:32.999Z</time></trkpt><trkpt lat="43.2757705992436" lon="12.989075449813459"><ele>321.0</ele><time>2026-05-03T17:02:33.999Z</time></trkpt><trkpt lat="43.2754996609364" lon="12.989172120858914"><ele>319.5</ele><time>2026-05-03T17:02:34.999Z</time></trkpt><trkpt lat="43.27523118825251" lon="12.989255691711152"><ele>318.0</ele><time>2026-05-03T17:02:35.999Z</time></trkpt><trkpt lat="43.27496339351026" lon="12.989332539813814"><ele>319.5</ele><time>2026-05-03T17:02:36.999Z</time></trkpt><trkpt lat="43.274694086416844" lon="12.989395232613369"><ele>321.0</ele><time>2026-05-03T17:02:37.999Z</time></trkpt><trkpt lat="43.27442460772615" lon="12.989445879048189"><ele>321.0</ele><time>2026-05-03T17:02:38.999Z</time></trkpt><trkpt lat="43.2741590214331" lon="12.989489324729211"><ele>321.0</ele><time>2026-05-03T17:02:39.999Z</time></trkpt><trkpt lat="43.273896330936836" lon="12.98952024321101"><ele>320.0</ele><time>2026-05-03T17:02:40.999Z</time></trkpt><trkpt lat="43.27363843904288" lon="12.989541979838949"><ele>319.0</ele><time>2026-05-03T17:02:41.999Z</time></trkpt><trkpt lat="43.273383259215585" lon="12.989550838838335"><ele>320.5</ele><time>2026-05-03T17:02:42.999Z</time></trkpt><trkpt lat="43.27310508455134" lon="12.989552767460534"><ele>322.0</ele><time>2026-05-03T17:02:43.999Z</time></trkpt><trkpt lat="43.272844865647166" lon="12.98955105150841"><ele>322.0</ele><time>2026-05-03T17:02:44.999Z</time></trkpt><trkpt lat="43.272586566882495" lon="12.989535424015502"><ele>322.0</ele><time>2026-05-03T17:02:45.999Z</time></trkpt><trkpt lat="43.27233087034615" lon="12.98951473888987"><ele>323.0</ele><time>2026-05-03T17:02:46.999Z</time></trkpt><trkpt lat="43.27207270461527" lon="12.989478255111461"><ele>324.0</ele><time>2026-05-03T17:02:47.999Z</time></trkpt><trkpt lat="43.27181258794262" lon="12.989429515257557"><ele>324.0</ele><time>2026-05-03T17:02:48.999Z</time></trkpt><trkpt lat="43.2715523091341" lon="12.989375970326387"><ele>324.0</ele><time>2026-05-03T17:02:49.999Z</time></trkpt><trkpt lat="43.27128766243718" lon="12.989312653696558"><ele>323.5</ele><time>2026-05-03T17:02:50.999Z</time></trkpt><trkpt lat="43.27102146757625" lon="12.98924367048419"><ele>323.0</ele><time>2026-05-03T17:02:51.999Z</time></trkpt><trkpt lat="43.270760779264734" lon="12.989157959473966"><ele>326.5</ele><time>2026-05-03T17:02:52.999Z</time></trkpt><trkpt lat="43.270503637236814" lon="12.989058816788486"><ele>330.0</ele><time>2026-05-03T17:02:53.999Z</time></trkpt><trkpt lat="43.27024459506575" lon="12.988956397848904"><ele>330.0</ele><time>2026-05-03T17:02:54.999Z</time></trkpt><trkpt lat="43.26998390312637" lon="12.988842170215085"><ele>330.0</ele><time>2026-05-03T17:02:55.999Z</time></trkpt><trkpt lat="43.26972363851108" lon="12.98872555434235"><ele>336.5</ele><time>2026-05-03T17:02:56.999Z</time></trkpt><trkpt lat="43.26946763604539" lon="12.988603921224525"><ele>343.0</ele><time>2026-05-03T17:02:57.999Z</time></trkpt><trkpt lat="43.269208001611865" lon="12.988480109597619"><ele>343.0</ele><time>2026-05-03T17:02:58.999Z</time></trkpt><trkpt lat="43.268947184096966" lon="12.988354178707528"><ele>343.0</ele><time>2026-05-03T17:02:59.999Z</time></trkpt><trkpt lat="43.268692245504944" lon="12.988229307743673"><ele>341.5</ele><time>2026-05-03T17:03:00.999Z</time></trkpt><trkpt lat="43.2684047417149" lon="12.988104369883445"><ele>340.0</ele><time>2026-05-03T17:03:01.999Z</time></trkpt><trkpt lat="43.26814447843905" lon="12.98796908438798"><ele>346.5</ele><time>2026-05-03T17:03:02.999Z</time></trkpt><trkpt lat="43.26787575641128" lon="12.987837789215652"><ele>353.0</ele><time>2026-05-03T17:03:03.999Z</time></trkpt><trkpt lat="43.2676093076165" lon="12.987718844902295"><ele>353.0</ele><time>2026-05-03T17:03:04.999Z</time></trkpt><trkpt lat="43.267342572563415" lon="12.98760159552804"><ele>353.0</ele><time>2026-05-03T17:03:05.999Z</time></trkpt><trkpt lat="43.26706965718071" lon="12.98749789529908"><ele>345.5</ele><time>2026-05-03T17:03:06.999Z</time></trkpt><trkpt lat="43.26679988333859" lon="12.987397225709433"><ele>338.0</ele><time>2026-05-03T17:03:07.999Z</time></trkpt><trkpt lat="43.266530812421834" lon="12.987288435387473"><ele>339.5</ele><time>2026-05-03T17:03:08.999Z</time></trkpt><trkpt lat="43.26626026554718" lon="12.9871930887785"><ele>341.0</ele><time>2026-05-03T17:03:09.999Z</time></trkpt><trkpt lat="43.265978625503955" lon="12.98710290639762"><ele>341.0</ele><time>2026-05-03T17:03:10.999Z</time></trkpt><trkpt lat="43.26569427243977" lon="12.98702027689424"><ele>341.0</ele><time>2026-05-03T17:03:11.999Z</time></trkpt><trkpt lat="43.26541085672891" lon="12.986947229758297"><ele>346.0</ele><time>2026-05-03T17:03:12.999Z</time></trkpt><trkpt lat="43.265125970902915" lon="12.98688245376809"><ele>351.0</ele><time>2026-05-03T17:03:13.999Z</time></trkpt><trkpt lat="43.26483641604841" lon="12.986821639873462"><ele>355.5</ele><time>2026-05-03T17:03:14.999Z</time></trkpt><trkpt lat="43.26455070517695" lon="12.986772453468927"><ele>360.0</ele><time>2026-05-03T17:03:15.999Z</time></trkpt><trkpt lat="43.264263692192166" lon="12.98672829283642"><ele>360.0</ele><time>2026-05-03T17:03:16.999Z</time></trkpt><trkpt lat="43.26397845227083" lon="12.986690702959656"><ele>360.0</ele><time>2026-05-03T17:03:17.999Z</time></trkpt><trkpt lat="43.263686866292225" lon="12.986662544531141"><ele>354.5</ele><time>2026-05-03T17:03:18.999Z</time></trkpt><trkpt lat="43.26339280813774" lon="12.98663888313523"><ele>349.0</ele><time>2026-05-03T17:03:19.999Z</time></trkpt><trkpt lat="43.263099869310054" lon="12.986622702852504"><ele>349.0</ele><time>2026-05-03T17:03:20.999Z</time></trkpt><trkpt lat="43.26280753859556" lon="12.986609370550038"><ele>349.0</ele><time>2026-05-03T17:03:21.999Z</time></trkpt><trkpt lat="43.26252805663159" lon="12.986610529887626"><ele>355.0</ele><time>2026-05-03T17:03:22.999Z</time></trkpt><trkpt lat="43.26225207050062" lon="12.986628557161474"><ele>361.0</ele><time>2026-05-03T17:03:23.999Z</time></trkpt><trkpt lat="43.26197362430158" lon="12.98663296051445"><ele>361.0</ele><time>2026-05-03T17:03:24.999Z</time></trkpt><trkpt lat="43.261700158847134" lon="12.986644299628296"><ele>361.0</ele><time>2026-05-03T17:03:25.999Z</time></trkpt><trkpt lat="43.261422503538206" lon="12.986653204152162"><ele>367.0</ele><time>2026-05-03T17:03:26.999Z</time></trkpt><trkpt lat="43.261135560897095" lon="12.986669471247039"><ele>373.0</ele><time>2026-05-03T17:03:27.999Z</time></trkpt><trkpt lat="43.260842886443" lon="12.986651003851799"><ele>379.5</ele><time>2026-05-03T17:03:28.999Z</time></trkpt><trkpt lat="43.26055009523509" lon="12.986668019226434"><ele>386.0</ele><time>2026-05-03T17:03:29.999Z</time></trkpt><trkpt lat="43.26026052187805" lon="12.986684847598024"><ele>386.0</ele><time>2026-05-03T17:03:30.999Z</time></trkpt><trkpt lat="43.25997150930833" lon="12.986701448541144"><ele>386.0</ele><time>2026-05-03T17:03:31.999Z</time></trkpt><trkpt lat="43.259660890960674" lon="12.986719148451261"><ele>389.5</ele><time>2026-05-03T17:03:33.062Z</time></trkpt><trkpt lat="43.25936663998288" lon="12.98673591570802"><ele>393.0</ele><time>2026-05-03T17:03:34.06Z</time></trkpt><trkpt lat="43.259067859863144" lon="12.98675294103946"><ele>400.5</ele><time>2026-05-03T17:03:35.057Z</time></trkpt><trkpt lat="43.25877412056247" lon="12.986769679135671"><ele>408.0</ele><time>2026-05-03T17:03:36.057Z</time></trkpt><trkpt lat="43.257820748742205" lon="12.986849289665054"><ele>415.5</ele><time>2026-05-03T17:03:39.326Z</time></trkpt><trkpt lat="43.257527466161136" lon="12.986844140689614"><ele>423.0</ele><time>2026-05-03T17:03:40.326Z</time></trkpt><trkpt lat="43.25723494460414" lon="12.986861086064682"><ele>433.0</ele><time>2026-05-03T17:03:41.326Z</time></trkpt><trkpt lat="43.256943050864834" lon="12.986900349787295"><ele>443.0</ele><time>2026-05-03T17:03:42.326Z</time></trkpt><trkpt lat="43.256650465864944" lon="12.986916849662698"><ele>454.5</ele><time>2026-05-03T17:03:43.326Z</time></trkpt><trkpt lat="43.256357881771905" lon="12.98693334948696"><ele>466.0</ele><time>2026-05-03T17:03:44.326Z</time></trkpt><trkpt lat="43.256065304096616" lon="12.986949848949306"><ele>466.0</ele><time>2026-05-03T17:03:45.326Z</time></trkpt><trkpt lat="43.25577271557393" lon="12.98696634902337"><ele>466.0</ele><time>2026-05-03T17:03:46.326Z</time></trkpt><trkpt lat="43.255480130015975" lon="12.986982848930246"><ele>476.0</ele><time>2026-05-03T17:03:47.326Z</time></trkpt><trkpt lat="43.25518753887737" lon="12.986999349151834"><ele>486.0</ele><time>2026-05-03T17:03:48.326Z</time></trkpt><trkpt lat="43.25489428371609" lon="12.986993085697454"><ele>486.0</ele><time>2026-05-03T17:03:49.326Z</time></trkpt><trkpt lat="43.2548178" lon="12.9870202"><ele>486.0</ele><time>2026-05-03T17:03:50.326Z</time></trkpt><trkpt lat="43.2473615009156" lon="12.987435148825007"><ele>430.5</ele><time>2026-05-03T17:04:10.998Z</time></trkpt><trkpt lat="43.24712594344122" lon="12.987457864411928"><ele>375.0</ele><time>2026-05-03T17:04:11.998Z</time></trkpt><trkpt lat="43.246883725077424" lon="12.987493211275197"><ele>377.0</ele><time>2026-05-03T17:04:12.998Z</time></trkpt><trkpt lat="43.246639698321935" lon="12.987525154402114"><ele>379.0</ele><time>2026-05-03T17:04:13.998Z</time></trkpt><trkpt lat="43.24639375568015" lon="12.987562133377768"><ele>382.0</ele><time>2026-05-03T17:04:14.998Z</time></trkpt><trkpt lat="43.24614991806817" lon="12.987608913116379"><ele>385.0</ele><time>2026-05-03T17:04:16Z</time></trkpt><trkpt lat="43.245901065280805" lon="12.98767233257969"><ele>385.5</ele><time>2026-05-03T17:04:17Z</time></trkpt><trkpt lat="43.24562762210377" lon="12.98773241800277"><ele>386.0</ele><time>2026-05-03T17:04:18Z</time></trkpt><trkpt lat="43.24537611252109" lon="12.987805110353312"><ele>386.0</ele><time>2026-05-03T17:04:19Z</time></trkpt><trkpt lat="43.24512733005018" lon="12.987907552820769"><ele>386.0</ele><time>2026-05-03T17:04:20Z</time></trkpt><trkpt lat="43.244885490331896" lon="12.9880075689401"><ele>386.0</ele><time>2026-05-03T17:04:21Z</time></trkpt><trkpt lat="43.24464811319203" lon="12.988115462224135"><ele>386.0</ele><time>2026-05-03T17:04:22Z</time></trkpt><trkpt lat="43.244412210995016" lon="12.98823639456876"><ele>386.5</ele><time>2026-05-03T17:04:23Z</time></trkpt><trkpt lat="43.24417390709937" lon="12.988375386333441"><ele>387.0</ele><time>2026-05-03T17:04:24Z</time></trkpt><trkpt lat="43.243939112124025" lon="12.988517084366048"><ele>387.0</ele><time>2026-05-03T17:04:25Z</time></trkpt><trkpt lat="43.24370611654135" lon="12.98867560635899"><ele>387.0</ele><time>2026-05-03T17:04:26Z</time></trkpt><trkpt lat="43.243472900003304" lon="12.98884589301026"><ele>387.0</ele><time>2026-05-03T17:04:27Z</time></trkpt><trkpt lat="43.243245149602814" lon="12.989027131835911"><ele>387.0</ele><time>2026-05-03T17:04:28Z</time></trkpt><trkpt lat="43.24302598642111" lon="12.989212719303337"><ele>388.0</ele><time>2026-05-03T17:04:29Z</time></trkpt><trkpt lat="43.24280946224663" lon="12.989410654775362"><ele>389.0</ele><time>2026-05-03T17:04:30Z</time></trkpt><trkpt lat="43.242581222190594" lon="12.98960307715979"><ele>389.0</ele><time>2026-05-03T17:04:31Z</time></trkpt><trkpt lat="43.24237492472123" lon="12.989814403403951"><ele>389.0</ele><time>2026-05-03T17:04:32Z</time></trkpt><trkpt lat="43.24218240561649" lon="12.9900326911059"><ele>389.5</ele><time>2026-05-03T17:04:33Z</time></trkpt><trkpt lat="43.24199563501106" lon="12.990258881088973"><ele>390.0</ele><time>2026-05-03T17:04:34Z</time></trkpt><trkpt lat="43.24181068337195" lon="12.990499890066127"><ele>390.0</ele><time>2026-05-03T17:04:35Z</time></trkpt><trkpt lat="43.241645516523846" lon="12.990754725187363"><ele>390.0</ele><time>2026-05-03T17:04:36Z</time></trkpt><trkpt lat="43.241479732190385" lon="12.990994443627388"><ele>390.0</ele><time>2026-05-03T17:04:37Z</time></trkpt><trkpt lat="43.2413129819825" lon="12.991243888513392"><ele>390.0</ele><time>2026-05-03T17:04:38Z</time></trkpt><trkpt lat="43.241156300456126" lon="12.991499919167708"><ele>388.5</ele><time>2026-05-03T17:04:39Z</time></trkpt><trkpt lat="43.24101171761293" lon="12.99174728716173"><ele>387.0</ele><time>2026-05-03T17:04:40Z</time></trkpt><trkpt lat="43.24087472306366" lon="12.992002613573398"><ele>387.0</ele><time>2026-05-03T17:04:41Z</time></trkpt><trkpt lat="43.240746474319096" lon="12.992259667885884"><ele>387.0</ele><time>2026-05-03T17:04:42Z</time></trkpt><trkpt lat="43.24062324410539" lon="12.992525938805713"><ele>392.5</ele><time>2026-05-03T17:04:43Z</time></trkpt><trkpt lat="43.24050188163751" lon="12.992797812547852"><ele>398.0</ele><time>2026-05-03T17:04:44Z</time></trkpt><trkpt lat="43.24037163348262" lon="12.993063570184242"><ele>398.0</ele><time>2026-05-03T17:04:45Z</time></trkpt><trkpt lat="43.24025010352233" lon="12.993338390452902"><ele>398.0</ele><time>2026-05-03T17:04:46Z</time></trkpt><trkpt lat="43.24014322141233" lon="12.993618988615804"><ele>403.0</ele><time>2026-05-03T17:04:47Z</time></trkpt><trkpt lat="43.24004731533351" lon="12.993907505588387"><ele>408.0</ele><time>2026-05-03T17:04:48Z</time></trkpt><trkpt lat="43.23995942239424" lon="12.994204617771345"><ele>408.5</ele><time>2026-05-03T17:04:49Z</time></trkpt><trkpt lat="43.23987712973213" lon="12.994502746009845"><ele>409.0</ele><time>2026-05-03T17:04:50Z</time></trkpt><trkpt lat="43.239796326662976" lon="12.994799842261806"><ele>411.33333333333337</ele><time>2026-05-03T17:04:51Z</time></trkpt><trkpt lat="43.23973828206127" lon="12.995095598666108"><ele>413.66666666666663</ele><time>2026-05-03T17:04:52Z</time></trkpt><trkpt lat="43.23966161901954" lon="12.995384759658048"><ele>416.0</ele><time>2026-05-03T17:04:53Z</time></trkpt><trkpt lat="43.23959840591475" lon="12.995661854485729"><ele>414.5</ele><time>2026-05-03T17:04:54Z</time></trkpt><trkpt lat="43.23953449066099" lon="12.995946276476337"><ele>413.0</ele><time>2026-05-03T17:04:55Z</time></trkpt><trkpt lat="43.23946878600603" lon="12.996253496035775"><ele>413.0</ele><time>2026-05-03T17:04:56Z</time></trkpt><trkpt lat="43.2393841896971" lon="12.996558889388405"><ele>413.0</ele><time>2026-05-03T17:04:57Z</time></trkpt><trkpt lat="43.239309514478855" lon="12.996875835214507"><ele>413.0</ele><time>2026-05-03T17:04:58Z</time></trkpt><trkpt lat="43.239233638171335" lon="12.997205533254416"><ele>413.0</ele><time>2026-05-03T17:04:59Z</time></trkpt><trkpt lat="43.23915954985461" lon="12.997543773837084"><ele>412.5</ele><time>2026-05-03T17:05:00Z</time></trkpt><trkpt lat="43.2390875344753" lon="12.997887474579594"><ele>412.0</ele><time>2026-05-03T17:05:01Z</time></trkpt><trkpt lat="43.23903047647143" lon="12.998235554453915"><ele>417.5</ele><time>2026-05-03T17:05:02Z</time></trkpt><trkpt lat="43.2389476893237" lon="12.998573064892236"><ele>423.0</ele><time>2026-05-03T17:05:03Z</time></trkpt><trkpt lat="43.23887334773551" lon="12.998908495970662"><ele>421.0</ele><time>2026-05-03T17:05:04Z</time></trkpt><trkpt lat="43.238800955807534" lon="12.99924763557572"><ele>419.0</ele><time>2026-05-03T17:05:05Z</time></trkpt><trkpt lat="43.23873366450288" lon="12.99957421474999"><ele>419.0</ele><time>2026-05-03T17:05:06Z</time></trkpt><trkpt lat="43.238671825454766" lon="12.999903453898472"><ele>419.0</ele><time>2026-05-03T17:05:07Z</time></trkpt><trkpt lat="43.23861353705787" lon="13.000241993322174"><ele>419.0</ele><time>2026-05-03T17:05:08Z</time></trkpt><trkpt lat="43.238562115038754" lon="13.000571178108947"><ele>419.0</ele><time>2026-05-03T17:05:09Z</time></trkpt><trkpt lat="43.238489202576325" lon="13.000903999420881"><ele>421.5</ele><time>2026-05-03T17:05:10Z</time></trkpt><trkpt lat="43.238453255762806" lon="13.001249987508801"><ele>424.0</ele><time>2026-05-03T17:05:11Z</time></trkpt><trkpt lat="43.238432693579064" lon="13.00162200673318"><ele>428.0</ele><time>2026-05-03T17:05:11.999Z</time></trkpt><trkpt lat="43.23839941745389" lon="13.001992841252184"><ele>432.0</ele><time>2026-05-03T17:05:12.999Z</time></trkpt><trkpt lat="43.2383667650704" lon="13.002360559504258"><ele>432.0</ele><time>2026-05-03T17:05:13.999Z</time></trkpt><trkpt lat="43.23835137050816" lon="13.002733116118176"><ele>432.0</ele><time>2026-05-03T17:05:14.999Z</time></trkpt><trkpt lat="43.238348513658956" lon="13.003098450200715"><ele>428.0</ele><time>2026-05-03T17:05:15.999Z</time></trkpt><trkpt lat="43.238358731708736" lon="13.00349108499248"><ele>424.0</ele><time>2026-05-03T17:05:17.073Z</time></trkpt><trkpt lat="43.23837553153674" lon="13.00385646713678"><ele>417.0</ele><time>2026-05-03T17:05:18.069Z</time></trkpt><trkpt lat="43.23843927565374" lon="13.00472105553736"><ele>415.0</ele><time>2026-05-03T17:05:20.999Z</time></trkpt><trkpt lat="43.23846826767314" lon="13.005023235806304"><ele>413.0</ele><time>2026-05-03T17:05:21.999Z</time></trkpt><trkpt lat="43.23849661788068" lon="13.005280638290627"><ele>411.0</ele><time>2026-05-03T17:05:22.999Z</time></trkpt><trkpt lat="43.23853738592787" lon="13.005572352765242"><ele>409.0</ele><time>2026-05-03T17:05:23.999Z</time></trkpt><trkpt lat="43.23858134553569" lon="13.005847929154857"><ele>407.0</ele><time>2026-05-03T17:05:24.999Z</time></trkpt><trkpt lat="43.238628826806035" lon="13.00614090049841"><ele>405.0</ele><time>2026-05-03T17:05:25.999Z</time></trkpt><trkpt lat="43.23868697917433" lon="13.006460769361752"><ele>401.5</ele><time>2026-05-03T17:05:26.999Z</time></trkpt><trkpt lat="43.23875181202314" lon="13.00678020663824"><ele>398.0</ele><time>2026-05-03T17:05:27.999Z</time></trkpt><trkpt lat="43.23881627547858" lon="13.007114787540326"><ele>398.0</ele><time>2026-05-03T17:05:28.999Z</time></trkpt><trkpt lat="43.238856405666056" lon="13.0074837875966"><ele>398.0</ele><time>2026-05-03T17:05:29.999Z</time></trkpt><trkpt lat="43.23889884257813" lon="13.007847296215099"><ele>395.0</ele><time>2026-05-03T17:05:30.999Z</time></trkpt><trkpt lat="43.23894071439136" lon="13.008207780031238"><ele>392.0</ele><time>2026-05-03T17:05:31.999Z</time></trkpt><trkpt lat="43.23898737828771" lon="13.008569677110074"><ele>391.0</ele><time>2026-05-03T17:05:32.999Z</time></trkpt><trkpt lat="43.23900465669367" lon="13.008933851246624"><ele>390.0</ele><time>2026-05-03T17:05:33.999Z</time></trkpt><trkpt lat="43.23901344881255" lon="13.009316134031401"><ele>390.0</ele><time>2026-05-03T17:05:34.999Z</time></trkpt><trkpt lat="43.2390142312303" lon="13.009684348823827"><ele>390.0</ele><time>2026-05-03T17:05:35.999Z</time></trkpt><trkpt lat="43.23901094978798" lon="13.010046284989734"><ele>389.5</ele><time>2026-05-03T17:05:36.999Z</time></trkpt><trkpt lat="43.239000991990224" lon="13.01040312902722"><ele>389.0</ele><time>2026-05-03T17:05:37.999Z</time></trkpt><trkpt lat="43.238983414851965" lon="13.01074343838203"><ele>390.0</ele><time>2026-05-03T17:05:38.999Z</time></trkpt><trkpt lat="43.23895134553794" lon="13.011075044230322"><ele>391.0</ele><time>2026-05-03T17:05:39.999Z</time></trkpt><trkpt lat="43.23891522786574" lon="13.011418146761114"><ele>391.0</ele><time>2026-05-03T17:05:40.999Z</time></trkpt><trkpt lat="43.23886461970641" lon="13.011766213916909"><ele>391.0</ele><time>2026-05-03T17:05:41.999Z</time></trkpt><trkpt lat="43.23882814896204" lon="13.012132182166539"><ele>391.0</ele><time>2026-05-03T17:05:42.999Z</time></trkpt><trkpt lat="43.23876770871218" lon="13.012480794878142"><ele>391.0</ele><time>2026-05-03T17:05:43.999Z</time></trkpt><trkpt lat="43.23867704795048" lon="13.012821073378896"><ele>390.5</ele><time>2026-05-03T17:05:44.999Z</time></trkpt><trkpt lat="43.23860124541262" lon="13.013170895028333"><ele>390.0</ele><time>2026-05-03T17:05:45.999Z</time></trkpt><trkpt lat="43.238520211849654" lon="13.013514481688187"><ele>391.0</ele><time>2026-05-03T17:05:46.999Z</time></trkpt><trkpt lat="43.23842837784726" lon="13.013848071888678"><ele>392.0</ele><time>2026-05-03T17:05:47.999Z</time></trkpt><trkpt lat="43.23832706329744" lon="13.01417269924143"><ele>392.0</ele><time>2026-05-03T17:05:48.999Z</time></trkpt><trkpt lat="43.238219954202805" lon="13.014492856092339"><ele>392.0</ele><time>2026-05-03T17:05:49.999Z</time></trkpt><trkpt lat="43.23810206176999" lon="13.014813054948602"><ele>390.5</ele><time>2026-05-03T17:05:50.999Z</time></trkpt><trkpt lat="43.23797860363526" lon="13.01513007504256"><ele>389.0</ele><time>2026-05-03T17:05:51.999Z</time></trkpt><trkpt lat="43.23784393406428" lon="13.015451375399357"><ele>389.0</ele><time>2026-05-03T17:05:52.999Z</time></trkpt><trkpt lat="43.23769643756924" lon="13.015772610417994"><ele>389.0</ele><time>2026-05-03T17:05:53.999Z</time></trkpt><trkpt lat="43.23753600600442" lon="13.016098459155575"><ele>390.0</ele><time>2026-05-03T17:05:54.999Z</time></trkpt><trkpt lat="43.23736409253186" lon="13.016416812873416"><ele>391.0</ele><time>2026-05-03T17:05:55.999Z</time></trkpt><trkpt lat="43.23718009475092" lon="13.016727413310424"><ele>391.0</ele><time>2026-05-03T17:05:56.999Z</time></trkpt><trkpt lat="43.23698230875045" lon="13.017025013613527"><ele>391.0</ele><time>2026-05-03T17:05:57.999Z</time></trkpt><trkpt lat="43.23677556632267" lon="13.017320656171643"><ele>390.0</ele><time>2026-05-03T17:05:58.999Z</time></trkpt><trkpt lat="43.23656092123057" lon="13.01760941955858"><ele>389.0</ele><time>2026-05-03T17:05:59.999Z</time></trkpt><trkpt lat="43.23633409853472" lon="13.017898594107688"><ele>391.0</ele><time>2026-05-03T17:06:00.999Z</time></trkpt><trkpt lat="43.236105744624766" lon="13.018180385927385"><ele>393.0</ele><time>2026-05-03T17:06:01.999Z</time></trkpt><trkpt lat="43.23586203771747" lon="13.018455974806466"><ele>392.5</ele><time>2026-05-03T17:06:02.999Z</time></trkpt><trkpt lat="43.23562252523409" lon="13.018716374107644"><ele>392.0</ele><time>2026-05-03T17:06:03.999Z</time></trkpt><trkpt lat="43.23538672640435" lon="13.018959598507715"><ele>388.0</ele><time>2026-05-03T17:06:04.999Z</time></trkpt><trkpt lat="43.23515243751289" lon="13.019201116229182"><ele>384.0</ele><time>2026-05-03T17:06:05.999Z</time></trkpt><trkpt lat="43.23492274556743" lon="13.01944167195122"><ele>388.5</ele><time>2026-05-03T17:06:06.999Z</time></trkpt><trkpt lat="43.23470221388625" lon="13.019677442573776"><ele>393.0</ele><time>2026-05-03T17:06:07.999Z</time></trkpt><trkpt lat="43.23448724755219" lon="13.019910095532104"><ele>390.5</ele><time>2026-05-03T17:06:08.999Z</time></trkpt><trkpt lat="43.23427267592406" lon="13.020152542360963"><ele>388.0</ele><time>2026-05-03T17:06:09.999Z</time></trkpt><trkpt lat="43.2340671150473" lon="13.020398789524164"><ele>389.5</ele><time>2026-05-03T17:06:10.999Z</time></trkpt><trkpt lat="43.23386697268386" lon="13.020650549232103"><ele>391.0</ele><time>2026-05-03T17:06:11.999Z</time></trkpt><trkpt lat="43.23366915011482" lon="13.020911094480978"><ele>391.0</ele><time>2026-05-03T17:06:12.999Z</time></trkpt><trkpt lat="43.23347919682725" lon="13.021176126489223"><ele>391.0</ele><time>2026-05-03T17:06:13.999Z</time></trkpt><trkpt lat="43.23329611289883" lon="13.02144582354075"><ele>388.5</ele><time>2026-05-03T17:06:14.999Z</time></trkpt><trkpt lat="43.23312716470417" lon="13.02171394315449"><ele>386.0</ele><time>2026-05-03T17:06:15.999Z</time></trkpt><trkpt lat="43.232964077205565" lon="13.021978343696071"><ele>386.0</ele><time>2026-05-03T17:06:16.999Z</time></trkpt><trkpt lat="43.23280056482151" lon="13.02224387345556"><ele>386.0</ele><time>2026-05-03T17:06:17.999Z</time></trkpt><trkpt lat="43.232638726920825" lon="13.022502637417196"><ele>383.5</ele><time>2026-05-03T17:06:18.999Z</time></trkpt><trkpt lat="43.23247676750378" lon="13.022762102999742"><ele>381.0</ele><time>2026-05-03T17:06:19.999Z</time></trkpt><trkpt lat="43.23231178551835" lon="13.023030956386744"><ele>375.5</ele><time>2026-05-03T17:06:21Z</time></trkpt><trkpt lat="43.23214301857142" lon="13.023302831792124"><ele>370.0</ele><time>2026-05-03T17:06:22Z</time></trkpt><trkpt lat="43.231975109188184" lon="13.023570118785583"><ele>370.0</ele><time>2026-05-03T17:06:23Z</time></trkpt><trkpt lat="43.2318103249512" lon="13.02383818866408"><ele>370.0</ele><time>2026-05-03T17:06:24Z</time></trkpt><trkpt lat="43.23164616637155" lon="13.024109576643665"><ele>370.0</ele><time>2026-05-03T17:06:25Z</time></trkpt><trkpt lat="43.231484371897515" lon="13.02438236368642"><ele>370.0</ele><time>2026-05-03T17:06:26Z</time></trkpt><trkpt lat="43.23132193900298" lon="13.02465052492547"><ele>370.0</ele><time>2026-05-03T17:06:27Z</time></trkpt><trkpt lat="43.23115775354994" lon="13.024916847281451"><ele>370.0</ele><time>2026-05-03T17:06:28Z</time></trkpt><trkpt lat="43.230997092848504" lon="13.025178411930552"><ele>372.0</ele><time>2026-05-03T17:06:29Z</time></trkpt><trkpt lat="43.23083421479025" lon="13.025442653404424"><ele>374.0</ele><time>2026-05-03T17:06:30Z</time></trkpt><trkpt lat="43.23067559755038" lon="13.025704423032014"><ele>369.5</ele><time>2026-05-03T17:06:31Z</time></trkpt><trkpt lat="43.2305167575316" lon="13.025973192392241"><ele>365.0</ele><time>2026-05-03T17:06:32Z</time></trkpt><trkpt lat="43.23036259868311" lon="13.026250782140774"><ele>365.0</ele><time>2026-05-03T17:06:33Z</time></trkpt><trkpt lat="43.23021038690582" lon="13.0265412394113"><ele>365.0</ele><time>2026-05-03T17:06:34Z</time></trkpt><trkpt lat="43.23006031348907" lon="13.026846423004452"><ele>362.5</ele><time>2026-05-03T17:06:35Z</time></trkpt><trkpt lat="43.229919395795356" lon="13.027156019801106"><ele>360.0</ele><time>2026-05-03T17:06:36Z</time></trkpt><trkpt lat="43.22978299068327" lon="13.027459612654459"><ele>355.5</ele><time>2026-05-03T17:06:37Z</time></trkpt><trkpt lat="43.22965113518915" lon="13.027772585214315"><ele>351.0</ele><time>2026-05-03T17:06:38Z</time></trkpt><trkpt lat="43.229521785497596" lon="13.028078511369763"><ele>348.5</ele><time>2026-05-03T17:06:39Z</time></trkpt><trkpt lat="43.229396409336545" lon="13.028384860982198"><ele>346.0</ele><time>2026-05-03T17:06:40Z</time></trkpt><trkpt lat="43.22927134124863" lon="13.02869500035964"><ele>346.0</ele><time>2026-05-03T17:06:41Z</time></trkpt><trkpt lat="43.22915245344413" lon="13.029003708062735"><ele>346.0</ele><time>2026-05-03T17:06:42Z</time></trkpt><trkpt lat="43.22903581147566" lon="13.029322208978543"><ele>345.5</ele><time>2026-05-03T17:06:43Z</time></trkpt><trkpt lat="43.22891845710818" lon="13.029631592455214"><ele>345.0</ele><time>2026-05-03T17:06:44Z</time></trkpt><trkpt lat="43.22880266625333" lon="13.029941973442162"><ele>343.5</ele><time>2026-05-03T17:06:45Z</time></trkpt><trkpt lat="43.228689222904976" lon="13.030244936828442"><ele>342.0</ele><time>2026-05-03T17:06:46Z</time></trkpt><trkpt lat="43.22858051776926" lon="13.030543485940997"><ele>343.0</ele><time>2026-05-03T17:06:47Z</time></trkpt><trkpt lat="43.22847440356711" lon="13.030836931626927"><ele>344.0</ele><time>2026-05-03T17:06:48Z</time></trkpt><trkpt lat="43.22836950836186" lon="13.031120213975449"><ele>344.0</ele><time>2026-05-03T17:06:49Z</time></trkpt><trkpt lat="43.2282691856047" lon="13.031391819678973"><ele>344.0</ele><time>2026-05-03T17:06:50Z</time></trkpt><trkpt lat="43.228168802426715" lon="13.03166179373726"><ele>344.0</ele><time>2026-05-03T17:06:51Z</time></trkpt><trkpt lat="43.22807043759988" lon="13.031924176217117"><ele>344.6666666666667</ele><time>2026-05-03T17:06:52Z</time></trkpt><trkpt lat="43.22797273913504" lon="13.032167456702116"><ele>345.3333333333333</ele><time>2026-05-03T17:06:53Z</time></trkpt><trkpt lat="43.22788086967157" lon="13.032414522563565"><ele>346.0</ele><time>2026-05-03T17:06:54Z</time></trkpt><trkpt lat="43.227789080693256" lon="13.032655838081201"><ele>344.3333333333333</ele><time>2026-05-03T17:06:55Z</time></trkpt><trkpt lat="43.227704289693925" lon="13.032868903562527"><ele>342.6666666666667</ele><time>2026-05-03T17:06:56Z</time></trkpt><trkpt lat="43.22762390558868" lon="13.033075670361542"><ele>341.0</ele><time>2026-05-03T17:06:57Z</time></trkpt><trkpt lat="43.227547306464494" lon="13.033276265123286"><ele>339.33333333333337</ele><time>2026-05-03T17:06:58Z</time></trkpt><trkpt lat="43.22747281047263" lon="13.03347205657771"><ele>337.6666666666667</ele><time>2026-05-03T17:06:59Z</time></trkpt><trkpt lat="43.2273950597652" lon="13.033660787250868"><ele>336.0</ele><time>2026-05-03T17:07:00Z</time></trkpt><trkpt lat="43.22731778865677" lon="13.033854317844956"><ele>335.3333333333333</ele><time>2026-05-03T17:07:01Z</time></trkpt><trkpt lat="43.2272600660114" lon="13.034050543217257"><ele>334.66666666666663</ele><time>2026-05-03T17:07:02Z</time></trkpt><trkpt lat="43.22715642671269" lon="13.034214571857397"><ele>334.0</ele><time>2026-05-03T17:07:03Z</time></trkpt><trkpt lat="43.22706342372462" lon="13.034378070849009"><ele>333.75</ele><time>2026-05-03T17:07:04Z</time></trkpt><trkpt lat="43.22696063394053" lon="13.034521594722765"><ele>333.5</ele><time>2026-05-03T17:07:05Z</time></trkpt><trkpt lat="43.22684909391113" lon="13.034654795771829"><ele>333.25</ele><time>2026-05-03T17:07:06Z</time></trkpt><trkpt lat="43.22672744955934" lon="13.034767844883097"><ele>333.0</ele><time>2026-05-03T17:07:07Z</time></trkpt><trkpt lat="43.2266031467553" lon="13.034864068224485"><ele>335.5</ele><time>2026-05-03T17:07:08Z</time></trkpt><trkpt lat="43.22646779874394" lon="13.034947339954535"><ele>338.0</ele><time>2026-05-03T17:07:09Z</time></trkpt><trkpt lat="43.226331053657304" lon="13.03501032593243"><ele>340.5</ele><time>2026-05-03T17:07:10Z</time></trkpt><trkpt lat="43.22619029386964" lon="13.035062251045739"><ele>343.0</ele><time>2026-05-03T17:07:10.999Z</time></trkpt><trkpt lat="43.22605231014513" lon="13.035109013488626"><ele>343.0</ele><time>2026-05-03T17:07:11.999Z</time></trkpt><trkpt lat="43.2259237597468" lon="13.035162428235381"><ele>343.0</ele><time>2026-05-03T17:07:12.999Z</time></trkpt><trkpt lat="43.225809114217114" lon="13.035232211583912"><ele>343.0</ele><time>2026-05-03T17:07:13.999Z</time></trkpt><trkpt lat="43.22570995264592" lon="13.035322610780309"><ele>343.0</ele><time>2026-05-03T17:07:14.999Z</time></trkpt><trkpt lat="43.22563910839063" lon="13.035439577340233"><ele>343.0</ele><time>2026-05-03T17:07:15.999Z</time></trkpt><trkpt lat="43.2255965658681" lon="13.035575190435345"><ele>343.0</ele><time>2026-05-03T17:07:16.999Z</time></trkpt><trkpt lat="43.225577390744235" lon="13.035725034615488"><ele>343.0</ele><time>2026-05-03T17:07:17.999Z</time></trkpt><trkpt lat="43.22558283223349" lon="13.035872169340655"><ele>343.0</ele><time>2026-05-03T17:07:18.999Z</time></trkpt><trkpt lat="43.225617072560375" lon="13.036009995049765"><ele>343.0</ele><time>2026-05-03T17:07:19.999Z</time></trkpt><trkpt lat="43.225675143726065" lon="13.036128133979135"><ele>340.79999999999995</ele><time>2026-05-03T17:07:20.999Z</time></trkpt><trkpt lat="43.22574997769721" lon="13.03622688409345"><ele>338.6</ele><time>2026-05-03T17:07:21.999Z</time></trkpt><trkpt lat="43.22583805083008" lon="13.036310585015336"><ele>336.4</ele><time>2026-05-03T17:07:22.999Z</time></trkpt><trkpt lat="43.22593265349557" lon="13.03638894030625"><ele>334.20000000000005</ele><time>2026-05-03T17:07:23.999Z</time></trkpt><trkpt lat="43.226031998664055" lon="13.036465261070276"><ele>332.0</ele><time>2026-05-03T17:07:24.999Z</time></trkpt><trkpt lat="43.22613773863771" lon="13.03655169493228"><ele>331.5</ele><time>2026-05-03T17:07:25.999Z</time></trkpt><trkpt lat="43.22624218895567" lon="13.036644150203248"><ele>331.0</ele><time>2026-05-03T17:07:26.999Z</time></trkpt><trkpt lat="43.22634733308764" lon="13.036738533732942"><ele>330.5</ele><time>2026-05-03T17:07:27.999Z</time></trkpt><trkpt lat="43.22645602282044" lon="13.036838443705836"><ele>330.0</ele><time>2026-05-03T17:07:28.999Z</time></trkpt><trkpt lat="43.226559548325426" lon="13.03693094809675"><ele>330.0</ele><time>2026-05-03T17:07:29.999Z</time></trkpt><trkpt lat="43.22666370921287" lon="13.037018986747904"><ele>330.0</ele><time>2026-05-03T17:07:30.999Z</time></trkpt><trkpt lat="43.22676550215171" lon="13.037105736579104"><ele>330.0</ele><time>2026-05-03T17:07:31.999Z</time></trkpt><trkpt lat="43.22686453418171" lon="13.037187258908313"><ele>330.0</ele><time>2026-05-03T17:07:32.999Z</time></trkpt><trkpt lat="43.22695272251589" lon="13.037271702980878"><ele>330.0</ele><time>2026-05-03T17:07:33.999Z</time></trkpt><trkpt lat="43.22701113777008" lon="13.037356029371223"><ele>330.0</ele><time>2026-05-03T17:07:34.999Z</time></trkpt><trkpt lat="43.22706770443867" lon="13.037409819004017"><ele>330.0</ele><time>2026-05-03T17:07:35.999Z</time></trkpt><trkpt lat="43.22706279897427" lon="13.03756221694572"><ele>330.0</ele><time>2026-05-03T17:07:36.999Z</time></trkpt><trkpt lat="43.227066324565335" lon="13.0376766864321"><ele>330.0</ele><time>2026-05-03T17:07:37.999Z</time></trkpt><trkpt lat="43.22706178879075" lon="13.037783666406748"><ele>330.0</ele><time>2026-05-03T17:07:38.999Z</time></trkpt><trkpt lat="43.22708710487629" lon="13.037865801211217"><ele>330.25</ele><time>2026-05-03T17:07:39.999Z</time></trkpt><trkpt lat="43.226986380283044" lon="13.037977359753102"><ele>330.5</ele><time>2026-05-03T17:07:40.999Z</time></trkpt><trkpt lat="43.22689821198139" lon="13.03803252490093"><ele>330.75</ele><time>2026-05-03T17:07:41.999Z</time></trkpt><trkpt lat="43.22680806468507" lon="13.038125297342898"><ele>331.0</ele><time>2026-05-03T17:07:42.999Z</time></trkpt><trkpt lat="43.22669760245299" lon="13.038197607280473"><ele>331.0</ele><time>2026-05-03T17:07:43.999Z</time></trkpt><trkpt lat="43.22658615007318" lon="13.038261951339324"><ele>331.0</ele><time>2026-05-03T17:07:44.999Z</time></trkpt><trkpt lat="43.22646595949169" lon="13.038318166510061"><ele>331.0</ele><time>2026-05-03T17:07:45.999Z</time></trkpt><trkpt lat="43.226334340424486" lon="13.038368341270596"><ele>331.0</ele><time>2026-05-03T17:07:46.999Z</time></trkpt><trkpt lat="43.22618564453166" lon="13.038409419988056"><ele>330.66666666666663</ele><time>2026-05-03T17:07:47.999Z</time></trkpt><trkpt lat="43.22602047199134" lon="13.038443023901149"><ele>330.3333333333333</ele><time>2026-05-03T17:07:48.999Z</time></trkpt><trkpt lat="43.225862056765706" lon="13.038477210873813"><ele>330.0</ele><time>2026-05-03T17:07:49.999Z</time></trkpt><trkpt lat="43.225702126001" lon="13.03851844190222"><ele>329.3333333333333</ele><time>2026-05-03T17:07:50.999Z</time></trkpt><trkpt lat="43.225542207048356" lon="13.038561586001478"><ele>328.66666666666663</ele><time>2026-05-03T17:07:51.999Z</time></trkpt><trkpt lat="43.22538345880685" lon="13.038604511687497"><ele>328.0</ele><time>2026-05-03T17:07:52.999Z</time></trkpt><trkpt lat="43.225216597567965" lon="13.038655140517093"><ele>328.0</ele><time>2026-05-03T17:07:53.999Z</time></trkpt><trkpt lat="43.22505922963684" lon="13.03872372396249"><ele>328.0</ele><time>2026-05-03T17:07:54.999Z</time></trkpt><trkpt lat="43.22489712378538" lon="13.03879153481387"><ele>328.0</ele><time>2026-05-03T17:07:55.999Z</time></trkpt><trkpt lat="43.224740151058086" lon="13.038877237493342"><ele>328.3333333333333</ele><time>2026-05-03T17:07:56.999Z</time></trkpt><trkpt lat="43.22458772229111" lon="13.038985204740621"><ele>328.6666666666667</ele><time>2026-05-03T17:07:57.999Z</time></trkpt><trkpt lat="43.22443883649558" lon="13.039106687805614"><ele>329.0</ele><time>2026-05-03T17:07:58.999Z</time></trkpt><trkpt lat="43.2243024209963" lon="13.039245233974892"><ele>329.0</ele><time>2026-05-03T17:07:59.999Z</time></trkpt><trkpt lat="43.22417776952981" lon="13.039415629963436"><ele>329.0</ele><time>2026-05-03T17:08:00.999Z</time></trkpt><trkpt lat="43.224047936517195" lon="13.039572878682431"><ele>329.0</ele><time>2026-05-03T17:08:01.999Z</time></trkpt><trkpt lat="43.2239204424883" lon="13.039746764098714"><ele>328.6666666666667</ele><time>2026-05-03T17:08:02.999Z</time></trkpt><trkpt lat="43.22379392954231" lon="13.039916506094693"><ele>328.3333333333333</ele><time>2026-05-03T17:08:03.999Z</time></trkpt><trkpt lat="43.22366444092752" lon="13.040091200487833"><ele>328.0</ele><time>2026-05-03T17:08:04.999Z</time></trkpt><trkpt lat="43.22352546075674" lon="13.040272807717052"><ele>328.0</ele><time>2026-05-03T17:08:05.999Z</time></trkpt><trkpt lat="43.22339238443786" lon="13.040452967831746"><ele>328.0</ele><time>2026-05-03T17:08:06.999Z</time></trkpt><trkpt lat="43.22324236936987" lon="13.040621251477685"><ele>328.0</ele><time>2026-05-03T17:08:07.999Z</time></trkpt><trkpt lat="43.223102169929064" lon="13.04080582741734"><ele>327.3333333333333</ele><time>2026-05-03T17:08:08.999Z</time></trkpt><trkpt lat="43.22295962079674" lon="13.040993266008226"><ele>326.6666666666667</ele><time>2026-05-03T17:08:09.999Z</time></trkpt><trkpt lat="43.22281785234102" lon="13.041179678110616"><ele>326.0</ele><time>2026-05-03T17:08:10.999Z</time></trkpt><trkpt lat="43.222674449068414" lon="13.041371659769913"><ele>326.0</ele><time>2026-05-03T17:08:11.999Z</time></trkpt><trkpt lat="43.22253563423154" lon="13.041557607051704"><ele>326.0</ele><time>2026-05-03T17:08:12.999Z</time></trkpt><trkpt lat="43.22240528254955" lon="13.041762511155708"><ele>326.0</ele><time>2026-05-03T17:08:13.999Z</time></trkpt><trkpt lat="43.222252564731434" lon="13.04193308133657"><ele>325.6666666666667</ele><time>2026-05-03T17:08:14.999Z</time></trkpt><trkpt lat="43.22211094175625" lon="13.042119904404469"><ele>325.3333333333333</ele><time>2026-05-03T17:08:15.999Z</time></trkpt><trkpt lat="43.22197217843694" lon="13.04230237875497"><ele>325.0</ele><time>2026-05-03T17:08:16.999Z</time></trkpt><trkpt lat="43.22185375873669" lon="13.042483857247582"><ele>325.0</ele><time>2026-05-03T17:08:17.999Z</time></trkpt><trkpt lat="43.221737148852306" lon="13.04264707290457"><ele>325.0</ele><time>2026-05-03T17:08:18.999Z</time></trkpt><trkpt lat="43.22161736639123" lon="13.042775984750584"><ele>325.0</ele><time>2026-05-03T17:08:19.999Z</time></trkpt><trkpt lat="43.221516736226526" lon="13.04290448418244"><ele>323.75</ele><time>2026-05-03T17:08:20.999Z</time></trkpt><trkpt lat="43.22142396352852" lon="13.043033951079487"><ele>322.5</ele><time>2026-05-03T17:08:21.998Z</time></trkpt><trkpt lat="43.2213117383904" lon="13.043117147984132"><ele>321.25</ele><time>2026-05-03T17:08:22.998Z</time></trkpt><trkpt lat="43.22117889627585" lon="13.043188267000374"><ele>320.0</ele><time>2026-05-03T17:08:23.998Z</time></trkpt><trkpt lat="43.22104844848043" lon="13.043272546218503"><ele>319.5</ele><time>2026-05-03T17:08:24.998Z</time></trkpt><trkpt lat="43.22092241144855" lon="13.043343959401126"><ele>319.0</ele><time>2026-05-03T17:08:25.998Z</time></trkpt><trkpt lat="43.2208005456299" lon="13.04341029842461"><ele>318.5</ele><time>2026-05-03T17:08:27Z</time></trkpt><trkpt lat="43.2206813146654" lon="13.043481161285742"><ele>318.0</ele><time>2026-05-03T17:08:28Z</time></trkpt><trkpt lat="43.22056668818544" lon="13.043555937391789"><ele>318.0</ele><time>2026-05-03T17:08:29Z</time></trkpt><trkpt lat="43.220457988063764" lon="13.04364514842176"><ele>318.0</ele><time>2026-05-03T17:08:30Z</time></trkpt><trkpt lat="43.22035338148687" lon="13.043751151651536"><ele>318.0</ele><time>2026-05-03T17:08:31Z</time></trkpt><trkpt lat="43.220256429845534" lon="13.043874494826714"><ele>318.0</ele><time>2026-05-03T17:08:32Z</time></trkpt><trkpt lat="43.22016875877388" lon="13.04401024087441"><ele>317.75</ele><time>2026-05-03T17:08:33Z</time></trkpt><trkpt lat="43.22008339781251" lon="13.044156360686257"><ele>317.5</ele><time>2026-05-03T17:08:34Z</time></trkpt><trkpt lat="43.21997972224026" lon="13.044285275626015"><ele>317.25</ele><time>2026-05-03T17:08:35Z</time></trkpt><trkpt lat="43.219880910668124" lon="13.044430469979282"><ele>317.0</ele><time>2026-05-03T17:08:36Z</time></trkpt><trkpt lat="43.21977318187522" lon="13.044571469255974"><ele>317.0</ele><time>2026-05-03T17:08:37Z</time></trkpt><trkpt lat="43.21965765627191" lon="13.044703499696825"><ele>317.0</ele><time>2026-05-03T17:08:38Z</time></trkpt><trkpt lat="43.219533133380786" lon="13.044834786890737"><ele>317.0</ele><time>2026-05-03T17:08:39Z</time></trkpt><trkpt lat="43.21940339479111" lon="13.044964498775151"><ele>317.6666666666667</ele><time>2026-05-03T17:08:40Z</time></trkpt><trkpt lat="43.21926632452117" lon="13.045095247152615"><ele>318.3333333333333</ele><time>2026-05-03T17:08:41Z</time></trkpt><trkpt lat="43.2191390322478" lon="13.045238612581537"><ele>319.0</ele><time>2026-05-03T17:08:42Z</time></trkpt><trkpt lat="43.218998268564135" lon="13.045371651557618"><ele>318.3333333333333</ele><time>2026-05-03T17:08:43Z</time></trkpt><trkpt lat="43.21884940525043" lon="13.045481571893161"><ele>317.6666666666667</ele><time>2026-05-03T17:08:44Z</time></trkpt><trkpt lat="43.21870631182025" lon="13.045613229163328"><ele>317.0</ele><time>2026-05-03T17:08:45Z</time></trkpt><trkpt lat="43.2185611056445" lon="13.045749780614761"><ele>317.0</ele><time>2026-05-03T17:08:46Z</time></trkpt><trkpt lat="43.21842555517724" lon="13.045904753418643"><ele>317.0</ele><time>2026-05-03T17:08:47Z</time></trkpt><trkpt lat="43.21828154517899" lon="13.04603293006094"><ele>317.0</ele><time>2026-05-03T17:08:48Z</time></trkpt><trkpt lat="43.21813219770031" lon="13.046157299478445"><ele>316.0</ele><time>2026-05-03T17:08:49Z</time></trkpt><trkpt lat="43.21797002160347" lon="13.046229301309923"><ele>315.0</ele><time>2026-05-03T17:08:50Z</time></trkpt><trkpt lat="43.2178065286336" lon="13.046294455394051"><ele>314.0</ele><time>2026-05-03T17:08:51Z</time></trkpt><trkpt lat="43.21763389263531" lon="13.04633642291944"><ele>314.0</ele><time>2026-05-03T17:08:52Z</time></trkpt><trkpt lat="43.21745541657957" lon="13.046370297296397"><ele>314.0</ele><time>2026-05-03T17:08:53Z</time></trkpt><trkpt lat="43.21727693022438" lon="13.046422583026489"><ele>314.0</ele><time>2026-05-03T17:08:54Z</time></trkpt><trkpt lat="43.21708477785288" lon="13.046431367859917"><ele>314.6666666666667</ele><time>2026-05-03T17:08:55Z</time></trkpt><trkpt lat="43.21689876745609" lon="13.046483668080658"><ele>315.3333333333333</ele><time>2026-05-03T17:08:56Z</time></trkpt><trkpt lat="43.21670311031947" lon="13.046496101539228"><ele>316.0</ele><time>2026-05-03T17:08:57Z</time></trkpt><trkpt lat="43.21651054780883" lon="13.046528676923026"><ele>317.66666666666663</ele><time>2026-05-03T17:08:58Z</time></trkpt><trkpt lat="43.21631435624273" lon="13.046559689163322"><ele>319.3333333333333</ele><time>2026-05-03T17:08:59Z</time></trkpt><trkpt lat="43.2161222882186" lon="13.046585637158596"><ele>321.0</ele><time>2026-05-03T17:09:00Z</time></trkpt><trkpt lat="43.21592571145402" lon="13.046602427192202"><ele>321.0</ele><time>2026-05-03T17:09:01Z</time></trkpt><trkpt lat="43.215731792890196" lon="13.04660880343831"><ele>321.0</ele><time>2026-05-03T17:09:02Z</time></trkpt><trkpt lat="43.21553757191649" lon="13.046643306035914"><ele>321.0</ele><time>2026-05-03T17:09:03Z</time></trkpt><trkpt lat="43.21534370073248" lon="13.046655961206568"><ele>318.0</ele><time>2026-05-03T17:09:04Z</time></trkpt><trkpt lat="43.215147707478565" lon="13.046675088226621"><ele>315.0</ele><time>2026-05-03T17:09:05Z</time></trkpt><trkpt lat="43.21494789742524" lon="13.046701824007233"><ele>312.0</ele><time>2026-05-03T17:09:06Z</time></trkpt><trkpt lat="43.21474630650994" lon="13.046726926902963"><ele>311.6666666666667</ele><time>2026-05-03T17:09:07Z</time></trkpt><trkpt lat="43.21453963537165" lon="13.046751247702709"><ele>311.33333333333337</ele><time>2026-05-03T17:09:08Z</time></trkpt><trkpt lat="43.214336302214036" lon="13.046772420805507"><ele>311.0</ele><time>2026-05-03T17:09:09Z</time></trkpt><trkpt lat="43.21413110868946" lon="13.046795453498085"><ele>310.33333333333337</ele><time>2026-05-03T17:09:10Z</time></trkpt><trkpt lat="43.213933576090106" lon="13.046815347609272"><ele>309.6666666666667</ele><time>2026-05-03T17:09:11Z</time></trkpt><trkpt lat="43.2137439838029" lon="13.046830853923161"><ele>309.0</ele><time>2026-05-03T17:09:12Z</time></trkpt><trkpt lat="43.21355510805494" lon="13.046848838181488"><ele>309.0</ele><time>2026-05-03T17:09:13Z</time></trkpt><trkpt lat="43.21337065831653" lon="13.046878201114106"><ele>309.0</ele><time>2026-05-03T17:09:14Z</time></trkpt><trkpt lat="43.21318379601939" lon="13.046903120927672"><ele>309.0</ele><time>2026-05-03T17:09:15Z</time></trkpt><trkpt lat="43.21300463438071" lon="13.046991273958833"><ele>310.0</ele><time>2026-05-03T17:09:16Z</time></trkpt><trkpt lat="43.212823669477565" lon="13.047080043497829"><ele>311.0</ele><time>2026-05-03T17:09:17Z</time></trkpt><trkpt lat="43.21264386902881" lon="13.047190161759634"><ele>312.0</ele><time>2026-05-03T17:09:18Z</time></trkpt><trkpt lat="43.212464499670745" lon="13.047304352693502"><ele>311.6666666666667</ele><time>2026-05-03T17:09:19Z</time></trkpt><trkpt lat="43.212278682069574" lon="13.04739245779142"><ele>311.33333333333337</ele><time>2026-05-03T17:09:19.999Z</time></trkpt><trkpt lat="43.212102459807234" lon="13.047517429894192"><ele>311.0</ele><time>2026-05-03T17:09:20.999Z</time></trkpt><trkpt lat="43.21191783391909" lon="13.047617905818871"><ele>311.0</ele><time>2026-05-03T17:09:21.999Z</time></trkpt><trkpt lat="43.21173507155541" lon="13.047723125311514"><ele>311.0</ele><time>2026-05-03T17:09:22.999Z</time></trkpt><trkpt lat="43.211551275258316" lon="13.047832324038113"><ele>311.0</ele><time>2026-05-03T17:09:23.999Z</time></trkpt><trkpt lat="43.211369448508464" lon="13.047935656600199"><ele>313.0</ele><time>2026-05-03T17:09:24.999Z</time></trkpt><trkpt lat="43.211186419022056" lon="13.048031802249785"><ele>315.0</ele><time>2026-05-03T17:09:25.999Z</time></trkpt><trkpt lat="43.21099356845861" lon="13.048094026320378"><ele>317.0</ele><time>2026-05-03T17:09:26.999Z</time></trkpt><trkpt lat="43.21080104296406" lon="13.04814895457522"><ele>318.33333333333337</ele><time>2026-05-03T17:09:27.999Z</time></trkpt><trkpt lat="43.21061395739391" lon="13.048185871919243"><ele>319.6666666666667</ele><time>2026-05-03T17:09:28.999Z</time></trkpt><trkpt lat="43.21042746691119" lon="13.04820378558704"><ele>321.0</ele><time>2026-05-03T17:09:29.999Z</time></trkpt><trkpt lat="43.21025551113484" lon="13.048237548192509"><ele>321.0</ele><time>2026-05-03T17:09:30.999Z</time></trkpt><trkpt lat="43.2100953686277" lon="13.048244175794427"><ele>321.0</ele><time>2026-05-03T17:09:31.999Z</time></trkpt><trkpt lat="43.209952062054995" lon="13.048272792004841"><ele>321.0</ele><time>2026-05-03T17:09:32.999Z</time></trkpt><trkpt lat="43.209825264622424" lon="13.04833389707643"><ele>321.0</ele><time>2026-05-03T17:09:33.999Z</time></trkpt><trkpt lat="43.209718864030215" lon="13.048427236409717"><ele>319.5</ele><time>2026-05-03T17:09:34.999Z</time></trkpt><trkpt lat="43.209629114723874" lon="13.04854941080738"><ele>318.0</ele><time>2026-05-03T17:09:35.999Z</time></trkpt><trkpt lat="43.20953224973957" lon="13.048675653772989"><ele>316.5</ele><time>2026-05-03T17:09:36.999Z</time></trkpt><trkpt lat="43.20947860859183" lon="13.04884861954358"><ele>315.0</ele><time>2026-05-03T17:09:37.999Z</time></trkpt><trkpt lat="43.20939808682519" lon="13.04900165707546"><ele>314.25</ele><time>2026-05-03T17:09:38.999Z</time></trkpt><trkpt lat="43.20932961299345" lon="13.049168766514256"><ele>313.5</ele><time>2026-05-03T17:09:39.999Z</time></trkpt><trkpt lat="43.2092594722186" lon="13.049340922978441"><ele>312.75</ele><time>2026-05-03T17:09:40.999Z</time></trkpt><trkpt lat="43.20918820397537" lon="13.049516949056374"><ele>312.0</ele><time>2026-05-03T17:09:41.999Z</time></trkpt><trkpt lat="43.209117121192634" lon="13.049690843438734"><ele>312.0</ele><time>2026-05-03T17:09:42.999Z</time></trkpt><trkpt lat="43.209049514728285" lon="13.049854827706282"><ele>312.0</ele><time>2026-05-03T17:09:43.999Z</time></trkpt><trkpt lat="43.20898341033799" lon="13.050015307139327"><ele>312.0</ele><time>2026-05-03T17:09:44.999Z</time></trkpt><trkpt lat="43.20891912255647" lon="13.05017273849869"><ele>312.0</ele><time>2026-05-03T17:09:45.999Z</time></trkpt><trkpt lat="43.2088560937993" lon="13.050327798976266"><ele>311.8</ele><time>2026-05-03T17:09:46.999Z</time></trkpt><trkpt lat="43.20879480726871" lon="13.050478858307383"><ele>311.6</ele><time>2026-05-03T17:09:47.999Z</time></trkpt><trkpt lat="43.208739586192294" lon="13.050614967449624"><ele>311.40000000000003</ele><time>2026-05-03T17:09:48.999Z</time></trkpt><trkpt lat="43.20869058664694" lon="13.050736040843514"><ele>311.2</ele><time>2026-05-03T17:09:49.999Z</time></trkpt><trkpt lat="43.208651727276276" lon="13.050837094967427"><ele>311.0</ele><time>2026-05-03T17:09:50.999Z</time></trkpt><trkpt lat="43.20862565670668" lon="13.050917038592972"><ele>311.0</ele><time>2026-05-03T17:09:51.999Z</time></trkpt><trkpt lat="43.20856578900585" lon="13.050967602672944"><ele>311.0</ele><time>2026-05-03T17:09:52.999Z</time></trkpt><trkpt lat="43.20850202517491" lon="13.051010345935657"><ele>311.0</ele><time>2026-05-03T17:09:53.999Z</time></trkpt><trkpt lat="43.20845312084014" lon="13.051077758446239"><ele>311.0</ele><time>2026-05-03T17:09:54.999Z</time></trkpt><trkpt lat="43.20840561624424" lon="13.0511572839328"><ele>311.0</ele><time>2026-05-03T17:09:55.999Z</time></trkpt><trkpt lat="43.20842713602302" lon="13.051283480164331"><ele>311.0</ele><time>2026-05-03T17:09:56.999Z</time></trkpt><trkpt lat="43.20843285098031" lon="13.051395747754388"><ele>311.0</ele><time>2026-05-03T17:09:57.999Z</time></trkpt><trkpt lat="43.20840709128283" lon="13.051505926947277"><ele>311.0</ele><time>2026-05-03T17:09:58.999Z</time></trkpt><trkpt lat="43.20835733830786" lon="13.051625376774801"><ele>311.0</ele><time>2026-05-03T17:09:59.999Z</time></trkpt><trkpt lat="43.208302821264155" lon="13.051744506215025"><ele>311.0</ele><time>2026-05-03T17:10:00.999Z</time></trkpt><trkpt lat="43.20825033087226" lon="13.051870961113242"><ele>311.0</ele><time>2026-05-03T17:10:01.999Z</time></trkpt><trkpt lat="43.20817864574072" lon="13.051994026388735"><ele>311.75</ele><time>2026-05-03T17:10:02.999Z</time></trkpt><trkpt lat="43.2081213850056" lon="13.052134188940558"><ele>312.5</ele><time>2026-05-03T17:10:03.999Z</time></trkpt><trkpt lat="43.20806049979809" lon="13.05228413419516"><ele>313.25</ele><time>2026-05-03T17:10:04.999Z</time></trkpt><trkpt lat="43.20799982289358" lon="13.052435697111195"><ele>314.0</ele><time>2026-05-03T17:10:05.999Z</time></trkpt><trkpt lat="43.207938544917035" lon="13.052587390771887"><ele>314.0</ele><time>2026-05-03T17:10:06.999Z</time></trkpt><trkpt lat="43.20787657198488" lon="13.052741074784038"><ele>314.0</ele><time>2026-05-03T17:10:07.999Z</time></trkpt><trkpt lat="43.20781278338902" lon="13.052895050903796"><ele>314.0</ele><time>2026-05-03T17:10:08.999Z</time></trkpt><trkpt lat="43.20775937238566" lon="13.053068323528874"><ele>314.0</ele><time>2026-05-03T17:10:09.999Z</time></trkpt><trkpt lat="43.207678277823995" lon="13.053221572513344"><ele>314.0</ele><time>2026-05-03T17:10:10.999Z</time></trkpt><trkpt lat="43.207606657031114" lon="13.053387186834419"><ele>314.0</ele><time>2026-05-03T17:10:11.999Z</time></trkpt><trkpt lat="43.207527808048" lon="13.05355180308702"><ele>314.0</ele><time>2026-05-03T17:10:12.999Z</time></trkpt><trkpt lat="43.207439735036026" lon="13.053704359824245"><ele>314.0</ele><time>2026-05-03T17:10:13.999Z</time></trkpt><trkpt lat="43.20733978502929" lon="13.053852121824205"><ele>314.5</ele><time>2026-05-03T17:10:14.999Z</time></trkpt><trkpt lat="43.2072274986277" lon="13.053982147447778"><ele>315.0</ele><time>2026-05-03T17:10:15.999Z</time></trkpt><trkpt lat="43.20710624969274" lon="13.05408988031798"><ele>315.5</ele><time>2026-05-03T17:10:16.999Z</time></trkpt><trkpt lat="43.2069728265704" lon="13.054173383116485"><ele>316.0</ele><time>2026-05-03T17:10:17.999Z</time></trkpt><trkpt lat="43.20683170284197" lon="13.054241645286474"><ele>316.0</ele><time>2026-05-03T17:10:18.999Z</time></trkpt><trkpt lat="43.20668831046749" lon="13.054289825193477"><ele>316.0</ele><time>2026-05-03T17:10:19.999Z</time></trkpt><trkpt lat="43.20653636256561" lon="13.054321792154965"><ele>316.0</ele><time>2026-05-03T17:10:20.999Z</time></trkpt><trkpt lat="43.2063801792931" lon="13.054336209009914"><ele>316.66666666666663</ele><time>2026-05-03T17:10:21.999Z</time></trkpt><trkpt lat="43.20622502427059" lon="13.054339737948956"><ele>317.3333333333333</ele><time>2026-05-03T17:10:22.999Z</time></trkpt><trkpt lat="43.206061406930466" lon="13.05434239319335"><ele>318.0</ele><time>2026-05-03T17:10:23.999Z</time></trkpt><trkpt lat="43.205899226535166" lon="13.054361959911299"><ele>318.0</ele><time>2026-05-03T17:10:24.999Z</time></trkpt><trkpt lat="43.20573869351696" lon="13.054358687395402"><ele>318.0</ele><time>2026-05-03T17:10:25.999Z</time></trkpt><trkpt lat="43.20556746935192" lon="13.054369797689638"><ele>318.0</ele><time>2026-05-03T17:10:26.999Z</time></trkpt><trkpt lat="43.20540753944513" lon="13.054367678301773"><ele>318.6666666666667</ele><time>2026-05-03T17:10:27.999Z</time></trkpt><trkpt lat="43.205243781564256" lon="13.054362844176474"><ele>319.33333333333337</ele><time>2026-05-03T17:10:28.999Z</time></trkpt><trkpt lat="43.20509382342035" lon="13.054360951842552"><ele>320.0</ele><time>2026-05-03T17:10:29.999Z</time></trkpt><trkpt lat="43.204950458811766" lon="13.054361049108616"><ele>319.75</ele><time>2026-05-03T17:10:30.998Z</time></trkpt><trkpt lat="43.20481839089252" lon="13.054357359782435"><ele>319.5</ele><time>2026-05-03T17:10:31.998Z</time></trkpt><trkpt lat="43.20469095915153" lon="13.054363742978868"><ele>319.25</ele><time>2026-05-03T17:10:33Z</time></trkpt><trkpt lat="43.204568728882535" lon="13.05436480842593"><ele>319.0</ele><time>2026-05-03T17:10:34Z</time></trkpt><trkpt lat="43.20444427982776" lon="13.05437334171828"><ele>319.0</ele><time>2026-05-03T17:10:35Z</time></trkpt><trkpt lat="43.20432797316045" lon="13.05435853744373"><ele>319.0</ele><time>2026-05-03T17:10:36Z</time></trkpt><trkpt lat="43.20423074195137" lon="13.05435853744404"><ele>319.0</ele><time>2026-05-03T17:10:37Z</time></trkpt><trkpt lat="43.204156744148065" lon="13.054357196166231"><ele>319.0</ele><time>2026-05-03T17:10:38Z</time></trkpt><trkpt lat="43.20414747180675" lon="13.054630497739463"><ele>319.0</ele><time>2026-05-03T17:10:41Z</time></trkpt><trkpt lat="43.20414603761354" lon="13.054733674026965"><ele>319.0</ele><time>2026-05-03T17:10:42Z</time></trkpt><trkpt lat="43.20419700768577" lon="13.054827311370222"><ele>319.0</ele><time>2026-05-03T17:10:43Z</time></trkpt><trkpt lat="43.20426419452247" lon="13.0549091896602"><ele>319.0</ele><time>2026-05-03T17:10:44Z</time></trkpt><trkpt lat="43.20434055569355" lon="13.054985361067592"><ele>319.0</ele><time>2026-05-03T17:10:45Z</time></trkpt><trkpt lat="43.20442424037472" lon="13.055061483979646"><ele>319.0</ele><time>2026-05-03T17:10:46Z</time></trkpt><trkpt lat="43.204515087169106" lon="13.055136800290594"><ele>317.5</ele><time>2026-05-03T17:10:47Z</time></trkpt><trkpt lat="43.20460823555136" lon="13.055208314848842"><ele>316.0</ele><time>2026-05-03T17:10:48Z</time></trkpt><trkpt lat="43.20470011958496" lon="13.05529359905923"><ele>314.5</ele><time>2026-05-03T17:10:49Z</time></trkpt><trkpt lat="43.204793275628795" lon="13.055384365504212"><ele>313.0</ele><time>2026-05-03T17:10:50Z</time></trkpt><trkpt lat="43.20488724287371" lon="13.055497241597928"><ele>313.0</ele><time>2026-05-03T17:10:51Z</time></trkpt><trkpt lat="43.20497530958557" lon="13.055607133280963"><ele>313.0</ele><time>2026-05-03T17:10:52Z</time></trkpt><trkpt lat="43.20505820232891" lon="13.0557237475827"><ele>313.0</ele><time>2026-05-03T17:10:53Z</time></trkpt><trkpt lat="43.205133164579564" lon="13.055837220790696"><ele>313.0</ele><time>2026-05-03T17:10:54Z</time></trkpt><trkpt lat="43.20520401561284" lon="13.055953023170446"><ele>312.2</ele><time>2026-05-03T17:10:55Z</time></trkpt><trkpt lat="43.20527634166715" lon="13.056066232430364"><ele>311.4</ele><time>2026-05-03T17:10:56Z</time></trkpt><trkpt lat="43.20534725228283" lon="13.056177488086416"><ele>310.59999999999997</ele><time>2026-05-03T17:10:57Z</time></trkpt><trkpt lat="43.205414446221134" lon="13.056288290374951"><ele>309.8</ele><time>2026-05-03T17:10:58Z</time></trkpt><trkpt lat="43.20548502293235" lon="13.056398207866797"><ele>309.0</ele><time>2026-05-03T17:10:59Z</time></trkpt><trkpt lat="43.20555896966144" lon="13.056500518147368"><ele>309.0</ele><time>2026-05-03T17:11:00Z</time></trkpt><trkpt lat="43.2056392929014" lon="13.056603193796406"><ele>309.0</ele><time>2026-05-03T17:11:01Z</time></trkpt><trkpt lat="43.20573296881194" lon="13.056687257229015"><ele>309.0</ele><time>2026-05-03T17:11:02Z</time></trkpt><trkpt lat="43.205839242375106" lon="13.056749777570237"><ele>309.0</ele><time>2026-05-03T17:11:03Z</time></trkpt><trkpt lat="43.205951362248754" lon="13.056801915421424"><ele>309.25</ele><time>2026-05-03T17:11:04Z</time></trkpt><trkpt lat="43.206063695246854" lon="13.056849794493814"><ele>309.5</ele><time>2026-05-03T17:11:05Z</time></trkpt><trkpt lat="43.20617914371517" lon="13.056894258867938"><ele>309.75</ele><time>2026-05-03T17:11:06Z</time></trkpt><trkpt lat="43.20629565823751" lon="13.056939923721322"><ele>310.0</ele><time>2026-05-03T17:11:07Z</time></trkpt><trkpt lat="43.2064100043378" lon="13.056987218929676"><ele>310.5</ele><time>2026-05-03T17:11:08Z</time></trkpt><trkpt lat="43.20652442539383" lon="13.0570416404575"><ele>311.0</ele><time>2026-05-03T17:11:09Z</time></trkpt><trkpt lat="43.20663517543202" lon="13.057094666897523"><ele>311.5</ele><time>2026-05-03T17:11:10Z</time></trkpt><trkpt lat="43.20674438338314" lon="13.057143672074574"><ele>312.0</ele><time>2026-05-03T17:11:11Z</time></trkpt><trkpt lat="43.20685596453608" lon="13.0571921786102"><ele>312.0</ele><time>2026-05-03T17:11:12Z</time></trkpt><trkpt lat="43.206961214123524" lon="13.057239232227742"><ele>312.0</ele><time>2026-05-03T17:11:13Z</time></trkpt><trkpt lat="43.20706427635034" lon="13.057285193401515"><ele>312.0</ele><time>2026-05-03T17:11:14Z</time></trkpt><trkpt lat="43.20715565313787" lon="13.057327650878564"><ele>312.0</ele><time>2026-05-03T17:11:15Z</time></trkpt><trkpt lat="43.207237488869566" lon="13.057366854512026"><ele>312.0</ele><time>2026-05-03T17:11:16Z</time></trkpt><trkpt lat="43.20731199725927" lon="13.057403031280908"><ele>311.6</ele><time>2026-05-03T17:11:17Z</time></trkpt><trkpt lat="43.20737633886096" lon="13.05743857115191"><ele>311.2</ele><time>2026-05-03T17:11:18Z</time></trkpt><trkpt lat="43.20743149811157" lon="13.057492975914894"><ele>310.8</ele><time>2026-05-03T17:11:19Z</time></trkpt><trkpt lat="43.207542881095655" lon="13.057581009252889"><ele>310.4</ele><time>2026-05-03T17:11:21Z</time></trkpt><trkpt lat="43.20766730540818" lon="13.057573375285985"><ele>310.0</ele><time>2026-05-03T17:11:23Z</time></trkpt><trkpt lat="43.20773500613097" lon="13.057587395925857"><ele>310.0</ele><time>2026-05-03T17:11:24Z</time></trkpt><trkpt lat="43.20780642612399" lon="13.057619821940323"><ele>310.0</ele><time>2026-05-03T17:11:24.999Z</time></trkpt><trkpt lat="43.20787944208239" lon="13.057656589235348"><ele>310.0</ele><time>2026-05-03T17:11:25.999Z</time></trkpt><trkpt lat="43.20795660701658" lon="13.057691624586305"><ele>310.0</ele><time>2026-05-03T17:11:26.999Z</time></trkpt><trkpt lat="43.20803553906328" lon="13.05772700564755"><ele>310.0</ele><time>2026-05-03T17:11:27.999Z</time></trkpt><trkpt lat="43.208120572724255" lon="13.05776332847791"><ele>310.0</ele><time>2026-05-03T17:11:28.999Z</time></trkpt><trkpt lat="43.20821420591835" lon="13.057801194180007"><ele>310.0</ele><time>2026-05-03T17:11:29.999Z</time></trkpt><trkpt lat="43.208309963527675" lon="13.057841774699234"><ele>310.0</ele><time>2026-05-03T17:11:30.999Z</time></trkpt><trkpt lat="43.20840508770766" lon="13.057889110965515"><ele>310.0</ele><time>2026-05-03T17:11:31.999Z</time></trkpt><trkpt lat="43.208501113806335" lon="13.057951245229845"><ele>310.0</ele><time>2026-05-03T17:11:32.999Z</time></trkpt><trkpt lat="43.208591876769994" lon="13.05802934642126"><ele>310.0</ele><time>2026-05-03T17:11:33.999Z</time></trkpt><trkpt lat="43.20867624277602" lon="13.058126450551658"><ele>310.0</ele><time>2026-05-03T17:11:34.999Z</time></trkpt><trkpt lat="43.20875627909895" lon="13.058234919967022"><ele>310.0</ele><time>2026-05-03T17:11:35.999Z</time></trkpt><trkpt lat="43.20883666797993" lon="13.058336552991362"><ele>310.0</ele><time>2026-05-03T17:11:36.999Z</time></trkpt><trkpt lat="43.208919189448956" lon="13.058427785450462"><ele>310.0</ele><time>2026-05-03T17:11:37.999Z</time></trkpt><trkpt lat="43.2090004406214" lon="13.058517948248873"><ele>310.0</ele><time>2026-05-03T17:11:38.999Z</time></trkpt><trkpt lat="43.209082472460224" lon="13.058602510166567"><ele>307.8</ele><time>2026-05-03T17:11:39.999Z</time></trkpt><trkpt lat="43.20916269908697" lon="13.058691476652072"><ele>305.6</ele><time>2026-05-03T17:11:40.999Z</time></trkpt><trkpt lat="43.2092423076696" lon="13.058787911057529"><ele>303.4</ele><time>2026-05-03T17:11:41.999Z</time></trkpt><trkpt lat="43.2093210223966" lon="13.058887820300077"><ele>301.2</ele><time>2026-05-03T17:11:42.999Z</time></trkpt><trkpt lat="43.209400172371666" lon="13.058988516176571"><ele>299.0</ele><time>2026-05-03T17:11:43.999Z</time></trkpt><trkpt lat="43.20948107792353" lon="13.059088825746002"><ele>298.4</ele><time>2026-05-03T17:11:44.999Z</time></trkpt><trkpt lat="43.209563601548204" lon="13.059182828573677"><ele>297.79999999999995</ele><time>2026-05-03T17:11:45.999Z</time></trkpt><trkpt lat="43.20964925055413" lon="13.059281555804425"><ele>297.20000000000005</ele><time>2026-05-03T17:11:46.999Z</time></trkpt><trkpt lat="43.209730075276994" lon="13.059383298831523"><ele>296.6</ele><time>2026-05-03T17:11:47.999Z</time></trkpt><trkpt lat="43.20981014440835" lon="13.059484053633447"><ele>296.0</ele><time>2026-05-03T17:11:48.999Z</time></trkpt><trkpt lat="43.209896784588686" lon="13.059582515869689"><ele>296.0</ele><time>2026-05-03T17:11:49.999Z</time></trkpt><trkpt lat="43.209993416470894" lon="13.059662040562976"><ele>296.0</ele><time>2026-05-03T17:11:50.999Z</time></trkpt><trkpt lat="43.210092794638136" lon="13.059727825892754"><ele>296.0</ele><time>2026-05-03T17:11:51.999Z</time></trkpt><trkpt lat="43.21019986394916" lon="13.059777470088436"><ele>296.0</ele><time>2026-05-03T17:11:52.999Z</time></trkpt><trkpt lat="43.21031121440988" lon="13.059819768423825"><ele>296.0</ele><time>2026-05-03T17:11:53.999Z</time></trkpt><trkpt lat="43.21042778161836" lon="13.05984593415156"><ele>296.0</ele><time>2026-05-03T17:11:54.999Z</time></trkpt><trkpt lat="43.21055056070909" lon="13.059857937088744"><ele>296.0</ele><time>2026-05-03T17:11:55.999Z</time></trkpt><trkpt lat="43.21067499425499" lon="13.059857315394087"><ele>296.0</ele><time>2026-05-03T17:11:56.999Z</time></trkpt><trkpt lat="43.21079854598989" lon="13.059848101110788"><ele>296.5</ele><time>2026-05-03T17:11:57.999Z</time></trkpt><trkpt lat="43.210921582826046" lon="13.059839274737044"><ele>297.0</ele><time>2026-05-03T17:11:58.999Z</time></trkpt><trkpt lat="43.21104745668241" lon="13.059842745037729"><ele>297.5</ele><time>2026-05-03T17:11:59.999Z</time></trkpt><trkpt lat="43.21117537858928" lon="13.059860781687428"><ele>298.0</ele><time>2026-05-03T17:12:00.999Z</time></trkpt><trkpt lat="43.21130328730142" lon="13.059899527094956"><ele>295.5</ele><time>2026-05-03T17:12:01.999Z</time></trkpt><trkpt lat="43.21142842516436" lon="13.05995916726293"><ele>293.0</ele><time>2026-05-03T17:12:02.999Z</time></trkpt><trkpt lat="43.21155498335164" lon="13.06001879335437"><ele>290.5</ele><time>2026-05-03T17:12:03.999Z</time></trkpt><trkpt lat="43.211688852148555" lon="13.060078718059792"><ele>288.0</ele><time>2026-05-03T17:12:04.999Z</time></trkpt><trkpt lat="43.21182993972605" lon="13.060126340736185"><ele>288.0</ele><time>2026-05-03T17:12:05.999Z</time></trkpt><trkpt lat="43.21197197520603" lon="13.060159520740177"><ele>288.0</ele><time>2026-05-03T17:12:06.999Z</time></trkpt><trkpt lat="43.21211743482571" lon="13.060178147793868"><ele>288.0</ele><time>2026-05-03T17:12:07.999Z</time></trkpt><trkpt lat="43.21226161887903" lon="13.060183085845376"><ele>288.0</ele><time>2026-05-03T17:12:08.999Z</time></trkpt><trkpt lat="43.212408162180964" lon="13.060178667018313"><ele>288.75</ele><time>2026-05-03T17:12:09.999Z</time></trkpt><trkpt lat="43.212548957713466" lon="13.06017371241545"><ele>289.5</ele><time>2026-05-03T17:12:10.999Z</time></trkpt><trkpt lat="43.212692259085436" lon="13.060167741780335"><ele>290.25</ele><time>2026-05-03T17:12:11.999Z</time></trkpt><trkpt lat="43.21283597959039" lon="13.060160901485755"><ele>291.0</ele><time>2026-05-03T17:12:12.999Z</time></trkpt><trkpt lat="43.212979204262545" lon="13.060148577614985"><ele>291.0</ele><time>2026-05-03T17:12:13.999Z</time></trkpt><trkpt lat="43.21312158615354" lon="13.060136463809952"><ele>291.0</ele><time>2026-05-03T17:12:14.999Z</time></trkpt><trkpt lat="43.213261525293625" lon="13.060124656282978"><ele>291.0</ele><time>2026-05-03T17:12:15.999Z</time></trkpt><trkpt lat="43.21340428434385" lon="13.060115541398806"><ele>291.0</ele><time>2026-05-03T17:12:16.999Z</time></trkpt><trkpt lat="43.213545338457294" lon="13.060107071304198"><ele>290.75</ele><time>2026-05-03T17:12:17.999Z</time></trkpt><trkpt lat="43.21368609189168" lon="13.060101514520419"><ele>290.5</ele><time>2026-05-03T17:12:18.999Z</time></trkpt><trkpt lat="43.21382604291183" lon="13.060113342837019"><ele>290.25</ele><time>2026-05-03T17:12:19.999Z</time></trkpt><trkpt lat="43.213961484893645" lon="13.060156463914767"><ele>290.0</ele><time>2026-05-03T17:12:20.999Z</time></trkpt><trkpt lat="43.21409583636005" lon="13.060223528521332"><ele>290.0</ele><time>2026-05-03T17:12:21.999Z</time></trkpt><trkpt lat="43.21422050789327" lon="13.060310947993022"><ele>290.0</ele><time>2026-05-03T17:12:22.999Z</time></trkpt><trkpt lat="43.214340574325476" lon="13.060411766881375"><ele>290.0</ele><time>2026-05-03T17:12:23.999Z</time></trkpt><trkpt lat="43.21444895822408" lon="13.060522057260844"><ele>290.0</ele><time>2026-05-03T17:12:24.999Z</time></trkpt><trkpt lat="43.2145524471147" lon="13.060651060071896"><ele>289.25</ele><time>2026-05-03T17:12:25.999Z</time></trkpt><trkpt lat="43.214657315635904" lon="13.060786466466597"><ele>288.5</ele><time>2026-05-03T17:12:26.999Z</time></trkpt><trkpt lat="43.21476569773746" lon="13.060923483560643"><ele>287.75</ele><time>2026-05-03T17:12:27.999Z</time></trkpt><trkpt lat="43.21487757331489" lon="13.061061172640272"><ele>287.0</ele><time>2026-05-03T17:12:28.999Z</time></trkpt><trkpt lat="43.21499273603227" lon="13.061201088815062"><ele>289.33333333333337</ele><time>2026-05-03T17:12:29.999Z</time></trkpt><trkpt lat="43.21510987019695" lon="13.061340253689185"><ele>291.6666666666667</ele><time>2026-05-03T17:12:30.999Z</time></trkpt><trkpt lat="43.2152302656416" lon="13.06148045238614"><ele>294.0</ele><time>2026-05-03T17:12:31.999Z</time></trkpt><trkpt lat="43.21535172232593" lon="13.061607346667083"><ele>293.6666666666667</ele><time>2026-05-03T17:12:32.999Z</time></trkpt><trkpt lat="43.215484622418046" lon="13.061708406888522"><ele>293.33333333333337</ele><time>2026-05-03T17:12:33.999Z</time></trkpt><trkpt lat="43.215627384584145" lon="13.061792648486088"><ele>293.0</ele><time>2026-05-03T17:12:34.999Z</time></trkpt><trkpt lat="43.21577527333645" lon="13.061865301095624"><ele>293.0</ele><time>2026-05-03T17:12:35.998Z</time></trkpt><trkpt lat="43.215924575663216" lon="13.061940518300784"><ele>293.0</ele><time>2026-05-03T17:12:36.998Z</time></trkpt><trkpt lat="43.21607903992896" lon="13.062020524083945"><ele>293.0</ele><time>2026-05-03T17:12:37.998Z</time></trkpt><trkpt lat="43.216224903734854" lon="13.062123251531544"><ele>293.0</ele><time>2026-05-03T17:12:39Z</time></trkpt><trkpt lat="43.21636836503782" lon="13.062251611968422"><ele>293.0</ele><time>2026-05-03T17:12:40Z</time></trkpt><trkpt lat="43.21649820953417" lon="13.062394194106806"><ele>293.0</ele><time>2026-05-03T17:12:41Z</time></trkpt><trkpt lat="43.2166190990065" lon="13.062556916775312"><ele>293.0</ele><time>2026-05-03T17:12:42Z</time></trkpt><trkpt lat="43.216728623121284" lon="13.062719056630044"><ele>293.0</ele><time>2026-05-03T17:12:43Z</time></trkpt><trkpt lat="43.216836395533" lon="13.062874035747718"><ele>293.0</ele><time>2026-05-03T17:12:44Z</time></trkpt><trkpt lat="43.2169410479944" lon="13.063021444089008"><ele>293.0</ele><time>2026-05-03T17:12:45Z</time></trkpt><trkpt lat="43.217047007580796" lon="13.063173311074388"><ele>293.0</ele><time>2026-05-03T17:12:46Z</time></trkpt><trkpt lat="43.21714919558518" lon="13.063328014165041"><ele>293.0</ele><time>2026-05-03T17:12:47Z</time></trkpt><trkpt lat="43.21724651770341" lon="13.063494097032416"><ele>294.0</ele><time>2026-05-03T17:12:48Z</time></trkpt><trkpt lat="43.21733283440259" lon="13.063675223658446"><ele>295.0</ele><time>2026-05-03T17:12:49Z</time></trkpt><trkpt lat="43.21740053653966" lon="13.063868458632681"><ele>296.0</ele><time>2026-05-03T17:12:50Z</time></trkpt><trkpt lat="43.21745473483225" lon="13.06406449567322"><ele>294.75</ele><time>2026-05-03T17:12:51Z</time></trkpt><trkpt lat="43.2175005105897" lon="13.06425255396122"><ele>293.5</ele><time>2026-05-03T17:12:52Z</time></trkpt><trkpt lat="43.217543551904036" lon="13.064442417213337"><ele>292.25</ele><time>2026-05-03T17:12:53Z</time></trkpt><trkpt lat="43.217593881938534" lon="13.064627078756816"><ele>291.0</ele><time>2026-05-03T17:12:54Z</time></trkpt><trkpt lat="43.21764976034041" lon="13.064812364293717"><ele>290.5</ele><time>2026-05-03T17:12:55Z</time></trkpt><trkpt lat="43.21771506914765" lon="13.064997246012247"><ele>290.0</ele><time>2026-05-03T17:12:56Z</time></trkpt><trkpt lat="43.21779113848855" lon="13.065167273727866"><ele>289.5</ele><time>2026-05-03T17:12:57Z</time></trkpt><trkpt lat="43.21787930311869" lon="13.06532450671792"><ele>289.0</ele><time>2026-05-03T17:12:58Z</time></trkpt><trkpt lat="43.21796988523776" lon="13.065465928177288"><ele>289.0</ele><time>2026-05-03T17:12:59Z</time></trkpt><trkpt lat="43.21806400998212" lon="13.065600588197666"><ele>289.0</ele><time>2026-05-03T17:13:00Z</time></trkpt><trkpt lat="43.218163977174164" lon="13.065722550526775"><ele>289.0</ele><time>2026-05-03T17:13:01Z</time></trkpt><trkpt lat="43.21826577386381" lon="13.065835694771584"><ele>289.0</ele><time>2026-05-03T17:13:02Z</time></trkpt><trkpt lat="43.218360523014624" lon="13.065949477280004"><ele>289.75</ele><time>2026-05-03T17:13:03Z</time></trkpt><trkpt lat="43.21845039170738" lon="13.066063145732308"><ele>290.5</ele><time>2026-05-03T17:13:04Z</time></trkpt><trkpt lat="43.218536863561724" lon="13.066174487459227"><ele>291.25</ele><time>2026-05-03T17:13:05Z</time></trkpt><trkpt lat="43.21862008069653" lon="13.06628825994901"><ele>292.0</ele><time>2026-05-03T17:13:06Z</time></trkpt><trkpt lat="43.218698688507104" lon="13.066407990196323"><ele>292.0</ele><time>2026-05-03T17:13:07Z</time></trkpt><trkpt lat="43.21876172102307" lon="13.066542101078184"><ele>292.0</ele><time>2026-05-03T17:13:08Z</time></trkpt><trkpt lat="43.21881218696099" lon="13.066682832722675"><ele>292.0</ele><time>2026-05-03T17:13:09Z</time></trkpt><trkpt lat="43.218856939911554" lon="13.066832957201004"><ele>292.0</ele><time>2026-05-03T17:13:10Z</time></trkpt><trkpt lat="43.218891446509666" lon="13.066980974032434"><ele>291.8333333333333</ele><time>2026-05-03T17:13:11Z</time></trkpt><trkpt lat="43.21892229985538" lon="13.06712007297273"><ele>291.66666666666663</ele><time>2026-05-03T17:13:12Z</time></trkpt><trkpt lat="43.21894868472448" lon="13.067233333052156"><ele>291.5</ele><time>2026-05-03T17:13:13Z</time></trkpt><trkpt lat="43.21897136251877" lon="13.067332554249129"><ele>291.3333333333333</ele><time>2026-05-03T17:13:14Z</time></trkpt><trkpt lat="43.21899107945381" lon="13.067421184620875"><ele>291.1666666666667</ele><time>2026-05-03T17:13:15Z</time></trkpt><trkpt lat="43.21902879817763" lon="13.067562211934959"><ele>291.0</ele><time>2026-05-03T17:13:17Z</time></trkpt><trkpt lat="43.21904808970608" lon="13.067664278581915"><ele>291.0</ele><time>2026-05-03T17:13:19Z</time></trkpt><trkpt lat="43.219069014353316" lon="13.067749503801098"><ele>291.0</ele><time>2026-05-03T17:13:21Z</time></trkpt><trkpt lat="43.21909407261415" lon="13.067836822958013"><ele>291.0</ele><time>2026-05-03T17:13:24Z</time></trkpt><trkpt lat="43.21911120187376" lon="13.067944654334745"><ele>291.0</ele><time>2026-05-03T17:13:44.999Z</time></trkpt><trkpt lat="43.21914286660016" lon="13.068072357903434"><ele>291.0</ele><time>2026-05-03T17:13:46.999Z</time></trkpt><trkpt lat="43.21915450671779" lon="13.068158456570703"><ele>291.0</ele><time>2026-05-03T17:13:47.999Z</time></trkpt><trkpt lat="43.21916163769297" lon="13.068247885835884"><ele>291.0</ele><time>2026-05-03T17:13:48.999Z</time></trkpt><trkpt lat="43.21916968343743" lon="13.06834750867071"><ele>290.6</ele><time>2026-05-03T17:13:49.999Z</time></trkpt><trkpt lat="43.219172896925485" lon="13.068459577481942"><ele>290.20000000000005</ele><time>2026-05-03T17:13:50.999Z</time></trkpt><trkpt lat="43.21916693359404" lon="13.068579731754195"><ele>289.79999999999995</ele><time>2026-05-03T17:13:51.999Z</time></trkpt><trkpt lat="43.219157097711665" lon="13.068709342035726"><ele>289.4</ele><time>2026-05-03T17:13:52.999Z</time></trkpt><trkpt lat="43.219125412329625" lon="13.068834515834933"><ele>289.0</ele><time>2026-05-03T17:13:53.999Z</time></trkpt><trkpt lat="43.2191220615402" lon="13.068976657334359"><ele>289.25</ele><time>2026-05-03T17:13:54.999Z</time></trkpt><trkpt lat="43.21910874468984" lon="13.069121551027191"><ele>289.5</ele><time>2026-05-03T17:13:55.999Z</time></trkpt><trkpt lat="43.21908314975581" lon="13.069272582460409"><ele>289.75</ele><time>2026-05-03T17:13:56.999Z</time></trkpt><trkpt lat="43.219074492846474" lon="13.06943203752481"><ele>290.0</ele><time>2026-05-03T17:13:57.999Z</time></trkpt><trkpt lat="43.21906927248687" lon="13.06959778745794"><ele>290.0</ele><time>2026-05-03T17:13:58.999Z</time></trkpt><trkpt lat="43.21908238665669" lon="13.069769845048008"><ele>290.0</ele><time>2026-05-03T17:13:59.999Z</time></trkpt><trkpt lat="43.219084231730626" lon="13.0699460870076"><ele>290.0</ele><time>2026-05-03T17:14:00.999Z</time></trkpt><trkpt lat="43.21908706825899" lon="13.07011801867613"><ele>290.0</ele><time>2026-05-03T17:14:01.999Z</time></trkpt><trkpt lat="43.21909032278027" lon="13.070294005303484"><ele>290.0</ele><time>2026-05-03T17:14:02.999Z</time></trkpt><trkpt lat="43.21909361773923" lon="13.070477320488678"><ele>290.0</ele><time>2026-05-03T17:14:03.999Z</time></trkpt><trkpt lat="43.21908065740299" lon="13.070661925717353"><ele>290.0</ele><time>2026-05-03T17:14:04.999Z</time></trkpt><trkpt lat="43.219083326135475" lon="13.070850127308024"><ele>290.0</ele><time>2026-05-03T17:14:05.999Z</time></trkpt><trkpt lat="43.21908619608224" lon="13.071040656618568"><ele>289.75</ele><time>2026-05-03T17:14:06.999Z</time></trkpt><trkpt lat="43.21908905584871" lon="13.071230510039928"><ele>289.5</ele><time>2026-05-03T17:14:07.999Z</time></trkpt><trkpt lat="43.21909195244833" lon="13.071422808777594"><ele>289.25</ele><time>2026-05-03T17:14:08.999Z</time></trkpt><trkpt lat="43.219094785140136" lon="13.071617313170842"><ele>289.0</ele><time>2026-05-03T17:14:09.999Z</time></trkpt><trkpt lat="43.21909770553329" lon="13.071818343449442"><ele>289.0</ele><time>2026-05-03T17:14:10.999Z</time></trkpt><trkpt lat="43.219100574613606" lon="13.072015841535292"><ele>289.0</ele><time>2026-05-03T17:14:11.999Z</time></trkpt><trkpt lat="43.219103893322334" lon="13.072219478639898"><ele>289.0</ele><time>2026-05-03T17:14:12.999Z</time></trkpt><trkpt lat="43.21910804477992" lon="13.07242359520714"><ele>289.0</ele><time>2026-05-03T17:14:13.999Z</time></trkpt><trkpt lat="43.21911411991708" lon="13.07262864904753"><ele>289.0</ele><time>2026-05-03T17:14:14.999Z</time></trkpt><trkpt lat="43.21913695367584" lon="13.07283792992794"><ele>289.0</ele><time>2026-05-03T17:14:15.999Z</time></trkpt><trkpt lat="43.21914879754893" lon="13.0730504564692"><ele>289.0</ele><time>2026-05-03T17:14:16.999Z</time></trkpt><trkpt lat="43.21917176264533" lon="13.073259218236544"><ele>289.0</ele><time>2026-05-03T17:14:17.999Z</time></trkpt><trkpt lat="43.21920362049457" lon="13.073470577173616"><ele>289.0</ele><time>2026-05-03T17:14:18.999Z</time></trkpt><trkpt lat="43.21924116296416" lon="13.073679666463216"><ele>289.0</ele><time>2026-05-03T17:14:19.999Z</time></trkpt><trkpt lat="43.21928115605276" lon="13.073891026420215"><ele>289.0</ele><time>2026-05-03T17:14:20.999Z</time></trkpt><trkpt lat="43.219322908435196" lon="13.074099240577013"><ele>289.0</ele><time>2026-05-03T17:14:21.999Z</time></trkpt><trkpt lat="43.21936558112955" lon="13.074311018559868"><ele>289.0</ele><time>2026-05-03T17:14:22.999Z</time></trkpt><trkpt lat="43.21941283242865" lon="13.074525973690731"><ele>288.3333333333333</ele><time>2026-05-03T17:14:23.999Z</time></trkpt><trkpt lat="43.21945895840126" lon="13.07473824404358"><ele>287.6666666666667</ele><time>2026-05-03T17:14:24.999Z</time></trkpt><trkpt lat="43.219506521029466" lon="13.07495017354965"><ele>287.0</ele><time>2026-05-03T17:14:25.999Z</time></trkpt><trkpt lat="43.21954634800991" lon="13.075160769000492"><ele>287.0</ele><time>2026-05-03T17:14:26.999Z</time></trkpt><trkpt lat="43.21958764769298" lon="13.075372862774499"><ele>287.0</ele><time>2026-05-03T17:14:27.999Z</time></trkpt><trkpt lat="43.21963089930203" lon="13.075593156188269"><ele>287.0</ele><time>2026-05-03T17:14:28.999Z</time></trkpt><trkpt lat="43.219672170667565" lon="13.075806138088272"><ele>286.33333333333337</ele><time>2026-05-03T17:14:29.999Z</time></trkpt><trkpt lat="43.219719609748054" lon="13.076027505583074"><ele>285.6666666666667</ele><time>2026-05-03T17:14:30.999Z</time></trkpt><trkpt lat="43.219767405511476" lon="13.07624502970946"><ele>285.0</ele><time>2026-05-03T17:14:31.999Z</time></trkpt><trkpt lat="43.21981610185463" lon="13.07647101664588"><ele>287.0</ele><time>2026-05-03T17:14:32.999Z</time></trkpt><trkpt lat="43.219863163436" lon="13.076702812597341"><ele>289.0</ele><time>2026-05-03T17:14:33.999Z</time></trkpt><trkpt lat="43.219908688702716" lon="13.076935202911743"><ele>291.0</ele><time>2026-05-03T17:14:34.999Z</time></trkpt><trkpt lat="43.21995385827913" lon="13.077167909839277"><ele>291.0</ele><time>2026-05-03T17:14:35.999Z</time></trkpt><trkpt lat="43.21997751303919" lon="13.077407835959855"><ele>291.0</ele><time>2026-05-03T17:14:36.999Z</time></trkpt><trkpt lat="43.22001004042963" lon="13.077647147696153"><ele>291.0</ele><time>2026-05-03T17:14:37.999Z</time></trkpt><trkpt lat="43.220053881219584" lon="13.077886143263449"><ele>290.6666666666667</ele><time>2026-05-03T17:14:38.999Z</time></trkpt><trkpt lat="43.22008498051801" lon="13.07813296309068"><ele>290.33333333333337</ele><time>2026-05-03T17:14:39.999Z</time></trkpt><trkpt lat="43.22012632811158" lon="13.078370870997745"><ele>290.0</ele><time>2026-05-03T17:14:40.999Z</time></trkpt><trkpt lat="43.220176485278266" lon="13.078602821903658"><ele>289.0</ele><time>2026-05-03T17:14:41.999Z</time></trkpt><trkpt lat="43.22023388030631" lon="13.078838104924099"><ele>288.0</ele><time>2026-05-03T17:14:42.998Z</time></trkpt><trkpt lat="43.22028848106579" lon="13.079074671098345"><ele>287.0</ele><time>2026-05-03T17:14:43.998Z</time></trkpt><trkpt lat="43.22033684073736" lon="13.07930067645396"><ele>286.0</ele><time>2026-05-03T17:14:45Z</time></trkpt><trkpt lat="43.22038629550953" lon="13.079530732753076"><ele>285.0</ele><time>2026-05-03T17:14:46Z</time></trkpt><trkpt lat="43.22042967146562" lon="13.07976494637638"><ele>284.0</ele><time>2026-05-03T17:14:47Z</time></trkpt><trkpt lat="43.220442198397116" lon="13.080003687597308"><ele>283.0</ele><time>2026-05-03T17:14:48Z</time></trkpt><trkpt lat="43.22047053804578" lon="13.08024056105375"><ele>282.0</ele><time>2026-05-03T17:14:49Z</time></trkpt><trkpt lat="43.220478889091176" lon="13.080477254783887"><ele>281.0</ele><time>2026-05-03T17:14:50Z</time></trkpt><trkpt lat="43.22050105497881" lon="13.080714895546242"><ele>279.6666666666667</ele><time>2026-05-03T17:14:51Z</time></trkpt><trkpt lat="43.22052657919271" lon="13.080950203265095"><ele>278.3333333333333</ele><time>2026-05-03T17:14:52Z</time></trkpt><trkpt lat="43.220555449674364" lon="13.0811872248349"><ele>277.0</ele><time>2026-05-03T17:14:53Z</time></trkpt><trkpt lat="43.22058958254693" lon="13.081422580997812"><ele>277.66666666666663</ele><time>2026-05-03T17:14:54Z</time></trkpt><trkpt lat="43.220611129295584" lon="13.081660019067051"><ele>278.3333333333333</ele><time>2026-05-03T17:14:55Z</time></trkpt><trkpt lat="43.220646034900305" lon="13.081893019572604"><ele>279.0</ele><time>2026-05-03T17:14:56Z</time></trkpt><trkpt lat="43.22068086478704" lon="13.08212748424144"><ele>279.0</ele><time>2026-05-03T17:14:57Z</time></trkpt><trkpt lat="43.220728984702966" lon="13.082361133932842"><ele>279.0</ele><time>2026-05-03T17:14:58Z</time></trkpt><trkpt lat="43.22075697401906" lon="13.082600887003949"><ele>279.0</ele><time>2026-05-03T17:14:59Z</time></trkpt><trkpt lat="43.220783520722755" lon="13.082845732555128"><ele>277.6666666666667</ele><time>2026-05-03T17:15:00Z</time></trkpt><trkpt lat="43.22080388102584" lon="13.083086867549303"><ele>276.33333333333337</ele><time>2026-05-03T17:15:01Z</time></trkpt><trkpt lat="43.22082299736252" lon="13.083323652633625"><ele>275.0</ele><time>2026-05-03T17:15:02Z</time></trkpt><trkpt lat="43.22084595050632" lon="13.08356231532307"><ele>275.0</ele><time>2026-05-03T17:15:03Z</time></trkpt><trkpt lat="43.22086851486917" lon="13.083802189403723"><ele>275.0</ele><time>2026-05-03T17:15:04Z</time></trkpt><trkpt lat="43.22089246432451" lon="13.084040112343109"><ele>275.0</ele><time>2026-05-03T17:15:05Z</time></trkpt><trkpt lat="43.22091670572549" lon="13.084278269437497"><ele>275.0</ele><time>2026-05-03T17:15:06Z</time></trkpt><trkpt lat="43.220923179806185" lon="13.084514788048878"><ele>275.0</ele><time>2026-05-03T17:15:07Z</time></trkpt><trkpt lat="43.22094493568042" lon="13.08475056226303"><ele>275.0</ele><time>2026-05-03T17:15:08Z</time></trkpt><trkpt lat="43.2209674794465" lon="13.084979802025046"><ele>275.0</ele><time>2026-05-03T17:15:09Z</time></trkpt><trkpt lat="43.22100486830379" lon="13.085204916673561"><ele>275.0</ele><time>2026-05-03T17:15:10Z</time></trkpt><trkpt lat="43.22102329474425" lon="13.085431256259456"><ele>275.0</ele><time>2026-05-03T17:15:11Z</time></trkpt><trkpt lat="43.221042362287605" lon="13.085666893416168"><ele>275.0</ele><time>2026-05-03T17:15:12Z</time></trkpt><trkpt lat="43.22106079382562" lon="13.08590150591076"><ele>275.0</ele><time>2026-05-03T17:15:13Z</time></trkpt><trkpt lat="43.22108257758407" lon="13.086132656224889"><ele>275.0</ele><time>2026-05-03T17:15:14Z</time></trkpt><trkpt lat="43.221104872266764" lon="13.086363903207056"><ele>275.0</ele><time>2026-05-03T17:15:15Z</time></trkpt><trkpt lat="43.22113158709474" lon="13.086585846544484"><ele>275.0</ele><time>2026-05-03T17:15:16Z</time></trkpt><trkpt lat="43.22114253914165" lon="13.086810493620947"><ele>275.0</ele><time>2026-05-03T17:15:17Z</time></trkpt><trkpt lat="43.221163691967305" lon="13.087033791977946"><ele>274.6666666666667</ele><time>2026-05-03T17:15:18Z</time></trkpt><trkpt lat="43.22118434254203" lon="13.087248663539425"><ele>274.3333333333333</ele><time>2026-05-03T17:15:19Z</time></trkpt><trkpt lat="43.22120547703329" lon="13.08745961461216"><ele>274.0</ele><time>2026-05-03T17:15:20Z</time></trkpt><trkpt lat="43.22122413578404" lon="13.087664806815907"><ele>274.0</ele><time>2026-05-03T17:15:21Z</time></trkpt><trkpt lat="43.22124194892866" lon="13.08786400478079"><ele>274.0</ele><time>2026-05-03T17:15:22Z</time></trkpt><trkpt lat="43.22121964552615" lon="13.088054196623785"><ele>274.0</ele><time>2026-05-03T17:15:23Z</time></trkpt><trkpt lat="43.22117662937171" lon="13.088232589946362"><ele>274.0</ele><time>2026-05-03T17:15:24Z</time></trkpt><trkpt lat="43.221108699538306" lon="13.088391045193696"><ele>274.75</ele><time>2026-05-03T17:15:25Z</time></trkpt><trkpt lat="43.22100879490633" lon="13.088518724554355"><ele>275.5</ele><time>2026-05-03T17:15:26Z</time></trkpt><trkpt lat="43.220903203305994" lon="13.088631535600271"><ele>276.25</ele><time>2026-05-03T17:15:27Z</time></trkpt><trkpt lat="43.2207909754327" lon="13.088732367281295"><ele>277.0</ele><time>2026-05-03T17:15:28Z</time></trkpt><trkpt lat="43.22067350734403" lon="13.088842378898889"><ele>276.5</ele><time>2026-05-03T17:15:29Z</time></trkpt><trkpt lat="43.220562553209284" lon="13.088953800799695"><ele>276.0</ele><time>2026-05-03T17:15:30Z</time></trkpt><trkpt lat="43.22046175818974" lon="13.089079590262424"><ele>275.5</ele><time>2026-05-03T17:15:31Z</time></trkpt><trkpt lat="43.220374274611686" lon="13.089235101171127"><ele>275.0</ele><time>2026-05-03T17:15:32Z</time></trkpt><trkpt lat="43.22031279905668" lon="13.089408647595594"><ele>274.75</ele><time>2026-05-03T17:15:33Z</time></trkpt><trkpt lat="43.22027860435511" lon="13.089597029474204"><ele>274.5</ele><time>2026-05-03T17:15:34Z</time></trkpt><trkpt lat="43.22027329350493" lon="13.08979342651301"><ele>274.25</ele><time>2026-05-03T17:15:34.999Z</time></trkpt><trkpt lat="43.22027816342324" lon="13.089990284466984"><ele>274.0</ele><time>2026-05-03T17:15:35.999Z</time></trkpt><trkpt lat="43.22029297729875" lon="13.090189055235024"><ele>274.0</ele><time>2026-05-03T17:15:36.999Z</time></trkpt><trkpt lat="43.22031783184858" lon="13.090397983106346"><ele>274.0</ele><time>2026-05-03T17:15:37.999Z</time></trkpt><trkpt lat="43.22036049555652" lon="13.090600700252308"><ele>274.0</ele><time>2026-05-03T17:15:38.999Z</time></trkpt><trkpt lat="43.22039615494532" lon="13.090805247963784"><ele>273.66666666666663</ele><time>2026-05-03T17:15:39.999Z</time></trkpt><trkpt lat="43.220438744601" lon="13.09101005544734"><ele>273.3333333333333</ele><time>2026-05-03T17:15:40.999Z</time></trkpt><trkpt lat="43.22048250766107" lon="13.091219075682279"><ele>273.0</ele><time>2026-05-03T17:15:41.999Z</time></trkpt><trkpt lat="43.22052527510633" lon="13.09142642029847"><ele>271.3333333333333</ele><time>2026-05-03T17:15:42.999Z</time></trkpt><trkpt lat="43.22056895781018" lon="13.091636894335556"><ele>269.66666666666663</ele><time>2026-05-03T17:15:43.999Z</time></trkpt><trkpt lat="43.22061668216443" lon="13.091852972557568"><ele>268.0</ele><time>2026-05-03T17:15:44.999Z</time></trkpt><trkpt lat="43.22066635793977" lon="13.092076083611657"><ele>272.0</ele><time>2026-05-03T17:15:45.999Z</time></trkpt><trkpt lat="43.220714864727185" lon="13.09230105019964"><ele>276.0</ele><time>2026-05-03T17:15:46.999Z</time></trkpt><trkpt lat="43.22073840823391" lon="13.092529741238941"><ele>280.0</ele><time>2026-05-03T17:15:47.999Z</time></trkpt><trkpt lat="43.22076493907738" lon="13.092757165127919"><ele>280.0</ele><time>2026-05-03T17:15:48.999Z</time></trkpt><trkpt lat="43.22078200383501" lon="13.092989252668707"><ele>280.0</ele><time>2026-05-03T17:15:49.999Z</time></trkpt><trkpt lat="43.2207936767746" lon="13.09322091731928"><ele>280.0</ele><time>2026-05-03T17:15:50.999Z</time></trkpt><trkpt lat="43.22081261078459" lon="13.093452501350383"><ele>279.3333333333333</ele><time>2026-05-03T17:15:51.999Z</time></trkpt><trkpt lat="43.22082068904833" lon="13.093693311242035"><ele>278.6666666666667</ele><time>2026-05-03T17:15:52.999Z</time></trkpt><trkpt lat="43.22083418017511" lon="13.09393169306567"><ele>278.0</ele><time>2026-05-03T17:15:53.999Z</time></trkpt><trkpt lat="43.22085227426399" lon="13.094166667507556"><ele>277.33333333333337</ele><time>2026-05-03T17:15:54.999Z</time></trkpt><trkpt lat="43.22087678177423" lon="13.094407974836562"><ele>276.6666666666667</ele><time>2026-05-03T17:15:55.999Z</time></trkpt><trkpt lat="43.2209025284131" lon="13.09464532821884"><ele>276.0</ele><time>2026-05-03T17:15:56.999Z</time></trkpt><trkpt lat="43.22092417878944" lon="13.094877496433618"><ele>276.0</ele><time>2026-05-03T17:15:57.999Z</time></trkpt><trkpt lat="43.2209450903561" lon="13.095109014027186"><ele>276.0</ele><time>2026-05-03T17:15:58.999Z</time></trkpt><trkpt lat="43.22096621602462" lon="13.095336157352303"><ele>276.0</ele><time>2026-05-03T17:15:59.999Z</time></trkpt><trkpt lat="43.22097825536375" lon="13.095564145526113"><ele>275.6666666666667</ele><time>2026-05-03T17:16:00.999Z</time></trkpt><trkpt lat="43.220959586790336" lon="13.095791207255663"><ele>275.33333333333337</ele><time>2026-05-03T17:16:01.999Z</time></trkpt><trkpt lat="43.22093675100332" lon="13.096019841392872"><ele>275.0</ele><time>2026-05-03T17:16:02.999Z</time></trkpt><trkpt lat="43.22090486282746" lon="13.096248991246904"><ele>275.0</ele><time>2026-05-03T17:16:03.999Z</time></trkpt><trkpt lat="43.22086549176004" lon="13.096479906863479"><ele>275.0</ele><time>2026-05-03T17:16:04.999Z</time></trkpt><trkpt lat="43.22082057910938" lon="13.096719264000283"><ele>275.0</ele><time>2026-05-03T17:16:05.999Z</time></trkpt><trkpt lat="43.22076445241802" lon="13.096958512045365"><ele>275.33333333333337</ele><time>2026-05-03T17:16:06.999Z</time></trkpt><trkpt lat="43.22070792691444" lon="13.09719881893322"><ele>275.6666666666667</ele><time>2026-05-03T17:16:07.999Z</time></trkpt><trkpt lat="43.220654592426136" lon="13.097435640339835"><ele>276.0</ele><time>2026-05-03T17:16:08.999Z</time></trkpt><trkpt lat="43.22061416470421" lon="13.097676964896449"><ele>274.6666666666667</ele><time>2026-05-03T17:16:09.999Z</time></trkpt><trkpt lat="43.22058642964476" lon="13.09791955003598"><ele>273.33333333333337</ele><time>2026-05-03T17:16:10.999Z</time></trkpt><trkpt lat="43.22058036739455" lon="13.098157355383321"><ele>272.0</ele><time>2026-05-03T17:16:11.999Z</time></trkpt><trkpt lat="43.22055738747769" lon="13.09837596875908"><ele>272.0</ele><time>2026-05-03T17:16:12.999Z</time></trkpt><trkpt lat="43.22054141879812" lon="13.098585712244457"><ele>272.0</ele><time>2026-05-03T17:16:13.999Z</time></trkpt><trkpt lat="43.22052302317483" lon="13.09876317861041"><ele>272.0</ele><time>2026-05-03T17:16:14.999Z</time></trkpt><trkpt lat="43.22052821700672" lon="13.09897122628911"><ele>272.0</ele><time>2026-05-03T17:16:15.999Z</time></trkpt><trkpt lat="43.22056501961807" lon="13.099180144445302"><ele>271.6666666666667</ele><time>2026-05-03T17:16:16.999Z</time></trkpt><trkpt lat="43.220616417134835" lon="13.099376241507295"><ele>271.3333333333333</ele><time>2026-05-03T17:16:17.999Z</time></trkpt><trkpt lat="43.220663594877074" lon="13.09958095964375"><ele>271.0</ele><time>2026-05-03T17:16:18.999Z</time></trkpt><trkpt lat="43.220708493900446" lon="13.09977568900369"><ele>272.3333333333333</ele><time>2026-05-03T17:16:19.999Z</time></trkpt><trkpt lat="43.2207562461415" lon="13.099990417736612"><ele>273.6666666666667</ele><time>2026-05-03T17:16:20.999Z</time></trkpt><trkpt lat="43.220792159965306" lon="13.100215458141866"><ele>275.0</ele><time>2026-05-03T17:16:21.999Z</time></trkpt><trkpt lat="43.22086252156698" lon="13.100387925999769"><ele>275.0</ele><time>2026-05-03T17:16:22.999Z</time></trkpt><trkpt lat="43.220934204222445" lon="13.100541749884616"><ele>275.0</ele><time>2026-05-03T17:16:23.999Z</time></trkpt><trkpt lat="43.221029440808344" lon="13.100658236354192"><ele>275.0</ele><time>2026-05-03T17:16:24.999Z</time></trkpt><trkpt lat="43.221140357677605" lon="13.10073423110149"><ele>275.0</ele><time>2026-05-03T17:16:25.999Z</time></trkpt><trkpt lat="43.221265462074804" lon="13.100778137563369"><ele>274.5</ele><time>2026-05-03T17:16:26.999Z</time></trkpt><trkpt lat="43.2214005428167" lon="13.100806616162933"><ele>274.0</ele><time>2026-05-03T17:16:27.999Z</time></trkpt><trkpt lat="43.22154488889893" lon="13.100843065647972"><ele>273.5</ele><time>2026-05-03T17:16:28.999Z</time></trkpt><trkpt lat="43.22169019501129" lon="13.100892910987014"><ele>273.0</ele><time>2026-05-03T17:16:29.999Z</time></trkpt><trkpt lat="43.22182994470267" lon="13.100948931000794"><ele>275.3333333333333</ele><time>2026-05-03T17:16:30.999Z</time></trkpt><trkpt lat="43.22197336470636" lon="13.101004256512512"><ele>277.66666666666663</ele><time>2026-05-03T17:16:31.999Z</time></trkpt><trkpt lat="43.22211678110023" lon="13.101073896908249"><ele>280.0</ele><time>2026-05-03T17:16:32.999Z</time></trkpt><trkpt lat="43.22226069827029" lon="13.101158129283094"><ele>285.66666666666663</ele><time>2026-05-03T17:16:33.999Z</time></trkpt><trkpt lat="43.22238928255954" lon="13.101267022272213"><ele>291.3333333333333</ele><time>2026-05-03T17:16:34.999Z</time></trkpt><trkpt lat="43.222497012780074" lon="13.10141519620005"><ele>297.0</ele><time>2026-05-03T17:16:35.999Z</time></trkpt><trkpt lat="43.222617317968044" lon="13.101566659076681"><ele>290.6666666666667</ele><time>2026-05-03T17:16:36.999Z</time></trkpt><trkpt lat="43.222707104100245" lon="13.101747187462387"><ele>284.33333333333337</ele><time>2026-05-03T17:16:37.999Z</time></trkpt><trkpt lat="43.22277889065186" lon="13.10194913464395"><ele>278.0</ele><time>2026-05-03T17:16:38.999Z</time></trkpt><trkpt lat="43.22283311546486" lon="13.102158036538633"><ele>278.0</ele><time>2026-05-03T17:16:39.999Z</time></trkpt><trkpt lat="43.22286772628049" lon="13.102374078094476"><ele>278.0</ele><time>2026-05-03T17:16:40.999Z</time></trkpt><trkpt lat="43.22288776185752" lon="13.102593981939613"><ele>278.0</ele><time>2026-05-03T17:16:41.999Z</time></trkpt><trkpt lat="43.22288779090597" lon="13.10281714034426"><ele>274.6666666666667</ele><time>2026-05-03T17:16:42.999Z</time></trkpt><trkpt lat="43.222866448318555" lon="13.103037251842315"><ele>271.3333333333333</ele><time>2026-05-03T17:16:43.999Z</time></trkpt><trkpt lat="43.222851136290814" lon="13.103287803920558"><ele>268.0</ele><time>2026-05-03T17:16:44.999Z</time></trkpt><trkpt lat="43.22281376576248" lon="13.103516488116378"><ele>268.66666666666663</ele><time>2026-05-03T17:16:45.998Z</time></trkpt><trkpt lat="43.222783703699314" lon="13.103753913181405"><ele>269.3333333333333</ele><time>2026-05-03T17:16:46.998Z</time></trkpt><trkpt lat="43.22276179025652" lon="13.103997365030743"><ele>270.0</ele><time>2026-05-03T17:16:47.998Z</time></trkpt><trkpt lat="43.22274554573529" lon="13.10424443307553"><ele>270.0</ele><time>2026-05-03T17:16:48.998Z</time></trkpt><trkpt lat="43.222731884565185" lon="13.104494023367693"><ele>270.0</ele><time>2026-05-03T17:16:49.998Z</time></trkpt><trkpt lat="43.22272457470433" lon="13.104739327698468"><ele>270.0</ele><time>2026-05-03T17:16:51Z</time></trkpt><trkpt lat="43.22271576788177" lon="13.104990201423618"><ele>270.3333333333333</ele><time>2026-05-03T17:16:52Z</time></trkpt><trkpt lat="43.22271898339812" lon="13.105242609469455"><ele>270.66666666666663</ele><time>2026-05-03T17:16:53Z</time></trkpt><trkpt lat="43.22271669029225" lon="13.105502089149597"><ele>271.0</ele><time>2026-05-03T17:16:54Z</time></trkpt><trkpt lat="43.22271300118779" lon="13.105756348729633"><ele>271.0</ele><time>2026-05-03T17:16:55Z</time></trkpt><trkpt lat="43.222711616906125" lon="13.106014400525192"><ele>271.0</ele><time>2026-05-03T17:16:56Z</time></trkpt><trkpt lat="43.222709031640186" lon="13.10627578469916"><ele>271.0</ele><time>2026-05-03T17:16:57Z</time></trkpt><trkpt lat="43.22270871568387" lon="13.106537734956817"><ele>271.0</ele><time>2026-05-03T17:16:58Z</time></trkpt><trkpt lat="43.22271071118523" lon="13.106795919943982"><ele>271.0</ele><time>2026-05-03T17:16:59Z</time></trkpt><trkpt lat="43.22270955510586" lon="13.10706065735329"><ele>271.0</ele><time>2026-05-03T17:17:00Z</time></trkpt><trkpt lat="43.222715040060685" lon="13.107318980216576"><ele>269.66666666666663</ele><time>2026-05-03T17:17:01Z</time></trkpt><trkpt lat="43.22271949643547" lon="13.107581219173971"><ele>268.3333333333333</ele><time>2026-05-03T17:17:02Z</time></trkpt><trkpt lat="43.22275180761389" lon="13.10783940930126"><ele>267.0</ele><time>2026-05-03T17:17:03Z</time></trkpt><trkpt lat="43.22277093303078" lon="13.108101567671572"><ele>266.3333333333333</ele><time>2026-05-03T17:17:04Z</time></trkpt><trkpt lat="43.22279358465257" lon="13.108365264651711"><ele>265.66666666666663</ele><time>2026-05-03T17:17:05Z</time></trkpt><trkpt lat="43.222823048988154" lon="13.108626296080637"><ele>265.0</ele><time>2026-05-03T17:17:06Z</time></trkpt><trkpt lat="43.22285910988426" lon="13.10888798798628"><ele>263.66666666666663</ele><time>2026-05-03T17:17:07Z</time></trkpt><trkpt lat="43.22289846665019" lon="13.109147597176298"><ele>262.3333333333333</ele><time>2026-05-03T17:17:08Z</time></trkpt><trkpt lat="43.2229433010773" lon="13.109407338687463"><ele>261.0</ele><time>2026-05-03T17:17:09Z</time></trkpt><trkpt lat="43.222990601907966" lon="13.109663726877931"><ele>261.0</ele><time>2026-05-03T17:17:10Z</time></trkpt><trkpt lat="43.22304051412735" lon="13.109920420850164"><ele>261.0</ele><time>2026-05-03T17:17:11Z</time></trkpt><trkpt lat="43.22309452149039" lon="13.110177900544908"><ele>261.0</ele><time>2026-05-03T17:17:12Z</time></trkpt><trkpt lat="43.22315164660578" lon="13.11043534358001"><ele>264.6666666666667</ele><time>2026-05-03T17:17:13Z</time></trkpt><trkpt lat="43.22321129135661" lon="13.110690873566485"><ele>268.33333333333337</ele><time>2026-05-03T17:17:14Z</time></trkpt><trkpt lat="43.22327444287511" lon="13.110949553229466"><ele>272.0</ele><time>2026-05-03T17:17:15Z</time></trkpt><trkpt lat="43.223338609181994" lon="13.111212815906896"><ele>272.0</ele><time>2026-05-03T17:17:16Z</time></trkpt><trkpt lat="43.22339794708729" lon="13.111475721862163"><ele>272.0</ele><time>2026-05-03T17:17:17Z</time></trkpt><trkpt lat="43.2234568479694" lon="13.111736552159332"><ele>272.0</ele><time>2026-05-03T17:17:18Z</time></trkpt><trkpt lat="43.2235210444346" lon="13.112001039294846"><ele>271.33333333333337</ele><time>2026-05-03T17:17:19Z</time></trkpt><trkpt lat="43.223581285020686" lon="13.11226563409836"><ele>270.6666666666667</ele><time>2026-05-03T17:17:20Z</time></trkpt><trkpt lat="43.223638326581714" lon="13.112526407864415"><ele>270.0</ele><time>2026-05-03T17:17:21Z</time></trkpt><trkpt lat="43.22370012544127" lon="13.112789205711373"><ele>268.0</ele><time>2026-05-03T17:17:22Z</time></trkpt><trkpt lat="43.22376708457101" lon="13.113046982695503"><ele>266.0</ele><time>2026-05-03T17:17:23Z</time></trkpt><trkpt lat="43.223840324403675" lon="13.113299426630439"><ele>264.0</ele><time>2026-05-03T17:17:24Z</time></trkpt><trkpt lat="43.22392265450762" lon="13.11354771113269"><ele>268.3333333333333</ele><time>2026-05-03T17:17:25Z</time></trkpt><trkpt lat="43.224012666685276" lon="13.113788861681984"><ele>272.66666666666663</ele><time>2026-05-03T17:17:26Z</time></trkpt><trkpt lat="43.224105568499745" lon="13.114030903307475"><ele>277.0</ele><time>2026-05-03T17:17:27Z</time></trkpt><trkpt lat="43.22419823925334" lon="13.114275426136428"><ele>277.0</ele><time>2026-05-03T17:17:28Z</time></trkpt><trkpt lat="43.22428033929946" lon="13.11452192195998"><ele>277.0</ele><time>2026-05-03T17:17:29Z</time></trkpt><trkpt lat="43.22435818479884" lon="13.114775854686284"><ele>277.0</ele><time>2026-05-03T17:17:30Z</time></trkpt><trkpt lat="43.22442239895683" lon="13.115037824970903"><ele>273.3333333333333</ele><time>2026-05-03T17:17:31Z</time></trkpt><trkpt lat="43.22447131407744" lon="13.115301322569232"><ele>269.6666666666667</ele><time>2026-05-03T17:17:32Z</time></trkpt><trkpt lat="43.22448427469114" lon="13.11557876206907"><ele>266.0</ele><time>2026-05-03T17:17:33Z</time></trkpt><trkpt lat="43.22449768524936" lon="13.115853427187108"><ele>264.6666666666667</ele><time>2026-05-03T17:17:34Z</time></trkpt><trkpt lat="43.224493458089405" lon="13.116125546970103"><ele>263.3333333333333</ele><time>2026-05-03T17:17:35Z</time></trkpt><trkpt lat="43.22447246476958" lon="13.116407390966332"><ele>262.0</ele><time>2026-05-03T17:17:36Z</time></trkpt><trkpt lat="43.22444336583118" lon="13.116684493120614"><ele>262.0</ele><time>2026-05-03T17:17:37Z</time></trkpt><trkpt lat="43.22442727551706" lon="13.116966545430227"><ele>262.0</ele><time>2026-05-03T17:17:38Z</time></trkpt><trkpt lat="43.22439638377463" lon="13.11724785733643"><ele>262.0</ele><time>2026-05-03T17:17:39Z</time></trkpt><trkpt lat="43.224362907187384" lon="13.117532403766427"><ele>262.3333333333333</ele><time>2026-05-03T17:17:40Z</time></trkpt><trkpt lat="43.22432599701077" lon="13.117806979954631"><ele>262.6666666666667</ele><time>2026-05-03T17:17:41Z</time></trkpt><trkpt lat="43.22429660141931" lon="13.118089934674208"><ele>263.0</ele><time>2026-05-03T17:17:42Z</time></trkpt><trkpt lat="43.224264990772575" lon="13.118373970372225"><ele>264.0</ele><time>2026-05-03T17:17:43Z</time></trkpt><trkpt lat="43.22423357752414" lon="13.118658390078917"><ele>265.0</ele><time>2026-05-03T17:17:44Z</time></trkpt><trkpt lat="43.22418825712274" lon="13.118934726546454"><ele>266.0</ele><time>2026-05-03T17:17:44.999Z</time></trkpt><trkpt lat="43.22415584708666" lon="13.119215347453743"><ele>267.6666666666667</ele><time>2026-05-03T17:17:45.999Z</time></trkpt><trkpt lat="43.224124515116685" lon="13.119498546922163"><ele>269.3333333333333</ele><time>2026-05-03T17:17:46.999Z</time></trkpt><trkpt lat="43.22409427370776" lon="13.119782211458034"><ele>271.0</ele><time>2026-05-03T17:17:47.999Z</time></trkpt><trkpt lat="43.22406940336133" lon="13.120058350209623"><ele>272.0</ele><time>2026-05-03T17:17:48.999Z</time></trkpt><trkpt lat="43.22404741550955" lon="13.120329591056905"><ele>273.0</ele><time>2026-05-03T17:17:49.999Z</time></trkpt><trkpt lat="43.22403068638888" lon="13.120606628548911"><ele>274.0</ele><time>2026-05-03T17:17:50.999Z</time></trkpt><trkpt lat="43.22402094828872" lon="13.120881694962407"><ele>275.0</ele><time>2026-05-03T17:17:51.999Z</time></trkpt><trkpt lat="43.2240178849857" lon="13.121163157776387"><ele>276.0</ele><time>2026-05-03T17:17:52.999Z</time></trkpt><trkpt lat="43.22401780083292" lon="13.121431620080756"><ele>277.0</ele><time>2026-05-03T17:17:53.999Z</time></trkpt><trkpt lat="43.22402166372838" lon="13.121712243264453"><ele>277.3333333333333</ele><time>2026-05-03T17:17:54.999Z</time></trkpt><trkpt lat="43.22402339219396" lon="13.121987560148817"><ele>277.6666666666667</ele><time>2026-05-03T17:17:55.999Z</time></trkpt><trkpt lat="43.224011115348276" lon="13.122257790743546"><ele>278.0</ele><time>2026-05-03T17:17:56.999Z</time></trkpt><trkpt lat="43.22398526029532" lon="13.122528398729488"><ele>271.0</ele><time>2026-05-03T17:17:57.999Z</time></trkpt><trkpt lat="43.223955138128034" lon="13.122794671369713"><ele>264.0</ele><time>2026-05-03T17:17:58.999Z</time></trkpt><trkpt lat="43.22392436691482" lon="13.123066681369703"><ele>257.0</ele><time>2026-05-03T17:17:59.999Z</time></trkpt><trkpt lat="43.22389691729934" lon="13.123329788921545"><ele>256.6666666666667</ele><time>2026-05-03T17:18:00.999Z</time></trkpt><trkpt lat="43.22386967389728" lon="13.123600096099036"><ele>256.3333333333333</ele><time>2026-05-03T17:18:01.999Z</time></trkpt><trkpt lat="43.223843769579226" lon="13.123871846989646"><ele>256.0</ele><time>2026-05-03T17:18:02.999Z</time></trkpt><trkpt lat="43.22382339124469" lon="13.124135627984883"><ele>255.66666666666666</ele><time>2026-05-03T17:18:03.999Z</time></trkpt><trkpt lat="43.22381102004995" lon="13.124412953437467"><ele>255.33333333333331</ele><time>2026-05-03T17:18:04.999Z</time></trkpt><trkpt lat="43.22380312308157" lon="13.124685356162072"><ele>255.0</ele><time>2026-05-03T17:18:05.999Z</time></trkpt><trkpt lat="43.22380444632807" lon="13.124976060011127"><ele>254.5</ele><time>2026-05-03T17:18:06.999Z</time></trkpt><trkpt lat="43.22381122638713" lon="13.125285592593116"><ele>254.0</ele><time>2026-05-03T17:18:07.999Z</time></trkpt><trkpt lat="43.2238320874015" lon="13.125615324629932"><ele>255.0</ele><time>2026-05-03T17:18:08.999Z</time></trkpt><trkpt lat="43.223861091675474" lon="13.125954300751449"><ele>256.0</ele><time>2026-05-03T17:18:09.999Z</time></trkpt><trkpt lat="43.22389756039423" lon="13.126285235268515"><ele>254.0</ele><time>2026-05-03T17:18:10.999Z</time></trkpt><trkpt lat="43.22393666438223" lon="13.12661671713673"><ele>252.0</ele><time>2026-05-03T17:18:11.999Z</time></trkpt><trkpt lat="43.223976825654205" lon="13.126958878560178"><ele>265.0</ele><time>2026-05-03T17:18:12.999Z</time></trkpt><trkpt lat="43.22401566313812" lon="13.127289761622583"><ele>278.0</ele><time>2026-05-03T17:18:13.999Z</time></trkpt><trkpt lat="43.22405356528898" lon="13.127619275195025"><ele>278.0</ele><time>2026-05-03T17:18:14.999Z</time></trkpt><trkpt lat="43.22408371017195" lon="13.127933203585975"><ele>278.0</ele><time>2026-05-03T17:18:15.999Z</time></trkpt><trkpt lat="43.224115151873264" lon="13.128236701110612"><ele>277.33333333333337</ele><time>2026-05-03T17:18:16.999Z</time></trkpt><trkpt lat="43.22408621708402" lon="13.128530128216493"><ele>276.6666666666667</ele><time>2026-05-03T17:18:17.999Z</time></trkpt><trkpt lat="43.22406525455827" lon="13.128824507062788"><ele>276.0</ele><time>2026-05-03T17:18:18.999Z</time></trkpt><trkpt lat="43.22404787378926" lon="13.129114876049933"><ele>268.3333333333333</ele><time>2026-05-03T17:18:19.999Z</time></trkpt><trkpt lat="43.22397938866899" lon="13.129397687467243"><ele>260.66666666666663</ele><time>2026-05-03T17:18:20.999Z</time></trkpt><trkpt lat="43.22390302984143" lon="13.129666916779815"><ele>253.0</ele><time>2026-05-03T17:18:21.999Z</time></trkpt><trkpt lat="43.22381732239031" lon="13.129934853593493"><ele>253.0</ele><time>2026-05-03T17:18:22.999Z</time></trkpt><trkpt lat="43.22372950550121" lon="13.130190691166954"><ele>253.0</ele><time>2026-05-03T17:18:23.999Z</time></trkpt><trkpt lat="43.22364591255811" lon="13.130458033316726"><ele>253.0</ele><time>2026-05-03T17:18:24.999Z</time></trkpt><trkpt lat="43.22356476721666" lon="13.130726081339198"><ele>255.33333333333331</ele><time>2026-05-03T17:18:25.999Z</time></trkpt><trkpt lat="43.22348476175998" lon="13.130990386421852"><ele>257.6666666666667</ele><time>2026-05-03T17:18:26.999Z</time></trkpt><trkpt lat="43.223398795425055" lon="13.131258215659695"><ele>260.0</ele><time>2026-05-03T17:18:27.999Z</time></trkpt><trkpt lat="43.22331337971955" lon="13.131523516924718"><ele>261.6666666666667</ele><time>2026-05-03T17:18:28.999Z</time></trkpt><trkpt lat="43.22323425084507" lon="13.13178609123755"><ele>263.3333333333333</ele><time>2026-05-03T17:18:29.999Z</time></trkpt><trkpt lat="43.22316575109369" lon="13.132060308724046"><ele>265.0</ele><time>2026-05-03T17:18:30.999Z</time></trkpt><trkpt lat="43.223119707158396" lon="13.132322949562647"><ele>261.66666666666663</ele><time>2026-05-03T17:18:31.999Z</time></trkpt><trkpt lat="43.223085078581384" lon="13.132596396237842"><ele>258.3333333333333</ele><time>2026-05-03T17:18:32.999Z</time></trkpt><trkpt lat="43.223071388677006" lon="13.132870096914825"><ele>255.0</ele><time>2026-05-03T17:18:33.999Z</time></trkpt><trkpt lat="43.22306444096855" lon="13.133145479205591"><ele>255.0</ele><time>2026-05-03T17:18:34.999Z</time></trkpt><trkpt lat="43.22306488448952" lon="13.13342716289016"><ele>255.0</ele><time>2026-05-03T17:18:35.999Z</time></trkpt><trkpt lat="43.223075192371844" lon="13.13370082593369"><ele>255.0</ele><time>2026-05-03T17:18:36.999Z</time></trkpt><trkpt lat="43.223106301781336" lon="13.13397823698344"><ele>259.0</ele><time>2026-05-03T17:18:37.999Z</time></trkpt><trkpt lat="43.22315365963753" lon="13.134252920376541"><ele>263.0</ele><time>2026-05-03T17:18:38.999Z</time></trkpt><trkpt lat="43.223205062866285" lon="13.134530797612456"><ele>267.0</ele><time>2026-05-03T17:18:39.999Z</time></trkpt><trkpt lat="43.22325531914125" lon="13.134809338125633"><ele>265.3333333333333</ele><time>2026-05-03T17:18:40.999Z</time></trkpt><trkpt lat="43.22330241820467" lon="13.135093199741045"><ele>263.66666666666663</ele><time>2026-05-03T17:18:41.999Z</time></trkpt><trkpt lat="43.22336006184753" lon="13.135370450750806"><ele>262.0</ele><time>2026-05-03T17:18:42.999Z</time></trkpt><trkpt lat="43.22342891439367" lon="13.13563931727349"><ele>260.3333333333333</ele><time>2026-05-03T17:18:43.999Z</time></trkpt><trkpt lat="43.22351541425305" lon="13.13589338798298"><ele>258.6666666666667</ele><time>2026-05-03T17:18:44.999Z</time></trkpt><trkpt lat="43.223618300137005" lon="13.13614212963188"><ele>257.0</ele><time>2026-05-03T17:18:45.999Z</time></trkpt><trkpt lat="43.223732506780046" lon="13.136369855767736"><ele>258.33333333333337</ele><time>2026-05-03T17:18:46.999Z</time></trkpt><trkpt lat="43.2238681993668" lon="13.136586155199064"><ele>259.6666666666667</ele><time>2026-05-03T17:18:47.999Z</time></trkpt><trkpt lat="43.22401843284538" lon="13.136784705085791"><ele>261.0</ele><time>2026-05-03T17:18:48.999Z</time></trkpt><trkpt lat="43.2241803690959" lon="13.136971465414971"><ele>261.0</ele><time>2026-05-03T17:18:49.999Z</time></trkpt><trkpt lat="43.22433514047799" lon="13.137168496372647"><ele>261.0</ele><time>2026-05-03T17:18:50.999Z</time></trkpt><trkpt lat="43.2244936276804" lon="13.137363324186142"><ele>261.0</ele><time>2026-05-03T17:18:51.999Z</time></trkpt><trkpt lat="43.22466145026782" lon="13.13754822488616"><ele>261.3333333333333</ele><time>2026-05-03T17:18:52.999Z</time></trkpt><trkpt lat="43.22483001321596" lon="13.137724763327002"><ele>261.66666666666663</ele><time>2026-05-03T17:18:53.999Z</time></trkpt><trkpt lat="43.225003957321256" lon="13.137897746923494"><ele>262.0</ele><time>2026-05-03T17:18:54.999Z</time></trkpt><trkpt lat="43.22516881178918" lon="13.138075760736866"><ele>264.66666666666663</ele><time>2026-05-03T17:18:55.999Z</time></trkpt><trkpt lat="43.22532965499576" lon="13.138251504847478"><ele>267.3333333333333</ele><time>2026-05-03T17:18:57Z</time></trkpt><trkpt lat="43.2254960256783" lon="13.138430179450706"><ele>270.0</ele><time>2026-05-03T17:18:58Z</time></trkpt><trkpt lat="43.225660143932586" lon="13.138604889393628"><ele>270.0</ele><time>2026-05-03T17:18:59Z</time></trkpt><trkpt lat="43.22582666010762" lon="13.138769416720832"><ele>270.0</ele><time>2026-05-03T17:19:00Z</time></trkpt><trkpt lat="43.225981999721114" lon="13.138937335950978"><ele>270.0</ele><time>2026-05-03T17:19:01Z</time></trkpt><trkpt lat="43.22613637912887" lon="13.13911105309391"><ele>272.6666666666667</ele><time>2026-05-03T17:19:02Z</time></trkpt><trkpt lat="43.22628580105068" lon="13.139293498958962"><ele>275.33333333333337</ele><time>2026-05-03T17:19:03Z</time></trkpt><trkpt lat="43.226427264859545" lon="13.13948648851881"><ele>278.0</ele><time>2026-05-03T17:19:04Z</time></trkpt><trkpt lat="43.22656056248867" lon="13.139688107661499"><ele>273.6666666666667</ele><time>2026-05-03T17:19:05Z</time></trkpt><trkpt lat="43.22669130468656" lon="13.139909105945295"><ele>269.3333333333333</ele><time>2026-05-03T17:19:06Z</time></trkpt><trkpt lat="43.22681542364763" lon="13.140133850922572"><ele>265.0</ele><time>2026-05-03T17:19:07Z</time></trkpt><trkpt lat="43.22694996684669" lon="13.140371887262065"><ele>265.0</ele><time>2026-05-03T17:19:08Z</time></trkpt><trkpt lat="43.22707280426969" lon="13.14060915582799"><ele>265.0</ele><time>2026-05-03T17:19:09Z</time></trkpt><trkpt lat="43.22719897760255" lon="13.140833704326193"><ele>265.0</ele><time>2026-05-03T17:19:10Z</time></trkpt><trkpt lat="43.2273080903898" lon="13.141060700712776"><ele>263.3333333333333</ele><time>2026-05-03T17:19:11Z</time></trkpt><trkpt lat="43.22740788645189" lon="13.141288012081258"><ele>261.6666666666667</ele><time>2026-05-03T17:19:12Z</time></trkpt><trkpt lat="43.227478541913804" lon="13.141518153213424"><ele>260.0</ele><time>2026-05-03T17:19:13Z</time></trkpt><trkpt lat="43.22753121260966" lon="13.141761500896768"><ele>260.0</ele><time>2026-05-03T17:19:14Z</time></trkpt><trkpt lat="43.227552760776696" lon="13.142031924503888"><ele>260.0</ele><time>2026-05-03T17:19:15Z</time></trkpt><trkpt lat="43.22757143719416" lon="13.142299625220712"><ele>260.0</ele><time>2026-05-03T17:19:16Z</time></trkpt><trkpt lat="43.22757022393293" lon="13.142558627762613"><ele>259.33333333333337</ele><time>2026-05-03T17:19:17Z</time></trkpt><trkpt lat="43.22755574706743" lon="13.142822061513735"><ele>258.6666666666667</ele><time>2026-05-03T17:19:18Z</time></trkpt><trkpt lat="43.22754348255614" lon="13.143095542607321"><ele>258.0</ele><time>2026-05-03T17:19:19Z</time></trkpt><trkpt lat="43.227545944961584" lon="13.143384103002392"><ele>259.3333333333333</ele><time>2026-05-03T17:19:20Z</time></trkpt><trkpt lat="43.227559908135795" lon="13.143677324715508"><ele>260.66666666666663</ele><time>2026-05-03T17:19:21Z</time></trkpt><trkpt lat="43.227569923748966" lon="13.143962295082439"><ele>262.0</ele><time>2026-05-03T17:19:22Z</time></trkpt><trkpt lat="43.22759559975359" lon="13.144253522319628"><ele>262.0</ele><time>2026-05-03T17:19:23Z</time></trkpt><trkpt lat="43.227581347805824" lon="13.144508211693905"><ele>262.0</ele><time>2026-05-03T17:19:24Z</time></trkpt><trkpt lat="43.22758736294519" lon="13.144773619409493"><ele>262.0</ele><time>2026-05-03T17:19:25Z</time></trkpt><trkpt lat="43.22754846782711" lon="13.145035442664254"><ele>261.0</ele><time>2026-05-03T17:19:26Z</time></trkpt><trkpt lat="43.22752647217271" lon="13.145292274786629"><ele>260.0</ele><time>2026-05-03T17:19:27Z</time></trkpt><trkpt lat="43.22748981381217" lon="13.145552582349723"><ele>259.0</ele><time>2026-05-03T17:19:28Z</time></trkpt><trkpt lat="43.227435294838884" lon="13.145798616204434"><ele>258.3333333333333</ele><time>2026-05-03T17:19:29Z</time></trkpt><trkpt lat="43.2273662569619" lon="13.14604621582709"><ele>257.6666666666667</ele><time>2026-05-03T17:19:30Z</time></trkpt><trkpt lat="43.22728995570444" lon="13.146294794603463"><ele>257.0</ele><time>2026-05-03T17:19:31Z</time></trkpt><trkpt lat="43.22721230480345" lon="13.146542389710396"><ele>253.66666666666669</ele><time>2026-05-03T17:19:32Z</time></trkpt><trkpt lat="43.22713464799323" lon="13.14679000355617"><ele>250.33333333333331</ele><time>2026-05-03T17:19:33Z</time></trkpt><trkpt lat="43.227062026489385" lon="13.147033542718422"><ele>247.0</ele><time>2026-05-03T17:19:34Z</time></trkpt><trkpt lat="43.22700164109534" lon="13.147278199899617"><ele>248.0</ele><time>2026-05-03T17:19:35Z</time></trkpt><trkpt lat="43.22695300565337" lon="13.14752799336594"><ele>249.0</ele><time>2026-05-03T17:19:36Z</time></trkpt><trkpt lat="43.22692425869484" lon="13.147790362667168"><ele>250.0</ele><time>2026-05-03T17:19:37Z</time></trkpt><trkpt lat="43.22693427401634" lon="13.148056493390401"><ele>250.0</ele><time>2026-05-03T17:19:38Z</time></trkpt><trkpt lat="43.22694545451959" lon="13.148318795581833"><ele>250.0</ele><time>2026-05-03T17:19:39Z</time></trkpt><trkpt lat="43.22697671520008" lon="13.148581180161305"><ele>250.0</ele><time>2026-05-03T17:19:40Z</time></trkpt><trkpt lat="43.22700358401803" lon="13.148847258845901"><ele>250.33333333333331</ele><time>2026-05-03T17:19:41Z</time></trkpt><trkpt lat="43.22707118452892" lon="13.149103508703003"><ele>250.66666666666669</ele><time>2026-05-03T17:19:42Z</time></trkpt><trkpt lat="43.22712985351231" lon="13.149355737083276"><ele>251.0</ele><time>2026-05-03T17:19:43Z</time></trkpt><trkpt lat="43.22720626483037" lon="13.14960034754467"><ele>251.0</ele><time>2026-05-03T17:19:44Z</time></trkpt><trkpt lat="43.227291270643086" lon="13.149833611763668"><ele>251.0</ele><time>2026-05-03T17:19:45Z</time></trkpt><trkpt lat="43.22738691294518" lon="13.150067433931968"><ele>251.0</ele><time>2026-05-03T17:19:46Z</time></trkpt><trkpt lat="43.22748757144149" lon="13.150301833063441"><ele>250.0</ele><time>2026-05-03T17:19:47Z</time></trkpt><trkpt lat="43.22757709530997" lon="13.150522883153203"><ele>249.0</ele><time>2026-05-03T17:19:48Z</time></trkpt><trkpt lat="43.227660629210284" lon="13.150734559047333"><ele>248.0</ele><time>2026-05-03T17:19:48.999Z</time></trkpt><trkpt lat="43.227740345457555" lon="13.150937697796103"><ele>248.0</ele><time>2026-05-03T17:19:49.999Z</time></trkpt><trkpt lat="43.22781662705229" lon="13.151132563495246"><ele>248.0</ele><time>2026-05-03T17:19:50.999Z</time></trkpt><trkpt lat="43.22789219646279" lon="13.151327385750161"><ele>248.0</ele><time>2026-05-03T17:19:51.999Z</time></trkpt><trkpt lat="43.22796239659817" lon="13.15151109989428"><ele>247.25</ele><time>2026-05-03T17:19:52.999Z</time></trkpt><trkpt lat="43.22803613363769" lon="13.151693119589778"><ele>246.5</ele><time>2026-05-03T17:19:53.999Z</time></trkpt><trkpt lat="43.228109980243715" lon="13.151868341101297"><ele>245.75</ele><time>2026-05-03T17:19:54.999Z</time></trkpt><trkpt lat="43.22818112859607" lon="13.152040014670957"><ele>245.0</ele><time>2026-05-03T17:19:55.999Z</time></trkpt><trkpt lat="43.22824273922683" lon="13.152215645158403"><ele>247.0</ele><time>2026-05-03T17:19:56.999Z</time></trkpt><trkpt lat="43.228323566614215" lon="13.152377789919779"><ele>249.0</ele><time>2026-05-03T17:19:57.999Z</time></trkpt><trkpt lat="43.22838987920364" lon="13.152554479500461"><ele>251.0</ele><time>2026-05-03T17:19:58.999Z</time></trkpt><trkpt lat="43.22845833286895" lon="13.152728680034425"><ele>253.0</ele><time>2026-05-03T17:19:59.999Z</time></trkpt><trkpt lat="43.22852755571927" lon="13.152903320687114"><ele>253.0</ele><time>2026-05-03T17:20:00.999Z</time></trkpt><trkpt lat="43.22859551484888" lon="13.15307652338319"><ele>253.0</ele><time>2026-05-03T17:20:01.999Z</time></trkpt><trkpt lat="43.228666268427965" lon="13.153252055690807"><ele>253.0</ele><time>2026-05-03T17:20:02.999Z</time></trkpt><trkpt lat="43.22873491280736" lon="13.153426099757684"><ele>253.0</ele><time>2026-05-03T17:20:03.999Z</time></trkpt><trkpt lat="43.22880233579669" lon="13.153595336284186"><ele>253.0</ele><time>2026-05-03T17:20:04.999Z</time></trkpt><trkpt lat="43.22886997511093" lon="13.153768374308584"><ele>253.0</ele><time>2026-05-03T17:20:05.999Z</time></trkpt><trkpt lat="43.228941522079964" lon="13.153941455666892"><ele>253.0</ele><time>2026-05-03T17:20:06.999Z</time></trkpt><trkpt lat="43.22901168831089" lon="13.15411628793651"><ele>253.0</ele><time>2026-05-03T17:20:07.999Z</time></trkpt><trkpt lat="43.22907766116552" lon="13.154287733674318"><ele>253.0</ele><time>2026-05-03T17:20:08.999Z</time></trkpt><trkpt lat="43.22913675659513" lon="13.154436251039956"><ele>253.0</ele><time>2026-05-03T17:20:09.999Z</time></trkpt><trkpt lat="43.22919708195585" lon="13.154579396553359"><ele>253.0</ele><time>2026-05-03T17:20:10.999Z</time></trkpt><trkpt lat="43.22925661245363" lon="13.154730631492983"><ele>253.0</ele><time>2026-05-03T17:20:11.999Z</time></trkpt><trkpt lat="43.229317474419894" lon="13.154885211544526"><ele>250.5</ele><time>2026-05-03T17:20:12.999Z</time></trkpt><trkpt lat="43.22937957854544" lon="13.155040484948218"><ele>248.0</ele><time>2026-05-03T17:20:13.999Z</time></trkpt><trkpt lat="43.229443397676285" lon="13.155199487996523"><ele>245.5</ele><time>2026-05-03T17:20:14.999Z</time></trkpt><trkpt lat="43.229509009317084" lon="13.155360074357194"><ele>243.0</ele><time>2026-05-03T17:20:15.999Z</time></trkpt><trkpt lat="43.22957516125102" lon="13.155523001176286"><ele>243.0</ele><time>2026-05-03T17:20:16.999Z</time></trkpt><trkpt lat="43.22964173166239" lon="13.155691648999039"><ele>243.0</ele><time>2026-05-03T17:20:17.999Z</time></trkpt><trkpt lat="43.22971101102604" lon="13.155861930099835"><ele>243.0</ele><time>2026-05-03T17:20:18.999Z</time></trkpt><trkpt lat="43.2297817997495" lon="13.1560385627005"><ele>243.0</ele><time>2026-05-03T17:20:19.999Z</time></trkpt><trkpt lat="43.22985190531704" lon="13.156214103035577"><ele>246.33333333333331</ele><time>2026-05-03T17:20:20.999Z</time></trkpt><trkpt lat="43.22992391952913" lon="13.156397583908623"><ele>249.66666666666666</ele><time>2026-05-03T17:20:21.999Z</time></trkpt><trkpt lat="43.23000130703472" lon="13.15658930014672"><ele>253.0</ele><time>2026-05-03T17:20:22.999Z</time></trkpt><trkpt lat="43.23006985629753" lon="13.156774117245979"><ele>253.0</ele><time>2026-05-03T17:20:23.999Z</time></trkpt><trkpt lat="43.23014444811506" lon="13.156966518194555"><ele>253.0</ele><time>2026-05-03T17:20:24.999Z</time></trkpt><trkpt lat="43.23021844946309" lon="13.157158970937743"><ele>253.0</ele><time>2026-05-03T17:20:25.999Z</time></trkpt><trkpt lat="43.23029767816291" lon="13.157352207126143"><ele>250.33333333333331</ele><time>2026-05-03T17:20:26.999Z</time></trkpt><trkpt lat="43.23038003895719" lon="13.157551778810188"><ele>247.66666666666669</ele><time>2026-05-03T17:20:27.999Z</time></trkpt><trkpt lat="43.23045550160024" lon="13.157752343629395"><ele>245.0</ele><time>2026-05-03T17:20:28.999Z</time></trkpt><trkpt lat="43.23052163990479" lon="13.15795034216679"><ele>245.0</ele><time>2026-05-03T17:20:29.999Z</time></trkpt><trkpt lat="43.23057882372541" lon="13.158150768981885"><ele>245.0</ele><time>2026-05-03T17:20:30.999Z</time></trkpt><trkpt lat="43.230632294679054" lon="13.158356802916925"><ele>245.0</ele><time>2026-05-03T17:20:31.999Z</time></trkpt><trkpt lat="43.23067501242492" lon="13.158561388036782"><ele>250.66666666666669</ele><time>2026-05-03T17:20:32.999Z</time></trkpt><trkpt lat="43.230711745094034" lon="13.158767065836924"><ele>256.3333333333333</ele><time>2026-05-03T17:20:33.999Z</time></trkpt><trkpt lat="43.230746434666145" lon="13.15897835714268"><ele>262.0</ele><time>2026-05-03T17:20:34.999Z</time></trkpt><trkpt lat="43.23076940054177" lon="13.159200140191205"><ele>262.0</ele><time>2026-05-03T17:20:35.999Z</time></trkpt><trkpt lat="43.23079094103267" lon="13.159431511365172"><ele>262.0</ele><time>2026-05-03T17:20:36.999Z</time></trkpt><trkpt lat="43.23080556700842" lon="13.1596702419686"><ele>262.0</ele><time>2026-05-03T17:20:37.999Z</time></trkpt><trkpt lat="43.23081442882989" lon="13.159919700735118"><ele>260.66666666666663</ele><time>2026-05-03T17:20:38.999Z</time></trkpt><trkpt lat="43.230825906213" lon="13.160169010262662"><ele>259.3333333333333</ele><time>2026-05-03T17:20:39.999Z</time></trkpt><trkpt lat="43.230843285181265" lon="13.160423931849186"><ele>258.0</ele><time>2026-05-03T17:20:40.999Z</time></trkpt><trkpt lat="43.23085730987685" lon="13.160675341899557"><ele>258.0</ele><time>2026-05-03T17:20:41.999Z</time></trkpt><trkpt lat="43.23087213660578" lon="13.160940383510386"><ele>258.0</ele><time>2026-05-03T17:20:42.999Z</time></trkpt><trkpt lat="43.23088155158146" lon="13.161196204237918"><ele>258.0</ele><time>2026-05-03T17:20:43.999Z</time></trkpt><trkpt lat="43.230892023127936" lon="13.161458269172556"><ele>258.0</ele><time>2026-05-03T17:20:44.999Z</time></trkpt><trkpt lat="43.23091084038769" lon="13.161720528135588"><ele>258.0</ele><time>2026-05-03T17:20:45.999Z</time></trkpt><trkpt lat="43.23092695641755" lon="13.161988491461722"><ele>258.0</ele><time>2026-05-03T17:20:46.999Z</time></trkpt><trkpt lat="43.23093810054695" lon="13.162257204555466"><ele>259.0</ele><time>2026-05-03T17:20:47.999Z</time></trkpt><trkpt lat="43.23094464220459" lon="13.162526380427938"><ele>260.0</ele><time>2026-05-03T17:20:48.999Z</time></trkpt><trkpt lat="43.230946362017846" lon="13.162797581389041"><ele>261.0</ele><time>2026-05-03T17:20:49.999Z</time></trkpt><trkpt lat="43.230944554511574" lon="13.163065991698044"><ele>261.6666666666667</ele><time>2026-05-03T17:20:50.999Z</time></trkpt><trkpt lat="43.230943078518145" lon="13.163335020938762"><ele>262.33333333333337</ele><time>2026-05-03T17:20:51.999Z</time></trkpt><trkpt lat="43.23094697991412" lon="13.163605689695776"><ele>263.0</ele><time>2026-05-03T17:20:52.999Z</time></trkpt><trkpt lat="43.23096264820737" lon="13.163872253638726"><ele>262.0</ele><time>2026-05-03T17:20:53.999Z</time></trkpt><trkpt lat="43.23099025405777" lon="13.164139280506621"><ele>261.0</ele><time>2026-05-03T17:20:54.999Z</time></trkpt><trkpt lat="43.231032319857604" lon="13.164398488888242"><ele>260.0</ele><time>2026-05-03T17:20:55.999Z</time></trkpt><trkpt lat="43.23109359685025" lon="13.164647464473484"><ele>256.6666666666667</ele><time>2026-05-03T17:20:56.999Z</time></trkpt><trkpt lat="43.231169750033324" lon="13.16489517477676"><ele>253.33333333333331</ele><time>2026-05-03T17:20:57.999Z</time></trkpt><trkpt lat="43.23125782533419" lon="13.165143804774178"><ele>250.0</ele><time>2026-05-03T17:20:58.999Z</time></trkpt><trkpt lat="43.231357466956844" lon="13.165389082143392"><ele>250.0</ele><time>2026-05-03T17:20:59.998Z</time></trkpt><trkpt lat="43.23146815235976" lon="13.165632414213299"><ele>250.0</ele><time>2026-05-03T17:21:00.998Z</time></trkpt><trkpt lat="43.23158313276561" lon="13.16586997759285"><ele>250.0</ele><time>2026-05-03T17:21:02Z</time></trkpt><trkpt lat="43.23170197487085" lon="13.166110803233245"><ele>250.66666666666666</ele><time>2026-05-03T17:21:03Z</time></trkpt><trkpt lat="43.2318203279564" lon="13.166352727535461"><ele>251.33333333333331</ele><time>2026-05-03T17:21:04Z</time></trkpt><trkpt lat="43.231936356565214" lon="13.166599448145462"><ele>252.0</ele><time>2026-05-03T17:21:05Z</time></trkpt><trkpt lat="43.23205048779584" lon="13.166849874651302"><ele>250.33333333333331</ele><time>2026-05-03T17:21:06Z</time></trkpt><trkpt lat="43.23216442374811" lon="13.167104100984927"><ele>248.66666666666666</ele><time>2026-05-03T17:21:07Z</time></trkpt><trkpt lat="43.23227825036725" lon="13.167359440946402"><ele>247.0</ele><time>2026-05-03T17:21:08Z</time></trkpt><trkpt lat="43.23238627718329" lon="13.167618704867529"><ele>247.0</ele><time>2026-05-03T17:21:09Z</time></trkpt><trkpt lat="43.23248576545415" lon="13.167885099844924"><ele>247.0</ele><time>2026-05-03T17:21:10Z</time></trkpt><trkpt lat="43.2325692843639" lon="13.168162058071164"><ele>247.0</ele><time>2026-05-03T17:21:11Z</time></trkpt><trkpt lat="43.232637747305326" lon="13.168440991181823"><ele>247.33333333333331</ele><time>2026-05-03T17:21:12Z</time></trkpt><trkpt lat="43.23269502911692" lon="13.168721262931415"><ele>247.66666666666669</ele><time>2026-05-03T17:21:13Z</time></trkpt><trkpt lat="43.232749027989264" lon="13.169003640407693"><ele>248.0</ele><time>2026-05-03T17:21:14Z</time></trkpt><trkpt lat="43.23280095238228" lon="13.16928167762616"><ele>248.0</ele><time>2026-05-03T17:21:15Z</time></trkpt><trkpt lat="43.23285277882497" lon="13.169550649017028"><ele>248.0</ele><time>2026-05-03T17:21:16Z</time></trkpt><trkpt lat="43.23290901113353" lon="13.169824571958484"><ele>248.0</ele><time>2026-05-03T17:21:17Z</time></trkpt><trkpt lat="43.23296804447564" lon="13.17008970205165"><ele>246.66666666666669</ele><time>2026-05-03T17:21:18Z</time></trkpt><trkpt lat="43.23302245841787" lon="13.170362530758855"><ele>245.33333333333331</ele><time>2026-05-03T17:21:19Z</time></trkpt><trkpt lat="43.233075393770015" lon="13.170629172582291"><ele>244.0</ele><time>2026-05-03T17:21:20Z</time></trkpt><trkpt lat="43.23313043650387" lon="13.17089873042494"><ele>249.33333333333331</ele><time>2026-05-03T17:21:21Z</time></trkpt><trkpt lat="43.23318290775032" lon="13.171164183636044"><ele>254.66666666666669</ele><time>2026-05-03T17:21:22Z</time></trkpt><trkpt lat="43.23323540879482" lon="13.171434601009679"><ele>260.0</ele><time>2026-05-03T17:21:23Z</time></trkpt><trkpt lat="43.23328742703042" lon="13.171704496323938"><ele>260.0</ele><time>2026-05-03T17:21:24Z</time></trkpt><trkpt lat="43.2333410235049" lon="13.171978413831457"><ele>260.0</ele><time>2026-05-03T17:21:25Z</time></trkpt><trkpt lat="43.233395971463125" lon="13.17225214743406"><ele>260.0</ele><time>2026-05-03T17:21:26Z</time></trkpt><trkpt lat="43.23345404443846" lon="13.172532640445057"><ele>257.6666666666667</ele><time>2026-05-03T17:21:27Z</time></trkpt><trkpt lat="43.23351356335133" lon="13.172808901881385"><ele>255.33333333333331</ele><time>2026-05-03T17:21:28Z</time></trkpt><trkpt lat="43.233574010774674" lon="13.173085820393883"><ele>253.0</ele><time>2026-05-03T17:21:29Z</time></trkpt><trkpt lat="43.23362954038485" lon="13.173360500475448"><ele>252.0</ele><time>2026-05-03T17:21:30Z</time></trkpt><trkpt lat="43.233669683061365" lon="13.173639188369652"><ele>251.0</ele><time>2026-05-03T17:21:31Z</time></trkpt><trkpt lat="43.23369109656702" lon="13.173920099287246"><ele>250.0</ele><time>2026-05-03T17:21:32Z</time></trkpt><trkpt lat="43.23369361215808" lon="13.174202077502336"><ele>250.0</ele><time>2026-05-03T17:21:33Z</time></trkpt><trkpt lat="43.23369213020826" lon="13.174480683883433"><ele>250.0</ele><time>2026-05-03T17:21:34Z</time></trkpt><trkpt lat="43.23369245926167" lon="13.17477072121652"><ele>250.0</ele><time>2026-05-03T17:21:35Z</time></trkpt><trkpt lat="43.23368779993699" lon="13.175059726131456"><ele>250.0</ele><time>2026-05-03T17:21:36Z</time></trkpt><trkpt lat="43.23368362568519" lon="13.175345713202661"><ele>250.0</ele><time>2026-05-03T17:21:37Z</time></trkpt><trkpt lat="43.23368177251566" lon="13.175636598418375"><ele>250.0</ele><time>2026-05-03T17:21:38Z</time></trkpt><trkpt lat="43.23367836489665" lon="13.175929443920754"><ele>250.0</ele><time>2026-05-03T17:21:39Z</time></trkpt><trkpt lat="43.23367916489804" lon="13.176224437747978"><ele>250.0</ele><time>2026-05-03T17:21:40Z</time></trkpt><trkpt lat="43.23368120575347" lon="13.17651884004784"><ele>250.0</ele><time>2026-05-03T17:21:41Z</time></trkpt><trkpt lat="43.23368161173448" lon="13.176816065730154"><ele>248.66666666666666</ele><time>2026-05-03T17:21:42Z</time></trkpt><trkpt lat="43.23368000965693" lon="13.177112898958717"><ele>247.33333333333331</ele><time>2026-05-03T17:21:43Z</time></trkpt><trkpt lat="43.23367843592555" lon="13.177406316135599"><ele>246.0</ele><time>2026-05-03T17:21:44Z</time></trkpt><trkpt lat="43.23367259133792" lon="13.177686733689526"><ele>245.66666666666669</ele><time>2026-05-03T17:21:45Z</time></trkpt><trkpt lat="43.23365754368259" lon="13.17795417726918"><ele>245.33333333333334</ele><time>2026-05-03T17:21:46Z</time></trkpt><trkpt lat="43.233634328309314" lon="13.178225888722132"><ele>245.0</ele><time>2026-05-03T17:21:47Z</time></trkpt><trkpt lat="43.233611647349456" lon="13.17849430931898"><ele>244.66666666666669</ele><time>2026-05-03T17:21:48Z</time></trkpt><trkpt lat="43.233594585765545" lon="13.178751710232968"><ele>244.33333333333331</ele><time>2026-05-03T17:21:49Z</time></trkpt><trkpt lat="43.233588761440785" lon="13.179000580361283"><ele>244.0</ele><time>2026-05-03T17:21:50Z</time></trkpt><trkpt lat="43.2335916904831" lon="13.179241600060802"><ele>243.33333333333331</ele><time>2026-05-03T17:21:51Z</time></trkpt><trkpt lat="43.23364078194756" lon="13.179490802340009"><ele>242.66666666666669</ele><time>2026-05-03T17:21:51.999Z</time></trkpt><trkpt lat="43.23366868543947" lon="13.179737814149359"><ele>242.0</ele><time>2026-05-03T17:21:52.999Z</time></trkpt><trkpt lat="43.233710827781096" lon="13.179987766235133"><ele>241.33333333333334</ele><time>2026-05-03T17:21:53.999Z</time></trkpt><trkpt lat="43.23375991635066" lon="13.180231165921104"><ele>240.66666666666669</ele><time>2026-05-03T17:21:54.999Z</time></trkpt><trkpt lat="43.23381318759292" lon="13.180479960500106"><ele>240.0</ele><time>2026-05-03T17:21:55.999Z</time></trkpt><trkpt lat="43.233864770979544" lon="13.180730457213192"><ele>238.66666666666669</ele><time>2026-05-03T17:21:56.999Z</time></trkpt><trkpt lat="43.23391409627748" lon="13.180976591533597"><ele>237.33333333333334</ele><time>2026-05-03T17:21:57.999Z</time></trkpt><trkpt lat="43.23396587281996" lon="13.181225353368847"><ele>236.0</ele><time>2026-05-03T17:21:58.999Z</time></trkpt><trkpt lat="43.234005002177454" lon="13.1814701592552"><ele>237.33333333333334</ele><time>2026-05-03T17:21:59.999Z</time></trkpt><trkpt lat="43.234059325066504" lon="13.181727239528044"><ele>238.66666666666669</ele><time>2026-05-03T17:22:00.999Z</time></trkpt><trkpt lat="43.23410818061631" lon="13.181959601736567"><ele>240.0</ele><time>2026-05-03T17:22:01.999Z</time></trkpt><trkpt lat="43.23415634485511" lon="13.182183775490806"><ele>239.66666666666669</ele><time>2026-05-03T17:22:02.999Z</time></trkpt><trkpt lat="43.234205289144434" lon="13.182410318855453"><ele>239.33333333333334</ele><time>2026-05-03T17:22:03.999Z</time></trkpt><trkpt lat="43.234252498601776" lon="13.182644443141672"><ele>239.0</ele><time>2026-05-03T17:22:04.999Z</time></trkpt><trkpt lat="43.23429048625587" lon="13.182868930952042"><ele>239.0</ele><time>2026-05-03T17:22:05.999Z</time></trkpt><trkpt lat="43.23432316259815" lon="13.18308939936852"><ele>239.0</ele><time>2026-05-03T17:22:06.999Z</time></trkpt><trkpt lat="43.234350367913095" lon="13.183307809030579"><ele>239.0</ele><time>2026-05-03T17:22:07.999Z</time></trkpt><trkpt lat="43.23436072758475" lon="13.183520774518561"><ele>238.75</ele><time>2026-05-03T17:22:08.999Z</time></trkpt><trkpt lat="43.2343520970485" lon="13.183731639994587"><ele>238.5</ele><time>2026-05-03T17:22:09.999Z</time></trkpt><trkpt lat="43.23432903836272" lon="13.183930624033353"><ele>238.25</ele><time>2026-05-03T17:22:10.999Z</time></trkpt><trkpt lat="43.23429664113884" lon="13.184120374807444"><ele>238.0</ele><time>2026-05-03T17:22:11.999Z</time></trkpt><trkpt lat="43.2342693251152" lon="13.184292727192641"><ele>237.0</ele><time>2026-05-03T17:22:12.999Z</time></trkpt><trkpt lat="43.234252626700176" lon="13.184468019806365"><ele>236.0</ele><time>2026-05-03T17:22:13.999Z</time></trkpt><trkpt lat="43.23424949643196" lon="13.184620765197815"><ele>235.0</ele><time>2026-05-03T17:22:14.999Z</time></trkpt><trkpt lat="43.23427004585841" lon="13.184772509354433"><ele>234.0</ele><time>2026-05-03T17:22:15.999Z</time></trkpt><trkpt lat="43.23429488262037" lon="13.184921539948572"><ele>233.79999999999998</ele><time>2026-05-03T17:22:16.999Z</time></trkpt><trkpt lat="43.2343268460133" lon="13.185049866349416"><ele>233.59999999999997</ele><time>2026-05-03T17:22:17.999Z</time></trkpt><trkpt lat="43.234351803982904" lon="13.18517856664745"><ele>233.4</ele><time>2026-05-03T17:22:18.999Z</time></trkpt><trkpt lat="43.234377880559954" lon="13.185293499642242"><ele>233.2</ele><time>2026-05-03T17:22:19.999Z</time></trkpt><trkpt lat="43.23439383372933" lon="13.18539864346922"><ele>233.0</ele><time>2026-05-03T17:22:20.999Z</time></trkpt><trkpt lat="43.234359856019566" lon="13.185542965617618"><ele>233.00000000000003</ele><time>2026-05-03T17:22:22.999Z</time></trkpt><trkpt lat="43.23428324347019" lon="13.18557765112543"><ele>233.0</ele><time>2026-05-03T17:22:23.999Z</time></trkpt><trkpt lat="43.23421903094214" lon="13.185606611736105"><ele>233.0</ele><time>2026-05-03T17:22:24.999Z</time></trkpt><trkpt lat="43.234145492860065" lon="13.185629612776921"><ele>233.0</ele><time>2026-05-03T17:22:25.999Z</time></trkpt><trkpt lat="43.23406599082256" lon="13.185654021463774"><ele>233.00000000000003</ele><time>2026-05-03T17:22:26.999Z</time></trkpt><trkpt lat="43.23398899306678" lon="13.185683711349661"><ele>233.0</ele><time>2026-05-03T17:22:27.999Z</time></trkpt><trkpt lat="43.233903460260294" lon="13.185719651734225"><ele>232.83333333333334</ele><time>2026-05-03T17:22:28.999Z</time></trkpt><trkpt lat="43.23382462286133" lon="13.185751327620183"><ele>232.66666666666669</ele><time>2026-05-03T17:22:29.999Z</time></trkpt><trkpt lat="43.23374782359039" lon="13.185784617303893"><ele>232.5</ele><time>2026-05-03T17:22:30.999Z</time></trkpt><trkpt lat="43.23367544872579" lon="13.185816317601653"><ele>232.33333333333331</ele><time>2026-05-03T17:22:31.999Z</time></trkpt><trkpt lat="43.233606440700925" lon="13.185848798102368"><ele>232.16666666666666</ele><time>2026-05-03T17:22:32.999Z</time></trkpt><trkpt lat="43.23354446323692" lon="13.18589583457346"><ele>232.0</ele><time>2026-05-03T17:22:33.999Z</time></trkpt><trkpt lat="43.23347712501616" lon="13.18601702252009"><ele>231.99999999999997</ele><time>2026-05-03T17:22:35.999Z</time></trkpt><trkpt lat="43.23351245753052" lon="13.186095801886884"><ele>232.0</ele><time>2026-05-03T17:22:36.999Z</time></trkpt><trkpt lat="43.23357775287632" lon="13.186175259976155"><ele>232.0</ele><time>2026-05-03T17:22:38.999Z</time></trkpt><trkpt lat="43.23365238906117" lon="13.186202384602295"><ele>232.0</ele><time>2026-05-03T17:22:40.999Z</time></trkpt><trkpt lat="43.23356522137906" lon="13.18633876752271"><ele>231.99999999999997</ele><time>2026-05-03T17:22:42.999Z</time></trkpt><trkpt lat="43.2335865435002" lon="13.186439703044975"><ele>232.0</ele><time>2026-05-03T17:22:44.999Z</time></trkpt><trkpt lat="43.233818693651756" lon="13.186362461030882"><ele>231.99999999999997</ele><time>2026-05-03T17:22:46.999Z</time></trkpt><trkpt lat="43.23391589021587" lon="13.18648453443073"><ele>232.0</ele><time>2026-05-03T17:22:49.999Z</time></trkpt><trkpt lat="43.23397898408532" lon="13.18647514072447"><ele>232.0</ele><time>2026-05-03T17:22:51.999Z</time></trkpt><trkpt lat="43.23405451502864" lon="13.18646617467756"><ele>232.0</ele><time>2026-05-03T17:22:53.999Z</time></trkpt><trkpt lat="43.23412051706896" lon="13.186459199756092"><ele>231.99999999999997</ele><time>2026-05-03T17:22:55.999Z</time></trkpt><trkpt lat="43.234194955078195" lon="13.186451333339322"><ele>232.0</ele><time>2026-05-03T17:22:58.999Z</time></trkpt><trkpt lat="43.234190596088176" lon="13.186245445705236"><ele>231.66666666666666</ele><time>2026-05-03T17:24:07.999Z</time></trkpt><trkpt lat="43.23415293590548" lon="13.186455773830007"><ele>231.33333333333331</ele><time>2026-05-03T17:24:31.074Z</time></trkpt><trkpt lat="43.23402323026734" lon="13.186169054598302"><ele>231.0</ele><time>2026-05-03T17:27:24.997Z</time></trkpt><trkpt lat="43.23410350829947" lon="13.186217979735387"><ele>231.0</ele><time>2026-05-03T17:27:27.997Z</time></trkpt><trkpt lat="43.234189889866684" lon="13.1861731308093"><ele>231.0</ele><time>2026-05-03T17:27:39Z</time></trkpt><trkpt lat="43.23413631214795" lon="13.186248765561627"><ele>231.0</ele><time>2026-05-03T17:28:54.999Z</time></trkpt><trkpt lat="43.23407332678856" lon="13.18628477578468"><ele>231.0</ele><time>2026-05-03T17:28:56.999Z</time></trkpt><trkpt lat="43.234004765668004" lon="13.18631003671971"><ele>231.0</ele><time>2026-05-03T17:28:58.999Z</time></trkpt><trkpt lat="43.2339312335183" lon="13.186316445885824"><ele>231.0</ele><time>2026-05-03T17:29:00.999Z</time></trkpt><trkpt lat="43.23385388578481" lon="13.186450657102743"><ele>231.20000000000002</ele><time>2026-05-03T17:29:02.999Z</time></trkpt><trkpt lat="43.23377736926124" lon="13.186466423065134"><ele>231.40000000000003</ele><time>2026-05-03T17:29:05.999Z</time></trkpt><trkpt lat="43.23367359343608" lon="13.186354513406652"><ele>231.6</ele><time>2026-05-03T17:29:07.999Z</time></trkpt><trkpt lat="43.233680577606926" lon="13.186232065282473"><ele>231.8</ele><time>2026-05-03T17:29:10.999Z</time></trkpt><trkpt lat="43.23370668000605" lon="13.186103761739387"><ele>232.0</ele><time>2026-05-03T17:29:12.999Z</time></trkpt><trkpt lat="43.233719509438586" lon="13.18600589818615"><ele>232.0</ele><time>2026-05-03T17:29:14.999Z</time></trkpt><trkpt lat="43.23366730824865" lon="13.18586521700943"><ele>232.0</ele><time>2026-05-03T17:29:17.999Z</time></trkpt><trkpt lat="43.23356585224694" lon="13.185852429991959"><ele>232.0</ele><time>2026-05-03T17:29:19.999Z</time></trkpt><trkpt lat="43.233505569472094" lon="13.185996120932622"><ele>232.0</ele><time>2026-05-03T17:29:21.999Z</time></trkpt><trkpt lat="43.23351370471655" lon="13.18615024585236"><ele>231.99999999999997</ele><time>2026-05-03T17:29:23.999Z</time></trkpt><trkpt lat="43.23355579711617" lon="13.186215715631395"><ele>232.0</ele><time>2026-05-03T17:29:24.999Z</time></trkpt><trkpt lat="43.23354296350988" lon="13.186324935402535"><ele>232.0</ele><time>2026-05-03T17:29:25.999Z</time></trkpt><trkpt lat="43.23356395728978" lon="13.186422774802809"><ele>232.0</ele><time>2026-05-03T17:29:26.999Z</time></trkpt><trkpt lat="43.233583808068055" lon="13.186525482807646"><ele>231.99999999999997</ele><time>2026-05-03T17:29:27.999Z</time></trkpt><trkpt lat="43.2336037163866" lon="13.18663258575618"><ele>232.0</ele><time>2026-05-03T17:29:28.999Z</time></trkpt><trkpt lat="43.23362429406006" lon="13.186743979310544"><ele>231.99999999999997</ele><time>2026-05-03T17:29:29.999Z</time></trkpt><trkpt lat="43.23364648579437" lon="13.186855946088862"><ele>232.0</ele><time>2026-05-03T17:29:30.999Z</time></trkpt><trkpt lat="43.23366714118745" lon="13.186973360437449"><ele>232.0</ele><time>2026-05-03T17:29:31.999Z</time></trkpt><trkpt lat="43.23368743892902" lon="13.187092640070192"><ele>232.0</ele><time>2026-05-03T17:29:32.999Z</time></trkpt><trkpt lat="43.233709751300786" lon="13.187213610770138"><ele>231.99999999999997</ele><time>2026-05-03T17:29:33.999Z</time></trkpt><trkpt lat="43.23373185301794" lon="13.1873379601241"><ele>232.0</ele><time>2026-05-03T17:29:34.999Z</time></trkpt><trkpt lat="43.23375398690035" lon="13.18746217986027"><ele>232.0</ele><time>2026-05-03T17:29:36Z</time></trkpt><trkpt lat="43.23377701452909" lon="13.18758659944612"><ele>232.0</ele><time>2026-05-03T17:29:37Z</time></trkpt><trkpt lat="43.233800619266056" lon="13.187710527394984"><ele>232.0</ele><time>2026-05-03T17:29:38Z</time></trkpt><trkpt lat="43.23382508954821" lon="13.187832717945973"><ele>232.0</ele><time>2026-05-03T17:29:39Z</time></trkpt><trkpt lat="43.23384746039939" lon="13.187953080283352"><ele>232.0</ele><time>2026-05-03T17:29:40Z</time></trkpt><trkpt lat="43.23387095526897" lon="13.188065531243389"><ele>232.00000000000003</ele><time>2026-05-03T17:29:41Z</time></trkpt><trkpt lat="43.23388975136473" lon="13.188171564087014"><ele>232.0</ele><time>2026-05-03T17:29:42Z</time></trkpt><trkpt lat="43.23390451143625" lon="13.188263776102252"><ele>232.00000000000003</ele><time>2026-05-03T17:29:43Z</time></trkpt><trkpt lat="43.23392066807078" lon="13.188350168252994"><ele>232.00000000000003</ele><time>2026-05-03T17:29:44Z</time></trkpt><trkpt lat="43.23393375234759" lon="13.188437591740165"><ele>232.0</ele><time>2026-05-03T17:29:45Z</time></trkpt><trkpt lat="43.2339473447333" lon="13.188528115922969"><ele>232.00000000000003</ele><time>2026-05-03T17:29:46Z</time></trkpt><trkpt lat="43.2339625004319" lon="13.188624751835262"><ele>232.00000000000003</ele><time>2026-05-03T17:29:47Z</time></trkpt><trkpt lat="43.23397981238565" lon="13.188720800029634"><ele>232.33333333333331</ele><time>2026-05-03T17:29:48Z</time></trkpt><trkpt lat="43.23399756240176" lon="13.18881790692838"><ele>232.66666666666666</ele><time>2026-05-03T17:29:49Z</time></trkpt><trkpt lat="43.23401346884301" lon="13.18891728836366"><ele>233.0</ele><time>2026-05-03T17:29:50Z</time></trkpt><trkpt lat="43.234030653786654" lon="13.189016723213234"><ele>233.33333333333331</ele><time>2026-05-03T17:29:51Z</time></trkpt><trkpt lat="43.23404985728339" lon="13.189123377079436"><ele>233.66666666666666</ele><time>2026-05-03T17:29:52Z</time></trkpt><trkpt lat="43.23406644424831" lon="13.189226624204341"><ele>234.0</ele><time>2026-05-03T17:29:53Z</time></trkpt><trkpt lat="43.23408447983561" lon="13.189330218662109"><ele>234.0</ele><time>2026-05-03T17:29:54Z</time></trkpt><trkpt lat="43.23410536706971" lon="13.18943630774434"><ele>234.0</ele><time>2026-05-03T17:29:55Z</time></trkpt><trkpt lat="43.23412674028184" lon="13.189545598384393"><ele>234.0</ele><time>2026-05-03T17:29:56Z</time></trkpt><trkpt lat="43.23414741190615" lon="13.189656761224066"><ele>234.0</ele><time>2026-05-03T17:29:57Z</time></trkpt><trkpt lat="43.23416616918815" lon="13.189767166323682"><ele>234.0</ele><time>2026-05-03T17:29:58Z</time></trkpt><trkpt lat="43.23418397795694" lon="13.189870653107267"><ele>234.0</ele><time>2026-05-03T17:29:59Z</time></trkpt><trkpt lat="43.23420425407216" lon="13.1899717780234"><ele>234.0</ele><time>2026-05-03T17:30:00Z</time></trkpt><trkpt lat="43.23422145957797" lon="13.190072631493877"><ele>234.0</ele><time>2026-05-03T17:30:01Z</time></trkpt><trkpt lat="43.23423880681994" lon="13.19017352696679"><ele>234.0</ele><time>2026-05-03T17:30:02Z</time></trkpt><trkpt lat="43.234257897804106" lon="13.190277144912873"><ele>234.0</ele><time>2026-05-03T17:30:03Z</time></trkpt><trkpt lat="43.23427681767177" lon="13.190383705958972"><ele>234.0</ele><time>2026-05-03T17:30:04Z</time></trkpt><trkpt lat="43.2342969901634" lon="13.19049025607273"><ele>234.0</ele><time>2026-05-03T17:30:05Z</time></trkpt><trkpt lat="43.23431378825973" lon="13.190591477128628"><ele>234.14285714285717</ele><time>2026-05-03T17:30:06Z</time></trkpt><trkpt lat="43.23433015613371" lon="13.190688760044106"><ele>234.2857142857143</ele><time>2026-05-03T17:30:07Z</time></trkpt><trkpt lat="43.234348579393384" lon="13.190785240112481"><ele>234.42857142857144</ele><time>2026-05-03T17:30:08Z</time></trkpt><trkpt lat="43.234368452073966" lon="13.190880874482845"><ele>234.57142857142856</ele><time>2026-05-03T17:30:09Z</time></trkpt><trkpt lat="43.234387472784675" lon="13.190978619056171"><ele>234.7142857142857</ele><time>2026-05-03T17:30:10Z</time></trkpt><trkpt lat="43.234405516184665" lon="13.191074630616356"><ele>234.85714285714283</ele><time>2026-05-03T17:30:11Z</time></trkpt><trkpt lat="43.234421432118154" lon="13.191163786490074"><ele>235.0</ele><time>2026-05-03T17:30:12Z</time></trkpt><trkpt lat="43.23445246061797" lon="13.191254211559722"><ele>235.0</ele><time>2026-05-03T17:30:14Z</time></trkpt><trkpt lat="43.234520497480965" lon="13.191231969762175"><ele>235.0</ele><time>2026-05-03T17:30:16Z</time></trkpt><trkpt lat="43.23461556654203" lon="13.19122880721062"><ele>235.0</ele><time>2026-05-03T17:30:18Z</time></trkpt><trkpt lat="43.2347153363496" lon="13.191187457072594"><ele>235.0</ele><time>2026-05-03T17:30:20Z</time></trkpt><trkpt lat="43.23483025546847" lon="13.19115539807212"><ele>235.0</ele><time>2026-05-03T17:30:22Z</time></trkpt><trkpt lat="43.23494834395189" lon="13.19111618826411"><ele>235.2</ele><time>2026-05-03T17:30:24Z</time></trkpt><trkpt lat="43.23504659769624" lon="13.191078346813237"><ele>235.4</ele><time>2026-05-03T17:30:26Z</time></trkpt><trkpt lat="43.23512947130996" lon="13.19105118405179"><ele>235.60000000000002</ele><time>2026-05-03T17:30:28Z</time></trkpt><trkpt lat="43.235198681612935" lon="13.19103983356129"><ele>235.8</ele><time>2026-05-03T17:30:30.999Z</time></trkpt><trkpt lat="43.235223866450525" lon="13.191253473483245"><ele>236.0</ele><time>2026-05-03T17:30:32.999Z</time></trkpt><trkpt lat="43.235234945103976" lon="13.191394237642351"><ele>235.8</ele><time>2026-05-03T17:30:34.999Z</time></trkpt><trkpt lat="43.23523524739827" lon="13.191543400952721"><ele>235.60000000000002</ele><time>2026-05-03T17:30:36.999Z</time></trkpt><trkpt lat="43.23525082534988" lon="13.191692475969445"><ele>235.4</ele><time>2026-05-03T17:30:38.999Z</time></trkpt><trkpt lat="43.23527151792523" lon="13.191839008342232"><ele>235.2</ele><time>2026-05-03T17:30:40.999Z</time></trkpt><trkpt lat="43.235310022829076" lon="13.191974921471799"><ele>235.0</ele><time>2026-05-03T17:30:42.999Z</time></trkpt><trkpt lat="43.235314109419136" lon="13.192109650026211"><ele>235.0</ele><time>2026-05-03T17:30:44.999Z</time></trkpt><trkpt lat="43.23534244568329" lon="13.192224675589756"><ele>234.99999999999997</ele><time>2026-05-03T17:30:46.999Z</time></trkpt><trkpt lat="43.23530750169082" lon="13.192324553307824"><ele>235.0</ele><time>2026-05-03T17:30:48.999Z</time></trkpt><trkpt lat="43.23530682117064" lon="13.192427403046796"><ele>235.0</ele><time>2026-05-03T17:30:50.999Z</time></trkpt><trkpt lat="43.235305684886725" lon="13.192514910684464"><ele>234.99999999999997</ele><time>2026-05-03T17:30:52.999Z</time></trkpt><trkpt lat="43.235272985392236" lon="13.192596465440525"><ele>235.0</ele><time>2026-05-03T17:30:56.999Z</time></trkpt><trkpt lat="43.23524294093928" lon="13.192687063872732"><ele>235.0</ele><time>2026-05-03T17:30:59.999Z</time></trkpt><trkpt lat="43.23503380073896" lon="13.192749887494303"><ele>234.49999999999997</ele><time>2026-05-03T17:31:59Z</time></trkpt><trkpt lat="43.234967355166816" lon="13.19280405934081"><ele>234.0</ele><time>2026-05-03T17:32:05Z</time></trkpt><trkpt lat="43.23495587371431" lon="13.192901144966799"><ele>233.5</ele><time>2026-05-03T17:32:25Z</time></trkpt><trkpt lat="43.23500829139177" lon="13.192969727502984"><ele>233.0</ele><time>2026-05-03T17:32:41.999Z</time></trkpt><trkpt lat="43.2350809449255" lon="13.19288705121121"><ele>232.49999999999997</ele><time>2026-05-03T17:33:03.999Z</time></trkpt><trkpt lat="43.23500977855655" lon="13.192775652972944"><ele>232.0</ele><time>2026-05-03T17:33:04.999Z</time></trkpt><trkpt lat="43.23504233357662" lon="13.192667871236656"><ele>231.99999999999997</ele><time>2026-05-03T17:33:06.999Z</time></trkpt><trkpt lat="43.235030199170374" lon="13.192580534931526"><ele>232.0</ele><time>2026-05-03T17:33:18.999Z</time></trkpt><trkpt lat="43.234950438486315" lon="13.192614385681111"><ele>232.0</ele><time>2026-05-03T17:33:31.999Z</time></trkpt><trkpt lat="43.23506542080163" lon="13.19261961146492"><ele>232.0</ele><time>2026-05-03T17:33:52Z</time></trkpt><trkpt lat="43.23513457199562" lon="13.192598233073014"><ele>231.99999999999997</ele><time>2026-05-03T17:34:06Z</time></trkpt><trkpt lat="43.23507010597779" lon="13.192542518516106"><ele>232.0</ele><time>2026-05-03T17:34:26Z</time></trkpt><trkpt lat="43.23505469708941" lon="13.192629761347682"><ele>231.99999999999997</ele><time>2026-05-03T17:35:55Z</time></trkpt><trkpt lat="43.235130843108315" lon="13.192697964534254"><ele>232.0</ele><time>2026-05-03T17:37:02.998Z</time></trkpt><trkpt lat="43.23511998812869" lon="13.192794089332818"><ele>232.0</ele><time>2026-05-03T17:40:12Z</time></trkpt><trkpt lat="43.23518943861285" lon="13.192792618107589"><ele>232.0</ele><time>2026-05-03T17:40:21Z</time></trkpt><trkpt lat="43.235128852209606" lon="13.192760478900542"><ele>231.99999999999997</ele><time>2026-05-03T17:40:31Z</time></trkpt><trkpt lat="43.23516814653926" lon="13.192650845381168"><ele>232.0</ele><time>2026-05-03T17:40:40Z</time></trkpt><trkpt lat="43.23523289964707" lon="13.192652173200504"><ele>232.0</ele><time>2026-05-03T17:40:47Z</time></trkpt><trkpt lat="43.235227132418565" lon="13.192777666754035"><ele>232.0</ele><time>2026-05-03T17:42:23Z</time></trkpt><trkpt lat="43.23522009252958" lon="13.192908749180921"><ele>232.0</ele><time>2026-05-03T17:42:25Z</time></trkpt><trkpt lat="43.23517607400205" lon="13.193028714518887"><ele>232.0</ele><time>2026-05-03T17:42:27Z</time></trkpt><trkpt lat="43.23513342028214" lon="13.193140194810992"><ele>232.0</ele><time>2026-05-03T17:42:29Z</time></trkpt><trkpt lat="43.235088507335064" lon="13.193225038581394"><ele>232.0</ele><time>2026-05-03T17:42:31Z</time></trkpt><trkpt lat="43.23500436846546" lon="13.193284123106622"><ele>232.0</ele><time>2026-05-03T17:42:33Z</time></trkpt><trkpt lat="43.2349097296145" lon="13.193310786084018"><ele>232.0</ele><time>2026-05-03T17:42:35Z</time></trkpt><trkpt lat="43.23483263267505" lon="13.193278101665811"><ele>232.0</ele><time>2026-05-03T17:42:37Z</time></trkpt><trkpt lat="43.23474984356786" lon="13.193201863436924"><ele>232.0</ele><time>2026-05-03T17:42:39Z</time></trkpt><trkpt lat="43.234663283265704" lon="13.193198522983117"><ele>232.0</ele><time>2026-05-03T17:42:41Z</time></trkpt><trkpt lat="43.23459066476021" lon="13.193296947724416"><ele>232.0</ele><time>2026-05-03T17:42:43Z</time></trkpt><trkpt lat="43.23460799342498" lon="13.193436593070714"><ele>232.0</ele><time>2026-05-03T17:42:45Z</time></trkpt><trkpt lat="43.23468766856155" lon="13.193523429931856"><ele>232.0</ele><time>2026-05-03T17:42:47Z</time></trkpt><trkpt lat="43.23480393754143" lon="13.193461227844532"><ele>232.0</ele><time>2026-05-03T17:42:49Z</time></trkpt><trkpt lat="43.23492107959098" lon="13.193389402113574"><ele>231.99999999999997</ele><time>2026-05-03T17:42:51Z</time></trkpt><trkpt lat="43.23499036040385" lon="13.193379901106459"><ele>232.0</ele><time>2026-05-03T17:42:52Z</time></trkpt><trkpt lat="43.235060971561445" lon="13.193399837316216"><ele>232.0</ele><time>2026-05-03T17:42:53Z</time></trkpt><trkpt lat="43.235126582301305" lon="13.193445467035056"><ele>232.0</ele><time>2026-05-03T17:42:54Z</time></trkpt><trkpt lat="43.235182438298274" lon="13.193522118386976"><ele>231.99999999999997</ele><time>2026-05-03T17:42:55Z</time></trkpt><trkpt lat="43.23523345022949" lon="13.193605992219696"><ele>232.0</ele><time>2026-05-03T17:42:56Z</time></trkpt><trkpt lat="43.235287439724495" lon="13.193699467408656"><ele>232.0</ele><time>2026-05-03T17:42:57Z</time></trkpt><trkpt lat="43.23533047797057" lon="13.193803173909611"><ele>232.0</ele><time>2026-05-03T17:42:58Z</time></trkpt><trkpt lat="43.23536568188257" lon="13.193915431060793"><ele>232.0</ele><time>2026-05-03T17:42:59Z</time></trkpt><trkpt lat="43.23538279030368" lon="13.194037820308084"><ele>232.0</ele><time>2026-05-03T17:43:00Z</time></trkpt><trkpt lat="43.23539848839477" lon="13.194161288647347"><ele>232.0</ele><time>2026-05-03T17:43:01Z</time></trkpt><trkpt lat="43.235416833394765" lon="13.194289391552077"><ele>232.2</ele><time>2026-05-03T17:43:02Z</time></trkpt><trkpt lat="43.23543880255187" lon="13.194420094516808"><ele>232.39999999999998</ele><time>2026-05-03T17:43:03Z</time></trkpt><trkpt lat="43.23546313429446" lon="13.194554139352269"><ele>232.60000000000002</ele><time>2026-05-03T17:43:04Z</time></trkpt><trkpt lat="43.23548794358758" lon="13.1946931156851"><ele>232.8</ele><time>2026-05-03T17:43:05Z</time></trkpt><trkpt lat="43.2355114223884" lon="13.194837499914478"><ele>233.0</ele><time>2026-05-03T17:43:06Z</time></trkpt><trkpt lat="43.235536271896535" lon="13.194985672855175"><ele>233.25</ele><time>2026-05-03T17:43:06.999Z</time></trkpt><trkpt lat="43.23556223890387" lon="13.195135419191697"><ele>233.5</ele><time>2026-05-03T17:43:07.999Z</time></trkpt><trkpt lat="43.235587255809875" lon="13.195291583599003"><ele>233.75</ele><time>2026-05-03T17:43:08.999Z</time></trkpt><trkpt lat="43.23561262049064" lon="13.195448780821367"><ele>234.0</ele><time>2026-05-03T17:43:09.999Z</time></trkpt><trkpt lat="43.23564001117229" lon="13.195606668400101"><ele>234.25</ele><time>2026-05-03T17:43:10.999Z</time></trkpt><trkpt lat="43.235669586224326" lon="13.19577255607165"><ele>234.5</ele><time>2026-05-03T17:43:11.999Z</time></trkpt><trkpt lat="43.235697995842095" lon="13.195945839632488"><ele>234.75</ele><time>2026-05-03T17:43:12.999Z</time></trkpt><trkpt lat="43.23572588734764" lon="13.196116686958383"><ele>235.0</ele><time>2026-05-03T17:43:13.999Z</time></trkpt><trkpt lat="43.23575657148646" lon="13.196297075350266"><ele>235.0</ele><time>2026-05-03T17:43:14.999Z</time></trkpt><trkpt lat="43.235787720902586" lon="13.196484366371653"><ele>235.0</ele><time>2026-05-03T17:43:15.999Z</time></trkpt><trkpt lat="43.235817538194915" lon="13.196675985039963"><ele>235.0</ele><time>2026-05-03T17:43:16.999Z</time></trkpt><trkpt lat="43.235850578115155" lon="13.19687047503724"><ele>235.0</ele><time>2026-05-03T17:43:17.999Z</time></trkpt><trkpt lat="43.23588767408713" lon="13.19706731432314"><ele>233.66666666666666</ele><time>2026-05-03T17:43:18.999Z</time></trkpt><trkpt lat="43.23592843376799" lon="13.197268331229587"><ele>232.33333333333331</ele><time>2026-05-03T17:43:19.999Z</time></trkpt><trkpt lat="43.23596728313006" lon="13.197471095243422"><ele>231.0</ele><time>2026-05-03T17:43:20.999Z</time></trkpt><trkpt lat="43.236005321344045" lon="13.197678392497803"><ele>230.33333333333331</ele><time>2026-05-03T17:43:21.999Z</time></trkpt><trkpt lat="43.236043040870754" lon="13.19789041221099"><ele>229.66666666666666</ele><time>2026-05-03T17:43:22.999Z</time></trkpt><trkpt lat="43.23608348650904" lon="13.198101572711696"><ele>229.0</ele><time>2026-05-03T17:43:23.999Z</time></trkpt><trkpt lat="43.236125711834504" lon="13.198314955101429"><ele>229.0</ele><time>2026-05-03T17:43:24.999Z</time></trkpt><trkpt lat="43.236167845233226" lon="13.198526682179576"><ele>229.0</ele><time>2026-05-03T17:43:25.999Z</time></trkpt><trkpt lat="43.236211714389576" lon="13.198744880595514"><ele>229.0</ele><time>2026-05-03T17:43:26.999Z</time></trkpt><trkpt lat="43.236254086980345" lon="13.19895682714416"><ele>229.0</ele><time>2026-05-03T17:43:27.999Z</time></trkpt><trkpt lat="43.23629413344252" lon="13.199176711374"><ele>229.0</ele><time>2026-05-03T17:43:28.999Z</time></trkpt><trkpt lat="43.2363264681927" lon="13.199394472078211"><ele>229.0</ele><time>2026-05-03T17:43:29.999Z</time></trkpt><trkpt lat="43.236377184491566" lon="13.199612250721046"><ele>228.66666666666666</ele><time>2026-05-03T17:43:30.999Z</time></trkpt><trkpt lat="43.23641862155301" lon="13.19983582201061"><ele>228.33333333333331</ele><time>2026-05-03T17:43:31.999Z</time></trkpt><trkpt lat="43.23645615070374" lon="13.200060367887184"><ele>228.0</ele><time>2026-05-03T17:43:32.999Z</time></trkpt><trkpt lat="43.236492177702" lon="13.200285807612664"><ele>228.0</ele><time>2026-05-03T17:43:33.999Z</time></trkpt><trkpt lat="43.2365299405129" lon="13.200512550483857"><ele>228.0</ele><time>2026-05-03T17:43:34.999Z</time></trkpt><trkpt lat="43.236561796377416" lon="13.200744269715374"><ele>228.0</ele><time>2026-05-03T17:43:35.999Z</time></trkpt><trkpt lat="43.23659911688875" lon="13.20097652858953"><ele>227.66666666666669</ele><time>2026-05-03T17:43:36.999Z</time></trkpt><trkpt lat="43.2366343908203" lon="13.201210810654276"><ele>227.33333333333334</ele><time>2026-05-03T17:43:37.999Z</time></trkpt><trkpt lat="43.2366697172074" lon="13.201444906651107"><ele>227.0</ele><time>2026-05-03T17:43:38.999Z</time></trkpt><trkpt lat="43.23670727312649" lon="13.201689835270269"><ele>226.66666666666669</ele><time>2026-05-03T17:43:39.999Z</time></trkpt><trkpt lat="43.23674404793497" lon="13.201929423580781"><ele>226.33333333333331</ele><time>2026-05-03T17:43:40.999Z</time></trkpt><trkpt lat="43.236782352757025" lon="13.202162161073508"><ele>226.0</ele><time>2026-05-03T17:43:41.999Z</time></trkpt><trkpt lat="43.236814834633236" lon="13.202395037423235"><ele>225.66666666666666</ele><time>2026-05-03T17:43:42.999Z</time></trkpt><trkpt lat="43.236844110674284" lon="13.20263341250089"><ele>225.33333333333331</ele><time>2026-05-03T17:43:43.999Z</time></trkpt><trkpt lat="43.23687704970124" lon="13.202879735412626"><ele>225.0</ele><time>2026-05-03T17:43:44.999Z</time></trkpt><trkpt lat="43.23691564157768" lon="13.20311887702201"><ele>224.33333333333331</ele><time>2026-05-03T17:43:45.999Z</time></trkpt><trkpt lat="43.23695546650975" lon="13.203361953737769"><ele>223.66666666666666</ele><time>2026-05-03T17:43:46.999Z</time></trkpt><trkpt lat="43.2370010901373" lon="13.20360855919017"><ele>223.0</ele><time>2026-05-03T17:43:47.999Z</time></trkpt><trkpt lat="43.23704605950727" lon="13.203859837194209"><ele>222.0</ele><time>2026-05-03T17:43:48.999Z</time></trkpt><trkpt lat="43.23708713009644" lon="13.204106679493831"><ele>221.0</ele><time>2026-05-03T17:43:49.999Z</time></trkpt><trkpt lat="43.23713022422585" lon="13.20435937805613"><ele>220.0</ele><time>2026-05-03T17:43:50.999Z</time></trkpt><trkpt lat="43.23716875893687" lon="13.20460878849506"><ele>219.0</ele><time>2026-05-03T17:43:51.999Z</time></trkpt><trkpt lat="43.237210560355095" lon="13.204856996170356"><ele>218.0</ele><time>2026-05-03T17:43:52.999Z</time></trkpt><trkpt lat="43.237251743147205" lon="13.205108555044207"><ele>217.0</ele><time>2026-05-03T17:43:53.999Z</time></trkpt><trkpt lat="43.23729284891468" lon="13.20535398288061"><ele>220.66666666666666</ele><time>2026-05-03T17:43:54.999Z</time></trkpt><trkpt lat="43.23733229895742" lon="13.205600544487336"><ele>224.33333333333331</ele><time>2026-05-03T17:43:55.999Z</time></trkpt><trkpt lat="43.23737365019456" lon="13.205847788339458"><ele>228.0</ele><time>2026-05-03T17:43:56.999Z</time></trkpt><trkpt lat="43.237418420212556" lon="13.206087860677425"><ele>228.0</ele><time>2026-05-03T17:43:57.999Z</time></trkpt><trkpt lat="43.23747225593725" lon="13.206328111902758"><ele>228.0</ele><time>2026-05-03T17:43:58.999Z</time></trkpt><trkpt lat="43.23753058544556" lon="13.206560834747588"><ele>228.0</ele><time>2026-05-03T17:43:59.999Z</time></trkpt><trkpt lat="43.23759671663196" lon="13.20679244752094"><ele>227.0</ele><time>2026-05-03T17:44:00.999Z</time></trkpt><trkpt lat="43.237668821482366" lon="13.207021659821766"><ele>226.0</ele><time>2026-05-03T17:44:01.999Z</time></trkpt><trkpt lat="43.237743060897714" lon="13.207259148974352"><ele>225.0</ele><time>2026-05-03T17:44:02.999Z</time></trkpt><trkpt lat="43.23782016448888" lon="13.207493848318428"><ele>223.33333333333331</ele><time>2026-05-03T17:44:03.999Z</time></trkpt><trkpt lat="43.23789795503501" lon="13.20771068369342"><ele>221.66666666666666</ele><time>2026-05-03T17:44:04.999Z</time></trkpt><trkpt lat="43.237998565973605" lon="13.207919131522742"><ele>220.0</ele><time>2026-05-03T17:44:05.999Z</time></trkpt><trkpt lat="43.238105207699334" lon="13.208127962343905"><ele>223.66666666666666</ele><time>2026-05-03T17:44:06.999Z</time></trkpt><trkpt lat="43.23819767091677" lon="13.208352879697632"><ele>227.33333333333331</ele><time>2026-05-03T17:44:07.999Z</time></trkpt><trkpt lat="43.238276284988075" lon="13.208580723959637"><ele>231.0</ele><time>2026-05-03T17:44:08.999Z</time></trkpt><trkpt lat="43.238346348769284" lon="13.208812831380794"><ele>227.66666666666669</ele><time>2026-05-03T17:44:09.999Z</time></trkpt><trkpt lat="43.238394994463455" lon="13.209054488151631"><ele>224.33333333333334</ele><time>2026-05-03T17:44:10.999Z</time></trkpt><trkpt lat="43.238437560488784" lon="13.209294162696274"><ele>221.0</ele><time>2026-05-03T17:44:11.999Z</time></trkpt><trkpt lat="43.2384881520786" lon="13.209526266645925"><ele>221.0</ele><time>2026-05-03T17:44:12.999Z</time></trkpt><trkpt lat="43.23853960266443" lon="13.209773572651816"><ele>221.0</ele><time>2026-05-03T17:44:13.999Z</time></trkpt><trkpt lat="43.23859622218203" lon="13.210012817585858"><ele>221.0</ele><time>2026-05-03T17:44:15Z</time></trkpt><trkpt lat="43.23865286463719" lon="13.210251741054702"><ele>218.33333333333334</ele><time>2026-05-03T17:44:16Z</time></trkpt><trkpt lat="43.23870873937712" lon="13.21049554933894"><ele>215.66666666666669</ele><time>2026-05-03T17:44:17Z</time></trkpt><trkpt lat="43.23876534832217" lon="13.210744073802719"><ele>213.0</ele><time>2026-05-03T17:44:18Z</time></trkpt><trkpt lat="43.23882675654629" lon="13.210985142824253"><ele>213.0</ele><time>2026-05-03T17:44:19Z</time></trkpt><trkpt lat="43.23888972829946" lon="13.211216130458737"><ele>213.0</ele><time>2026-05-03T17:44:20Z</time></trkpt><trkpt lat="43.238962142721306" lon="13.211441224584828"><ele>213.0</ele><time>2026-05-03T17:44:21Z</time></trkpt><trkpt lat="43.239031127681685" lon="13.211679536830202"><ele>213.66666666666669</ele><time>2026-05-03T17:44:22Z</time></trkpt><trkpt lat="43.23910037909628" lon="13.211913163962762"><ele>214.33333333333334</ele><time>2026-05-03T17:44:23Z</time></trkpt><trkpt lat="43.23916424195674" lon="13.212143400244859"><ele>215.0</ele><time>2026-05-03T17:44:24Z</time></trkpt><trkpt lat="43.239229436918556" lon="13.212363805658704"><ele>215.0</ele><time>2026-05-03T17:44:25Z</time></trkpt><trkpt lat="43.23929362204313" lon="13.212572714194717"><ele>215.0</ele><time>2026-05-03T17:44:26Z</time></trkpt><trkpt lat="43.239354079610756" lon="13.21278224031429"><ele>215.0</ele><time>2026-05-03T17:44:27Z</time></trkpt><trkpt lat="43.23941534495791" lon="13.212999614840866"><ele>214.0</ele><time>2026-05-03T17:44:28Z</time></trkpt><trkpt lat="43.23947194966353" lon="13.213208991822688"><ele>213.0</ele><time>2026-05-03T17:44:29Z</time></trkpt><trkpt lat="43.239531276244804" lon="13.213406414209702"><ele>212.0</ele><time>2026-05-03T17:44:30Z</time></trkpt><trkpt lat="43.239587168467395" lon="13.21360314567923"><ele>212.0</ele><time>2026-05-03T17:44:31Z</time></trkpt><trkpt lat="43.239637947505095" lon="13.21379062478357"><ele>212.0</ele><time>2026-05-03T17:44:32Z</time></trkpt><trkpt lat="43.239692537206274" lon="13.213978411209057"><ele>212.0</ele><time>2026-05-03T17:44:33Z</time></trkpt><trkpt lat="43.239750888843766" lon="13.214156893421894"><ele>212.0</ele><time>2026-05-03T17:44:34Z</time></trkpt><trkpt lat="43.23981040956836" lon="13.214332933854774"><ele>212.25</ele><time>2026-05-03T17:44:35Z</time></trkpt><trkpt lat="43.23987362097782" lon="13.214513715388081"><ele>212.5</ele><time>2026-05-03T17:44:36Z</time></trkpt><trkpt lat="43.23993460824157" lon="13.214696039593841"><ele>212.75</ele><time>2026-05-03T17:44:37Z</time></trkpt><trkpt lat="43.23998676532679" lon="13.214873120820034"><ele>213.0</ele><time>2026-05-03T17:44:38Z</time></trkpt><trkpt lat="43.240041072738" lon="13.215052939495562"><ele>213.0</ele><time>2026-05-03T17:44:39Z</time></trkpt><trkpt lat="43.240098321670786" lon="13.215235076633272"><ele>213.0</ele><time>2026-05-03T17:44:40Z</time></trkpt><trkpt lat="43.2401568346398" lon="13.215416476222384"><ele>213.0</ele><time>2026-05-03T17:44:41Z</time></trkpt><trkpt lat="43.240213748216235" lon="13.215595019253634"><ele>213.0</ele><time>2026-05-03T17:44:42Z</time></trkpt><trkpt lat="43.24027102989736" lon="13.215780600826076"><ele>212.5</ele><time>2026-05-03T17:44:43Z</time></trkpt><trkpt lat="43.24032768962356" lon="13.215964415309502"><ele>212.0</ele><time>2026-05-03T17:44:44Z</time></trkpt><trkpt lat="43.24038602497768" lon="13.21614717255695"><ele>211.5</ele><time>2026-05-03T17:44:45Z</time></trkpt><trkpt lat="43.24044350172611" lon="13.216335492715974"><ele>211.0</ele><time>2026-05-03T17:44:46Z</time></trkpt><trkpt lat="43.240498427753806" lon="13.216518143940416"><ele>210.75</ele><time>2026-05-03T17:44:47Z</time></trkpt><trkpt lat="43.24055525154198" lon="13.216703821909059"><ele>210.5</ele><time>2026-05-03T17:44:48Z</time></trkpt><trkpt lat="43.24061018127319" lon="13.216889657462163"><ele>210.25</ele><time>2026-05-03T17:44:49Z</time></trkpt><trkpt lat="43.24066520532782" lon="13.217078509280766"><ele>210.0</ele><time>2026-05-03T17:44:50Z</time></trkpt><trkpt lat="43.24072712960004" lon="13.217267777271354"><ele>209.75</ele><time>2026-05-03T17:44:51Z</time></trkpt><trkpt lat="43.2407840658249" lon="13.217456488676017"><ele>209.5</ele><time>2026-05-03T17:44:52Z</time></trkpt><trkpt lat="43.24084169560891" lon="13.217648567484462"><ele>209.25</ele><time>2026-05-03T17:44:53Z</time></trkpt><trkpt lat="43.240893646830116" lon="13.217838242597706"><ele>209.0</ele><time>2026-05-03T17:44:54Z</time></trkpt><trkpt lat="43.240948397711534" lon="13.218026494139844"><ele>208.5</ele><time>2026-05-03T17:44:55Z</time></trkpt><trkpt lat="43.240998625094456" lon="13.218200908554035"><ele>208.0</ele><time>2026-05-03T17:44:56Z</time></trkpt><trkpt lat="43.24104089309089" lon="13.218354346124098"><ele>207.5</ele><time>2026-05-03T17:44:57Z</time></trkpt><trkpt lat="43.2410781652964" lon="13.218495371270947"><ele>207.0</ele><time>2026-05-03T17:44:58Z</time></trkpt><trkpt lat="43.24110112578076" lon="13.218626081113719"><ele>207.0</ele><time>2026-05-03T17:44:59Z</time></trkpt><trkpt lat="43.2411080357675" lon="13.21873982734084"><ele>207.0</ele><time>2026-05-03T17:45:00Z</time></trkpt><trkpt lat="43.24109724915639" lon="13.218854105721908"><ele>207.0</ele><time>2026-05-03T17:45:01Z</time></trkpt><trkpt lat="43.24107800185614" lon="13.218955747925444"><ele>207.0</ele><time>2026-05-03T17:45:02Z</time></trkpt><trkpt lat="43.241071646142586" lon="13.219059607487306"><ele>207.0</ele><time>2026-05-03T17:45:03Z</time></trkpt><trkpt lat="43.24109573744955" lon="13.219141314748997"><ele>207.0</ele><time>2026-05-03T17:45:04Z</time></trkpt><trkpt lat="43.24114539789574" lon="13.219205865846572"><ele>207.16666666666666</ele><time>2026-05-03T17:45:05Z</time></trkpt><trkpt lat="43.241210734834524" lon="13.219254525694446"><ele>207.33333333333331</ele><time>2026-05-03T17:45:06Z</time></trkpt><trkpt lat="43.241279865910826" lon="13.21930873083645"><ele>207.5</ele><time>2026-05-03T17:45:07Z</time></trkpt><trkpt lat="43.241337808107716" lon="13.219396256746379"><ele>207.66666666666666</ele><time>2026-05-03T17:45:08Z</time></trkpt><trkpt lat="43.241380156604265" lon="13.219509368642093"><ele>207.83333333333331</ele><time>2026-05-03T17:45:08.999Z</time></trkpt><trkpt lat="43.24142210701687" lon="13.219634007150297"><ele>208.0</ele><time>2026-05-03T17:45:09.999Z</time></trkpt><trkpt lat="43.241466550390996" lon="13.219767810360652"><ele>209.5</ele><time>2026-05-03T17:45:10.999Z</time></trkpt><trkpt lat="43.24151261490977" lon="13.21991633939369"><ele>211.0</ele><time>2026-05-03T17:45:11.999Z</time></trkpt><trkpt lat="43.2415612829333" lon="13.220072397052007"><ele>212.5</ele><time>2026-05-03T17:45:12.999Z</time></trkpt><trkpt lat="43.24161547443272" lon="13.220239097753867"><ele>214.0</ele><time>2026-05-03T17:45:13.999Z</time></trkpt><trkpt lat="43.24167957615832" lon="13.220415259247769"><ele>214.0</ele><time>2026-05-03T17:45:14.999Z</time></trkpt><trkpt lat="43.24175282230892" lon="13.220594841516819"><ele>214.0</ele><time>2026-05-03T17:45:15.999Z</time></trkpt><trkpt lat="43.24183870286543" lon="13.220762498844287"><ele>214.0</ele><time>2026-05-03T17:45:16.999Z</time></trkpt><trkpt lat="43.24194224344319" lon="13.220935614976614"><ele>213.0</ele><time>2026-05-03T17:45:17.999Z</time></trkpt><trkpt lat="43.242058630485474" lon="13.22111729593189"><ele>212.0</ele><time>2026-05-03T17:45:18.999Z</time></trkpt><trkpt lat="43.24218256321868" lon="13.221277838835514"><ele>211.0</ele><time>2026-05-03T17:45:19.999Z</time></trkpt><trkpt lat="43.24231187329014" lon="13.221421658466063"><ele>211.5</ele><time>2026-05-03T17:45:20.999Z</time></trkpt><trkpt lat="43.24243653003612" lon="13.221547877727044"><ele>212.0</ele><time>2026-05-03T17:45:21.999Z</time></trkpt><trkpt lat="43.24255383588993" lon="13.221658123958846"><ele>212.5</ele><time>2026-05-03T17:45:22.999Z</time></trkpt><trkpt lat="43.24266992461377" lon="13.221759094654356"><ele>213.0</ele><time>2026-05-03T17:45:23.999Z</time></trkpt><trkpt lat="43.242783716842645" lon="13.221856806525777"><ele>213.0</ele><time>2026-05-03T17:45:24.999Z</time></trkpt><trkpt lat="43.24289301256205" lon="13.221947140485122"><ele>213.0</ele><time>2026-05-03T17:45:25.999Z</time></trkpt><trkpt lat="43.24299455982943" lon="13.22203391973274"><ele>213.0</ele><time>2026-05-03T17:45:26.999Z</time></trkpt><trkpt lat="43.24308845006218" lon="13.22211559382169"><ele>213.0</ele><time>2026-05-03T17:45:27.999Z</time></trkpt><trkpt lat="43.24317943836712" lon="13.222194445009347"><ele>214.25</ele><time>2026-05-03T17:45:28.999Z</time></trkpt><trkpt lat="43.2432745691909" lon="13.222273371424423"><ele>215.5</ele><time>2026-05-03T17:45:29.999Z</time></trkpt><trkpt lat="43.243371772089446" lon="13.222362555917833"><ele>216.75</ele><time>2026-05-03T17:45:30.999Z</time></trkpt><trkpt lat="43.24347362235814" lon="13.22246040079342"><ele>218.0</ele><time>2026-05-03T17:45:31.999Z</time></trkpt><trkpt lat="43.2435842593131" lon="13.222559116789457"><ele>215.5</ele><time>2026-05-03T17:45:32.999Z</time></trkpt><trkpt lat="43.24369954426898" lon="13.222659765709151"><ele>213.0</ele><time>2026-05-03T17:45:33.999Z</time></trkpt><trkpt lat="43.243820799284386" lon="13.22277144298381"><ele>210.5</ele><time>2026-05-03T17:45:34.999Z</time></trkpt><trkpt lat="43.24394645927412" lon="13.22288779353431"><ele>208.0</ele><time>2026-05-03T17:45:35.999Z</time></trkpt><trkpt lat="43.2440726952277" lon="13.223000200180566"><ele>207.33333333333331</ele><time>2026-05-03T17:45:36.999Z</time></trkpt><trkpt lat="43.24419862622808" lon="13.223121174867"><ele>206.66666666666669</ele><time>2026-05-03T17:45:37.999Z</time></trkpt><trkpt lat="43.244326388136315" lon="13.223247446287738"><ele>206.0</ele><time>2026-05-03T17:45:38.999Z</time></trkpt><trkpt lat="43.24445693653793" lon="13.223374999275478"><ele>205.0</ele><time>2026-05-03T17:45:39.999Z</time></trkpt><trkpt lat="43.24458922697449" lon="13.22350610787018"><ele>204.0</ele><time>2026-05-03T17:45:40.999Z</time></trkpt><trkpt lat="43.24472195892215" lon="13.223640304640794"><ele>203.0</ele><time>2026-05-03T17:45:41.999Z</time></trkpt><trkpt lat="43.24485851453199" lon="13.223774622054611"><ele>203.0</ele><time>2026-05-03T17:45:42.999Z</time></trkpt><trkpt lat="43.24499739733817" lon="13.223910010578004"><ele>203.0</ele><time>2026-05-03T17:45:43.999Z</time></trkpt><trkpt lat="43.24513625024397" lon="13.224038795252474"><ele>203.0</ele><time>2026-05-03T17:45:44.999Z</time></trkpt><trkpt lat="43.24527327363806" lon="13.224165602212583"><ele>204.33333333333334</ele><time>2026-05-03T17:45:45.999Z</time></trkpt><trkpt lat="43.24540962606467" lon="13.224292432085939"><ele>205.66666666666669</ele><time>2026-05-03T17:45:46.999Z</time></trkpt><trkpt lat="43.24554316683642" lon="13.22441769589279"><ele>207.0</ele><time>2026-05-03T17:45:47.999Z</time></trkpt><trkpt lat="43.245679963337565" lon="13.22455129886591"><ele>207.66666666666669</ele><time>2026-05-03T17:45:48.999Z</time></trkpt><trkpt lat="43.24581074495505" lon="13.224679982301051"><ele>208.33333333333334</ele><time>2026-05-03T17:45:49.999Z</time></trkpt><trkpt lat="43.24595203171829" lon="13.224811282873123"><ele>209.0</ele><time>2026-05-03T17:45:50.999Z</time></trkpt><trkpt lat="43.24608867803837" lon="13.224944118548363"><ele>209.0</ele><time>2026-05-03T17:45:51.999Z</time></trkpt><trkpt lat="43.24622830392258" lon="13.225077841796391"><ele>209.0</ele><time>2026-05-03T17:45:52.999Z</time></trkpt><trkpt lat="43.246367940020484" lon="13.225205965680356"><ele>209.0</ele><time>2026-05-03T17:45:53.999Z</time></trkpt><trkpt lat="43.246499511846466" lon="13.225361337654029"><ele>209.33333333333334</ele><time>2026-05-03T17:45:54.999Z</time></trkpt><trkpt lat="43.24664654595595" lon="13.225485523583174"><ele>209.66666666666669</ele><time>2026-05-03T17:45:55.999Z</time></trkpt><trkpt lat="43.24678960207211" lon="13.225627978682796"><ele>210.0</ele><time>2026-05-03T17:45:56.999Z</time></trkpt><trkpt lat="43.2469330979302" lon="13.225770328482009"><ele>210.0</ele><time>2026-05-03T17:45:57.999Z</time></trkpt><trkpt lat="43.247082450865854" lon="13.22591255796769"><ele>210.0</ele><time>2026-05-03T17:45:58.999Z</time></trkpt><trkpt lat="43.24722947162318" lon="13.226055205014259"><ele>210.0</ele><time>2026-05-03T17:45:59.999Z</time></trkpt><trkpt lat="43.24737593725841" lon="13.226199449437804"><ele>210.33333333333331</ele><time>2026-05-03T17:46:00.999Z</time></trkpt><trkpt lat="43.247523008200645" lon="13.226346161927292"><ele>210.66666666666666</ele><time>2026-05-03T17:46:01.999Z</time></trkpt><trkpt lat="43.24767205071311" lon="13.226495158854446"><ele>211.0</ele><time>2026-05-03T17:46:02.999Z</time></trkpt><trkpt lat="43.24782228822547" lon="13.226641970432718"><ele>211.0</ele><time>2026-05-03T17:46:03.999Z</time></trkpt><trkpt lat="43.24796850921975" lon="13.226783484232422"><ele>211.0</ele><time>2026-05-03T17:46:04.999Z</time></trkpt><trkpt lat="43.24811949744455" lon="13.226932305272754"><ele>211.0</ele><time>2026-05-03T17:46:05.999Z</time></trkpt><trkpt lat="43.24826652277323" lon="13.22707800875159"><ele>211.0</ele><time>2026-05-03T17:46:06.999Z</time></trkpt><trkpt lat="43.2484179922951" lon="13.227225489694831"><ele>211.0</ele><time>2026-05-03T17:46:07.999Z</time></trkpt><trkpt lat="43.24856555959046" lon="13.227372633984002"><ele>211.0</ele><time>2026-05-03T17:46:08.999Z</time></trkpt><trkpt lat="43.248714529548714" lon="13.22752341441383"><ele>210.33333333333331</ele><time>2026-05-03T17:46:09.999Z</time></trkpt><trkpt lat="43.2488655645423" lon="13.227669011303119"><ele>209.66666666666669</ele><time>2026-05-03T17:46:10.999Z</time></trkpt><trkpt lat="43.24902085377753" lon="13.227818209658952"><ele>209.0</ele><time>2026-05-03T17:46:11.999Z</time></trkpt><trkpt lat="43.249174851196685" lon="13.227968221942561"><ele>209.0</ele><time>2026-05-03T17:46:12.999Z</time></trkpt><trkpt lat="43.24933159881964" lon="13.228120936322506"><ele>209.0</ele><time>2026-05-03T17:46:13.999Z</time></trkpt><trkpt lat="43.24949342697254" lon="13.228270621032202"><ele>209.0</ele><time>2026-05-03T17:46:14.999Z</time></trkpt><trkpt lat="43.24965432350684" lon="13.228423158931397"><ele>208.33333333333334</ele><time>2026-05-03T17:46:15.999Z</time></trkpt><trkpt lat="43.24981096117923" lon="13.22857186120688"><ele>207.66666666666669</ele><time>2026-05-03T17:46:16.999Z</time></trkpt><trkpt lat="43.2499686131161" lon="13.228724779616144"><ele>207.0</ele><time>2026-05-03T17:46:17.999Z</time></trkpt><trkpt lat="43.250121392687504" lon="13.228877146323775"><ele>207.0</ele><time>2026-05-03T17:46:18.999Z</time></trkpt><trkpt lat="43.250280510900666" lon="13.229035392969712"><ele>207.0</ele><time>2026-05-03T17:46:19.999Z</time></trkpt><trkpt lat="43.25043526838009" lon="13.229188134560987"><ele>207.0</ele><time>2026-05-03T17:46:21Z</time></trkpt><trkpt lat="43.25059367534124" lon="13.22934443995095"><ele>207.0</ele><time>2026-05-03T17:46:22Z</time></trkpt><trkpt lat="43.25075665179873" lon="13.229500074087397"><ele>207.0</ele><time>2026-05-03T17:46:23Z</time></trkpt><trkpt lat="43.2509219469471" lon="13.229656140019573"><ele>207.0</ele><time>2026-05-03T17:46:24Z</time></trkpt><trkpt lat="43.25108899520182" lon="13.229815182896322"><ele>206.66666666666669</ele><time>2026-05-03T17:46:25Z</time></trkpt><trkpt lat="43.251262569144295" lon="13.229986709079638"><ele>206.33333333333334</ele><time>2026-05-03T17:46:26Z</time></trkpt><trkpt lat="43.25143052856261" lon="13.230151427582333"><ele>206.0</ele><time>2026-05-03T17:46:27Z</time></trkpt><trkpt lat="43.2516027472974" lon="13.230309430415375"><ele>206.0</ele><time>2026-05-03T17:46:28Z</time></trkpt><trkpt lat="43.251774160401986" lon="13.230470300487156"><ele>206.0</ele><time>2026-05-03T17:46:29Z</time></trkpt><trkpt lat="43.25194193040236" lon="13.230629904458743"><ele>206.0</ele><time>2026-05-03T17:46:30Z</time></trkpt><trkpt lat="43.25211920699488" lon="13.23077731986822"><ele>205.66666666666669</ele><time>2026-05-03T17:46:31Z</time></trkpt><trkpt lat="43.25229610795292" lon="13.230912584630692"><ele>205.33333333333331</ele><time>2026-05-03T17:46:32Z</time></trkpt><trkpt lat="43.25247944381278" lon="13.231026598431542"><ele>205.0</ele><time>2026-05-03T17:46:33Z</time></trkpt><trkpt lat="43.25267016072082" lon="13.231131036244362"><ele>205.0</ele><time>2026-05-03T17:46:34Z</time></trkpt><trkpt lat="43.25285599117936" lon="13.2312306367768"><ele>205.0</ele><time>2026-05-03T17:46:35Z</time></trkpt><trkpt lat="43.25304606308534" lon="13.231337403560257"><ele>205.0</ele><time>2026-05-03T17:46:36Z</time></trkpt><trkpt lat="43.25323721519827" lon="13.231442591023768"><ele>204.33333333333331</ele><time>2026-05-03T17:46:37Z</time></trkpt><trkpt lat="43.25342746819818" lon="13.231544295865792"><ele>203.66666666666669</ele><time>2026-05-03T17:46:38Z</time></trkpt><trkpt lat="43.25362013793775" lon="13.231656909931038"><ele>203.0</ele><time>2026-05-03T17:46:39Z</time></trkpt><trkpt lat="43.25381956787052" lon="13.231759379482847"><ele>203.0</ele><time>2026-05-03T17:46:40Z</time></trkpt><trkpt lat="43.25401429042914" lon="13.23187197036725"><ele>203.0</ele><time>2026-05-03T17:46:41Z</time></trkpt><trkpt lat="43.25420191503084" lon="13.232003845622804"><ele>203.0</ele><time>2026-05-03T17:46:42Z</time></trkpt><trkpt lat="43.25438661201828" lon="13.232147723340448"><ele>203.0</ele><time>2026-05-03T17:46:43Z</time></trkpt><trkpt lat="43.254568375405356" lon="13.232300030314994"><ele>203.0</ele><time>2026-05-03T17:46:44Z</time></trkpt><trkpt lat="43.254750799130015" lon="13.232452592425927"><ele>203.0</ele><time>2026-05-03T17:46:45Z</time></trkpt><trkpt lat="43.2549351145446" lon="13.232604669274352"><ele>202.0</ele><time>2026-05-03T17:46:46Z</time></trkpt><trkpt lat="43.25512333776838" lon="13.2327515513944"><ele>201.0</ele><time>2026-05-03T17:46:47Z</time></trkpt><trkpt lat="43.25531019038837" lon="13.232900187704972"><ele>200.0</ele><time>2026-05-03T17:46:48Z</time></trkpt><trkpt lat="43.25549840821699" lon="13.23304754157"><ele>200.66666666666669</ele><time>2026-05-03T17:46:49Z</time></trkpt><trkpt lat="43.25568338403544" lon="13.233197359483732"><ele>201.33333333333331</ele><time>2026-05-03T17:46:50Z</time></trkpt><trkpt lat="43.25586816431159" lon="13.233350350640723"><ele>202.0</ele><time>2026-05-03T17:46:51Z</time></trkpt><trkpt lat="43.25604972546119" lon="13.233501856204107"><ele>202.0</ele><time>2026-05-03T17:46:52Z</time></trkpt><trkpt lat="43.25623457615348" lon="13.233649998123022"><ele>202.0</ele><time>2026-05-03T17:46:53Z</time></trkpt><trkpt lat="43.256423461055256" lon="13.233795283659278"><ele>202.0</ele><time>2026-05-03T17:46:54Z</time></trkpt><trkpt lat="43.25661016001802" lon="13.23394001224647"><ele>202.66666666666666</ele><time>2026-05-03T17:46:55Z</time></trkpt><trkpt lat="43.25679508322731" lon="13.2340810979787"><ele>203.33333333333331</ele><time>2026-05-03T17:46:56Z</time></trkpt><trkpt lat="43.256979043706124" lon="13.234226145191336"><ele>204.0</ele><time>2026-05-03T17:46:57Z</time></trkpt><trkpt lat="43.257156981830946" lon="13.234374733452304"><ele>204.0</ele><time>2026-05-03T17:46:58Z</time></trkpt><trkpt lat="43.25733459593808" lon="13.234530497483037"><ele>204.0</ele><time>2026-05-03T17:46:59Z</time></trkpt><trkpt lat="43.257509730540704" lon="13.23469969155427"><ele>204.0</ele><time>2026-05-03T17:47:00Z</time></trkpt><trkpt lat="43.25767253744133" lon="13.234880063051861"><ele>203.0</ele><time>2026-05-03T17:47:01Z</time></trkpt><trkpt lat="43.257828376357075" lon="13.235071349778126"><ele>202.0</ele><time>2026-05-03T17:47:02Z</time></trkpt><trkpt lat="43.257979910816665" lon="13.235270164479426"><ele>201.0</ele><time>2026-05-03T17:47:03Z</time></trkpt><trkpt lat="43.25812377736413" lon="13.23548083996587"><ele>200.33333333333331</ele><time>2026-05-03T17:47:04Z</time></trkpt><trkpt lat="43.25826799391272" lon="13.235696688954768"><ele>199.66666666666666</ele><time>2026-05-03T17:47:05Z</time></trkpt><trkpt lat="43.25841019408892" lon="13.235913832787562"><ele>199.0</ele><time>2026-05-03T17:47:06Z</time></trkpt><trkpt lat="43.258556986957394" lon="13.236131098490752"><ele>199.0</ele><time>2026-05-03T17:47:07Z</time></trkpt><trkpt lat="43.25870305846717" lon="13.236348736781752"><ele>199.0</ele><time>2026-05-03T17:47:08Z</time></trkpt><trkpt lat="43.25885045872445" lon="13.23657301496421"><ele>199.0</ele><time>2026-05-03T17:47:09Z</time></trkpt><trkpt lat="43.25899667704923" lon="13.236796283352017"><ele>200.0</ele><time>2026-05-03T17:47:10Z</time></trkpt><trkpt lat="43.25914193626222" lon="13.237018313957993"><ele>201.0</ele><time>2026-05-03T17:47:11Z</time></trkpt><trkpt lat="43.25929052060497" lon="13.237241012683066"><ele>202.0</ele><time>2026-05-03T17:47:12Z</time></trkpt><trkpt lat="43.25943912187615" lon="13.237467234056265"><ele>202.0</ele><time>2026-05-03T17:47:13Z</time></trkpt><trkpt lat="43.25958748041266" lon="13.23769256354957"><ele>202.0</ele><time>2026-05-03T17:47:13.999Z</time></trkpt><trkpt lat="43.259732118421496" lon="13.237912535950576"><ele>202.0</ele><time>2026-05-03T17:47:14.999Z</time></trkpt><trkpt lat="43.25988322065787" lon="13.238142665529603"><ele>201.66666666666666</ele><time>2026-05-03T17:47:15.999Z</time></trkpt><trkpt lat="43.26002912326004" lon="13.238366551068554"><ele>201.33333333333331</ele><time>2026-05-03T17:47:16.999Z</time></trkpt><trkpt lat="43.26017630907253" lon="13.238591677990032"><ele>201.0</ele><time>2026-05-03T17:47:17.999Z</time></trkpt><trkpt lat="43.260321395682844" lon="13.23881619415159"><ele>200.33333333333331</ele><time>2026-05-03T17:47:18.999Z</time></trkpt><trkpt lat="43.260469130323735" lon="13.239040843879785"><ele>199.66666666666666</ele><time>2026-05-03T17:47:19.999Z</time></trkpt><trkpt lat="43.26061750115729" lon="13.23926653468833"><ele>199.0</ele><time>2026-05-03T17:47:20.999Z</time></trkpt><trkpt lat="43.26076377507867" lon="13.239496831210847"><ele>199.0</ele><time>2026-05-03T17:47:21.999Z</time></trkpt><trkpt lat="43.26091331844672" lon="13.2397209647867"><ele>199.0</ele><time>2026-05-03T17:47:22.999Z</time></trkpt><trkpt lat="43.26106325427534" lon="13.23994621087541"><ele>199.0</ele><time>2026-05-03T17:47:23.999Z</time></trkpt><trkpt lat="43.26121262712934" lon="13.24016774444385"><ele>199.0</ele><time>2026-05-03T17:47:24.999Z</time></trkpt><trkpt lat="43.261362470714765" lon="13.24038857230851"><ele>199.0</ele><time>2026-05-03T17:47:25.999Z</time></trkpt><trkpt lat="43.26151113642692" lon="13.240613800382532"><ele>199.0</ele><time>2026-05-03T17:47:26.999Z</time></trkpt><trkpt lat="43.26165915625646" lon="13.240837049864627"><ele>199.0</ele><time>2026-05-03T17:47:27.999Z</time></trkpt><trkpt lat="43.26180728098324" lon="13.241064363808258"><ele>199.0</ele><time>2026-05-03T17:47:28.999Z</time></trkpt><trkpt lat="43.261955298208015" lon="13.241289552279177"><ele>199.0</ele><time>2026-05-03T17:47:29.999Z</time></trkpt><trkpt lat="43.26210458236179" lon="13.241511765033616"><ele>199.0</ele><time>2026-05-03T17:47:30.999Z</time></trkpt><trkpt lat="43.26225320720154" lon="13.241729030343196"><ele>199.0</ele><time>2026-05-03T17:47:31.999Z</time></trkpt><trkpt lat="43.262399456866774" lon="13.241941864708584"><ele>199.0</ele><time>2026-05-03T17:47:32.999Z</time></trkpt><trkpt lat="43.26254633003545" lon="13.242186147166667"><ele>198.66666666666666</ele><time>2026-05-03T17:47:33.999Z</time></trkpt><trkpt lat="43.262692788183635" lon="13.24240468251092"><ele>198.33333333333331</ele><time>2026-05-03T17:47:34.999Z</time></trkpt><trkpt lat="43.26283952803499" lon="13.242621989993275"><ele>198.0</ele><time>2026-05-03T17:47:35.999Z</time></trkpt><trkpt lat="43.26298801951713" lon="13.242842907742636"><ele>198.66666666666669</ele><time>2026-05-03T17:47:36.999Z</time></trkpt><trkpt lat="43.26313312164977" lon="13.24305864982671"><ele>199.33333333333334</ele><time>2026-05-03T17:47:37.999Z</time></trkpt><trkpt lat="43.263285746848084" lon="13.243295711581586"><ele>200.0</ele><time>2026-05-03T17:47:38.999Z</time></trkpt><trkpt lat="43.263433508119675" lon="13.243521005738208"><ele>200.0</ele><time>2026-05-03T17:47:39.999Z</time></trkpt><trkpt lat="43.263576832433074" lon="13.243731670457898"><ele>200.0</ele><time>2026-05-03T17:47:40.999Z</time></trkpt><trkpt lat="43.26372229105996" lon="13.243955096129307"><ele>200.0</ele><time>2026-05-03T17:47:41.999Z</time></trkpt><trkpt lat="43.26385072363574" lon="13.244153758910898"><ele>201.0</ele><time>2026-05-03T17:47:42.999Z</time></trkpt><trkpt lat="43.26397520671467" lon="13.24433939035157"><ele>202.0</ele><time>2026-05-03T17:47:43.999Z</time></trkpt><trkpt lat="43.264090072369974" lon="13.244513995900784"><ele>203.0</ele><time>2026-05-03T17:47:44.999Z</time></trkpt><trkpt lat="43.26419783548708" lon="13.244702219077142"><ele>201.33333333333334</ele><time>2026-05-03T17:47:45.999Z</time></trkpt><trkpt lat="43.26428996625895" lon="13.24490637005827"><ele>199.66666666666669</ele><time>2026-05-03T17:47:46.999Z</time></trkpt><trkpt lat="43.26435356877561" lon="13.245113985033415"><ele>198.0</ele><time>2026-05-03T17:47:47.999Z</time></trkpt><trkpt lat="43.26439068871239" lon="13.245341875132853"><ele>198.0</ele><time>2026-05-03T17:47:48.999Z</time></trkpt><trkpt lat="43.26440265787135" lon="13.245580433020066"><ele>198.0</ele><time>2026-05-03T17:47:49.999Z</time></trkpt><trkpt lat="43.264401365416845" lon="13.245831530050076"><ele>198.0</ele><time>2026-05-03T17:47:50.999Z</time></trkpt><trkpt lat="43.26439684316313" lon="13.246089475276815"><ele>197.33333333333331</ele><time>2026-05-03T17:47:51.999Z</time></trkpt><trkpt lat="43.264403090610806" lon="13.246349049889254"><ele>196.66666666666666</ele><time>2026-05-03T17:47:52.999Z</time></trkpt><trkpt lat="43.26441197368111" lon="13.246611548107882"><ele>196.0</ele><time>2026-05-03T17:47:53.999Z</time></trkpt><trkpt lat="43.26442158747895" lon="13.246885203044432"><ele>193.66666666666666</ele><time>2026-05-03T17:47:54.999Z</time></trkpt><trkpt lat="43.26442976314782" lon="13.247163474125259"><ele>191.33333333333331</ele><time>2026-05-03T17:47:55.999Z</time></trkpt><trkpt lat="43.264440309317685" lon="13.247437128672276"><ele>189.0</ele><time>2026-05-03T17:47:56.999Z</time></trkpt><trkpt lat="43.26445610872155" lon="13.247721963731554"><ele>187.0</ele><time>2026-05-03T17:47:57.999Z</time></trkpt><trkpt lat="43.26447093125565" lon="13.248015113924113"><ele>185.0</ele><time>2026-05-03T17:47:58.999Z</time></trkpt><trkpt lat="43.26448833731958" lon="13.248305018283242"><ele>183.0</ele><time>2026-05-03T17:47:59.999Z</time></trkpt><trkpt lat="43.2645063720167" lon="13.24859429122848"><ele>183.0</ele><time>2026-05-03T17:48:00.999Z</time></trkpt><trkpt lat="43.26451951432787" lon="13.248886490878965"><ele>183.0</ele><time>2026-05-03T17:48:01.999Z</time></trkpt><trkpt lat="43.26453492369166" lon="13.249181870691302"><ele>183.0</ele><time>2026-05-03T17:48:02.999Z</time></trkpt><trkpt lat="43.26454780270199" lon="13.249473066032781"><ele>184.66666666666666</ele><time>2026-05-03T17:48:03.999Z</time></trkpt><trkpt lat="43.26456494016329" lon="13.249760047072945"><ele>186.33333333333331</ele><time>2026-05-03T17:48:04.999Z</time></trkpt><trkpt lat="43.26458170315182" lon="13.250048370243054"><ele>188.0</ele><time>2026-05-03T17:48:05.999Z</time></trkpt><trkpt lat="43.26460954204865" lon="13.250337543788435"><ele>189.0</ele><time>2026-05-03T17:48:06.999Z</time></trkpt><trkpt lat="43.26466263610514" lon="13.250615114474549"><ele>190.0</ele><time>2026-05-03T17:48:07.999Z</time></trkpt><trkpt lat="43.26472864057564" lon="13.250884081767296"><ele>191.0</ele><time>2026-05-03T17:48:08.999Z</time></trkpt><trkpt lat="43.264799803802916" lon="13.251148786490024"><ele>192.0</ele><time>2026-05-03T17:48:09.999Z</time></trkpt><trkpt lat="43.26487247998937" lon="13.251417162193626"><ele>193.0</ele><time>2026-05-03T17:48:10.999Z</time></trkpt><trkpt lat="43.26493735367129" lon="13.251696182196918"><ele>194.0</ele><time>2026-05-03T17:48:11.999Z</time></trkpt><trkpt lat="43.2650027962602" lon="13.251977541007378"><ele>194.0</ele><time>2026-05-03T17:48:12.999Z</time></trkpt><trkpt lat="43.265073414272024" lon="13.252258145185833"><ele>194.0</ele><time>2026-05-03T17:48:13.999Z</time></trkpt><trkpt lat="43.26514739096221" lon="13.25253877241191"><ele>194.0</ele><time>2026-05-03T17:48:14.999Z</time></trkpt><trkpt lat="43.26521722682894" lon="13.25282185118924"><ele>193.0</ele><time>2026-05-03T17:48:15.999Z</time></trkpt><trkpt lat="43.26528873806115" lon="13.253105820640043"><ele>192.0</ele><time>2026-05-03T17:48:16.999Z</time></trkpt><trkpt lat="43.265360036121784" lon="13.25339322693811"><ele>191.0</ele><time>2026-05-03T17:48:17.999Z</time></trkpt><trkpt lat="43.26543562419075" lon="13.253684667615207"><ele>188.5</ele><time>2026-05-03T17:48:18.999Z</time></trkpt><trkpt lat="43.26550549474263" lon="13.253976060717081"><ele>186.0</ele><time>2026-05-03T17:48:19.999Z</time></trkpt><trkpt lat="43.265577621761544" lon="13.254270478252941"><ele>189.0</ele><time>2026-05-03T17:48:20.999Z</time></trkpt><trkpt lat="43.26565160656112" lon="13.254563818867762"><ele>192.0</ele><time>2026-05-03T17:48:21.999Z</time></trkpt><trkpt lat="43.265724682250394" lon="13.254855299950853"><ele>192.0</ele><time>2026-05-03T17:48:22.999Z</time></trkpt><trkpt lat="43.265797270077805" lon="13.25514324281384"><ele>192.0</ele><time>2026-05-03T17:48:23.999Z</time></trkpt><trkpt lat="43.265877786116" lon="13.255433716534576"><ele>192.0</ele><time>2026-05-03T17:48:24.999Z</time></trkpt><trkpt lat="43.26595019585208" lon="13.255722838260754"><ele>191.33333333333334</ele><time>2026-05-03T17:48:26Z</time></trkpt><trkpt lat="43.266030088597034" lon="13.256012468370129"><ele>190.66666666666669</ele><time>2026-05-03T17:48:27Z</time></trkpt><trkpt lat="43.26610818837145" lon="13.256300646780947"><ele>190.0</ele><time>2026-05-03T17:48:28Z</time></trkpt><trkpt lat="43.26618728011361" lon="13.256587062149373"><ele>189.0</ele><time>2026-05-03T17:48:29Z</time></trkpt><trkpt lat="43.26626905796269" lon="13.25687601375473"><ele>188.0</ele><time>2026-05-03T17:48:30Z</time></trkpt><trkpt lat="43.26634847013342" lon="13.257157228105624"><ele>187.0</ele><time>2026-05-03T17:48:31Z</time></trkpt><trkpt lat="43.26642912504366" lon="13.257438991509646"><ele>188.33333333333334</ele><time>2026-05-03T17:48:32Z</time></trkpt><trkpt lat="43.26651106708394" lon="13.257722039669687"><ele>189.66666666666666</ele><time>2026-05-03T17:48:33Z</time></trkpt><trkpt lat="43.26659072959097" lon="13.258004608424656"><ele>191.0</ele><time>2026-05-03T17:48:34Z</time></trkpt><trkpt lat="43.26667404069874" lon="13.258288619425949"><ele>191.0</ele><time>2026-05-03T17:48:35Z</time></trkpt><trkpt lat="43.266755743582486" lon="13.25857328841405"><ele>191.0</ele><time>2026-05-03T17:48:36Z</time></trkpt><trkpt lat="43.26683924851658" lon="13.258860066848841"><ele>191.0</ele><time>2026-05-03T17:48:37Z</time></trkpt><trkpt lat="43.26691421587418" lon="13.259138890004882"><ele>190.33333333333331</ele><time>2026-05-03T17:48:38Z</time></trkpt><trkpt lat="43.26699441918081" lon="13.259425211169088"><ele>189.66666666666666</ele><time>2026-05-03T17:48:39Z</time></trkpt><trkpt lat="43.26707384214947" lon="13.259709869118051"><ele>189.0</ele><time>2026-05-03T17:48:40Z</time></trkpt><trkpt lat="43.267155801140916" lon="13.259995686443562"><ele>188.66666666666666</ele><time>2026-05-03T17:48:41Z</time></trkpt><trkpt lat="43.26724116837509" lon="13.260282705610217"><ele>188.33333333333331</ele><time>2026-05-03T17:48:42Z</time></trkpt><trkpt lat="43.267317753414204" lon="13.260563874779331"><ele>188.0</ele><time>2026-05-03T17:48:43Z</time></trkpt><trkpt lat="43.267398077555974" lon="13.260846777827098"><ele>188.0</ele><time>2026-05-03T17:48:44Z</time></trkpt><trkpt lat="43.267470306015255" lon="13.261121219684897"><ele>188.0</ele><time>2026-05-03T17:48:45Z</time></trkpt><trkpt lat="43.267543361098845" lon="13.261375088809976"><ele>188.0</ele><time>2026-05-03T17:48:46Z</time></trkpt><trkpt lat="43.26760588201715" lon="13.261622922017024"><ele>187.66666666666666</ele><time>2026-05-03T17:48:47Z</time></trkpt><trkpt lat="43.26766606423432" lon="13.261857480177248"><ele>187.33333333333334</ele><time>2026-05-03T17:48:48Z</time></trkpt><trkpt lat="43.26771783569103" lon="13.262083672479225"><ele>187.0</ele><time>2026-05-03T17:48:49Z</time></trkpt><trkpt lat="43.26777045263402" lon="13.262299337174968"><ele>187.0</ele><time>2026-05-03T17:48:50Z</time></trkpt><trkpt lat="43.267824821109635" lon="13.262513498768566"><ele>187.0</ele><time>2026-05-03T17:48:51Z</time></trkpt><trkpt lat="43.267874140373124" lon="13.26272068365388"><ele>187.0</ele><time>2026-05-03T17:48:52Z</time></trkpt><trkpt lat="43.267921804615625" lon="13.262922154004306"><ele>186.75</ele><time>2026-05-03T17:48:53Z</time></trkpt><trkpt lat="43.26796787663245" lon="13.26311737902604"><ele>186.5</ele><time>2026-05-03T17:48:54Z</time></trkpt><trkpt lat="43.26801363088357" lon="13.263304135204878"><ele>186.25</ele><time>2026-05-03T17:48:55Z</time></trkpt><trkpt lat="43.26806222092939" lon="13.263490171660827"><ele>186.0</ele><time>2026-05-03T17:48:56Z</time></trkpt><trkpt lat="43.26810633947735" lon="13.263667984081993"><ele>186.5</ele><time>2026-05-03T17:48:57Z</time></trkpt><trkpt lat="43.26814855156182" lon="13.263847965758101"><ele>187.0</ele><time>2026-05-03T17:48:58Z</time></trkpt><trkpt lat="43.26819126315395" lon="13.264014744285952"><ele>187.5</ele><time>2026-05-03T17:48:59Z</time></trkpt><trkpt lat="43.268226910969794" lon="13.264182906875781"><ele>188.0</ele><time>2026-05-03T17:49:00Z</time></trkpt><trkpt lat="43.26826405028398" lon="13.264346537503487"><ele>188.0</ele><time>2026-05-03T17:49:01Z</time></trkpt><trkpt lat="43.268299187316224" lon="13.264510929659979"><ele>188.0</ele><time>2026-05-03T17:49:02Z</time></trkpt><trkpt lat="43.26833342353912" lon="13.26467565685475"><ele>188.0</ele><time>2026-05-03T17:49:03Z</time></trkpt><trkpt lat="43.26837098660869" lon="13.264838784298604"><ele>188.0</ele><time>2026-05-03T17:49:04Z</time></trkpt><trkpt lat="43.26840368054996" lon="13.265001023495328"><ele>187.5</ele><time>2026-05-03T17:49:05Z</time></trkpt><trkpt lat="43.268438654772936" lon="13.265166210096245"><ele>187.0</ele><time>2026-05-03T17:49:06Z</time></trkpt><trkpt lat="43.26847309958242" lon="13.265329027917167"><ele>186.5</ele><time>2026-05-03T17:49:07Z</time></trkpt><trkpt lat="43.26851109143539" lon="13.265490063771683"><ele>186.0</ele><time>2026-05-03T17:49:08Z</time></trkpt><trkpt lat="43.268544963170285" lon="13.265655675675498"><ele>185.5</ele><time>2026-05-03T17:49:09Z</time></trkpt><trkpt lat="43.268580031697226" lon="13.265819113496695"><ele>185.0</ele><time>2026-05-03T17:49:10Z</time></trkpt><trkpt lat="43.26862017534583" lon="13.265980702677464"><ele>184.5</ele><time>2026-05-03T17:49:11Z</time></trkpt><trkpt lat="43.26865859213938" lon="13.26614579753794"><ele>184.0</ele><time>2026-05-03T17:49:12Z</time></trkpt><trkpt lat="43.268695355158904" lon="13.266308705746669"><ele>183.75</ele><time>2026-05-03T17:49:13Z</time></trkpt><trkpt lat="43.268732151896394" lon="13.266478010498753"><ele>183.5</ele><time>2026-05-03T17:49:14Z</time></trkpt><trkpt lat="43.268769419075674" lon="13.26664425225401"><ele>183.25</ele><time>2026-05-03T17:49:15Z</time></trkpt><trkpt lat="43.268805913507585" lon="13.266814418565716"><ele>183.0</ele><time>2026-05-03T17:49:16Z</time></trkpt><trkpt lat="43.26884047946143" lon="13.266985377442275"><ele>183.0</ele><time>2026-05-03T17:49:17Z</time></trkpt><trkpt lat="43.268877744003916" lon="13.267156953473629"><ele>183.0</ele><time>2026-05-03T17:49:18Z</time></trkpt><trkpt lat="43.26891412342484" lon="13.267329502516654"><ele>183.0</ele><time>2026-05-03T17:49:19Z</time></trkpt><trkpt lat="43.26895806264172" lon="13.267503476540782"><ele>183.0</ele><time>2026-05-03T17:49:20Z</time></trkpt><trkpt lat="43.268994954448814" lon="13.267685621638337"><ele>183.25</ele><time>2026-05-03T17:49:20.999Z</time></trkpt><trkpt lat="43.26903537647126" lon="13.26786776979979"><ele>183.5</ele><time>2026-05-03T17:49:21.999Z</time></trkpt><trkpt lat="43.269076081319085" lon="13.268051401613691"><ele>183.75</ele><time>2026-05-03T17:49:22.999Z</time></trkpt><trkpt lat="43.26911748346031" lon="13.268239287570248"><ele>184.0</ele><time>2026-05-03T17:49:23.999Z</time></trkpt><trkpt lat="43.26916001403549" lon="13.268430196150423"><ele>184.0</ele><time>2026-05-03T17:49:24.999Z</time></trkpt><trkpt lat="43.269201287619865" lon="13.268620482976447"><ele>184.0</ele><time>2026-05-03T17:49:25.999Z</time></trkpt><trkpt lat="43.2692456422586" lon="13.268814688131753"><ele>184.0</ele><time>2026-05-03T17:49:26.999Z</time></trkpt><trkpt lat="43.26928884081491" lon="13.269011298591876"><ele>184.0</ele><time>2026-05-03T17:49:27.999Z</time></trkpt><trkpt lat="43.26932848663041" lon="13.269206246711251"><ele>183.33333333333334</ele><time>2026-05-03T17:49:28.999Z</time></trkpt><trkpt lat="43.26937134678729" lon="13.269406077769355"><ele>182.66666666666666</ele><time>2026-05-03T17:49:29.999Z</time></trkpt><trkpt lat="43.26941353832192" lon="13.26960422436288"><ele>182.0</ele><time>2026-05-03T17:49:30.999Z</time></trkpt><trkpt lat="43.269453745120806" lon="13.269806664346502"><ele>181.66666666666666</ele><time>2026-05-03T17:49:31.999Z</time></trkpt><trkpt lat="43.26949518556726" lon="13.270005774422177"><ele>181.33333333333334</ele><time>2026-05-03T17:49:32.999Z</time></trkpt><trkpt lat="43.26953510456001" lon="13.270208997881673"><ele>181.0</ele><time>2026-05-03T17:49:33.999Z</time></trkpt><trkpt lat="43.269574222521236" lon="13.270407224153487"><ele>181.33333333333334</ele><time>2026-05-03T17:49:34.999Z</time></trkpt><trkpt lat="43.26961149929682" lon="13.270608508663669"><ele>181.66666666666666</ele><time>2026-05-03T17:49:35.999Z</time></trkpt><trkpt lat="43.26965323406135" lon="13.27080959371994"><ele>182.0</ele><time>2026-05-03T17:49:36.999Z</time></trkpt><trkpt lat="43.26969665187939" lon="13.271011912730275"><ele>182.0</ele><time>2026-05-03T17:49:37.999Z</time></trkpt><trkpt lat="43.26974349382395" lon="13.271222171887795"><ele>182.0</ele><time>2026-05-03T17:49:38.999Z</time></trkpt><trkpt lat="43.2697871477882" lon="13.271436145801976"><ele>182.0</ele><time>2026-05-03T17:49:39.999Z</time></trkpt><trkpt lat="43.26983173822002" lon="13.271651761458251"><ele>182.0</ele><time>2026-05-03T17:49:40.999Z</time></trkpt><trkpt lat="43.269877331114174" lon="13.271873991515806"><ele>182.0</ele><time>2026-05-03T17:49:41.999Z</time></trkpt><trkpt lat="43.269922516879234" lon="13.272109627375917"><ele>182.0</ele><time>2026-05-03T17:49:42.999Z</time></trkpt><trkpt lat="43.26996691502674" lon="13.272340679439528"><ele>183.0</ele><time>2026-05-03T17:49:43.999Z</time></trkpt><trkpt lat="43.27001741362284" lon="13.272575386144638"><ele>184.0</ele><time>2026-05-03T17:49:44.999Z</time></trkpt><trkpt lat="43.270065509539194" lon="13.272809232008617"><ele>185.0</ele><time>2026-05-03T17:49:45.999Z</time></trkpt><trkpt lat="43.27011706514654" lon="13.27304139332298"><ele>184.0</ele><time>2026-05-03T17:49:46.999Z</time></trkpt><trkpt lat="43.27016976940728" lon="13.273275506124824"><ele>183.0</ele><time>2026-05-03T17:49:47.999Z</time></trkpt><trkpt lat="43.27022083118581" lon="13.273510620492235"><ele>182.0</ele><time>2026-05-03T17:49:48.999Z</time></trkpt><trkpt lat="43.27026893091744" lon="13.273747823312828"><ele>181.0</ele><time>2026-05-03T17:49:49.999Z</time></trkpt><trkpt lat="43.27031847458832" lon="13.273981760817836"><ele>180.0</ele><time>2026-05-03T17:49:50.999Z</time></trkpt><trkpt lat="43.27037445038816" lon="13.274215740594139"><ele>179.0</ele><time>2026-05-03T17:49:51.999Z</time></trkpt><trkpt lat="43.27043128767201" lon="13.274448119079933"><ele>179.0</ele><time>2026-05-03T17:49:52.999Z</time></trkpt><trkpt lat="43.27048310613099" lon="13.27468276062375"><ele>179.0</ele><time>2026-05-03T17:49:53.999Z</time></trkpt><trkpt lat="43.27053622998231" lon="13.274918339845119"><ele>179.0</ele><time>2026-05-03T17:49:54.999Z</time></trkpt><trkpt lat="43.27058863215266" lon="13.275156854687754"><ele>180.0</ele><time>2026-05-03T17:49:55.999Z</time></trkpt><trkpt lat="43.27063753049259" lon="13.275394901098203"><ele>181.0</ele><time>2026-05-03T17:49:56.999Z</time></trkpt><trkpt lat="43.2706864447601" lon="13.275634424814879"><ele>182.0</ele><time>2026-05-03T17:49:57.999Z</time></trkpt><trkpt lat="43.27074115235718" lon="13.275874441517036"><ele>182.0</ele><time>2026-05-03T17:49:58.999Z</time></trkpt><trkpt lat="43.270795546785806" lon="13.276124044410448"><ele>182.0</ele><time>2026-05-03T17:49:59.999Z</time></trkpt><trkpt lat="43.27085123291226" lon="13.276378702836064"><ele>182.0</ele><time>2026-05-03T17:50:00.999Z</time></trkpt><trkpt lat="43.27090919537013" lon="13.27664937036639"><ele>181.66666666666666</ele><time>2026-05-03T17:50:01.999Z</time></trkpt><trkpt lat="43.27096898190604" lon="13.276906013074575"><ele>181.33333333333334</ele><time>2026-05-03T17:50:02.999Z</time></trkpt><trkpt lat="43.27103010060926" lon="13.27716413503355"><ele>181.0</ele><time>2026-05-03T17:50:03.999Z</time></trkpt><trkpt lat="43.271086352684584" lon="13.277420788763866"><ele>180.66666666666669</ele><time>2026-05-03T17:50:04.999Z</time></trkpt><trkpt lat="43.27114084777916" lon="13.277678599036726"><ele>180.33333333333334</ele><time>2026-05-03T17:50:05.999Z</time></trkpt><trkpt lat="43.27119880084581" lon="13.277938372541831"><ele>180.0</ele><time>2026-05-03T17:50:06.999Z</time></trkpt><trkpt lat="43.27125729807373" lon="13.278197869472638"><ele>179.66666666666666</ele><time>2026-05-03T17:50:07.999Z</time></trkpt><trkpt lat="43.271315845323755" lon="13.278460354829425"><ele>179.33333333333331</ele><time>2026-05-03T17:50:08.999Z</time></trkpt><trkpt lat="43.27137159432267" lon="13.278722839868212"><ele>179.0</ele><time>2026-05-03T17:50:09.999Z</time></trkpt><trkpt lat="43.27142731865454" lon="13.2789838789886"><ele>178.66666666666666</ele><time>2026-05-03T17:50:10.999Z</time></trkpt><trkpt lat="43.27148621755423" lon="13.279249049432737"><ele>178.33333333333334</ele><time>2026-05-03T17:50:11.999Z</time></trkpt><trkpt lat="43.27154674499436" lon="13.27951618503177"><ele>178.0</ele><time>2026-05-03T17:50:12.999Z</time></trkpt><trkpt lat="43.27160513738285" lon="13.279782392007078"><ele>178.0</ele><time>2026-05-03T17:50:13.999Z</time></trkpt><trkpt lat="43.27166245677919" lon="13.28004442718785"><ele>178.0</ele><time>2026-05-03T17:50:14.999Z</time></trkpt><trkpt lat="43.27172181760825" lon="13.280310007578224"><ele>178.0</ele><time>2026-05-03T17:50:15.999Z</time></trkpt><trkpt lat="43.27178012600999" lon="13.280582404482626"><ele>178.0</ele><time>2026-05-03T17:50:16.999Z</time></trkpt><trkpt lat="43.27183771689741" lon="13.280848491751922"><ele>178.0</ele><time>2026-05-03T17:50:17.999Z</time></trkpt><trkpt lat="43.271896645953476" lon="13.281107491101462"><ele>178.0</ele><time>2026-05-03T17:50:18.999Z</time></trkpt><trkpt lat="43.271956539517944" lon="13.28137150985105"><ele>177.66666666666669</ele><time>2026-05-03T17:50:19.999Z</time></trkpt><trkpt lat="43.27201307075705" lon="13.28163442992565"><ele>177.33333333333334</ele><time>2026-05-03T17:50:20.999Z</time></trkpt><trkpt lat="43.2720687195324" lon="13.281893026001896"><ele>177.0</ele><time>2026-05-03T17:50:21.999Z</time></trkpt><trkpt lat="43.27212699157501" lon="13.282149369384262"><ele>176.66666666666666</ele><time>2026-05-03T17:50:22.999Z</time></trkpt><trkpt lat="43.272185201906446" lon="13.282401167584387"><ele>176.33333333333331</ele><time>2026-05-03T17:50:23.999Z</time></trkpt><trkpt lat="43.27224303741103" lon="13.282657573434939"><ele>176.0</ele><time>2026-05-03T17:50:24.999Z</time></trkpt><trkpt lat="43.27230388474569" lon="13.282913080312857"><ele>176.33333333333331</ele><time>2026-05-03T17:50:25.999Z</time></trkpt><trkpt lat="43.272365797976825" lon="13.283175559169708"><ele>176.66666666666666</ele><time>2026-05-03T17:50:26.999Z</time></trkpt><trkpt lat="43.27242673812262" lon="13.2834394071813"><ele>177.0</ele><time>2026-05-03T17:50:27.999Z</time></trkpt><trkpt lat="43.27248670463098" lon="13.283704406767514"><ele>176.66666666666666</ele><time>2026-05-03T17:50:28.999Z</time></trkpt><trkpt lat="43.27254742116049" lon="13.283972446811111"><ele>176.33333333333331</ele><time>2026-05-03T17:50:29.999Z</time></trkpt><trkpt lat="43.27260966133813" lon="13.284240198869652"><ele>176.0</ele><time>2026-05-03T17:50:30.999Z</time></trkpt><trkpt lat="43.27267294562994" lon="13.284510367590077"><ele>175.33333333333331</ele><time>2026-05-03T17:50:32Z</time></trkpt><trkpt lat="43.272733974803295" lon="13.284780000590796"><ele>174.66666666666666</ele><time>2026-05-03T17:50:33Z</time></trkpt><trkpt lat="43.27279145812399" lon="13.285049786487384"><ele>174.0</ele><time>2026-05-03T17:50:34Z</time></trkpt><trkpt lat="43.27285067740987" lon="13.285317066614837"><ele>174.0</ele><time>2026-05-03T17:50:35Z</time></trkpt><trkpt lat="43.272912256689025" lon="13.285588187425343"><ele>174.0</ele><time>2026-05-03T17:50:36Z</time></trkpt><trkpt lat="43.27297324026369" lon="13.285862158385065"><ele>174.0</ele><time>2026-05-03T17:50:37Z</time></trkpt><trkpt lat="43.273035236258536" lon="13.286138406073881"><ele>173.66666666666666</ele><time>2026-05-03T17:50:38Z</time></trkpt><trkpt lat="43.27309885544413" lon="13.286412674177015"><ele>173.33333333333331</ele><time>2026-05-03T17:50:39Z</time></trkpt><trkpt lat="43.27315724727549" lon="13.286693756902732"><ele>173.0</ele><time>2026-05-03T17:50:40Z</time></trkpt><trkpt lat="43.27322052426869" lon="13.286974808076549"><ele>173.66666666666666</ele><time>2026-05-03T17:50:41Z</time></trkpt><trkpt lat="43.273283185792145" lon="13.28725814376764"><ele>174.33333333333334</ele><time>2026-05-03T17:50:42Z</time></trkpt><trkpt lat="43.27334542321572" lon="13.287540210541517"><ele>175.0</ele><time>2026-05-03T17:50:43Z</time></trkpt><trkpt lat="43.27340660450858" lon="13.28781501218222"><ele>174.33333333333334</ele><time>2026-05-03T17:50:44Z</time></trkpt><trkpt lat="43.27347179187385" lon="13.288104176463175"><ele>173.66666666666666</ele><time>2026-05-03T17:50:45Z</time></trkpt><trkpt lat="43.273539993967304" lon="13.288389603515142"><ele>173.0</ele><time>2026-05-03T17:50:46Z</time></trkpt><trkpt lat="43.27359990414043" lon="13.288670858206338"><ele>172.33333333333331</ele><time>2026-05-03T17:50:47Z</time></trkpt><trkpt lat="43.273666196305435" lon="13.288957675367154"><ele>171.66666666666666</ele><time>2026-05-03T17:50:48Z</time></trkpt><trkpt lat="43.27373030231609" lon="13.289243202226254"><ele>171.0</ele><time>2026-05-03T17:50:49Z</time></trkpt><trkpt lat="43.27379639250841" lon="13.289526427290351"><ele>171.33333333333334</ele><time>2026-05-03T17:50:50Z</time></trkpt><trkpt lat="43.273854109354545" lon="13.289819553162381"><ele>171.66666666666669</ele><time>2026-05-03T17:50:51Z</time></trkpt><trkpt lat="43.27391798156006" lon="13.290107134419229"><ele>172.0</ele><time>2026-05-03T17:50:52Z</time></trkpt><trkpt lat="43.27398293159462" lon="13.29040044996154"><ele>173.0</ele><time>2026-05-03T17:50:53Z</time></trkpt><trkpt lat="43.27404679880462" lon="13.290690519120052"><ele>174.0</ele><time>2026-05-03T17:50:54Z</time></trkpt><trkpt lat="43.27411078917849" lon="13.290972190672854"><ele>175.0</ele><time>2026-05-03T17:50:55Z</time></trkpt><trkpt lat="43.27417171082263" lon="13.29126051384191"><ele>175.0</ele><time>2026-05-03T17:50:56Z</time></trkpt><trkpt lat="43.27423098629454" lon="13.291542520769958"><ele>175.0</ele><time>2026-05-03T17:50:57Z</time></trkpt><trkpt lat="43.2742952121315" lon="13.291829551721664"><ele>175.0</ele><time>2026-05-03T17:50:58Z</time></trkpt><trkpt lat="43.274360044303094" lon="13.292121361888693"><ele>173.33333333333334</ele><time>2026-05-03T17:50:59Z</time></trkpt><trkpt lat="43.27442377208666" lon="13.292410619524132"><ele>171.66666666666666</ele><time>2026-05-03T17:51:00Z</time></trkpt><trkpt lat="43.274492116639664" lon="13.292704931983325"><ele>170.0</ele><time>2026-05-03T17:51:01Z</time></trkpt><trkpt lat="43.27455783770972" lon="13.29299658622053"><ele>169.0</ele><time>2026-05-03T17:51:02Z</time></trkpt><trkpt lat="43.27462207336667" lon="13.293295606357109"><ele>168.0</ele><time>2026-05-03T17:51:03Z</time></trkpt><trkpt lat="43.274686687793334" lon="13.293592354341353"><ele>168.0</ele><time>2026-05-03T17:51:04Z</time></trkpt><trkpt lat="43.274752305553946" lon="13.293892031415421"><ele>168.0</ele><time>2026-05-03T17:51:05Z</time></trkpt><trkpt lat="43.274816857972596" lon="13.294188239194144"><ele>170.0</ele><time>2026-05-03T17:51:06Z</time></trkpt><trkpt lat="43.274881855410584" lon="13.294487005396245"><ele>172.0</ele><time>2026-05-03T17:51:07Z</time></trkpt><trkpt lat="43.27494663980586" lon="13.29478815023912"><ele>172.0</ele><time>2026-05-03T17:51:08Z</time></trkpt><trkpt lat="43.275013858118555" lon="13.295085441589476"><ele>172.0</ele><time>2026-05-03T17:51:09Z</time></trkpt><trkpt lat="43.27507577221636" lon="13.295381911443505"><ele>171.5</ele><time>2026-05-03T17:51:10Z</time></trkpt><trkpt lat="43.275145253103915" lon="13.295682285752076"><ele>171.0</ele><time>2026-05-03T17:51:11Z</time></trkpt><trkpt lat="43.27520832453694" lon="13.295976416035964"><ele>171.0</ele><time>2026-05-03T17:51:12Z</time></trkpt><trkpt lat="43.27527869296619" lon="13.296271577325719"><ele>171.0</ele><time>2026-05-03T17:51:13Z</time></trkpt><trkpt lat="43.2753433412562" lon="13.296566136218052"><ele>170.66666666666666</ele><time>2026-05-03T17:51:14Z</time></trkpt><trkpt lat="43.27540796616144" lon="13.296859156490134"><ele>170.33333333333331</ele><time>2026-05-03T17:51:15Z</time></trkpt><trkpt lat="43.275473065415035" lon="13.297156304798586"><ele>170.0</ele><time>2026-05-03T17:51:16Z</time></trkpt><trkpt lat="43.27554220182976" lon="13.297451748449534"><ele>170.5</ele><time>2026-05-03T17:51:17Z</time></trkpt><trkpt lat="43.27561304939605" lon="13.29774723889459"><ele>171.0</ele><time>2026-05-03T17:51:18Z</time></trkpt><trkpt lat="43.27568308937138" lon="13.298043801551975"><ele>171.0</ele><time>2026-05-03T17:51:19Z</time></trkpt><trkpt lat="43.27575456722387" lon="13.298346408219569"><ele>171.0</ele><time>2026-05-03T17:51:20Z</time></trkpt><trkpt lat="43.275824426634465" lon="13.298641724974122"><ele>169.5</ele><time>2026-05-03T17:51:21Z</time></trkpt><trkpt lat="43.2758953855018" lon="13.29894562499484"><ele>168.0</ele><time>2026-05-03T17:51:22Z</time></trkpt><trkpt lat="43.275968507290365" lon="13.299246088769477"><ele>168.0</ele><time>2026-05-03T17:51:23Z</time></trkpt><trkpt lat="43.276034150598754" lon="13.299548886466296"><ele>168.0</ele><time>2026-05-03T17:51:24Z</time></trkpt><trkpt lat="43.27610793167354" lon="13.299850828516808"><ele>167.0</ele><time>2026-05-03T17:51:24.999Z</time></trkpt><trkpt lat="43.276175817567484" lon="13.300148236809287"><ele>166.0</ele><time>2026-05-03T17:51:25.999Z</time></trkpt><trkpt lat="43.276245746880285" lon="13.300450133292452"><ele>165.5</ele><time>2026-05-03T17:51:26.999Z</time></trkpt><trkpt lat="43.27631653226702" lon="13.300747405663998"><ele>165.0</ele><time>2026-05-03T17:51:27.999Z</time></trkpt><trkpt lat="43.276385887118515" lon="13.30103906170052"><ele>166.33333333333334</ele><time>2026-05-03T17:51:28.999Z</time></trkpt><trkpt lat="43.27645643446442" lon="13.301331341200113"><ele>167.66666666666669</ele><time>2026-05-03T17:51:29.999Z</time></trkpt><trkpt lat="43.27653028835987" lon="13.301622829280067"><ele>169.0</ele><time>2026-05-03T17:51:30.999Z</time></trkpt><trkpt lat="43.27660522221563" lon="13.301907462108014"><ele>169.0</ele><time>2026-05-03T17:51:31.999Z</time></trkpt><trkpt lat="43.27667930594303" lon="13.302195482778231"><ele>169.0</ele><time>2026-05-03T17:51:32.999Z</time></trkpt><trkpt lat="43.27675843806326" lon="13.302483498043209"><ele>169.0</ele><time>2026-05-03T17:51:33.999Z</time></trkpt><trkpt lat="43.27683780639969" lon="13.30276712356021"><ele>169.0</ele><time>2026-05-03T17:51:34.999Z</time></trkpt><trkpt lat="43.27691780018397" lon="13.303047924750816"><ele>169.0</ele><time>2026-05-03T17:51:35.999Z</time></trkpt><trkpt lat="43.277003946802814" lon="13.303326853130121"><ele>169.0</ele><time>2026-05-03T17:51:36.999Z</time></trkpt><trkpt lat="43.277098781010146" lon="13.303605108336729"><ele>168.0</ele><time>2026-05-03T17:51:37.999Z</time></trkpt><trkpt lat="43.27720039244749" lon="13.30387836882211"><ele>167.0</ele><time>2026-05-03T17:51:38.999Z</time></trkpt><trkpt lat="43.27730108953225" lon="13.304147283702104"><ele>166.0</ele><time>2026-05-03T17:51:39.999Z</time></trkpt><trkpt lat="43.27740589995843" lon="13.304420102154467"><ele>166.0</ele><time>2026-05-03T17:51:40.999Z</time></trkpt><trkpt lat="43.27750268845767" lon="13.304685034644422"><ele>166.0</ele><time>2026-05-03T17:51:41.999Z</time></trkpt><trkpt lat="43.27759718862388" lon="13.304941083776587"><ele>166.0</ele><time>2026-05-03T17:51:42.999Z</time></trkpt><trkpt lat="43.27769073367543" lon="13.305199051817608"><ele>165.66666666666669</ele><time>2026-05-03T17:51:43.999Z</time></trkpt><trkpt lat="43.277778514984746" lon="13.305435009900807"><ele>165.33333333333334</ele><time>2026-05-03T17:51:44.999Z</time></trkpt><trkpt lat="43.27785795902293" lon="13.305658028175223"><ele>165.0</ele><time>2026-05-03T17:51:45.999Z</time></trkpt><trkpt lat="43.27792976157433" lon="13.30587793354839"><ele>164.66666666666666</ele><time>2026-05-03T17:51:46.999Z</time></trkpt><trkpt lat="43.27798485225953" lon="13.306112533327537"><ele>164.33333333333331</ele><time>2026-05-03T17:51:47.999Z</time></trkpt><trkpt lat="43.278013071311506" lon="13.306337434893601"><ele>164.0</ele><time>2026-05-03T17:51:48.999Z</time></trkpt><trkpt lat="43.27801896256886" lon="13.306567242267779"><ele>163.66666666666666</ele><time>2026-05-03T17:51:49.999Z</time></trkpt><trkpt lat="43.278005536635995" lon="13.306796402290233"><ele>163.33333333333334</ele><time>2026-05-03T17:51:50.999Z</time></trkpt><trkpt lat="43.2779855796335" lon="13.307027059525305"><ele>163.0</ele><time>2026-05-03T17:51:51.999Z</time></trkpt><trkpt lat="43.277968370190514" lon="13.307256121482386"><ele>162.66666666666669</ele><time>2026-05-03T17:51:52.999Z</time></trkpt><trkpt lat="43.27795626427725" lon="13.307488498799145"><ele>162.33333333333334</ele><time>2026-05-03T17:51:53.999Z</time></trkpt><trkpt lat="43.27794243060311" lon="13.307728018179077"><ele>162.0</ele><time>2026-05-03T17:51:54.999Z</time></trkpt><trkpt lat="43.27792807985074" lon="13.307966322676235"><ele>163.0</ele><time>2026-05-03T17:51:55.999Z</time></trkpt><trkpt lat="43.27792974393244" lon="13.30821745431507"><ele>164.0</ele><time>2026-05-03T17:51:56.999Z</time></trkpt><trkpt lat="43.277906462204285" lon="13.308458763038708"><ele>165.0</ele><time>2026-05-03T17:51:57.999Z</time></trkpt><trkpt lat="43.277897065462234" lon="13.308707119702309"><ele>164.66666666666666</ele><time>2026-05-03T17:51:58.999Z</time></trkpt><trkpt lat="43.27789999828087" lon="13.308951271572873"><ele>164.33333333333331</ele><time>2026-05-03T17:51:59.999Z</time></trkpt><trkpt lat="43.27791583577203" lon="13.309200614828598"><ele>164.0</ele><time>2026-05-03T17:52:00.999Z</time></trkpt><trkpt lat="43.27794513231341" lon="13.30945291349041"><ele>164.0</ele><time>2026-05-03T17:52:01.999Z</time></trkpt><trkpt lat="43.27798436616639" lon="13.309699127681554"><ele>164.0</ele><time>2026-05-03T17:52:02.999Z</time></trkpt><trkpt lat="43.27802404730821" lon="13.30994827463545"><ele>164.0</ele><time>2026-05-03T17:52:03.999Z</time></trkpt><trkpt lat="43.27806181257043" lon="13.310193989405619"><ele>163.66666666666666</ele><time>2026-05-03T17:52:04.999Z</time></trkpt><trkpt lat="43.27810107502172" lon="13.310450548935655"><ele>163.33333333333334</ele><time>2026-05-03T17:52:05.999Z</time></trkpt><trkpt lat="43.27813432540822" lon="13.31070437129598"><ele>163.0</ele><time>2026-05-03T17:52:06.999Z</time></trkpt><trkpt lat="43.278173867996095" lon="13.310958420378574"><ele>163.66666666666669</ele><time>2026-05-03T17:52:07.999Z</time></trkpt><trkpt lat="43.27821064256693" lon="13.311212011783018"><ele>164.33333333333334</ele><time>2026-05-03T17:52:08.999Z</time></trkpt><trkpt lat="43.27824978632628" lon="13.311468893778137"><ele>165.0</ele><time>2026-05-03T17:52:09.999Z</time></trkpt><trkpt lat="43.27828798266266" lon="13.311726180459166"><ele>165.0</ele><time>2026-05-03T17:52:10.999Z</time></trkpt><trkpt lat="43.278325403406384" lon="13.31198385246015"><ele>165.0</ele><time>2026-05-03T17:52:11.999Z</time></trkpt><trkpt lat="43.278361546948474" lon="13.312243788600412"><ele>165.0</ele><time>2026-05-03T17:52:12.999Z</time></trkpt><trkpt lat="43.27839970127483" lon="13.312506795406893"><ele>164.0</ele><time>2026-05-03T17:52:13.999Z</time></trkpt><trkpt lat="43.27843815928713" lon="13.312768554148615"><ele>163.0</ele><time>2026-05-03T17:52:14.999Z</time></trkpt><trkpt lat="43.27847602402333" lon="13.313031500511396"><ele>162.0</ele><time>2026-05-03T17:52:15.999Z</time></trkpt><trkpt lat="43.27851285458147" lon="13.313296774676385"><ele>161.0</ele><time>2026-05-03T17:52:16.999Z</time></trkpt><trkpt lat="43.278555132278846" lon="13.31356272975795"><ele>160.0</ele><time>2026-05-03T17:52:17.999Z</time></trkpt><trkpt lat="43.27859427217526" lon="13.313826603914638"><ele>159.0</ele><time>2026-05-03T17:52:18.999Z</time></trkpt><trkpt lat="43.278630930122304" lon="13.314071585781383"><ele>158.0</ele><time>2026-05-03T17:52:19.999Z</time></trkpt><trkpt lat="43.278675269880765" lon="13.31433667286896"><ele>157.0</ele><time>2026-05-03T17:52:20.999Z</time></trkpt><trkpt lat="43.27871104048641" lon="13.314598577770939"><ele>156.0</ele><time>2026-05-03T17:52:21.999Z</time></trkpt><trkpt lat="43.27877541458701" lon="13.314846832203315"><ele>156.0</ele><time>2026-05-03T17:52:22.999Z</time></trkpt><trkpt lat="43.278872395351236" lon="13.31507769298868"><ele>156.0</ele><time>2026-05-03T17:52:23.999Z</time></trkpt><trkpt lat="43.278968233365475" lon="13.31530902012118"><ele>156.0</ele><time>2026-05-03T17:52:24.999Z</time></trkpt><trkpt lat="43.27906827916906" lon="13.315541504356833"><ele>156.66666666666666</ele><time>2026-05-03T17:52:25.999Z</time></trkpt><trkpt lat="43.27915796235249" lon="13.31577667947484"><ele>157.33333333333331</ele><time>2026-05-03T17:52:26.999Z</time></trkpt><trkpt lat="43.27925876618246" lon="13.316006980153965"><ele>158.0</ele><time>2026-05-03T17:52:27.999Z</time></trkpt><trkpt lat="43.27936120616015" lon="13.31624101337108"><ele>157.0</ele><time>2026-05-03T17:52:28.999Z</time></trkpt><trkpt lat="43.27946379272922" lon="13.31647538157455"><ele>156.0</ele><time>2026-05-03T17:52:29.999Z</time></trkpt><trkpt lat="43.279579642890994" lon="13.316699658908396"><ele>155.0</ele><time>2026-05-03T17:52:30.999Z</time></trkpt><trkpt lat="43.2796828512825" lon="13.316938576448079"><ele>155.33333333333331</ele><time>2026-05-03T17:52:31.999Z</time></trkpt><trkpt lat="43.27978608806865" lon="13.31717425414542"><ele>155.66666666666666</ele><time>2026-05-03T17:52:32.999Z</time></trkpt><trkpt lat="43.27988855719073" lon="13.317413860025978"><ele>156.0</ele><time>2026-05-03T17:52:33.999Z</time></trkpt><trkpt lat="43.27999108693482" lon="13.31765677714475"><ele>156.0</ele><time>2026-05-03T17:52:34.999Z</time></trkpt><trkpt lat="43.280098128946115" lon="13.317897293095271"><ele>156.0</ele><time>2026-05-03T17:52:35.999Z</time></trkpt><trkpt lat="43.28020418493812" lon="13.318137777104662"><ele>156.0</ele><time>2026-05-03T17:52:36.998Z</time></trkpt><trkpt lat="43.28029117108923" lon="13.318392179111429"><ele>155.33333333333334</ele><time>2026-05-03T17:52:38Z</time></trkpt><trkpt lat="43.28038859102271" lon="13.318634189639136"><ele>154.66666666666669</ele><time>2026-05-03T17:52:39Z</time></trkpt><trkpt lat="43.28050005380815" lon="13.318869585178703"><ele>154.0</ele><time>2026-05-03T17:52:40Z</time></trkpt><trkpt lat="43.280591023928" lon="13.319105191508395"><ele>153.66666666666669</ele><time>2026-05-03T17:52:41Z</time></trkpt><trkpt lat="43.28067582601361" lon="13.319333660082565"><ele>153.33333333333334</ele><time>2026-05-03T17:52:42Z</time></trkpt><trkpt lat="43.28076008808785" lon="13.319557494247992"><ele>153.0</ele><time>2026-05-03T17:52:43Z</time></trkpt><trkpt lat="43.2808452249686" lon="13.319789535515376"><ele>153.0</ele><time>2026-05-03T17:52:44Z</time></trkpt><trkpt lat="43.280923269711266" lon="13.320017880604912"><ele>153.0</ele><time>2026-05-03T17:52:45Z</time></trkpt><trkpt lat="43.28096793224599" lon="13.320255751463238"><ele>153.0</ele><time>2026-05-03T17:52:46Z</time></trkpt><trkpt lat="43.28101179381087" lon="13.320491958976165"><ele>152.0</ele><time>2026-05-03T17:52:47Z</time></trkpt><trkpt lat="43.28104851220994" lon="13.320725756877463"><ele>151.0</ele><time>2026-05-03T17:52:48Z</time></trkpt><trkpt lat="43.28109390872626" lon="13.320955499173511"><ele>150.0</ele><time>2026-05-03T17:52:49Z</time></trkpt><trkpt lat="43.281124616139614" lon="13.321176956202976"><ele>150.0</ele><time>2026-05-03T17:52:50Z</time></trkpt><trkpt lat="43.281157619733996" lon="13.321398017175065"><ele>150.0</ele><time>2026-05-03T17:52:51Z</time></trkpt><trkpt lat="43.28118931334017" lon="13.321610420883795"><ele>150.0</ele><time>2026-05-03T17:52:52Z</time></trkpt><trkpt lat="43.28122309011814" lon="13.321818817204466"><ele>149.75</ele><time>2026-05-03T17:52:53Z</time></trkpt><trkpt lat="43.2812564117499" lon="13.322017328409107"><ele>149.5</ele><time>2026-05-03T17:52:54Z</time></trkpt><trkpt lat="43.28128470853463" lon="13.32221178393524"><ele>149.25</ele><time>2026-05-03T17:52:55Z</time></trkpt><trkpt lat="43.28131243651675" lon="13.322401969820216"><ele>149.0</ele><time>2026-05-03T17:52:56Z</time></trkpt><trkpt lat="43.281338844240366" lon="13.322585252474086"><ele>149.0</ele><time>2026-05-03T17:52:57Z</time></trkpt><trkpt lat="43.281367828058315" lon="13.322759095446944"><ele>149.0</ele><time>2026-05-03T17:52:58Z</time></trkpt><trkpt lat="43.28139930093257" lon="13.322928803145325"><ele>149.0</ele><time>2026-05-03T17:52:59Z</time></trkpt><trkpt lat="43.28143731793247" lon="13.323094527787791"><ele>149.0</ele><time>2026-05-03T17:53:00Z</time></trkpt><trkpt lat="43.281481528715204" lon="13.323250928861352"><ele>149.0</ele><time>2026-05-03T17:53:01Z</time></trkpt><trkpt lat="43.28153210272046" lon="13.323399165247826"><ele>149.0</ele><time>2026-05-03T17:53:02Z</time></trkpt><trkpt lat="43.28158077247557" lon="13.323545103526243"><ele>149.0</ele><time>2026-05-03T17:53:03Z</time></trkpt><trkpt lat="43.28162496231532" lon="13.32368941043241"><ele>149.0</ele><time>2026-05-03T17:53:04Z</time></trkpt><trkpt lat="43.28167025086997" lon="13.32383029821541"><ele>149.2</ele><time>2026-05-03T17:53:05Z</time></trkpt><trkpt lat="43.28169531110336" lon="13.323983950850318"><ele>149.4</ele><time>2026-05-03T17:53:06Z</time></trkpt><trkpt lat="43.28174073984729" lon="13.32412191143009"><ele>149.6</ele><time>2026-05-03T17:53:07Z</time></trkpt><trkpt lat="43.2817853426323" lon="13.324257940256977"><ele>149.8</ele><time>2026-05-03T17:53:08Z</time></trkpt><trkpt lat="43.28184112758425" lon="13.324389806215729"><ele>150.0</ele><time>2026-05-03T17:53:09Z</time></trkpt><trkpt lat="43.28188320902666" lon="13.324529393526001"><ele>150.0</ele><time>2026-05-03T17:53:10Z</time></trkpt><trkpt lat="43.2819297040379" lon="13.324668081628122"><ele>150.0</ele><time>2026-05-03T17:53:11Z</time></trkpt><trkpt lat="43.28197757357448" lon="13.324806285392043"><ele>150.0</ele><time>2026-05-03T17:53:12Z</time></trkpt><trkpt lat="43.28202300385254" lon="13.324942444186078"><ele>150.0</ele><time>2026-05-03T17:53:13Z</time></trkpt><trkpt lat="43.2820541162885" lon="13.325084113203562"><ele>150.0</ele><time>2026-05-03T17:53:14Z</time></trkpt><trkpt lat="43.2820972558593" lon="13.325216628228091"><ele>149.6</ele><time>2026-05-03T17:53:15Z</time></trkpt><trkpt lat="43.28215361558121" lon="13.32534055977351"><ele>149.2</ele><time>2026-05-03T17:53:16Z</time></trkpt><trkpt lat="43.28219548508991" lon="13.325477301846938"><ele>148.8</ele><time>2026-05-03T17:53:17Z</time></trkpt><trkpt lat="43.28223952458219" lon="13.325617171027377"><ele>148.4</ele><time>2026-05-03T17:53:18Z</time></trkpt><trkpt lat="43.28228528328419" lon="13.325754142283941"><ele>148.0</ele><time>2026-05-03T17:53:19Z</time></trkpt><trkpt lat="43.28232740458979" lon="13.325892603048683"><ele>148.0</ele><time>2026-05-03T17:53:20Z</time></trkpt><trkpt lat="43.28237022654757" lon="13.326025598385069"><ele>148.0</ele><time>2026-05-03T17:53:21Z</time></trkpt><trkpt lat="43.28240873220152" lon="13.32615792349406"><ele>148.0</ele><time>2026-05-03T17:53:22Z</time></trkpt><trkpt lat="43.282446076115185" lon="13.326287939759217"><ele>148.0</ele><time>2026-05-03T17:53:23Z</time></trkpt><trkpt lat="43.28248542599004" lon="13.326414455478892"><ele>148.0</ele><time>2026-05-03T17:53:24Z</time></trkpt><trkpt lat="43.28252512540805" lon="13.32653544762917"><ele>147.66666666666669</ele><time>2026-05-03T17:53:25Z</time></trkpt><trkpt lat="43.282559661178674" lon="13.326644093978247"><ele>147.33333333333334</ele><time>2026-05-03T17:53:26Z</time></trkpt><trkpt lat="43.282590652260424" lon="13.326739624211957"><ele>147.0</ele><time>2026-05-03T17:53:27Z</time></trkpt><trkpt lat="43.28262422134839" lon="13.326831555853802"><ele>146.66666666666666</ele><time>2026-05-03T17:53:28Z</time></trkpt><trkpt lat="43.28265912392387" lon="13.326923049138761"><ele>146.33333333333331</ele><time>2026-05-03T17:53:29Z</time></trkpt><trkpt lat="43.2826935385604" lon="13.327015429113045"><ele>146.0</ele><time>2026-05-03T17:53:30Z</time></trkpt><trkpt lat="43.282724450071825" lon="13.327105419704768"><ele>146.0</ele><time>2026-05-03T17:53:30.999Z</time></trkpt><trkpt lat="43.28275497900782" lon="13.327197455778244"><ele>146.0</ele><time>2026-05-03T17:53:31.999Z</time></trkpt><trkpt lat="43.282782380548696" lon="13.3272923224684"><ele>146.0</ele><time>2026-05-03T17:53:32.999Z</time></trkpt><trkpt lat="43.28281114924153" lon="13.327385675651355"><ele>146.0</ele><time>2026-05-03T17:53:33.999Z</time></trkpt><trkpt lat="43.28283999722602" lon="13.327479389411415"><ele>146.0</ele><time>2026-05-03T17:53:34.999Z</time></trkpt><trkpt lat="43.28286709880987" lon="13.327573282629288"><ele>146.0</ele><time>2026-05-03T17:53:35.999Z</time></trkpt><trkpt lat="43.28289475765586" lon="13.327666503476314"><ele>146.0</ele><time>2026-05-03T17:53:36.999Z</time></trkpt><trkpt lat="43.282924136701915" lon="13.327760279383039"><ele>145.83333333333331</ele><time>2026-05-03T17:53:37.999Z</time></trkpt><trkpt lat="43.282955492547835" lon="13.32785547430528"><ele>145.66666666666666</ele><time>2026-05-03T17:53:38.999Z</time></trkpt><trkpt lat="43.282989340142024" lon="13.327949874960575"><ele>145.5</ele><time>2026-05-03T17:53:39.999Z</time></trkpt><trkpt lat="43.28302399083404" lon="13.328044522404458"><ele>145.33333333333334</ele><time>2026-05-03T17:53:40.999Z</time></trkpt><trkpt lat="43.28305843714249" lon="13.328138215163179"><ele>145.16666666666669</ele><time>2026-05-03T17:53:41.999Z</time></trkpt><trkpt lat="43.28309363171128" lon="13.32823088405953"><ele>145.0</ele><time>2026-05-03T17:53:42.999Z</time></trkpt><trkpt lat="43.283111696236965" lon="13.328335895763257"><ele>145.0</ele><time>2026-05-03T17:53:43.999Z</time></trkpt><trkpt lat="43.283142007692625" lon="13.32843181363172"><ele>145.0</ele><time>2026-05-03T17:53:44.999Z</time></trkpt><trkpt lat="43.2831729920302" lon="13.328531068800007"><ele>145.0</ele><time>2026-05-03T17:53:45.999Z</time></trkpt><trkpt lat="43.28320441070384" lon="13.328632509294112"><ele>145.0</ele><time>2026-05-03T17:53:46.999Z</time></trkpt><trkpt lat="43.28323503641558" lon="13.328735106671505"><ele>145.0</ele><time>2026-05-03T17:53:47.999Z</time></trkpt><trkpt lat="43.2832798136618" lon="13.328832553736838"><ele>145.0</ele><time>2026-05-03T17:53:48.999Z</time></trkpt><trkpt lat="43.28330550579643" lon="13.32894124293618"><ele>144.83333333333334</ele><time>2026-05-03T17:53:49.999Z</time></trkpt><trkpt lat="43.283338655471994" lon="13.329050359774305"><ele>144.66666666666669</ele><time>2026-05-03T17:53:50.999Z</time></trkpt><trkpt lat="43.283369980989924" lon="13.32916277217497"><ele>144.5</ele><time>2026-05-03T17:53:51.999Z</time></trkpt><trkpt lat="43.28340315509289" lon="13.329272767464623"><ele>144.33333333333334</ele><time>2026-05-03T17:53:52.999Z</time></trkpt><trkpt lat="43.283437785370886" lon="13.329386327151486"><ele>144.16666666666666</ele><time>2026-05-03T17:53:53.999Z</time></trkpt><trkpt lat="43.2834717950297" lon="13.329504490860723"><ele>144.0</ele><time>2026-05-03T17:53:54.999Z</time></trkpt><trkpt lat="43.28350256360769" lon="13.329621505842685"><ele>143.66666666666666</ele><time>2026-05-03T17:53:55.999Z</time></trkpt><trkpt lat="43.28352901570996" lon="13.329740249448895"><ele>143.33333333333334</ele><time>2026-05-03T17:53:56.999Z</time></trkpt><trkpt lat="43.28354905691182" lon="13.329859824451422"><ele>143.0</ele><time>2026-05-03T17:53:57.999Z</time></trkpt><trkpt lat="43.2835656923346" lon="13.329982901550363"><ele>142.66666666666669</ele><time>2026-05-03T17:53:58.999Z</time></trkpt><trkpt lat="43.283579734642544" lon="13.330104363036346"><ele>142.33333333333334</ele><time>2026-05-03T17:53:59.999Z</time></trkpt><trkpt lat="43.283593959294805" lon="13.330224475236705"><ele>142.0</ele><time>2026-05-03T17:54:00.999Z</time></trkpt><trkpt lat="43.283614616269055" lon="13.330339798169996"><ele>142.0</ele><time>2026-05-03T17:54:01.999Z</time></trkpt><trkpt lat="43.283649572735854" lon="13.330441902724134"><ele>142.0</ele><time>2026-05-03T17:54:02.999Z</time></trkpt><trkpt lat="43.28369658616456" lon="13.330524524959818"><ele>142.0</ele><time>2026-05-03T17:54:03.999Z</time></trkpt><trkpt lat="43.28373168931119" lon="13.330598386502878"><ele>142.0</ele><time>2026-05-03T17:54:04.999Z</time></trkpt><trkpt lat="43.28381119634415" lon="13.330648761565248"><ele>142.0</ele><time>2026-05-03T17:54:06.999Z</time></trkpt><trkpt lat="43.28384579325543" lon="13.330436065615123"><ele>142.0</ele><time>2026-05-03T17:54:08.999Z</time></trkpt><trkpt lat="43.28382889870348" lon="13.330314971889516"><ele>142.0</ele><time>2026-05-03T17:54:11.999Z</time></trkpt><trkpt lat="43.28380808623999" lon="13.330150350751497"><ele>142.0</ele><time>2026-05-03T17:54:13.999Z</time></trkpt><trkpt lat="43.2837938068037" lon="13.33004458019851"><ele>142.0</ele><time>2026-05-03T17:54:14.999Z</time></trkpt><trkpt lat="43.28378263099552" lon="13.329945472830353"><ele>142.0</ele><time>2026-05-03T17:54:15.999Z</time></trkpt><trkpt lat="43.28378085615229" lon="13.32983305253807"><ele>142.0</ele><time>2026-05-03T17:54:16.999Z</time></trkpt><trkpt lat="43.28377446024794" lon="13.32973030505145"><ele>142.4</ele><time>2026-05-03T17:54:17.999Z</time></trkpt><trkpt lat="43.283772695329226" lon="13.329631820142923"><ele>142.79999999999998</ele><time>2026-05-03T17:54:18.999Z</time></trkpt><trkpt lat="43.28376261767415" lon="13.329538513598317"><ele>143.2</ele><time>2026-05-03T17:54:19.999Z</time></trkpt><trkpt lat="43.2837317436511" lon="13.329373747847796"><ele>143.6</ele><time>2026-05-03T17:54:21.999Z</time></trkpt><trkpt lat="43.283695619509224" lon="13.329229520447079"><ele>144.0</ele><time>2026-05-03T17:54:23.999Z</time></trkpt><trkpt lat="43.28366725221753" lon="13.32907712422198"><ele>144.0</ele><time>2026-05-03T17:54:25.999Z</time></trkpt><trkpt lat="43.28363198745639" lon="13.328930274974388"><ele>144.0</ele><time>2026-05-03T17:54:27.999Z</time></trkpt><trkpt lat="43.28357904592992" lon="13.328796147244587"><ele>144.0</ele><time>2026-05-03T17:54:29.999Z</time></trkpt><trkpt lat="43.28354396388561" lon="13.328671436051057"><ele>144.0</ele><time>2026-05-03T17:54:31.999Z</time></trkpt><trkpt lat="43.28351718390277" lon="13.328577403319706"><ele>144.0</ele><time>2026-05-03T17:54:34.999Z</time></trkpt><trkpt lat="43.283465753595614" lon="13.328451824434717"><ele>144.16666666666666</ele><time>2026-05-03T17:58:21.999Z</time></trkpt><trkpt lat="43.28341051681016" lon="13.328338494709833"><ele>144.33333333333334</ele><time>2026-05-03T17:58:23.999Z</time></trkpt><trkpt lat="43.283319874515705" lon="13.328350967694298"><ele>144.5</ele><time>2026-05-03T17:58:25.999Z</time></trkpt><trkpt lat="43.28325605209933" lon="13.32838596265085"><ele>144.66666666666669</ele><time>2026-05-03T17:58:30.999Z</time></trkpt><trkpt lat="43.283191496051" lon="13.328477609674328"><ele>144.83333333333334</ele><time>2026-05-03T17:58:35.999Z</time></trkpt><trkpt lat="43.283191020742" lon="13.328589277559685"><ele>145.0</ele><time>2026-05-03T17:58:37.999Z</time></trkpt><trkpt lat="43.28322824590627" lon="13.328672492859736"><ele>145.0</ele><time>2026-05-03T17:58:39.999Z</time></trkpt><trkpt lat="43.283265607003706" lon="13.328794145519382"><ele>145.0</ele><time>2026-05-03T17:58:41.999Z</time></trkpt><trkpt lat="43.2833071888955" lon="13.328959750586035"><ele>145.0</ele><time>2026-05-03T17:58:43.999Z</time></trkpt><trkpt lat="43.28334044977093" lon="13.329055411850254"><ele>145.0</ele><time>2026-05-03T17:58:44.999Z</time></trkpt><trkpt lat="43.28336798667901" lon="13.329166455329252"><ele>145.0</ele><time>2026-05-03T17:58:45.999Z</time></trkpt><trkpt lat="43.28339895117623" lon="13.329272692126471"><ele>144.83333333333334</ele><time>2026-05-03T17:58:46.999Z</time></trkpt><trkpt lat="43.28343076018548" lon="13.329383193646708"><ele>144.66666666666669</ele><time>2026-05-03T17:58:47.999Z</time></trkpt><trkpt lat="43.28345985373701" lon="13.32948510994443"><ele>144.5</ele><time>2026-05-03T17:58:48.999Z</time></trkpt><trkpt lat="43.28348824849014" lon="13.329585006114598"><ele>144.33333333333334</ele><time>2026-05-03T17:58:49.999Z</time></trkpt><trkpt lat="43.2835136706573" lon="13.32967829511123"><ele>144.16666666666666</ele><time>2026-05-03T17:58:50.999Z</time></trkpt><trkpt lat="43.28352710501686" lon="13.329779680505336"><ele>144.0</ele><time>2026-05-03T17:58:51.999Z</time></trkpt><trkpt lat="43.28354238163477" lon="13.329880118517329"><ele>143.66666666666666</ele><time>2026-05-03T17:58:52.999Z</time></trkpt><trkpt lat="43.28355560370465" lon="13.329982073782224"><ele>143.33333333333334</ele><time>2026-05-03T17:58:53.999Z</time></trkpt><trkpt lat="43.28356874450488" lon="13.330085898566766"><ele>143.0</ele><time>2026-05-03T17:58:54.999Z</time></trkpt><trkpt lat="43.28357974969228" lon="13.330186637034277"><ele>142.66666666666669</ele><time>2026-05-03T17:58:56Z</time></trkpt><trkpt lat="43.28359459027052" lon="13.33028843812259"><ele>142.33333333333334</ele><time>2026-05-03T17:58:57Z</time></trkpt><trkpt lat="43.28360838670912" lon="13.330388899861125"><ele>142.0</ele><time>2026-05-03T17:58:58Z</time></trkpt><trkpt lat="43.283632169015156" lon="13.330496842739224"><ele>141.83333333333334</ele><time>2026-05-03T17:58:59Z</time></trkpt><trkpt lat="43.28365314113457" lon="13.330599179765962"><ele>141.66666666666669</ele><time>2026-05-03T17:59:00Z</time></trkpt><trkpt lat="43.283659320238755" lon="13.330689711151178"><ele>141.5</ele><time>2026-05-03T17:59:01Z</time></trkpt><trkpt lat="43.283664790558696" lon="13.33078579047129"><ele>141.33333333333334</ele><time>2026-05-03T17:59:02Z</time></trkpt><trkpt lat="43.283682300580224" lon="13.330884210096476"><ele>141.16666666666666</ele><time>2026-05-03T17:59:03Z</time></trkpt><trkpt lat="43.283708369477424" lon="13.330988928789244"><ele>141.0</ele><time>2026-05-03T17:59:04Z</time></trkpt><trkpt lat="43.28373281624532" lon="13.331099079331219"><ele>141.0</ele><time>2026-05-03T17:59:05Z</time></trkpt><trkpt lat="43.28376439055817" lon="13.331207714237342"><ele>141.0</ele><time>2026-05-03T17:59:06Z</time></trkpt><trkpt lat="43.28379085411955" lon="13.331328067543588"><ele>141.0</ele><time>2026-05-03T17:59:07Z</time></trkpt><trkpt lat="43.28382019856095" lon="13.331447365437114"><ele>141.0</ele><time>2026-05-03T17:59:08Z</time></trkpt><trkpt lat="43.28385340041114" lon="13.331572027856476"><ele>141.0</ele><time>2026-05-03T17:59:09Z</time></trkpt><trkpt lat="43.28387372436035" lon="13.331701403444917"><ele>140.6</ele><time>2026-05-03T17:59:10Z</time></trkpt><trkpt lat="43.28387891253588" lon="13.331846995872258"><ele>140.2</ele><time>2026-05-03T17:59:11Z</time></trkpt><trkpt lat="43.283868690075984" lon="13.331989490449372"><ele>139.8</ele><time>2026-05-03T17:59:12Z</time></trkpt><trkpt lat="43.28385059176709" lon="13.332125028450012"><ele>139.4</ele><time>2026-05-03T17:59:13Z</time></trkpt><trkpt lat="43.28381822000098" lon="13.332259378498764"><ele>139.0</ele><time>2026-05-03T17:59:14Z</time></trkpt><trkpt lat="43.28378551223087" lon="13.332399045690225"><ele>138.8</ele><time>2026-05-03T17:59:15Z</time></trkpt><trkpt lat="43.28375109178501" lon="13.332526883769612"><ele>138.60000000000002</ele><time>2026-05-03T17:59:16Z</time></trkpt><trkpt lat="43.283715488747305" lon="13.332646784299522"><ele>138.4</ele><time>2026-05-03T17:59:17Z</time></trkpt><trkpt lat="43.28367866351424" lon="13.332742841455557"><ele>138.20000000000002</ele><time>2026-05-03T17:59:18Z</time></trkpt><trkpt lat="43.28360014735584" lon="13.332836852685102"><ele>138.0</ele><time>2026-05-03T17:59:20Z</time></trkpt><trkpt lat="43.28352192124324" lon="13.332869658671822"><ele>138.0</ele><time>2026-05-03T17:59:22Z</time></trkpt><trkpt lat="43.28347810983909" lon="13.332945940993595"><ele>138.0</ele><time>2026-05-03T17:59:25Z</time></trkpt><trkpt lat="43.28348502671362" lon="13.333043972126132"><ele>138.0</ele><time>2026-05-03T17:59:27Z</time></trkpt><trkpt lat="43.2834900317521" lon="13.333132648347478"><ele>138.0</ele><time>2026-05-03T17:59:31Z</time></trkpt><trkpt lat="43.283494654340615" lon="13.333240930219839"><ele>138.0</ele><time>2026-05-03T17:59:51Z</time></trkpt><trkpt lat="43.283424805718255" lon="13.333332888249645"><ele>138.0</ele><time>2026-05-03T17:59:53Z</time></trkpt><trkpt lat="43.283325021090775" lon="13.333428983558818"><ele>138.0</ele><time>2026-05-03T17:59:54.999Z</time></trkpt><trkpt lat="43.28326832194937" lon="13.333483752795685"><ele>138.0</ele><time>2026-05-03T17:59:55.999Z</time></trkpt><trkpt lat="43.2832062132178" lon="13.333543649004344"><ele>138.0</ele><time>2026-05-03T17:59:56.999Z</time></trkpt><trkpt lat="43.28314113228834" lon="13.333605277917849"><ele>138.0</ele><time>2026-05-03T17:59:57.999Z</time></trkpt><trkpt lat="43.283067814668" lon="13.333671364034736"><ele>138.0</ele><time>2026-05-03T17:59:58.999Z</time></trkpt><trkpt lat="43.28299680826803" lon="13.333735366897251"><ele>138.0</ele><time>2026-05-03T17:59:59.999Z</time></trkpt><trkpt lat="43.282924757684" lon="13.333800310950961"><ele>138.16666666666666</ele><time>2026-05-03T18:00:00.999Z</time></trkpt><trkpt lat="43.28285327604311" lon="13.33386474217635"><ele>138.33333333333334</ele><time>2026-05-03T18:00:01.999Z</time></trkpt><trkpt lat="43.28278954559881" lon="13.333946677209918"><ele>138.5</ele><time>2026-05-03T18:00:02.999Z</time></trkpt><trkpt lat="43.28270926206062" lon="13.333994824465336"><ele>138.66666666666669</ele><time>2026-05-03T18:00:03.999Z</time></trkpt><trkpt lat="43.28263830594379" lon="13.334059037831043"><ele>138.83333333333334</ele><time>2026-05-03T18:00:04.999Z</time></trkpt><trkpt lat="43.28256755597711" lon="13.334125591709217"><ele>139.0</ele><time>2026-05-03T18:00:05.999Z</time></trkpt><trkpt lat="43.28249913608209" lon="13.334211619955088"><ele>140.2</ele><time>2026-05-03T18:00:06.999Z</time></trkpt><trkpt lat="43.28244616650022" lon="13.334306523562534"><ele>141.4</ele><time>2026-05-03T18:00:07.999Z</time></trkpt><trkpt lat="43.282454132079714" lon="13.334453975830789"><ele>142.6</ele><time>2026-05-03T18:00:08.999Z</time></trkpt><trkpt lat="43.28244571166597" lon="13.334569353369494"><ele>143.8</ele><time>2026-05-03T18:00:09.999Z</time></trkpt><trkpt lat="43.2824485140727" lon="13.33469661005595"><ele>145.0</ele><time>2026-05-03T18:00:10.999Z</time></trkpt><trkpt lat="43.2824722346333" lon="13.334827238422076"><ele>146.25</ele><time>2026-05-03T18:00:11.999Z</time></trkpt><trkpt lat="43.2825102895326" lon="13.33496283658239"><ele>147.5</ele><time>2026-05-03T18:00:12.999Z</time></trkpt><trkpt lat="43.28255757582034" lon="13.335096189599907"><ele>148.75</ele><time>2026-05-03T18:00:13.999Z</time></trkpt><trkpt lat="43.282602450926426" lon="13.335236403712443"><ele>150.0</ele><time>2026-05-03T18:00:14.999Z</time></trkpt><trkpt lat="43.28262135634057" lon="13.335409234692671"><ele>152.25</ele><time>2026-05-03T18:00:15.999Z</time></trkpt><trkpt lat="43.2826641869247" lon="13.335575728377899"><ele>154.5</ele><time>2026-05-03T18:00:16.999Z</time></trkpt><trkpt lat="43.28270512943103" lon="13.33575022656818"><ele>156.75</ele><time>2026-05-03T18:00:17.999Z</time></trkpt><trkpt lat="43.28274205361235" lon="13.33592321997187"><ele>159.0</ele><time>2026-05-03T18:00:18.999Z</time></trkpt><trkpt lat="43.28277495931128" lon="13.336108169659978"><ele>159.0</ele><time>2026-05-03T18:00:19.999Z</time></trkpt><trkpt lat="43.28280729479181" lon="13.33630301075775"><ele>159.0</ele><time>2026-05-03T18:00:20.999Z</time></trkpt><trkpt lat="43.282841149638536" lon="13.336507006972091"><ele>159.0</ele><time>2026-05-03T18:00:21.999Z</time></trkpt><trkpt lat="43.282876458143924" lon="13.336717141188156"><ele>159.33333333333334</ele><time>2026-05-03T18:00:22.999Z</time></trkpt><trkpt lat="43.28291273810787" lon="13.336932447046314"><ele>159.66666666666669</ele><time>2026-05-03T18:00:23.999Z</time></trkpt><trkpt lat="43.28295175406393" lon="13.337156321524215"><ele>160.0</ele><time>2026-05-03T18:00:24.999Z</time></trkpt><trkpt lat="43.28299019805942" lon="13.337375738586829"><ele>158.33333333333334</ele><time>2026-05-03T18:00:25.999Z</time></trkpt><trkpt lat="43.28303102108177" lon="13.337597698398556"><ele>156.66666666666666</ele><time>2026-05-03T18:00:26.999Z</time></trkpt><trkpt lat="43.28307320935912" lon="13.337823807224792"><ele>155.0</ele><time>2026-05-03T18:00:27.999Z</time></trkpt><trkpt lat="43.28311619032348" lon="13.33805093030767"><ele>150.0</ele><time>2026-05-03T18:00:28.999Z</time></trkpt><trkpt lat="43.28316054762644" lon="13.338279607077983"><ele>145.0</ele><time>2026-05-03T18:00:29.999Z</time></trkpt><trkpt lat="43.28320504848927" lon="13.338508454614113"><ele>140.0</ele><time>2026-05-03T18:00:30.999Z</time></trkpt><trkpt lat="43.28325004774096" lon="13.338739865140619"><ele>140.33333333333331</ele><time>2026-05-03T18:00:31.999Z</time></trkpt><trkpt lat="43.28329602985067" lon="13.338976330057683"><ele>140.66666666666666</ele><time>2026-05-03T18:00:32.999Z</time></trkpt><trkpt lat="43.28334254536958" lon="13.33921553804864"><ele>141.0</ele><time>2026-05-03T18:00:33.999Z</time></trkpt><trkpt lat="43.28338731672632" lon="13.339445776607905"><ele>141.0</ele><time>2026-05-03T18:00:34.999Z</time></trkpt><trkpt lat="43.2834297444759" lon="13.339672482185295"><ele>141.0</ele><time>2026-05-03T18:00:35.999Z</time></trkpt><trkpt lat="43.28347413627872" lon="13.339910706317697"><ele>141.0</ele><time>2026-05-03T18:00:36.999Z</time></trkpt><trkpt lat="43.28351784888209" lon="13.340152621375632"><ele>141.0</ele><time>2026-05-03T18:00:37.999Z</time></trkpt><trkpt lat="43.28356334124609" lon="13.34040175554511"><ele>141.0</ele><time>2026-05-03T18:00:38.999Z</time></trkpt><trkpt lat="43.28360985732567" lon="13.340656495968465"><ele>141.0</ele><time>2026-05-03T18:00:39.999Z</time></trkpt><trkpt lat="43.28365717922844" lon="13.34091330596521"><ele>141.0</ele><time>2026-05-03T18:00:40.999Z</time></trkpt><trkpt lat="43.28370463858842" lon="13.341170621409136"><ele>141.0</ele><time>2026-05-03T18:00:41.999Z</time></trkpt><trkpt lat="43.283768490279854" lon="13.341422791102536"><ele>141.0</ele><time>2026-05-03T18:00:42.999Z</time></trkpt><trkpt lat="43.283813299872655" lon="13.34168619255172"><ele>140.33333333333334</ele><time>2026-05-03T18:00:43.999Z</time></trkpt><trkpt lat="43.28386179240169" lon="13.341946337201112"><ele>139.66666666666669</ele><time>2026-05-03T18:00:44.999Z</time></trkpt><trkpt lat="43.28391114259771" lon="13.34220530510603"><ele>139.0</ele><time>2026-05-03T18:00:45.999Z</time></trkpt><trkpt lat="43.283964887969574" lon="13.342455950136177"><ele>137.66666666666669</ele><time>2026-05-03T18:00:46.999Z</time></trkpt><trkpt lat="43.28401555527003" lon="13.342700713152118"><ele>136.33333333333334</ele><time>2026-05-03T18:00:47.999Z</time></trkpt><trkpt lat="43.284063573186494" lon="13.342943589388517"><ele>135.0</ele><time>2026-05-03T18:00:48.999Z</time></trkpt><trkpt lat="43.28410830601082" lon="13.34316990552363"><ele>135.0</ele><time>2026-05-03T18:00:49.999Z</time></trkpt><trkpt lat="43.2841490778645" lon="13.34338768508019"><ele>135.0</ele><time>2026-05-03T18:00:50.999Z</time></trkpt><trkpt lat="43.284191806310766" lon="13.34360365972403"><ele>135.0</ele><time>2026-05-03T18:00:51.999Z</time></trkpt><trkpt lat="43.28423648078473" lon="13.343818424883727"><ele>135.0</ele><time>2026-05-03T18:00:52.999Z</time></trkpt><trkpt lat="43.28428034640092" lon="13.344028859147546"><ele>135.0</ele><time>2026-05-03T18:00:53.999Z</time></trkpt><trkpt lat="43.28432496385646" lon="13.344240829066297"><ele>135.0</ele><time>2026-05-03T18:00:54.999Z</time></trkpt><trkpt lat="43.28436753653328" lon="13.344449053850925"><ele>135.0</ele><time>2026-05-03T18:00:55.999Z</time></trkpt><trkpt lat="43.284410884912056" lon="13.344662514868253"><ele>135.0</ele><time>2026-05-03T18:00:56.999Z</time></trkpt><trkpt lat="43.284455433915" lon="13.34487088405691"><ele>135.0</ele><time>2026-05-03T18:00:57.999Z</time></trkpt><trkpt lat="43.284499206339056" lon="13.34507720400097"><ele>136.0</ele><time>2026-05-03T18:00:58.999Z</time></trkpt><trkpt lat="43.284540963897" lon="13.345283349124268"><ele>137.0</ele><time>2026-05-03T18:00:59.999Z</time></trkpt><trkpt lat="43.284581080370465" lon="13.345490600196854"><ele>138.0</ele><time>2026-05-03T18:01:00.999Z</time></trkpt><trkpt lat="43.28462196013264" lon="13.345696536694913"><ele>138.66666666666666</ele><time>2026-05-03T18:01:02Z</time></trkpt><trkpt lat="43.28466153400938" lon="13.345900131601635"><ele>139.33333333333331</ele><time>2026-05-03T18:01:03Z</time></trkpt><trkpt lat="43.28470404868117" lon="13.346109940089606"><ele>140.0</ele><time>2026-05-03T18:01:04Z</time></trkpt><trkpt lat="43.284750496246424" lon="13.346322936423665"><ele>139.33333333333331</ele><time>2026-05-03T18:01:05Z</time></trkpt><trkpt lat="43.284797447613805" lon="13.346541842066557"><ele>138.66666666666666</ele><time>2026-05-03T18:01:06Z</time></trkpt><trkpt lat="43.28484401024311" lon="13.346765997802624"><ele>138.0</ele><time>2026-05-03T18:01:07Z</time></trkpt><trkpt lat="43.284888492701995" lon="13.347000081578658"><ele>137.66666666666666</ele><time>2026-05-03T18:01:08Z</time></trkpt><trkpt lat="43.28493258960692" lon="13.347235301893267"><ele>137.33333333333331</ele><time>2026-05-03T18:01:09Z</time></trkpt><trkpt lat="43.28498082252128" lon="13.347476141421419"><ele>137.0</ele><time>2026-05-03T18:01:10Z</time></trkpt><trkpt lat="43.285033157384305" lon="13.34771361152297"><ele>137.0</ele><time>2026-05-03T18:01:11Z</time></trkpt><trkpt lat="43.285084367438735" lon="13.347947109765622"><ele>137.0</ele><time>2026-05-03T18:01:12Z</time></trkpt><trkpt lat="43.285130132934015" lon="13.348180531203688"><ele>137.0</ele><time>2026-05-03T18:01:13Z</time></trkpt><trkpt lat="43.285176470989036" lon="13.348409405157309"><ele>136.66666666666666</ele><time>2026-05-03T18:01:14Z</time></trkpt><trkpt lat="43.28522300246076" lon="13.348635855974154"><ele>136.33333333333334</ele><time>2026-05-03T18:01:15Z</time></trkpt><trkpt lat="43.28526888273132" lon="13.348860863881212"><ele>136.0</ele><time>2026-05-03T18:01:16Z</time></trkpt><trkpt lat="43.28531341997392" lon="13.349083256578119"><ele>136.0</ele><time>2026-05-03T18:01:17Z</time></trkpt><trkpt lat="43.28535907493879" lon="13.349310208568424"><ele>136.0</ele><time>2026-05-03T18:01:18Z</time></trkpt><trkpt lat="43.28538770086995" lon="13.349538835908662"><ele>136.0</ele><time>2026-05-03T18:01:19Z</time></trkpt><trkpt lat="43.2854285811063" lon="13.349746438561004"><ele>135.5</ele><time>2026-05-03T18:01:20Z</time></trkpt><trkpt lat="43.285467269821204" lon="13.349942912126469"><ele>135.0</ele><time>2026-05-03T18:01:21Z</time></trkpt><trkpt lat="43.28550632022816" lon="13.350130138429398"><ele>134.5</ele><time>2026-05-03T18:01:22Z</time></trkpt><trkpt lat="43.28554233340077" lon="13.350304088846288"><ele>134.0</ele><time>2026-05-03T18:01:23Z</time></trkpt><trkpt lat="43.285575382896475" lon="13.35046372414175"><ele>133.8</ele><time>2026-05-03T18:01:24Z</time></trkpt><trkpt lat="43.28560346157701" lon="13.350599349485957"><ele>133.60000000000002</ele><time>2026-05-03T18:01:25Z</time></trkpt><trkpt lat="43.285623914573854" lon="13.350698141306504"><ele>133.4</ele><time>2026-05-03T18:01:26Z</time></trkpt><trkpt lat="43.285792932156326" lon="13.350675230187454"><ele>133.20000000000002</ele><time>2026-05-03T18:01:31Z</time></trkpt><trkpt lat="43.28588006465144" lon="13.350685225867876"><ele>133.0</ele><time>2026-05-03T18:01:34Z</time></trkpt><trkpt lat="43.285942696152354" lon="13.35067042506982"><ele>133.0</ele><time>2026-05-03T18:01:36Z</time></trkpt><trkpt lat="43.28601346066609" lon="13.350708130168298"><ele>133.0</ele><time>2026-05-03T18:01:38Z</time></trkpt><trkpt lat="43.28607637863976" lon="13.350727153256203"><ele>133.0</ele><time>2026-05-03T18:01:40Z</time></trkpt><trkpt lat="43.28615907905935" lon="13.350750956210087"><ele>133.0</ele><time>2026-05-03T18:01:43Z</time></trkpt><trkpt lat="43.28616022235278" lon="13.350883419118487"><ele>133.0</ele><time>2026-05-03T18:01:46Z</time></trkpt><trkpt lat="43.28618565555042" lon="13.350972568099778"><ele>133.0</ele><time>2026-05-03T18:01:48Z</time></trkpt><trkpt lat="43.28623136792995" lon="13.351040209556137"><ele>133.0</ele><time>2026-05-03T18:01:50Z</time></trkpt><trkpt lat="43.28629803652285" lon="13.351024553402132"><ele>133.0</ele><time>2026-05-03T18:01:54Z</time></trkpt><trkpt lat="43.286263512503986" lon="13.350941816099802"><ele>133.0</ele><time>2026-05-03T18:03:12Z</time></trkpt><trkpt lat="43.286253576951395" lon="13.350850361279393"><ele>133.0</ele><time>2026-05-03T18:03:21Z</time></trkpt><trkpt lat="43.286316816050544" lon="13.350838469287542"><ele>133.0</ele><time>2026-05-03T18:04:20.039Z</time></trkpt><trkpt lat="43.28623939314884" lon="13.350811990678093"><ele>133.0</ele><time>2026-05-03T18:04:38.032Z</time></trkpt><trkpt lat="43.2862870364283" lon="13.351014705837327"><ele>133.0</ele><time>2026-05-03T18:05:17.01Z</time></trkpt><trkpt lat="43.28623313599606" lon="13.350903858491879"><ele>133.0</ele><time>2026-05-03T18:05:23.01Z</time></trkpt><trkpt lat="43.28626984106463" lon="13.350783326427736"><ele>133.0</ele><time>2026-05-03T18:05:28.015Z</time></trkpt><trkpt lat="43.286357072361405" lon="13.350764956215603"><ele>133.0</ele><time>2026-05-03T18:05:56.026Z</time></trkpt><trkpt lat="43.28628918279014" lon="13.350851059822649"><ele>133.0</ele><time>2026-05-03T18:13:37.66Z</time></trkpt><trkpt lat="43.2862225051526" lon="13.350864458810454"><ele>133.0</ele><time>2026-05-03T18:14:35.991Z</time></trkpt><trkpt lat="43.28625275259464" lon="13.350946266966636"><ele>133.0</ele><time>2026-05-03T18:14:50Z</time></trkpt><trkpt lat="43.286296671353966" lon="13.351020551187156"><ele>133.0</ele><time>2026-05-03T18:15:21Z</time></trkpt><trkpt lat="43.286218599694365" lon="13.350976623636154"><ele>133.0</ele><time>2026-05-03T18:15:25Z</time></trkpt><trkpt lat="43.286186432050435" lon="13.350901570560282"><ele>133.0</ele><time>2026-05-03T18:15:27Z</time></trkpt><trkpt lat="43.28619281203017" lon="13.350780890461168"><ele>133.0</ele><time>2026-05-03T18:15:30Z</time></trkpt><trkpt lat="43.28612492976976" lon="13.350692611691528"><ele>133.0</ele><time>2026-05-03T18:15:33Z</time></trkpt><trkpt lat="43.28605939802675" lon="13.350682249157288"><ele>133.0</ele><time>2026-05-03T18:15:36Z</time></trkpt><trkpt lat="43.28599227780951" lon="13.350678757829966"><ele>133.0</ele><time>2026-05-03T18:15:38Z</time></trkpt><trkpt lat="43.28589377433827" lon="13.350640333764192"><ele>133.0</ele><time>2026-05-03T18:15:41Z</time></trkpt><trkpt lat="43.28581232364118" lon="13.350644418606356"><ele>133.0</ele><time>2026-05-03T18:15:43Z</time></trkpt><trkpt lat="43.28573781991324" lon="13.350689065449185"><ele>133.0</ele><time>2026-05-03T18:15:44.999Z</time></trkpt><trkpt lat="43.28568825342147" lon="13.350744755525488"><ele>133.0</ele><time>2026-05-03T18:15:47.999Z</time></trkpt><trkpt lat="43.285633235215656" lon="13.350809506593825"><ele>133.0</ele><time>2026-05-03T18:15:52.999Z</time></trkpt><trkpt lat="43.28569400726554" lon="13.350963981657742"><ele>133.0</ele><time>2026-05-03T18:15:53.999Z</time></trkpt><trkpt lat="43.285696839265256" lon="13.351050579689497"><ele>133.0</ele><time>2026-05-03T18:15:54.999Z</time></trkpt><trkpt lat="43.28573313235229" lon="13.351204323731894"><ele>133.0</ele><time>2026-05-03T18:15:56.999Z</time></trkpt><trkpt lat="43.2857718186469" lon="13.351346624209697"><ele>133.0</ele><time>2026-05-03T18:15:58.999Z</time></trkpt><trkpt lat="43.28580592222572" lon="13.35146133867077"><ele>133.0</ele><time>2026-05-03T18:16:00.999Z</time></trkpt><trkpt lat="43.286042435658466" lon="13.351376867149357"><ele>133.0</ele><time>2026-05-03T18:16:07.999Z</time></trkpt><trkpt lat="43.28612082242363" lon="13.35134878683646"><ele>133.0</ele><time>2026-05-03T18:17:19Z</time></trkpt><trkpt lat="43.28607940428111" lon="13.351269121614997"><ele>133.0</ele><time>2026-05-03T18:17:21Z</time></trkpt><trkpt lat="43.28603986158985" lon="13.351342317370682"><ele>133.0</ele><time>2026-05-03T18:17:27Z</time></trkpt><trkpt lat="43.286117295650385" lon="13.3513615517221"><ele>133.0</ele><time>2026-05-03T18:19:08Z</time></trkpt><trkpt lat="43.28603895511409" lon="13.351351054212046"><ele>133.0</ele><time>2026-05-03T18:21:23Z</time></trkpt><trkpt lat="43.28602108555488" lon="13.351263571603424"><ele>133.0</ele><time>2026-05-03T18:21:36Z</time></trkpt><trkpt lat="43.2860010369161" lon="13.351175064032875"><ele>133.0</ele><time>2026-05-03T18:21:46Z</time></trkpt><trkpt lat="43.28603187455215" lon="13.351090659698308"><ele>133.0</ele><time>2026-05-03T18:21:56Z</time></trkpt><trkpt lat="43.28606078489089" lon="13.351005686179505"><ele>133.0</ele><time>2026-05-03T18:22:02.999Z</time></trkpt><trkpt lat="43.28609297764077" lon="13.350928067403473"><ele>133.0</ele><time>2026-05-03T18:22:09.999Z</time></trkpt><trkpt lat="43.28615941535686" lon="13.35089309847942"><ele>133.0</ele><time>2026-05-03T18:22:18.999Z</time></trkpt><trkpt lat="43.286179001191556" lon="13.350808053122176"><ele>133.0</ele><time>2026-05-03T18:22:26.999Z</time></trkpt><trkpt lat="43.286160890725135" lon="13.350722281242506"><ele>133.0</ele><time>2026-05-03T18:22:33.999Z</time></trkpt><trkpt lat="43.28618201467477" lon="13.350808150472572"><ele>133.0</ele><time>2026-05-03T18:23:04.999Z</time></trkpt><trkpt lat="43.28620886819217" lon="13.35088750285088"><ele>133.0</ele><time>2026-05-03T18:23:13Z</time></trkpt><trkpt lat="43.2862657654622" lon="13.350846909576845"><ele>133.0</ele><time>2026-05-03T18:23:21Z</time></trkpt><trkpt lat="43.28638825173377" lon="13.350819784860374"><ele>133.0</ele><time>2026-05-03T18:23:58.999Z</time></trkpt><trkpt lat="43.286439703544055" lon="13.350764332982187"><ele>133.0</ele><time>2026-05-03T18:24:49.999Z</time></trkpt><trkpt lat="43.28650975620591" lon="13.350974377530111"><ele>133.0</ele><time>2026-05-03T18:25:11.071Z</time></trkpt><trkpt lat="43.2864494009946" lon="13.351020983398241"><ele>133.0</ele><time>2026-05-03T18:25:14.07Z</time></trkpt><trkpt lat="43.28623211004846" lon="13.351084436437478"><ele>133.0</ele><time>2026-05-03T18:25:15.073Z</time></trkpt><trkpt lat="43.28623967025173" lon="13.351230098930447"><ele>133.0</ele><time>2026-05-03T18:25:17.07Z</time></trkpt><trkpt lat="43.28626029723511" lon="13.351059733965297"><ele>133.0</ele><time>2026-05-03T18:25:25.998Z</time></trkpt><trkpt lat="43.28627869048693" lon="13.350953740598845"><ele>133.0</ele><time>2026-05-03T18:25:30Z</time></trkpt><trkpt lat="43.28631705657971" lon="13.351112350878243"><ele>133.0</ele><time>2026-05-03T18:25:42Z</time></trkpt><trkpt lat="43.286225077938525" lon="13.350898500862016"><ele>133.0</ele><time>2026-05-03T18:25:43Z</time></trkpt><trkpt lat="43.286236923086385" lon="13.35081184465669"><ele>133.0</ele><time>2026-05-03T18:26:34.999Z</time></trkpt><trkpt lat="43.28626451670157" lon="13.35089996960068"><ele>133.0</ele><time>2026-05-03T18:29:47.014Z</time></trkpt></trkseg></trk></gpx>